<?xml version='1.0' encoding='UTF-8'?><gpx version="1.1" creator="JPX - https://github.com/jenetics/jpx" xmlns="http://www.topografix.com/GPX/1/1"><trk><trkseg><trkpt lat="39.2553088" lon="16.7002823"><ele>999.5999999999999</ele><time>2026-04-25T06:53:06.835Z</time></trkpt><trkpt lat="39.2552728" lon="16.7001636"><ele>1001.1999999999999</ele><time>2026-04-25T06:53:08.84Z</time></trkpt><trkpt lat="39.2552464" lon="16.7000365"><ele>1002.8</ele><time>2026-04-25T06:53:10.831Z</time></trkpt><trkpt lat="39.2552337" lon="16.6999388"><ele>1004.4</ele><time>2026-04-25T06:53:12.824Z</time></trkpt><trkpt lat="39.255246" lon="16.6997921"><ele>1006.0</ele><time>2026-04-25T06:53:29.992Z</time></trkpt><trkpt lat="39.2553102" lon="16.6996911"><ele>1005.9999999999999</ele><time>2026-04-25T06:53:31.967Z</time></trkpt><trkpt lat="39.2553786" lon="16.6997184"><ele>1006.0</ele><time>2026-04-25T06:54:34.986Z</time></trkpt><trkpt lat="39.2554039" lon="16.6998433"><ele>1006.0</ele><time>2026-04-25T06:54:37.038Z</time></trkpt><trkpt lat="39.2554582" lon="16.6999265"><ele>1006.0</ele><time>2026-04-25T06:54:38.009Z</time></trkpt><trkpt lat="39.2555155" lon="16.7000072"><ele>1005.9999999999999</ele><time>2026-04-25T06:54:38.991Z</time></trkpt><trkpt lat="39.2556046" lon="16.7000697"><ele>1006.0</ele><time>2026-04-25T06:54:39.976Z</time></trkpt><trkpt lat="39.2556747" lon="16.7001129"><ele>1007.3333333333333</ele><time>2026-04-25T06:54:40.983Z</time></trkpt><trkpt lat="39.2557731" lon="16.7000973"><ele>1008.6666666666666</ele><time>2026-04-25T06:54:43.008Z</time></trkpt><trkpt lat="39.2558689" lon="16.7000671"><ele>1010.0</ele><time>2026-04-25T06:54:44.979Z</time></trkpt><trkpt lat="39.2559386" lon="16.70003"><ele>1011.3333333333333</ele><time>2026-04-25T06:54:47.988Z</time></trkpt><trkpt lat="39.255965" lon="16.6999324"><ele>1012.6666666666666</ele><time>2026-04-25T06:54:52.016Z</time></trkpt><trkpt lat="39.2559768" lon="16.6998172"><ele>1014.0</ele><time>2026-04-25T06:54:53.981Z</time></trkpt><trkpt lat="39.2560141" lon="16.6997008"><ele>1014.0</ele><time>2026-04-25T06:54:55.983Z</time></trkpt><trkpt lat="39.2560223" lon="16.6996013"><ele>1014.0</ele><time>2026-04-25T06:54:57.984Z</time></trkpt><trkpt lat="39.25599" lon="16.6994974"><ele>1014.0</ele><time>2026-04-25T06:54:59.996Z</time></trkpt><trkpt lat="39.2559685" lon="16.6994053"><ele>1014.0</ele><time>2026-04-25T06:55:01.999Z</time></trkpt><trkpt lat="39.2559944" lon="16.6993217"><ele>1014.0</ele><time>2026-04-25T06:55:03.972Z</time></trkpt><trkpt lat="39.2560672" lon="16.699275"><ele>1014.0</ele><time>2026-04-25T06:55:06.996Z</time></trkpt><trkpt lat="39.2561312" lon="16.6992478"><ele>1015.5714285714286</ele><time>2026-04-25T06:55:08.99Z</time></trkpt><trkpt lat="39.2561954" lon="16.6992226"><ele>1017.1428571428571</ele><time>2026-04-25T06:55:11.004Z</time></trkpt><trkpt lat="39.2562551" lon="16.6991946"><ele>1018.7142857142857</ele><time>2026-04-25T06:55:12.991Z</time></trkpt><trkpt lat="39.2563531" lon="16.699196"><ele>1020.2857142857142</ele><time>2026-04-25T06:55:15.998Z</time></trkpt><trkpt lat="39.2564196" lon="16.6992022"><ele>1021.8571428571429</ele><time>2026-04-25T06:55:17.992Z</time></trkpt><trkpt lat="39.2564911" lon="16.6992011"><ele>1023.4285714285713</ele><time>2026-04-25T06:55:19.993Z</time></trkpt><trkpt lat="39.2565589" lon="16.6992009"><ele>1025.0</ele><time>2026-04-25T06:55:21.994Z</time></trkpt><trkpt lat="39.2566347" lon="16.6992021"><ele>1026.1666666666667</ele><time>2026-04-25T06:55:23.983Z</time></trkpt><trkpt lat="39.2567054" lon="16.6992038"><ele>1027.3333333333335</ele><time>2026-04-25T06:55:25.994Z</time></trkpt><trkpt lat="39.2567876" lon="16.6992086"><ele>1028.5</ele><time>2026-04-25T06:55:28.984Z</time></trkpt><trkpt lat="39.2568681" lon="16.6992053"><ele>1029.6666666666667</ele><time>2026-04-25T06:55:32.984Z</time></trkpt><trkpt lat="39.2569412" lon="16.6991349"><ele>1030.8333333333333</ele><time>2026-04-25T06:55:35.988Z</time></trkpt><trkpt lat="39.2569868" lon="16.6990625"><ele>1032.0</ele><time>2026-04-25T06:55:37.971Z</time></trkpt><trkpt lat="39.2570501" lon="16.6989987"><ele>1032.0</ele><time>2026-04-25T06:55:40.972Z</time></trkpt><trkpt lat="39.2571177" lon="16.6990134"><ele>1032.0</ele><time>2026-04-25T06:55:43.037Z</time></trkpt><trkpt lat="39.2571882" lon="16.6990047"><ele>1032.0</ele><time>2026-04-25T06:55:46.005Z</time></trkpt><trkpt lat="39.2571894" lon="16.6989099"><ele>1032.0</ele><time>2026-04-25T06:55:48.984Z</time></trkpt><trkpt lat="39.2571573" lon="16.6988056"><ele>1032.0</ele><time>2026-04-25T06:55:51.985Z</time></trkpt><trkpt lat="39.2571919" lon="16.6986912"><ele>1032.0</ele><time>2026-04-25T06:55:55.018Z</time></trkpt><trkpt lat="39.2572229" lon="16.698607"><ele>1034.3333333333333</ele><time>2026-04-25T06:55:56.986Z</time></trkpt><trkpt lat="39.2572664" lon="16.6985062"><ele>1036.6666666666667</ele><time>2026-04-25T06:55:59.007Z</time></trkpt><trkpt lat="39.2572874" lon="16.6984109"><ele>1039.0</ele><time>2026-04-25T06:56:01.971Z</time></trkpt><trkpt lat="39.2572589" lon="16.6983289"><ele>1041.3333333333335</ele><time>2026-04-25T06:56:04.978Z</time></trkpt><trkpt lat="39.2571838" lon="16.6983302"><ele>1043.6666666666667</ele><time>2026-04-25T06:56:06.974Z</time></trkpt><trkpt lat="39.2570891" lon="16.6983247"><ele>1046.0</ele><time>2026-04-25T06:56:08.97Z</time></trkpt><trkpt lat="39.2570093" lon="16.6982834"><ele>1046.0</ele><time>2026-04-25T06:56:10.984Z</time></trkpt><trkpt lat="39.2569681" lon="16.698144"><ele>1046.0</ele><time>2026-04-25T06:56:12.989Z</time></trkpt><trkpt lat="39.2569376" lon="16.6979923"><ele>1046.0</ele><time>2026-04-25T06:56:14.988Z</time></trkpt><trkpt lat="39.2569073" lon="16.6978663"><ele>1046.0</ele><time>2026-04-25T06:56:16.987Z</time></trkpt><trkpt lat="39.2568815" lon="16.697785"><ele>1046.0</ele><time>2026-04-25T06:56:19.974Z</time></trkpt><trkpt lat="39.2568685" lon="16.6976982"><ele>1047.1666666666667</ele><time>2026-04-25T06:56:21.98Z</time></trkpt><trkpt lat="39.2568566" lon="16.6975823"><ele>1048.3333333333335</ele><time>2026-04-25T06:56:24.983Z</time></trkpt><trkpt lat="39.2568517" lon="16.6974492"><ele>1049.5</ele><time>2026-04-25T06:56:26.986Z</time></trkpt><trkpt lat="39.2568443" lon="16.6973611"><ele>1050.6666666666667</ele><time>2026-04-25T06:56:27.983Z</time></trkpt><trkpt lat="39.2568278" lon="16.6972562"><ele>1051.8333333333333</ele><time>2026-04-25T06:56:28.984Z</time></trkpt><trkpt lat="39.2568122" lon="16.6971326"><ele>1053.0</ele><time>2026-04-25T06:56:29.982Z</time></trkpt><trkpt lat="39.2567962" lon="16.6969994"><ele>1053.25</ele><time>2026-04-25T06:56:30.985Z</time></trkpt><trkpt lat="39.2567987" lon="16.6968462"><ele>1053.5</ele><time>2026-04-25T06:56:31.975Z</time></trkpt><trkpt lat="39.2568012" lon="16.6966942"><ele>1053.75</ele><time>2026-04-25T06:56:32.971Z</time></trkpt><trkpt lat="39.2568229" lon="16.6965537"><ele>1054.0</ele><time>2026-04-25T06:56:33.976Z</time></trkpt><trkpt lat="39.2568487" lon="16.6964151"><ele>1054.0</ele><time>2026-04-25T06:56:34.981Z</time></trkpt><trkpt lat="39.2568761" lon="16.6962894"><ele>1054.0</ele><time>2026-04-25T06:56:35.986Z</time></trkpt><trkpt lat="39.2569031" lon="16.696163"><ele>1054.0</ele><time>2026-04-25T06:56:36.99Z</time></trkpt><trkpt lat="39.2569131" lon="16.6960397"><ele>1054.0</ele><time>2026-04-25T06:56:37.974Z</time></trkpt><trkpt lat="39.2568988" lon="16.6959211"><ele>1054.0</ele><time>2026-04-25T06:56:38.973Z</time></trkpt><trkpt lat="39.2568794" lon="16.6958067"><ele>1054.5</ele><time>2026-04-25T06:56:39.981Z</time></trkpt><trkpt lat="39.2568559" lon="16.6956963"><ele>1055.0</ele><time>2026-04-25T06:56:40.979Z</time></trkpt><trkpt lat="39.2568338" lon="16.6955834"><ele>1055.5</ele><time>2026-04-25T06:56:41.979Z</time></trkpt><trkpt lat="39.2568149" lon="16.695472"><ele>1056.0</ele><time>2026-04-25T06:56:42.966Z</time></trkpt><trkpt lat="39.2568018" lon="16.6953595"><ele>1056.5</ele><time>2026-04-25T06:56:43.978Z</time></trkpt><trkpt lat="39.2567915" lon="16.6952516"><ele>1057.0</ele><time>2026-04-25T06:56:44.981Z</time></trkpt><trkpt lat="39.2567852" lon="16.6951533"><ele>1057.5714285714287</ele><time>2026-04-25T06:56:45.976Z</time></trkpt><trkpt lat="39.2567762" lon="16.6950643"><ele>1058.142857142857</ele><time>2026-04-25T06:56:46.972Z</time></trkpt><trkpt lat="39.2567672" lon="16.6949744"><ele>1058.7142857142858</ele><time>2026-04-25T06:56:47.977Z</time></trkpt><trkpt lat="39.2567572" lon="16.6948806"><ele>1059.2857142857142</ele><time>2026-04-25T06:56:48.982Z</time></trkpt><trkpt lat="39.2567467" lon="16.6947879"><ele>1059.857142857143</ele><time>2026-04-25T06:56:49.973Z</time></trkpt><trkpt lat="39.2567401" lon="16.6946964"><ele>1060.4285714285716</ele><time>2026-04-25T06:56:50.97Z</time></trkpt><trkpt lat="39.2567387" lon="16.6946078"><ele>1061.0</ele><time>2026-04-25T06:56:51.976Z</time></trkpt><trkpt lat="39.2567439" lon="16.6945244"><ele>1061.0000000000002</ele><time>2026-04-25T06:56:52.967Z</time></trkpt><trkpt lat="39.2567534" lon="16.6944439"><ele>1061.0</ele><time>2026-04-25T06:56:53.971Z</time></trkpt><trkpt lat="39.256759" lon="16.6943625"><ele>1061.0</ele><time>2026-04-25T06:56:54.975Z</time></trkpt><trkpt lat="39.2567574" lon="16.6942767"><ele>1061.0</ele><time>2026-04-25T06:56:55.98Z</time></trkpt><trkpt lat="39.2567532" lon="16.6941861"><ele>1061.0</ele><time>2026-04-25T06:56:56.971Z</time></trkpt><trkpt lat="39.2567515" lon="16.6940889"><ele>1061.0000000000002</ele><time>2026-04-25T06:56:57.978Z</time></trkpt><trkpt lat="39.256756" lon="16.6939882"><ele>1061.0</ele><time>2026-04-25T06:56:58.983Z</time></trkpt><trkpt lat="39.2567654" lon="16.6938878"><ele>1060.5</ele><time>2026-04-25T06:56:59.986Z</time></trkpt><trkpt lat="39.2567744" lon="16.6937879"><ele>1060.0</ele><time>2026-04-25T06:57:00.979Z</time></trkpt><trkpt lat="39.2567835" lon="16.6936809"><ele>1059.5</ele><time>2026-04-25T06:57:01.976Z</time></trkpt><trkpt lat="39.2567949" lon="16.6935646"><ele>1059.0</ele><time>2026-04-25T06:57:02.983Z</time></trkpt><trkpt lat="39.2568082" lon="16.6934435"><ele>1058.5</ele><time>2026-04-25T06:57:03.975Z</time></trkpt><trkpt lat="39.2568246" lon="16.69333"><ele>1058.0</ele><time>2026-04-25T06:57:04.974Z</time></trkpt><trkpt lat="39.2568391" lon="16.6932482"><ele>1056.8</ele><time>2026-04-25T06:57:05.971Z</time></trkpt><trkpt lat="39.2568867" lon="16.6930875"><ele>1055.6</ele><time>2026-04-25T06:57:07.979Z</time></trkpt><trkpt lat="39.2569229" lon="16.6929953"><ele>1054.4</ele><time>2026-04-25T06:57:08.978Z</time></trkpt><trkpt lat="39.2569678" lon="16.6928957"><ele>1053.2</ele><time>2026-04-25T06:57:09.976Z</time></trkpt><trkpt lat="39.2570243" lon="16.6927917"><ele>1052.0</ele><time>2026-04-25T06:57:10.973Z</time></trkpt><trkpt lat="39.2570858" lon="16.6926787"><ele>1051.4</ele><time>2026-04-25T06:57:11.973Z</time></trkpt><trkpt lat="39.2571446" lon="16.6925586"><ele>1050.8000000000002</ele><time>2026-04-25T06:57:12.97Z</time></trkpt><trkpt lat="39.257195" lon="16.6924275"><ele>1050.2</ele><time>2026-04-25T06:57:13.969Z</time></trkpt><trkpt lat="39.2572365" lon="16.692292"><ele>1049.6000000000001</ele><time>2026-04-25T06:57:14.974Z</time></trkpt><trkpt lat="39.2572702" lon="16.6921542"><ele>1049.0</ele><time>2026-04-25T06:57:15.977Z</time></trkpt><trkpt lat="39.2572981" lon="16.6920182"><ele>1052.6000000000001</ele><time>2026-04-25T06:57:16.974Z</time></trkpt><trkpt lat="39.2573205" lon="16.6918938"><ele>1056.2</ele><time>2026-04-25T06:57:17.972Z</time></trkpt><trkpt lat="39.257339" lon="16.6917867"><ele>1059.8000000000002</ele><time>2026-04-25T06:57:18.98Z</time></trkpt><trkpt lat="39.2573649" lon="16.6916478"><ele>1063.4</ele><time>2026-04-25T06:57:20.984Z</time></trkpt><trkpt lat="39.2573847" lon="16.6915434"><ele>1067.0</ele><time>2026-04-25T06:57:24.001Z</time></trkpt><trkpt lat="39.2574292" lon="16.6913604"><ele>1067.0</ele><time>2026-04-25T06:57:25.983Z</time></trkpt><trkpt lat="39.2574655" lon="16.6912252"><ele>1067.0</ele><time>2026-04-25T06:57:26.982Z</time></trkpt><trkpt lat="39.2575118" lon="16.6910673"><ele>1067.0</ele><time>2026-04-25T06:57:27.977Z</time></trkpt><trkpt lat="39.2575627" lon="16.6909018"><ele>1067.0</ele><time>2026-04-25T06:57:28.975Z</time></trkpt><trkpt lat="39.2576138" lon="16.6907462"><ele>1065.4</ele><time>2026-04-25T06:57:29.974Z</time></trkpt><trkpt lat="39.2576639" lon="16.6906114"><ele>1063.8000000000002</ele><time>2026-04-25T06:57:30.976Z</time></trkpt><trkpt lat="39.2577162" lon="16.6905004"><ele>1062.2</ele><time>2026-04-25T06:57:31.983Z</time></trkpt><trkpt lat="39.2577809" lon="16.6904171"><ele>1060.6000000000001</ele><time>2026-04-25T06:57:32.986Z</time></trkpt><trkpt lat="39.257854" lon="16.6903744"><ele>1059.0</ele><time>2026-04-25T06:57:33.981Z</time></trkpt><trkpt lat="39.2579254" lon="16.6903604"><ele>1059.0</ele><time>2026-04-25T06:57:34.974Z</time></trkpt><trkpt lat="39.2579909" lon="16.6903552"><ele>1059.0</ele><time>2026-04-25T06:57:35.967Z</time></trkpt><trkpt lat="39.2581065" lon="16.6903544"><ele>1059.0</ele><time>2026-04-25T06:57:37.978Z</time></trkpt><trkpt lat="39.2582087" lon="16.6903606"><ele>1059.0</ele><time>2026-04-25T06:57:39.983Z</time></trkpt><trkpt lat="39.2583356" lon="16.6903715"><ele>1059.0</ele><time>2026-04-25T06:57:41.967Z</time></trkpt><trkpt lat="39.2584159" lon="16.6903674"><ele>1062.4</ele><time>2026-04-25T06:57:42.975Z</time></trkpt><trkpt lat="39.2585056" lon="16.6903638"><ele>1065.8000000000002</ele><time>2026-04-25T06:57:43.972Z</time></trkpt><trkpt lat="39.258603" lon="16.6903615"><ele>1069.1999999999998</ele><time>2026-04-25T06:57:44.974Z</time></trkpt><trkpt lat="39.2587056" lon="16.6903629"><ele>1072.6</ele><time>2026-04-25T06:57:45.967Z</time></trkpt><trkpt lat="39.258812" lon="16.6903656"><ele>1076.0</ele><time>2026-04-25T06:57:46.977Z</time></trkpt><trkpt lat="39.2589195" lon="16.6903687"><ele>1076.6666666666667</ele><time>2026-04-25T06:57:47.972Z</time></trkpt><trkpt lat="39.2590175" lon="16.6903775"><ele>1077.3333333333335</ele><time>2026-04-25T06:57:48.98Z</time></trkpt><trkpt lat="39.2591027" lon="16.690401"><ele>1078.0</ele><time>2026-04-25T06:57:49.974Z</time></trkpt><trkpt lat="39.2591811" lon="16.6904219"><ele>1078.6666666666667</ele><time>2026-04-25T06:57:50.988Z</time></trkpt><trkpt lat="39.259247" lon="16.6904513"><ele>1079.3333333333333</ele><time>2026-04-25T06:57:51.979Z</time></trkpt><trkpt lat="39.2593094" lon="16.6904766"><ele>1080.0</ele><time>2026-04-25T06:57:52.98Z</time></trkpt><trkpt lat="39.2594175" lon="16.6905208"><ele>1080.0</ele><time>2026-04-25T06:57:54.974Z</time></trkpt><trkpt lat="39.2594773" lon="16.6905477"><ele>1080.0</ele><time>2026-04-25T06:57:55.983Z</time></trkpt><trkpt lat="39.2595442" lon="16.6905805"><ele>1080.0</ele><time>2026-04-25T06:57:56.971Z</time></trkpt><trkpt lat="39.2596114" lon="16.6906333"><ele>1080.0</ele><time>2026-04-25T06:57:57.976Z</time></trkpt><trkpt lat="39.2596667" lon="16.6907166"><ele>1080.0</ele><time>2026-04-25T06:57:58.978Z</time></trkpt><trkpt lat="39.259711" lon="16.6908156"><ele>1080.0</ele><time>2026-04-25T06:57:59.982Z</time></trkpt><trkpt lat="39.2597462" lon="16.6909209"><ele>1080.0</ele><time>2026-04-25T06:58:00.967Z</time></trkpt><trkpt lat="39.2597802" lon="16.6910226"><ele>1080.0</ele><time>2026-04-25T06:58:01.971Z</time></trkpt><trkpt lat="39.2597943" lon="16.6911222"><ele>1080.0</ele><time>2026-04-25T06:58:02.973Z</time></trkpt><trkpt lat="39.2598106" lon="16.6912178"><ele>1080.0</ele><time>2026-04-25T06:58:03.975Z</time></trkpt><trkpt lat="39.2598279" lon="16.6913072"><ele>1080.0</ele><time>2026-04-25T06:58:04.971Z</time></trkpt><trkpt lat="39.2598442" lon="16.691388"><ele>1080.0</ele><time>2026-04-25T06:58:05.974Z</time></trkpt><trkpt lat="39.2598686" lon="16.6914708"><ele>1080.0</ele><time>2026-04-25T06:58:06.977Z</time></trkpt><trkpt lat="39.2599008" lon="16.6915443"><ele>1080.6</ele><time>2026-04-25T06:58:07.967Z</time></trkpt><trkpt lat="39.25995" lon="16.6916136"><ele>1081.2</ele><time>2026-04-25T06:58:08.992Z</time></trkpt><trkpt lat="39.2600226" lon="16.6916904"><ele>1081.8</ele><time>2026-04-25T06:58:09.993Z</time></trkpt><trkpt lat="39.2601159" lon="16.6917906"><ele>1082.4</ele><time>2026-04-25T06:58:10.971Z</time></trkpt><trkpt lat="39.2602134" lon="16.6919063"><ele>1083.0</ele><time>2026-04-25T06:58:11.977Z</time></trkpt><trkpt lat="39.2603133" lon="16.6920178"><ele>1084.0</ele><time>2026-04-25T06:58:12.968Z</time></trkpt><trkpt lat="39.2604102" lon="16.692116"><ele>1085.0</ele><time>2026-04-25T06:58:13.968Z</time></trkpt><trkpt lat="39.2605134" lon="16.6922013"><ele>1086.0</ele><time>2026-04-25T06:58:14.976Z</time></trkpt><trkpt lat="39.2606337" lon="16.6922755"><ele>1087.0</ele><time>2026-04-25T06:58:15.977Z</time></trkpt><trkpt lat="39.2607677" lon="16.6923565"><ele>1087.0</ele><time>2026-04-25T06:58:16.971Z</time></trkpt><trkpt lat="39.2609004" lon="16.6924456"><ele>1087.0</ele><time>2026-04-25T06:58:17.982Z</time></trkpt><trkpt lat="39.2610191" lon="16.692531"><ele>1087.0</ele><time>2026-04-25T06:58:18.976Z</time></trkpt><trkpt lat="39.2611172" lon="16.6926015"><ele>1087.0</ele><time>2026-04-25T06:58:19.973Z</time></trkpt><trkpt lat="39.2612025" lon="16.6926617"><ele>1087.0</ele><time>2026-04-25T06:58:20.973Z</time></trkpt><trkpt lat="39.2612878" lon="16.6927286"><ele>1087.0</ele><time>2026-04-25T06:58:21.97Z</time></trkpt><trkpt lat="39.2613759" lon="16.6928045"><ele>1087.0</ele><time>2026-04-25T06:58:22.981Z</time></trkpt><trkpt lat="39.2614691" lon="16.6928851"><ele>1087.0</ele><time>2026-04-25T06:58:23.97Z</time></trkpt><trkpt lat="39.2615805" lon="16.6929339"><ele>1087.0</ele><time>2026-04-25T06:58:24.966Z</time></trkpt><trkpt lat="39.261694" lon="16.6929518"><ele>1086.2</ele><time>2026-04-25T06:58:25.972Z</time></trkpt><trkpt lat="39.2618" lon="16.6929665"><ele>1085.4</ele><time>2026-04-25T06:58:26.977Z</time></trkpt><trkpt lat="39.261882" lon="16.6928838"><ele>1084.6</ele><time>2026-04-25T06:58:27.98Z</time></trkpt><trkpt lat="39.2619407" lon="16.6927708"><ele>1083.8</ele><time>2026-04-25T06:58:28.978Z</time></trkpt><trkpt lat="39.2619874" lon="16.6926449"><ele>1083.0</ele><time>2026-04-25T06:58:29.971Z</time></trkpt><trkpt lat="39.2620324" lon="16.692517"><ele>1083.0</ele><time>2026-04-25T06:58:30.97Z</time></trkpt><trkpt lat="39.2620881" lon="16.6924046"><ele>1083.0</ele><time>2026-04-25T06:58:31.978Z</time></trkpt><trkpt lat="39.2621678" lon="16.692318"><ele>1083.0</ele><time>2026-04-25T06:58:32.975Z</time></trkpt><trkpt lat="39.2622642" lon="16.692248"><ele>1083.0</ele><time>2026-04-25T06:58:33.972Z</time></trkpt><trkpt lat="39.2623734" lon="16.692184"><ele>1083.0</ele><time>2026-04-25T06:58:34.969Z</time></trkpt><trkpt lat="39.262493" lon="16.6921182"><ele>1086.0</ele><time>2026-04-25T06:58:35.972Z</time></trkpt><trkpt lat="39.2626301" lon="16.6920427"><ele>1089.0</ele><time>2026-04-25T06:58:36.981Z</time></trkpt><trkpt lat="39.2627745" lon="16.6919569"><ele>1092.0</ele><time>2026-04-25T06:58:37.976Z</time></trkpt><trkpt lat="39.2629209" lon="16.6918693"><ele>1092.0</ele><time>2026-04-25T06:58:38.977Z</time></trkpt><trkpt lat="39.2630558" lon="16.6917843"><ele>1092.0</ele><time>2026-04-25T06:58:39.981Z</time></trkpt><trkpt lat="39.263187" lon="16.6917015"><ele>1092.0</ele><time>2026-04-25T06:58:40.976Z</time></trkpt><trkpt lat="39.2632688" lon="16.6915675"><ele>1092.0</ele><time>2026-04-25T06:58:41.973Z</time></trkpt><trkpt lat="39.2633198" lon="16.6914062"><ele>1091.5</ele><time>2026-04-25T06:58:42.973Z</time></trkpt><trkpt lat="39.2633513" lon="16.6912275"><ele>1091.0</ele><time>2026-04-25T06:58:43.973Z</time></trkpt><trkpt lat="39.2633767" lon="16.6910505"><ele>1090.5</ele><time>2026-04-25T06:58:44.981Z</time></trkpt><trkpt lat="39.2634207" lon="16.6908785"><ele>1090.0</ele><time>2026-04-25T06:58:45.971Z</time></trkpt><trkpt lat="39.2634931" lon="16.6907289"><ele>1092.0</ele><time>2026-04-25T06:58:46.974Z</time></trkpt><trkpt lat="39.2635918" lon="16.6906092"><ele>1094.0</ele><time>2026-04-25T06:58:47.982Z</time></trkpt><trkpt lat="39.2637078" lon="16.6905178"><ele>1096.0</ele><time>2026-04-25T06:58:48.98Z</time></trkpt><trkpt lat="39.263828" lon="16.6904419"><ele>1098.0</ele><time>2026-04-25T06:58:49.98Z</time></trkpt><trkpt lat="39.263939" lon="16.6903592"><ele>1097.8</ele><time>2026-04-25T06:58:50.988Z</time></trkpt><trkpt lat="39.264025" lon="16.6902564"><ele>1097.6</ele><time>2026-04-25T06:58:51.977Z</time></trkpt><trkpt lat="39.2640783" lon="16.690131"><ele>1097.4</ele><time>2026-04-25T06:58:52.987Z</time></trkpt><trkpt lat="39.2640951" lon="16.6899915"><ele>1097.2</ele><time>2026-04-25T06:58:53.983Z</time></trkpt><trkpt lat="39.2640814" lon="16.6898499"><ele>1097.0</ele><time>2026-04-25T06:58:54.974Z</time></trkpt><trkpt lat="39.2640563" lon="16.6897111"><ele>1097.0</ele><time>2026-04-25T06:58:55.977Z</time></trkpt><trkpt lat="39.2640304" lon="16.6895682"><ele>1097.0</ele><time>2026-04-25T06:58:56.972Z</time></trkpt><trkpt lat="39.2640248" lon="16.6894222"><ele>1097.0</ele><time>2026-04-25T06:58:57.979Z</time></trkpt><trkpt lat="39.2640535" lon="16.6892852"><ele>1097.0</ele><time>2026-04-25T06:58:58.978Z</time></trkpt><trkpt lat="39.2641148" lon="16.6891614"><ele>1098.25</ele><time>2026-04-25T06:58:59.993Z</time></trkpt><trkpt lat="39.2641917" lon="16.6890461"><ele>1099.5</ele><time>2026-04-25T06:59:00.982Z</time></trkpt><trkpt lat="39.2642693" lon="16.6889191"><ele>1100.75</ele><time>2026-04-25T06:59:01.981Z</time></trkpt><trkpt lat="39.2643349" lon="16.6887727"><ele>1102.0</ele><time>2026-04-25T06:59:02.991Z</time></trkpt><trkpt lat="39.2643839" lon="16.6886146"><ele>1103.5</ele><time>2026-04-25T06:59:03.989Z</time></trkpt><trkpt lat="39.2644201" lon="16.6884495"><ele>1105.0</ele><time>2026-04-25T06:59:04.985Z</time></trkpt><trkpt lat="39.2644549" lon="16.6882886"><ele>1106.5</ele><time>2026-04-25T06:59:05.977Z</time></trkpt><trkpt lat="39.2644869" lon="16.6881434"><ele>1108.0</ele><time>2026-04-25T06:59:06.992Z</time></trkpt><trkpt lat="39.2645132" lon="16.6880189"><ele>1108.0</ele><time>2026-04-25T06:59:07.98Z</time></trkpt><trkpt lat="39.2645352" lon="16.6879175"><ele>1108.0</ele><time>2026-04-25T06:59:08.985Z</time></trkpt><trkpt lat="39.2645709" lon="16.687772"><ele>1108.0</ele><time>2026-04-25T06:59:10.972Z</time></trkpt><trkpt lat="39.2646081" lon="16.6876027"><ele>1108.0</ele><time>2026-04-25T06:59:12.976Z</time></trkpt><trkpt lat="39.2646292" lon="16.6875013"><ele>1108.0</ele><time>2026-04-25T06:59:13.971Z</time></trkpt><trkpt lat="39.2646516" lon="16.6873935"><ele>1109.6</ele><time>2026-04-25T06:59:14.975Z</time></trkpt><trkpt lat="39.2646691" lon="16.6872784"><ele>1111.1999999999998</ele><time>2026-04-25T06:59:15.973Z</time></trkpt><trkpt lat="39.264689" lon="16.6871671"><ele>1112.8</ele><time>2026-04-25T06:59:16.98Z</time></trkpt><trkpt lat="39.2647131" lon="16.6870585"><ele>1114.3999999999999</ele><time>2026-04-25T06:59:17.981Z</time></trkpt><trkpt lat="39.2647459" lon="16.6869467"><ele>1116.0</ele><time>2026-04-25T06:59:18.977Z</time></trkpt><trkpt lat="39.2647972" lon="16.6868356"><ele>1113.1666666666667</ele><time>2026-04-25T06:59:19.968Z</time></trkpt><trkpt lat="39.2648699" lon="16.6867433"><ele>1110.3333333333333</ele><time>2026-04-25T06:59:20.984Z</time></trkpt><trkpt lat="39.2649397" lon="16.6866851"><ele>1107.5</ele><time>2026-04-25T06:59:21.977Z</time></trkpt><trkpt lat="39.2650041" lon="16.6866456"><ele>1104.6666666666665</ele><time>2026-04-25T06:59:22.969Z</time></trkpt><trkpt lat="39.265071" lon="16.6866047"><ele>1101.8333333333333</ele><time>2026-04-25T06:59:23.978Z</time></trkpt><trkpt lat="39.2651439" lon="16.686551"><ele>1099.0</ele><time>2026-04-25T06:59:24.983Z</time></trkpt><trkpt lat="39.2652211" lon="16.6864767"><ele>1099.0</ele><time>2026-04-25T06:59:25.972Z</time></trkpt><trkpt lat="39.2652946" lon="16.6863781"><ele>1099.0</ele><time>2026-04-25T06:59:26.975Z</time></trkpt><trkpt lat="39.2653628" lon="16.6862563"><ele>1099.0</ele><time>2026-04-25T06:59:27.977Z</time></trkpt><trkpt lat="39.2654183" lon="16.6861073"><ele>1099.0</ele><time>2026-04-25T06:59:28.972Z</time></trkpt><trkpt lat="39.2654569" lon="16.6859356"><ele>1099.6666666666665</ele><time>2026-04-25T06:59:29.981Z</time></trkpt><trkpt lat="39.2654812" lon="16.6857351"><ele>1100.3333333333333</ele><time>2026-04-25T06:59:30.977Z</time></trkpt><trkpt lat="39.2654984" lon="16.6855212"><ele>1101.0</ele><time>2026-04-25T06:59:31.983Z</time></trkpt><trkpt lat="39.2655148" lon="16.685307"><ele>1101.3333333333333</ele><time>2026-04-25T06:59:32.983Z</time></trkpt><trkpt lat="39.265536" lon="16.6851026"><ele>1101.6666666666665</ele><time>2026-04-25T06:59:33.975Z</time></trkpt><trkpt lat="39.2655667" lon="16.6849071"><ele>1102.0</ele><time>2026-04-25T06:59:34.977Z</time></trkpt><trkpt lat="39.2656178" lon="16.6847259"><ele>1100.25</ele><time>2026-04-25T06:59:35.976Z</time></trkpt><trkpt lat="39.2656645" lon="16.6845593"><ele>1098.5</ele><time>2026-04-25T06:59:36.972Z</time></trkpt><trkpt lat="39.2657752" lon="16.6844473"><ele>1096.75</ele><time>2026-04-25T06:59:37.979Z</time></trkpt><trkpt lat="39.2659027" lon="16.684366"><ele>1095.0</ele><time>2026-04-25T06:59:38.975Z</time></trkpt><trkpt lat="39.2660283" lon="16.684305"><ele>1095.0</ele><time>2026-04-25T06:59:39.977Z</time></trkpt><trkpt lat="39.2661367" lon="16.6842325"><ele>1095.0</ele><time>2026-04-25T06:59:40.977Z</time></trkpt><trkpt lat="39.2662218" lon="16.684144"><ele>1095.0</ele><time>2026-04-25T06:59:41.98Z</time></trkpt><trkpt lat="39.2662837" lon="16.6840184"><ele>1095.0</ele><time>2026-04-25T06:59:42.98Z</time></trkpt><trkpt lat="39.2663173" lon="16.6838725"><ele>1095.0</ele><time>2026-04-25T06:59:43.974Z</time></trkpt><trkpt lat="39.2663394" lon="16.6837159"><ele>1095.0</ele><time>2026-04-25T06:59:44.977Z</time></trkpt><trkpt lat="39.2663708" lon="16.6835587"><ele>1095.0</ele><time>2026-04-25T06:59:45.986Z</time></trkpt><trkpt lat="39.2664194" lon="16.6834095"><ele>1095.0</ele><time>2026-04-25T06:59:46.988Z</time></trkpt><trkpt lat="39.2664696" lon="16.6832607"><ele>1093.75</ele><time>2026-04-25T06:59:47.978Z</time></trkpt><trkpt lat="39.2664915" lon="16.6830993"><ele>1092.5</ele><time>2026-04-25T06:59:48.983Z</time></trkpt><trkpt lat="39.2664767" lon="16.6829346"><ele>1091.25</ele><time>2026-04-25T06:59:49.979Z</time></trkpt><trkpt lat="39.2664505" lon="16.6827838"><ele>1090.0</ele><time>2026-04-25T06:59:50.981Z</time></trkpt><trkpt lat="39.2663969" lon="16.6826283"><ele>1090.0</ele><time>2026-04-25T06:59:51.984Z</time></trkpt><trkpt lat="39.2663268" lon="16.6824821"><ele>1090.0</ele><time>2026-04-25T06:59:52.973Z</time></trkpt><trkpt lat="39.2662492" lon="16.6823519"><ele>1090.0</ele><time>2026-04-25T06:59:53.973Z</time></trkpt><trkpt lat="39.2661784" lon="16.6822227"><ele>1090.0</ele><time>2026-04-25T06:59:54.972Z</time></trkpt><trkpt lat="39.2661359" lon="16.6820921"><ele>1090.0</ele><time>2026-04-25T06:59:55.973Z</time></trkpt><trkpt lat="39.2661205" lon="16.6819566"><ele>1090.0</ele><time>2026-04-25T06:59:56.968Z</time></trkpt><trkpt lat="39.2661411" lon="16.6818247"><ele>1090.0</ele><time>2026-04-25T06:59:57.972Z</time></trkpt><trkpt lat="39.266188" lon="16.6816965"><ele>1090.0</ele><time>2026-04-25T06:59:58.967Z</time></trkpt><trkpt lat="39.2662572" lon="16.6815646"><ele>1090.0</ele><time>2026-04-25T06:59:59.991Z</time></trkpt><trkpt lat="39.2663286" lon="16.6814307"><ele>1088.0</ele><time>2026-04-25T07:00:01.02Z</time></trkpt><trkpt lat="39.2663838" lon="16.6812809"><ele>1086.0</ele><time>2026-04-25T07:00:02.034Z</time></trkpt><trkpt lat="39.2664114" lon="16.6811193"><ele>1084.0</ele><time>2026-04-25T07:00:02.991Z</time></trkpt><trkpt lat="39.2664153" lon="16.6809451"><ele>1082.0</ele><time>2026-04-25T07:00:03.998Z</time></trkpt><trkpt lat="39.2664119" lon="16.680762"><ele>1080.25</ele><time>2026-04-25T07:00:04.988Z</time></trkpt><trkpt lat="39.266419" lon="16.6805731"><ele>1078.5</ele><time>2026-04-25T07:00:05.971Z</time></trkpt><trkpt lat="39.2664405" lon="16.6803819"><ele>1076.75</ele><time>2026-04-25T07:00:06.979Z</time></trkpt><trkpt lat="39.266478" lon="16.6802104"><ele>1075.0</ele><time>2026-04-25T07:00:07.983Z</time></trkpt><trkpt lat="39.2665398" lon="16.6800644"><ele>1078.75</ele><time>2026-04-25T07:00:08.986Z</time></trkpt><trkpt lat="39.2666251" lon="16.6799502"><ele>1082.5</ele><time>2026-04-25T07:00:09.98Z</time></trkpt><trkpt lat="39.2667271" lon="16.6798683"><ele>1086.25</ele><time>2026-04-25T07:00:10.978Z</time></trkpt><trkpt lat="39.2668297" lon="16.6797955"><ele>1090.0</ele><time>2026-04-25T07:00:11.984Z</time></trkpt><trkpt lat="39.2669268" lon="16.6797165"><ele>1090.0</ele><time>2026-04-25T07:00:12.99Z</time></trkpt><trkpt lat="39.2670195" lon="16.679633"><ele>1090.0</ele><time>2026-04-25T07:00:13.987Z</time></trkpt><trkpt lat="39.2671098" lon="16.6795504"><ele>1090.0</ele><time>2026-04-25T07:00:14.988Z</time></trkpt><trkpt lat="39.2671976" lon="16.6794656"><ele>1090.0</ele><time>2026-04-25T07:00:15.981Z</time></trkpt><trkpt lat="39.2672829" lon="16.6793838"><ele>1090.0</ele><time>2026-04-25T07:00:16.991Z</time></trkpt><trkpt lat="39.2673643" lon="16.6793082"><ele>1090.1666666666665</ele><time>2026-04-25T07:00:17.985Z</time></trkpt><trkpt lat="39.2674486" lon="16.6792486"><ele>1090.3333333333333</ele><time>2026-04-25T07:00:18.989Z</time></trkpt><trkpt lat="39.2675366" lon="16.6792163"><ele>1090.5</ele><time>2026-04-25T07:00:19.985Z</time></trkpt><trkpt lat="39.2676215" lon="16.6792168"><ele>1090.6666666666667</ele><time>2026-04-25T07:00:20.974Z</time></trkpt><trkpt lat="39.2676893" lon="16.6792552"><ele>1090.8333333333335</ele><time>2026-04-25T07:00:21.982Z</time></trkpt><trkpt lat="39.2677381" lon="16.6793187"><ele>1091.0</ele><time>2026-04-25T07:00:22.985Z</time></trkpt><trkpt lat="39.267811" lon="16.6794344"><ele>1091.25</ele><time>2026-04-25T07:00:24.978Z</time></trkpt><trkpt lat="39.2679475" lon="16.679468"><ele>1091.5</ele><time>2026-04-25T07:00:26.97Z</time></trkpt><trkpt lat="39.2680584" lon="16.6794498"><ele>1091.75</ele><time>2026-04-25T07:00:27.969Z</time></trkpt><trkpt lat="39.2682061" lon="16.6794216"><ele>1092.0</ele><time>2026-04-25T07:00:28.975Z</time></trkpt><trkpt lat="39.2683831" lon="16.6793969"><ele>1092.0</ele><time>2026-04-25T07:00:29.975Z</time></trkpt><trkpt lat="39.268589" lon="16.6793851"><ele>1092.0</ele><time>2026-04-25T07:00:30.978Z</time></trkpt><trkpt lat="39.2688186" lon="16.6793907"><ele>1092.0</ele><time>2026-04-25T07:00:31.98Z</time></trkpt><trkpt lat="39.2690722" lon="16.6794123"><ele>1091.5</ele><time>2026-04-25T07:00:32.979Z</time></trkpt><trkpt lat="39.269344" lon="16.6794439"><ele>1091.0</ele><time>2026-04-25T07:00:33.975Z</time></trkpt><trkpt lat="39.2696322" lon="16.6794773"><ele>1092.0</ele><time>2026-04-25T07:00:34.98Z</time></trkpt><trkpt lat="39.2699377" lon="16.6795103"><ele>1093.0</ele><time>2026-04-25T07:00:35.977Z</time></trkpt><trkpt lat="39.2702537" lon="16.6795432"><ele>1093.0</ele><time>2026-04-25T07:00:36.979Z</time></trkpt><trkpt lat="39.2705698" lon="16.6795774"><ele>1093.0</ele><time>2026-04-25T07:00:37.98Z</time></trkpt><trkpt lat="39.2708852" lon="16.6796151"><ele>1096.0</ele><time>2026-04-25T07:00:38.971Z</time></trkpt><trkpt lat="39.2711982" lon="16.6796511"><ele>1099.0</ele><time>2026-04-25T07:00:39.975Z</time></trkpt><trkpt lat="39.2715068" lon="16.6796847"><ele>1105.5</ele><time>2026-04-25T07:00:40.987Z</time></trkpt><trkpt lat="39.2718102" lon="16.6797156"><ele>1112.0</ele><time>2026-04-25T07:00:41.986Z</time></trkpt><trkpt lat="39.2721074" lon="16.67974"><ele>1120.0</ele><time>2026-04-25T07:00:42.987Z</time></trkpt><trkpt lat="39.2724029" lon="16.679758"><ele>1128.0</ele><time>2026-04-25T07:00:43.976Z</time></trkpt><trkpt lat="39.2726852" lon="16.6797249"><ele>1128.0</ele><time>2026-04-25T07:00:44.973Z</time></trkpt><trkpt lat="39.2729557" lon="16.6796473"><ele>1128.0</ele><time>2026-04-25T07:00:45.97Z</time></trkpt><trkpt lat="39.2732045" lon="16.6795204"><ele>1134.5</ele><time>2026-04-25T07:00:46.975Z</time></trkpt><trkpt lat="39.2734393" lon="16.6793457"><ele>1141.0</ele><time>2026-04-25T07:00:47.977Z</time></trkpt><trkpt lat="39.2736545" lon="16.6791193"><ele>1141.0</ele><time>2026-04-25T07:00:48.988Z</time></trkpt><trkpt lat="39.2738431" lon="16.6788457"><ele>1141.0</ele><time>2026-04-25T07:00:49.987Z</time></trkpt><trkpt lat="39.2740017" lon="16.6785389"><ele>1140.5</ele><time>2026-04-25T07:00:50.979Z</time></trkpt><trkpt lat="39.2741381" lon="16.6782099"><ele>1140.0</ele><time>2026-04-25T07:00:51.967Z</time></trkpt><trkpt lat="39.2742658" lon="16.6778622"><ele>1147.5</ele><time>2026-04-25T07:00:52.968Z</time></trkpt><trkpt lat="39.2743946" lon="16.677501"><ele>1155.0</ele><time>2026-04-25T07:00:53.975Z</time></trkpt><trkpt lat="39.2745306" lon="16.6771325"><ele>1157.0</ele><time>2026-04-25T07:00:54.99Z</time></trkpt><trkpt lat="39.2746706" lon="16.6767681"><ele>1159.0</ele><time>2026-04-25T07:00:55.982Z</time></trkpt><trkpt lat="39.2748064" lon="16.6764091"><ele>1156.5</ele><time>2026-04-25T07:00:56.972Z</time></trkpt><trkpt lat="39.2749458" lon="16.676055"><ele>1154.0</ele><time>2026-04-25T07:00:57.979Z</time></trkpt><trkpt lat="39.2750961" lon="16.6757128"><ele>1154.0</ele><time>2026-04-25T07:00:58.982Z</time></trkpt><trkpt lat="39.2752644" lon="16.67539"><ele>1154.0</ele><time>2026-04-25T07:00:59.968Z</time></trkpt><trkpt lat="39.2754415" lon="16.675084"><ele>1157.0</ele><time>2026-04-25T07:01:00.971Z</time></trkpt><trkpt lat="39.2756619" lon="16.6748095"><ele>1160.0</ele><time>2026-04-25T07:01:01.979Z</time></trkpt><trkpt lat="39.2758992" lon="16.6745625"><ele>1164.0</ele><time>2026-04-25T07:01:02.995Z</time></trkpt><trkpt lat="39.2761456" lon="16.6743315"><ele>1168.0</ele><time>2026-04-25T07:01:03.98Z</time></trkpt><trkpt lat="39.2763951" lon="16.6741063"><ele>1168.0</ele><time>2026-04-25T07:01:04.975Z</time></trkpt><trkpt lat="39.276643" lon="16.6738787"><ele>1168.0</ele><time>2026-04-25T07:01:05.982Z</time></trkpt><trkpt lat="39.2768884" lon="16.6736523"><ele>1166.5</ele><time>2026-04-25T07:01:06.97Z</time></trkpt><trkpt lat="39.2771301" lon="16.6734209"><ele>1165.0</ele><time>2026-04-25T07:01:07.97Z</time></trkpt><trkpt lat="39.2773582" lon="16.6731815"><ele>1165.0</ele><time>2026-04-25T07:01:08.984Z</time></trkpt><trkpt lat="39.2775684" lon="16.6729303"><ele>1165.0</ele><time>2026-04-25T07:01:09.979Z</time></trkpt><trkpt lat="39.2777524" lon="16.672664"><ele>1168.5</ele><time>2026-04-25T07:01:10.977Z</time></trkpt><trkpt lat="39.2779047" lon="16.672395"><ele>1172.0</ele><time>2026-04-25T07:01:11.989Z</time></trkpt><trkpt lat="39.278026" lon="16.6721285"><ele>1176.0</ele><time>2026-04-25T07:01:12.988Z</time></trkpt><trkpt lat="39.2781178" lon="16.6718663"><ele>1180.0</ele><time>2026-04-25T07:01:13.97Z</time></trkpt><trkpt lat="39.2781879" lon="16.6716132"><ele>1184.0</ele><time>2026-04-25T07:01:14.984Z</time></trkpt><trkpt lat="39.2782464" lon="16.6713527"><ele>1185.0</ele><time>2026-04-25T07:01:15.991Z</time></trkpt><trkpt lat="39.2782988" lon="16.6710779"><ele>1186.0</ele><time>2026-04-25T07:01:16.981Z</time></trkpt><trkpt lat="39.2783477" lon="16.6707968"><ele>1187.0</ele><time>2026-04-25T07:01:17.972Z</time></trkpt><trkpt lat="39.2784063" lon="16.6704983"><ele>1187.0</ele><time>2026-04-25T07:01:18.978Z</time></trkpt><trkpt lat="39.2784513" lon="16.6701485"><ele>1187.0</ele><time>2026-04-25T07:01:19.977Z</time></trkpt><trkpt lat="39.2784928" lon="16.6697627"><ele>1187.5</ele><time>2026-04-25T07:01:20.974Z</time></trkpt><trkpt lat="39.2785441" lon="16.6693457"><ele>1188.0</ele><time>2026-04-25T07:01:22Z</time></trkpt><trkpt lat="39.2785965" lon="16.6689103"><ele>1187.0</ele><time>2026-04-25T07:01:22.979Z</time></trkpt><trkpt lat="39.2786542" lon="16.6684583"><ele>1186.0</ele><time>2026-04-25T07:01:23.975Z</time></trkpt><trkpt lat="39.2787104" lon="16.6679959"><ele>1185.5</ele><time>2026-04-25T07:01:24.976Z</time></trkpt><trkpt lat="39.2787729" lon="16.667546"><ele>1185.0</ele><time>2026-04-25T07:01:25.983Z</time></trkpt><trkpt lat="39.2788295" lon="16.6670973"><ele>1185.5</ele><time>2026-04-25T07:01:26.981Z</time></trkpt><trkpt lat="39.2788826" lon="16.6666521"><ele>1186.0</ele><time>2026-04-25T07:01:27.974Z</time></trkpt><trkpt lat="39.2789354" lon="16.6662134"><ele>1191.0</ele><time>2026-04-25T07:01:28.978Z</time></trkpt><trkpt lat="39.2789914" lon="16.6657794"><ele>1196.0</ele><time>2026-04-25T07:01:29.977Z</time></trkpt><trkpt lat="39.2790446" lon="16.6653368"><ele>1200.5</ele><time>2026-04-25T07:01:30.972Z</time></trkpt><trkpt lat="39.2791023" lon="16.6649134"><ele>1205.0</ele><time>2026-04-25T07:01:31.983Z</time></trkpt><trkpt lat="39.2791579" lon="16.664484"><ele>1211.5</ele><time>2026-04-25T07:01:32.977Z</time></trkpt><trkpt lat="39.2792141" lon="16.6640583"><ele>1218.0</ele><time>2026-04-25T07:01:33.981Z</time></trkpt><trkpt lat="39.2792712" lon="16.6636338"><ele>1220.5</ele><time>2026-04-25T07:01:34.976Z</time></trkpt><trkpt lat="39.2793281" lon="16.6632135"><ele>1223.0</ele><time>2026-04-25T07:01:35.982Z</time></trkpt><trkpt lat="39.2793921" lon="16.6627958"><ele>1222.5</ele><time>2026-04-25T07:01:36.979Z</time></trkpt><trkpt lat="39.2794606" lon="16.6623822"><ele>1222.0</ele><time>2026-04-25T07:01:37.978Z</time></trkpt><trkpt lat="39.2795292" lon="16.6619721"><ele>1218.5</ele><time>2026-04-25T07:01:38.976Z</time></trkpt><trkpt lat="39.2796115" lon="16.6615657"><ele>1215.0</ele><time>2026-04-25T07:01:39.977Z</time></trkpt><trkpt lat="39.2796984" lon="16.6611613"><ele>1222.0</ele><time>2026-04-25T07:01:40.983Z</time></trkpt><trkpt lat="39.2797891" lon="16.6607496"><ele>1229.0</ele><time>2026-04-25T07:01:41.98Z</time></trkpt><trkpt lat="39.2798883" lon="16.6603491"><ele>1229.5</ele><time>2026-04-25T07:01:42.971Z</time></trkpt><trkpt lat="39.2799977" lon="16.6599467"><ele>1230.0</ele><time>2026-04-25T07:01:43.986Z</time></trkpt><trkpt lat="39.2801064" lon="16.6595495"><ele>1230.0</ele><time>2026-04-25T07:01:44.976Z</time></trkpt><trkpt lat="39.2802016" lon="16.6591498"><ele>1230.0</ele><time>2026-04-25T07:01:45.969Z</time></trkpt><trkpt lat="39.2802917" lon="16.6587496"><ele>1228.0</ele><time>2026-04-25T07:01:46.969Z</time></trkpt><trkpt lat="39.2803869" lon="16.6583501"><ele>1226.0</ele><time>2026-04-25T07:01:47.996Z</time></trkpt><trkpt lat="39.2804774" lon="16.6579473"><ele>1224.0</ele><time>2026-04-25T07:01:48.973Z</time></trkpt><trkpt lat="39.2805674" lon="16.6575458"><ele>1222.0</ele><time>2026-04-25T07:01:49.972Z</time></trkpt><trkpt lat="39.2806544" lon="16.6571518"><ele>1231.5</ele><time>2026-04-25T07:01:50.975Z</time></trkpt><trkpt lat="39.2807408" lon="16.6567659"><ele>1241.0</ele><time>2026-04-25T07:01:51.97Z</time></trkpt><trkpt lat="39.2808268" lon="16.6563849"><ele>1240.5</ele><time>2026-04-25T07:01:52.975Z</time></trkpt><trkpt lat="39.2809119" lon="16.6560094"><ele>1240.0</ele><time>2026-04-25T07:01:53.966Z</time></trkpt><trkpt lat="39.2809957" lon="16.6556328"><ele>1242.5</ele><time>2026-04-25T07:01:54.977Z</time></trkpt><trkpt lat="39.2810774" lon="16.6552559"><ele>1245.0</ele><time>2026-04-25T07:01:55.978Z</time></trkpt><trkpt lat="39.2811617" lon="16.6548767"><ele>1245.0</ele><time>2026-04-25T07:01:56.981Z</time></trkpt><trkpt lat="39.2812453" lon="16.6544967"><ele>1245.0</ele><time>2026-04-25T07:01:57.987Z</time></trkpt><trkpt lat="39.2813287" lon="16.6541118"><ele>1247.0</ele><time>2026-04-25T07:01:58.973Z</time></trkpt><trkpt lat="39.2814119" lon="16.653729"><ele>1249.0</ele><time>2026-04-25T07:01:59.965Z</time></trkpt><trkpt lat="39.2814931" lon="16.6533489"><ele>1249.5</ele><time>2026-04-25T07:02:00.975Z</time></trkpt><trkpt lat="39.2815732" lon="16.6529704"><ele>1250.0</ele><time>2026-04-25T07:02:01.978Z</time></trkpt><trkpt lat="39.2816533" lon="16.6525945"><ele>1249.0</ele><time>2026-04-25T07:02:02.967Z</time></trkpt><trkpt lat="39.2817341" lon="16.652225"><ele>1248.0</ele><time>2026-04-25T07:02:03.982Z</time></trkpt><trkpt lat="39.2818127" lon="16.6518697"><ele>1246.0</ele><time>2026-04-25T07:02:04.969Z</time></trkpt><trkpt lat="39.2818872" lon="16.6515344"><ele>1244.0</ele><time>2026-04-25T07:02:05.975Z</time></trkpt><trkpt lat="39.2819603" lon="16.651215"><ele>1242.0</ele><time>2026-04-25T07:02:06.984Z</time></trkpt><trkpt lat="39.2820359" lon="16.6508983"><ele>1240.0</ele><time>2026-04-25T07:02:08.011Z</time></trkpt><trkpt lat="39.2821202" lon="16.6505896"><ele>1240.0</ele><time>2026-04-25T07:02:08.989Z</time></trkpt><trkpt lat="39.2822128" lon="16.6502946"><ele>1240.0</ele><time>2026-04-25T07:02:09.987Z</time></trkpt><trkpt lat="39.2823064" lon="16.6500188"><ele>1241.6666666666665</ele><time>2026-04-25T07:02:10.987Z</time></trkpt><trkpt lat="39.282397" lon="16.6497608"><ele>1243.3333333333333</ele><time>2026-04-25T07:02:11.976Z</time></trkpt><trkpt lat="39.2824854" lon="16.6495175"><ele>1245.0</ele><time>2026-04-25T07:02:12.98Z</time></trkpt><trkpt lat="39.2825746" lon="16.6492852"><ele>1245.0</ele><time>2026-04-25T07:02:13.982Z</time></trkpt><trkpt lat="39.2826635" lon="16.6490629"><ele>1245.0</ele><time>2026-04-25T07:02:14.976Z</time></trkpt><trkpt lat="39.282749" lon="16.6488438"><ele>1245.0</ele><time>2026-04-25T07:02:15.983Z</time></trkpt><trkpt lat="39.2828402" lon="16.6486185"><ele>1243.6666666666667</ele><time>2026-04-25T07:02:16.984Z</time></trkpt><trkpt lat="39.2829423" lon="16.6483829"><ele>1242.3333333333335</ele><time>2026-04-25T07:02:17.973Z</time></trkpt><trkpt lat="39.2830527" lon="16.64813"><ele>1241.0</ele><time>2026-04-25T07:02:18.974Z</time></trkpt><trkpt lat="39.2831708" lon="16.6478597"><ele>1242.0</ele><time>2026-04-25T07:02:19.99Z</time></trkpt><trkpt lat="39.2832961" lon="16.6475759"><ele>1243.0</ele><time>2026-04-25T07:02:20.985Z</time></trkpt><trkpt lat="39.283427" lon="16.6472819"><ele>1243.0</ele><time>2026-04-25T07:02:21.99Z</time></trkpt><trkpt lat="39.2835604" lon="16.6469791"><ele>1243.0</ele><time>2026-04-25T07:02:22.992Z</time></trkpt><trkpt lat="39.2836948" lon="16.6466659"><ele>1242.5</ele><time>2026-04-25T07:02:23.978Z</time></trkpt><trkpt lat="39.2838388" lon="16.6463314"><ele>1242.0</ele><time>2026-04-25T07:02:24.977Z</time></trkpt><trkpt lat="39.2839968" lon="16.6459812"><ele>1245.0</ele><time>2026-04-25T07:02:25.972Z</time></trkpt><trkpt lat="39.2841596" lon="16.6456305"><ele>1248.0</ele><time>2026-04-25T07:02:26.982Z</time></trkpt><trkpt lat="39.2843292" lon="16.6452862"><ele>1248.0</ele><time>2026-04-25T07:02:27.983Z</time></trkpt><trkpt lat="39.2844775" lon="16.6449455"><ele>1248.0</ele><time>2026-04-25T07:02:28.982Z</time></trkpt><trkpt lat="39.2846261" lon="16.6445938"><ele>1251.5</ele><time>2026-04-25T07:02:29.969Z</time></trkpt><trkpt lat="39.284772" lon="16.644246"><ele>1255.0</ele><time>2026-04-25T07:02:30.974Z</time></trkpt><trkpt lat="39.2848924" lon="16.6438961"><ele>1254.0</ele><time>2026-04-25T07:02:31.982Z</time></trkpt><trkpt lat="39.2849911" lon="16.6435341"><ele>1253.0</ele><time>2026-04-25T07:02:32.98Z</time></trkpt><trkpt lat="39.2850633" lon="16.64316"><ele>1254.0</ele><time>2026-04-25T07:02:33.977Z</time></trkpt><trkpt lat="39.2851265" lon="16.6427785"><ele>1255.0</ele><time>2026-04-25T07:02:34.979Z</time></trkpt><trkpt lat="39.2851571" lon="16.6423994"><ele>1255.0</ele><time>2026-04-25T07:02:35.982Z</time></trkpt><trkpt lat="39.2851771" lon="16.6420139"><ele>1255.0</ele><time>2026-04-25T07:02:36.977Z</time></trkpt><trkpt lat="39.2851998" lon="16.6416256"><ele>1254.0</ele><time>2026-04-25T07:02:37.986Z</time></trkpt><trkpt lat="39.2852212" lon="16.6412458"><ele>1253.0</ele><time>2026-04-25T07:02:38.972Z</time></trkpt><trkpt lat="39.2852547" lon="16.6408611"><ele>1255.0</ele><time>2026-04-25T07:02:39.971Z</time></trkpt><trkpt lat="39.2853095" lon="16.6404879"><ele>1257.0</ele><time>2026-04-25T07:02:40.979Z</time></trkpt><trkpt lat="39.2853976" lon="16.6401266"><ele>1257.0</ele><time>2026-04-25T07:02:41.977Z</time></trkpt><trkpt lat="39.2855263" lon="16.6397955"><ele>1257.0</ele><time>2026-04-25T07:02:42.979Z</time></trkpt><trkpt lat="39.2856766" lon="16.6394844"><ele>1258.5</ele><time>2026-04-25T07:02:43.984Z</time></trkpt><trkpt lat="39.2858247" lon="16.6391923"><ele>1260.0</ele><time>2026-04-25T07:02:44.989Z</time></trkpt><trkpt lat="39.2860372" lon="16.6389294"><ele>1260.0</ele><time>2026-04-25T07:02:45.98Z</time></trkpt><trkpt lat="39.2862656" lon="16.6387085"><ele>1260.0</ele><time>2026-04-25T07:02:46.969Z</time></trkpt><trkpt lat="39.2865119" lon="16.6385127"><ele>1260.5</ele><time>2026-04-25T07:02:47.968Z</time></trkpt><trkpt lat="39.286772" lon="16.6383363"><ele>1261.0</ele><time>2026-04-25T07:02:48.97Z</time></trkpt><trkpt lat="39.2870373" lon="16.6381563"><ele>1261.0</ele><time>2026-04-25T07:02:49.978Z</time></trkpt><trkpt lat="39.2873033" lon="16.6379896"><ele>1261.0</ele><time>2026-04-25T07:02:50.983Z</time></trkpt><trkpt lat="39.2875741" lon="16.6377905"><ele>1261.0</ele><time>2026-04-25T07:02:51.97Z</time></trkpt><trkpt lat="39.2878443" lon="16.6375916"><ele>1261.0</ele><time>2026-04-25T07:02:52.968Z</time></trkpt><trkpt lat="39.2880946" lon="16.6373741"><ele>1262.5</ele><time>2026-04-25T07:02:53.977Z</time></trkpt><trkpt lat="39.2883501" lon="16.6371655"><ele>1264.0</ele><time>2026-04-25T07:02:54.967Z</time></trkpt><trkpt lat="39.2885769" lon="16.6369239"><ele>1266.0</ele><time>2026-04-25T07:02:55.973Z</time></trkpt><trkpt lat="39.2887879" lon="16.6366466"><ele>1268.0</ele><time>2026-04-25T07:02:56.97Z</time></trkpt><trkpt lat="39.2889883" lon="16.6363593"><ele>1263.5</ele><time>2026-04-25T07:02:57.979Z</time></trkpt><trkpt lat="39.2891736" lon="16.636046"><ele>1259.0</ele><time>2026-04-25T07:02:58.973Z</time></trkpt><trkpt lat="39.2893412" lon="16.6357216"><ele>1259.0</ele><time>2026-04-25T07:02:59.98Z</time></trkpt><trkpt lat="39.2894953" lon="16.6353837"><ele>1259.0</ele><time>2026-04-25T07:03:00.988Z</time></trkpt><trkpt lat="39.2896348" lon="16.6350331"><ele>1257.5</ele><time>2026-04-25T07:03:01.968Z</time></trkpt><trkpt lat="39.2897673" lon="16.6346758"><ele>1256.0</ele><time>2026-04-25T07:03:02.988Z</time></trkpt><trkpt lat="39.289897" lon="16.6343138"><ele>1256.0</ele><time>2026-04-25T07:03:03.974Z</time></trkpt><trkpt lat="39.2900287" lon="16.6339496"><ele>1256.0</ele><time>2026-04-25T07:03:04.985Z</time></trkpt><trkpt lat="39.2901621" lon="16.6335833"><ele>1254.5</ele><time>2026-04-25T07:03:05.968Z</time></trkpt><trkpt lat="39.2902944" lon="16.6332164"><ele>1253.0</ele><time>2026-04-25T07:03:06.974Z</time></trkpt><trkpt lat="39.2904247" lon="16.6328478"><ele>1254.5</ele><time>2026-04-25T07:03:07.98Z</time></trkpt><trkpt lat="39.2905536" lon="16.6324825"><ele>1256.0</ele><time>2026-04-25T07:03:08.971Z</time></trkpt><trkpt lat="39.2906837" lon="16.6321166"><ele>1256.5</ele><time>2026-04-25T07:03:09.964Z</time></trkpt><trkpt lat="39.2908139" lon="16.6317558"><ele>1257.0</ele><time>2026-04-25T07:03:10.975Z</time></trkpt><trkpt lat="39.2909455" lon="16.6313897"><ele>1256.5</ele><time>2026-04-25T07:03:11.979Z</time></trkpt><trkpt lat="39.2910737" lon="16.6310259"><ele>1256.0</ele><time>2026-04-25T07:03:12.972Z</time></trkpt><trkpt lat="39.2912038" lon="16.6306653"><ele>1254.0</ele><time>2026-04-25T07:03:13.975Z</time></trkpt><trkpt lat="39.2913334" lon="16.6303047"><ele>1252.0</ele><time>2026-04-25T07:03:14.972Z</time></trkpt><trkpt lat="39.2914616" lon="16.6299455"><ele>1254.5</ele><time>2026-04-25T07:03:15.973Z</time></trkpt><trkpt lat="39.2915902" lon="16.6295896"><ele>1257.0</ele><time>2026-04-25T07:03:16.967Z</time></trkpt><trkpt lat="39.2917191" lon="16.6292354"><ele>1257.0</ele><time>2026-04-25T07:03:17.974Z</time></trkpt><trkpt lat="39.2918498" lon="16.6288829"><ele>1257.0</ele><time>2026-04-25T07:03:18.973Z</time></trkpt><trkpt lat="39.2919813" lon="16.6285325"><ele>1256.0</ele><time>2026-04-25T07:03:19.97Z</time></trkpt><trkpt lat="39.2921088" lon="16.628194"><ele>1255.0</ele><time>2026-04-25T07:03:20.985Z</time></trkpt><trkpt lat="39.2922572" lon="16.6278583"><ele>1260.0</ele><time>2026-04-25T07:03:21.989Z</time></trkpt><trkpt lat="39.2924295" lon="16.6275403"><ele>1265.0</ele><time>2026-04-25T07:03:22.982Z</time></trkpt><trkpt lat="39.2926269" lon="16.6272565"><ele>1265.0</ele><time>2026-04-25T07:03:23.972Z</time></trkpt><trkpt lat="39.2928392" lon="16.6269967"><ele>1265.0</ele><time>2026-04-25T07:03:24.972Z</time></trkpt><trkpt lat="39.2930662" lon="16.6267644"><ele>1266.5</ele><time>2026-04-25T07:03:25.974Z</time></trkpt><trkpt lat="39.2933023" lon="16.6265615"><ele>1268.0</ele><time>2026-04-25T07:03:26.989Z</time></trkpt><trkpt lat="39.2935387" lon="16.626374"><ele>1268.0</ele><time>2026-04-25T07:03:27.978Z</time></trkpt><trkpt lat="39.2937907" lon="16.626242"><ele>1268.0</ele><time>2026-04-25T07:03:28.97Z</time></trkpt><trkpt lat="39.2940628" lon="16.6261208"><ele>1265.5</ele><time>2026-04-25T07:03:29.991Z</time></trkpt><trkpt lat="39.2943225" lon="16.6260114"><ele>1263.0</ele><time>2026-04-25T07:03:30.969Z</time></trkpt><trkpt lat="39.2945868" lon="16.6258965"><ele>1266.0</ele><time>2026-04-25T07:03:31.974Z</time></trkpt><trkpt lat="39.2948536" lon="16.6257775"><ele>1269.0</ele><time>2026-04-25T07:03:32.975Z</time></trkpt><trkpt lat="39.2951219" lon="16.6256518"><ele>1269.0</ele><time>2026-04-25T07:03:33.984Z</time></trkpt><trkpt lat="39.2953863" lon="16.6255088"><ele>1269.0</ele><time>2026-04-25T07:03:34.974Z</time></trkpt><trkpt lat="39.2956461" lon="16.6253353"><ele>1266.5</ele><time>2026-04-25T07:03:35.976Z</time></trkpt><trkpt lat="39.2958959" lon="16.6251321"><ele>1264.0</ele><time>2026-04-25T07:03:36.978Z</time></trkpt><trkpt lat="39.296135" lon="16.6248997"><ele>1264.0</ele><time>2026-04-25T07:03:37.977Z</time></trkpt><trkpt lat="39.2963684" lon="16.6246294"><ele>1264.0</ele><time>2026-04-25T07:03:38.977Z</time></trkpt><trkpt lat="39.2966012" lon="16.6243291"><ele>1265.5</ele><time>2026-04-25T07:03:39.982Z</time></trkpt><trkpt lat="39.2968334" lon="16.6240128"><ele>1267.0</ele><time>2026-04-25T07:03:40.969Z</time></trkpt><trkpt lat="39.2970654" lon="16.6237006"><ele>1268.5</ele><time>2026-04-25T07:03:41.973Z</time></trkpt><trkpt lat="39.2972991" lon="16.6233991"><ele>1270.0</ele><time>2026-04-25T07:03:42.977Z</time></trkpt><trkpt lat="39.2975438" lon="16.6231133"><ele>1270.0</ele><time>2026-04-25T07:03:43.986Z</time></trkpt><trkpt lat="39.2977963" lon="16.6228411"><ele>1270.0</ele><time>2026-04-25T07:03:44.974Z</time></trkpt><trkpt lat="39.2980576" lon="16.6225871"><ele>1271.5</ele><time>2026-04-25T07:03:45.975Z</time></trkpt><trkpt lat="39.2983258" lon="16.6223511"><ele>1273.0</ele><time>2026-04-25T07:03:46.975Z</time></trkpt><trkpt lat="39.2986003" lon="16.6221341"><ele>1271.5</ele><time>2026-04-25T07:03:47.976Z</time></trkpt><trkpt lat="39.2988766" lon="16.6219276"><ele>1270.0</ele><time>2026-04-25T07:03:48.984Z</time></trkpt><trkpt lat="39.2991516" lon="16.6217248"><ele>1270.0</ele><time>2026-04-25T07:03:49.973Z</time></trkpt><trkpt lat="39.2994264" lon="16.6215227"><ele>1270.0</ele><time>2026-04-25T07:03:50.985Z</time></trkpt><trkpt lat="39.2996985" lon="16.6213185"><ele>1271.0</ele><time>2026-04-25T07:03:51.979Z</time></trkpt><trkpt lat="39.2999672" lon="16.621117"><ele>1272.0</ele><time>2026-04-25T07:03:52.977Z</time></trkpt><trkpt lat="39.3002364" lon="16.6209169"><ele>1272.0</ele><time>2026-04-25T07:03:53.975Z</time></trkpt><trkpt lat="39.3005027" lon="16.6207201"><ele>1272.0</ele><time>2026-04-25T07:03:54.983Z</time></trkpt><trkpt lat="39.3007655" lon="16.620528"><ele>1272.5</ele><time>2026-04-25T07:03:55.976Z</time></trkpt><trkpt lat="39.3010221" lon="16.620338"><ele>1273.0</ele><time>2026-04-25T07:03:56.974Z</time></trkpt><trkpt lat="39.3012723" lon="16.6201485"><ele>1275.5</ele><time>2026-04-25T07:03:57.991Z</time></trkpt><trkpt lat="39.3015084" lon="16.6199522"><ele>1278.0</ele><time>2026-04-25T07:03:58.981Z</time></trkpt><trkpt lat="39.3017261" lon="16.619738"><ele>1278.0</ele><time>2026-04-25T07:03:59.989Z</time></trkpt><trkpt lat="39.3019158" lon="16.6194994"><ele>1278.0</ele><time>2026-04-25T07:04:00.979Z</time></trkpt><trkpt lat="39.3020743" lon="16.6192332"><ele>1278.5</ele><time>2026-04-25T07:04:01.978Z</time></trkpt><trkpt lat="39.3022015" lon="16.6189423"><ele>1279.0</ele><time>2026-04-25T07:04:02.98Z</time></trkpt><trkpt lat="39.302295" lon="16.6186323"><ele>1282.0</ele><time>2026-04-25T07:04:03.979Z</time></trkpt><trkpt lat="39.3023856" lon="16.6183217"><ele>1285.0</ele><time>2026-04-25T07:04:04.973Z</time></trkpt><trkpt lat="39.3024074" lon="16.6179869"><ele>1286.5</ele><time>2026-04-25T07:04:05.971Z</time></trkpt><trkpt lat="39.3023866" lon="16.6176492"><ele>1288.0</ele><time>2026-04-25T07:04:06.974Z</time></trkpt><trkpt lat="39.3023306" lon="16.6173089"><ele>1289.5</ele><time>2026-04-25T07:04:07.979Z</time></trkpt><trkpt lat="39.3022386" lon="16.6169645"><ele>1291.0</ele><time>2026-04-25T07:04:08.978Z</time></trkpt><trkpt lat="39.3021199" lon="16.6166059"><ele>1291.0</ele><time>2026-04-25T07:04:09.968Z</time></trkpt><trkpt lat="39.3019962" lon="16.6162345"><ele>1291.0</ele><time>2026-04-25T07:04:10.964Z</time></trkpt><trkpt lat="39.3018844" lon="16.615849"><ele>1297.5</ele><time>2026-04-25T07:04:11.974Z</time></trkpt><trkpt lat="39.301805" lon="16.6154552"><ele>1304.0</ele><time>2026-04-25T07:04:12.978Z</time></trkpt><trkpt lat="39.3017572" lon="16.6150587"><ele>1308.0</ele><time>2026-04-25T07:04:13.981Z</time></trkpt><trkpt lat="39.30174" lon="16.6146638"><ele>1312.0</ele><time>2026-04-25T07:04:14.975Z</time></trkpt><trkpt lat="39.3017498" lon="16.6142685"><ele>1312.0</ele><time>2026-04-25T07:04:15.972Z</time></trkpt><trkpt lat="39.3017884" lon="16.6138786"><ele>1312.0</ele><time>2026-04-25T07:04:16.973Z</time></trkpt><trkpt lat="39.3018583" lon="16.6135004"><ele>1306.5</ele><time>2026-04-25T07:04:17.971Z</time></trkpt><trkpt lat="39.3019535" lon="16.6131384"><ele>1301.0</ele><time>2026-04-25T07:04:18.971Z</time></trkpt><trkpt lat="39.3020655" lon="16.6127978"><ele>1304.0</ele><time>2026-04-25T07:04:19.964Z</time></trkpt><trkpt lat="39.3021895" lon="16.6124707"><ele>1307.0</ele><time>2026-04-25T07:04:20.979Z</time></trkpt><trkpt lat="39.3023218" lon="16.6121479"><ele>1304.0</ele><time>2026-04-25T07:04:21.986Z</time></trkpt><trkpt lat="39.3024556" lon="16.6118225"><ele>1301.0</ele><time>2026-04-25T07:04:22.968Z</time></trkpt><trkpt lat="39.3025915" lon="16.6114955"><ele>1301.0</ele><time>2026-04-25T07:04:23.969Z</time></trkpt><trkpt lat="39.3027288" lon="16.6111678"><ele>1301.0</ele><time>2026-04-25T07:04:24.977Z</time></trkpt><trkpt lat="39.3028679" lon="16.6108384"><ele>1300.0</ele><time>2026-04-25T07:04:25.972Z</time></trkpt><trkpt lat="39.3030099" lon="16.6105076"><ele>1299.0</ele><time>2026-04-25T07:04:26.984Z</time></trkpt><trkpt lat="39.303153" lon="16.6101771"><ele>1302.0</ele><time>2026-04-25T07:04:27.971Z</time></trkpt><trkpt lat="39.3033052" lon="16.609855"><ele>1305.0</ele><time>2026-04-25T07:04:28.984Z</time></trkpt><trkpt lat="39.3034553" lon="16.6095337"><ele>1303.5</ele><time>2026-04-25T07:04:29.987Z</time></trkpt><trkpt lat="39.3036075" lon="16.6092017"><ele>1302.0</ele><time>2026-04-25T07:04:30.971Z</time></trkpt><trkpt lat="39.3037551" lon="16.6088706"><ele>1303.5</ele><time>2026-04-25T07:04:31.969Z</time></trkpt><trkpt lat="39.3039073" lon="16.6085497"><ele>1305.0</ele><time>2026-04-25T07:04:32.971Z</time></trkpt><trkpt lat="39.3040584" lon="16.6082166"><ele>1305.5</ele><time>2026-04-25T07:04:33.976Z</time></trkpt><trkpt lat="39.3042117" lon="16.6078879"><ele>1306.0</ele><time>2026-04-25T07:04:34.982Z</time></trkpt><trkpt lat="39.3043554" lon="16.6075604"><ele>1306.0</ele><time>2026-04-25T07:04:35.969Z</time></trkpt><trkpt lat="39.3045032" lon="16.6072254"><ele>1306.0</ele><time>2026-04-25T07:04:36.971Z</time></trkpt><trkpt lat="39.3046496" lon="16.6068942"><ele>1306.5</ele><time>2026-04-25T07:04:37.984Z</time></trkpt><trkpt lat="39.3047928" lon="16.6065562"><ele>1307.0</ele><time>2026-04-25T07:04:38.979Z</time></trkpt><trkpt lat="39.3049429" lon="16.6062217"><ele>1305.0</ele><time>2026-04-25T07:04:39.972Z</time></trkpt><trkpt lat="39.3050877" lon="16.6058789"><ele>1303.0</ele><time>2026-04-25T07:04:40.976Z</time></trkpt><trkpt lat="39.3052382" lon="16.6055361"><ele>1301.5</ele><time>2026-04-25T07:04:41.975Z</time></trkpt><trkpt lat="39.3053816" lon="16.6051965"><ele>1300.0</ele><time>2026-04-25T07:04:42.975Z</time></trkpt><trkpt lat="39.3055136" lon="16.60485"><ele>1301.0</ele><time>2026-04-25T07:04:43.973Z</time></trkpt><trkpt lat="39.3056377" lon="16.6044943"><ele>1302.0</ele><time>2026-04-25T07:04:44.974Z</time></trkpt><trkpt lat="39.3057444" lon="16.6041329"><ele>1302.0</ele><time>2026-04-25T07:04:45.971Z</time></trkpt><trkpt lat="39.3058271" lon="16.6037635"><ele>1302.0</ele><time>2026-04-25T07:04:46.972Z</time></trkpt><trkpt lat="39.3058823" lon="16.6033854"><ele>1301.0</ele><time>2026-04-25T07:04:47.968Z</time></trkpt><trkpt lat="39.3059292" lon="16.6030075"><ele>1300.0</ele><time>2026-04-25T07:04:48.973Z</time></trkpt><trkpt lat="39.3059365" lon="16.6026236"><ele>1300.0</ele><time>2026-04-25T07:04:49.979Z</time></trkpt><trkpt lat="39.3059367" lon="16.6022291"><ele>1300.0</ele><time>2026-04-25T07:04:50.977Z</time></trkpt><trkpt lat="39.3059328" lon="16.6018355"><ele>1300.0</ele><time>2026-04-25T07:04:51.974Z</time></trkpt><trkpt lat="39.3059219" lon="16.6014424"><ele>1300.0</ele><time>2026-04-25T07:04:52.966Z</time></trkpt><trkpt lat="39.3059082" lon="16.6010475"><ele>1300.5</ele><time>2026-04-25T07:04:53.982Z</time></trkpt><trkpt lat="39.3058946" lon="16.6006498"><ele>1301.0</ele><time>2026-04-25T07:04:54.974Z</time></trkpt><trkpt lat="39.3058845" lon="16.6002495"><ele>1304.5</ele><time>2026-04-25T07:04:55.966Z</time></trkpt><trkpt lat="39.3058731" lon="16.5998541"><ele>1308.0</ele><time>2026-04-25T07:04:56.977Z</time></trkpt><trkpt lat="39.3058706" lon="16.5994573"><ele>1313.0</ele><time>2026-04-25T07:04:57.974Z</time></trkpt><trkpt lat="39.3058685" lon="16.5990603"><ele>1318.0</ele><time>2026-04-25T07:04:58.975Z</time></trkpt><trkpt lat="39.3058688" lon="16.5986656"><ele>1321.0</ele><time>2026-04-25T07:04:59.978Z</time></trkpt><trkpt lat="39.3058632" lon="16.5982744"><ele>1324.0</ele><time>2026-04-25T07:05:00.972Z</time></trkpt><trkpt lat="39.3058581" lon="16.5978838"><ele>1323.5</ele><time>2026-04-25T07:05:01.964Z</time></trkpt><trkpt lat="39.3058481" lon="16.5974961"><ele>1323.0</ele><time>2026-04-25T07:05:02.972Z</time></trkpt><trkpt lat="39.3058293" lon="16.597106"><ele>1324.5</ele><time>2026-04-25T07:05:03.968Z</time></trkpt><trkpt lat="39.3058159" lon="16.5967177"><ele>1326.0</ele><time>2026-04-25T07:05:04.976Z</time></trkpt><trkpt lat="39.305798" lon="16.596329"><ele>1328.0</ele><time>2026-04-25T07:05:05.967Z</time></trkpt><trkpt lat="39.3057818" lon="16.5959422"><ele>1330.0</ele><time>2026-04-25T07:05:06.972Z</time></trkpt><trkpt lat="39.3057716" lon="16.5955487"><ele>1330.0</ele><time>2026-04-25T07:05:07.974Z</time></trkpt><trkpt lat="39.3057583" lon="16.5951655"><ele>1330.0</ele><time>2026-04-25T07:05:08.972Z</time></trkpt><trkpt lat="39.3057605" lon="16.5947667"><ele>1331.5</ele><time>2026-04-25T07:05:09.98Z</time></trkpt><trkpt lat="39.305747" lon="16.5943886"><ele>1333.0</ele><time>2026-04-25T07:05:10.973Z</time></trkpt><trkpt lat="39.3057461" lon="16.593996"><ele>1335.5</ele><time>2026-04-25T07:05:11.971Z</time></trkpt><trkpt lat="39.3057347" lon="16.5936158"><ele>1338.0</ele><time>2026-04-25T07:05:12.974Z</time></trkpt><trkpt lat="39.305732" lon="16.593228"><ele>1338.0</ele><time>2026-04-25T07:05:13.97Z</time></trkpt><trkpt lat="39.3057305" lon="16.5928398"><ele>1338.0</ele><time>2026-04-25T07:05:14.971Z</time></trkpt><trkpt lat="39.3056666" lon="16.5897517"><ele>1345.0</ele><time>2026-04-25T07:05:22.977Z</time></trkpt><trkpt lat="39.3056484" lon="16.5893257"><ele>1352.0</ele><time>2026-04-25T07:05:23.976Z</time></trkpt><trkpt lat="39.305619" lon="16.5889247"><ele>1352.5</ele><time>2026-04-25T07:05:24.968Z</time></trkpt><trkpt lat="39.3056142" lon="16.5885254"><ele>1353.0</ele><time>2026-04-25T07:05:25.975Z</time></trkpt><trkpt lat="39.3056052" lon="16.588134"><ele>1356.0</ele><time>2026-04-25T07:05:26.977Z</time></trkpt><trkpt lat="39.3055911" lon="16.587743"><ele>1359.0</ele><time>2026-04-25T07:05:27.968Z</time></trkpt><trkpt lat="39.3055788" lon="16.5873503"><ele>1351.5</ele><time>2026-04-25T07:05:28.976Z</time></trkpt><trkpt lat="39.3055643" lon="16.5869631"><ele>1344.0</ele><time>2026-04-25T07:05:29.976Z</time></trkpt><trkpt lat="39.3055525" lon="16.5865755"><ele>1344.0</ele><time>2026-04-25T07:05:30.98Z</time></trkpt><trkpt lat="39.3055474" lon="16.5861868"><ele>1344.0</ele><time>2026-04-25T07:05:31.965Z</time></trkpt><trkpt lat="39.3055522" lon="16.585798"><ele>1351.0</ele><time>2026-04-25T07:05:32.975Z</time></trkpt><trkpt lat="39.305576" lon="16.5854131"><ele>1358.0</ele><time>2026-04-25T07:05:33.965Z</time></trkpt><trkpt lat="39.3056216" lon="16.5850303"><ele>1358.0</ele><time>2026-04-25T07:05:34.979Z</time></trkpt><trkpt lat="39.3056997" lon="16.5846612"><ele>1358.0</ele><time>2026-04-25T07:05:35.976Z</time></trkpt><trkpt lat="39.305807" lon="16.5843043"><ele>1357.0</ele><time>2026-04-25T07:05:36.966Z</time></trkpt><trkpt lat="39.3059406" lon="16.5839646"><ele>1356.0</ele><time>2026-04-25T07:05:37.966Z</time></trkpt><trkpt lat="39.3060963" lon="16.5836445"><ele>1353.0</ele><time>2026-04-25T07:05:38.976Z</time></trkpt><trkpt lat="39.3062692" lon="16.583339"><ele>1350.0</ele><time>2026-04-25T07:05:39.975Z</time></trkpt><trkpt lat="39.3064494" lon="16.5830411"><ele>1356.0</ele><time>2026-04-25T07:05:40.974Z</time></trkpt><trkpt lat="39.3066302" lon="16.5827441"><ele>1362.0</ele><time>2026-04-25T07:05:41.979Z</time></trkpt><trkpt lat="39.3068096" lon="16.5824431"><ele>1362.0</ele><time>2026-04-25T07:05:42.967Z</time></trkpt><trkpt lat="39.3069815" lon="16.5821339"><ele>1362.0</ele><time>2026-04-25T07:05:43.967Z</time></trkpt><trkpt lat="39.3071377" lon="16.581813"><ele>1361.5</ele><time>2026-04-25T07:05:44.977Z</time></trkpt><trkpt lat="39.307274" lon="16.5814792"><ele>1361.0</ele><time>2026-04-25T07:05:45.964Z</time></trkpt><trkpt lat="39.3073948" lon="16.5811353"><ele>1361.0</ele><time>2026-04-25T07:05:46.979Z</time></trkpt><trkpt lat="39.3074982" lon="16.580782"><ele>1361.0</ele><time>2026-04-25T07:05:47.977Z</time></trkpt><trkpt lat="39.3075881" lon="16.5804222"><ele>1361.5</ele><time>2026-04-25T07:05:48.973Z</time></trkpt><trkpt lat="39.3076633" lon="16.5800576"><ele>1362.0</ele><time>2026-04-25T07:05:49.968Z</time></trkpt><trkpt lat="39.3077275" lon="16.579688"><ele>1363.0</ele><time>2026-04-25T07:05:50.981Z</time></trkpt><trkpt lat="39.3077843" lon="16.5793163"><ele>1364.0</ele><time>2026-04-25T07:05:51.973Z</time></trkpt><trkpt lat="39.3078375" lon="16.5789439"><ele>1364.5</ele><time>2026-04-25T07:05:52.964Z</time></trkpt><trkpt lat="39.3078886" lon="16.5785704"><ele>1365.0</ele><time>2026-04-25T07:05:53.983Z</time></trkpt><trkpt lat="39.3079412" lon="16.5781963"><ele>1366.0</ele><time>2026-04-25T07:05:54.973Z</time></trkpt><trkpt lat="39.3079969" lon="16.5778243"><ele>1367.0</ele><time>2026-04-25T07:05:55.965Z</time></trkpt><trkpt lat="39.3080609" lon="16.5774536"><ele>1373.5</ele><time>2026-04-25T07:05:56.967Z</time></trkpt><trkpt lat="39.3081347" lon="16.5770873"><ele>1380.0</ele><time>2026-04-25T07:05:57.973Z</time></trkpt><trkpt lat="39.3082204" lon="16.5767257"><ele>1380.5</ele><time>2026-04-25T07:05:58.968Z</time></trkpt><trkpt lat="39.3083167" lon="16.5763683"><ele>1381.0</ele><time>2026-04-25T07:05:59.968Z</time></trkpt><trkpt lat="39.3084212" lon="16.576016"><ele>1381.0</ele><time>2026-04-25T07:06:00.976Z</time></trkpt><trkpt lat="39.3085337" lon="16.5756657"><ele>1381.0</ele><time>2026-04-25T07:06:01.967Z</time></trkpt><trkpt lat="39.3086513" lon="16.5753184"><ele>1381.0</ele><time>2026-04-25T07:06:02.969Z</time></trkpt><trkpt lat="39.3087721" lon="16.574974"><ele>1381.0</ele><time>2026-04-25T07:06:03.981Z</time></trkpt><trkpt lat="39.3088972" lon="16.5746321"><ele>1385.0</ele><time>2026-04-25T07:06:04.967Z</time></trkpt><trkpt lat="39.3090239" lon="16.5742922"><ele>1389.0</ele><time>2026-04-25T07:06:05.966Z</time></trkpt><trkpt lat="39.3091507" lon="16.5739519"><ele>1387.0</ele><time>2026-04-25T07:06:06.973Z</time></trkpt><trkpt lat="39.3092766" lon="16.5736116"><ele>1385.0</ele><time>2026-04-25T07:06:07.984Z</time></trkpt><trkpt lat="39.3094037" lon="16.5732724"><ele>1385.0</ele><time>2026-04-25T07:06:08.985Z</time></trkpt><trkpt lat="39.3095326" lon="16.5729353"><ele>1385.0</ele><time>2026-04-25T07:06:09.967Z</time></trkpt><trkpt lat="39.3096618" lon="16.5725995"><ele>1391.0</ele><time>2026-04-25T07:06:10.972Z</time></trkpt><trkpt lat="39.3097908" lon="16.5722653"><ele>1397.0</ele><time>2026-04-25T07:06:11.972Z</time></trkpt><trkpt lat="39.3099199" lon="16.5719317"><ele>1397.0</ele><time>2026-04-25T07:06:12.973Z</time></trkpt><trkpt lat="39.3100481" lon="16.5716001"><ele>1397.0</ele><time>2026-04-25T07:06:13.973Z</time></trkpt><trkpt lat="39.3101749" lon="16.5712679"><ele>1397.5</ele><time>2026-04-25T07:06:14.972Z</time></trkpt><trkpt lat="39.3103006" lon="16.5709362"><ele>1398.0</ele><time>2026-04-25T07:06:15.969Z</time></trkpt><trkpt lat="39.3104253" lon="16.570604"><ele>1398.5</ele><time>2026-04-25T07:06:16.979Z</time></trkpt><trkpt lat="39.3105504" lon="16.5702722"><ele>1399.0</ele><time>2026-04-25T07:06:17.97Z</time></trkpt><trkpt lat="39.3106771" lon="16.5699404"><ele>1401.5</ele><time>2026-04-25T07:06:18.978Z</time></trkpt><trkpt lat="39.3108044" lon="16.5696076"><ele>1404.0</ele><time>2026-04-25T07:06:19.966Z</time></trkpt><trkpt lat="39.3109317" lon="16.5692739"><ele>1404.0</ele><time>2026-04-25T07:06:20.972Z</time></trkpt><trkpt lat="39.311059" lon="16.5689387"><ele>1404.0</ele><time>2026-04-25T07:06:21.981Z</time></trkpt><trkpt lat="39.3111857" lon="16.568602"><ele>1402.5</ele><time>2026-04-25T07:06:22.969Z</time></trkpt><trkpt lat="39.3113125" lon="16.5682647"><ele>1401.0</ele><time>2026-04-25T07:06:23.967Z</time></trkpt><trkpt lat="39.3114398" lon="16.5679266"><ele>1404.5</ele><time>2026-04-25T07:06:24.967Z</time></trkpt><trkpt lat="39.3115671" lon="16.5675885"><ele>1408.0</ele><time>2026-04-25T07:06:25.979Z</time></trkpt><trkpt lat="39.3116935" lon="16.5672499"><ele>1406.0</ele><time>2026-04-25T07:06:26.975Z</time></trkpt><trkpt lat="39.3118199" lon="16.5669126"><ele>1404.0</ele><time>2026-04-25T07:06:27.973Z</time></trkpt><trkpt lat="39.3119468" lon="16.5665746"><ele>1404.0</ele><time>2026-04-25T07:06:28.972Z</time></trkpt><trkpt lat="39.3120741" lon="16.5662365"><ele>1404.0</ele><time>2026-04-25T07:06:29.964Z</time></trkpt><trkpt lat="39.3122012" lon="16.5658979"><ele>1406.0</ele><time>2026-04-25T07:06:30.973Z</time></trkpt><trkpt lat="39.3123279" lon="16.5655592"><ele>1408.0</ele><time>2026-04-25T07:06:31.979Z</time></trkpt><trkpt lat="39.3124554" lon="16.5652215"><ele>1409.0</ele><time>2026-04-25T07:06:32.983Z</time></trkpt><trkpt lat="39.3125837" lon="16.5648856"><ele>1410.0</ele><time>2026-04-25T07:06:33.972Z</time></trkpt><trkpt lat="39.312713" lon="16.5645523"><ele>1410.0</ele><time>2026-04-25T07:06:34.971Z</time></trkpt><trkpt lat="39.3139832" lon="16.5609237"><ele>1410.0</ele><time>2026-04-25T07:06:45.938Z</time></trkpt><trkpt lat="39.3141387" lon="16.5605805"><ele>1410.0</ele><time>2026-04-25T07:06:46.978Z</time></trkpt><trkpt lat="39.3142334" lon="16.5602045"><ele>1408.5</ele><time>2026-04-25T07:06:47.978Z</time></trkpt><trkpt lat="39.3143105" lon="16.5598062"><ele>1407.0</ele><time>2026-04-25T07:06:48.967Z</time></trkpt><trkpt lat="39.3143708" lon="16.5594344"><ele>1407.0</ele><time>2026-04-25T07:06:49.978Z</time></trkpt><trkpt lat="39.3144087" lon="16.5590743"><ele>1407.0</ele><time>2026-04-25T07:06:50.984Z</time></trkpt><trkpt lat="39.3144345" lon="16.5587165"><ele>1405.5</ele><time>2026-04-25T07:06:51.975Z</time></trkpt><trkpt lat="39.3144512" lon="16.5583668"><ele>1404.0</ele><time>2026-04-25T07:06:52.981Z</time></trkpt><trkpt lat="39.3144602" lon="16.5580164"><ele>1405.5</ele><time>2026-04-25T07:06:53.979Z</time></trkpt><trkpt lat="39.3144575" lon="16.5576647"><ele>1407.0</ele><time>2026-04-25T07:06:54.975Z</time></trkpt><trkpt lat="39.3144362" lon="16.5573038"><ele>1407.5</ele><time>2026-04-25T07:06:55.985Z</time></trkpt><trkpt lat="39.314399" lon="16.5569468"><ele>1408.0</ele><time>2026-04-25T07:06:56.978Z</time></trkpt><trkpt lat="39.3143667" lon="16.5565873"><ele>1408.0</ele><time>2026-04-25T07:06:57.973Z</time></trkpt><trkpt lat="39.3143364" lon="16.5562249"><ele>1408.0</ele><time>2026-04-25T07:06:58.975Z</time></trkpt><trkpt lat="39.31431" lon="16.5558648"><ele>1406.5</ele><time>2026-04-25T07:06:59.975Z</time></trkpt><trkpt lat="39.3142854" lon="16.5555058"><ele>1405.0</ele><time>2026-04-25T07:07:00.988Z</time></trkpt><trkpt lat="39.314258" lon="16.5551442"><ele>1405.0</ele><time>2026-04-25T07:07:01.979Z</time></trkpt><trkpt lat="39.3142325" lon="16.5547826"><ele>1405.0</ele><time>2026-04-25T07:07:02.975Z</time></trkpt><trkpt lat="39.3142138" lon="16.5544268"><ele>1406.5</ele><time>2026-04-25T07:07:03.98Z</time></trkpt><trkpt lat="39.3141946" lon="16.5540582"><ele>1408.0</ele><time>2026-04-25T07:07:04.978Z</time></trkpt><trkpt lat="39.3141809" lon="16.5537024"><ele>1408.0</ele><time>2026-04-25T07:07:05.981Z</time></trkpt><trkpt lat="39.3141976" lon="16.5533279"><ele>1408.0</ele><time>2026-04-25T07:07:06.982Z</time></trkpt><trkpt lat="39.314223" lon="16.5529704"><ele>1408.0</ele><time>2026-04-25T07:07:07.986Z</time></trkpt><trkpt lat="39.3142634" lon="16.5526216"><ele>1408.0</ele><time>2026-04-25T07:07:08.979Z</time></trkpt><trkpt lat="39.3143175" lon="16.5522691"><ele>1408.0</ele><time>2026-04-25T07:07:09.981Z</time></trkpt><trkpt lat="39.3143872" lon="16.55192"><ele>1408.0</ele><time>2026-04-25T07:07:10.975Z</time></trkpt><trkpt lat="39.3144745" lon="16.5515804"><ele>1408.0</ele><time>2026-04-25T07:07:11.982Z</time></trkpt><trkpt lat="39.3145772" lon="16.551248"><ele>1408.0</ele><time>2026-04-25T07:07:12.977Z</time></trkpt><trkpt lat="39.3146867" lon="16.5509232"><ele>1408.5</ele><time>2026-04-25T07:07:13.983Z</time></trkpt><trkpt lat="39.3148001" lon="16.5506032"><ele>1409.0</ele><time>2026-04-25T07:07:14.988Z</time></trkpt><trkpt lat="39.314927" lon="16.5502897"><ele>1408.0</ele><time>2026-04-25T07:07:15.972Z</time></trkpt><trkpt lat="39.315061" lon="16.5499809"><ele>1407.0</ele><time>2026-04-25T07:07:16.978Z</time></trkpt><trkpt lat="39.3151889" lon="16.5496707"><ele>1406.0</ele><time>2026-04-25T07:07:17.983Z</time></trkpt><trkpt lat="39.31531" lon="16.549358"><ele>1405.0</ele><time>2026-04-25T07:07:18.977Z</time></trkpt><trkpt lat="39.3154388" lon="16.5490423"><ele>1405.0</ele><time>2026-04-25T07:07:19.972Z</time></trkpt><trkpt lat="39.3155671" lon="16.5487273"><ele>1405.0</ele><time>2026-04-25T07:07:20.969Z</time></trkpt><trkpt lat="39.3156947" lon="16.5484138"><ele>1407.0</ele><time>2026-04-25T07:07:21.974Z</time></trkpt><trkpt lat="39.3158273" lon="16.5481011"><ele>1409.0</ele><time>2026-04-25T07:07:22.986Z</time></trkpt><trkpt lat="39.3159586" lon="16.5477874"><ele>1410.0</ele><time>2026-04-25T07:07:23.982Z</time></trkpt><trkpt lat="39.3160869" lon="16.5474737"><ele>1411.0</ele><time>2026-04-25T07:07:24.99Z</time></trkpt><trkpt lat="39.3162166" lon="16.5471579"><ele>1411.0</ele><time>2026-04-25T07:07:25.977Z</time></trkpt><trkpt lat="39.3163443" lon="16.5468375"><ele>1411.0</ele><time>2026-04-25T07:07:26.982Z</time></trkpt><trkpt lat="39.3164749" lon="16.5465173"><ele>1409.5</ele><time>2026-04-25T07:07:27.981Z</time></trkpt><trkpt lat="39.3166043" lon="16.546194"><ele>1408.0</ele><time>2026-04-25T07:07:28.974Z</time></trkpt><trkpt lat="39.3167363" lon="16.5458683"><ele>1408.0</ele><time>2026-04-25T07:07:29.977Z</time></trkpt><trkpt lat="39.3168714" lon="16.545541"><ele>1408.0</ele><time>2026-04-25T07:07:30.993Z</time></trkpt><trkpt lat="39.317007" lon="16.545213"><ele>1405.5</ele><time>2026-04-25T07:07:31.978Z</time></trkpt><trkpt lat="39.3171441" lon="16.5448852"><ele>1403.0</ele><time>2026-04-25T07:07:32.968Z</time></trkpt><trkpt lat="39.3172813" lon="16.5445544"><ele>1397.0</ele><time>2026-04-25T07:07:33.972Z</time></trkpt><trkpt lat="39.3174166" lon="16.5442237"><ele>1391.0</ele><time>2026-04-25T07:07:34.969Z</time></trkpt><trkpt lat="39.3175503" lon="16.5438923"><ele>1387.0</ele><time>2026-04-25T07:07:35.976Z</time></trkpt><trkpt lat="39.3176845" lon="16.5435634"><ele>1383.0</ele><time>2026-04-25T07:07:36.977Z</time></trkpt><trkpt lat="39.3178139" lon="16.5432298"><ele>1383.0</ele><time>2026-04-25T07:07:37.972Z</time></trkpt><trkpt lat="39.3179391" lon="16.5428953"><ele>1383.0</ele><time>2026-04-25T07:07:38.98Z</time></trkpt><trkpt lat="39.3180642" lon="16.5425679"><ele>1379.5</ele><time>2026-04-25T07:07:39.997Z</time></trkpt><trkpt lat="39.3181855" lon="16.5422339"><ele>1376.0</ele><time>2026-04-25T07:07:40.974Z</time></trkpt><trkpt lat="39.3182957" lon="16.5418888"><ele>1376.0</ele><time>2026-04-25T07:07:41.973Z</time></trkpt><trkpt lat="39.3183935" lon="16.5415386"><ele>1376.0</ele><time>2026-04-25T07:07:42.976Z</time></trkpt><trkpt lat="39.3184674" lon="16.5411772"><ele>1380.0</ele><time>2026-04-25T07:07:43.968Z</time></trkpt><trkpt lat="39.3185205" lon="16.5408147"><ele>1384.0</ele><time>2026-04-25T07:07:44.987Z</time></trkpt><trkpt lat="39.3185592" lon="16.5404459"><ele>1382.5</ele><time>2026-04-25T07:07:45.975Z</time></trkpt><trkpt lat="39.3185802" lon="16.5400704"><ele>1381.0</ele><time>2026-04-25T07:07:46.977Z</time></trkpt><trkpt lat="39.3185755" lon="16.539702"><ele>1377.5</ele><time>2026-04-25T07:07:47.975Z</time></trkpt><trkpt lat="39.3185514" lon="16.5393345"><ele>1374.0</ele><time>2026-04-25T07:07:48.98Z</time></trkpt><trkpt lat="39.3185141" lon="16.5389675"><ele>1369.5</ele><time>2026-04-25T07:07:49.985Z</time></trkpt><trkpt lat="39.3184592" lon="16.5386045"><ele>1365.0</ele><time>2026-04-25T07:07:50.995Z</time></trkpt><trkpt lat="39.3183877" lon="16.5382484"><ele>1365.0</ele><time>2026-04-25T07:07:51.973Z</time></trkpt><trkpt lat="39.3182984" lon="16.5378992"><ele>1365.0</ele><time>2026-04-25T07:07:52.979Z</time></trkpt><trkpt lat="39.3181937" lon="16.5375576"><ele>1362.5</ele><time>2026-04-25T07:07:53.98Z</time></trkpt><trkpt lat="39.3180731" lon="16.5372258"><ele>1360.0</ele><time>2026-04-25T07:07:54.977Z</time></trkpt><trkpt lat="39.3179396" lon="16.5369025"><ele>1359.0</ele><time>2026-04-25T07:07:55.975Z</time></trkpt><trkpt lat="39.317803" lon="16.536585"><ele>1358.0</ele><time>2026-04-25T07:07:56.975Z</time></trkpt><trkpt lat="39.3176579" lon="16.5362737"><ele>1355.0</ele><time>2026-04-25T07:07:57.986Z</time></trkpt><trkpt lat="39.3175167" lon="16.5359538"><ele>1352.0</ele><time>2026-04-25T07:07:58.975Z</time></trkpt><trkpt lat="39.3173771" lon="16.5356419"><ele>1355.5</ele><time>2026-04-25T07:07:59.978Z</time></trkpt><trkpt lat="39.3172343" lon="16.535325"><ele>1359.0</ele><time>2026-04-25T07:08:00.978Z</time></trkpt><trkpt lat="39.3170945" lon="16.5350098"><ele>1359.0</ele><time>2026-04-25T07:08:01.979Z</time></trkpt><trkpt lat="39.3169593" lon="16.5346917"><ele>1359.0</ele><time>2026-04-25T07:08:02.979Z</time></trkpt><trkpt lat="39.3168352" lon="16.5343659"><ele>1356.5</ele><time>2026-04-25T07:08:03.984Z</time></trkpt><trkpt lat="39.3167289" lon="16.5340292"><ele>1354.0</ele><time>2026-04-25T07:08:04.98Z</time></trkpt><trkpt lat="39.3166466" lon="16.5336857"><ele>1349.5</ele><time>2026-04-25T07:08:05.974Z</time></trkpt><trkpt lat="39.3165847" lon="16.533337"><ele>1345.0</ele><time>2026-04-25T07:08:06.983Z</time></trkpt><trkpt lat="39.3165397" lon="16.5329803"><ele>1341.5</ele><time>2026-04-25T07:08:07.979Z</time></trkpt><trkpt lat="39.3165177" lon="16.5326203"><ele>1338.0</ele><time>2026-04-25T07:08:08.976Z</time></trkpt><trkpt lat="39.3165175" lon="16.5322611"><ele>1335.5</ele><time>2026-04-25T07:08:09.987Z</time></trkpt><trkpt lat="39.3165199" lon="16.5319116"><ele>1333.0</ele><time>2026-04-25T07:08:10.987Z</time></trkpt><trkpt lat="39.3165763" lon="16.5315628"><ele>1333.0</ele><time>2026-04-25T07:08:11.988Z</time></trkpt><trkpt lat="39.316642" lon="16.5312197"><ele>1333.0</ele><time>2026-04-25T07:08:12.976Z</time></trkpt><trkpt lat="39.3167267" lon="16.5308832"><ele>1333.0</ele><time>2026-04-25T07:08:13.986Z</time></trkpt><trkpt lat="39.3168301" lon="16.5305544"><ele>1333.0</ele><time>2026-04-25T07:08:14.972Z</time></trkpt><trkpt lat="39.3169529" lon="16.53024"><ele>1336.5</ele><time>2026-04-25T07:08:15.969Z</time></trkpt><trkpt lat="39.3170891" lon="16.5299392"><ele>1340.0</ele><time>2026-04-25T07:08:16.972Z</time></trkpt><trkpt lat="39.3172383" lon="16.5296526"><ele>1343.0</ele><time>2026-04-25T07:08:17.978Z</time></trkpt><trkpt lat="39.3173954" lon="16.529375"><ele>1346.0</ele><time>2026-04-25T07:08:18.976Z</time></trkpt><trkpt lat="39.317556" lon="16.5291047"><ele>1346.0</ele><time>2026-04-25T07:08:19.981Z</time></trkpt><trkpt lat="39.317718" lon="16.5288365"><ele>1346.0</ele><time>2026-04-25T07:08:20.979Z</time></trkpt><trkpt lat="39.3178782" lon="16.5285707"><ele>1347.0</ele><time>2026-04-25T07:08:21.978Z</time></trkpt><trkpt lat="39.3180372" lon="16.528307"><ele>1348.0</ele><time>2026-04-25T07:08:22.981Z</time></trkpt><trkpt lat="39.3181953" lon="16.528045"><ele>1350.5</ele><time>2026-04-25T07:08:23.993Z</time></trkpt><trkpt lat="39.3183514" lon="16.5277815"><ele>1353.0</ele><time>2026-04-25T07:08:24.979Z</time></trkpt><trkpt lat="39.3185041" lon="16.5275157"><ele>1353.0</ele><time>2026-04-25T07:08:25.981Z</time></trkpt><trkpt lat="39.3186556" lon="16.5272559"><ele>1353.0</ele><time>2026-04-25T07:08:26.972Z</time></trkpt><trkpt lat="39.3187808" lon="16.5269772"><ele>1356.0</ele><time>2026-04-25T07:08:27.98Z</time></trkpt><trkpt lat="39.3189035" lon="16.5266885"><ele>1359.0</ele><time>2026-04-25T07:08:28.985Z</time></trkpt><trkpt lat="39.3190145" lon="16.5263921"><ele>1358.5</ele><time>2026-04-25T07:08:29.989Z</time></trkpt><trkpt lat="39.3191139" lon="16.5260947"><ele>1358.0</ele><time>2026-04-25T07:08:30.983Z</time></trkpt><trkpt lat="39.3191969" lon="16.5257857"><ele>1358.0</ele><time>2026-04-25T07:08:31.986Z</time></trkpt><trkpt lat="39.3192678" lon="16.5254723"><ele>1358.0</ele><time>2026-04-25T07:08:32.979Z</time></trkpt><trkpt lat="39.3193273" lon="16.5251552"><ele>1356.0</ele><time>2026-04-25T07:08:33.986Z</time></trkpt><trkpt lat="39.3193768" lon="16.5248311"><ele>1354.0</ele><time>2026-04-25T07:08:34.994Z</time></trkpt><trkpt lat="39.3194168" lon="16.5245055"><ele>1352.5</ele><time>2026-04-25T07:08:35.978Z</time></trkpt><trkpt lat="39.3194401" lon="16.524175"><ele>1351.0</ele><time>2026-04-25T07:08:36.989Z</time></trkpt><trkpt lat="39.319447" lon="16.5238394"><ele>1352.0</ele><time>2026-04-25T07:08:37.979Z</time></trkpt><trkpt lat="39.3194384" lon="16.5235016"><ele>1353.0</ele><time>2026-04-25T07:08:38.981Z</time></trkpt><trkpt lat="39.3194182" lon="16.5231602"><ele>1350.5</ele><time>2026-04-25T07:08:39.974Z</time></trkpt><trkpt lat="39.3193874" lon="16.5228167"><ele>1348.0</ele><time>2026-04-25T07:08:40.972Z</time></trkpt><trkpt lat="39.3193521" lon="16.5224719"><ele>1348.0</ele><time>2026-04-25T07:08:41.975Z</time></trkpt><trkpt lat="39.3193189" lon="16.5221236"><ele>1348.0</ele><time>2026-04-25T07:08:42.977Z</time></trkpt><trkpt lat="39.3192894" lon="16.5217725"><ele>1346.0</ele><time>2026-04-25T07:08:43.971Z</time></trkpt><trkpt lat="39.3192636" lon="16.5214194"><ele>1344.0</ele><time>2026-04-25T07:08:44.986Z</time></trkpt><trkpt lat="39.319243" lon="16.5210626"><ele>1343.0</ele><time>2026-04-25T07:08:45.984Z</time></trkpt><trkpt lat="39.3192295" lon="16.5207046"><ele>1342.0</ele><time>2026-04-25T07:08:46.985Z</time></trkpt><trkpt lat="39.3192212" lon="16.520345"><ele>1342.0</ele><time>2026-04-25T07:08:47.98Z</time></trkpt><trkpt lat="39.3192197" lon="16.5199838"><ele>1342.0</ele><time>2026-04-25T07:08:48.979Z</time></trkpt><trkpt lat="39.3192263" lon="16.5196234"><ele>1343.0</ele><time>2026-04-25T07:08:49.978Z</time></trkpt><trkpt lat="39.3192401" lon="16.5192633"><ele>1344.0</ele><time>2026-04-25T07:08:50.988Z</time></trkpt><trkpt lat="39.3192562" lon="16.5189031"><ele>1345.0</ele><time>2026-04-25T07:08:51.984Z</time></trkpt><trkpt lat="39.3192719" lon="16.5185422"><ele>1346.0</ele><time>2026-04-25T07:08:52.977Z</time></trkpt><trkpt lat="39.3192877" lon="16.5181825"><ele>1347.0</ele><time>2026-04-25T07:08:53.982Z</time></trkpt><trkpt lat="39.3193024" lon="16.5178237"><ele>1348.0</ele><time>2026-04-25T07:08:54.98Z</time></trkpt><trkpt lat="39.3193154" lon="16.5174653"><ele>1348.0</ele><time>2026-04-25T07:08:55.976Z</time></trkpt><trkpt lat="39.3193296" lon="16.5171073"><ele>1348.0</ele><time>2026-04-25T07:08:56.979Z</time></trkpt><trkpt lat="39.3193434" lon="16.516751"><ele>1349.5</ele><time>2026-04-25T07:08:57.986Z</time></trkpt><trkpt lat="39.3193587" lon="16.5163949"><ele>1351.0</ele><time>2026-04-25T07:08:58.988Z</time></trkpt><trkpt lat="39.3193734" lon="16.51604"><ele>1351.5</ele><time>2026-04-25T07:08:59.977Z</time></trkpt><trkpt lat="39.3193892" lon="16.5156839"><ele>1352.0</ele><time>2026-04-25T07:09:00.977Z</time></trkpt><trkpt lat="39.3194042" lon="16.5153281"><ele>1352.0</ele><time>2026-04-25T07:09:01.978Z</time></trkpt><trkpt lat="39.3194173" lon="16.5149723"><ele>1352.0</ele><time>2026-04-25T07:09:02.978Z</time></trkpt><trkpt lat="39.3194307" lon="16.5146159"><ele>1352.0</ele><time>2026-04-25T07:09:03.98Z</time></trkpt><trkpt lat="39.3194438" lon="16.5142595"><ele>1352.0</ele><time>2026-04-25T07:09:04.979Z</time></trkpt><trkpt lat="39.3194596" lon="16.5139024"><ele>1353.0</ele><time>2026-04-25T07:09:05.98Z</time></trkpt><trkpt lat="39.3194764" lon="16.5135452"><ele>1354.0</ele><time>2026-04-25T07:09:06.986Z</time></trkpt><trkpt lat="39.3194943" lon="16.5131878"><ele>1353.5</ele><time>2026-04-25T07:09:07.983Z</time></trkpt><trkpt lat="39.3195114" lon="16.5128302"><ele>1353.0</ele><time>2026-04-25T07:09:08.984Z</time></trkpt><trkpt lat="39.3195281" lon="16.5124723"><ele>1353.0</ele><time>2026-04-25T07:09:09.988Z</time></trkpt><trkpt lat="39.3195436" lon="16.5121154"><ele>1353.0</ele><time>2026-04-25T07:09:10.976Z</time></trkpt><trkpt lat="39.3195581" lon="16.5117596"><ele>1353.0</ele><time>2026-04-25T07:09:11.985Z</time></trkpt><trkpt lat="39.3195716" lon="16.5114058"><ele>1353.0</ele><time>2026-04-25T07:09:12.987Z</time></trkpt><trkpt lat="39.3195845" lon="16.5110541"><ele>1355.0</ele><time>2026-04-25T07:09:13.982Z</time></trkpt><trkpt lat="39.319599" lon="16.5107039"><ele>1357.0</ele><time>2026-04-25T07:09:14.975Z</time></trkpt><trkpt lat="39.3196198" lon="16.5103565"><ele>1357.0</ele><time>2026-04-25T07:09:15.983Z</time></trkpt><trkpt lat="39.3196485" lon="16.5100123"><ele>1357.0</ele><time>2026-04-25T07:09:16.978Z</time></trkpt><trkpt lat="39.3196917" lon="16.5096731"><ele>1359.5</ele><time>2026-04-25T07:09:17.969Z</time></trkpt><trkpt lat="39.3197503" lon="16.509339"><ele>1362.0</ele><time>2026-04-25T07:09:18.978Z</time></trkpt><trkpt lat="39.3198224" lon="16.5090111"><ele>1362.5</ele><time>2026-04-25T07:09:19.973Z</time></trkpt><trkpt lat="39.3199063" lon="16.5086883"><ele>1363.0</ele><time>2026-04-25T07:09:20.975Z</time></trkpt><trkpt lat="39.3199995" lon="16.508371"><ele>1363.0</ele><time>2026-04-25T07:09:21.978Z</time></trkpt><trkpt lat="39.320103" lon="16.5080586"><ele>1363.0</ele><time>2026-04-25T07:09:22.976Z</time></trkpt><trkpt lat="39.320216" lon="16.5077516"><ele>1364.5</ele><time>2026-04-25T07:09:23.981Z</time></trkpt><trkpt lat="39.3203453" lon="16.507458"><ele>1366.0</ele><time>2026-04-25T07:09:24.99Z</time></trkpt><trkpt lat="39.3204855" lon="16.5071725"><ele>1364.5</ele><time>2026-04-25T07:09:25.979Z</time></trkpt><trkpt lat="39.3206369" lon="16.5068955"><ele>1363.0</ele><time>2026-04-25T07:09:26.979Z</time></trkpt><trkpt lat="39.3207996" lon="16.5066293"><ele>1363.0</ele><time>2026-04-25T07:09:27.976Z</time></trkpt><trkpt lat="39.3209735" lon="16.5063741"><ele>1363.0</ele><time>2026-04-25T07:09:28.972Z</time></trkpt><trkpt lat="39.3211574" lon="16.5061288"><ele>1364.5</ele><time>2026-04-25T07:09:29.983Z</time></trkpt><trkpt lat="39.3213509" lon="16.505894"><ele>1366.0</ele><time>2026-04-25T07:09:30.98Z</time></trkpt><trkpt lat="39.321553" lon="16.5056697"><ele>1363.5</ele><time>2026-04-25T07:09:31.977Z</time></trkpt><trkpt lat="39.3217624" lon="16.5054546"><ele>1361.0</ele><time>2026-04-25T07:09:32.99Z</time></trkpt><trkpt lat="39.3219775" lon="16.5052487"><ele>1361.0</ele><time>2026-04-25T07:09:33.984Z</time></trkpt><trkpt lat="39.3221968" lon="16.5050501"><ele>1361.0</ele><time>2026-04-25T07:09:34.979Z</time></trkpt><trkpt lat="39.3224174" lon="16.5048534"><ele>1358.0</ele><time>2026-04-25T07:09:35.982Z</time></trkpt><trkpt lat="39.3226385" lon="16.5046575"><ele>1355.0</ele><time>2026-04-25T07:09:36.987Z</time></trkpt><trkpt lat="39.32286" lon="16.50446"><ele>1354.5</ele><time>2026-04-25T07:09:37.993Z</time></trkpt><trkpt lat="39.323081" lon="16.5042618"><ele>1354.0</ele><time>2026-04-25T07:09:38.977Z</time></trkpt><trkpt lat="39.323302" lon="16.5040623"><ele>1354.0</ele><time>2026-04-25T07:09:39.981Z</time></trkpt><trkpt lat="39.323524" lon="16.503864"><ele>1354.0</ele><time>2026-04-25T07:09:40.988Z</time></trkpt><trkpt lat="39.3237455" lon="16.5036658"><ele>1355.0</ele><time>2026-04-25T07:09:41.979Z</time></trkpt><trkpt lat="39.3239679" lon="16.5034683"><ele>1356.0</ele><time>2026-04-25T07:09:42.975Z</time></trkpt><trkpt lat="39.3241905" lon="16.5032711"><ele>1356.0</ele><time>2026-04-25T07:09:43.981Z</time></trkpt><trkpt lat="39.3244126" lon="16.5030723"><ele>1356.0</ele><time>2026-04-25T07:09:44.98Z</time></trkpt><trkpt lat="39.3246332" lon="16.5028702"><ele>1355.0</ele><time>2026-04-25T07:09:45.985Z</time></trkpt><trkpt lat="39.3248538" lon="16.5026679"><ele>1354.0</ele><time>2026-04-25T07:09:46.978Z</time></trkpt><trkpt lat="39.3250745" lon="16.502465"><ele>1354.0</ele><time>2026-04-25T07:09:47.979Z</time></trkpt><trkpt lat="39.3252946" lon="16.5022606"><ele>1354.0</ele><time>2026-04-25T07:09:48.978Z</time></trkpt><trkpt lat="39.3255159" lon="16.5020566"><ele>1351.0</ele><time>2026-04-25T07:09:49.974Z</time></trkpt><trkpt lat="39.3257387" lon="16.5018547"><ele>1348.0</ele><time>2026-04-25T07:09:50.981Z</time></trkpt><trkpt lat="39.3259622" lon="16.5016546"><ele>1348.0</ele><time>2026-04-25T07:09:51.982Z</time></trkpt><trkpt lat="39.3261869" lon="16.5014574"><ele>1348.0</ele><time>2026-04-25T07:09:52.972Z</time></trkpt><trkpt lat="39.3264111" lon="16.5012611"><ele>1347.5</ele><time>2026-04-25T07:09:53.975Z</time></trkpt><trkpt lat="39.3266352" lon="16.5010906"><ele>1347.0</ele><time>2026-04-25T07:09:54.978Z</time></trkpt><trkpt lat="39.3268559" lon="16.5008915"><ele>1347.0</ele><time>2026-04-25T07:09:55.976Z</time></trkpt><trkpt lat="39.3270744" lon="16.5006984"><ele>1347.0</ele><time>2026-04-25T07:09:56.978Z</time></trkpt><trkpt lat="39.3272974" lon="16.5005041"><ele>1344.5</ele><time>2026-04-25T07:09:57.984Z</time></trkpt><trkpt lat="39.3275118" lon="16.5003101"><ele>1342.0</ele><time>2026-04-25T07:09:58.975Z</time></trkpt><trkpt lat="39.3277242" lon="16.500113"><ele>1342.0</ele><time>2026-04-25T07:09:59.974Z</time></trkpt><trkpt lat="39.3279312" lon="16.4999074"><ele>1342.0</ele><time>2026-04-25T07:10:00.972Z</time></trkpt><trkpt lat="39.3281298" lon="16.4996915"><ele>1340.5</ele><time>2026-04-25T07:10:01.981Z</time></trkpt><trkpt lat="39.3283172" lon="16.4994591"><ele>1339.0</ele><time>2026-04-25T07:10:02.975Z</time></trkpt><trkpt lat="39.3284878" lon="16.4992132"><ele>1339.0</ele><time>2026-04-25T07:10:03.983Z</time></trkpt><trkpt lat="39.3286423" lon="16.4989532"><ele>1339.0</ele><time>2026-04-25T07:10:04.983Z</time></trkpt><trkpt lat="39.328783" lon="16.4986816"><ele>1341.0</ele><time>2026-04-25T07:10:05.981Z</time></trkpt><trkpt lat="39.3289101" lon="16.4983948"><ele>1343.0</ele><time>2026-04-25T07:10:06.978Z</time></trkpt><trkpt lat="39.3290244" lon="16.4980954"><ele>1344.0</ele><time>2026-04-25T07:10:07.968Z</time></trkpt><trkpt lat="39.3291227" lon="16.4977833"><ele>1345.0</ele><time>2026-04-25T07:10:08.973Z</time></trkpt><trkpt lat="39.3292023" lon="16.4974597"><ele>1345.0</ele><time>2026-04-25T07:10:09.984Z</time></trkpt><trkpt lat="39.3292605" lon="16.4971273"><ele>1345.0</ele><time>2026-04-25T07:10:10.983Z</time></trkpt><trkpt lat="39.3292996" lon="16.4967891"><ele>1346.0</ele><time>2026-04-25T07:10:11.968Z</time></trkpt><trkpt lat="39.329321" lon="16.4964496"><ele>1347.0</ele><time>2026-04-25T07:10:12.983Z</time></trkpt><trkpt lat="39.3293276" lon="16.4961092"><ele>1348.5</ele><time>2026-04-25T07:10:13.983Z</time></trkpt><trkpt lat="39.3293213" lon="16.4957687"><ele>1350.0</ele><time>2026-04-25T07:10:14.979Z</time></trkpt><trkpt lat="39.3293081" lon="16.4954292"><ele>1350.0</ele><time>2026-04-25T07:10:15.979Z</time></trkpt><trkpt lat="39.3292952" lon="16.4950903"><ele>1350.0</ele><time>2026-04-25T07:10:16.975Z</time></trkpt><trkpt lat="39.3292833" lon="16.4947514"><ele>1350.0</ele><time>2026-04-25T07:10:17.976Z</time></trkpt><trkpt lat="39.3292708" lon="16.4944131"><ele>1350.0</ele><time>2026-04-25T07:10:18.974Z</time></trkpt><trkpt lat="39.329258" lon="16.494076"><ele>1350.5</ele><time>2026-04-25T07:10:19.98Z</time></trkpt><trkpt lat="39.3292437" lon="16.4937382"><ele>1351.0</ele><time>2026-04-25T07:10:20.98Z</time></trkpt><trkpt lat="39.3292311" lon="16.4934013"><ele>1351.0</ele><time>2026-04-25T07:10:21.975Z</time></trkpt><trkpt lat="39.3292163" lon="16.4930657"><ele>1351.0</ele><time>2026-04-25T07:10:22.97Z</time></trkpt><trkpt lat="39.3292023" lon="16.4927317"><ele>1353.0</ele><time>2026-04-25T07:10:23.969Z</time></trkpt><trkpt lat="39.3291897" lon="16.4923975"><ele>1355.0</ele><time>2026-04-25T07:10:24.988Z</time></trkpt><trkpt lat="39.3291763" lon="16.4920645"><ele>1355.0</ele><time>2026-04-25T07:10:25.983Z</time></trkpt><trkpt lat="39.3291639" lon="16.4917314"><ele>1355.0</ele><time>2026-04-25T07:10:26.973Z</time></trkpt><trkpt lat="39.3291519" lon="16.4914006"><ele>1358.0</ele><time>2026-04-25T07:10:27.973Z</time></trkpt><trkpt lat="39.329139" lon="16.4910702"><ele>1361.0</ele><time>2026-04-25T07:10:28.968Z</time></trkpt><trkpt lat="39.3291259" lon="16.4907369"><ele>1360.5</ele><time>2026-04-25T07:10:29.968Z</time></trkpt><trkpt lat="39.3291075" lon="16.490403"><ele>1360.0</ele><time>2026-04-25T07:10:30.976Z</time></trkpt><trkpt lat="39.3290911" lon="16.4900688"><ele>1360.0</ele><time>2026-04-25T07:10:31.982Z</time></trkpt><trkpt lat="39.3290733" lon="16.4897468"><ele>1360.0</ele><time>2026-04-25T07:10:32.978Z</time></trkpt><trkpt lat="39.3290449" lon="16.48942"><ele>1359.0</ele><time>2026-04-25T07:10:33.975Z</time></trkpt><trkpt lat="39.3290123" lon="16.4890956"><ele>1358.0</ele><time>2026-04-25T07:10:34.986Z</time></trkpt><trkpt lat="39.3289698" lon="16.4887651"><ele>1357.0</ele><time>2026-04-25T07:10:35.981Z</time></trkpt><trkpt lat="39.3289242" lon="16.4884374"><ele>1356.0</ele><time>2026-04-25T07:10:36.974Z</time></trkpt><trkpt lat="39.3288666" lon="16.4881132"><ele>1357.0</ele><time>2026-04-25T07:10:37.968Z</time></trkpt><trkpt lat="39.3288117" lon="16.4877889"><ele>1358.0</ele><time>2026-04-25T07:10:38.976Z</time></trkpt><trkpt lat="39.3287629" lon="16.4874641"><ele>1358.0</ele><time>2026-04-25T07:10:39.982Z</time></trkpt><trkpt lat="39.3287195" lon="16.4871387"><ele>1358.0</ele><time>2026-04-25T07:10:40.972Z</time></trkpt><trkpt lat="39.3286869" lon="16.4868107"><ele>1359.0</ele><time>2026-04-25T07:10:41.983Z</time></trkpt><trkpt lat="39.3286631" lon="16.4864807"><ele>1360.0</ele><time>2026-04-25T07:10:42.981Z</time></trkpt><trkpt lat="39.3286521" lon="16.4861512"><ele>1360.0</ele><time>2026-04-25T07:10:43.974Z</time></trkpt><trkpt lat="39.3286455" lon="16.4858196"><ele>1360.0</ele><time>2026-04-25T07:10:44.983Z</time></trkpt><trkpt lat="39.3286421" lon="16.4854868"><ele>1360.5</ele><time>2026-04-25T07:10:45.978Z</time></trkpt><trkpt lat="39.3286397" lon="16.4851536"><ele>1361.0</ele><time>2026-04-25T07:10:46.968Z</time></trkpt><trkpt lat="39.3286387" lon="16.4848172"><ele>1361.5</ele><time>2026-04-25T07:10:47.977Z</time></trkpt><trkpt lat="39.3286474" lon="16.4844795"><ele>1362.0</ele><time>2026-04-25T07:10:49.006Z</time></trkpt><trkpt lat="39.3286687" lon="16.4841414"><ele>1362.0</ele><time>2026-04-25T07:10:49.971Z</time></trkpt><trkpt lat="39.3287076" lon="16.4838013"><ele>1362.0</ele><time>2026-04-25T07:10:50.986Z</time></trkpt><trkpt lat="39.3287497" lon="16.4834612"><ele>1362.0</ele><time>2026-04-25T07:10:51.982Z</time></trkpt><trkpt lat="39.3288208" lon="16.4831472"><ele>1362.0</ele><time>2026-04-25T07:10:52.98Z</time></trkpt><trkpt lat="39.3289162" lon="16.4828176"><ele>1355.0</ele><time>2026-04-25T07:10:53.98Z</time></trkpt><trkpt lat="39.3290271" lon="16.4825"><ele>1348.0</ele><time>2026-04-25T07:10:54.972Z</time></trkpt><trkpt lat="39.3291583" lon="16.4821948"><ele>1347.5</ele><time>2026-04-25T07:10:55.965Z</time></trkpt><trkpt lat="39.3293106" lon="16.4819035"><ele>1347.0</ele><time>2026-04-25T07:10:56.984Z</time></trkpt><trkpt lat="39.3294825" lon="16.4816312"><ele>1347.0</ele><time>2026-04-25T07:10:57.985Z</time></trkpt><trkpt lat="39.3296704" lon="16.4813746"><ele>1347.0</ele><time>2026-04-25T07:10:58.982Z</time></trkpt><trkpt lat="39.3298732" lon="16.4811337"><ele>1346.5</ele><time>2026-04-25T07:10:59.98Z</time></trkpt><trkpt lat="39.3300872" lon="16.480912"><ele>1346.0</ele><time>2026-04-25T07:11:00.991Z</time></trkpt><trkpt lat="39.3303103" lon="16.4807079"><ele>1346.0</ele><time>2026-04-25T07:11:01.98Z</time></trkpt><trkpt lat="39.3305386" lon="16.4805121"><ele>1346.0</ele><time>2026-04-25T07:11:02.977Z</time></trkpt><trkpt lat="39.3307683" lon="16.4803186"><ele>1343.5</ele><time>2026-04-25T07:11:03.984Z</time></trkpt><trkpt lat="39.3309985" lon="16.4801198"><ele>1341.0</ele><time>2026-04-25T07:11:04.982Z</time></trkpt><trkpt lat="39.3312281" lon="16.4799174"><ele>1341.5</ele><time>2026-04-25T07:11:05.972Z</time></trkpt><trkpt lat="39.3314534" lon="16.4797144"><ele>1342.0</ele><time>2026-04-25T07:11:06.98Z</time></trkpt><trkpt lat="39.3316804" lon="16.4795149"><ele>1342.0</ele><time>2026-04-25T07:11:07.987Z</time></trkpt><trkpt lat="39.3319036" lon="16.4793179"><ele>1342.0</ele><time>2026-04-25T07:11:08.986Z</time></trkpt><trkpt lat="39.3321262" lon="16.4791208"><ele>1343.0</ele><time>2026-04-25T07:11:09.972Z</time></trkpt><trkpt lat="39.3323489" lon="16.4789257"><ele>1344.0</ele><time>2026-04-25T07:11:10.977Z</time></trkpt><trkpt lat="39.3325706" lon="16.4787329"><ele>1344.0</ele><time>2026-04-25T07:11:11.977Z</time></trkpt><trkpt lat="39.3327908" lon="16.4785405"><ele>1344.0</ele><time>2026-04-25T07:11:12.981Z</time></trkpt><trkpt lat="39.3330094" lon="16.4783488"><ele>1340.5</ele><time>2026-04-25T07:11:13.986Z</time></trkpt><trkpt lat="39.3332237" lon="16.4781552"><ele>1337.0</ele><time>2026-04-25T07:11:14.982Z</time></trkpt><trkpt lat="39.3334282" lon="16.4779485"><ele>1341.0</ele><time>2026-04-25T07:11:15.985Z</time></trkpt><trkpt lat="39.3336175" lon="16.4777222"><ele>1345.0</ele><time>2026-04-25T07:11:16.979Z</time></trkpt><trkpt lat="39.3337885" lon="16.4774749"><ele>1341.5</ele><time>2026-04-25T07:11:17.983Z</time></trkpt><trkpt lat="39.3339403" lon="16.4772055"><ele>1338.0</ele><time>2026-04-25T07:11:19.019Z</time></trkpt><trkpt lat="39.3340718" lon="16.4769155"><ele>1338.0</ele><time>2026-04-25T07:11:19.982Z</time></trkpt><trkpt lat="39.3341985" lon="16.4766231"><ele>1338.0</ele><time>2026-04-25T07:11:21.01Z</time></trkpt><trkpt lat="39.3342841" lon="16.4762879"><ele>1342.5</ele><time>2026-04-25T07:11:21.989Z</time></trkpt><trkpt lat="39.3343442" lon="16.4759326"><ele>1347.0</ele><time>2026-04-25T07:11:22.988Z</time></trkpt><trkpt lat="39.3343837" lon="16.4755505"><ele>1349.5</ele><time>2026-04-25T07:11:23.975Z</time></trkpt><trkpt lat="39.3344098" lon="16.4751603"><ele>1352.0</ele><time>2026-04-25T07:11:24.996Z</time></trkpt><trkpt lat="39.3343891" lon="16.4747444"><ele>1353.0</ele><time>2026-04-25T07:11:25.976Z</time></trkpt><trkpt lat="39.3343617" lon="16.4743138"><ele>1354.0</ele><time>2026-04-25T07:11:26.995Z</time></trkpt><trkpt lat="39.3343256" lon="16.4738789"><ele>1351.0</ele><time>2026-04-25T07:11:27.991Z</time></trkpt><trkpt lat="39.334299" lon="16.4734458"><ele>1348.0</ele><time>2026-04-25T07:11:28.994Z</time></trkpt><trkpt lat="39.3342706" lon="16.4730214"><ele>1342.0</ele><time>2026-04-25T07:11:29.989Z</time></trkpt><trkpt lat="39.3342384" lon="16.472606"><ele>1336.0</ele><time>2026-04-25T07:11:30.997Z</time></trkpt><trkpt lat="39.334238" lon="16.4721902"><ele>1330.5</ele><time>2026-04-25T07:11:31.992Z</time></trkpt><trkpt lat="39.334197" lon="16.4717858"><ele>1325.0</ele><time>2026-04-25T07:11:33.028Z</time></trkpt><trkpt lat="39.3341667" lon="16.4713916"><ele>1323.0</ele><time>2026-04-25T07:11:33.989Z</time></trkpt><trkpt lat="39.3341406" lon="16.4710134"><ele>1321.0</ele><time>2026-04-25T07:11:34.987Z</time></trkpt><trkpt lat="39.3341176" lon="16.4706566"><ele>1326.0</ele><time>2026-04-25T07:11:35.994Z</time></trkpt><trkpt lat="39.334093" lon="16.4703106"><ele>1331.0</ele><time>2026-04-25T07:11:36.998Z</time></trkpt><trkpt lat="39.3340756" lon="16.4699789"><ele>1331.0</ele><time>2026-04-25T07:11:37.987Z</time></trkpt><trkpt lat="39.3340586" lon="16.4696626"><ele>1331.0</ele><time>2026-04-25T07:11:38.973Z</time></trkpt><trkpt lat="39.3340424" lon="16.46936"><ele>1330.6666666666667</ele><time>2026-04-25T07:11:39.98Z</time></trkpt><trkpt lat="39.3340252" lon="16.4690733"><ele>1330.3333333333333</ele><time>2026-04-25T07:11:41.001Z</time></trkpt><trkpt lat="39.3340098" lon="16.4688008"><ele>1330.0</ele><time>2026-04-25T07:11:41.995Z</time></trkpt><trkpt lat="39.3339953" lon="16.4685408"><ele>1330.0</ele><time>2026-04-25T07:11:42.973Z</time></trkpt><trkpt lat="39.3339838" lon="16.4683019"><ele>1330.0</ele><time>2026-04-25T07:11:43.978Z</time></trkpt><trkpt lat="39.3339663" lon="16.4680683"><ele>1330.0</ele><time>2026-04-25T07:11:44.971Z</time></trkpt><trkpt lat="39.3339541" lon="16.467853"><ele>1328.25</ele><time>2026-04-25T07:11:45.986Z</time></trkpt><trkpt lat="39.3339397" lon="16.4676499"><ele>1326.5</ele><time>2026-04-25T07:11:46.979Z</time></trkpt><trkpt lat="39.3339265" lon="16.4674546"><ele>1324.75</ele><time>2026-04-25T07:11:47.978Z</time></trkpt><trkpt lat="39.3339169" lon="16.4672756"><ele>1323.0</ele><time>2026-04-25T07:11:48.978Z</time></trkpt><trkpt lat="39.3339089" lon="16.4671217"><ele>1322.2</ele><time>2026-04-25T07:11:49.974Z</time></trkpt><trkpt lat="39.3339016" lon="16.467"><ele>1321.4</ele><time>2026-04-25T07:11:50.982Z</time></trkpt><trkpt lat="39.3339693" lon="16.4668806"><ele>1320.6000000000001</ele><time>2026-04-25T07:11:52.98Z</time></trkpt><trkpt lat="39.3340579" lon="16.4668163"><ele>1319.8000000000002</ele><time>2026-04-25T07:11:54.993Z</time></trkpt><trkpt lat="39.3341481" lon="16.466773"><ele>1319.0</ele><time>2026-04-25T07:11:57.018Z</time></trkpt><trkpt lat="39.3342781" lon="16.4667297"><ele>1319.0</ele><time>2026-04-25T07:12:03.985Z</time></trkpt><trkpt lat="39.3343085" lon="16.4666509"><ele>1319.0</ele><time>2026-04-25T07:16:06.991Z</time></trkpt><trkpt lat="39.3342783" lon="16.4665265"><ele>1319.0</ele><time>2026-04-25T07:16:09.984Z</time></trkpt><trkpt lat="39.3341602" lon="16.4664491"><ele>1319.0</ele><time>2026-04-25T07:16:11.982Z</time></trkpt><trkpt lat="39.3340922" lon="16.4664344"><ele>1319.0</ele><time>2026-04-25T07:16:12.978Z</time></trkpt><trkpt lat="39.3340305" lon="16.4664106"><ele>1319.0</ele><time>2026-04-25T07:16:13.981Z</time></trkpt><trkpt lat="39.3339236" lon="16.4663533"><ele>1322.2</ele><time>2026-04-25T07:16:15.969Z</time></trkpt><trkpt lat="39.333848" lon="16.4662648"><ele>1325.4</ele><time>2026-04-25T07:16:17.992Z</time></trkpt><trkpt lat="39.333831" lon="16.466094"><ele>1328.6</ele><time>2026-04-25T07:16:19.981Z</time></trkpt><trkpt lat="39.3338232" lon="16.4659697"><ele>1331.8</ele><time>2026-04-25T07:16:20.974Z</time></trkpt><trkpt lat="39.3338135" lon="16.4658221"><ele>1335.0</ele><time>2026-04-25T07:16:21.982Z</time></trkpt><trkpt lat="39.3338005" lon="16.4656497"><ele>1335.0</ele><time>2026-04-25T07:16:22.989Z</time></trkpt><trkpt lat="39.3337853" lon="16.4654485"><ele>1335.0</ele><time>2026-04-25T07:16:23.985Z</time></trkpt><trkpt lat="39.3337726" lon="16.4652231"><ele>1335.0</ele><time>2026-04-25T07:16:24.975Z</time></trkpt><trkpt lat="39.3337595" lon="16.4649731"><ele>1334.0</ele><time>2026-04-25T07:16:25.981Z</time></trkpt><trkpt lat="39.333748" lon="16.4647005"><ele>1333.0</ele><time>2026-04-25T07:16:26.975Z</time></trkpt><trkpt lat="39.3337399" lon="16.4644087"><ele>1332.0</ele><time>2026-04-25T07:16:27.977Z</time></trkpt><trkpt lat="39.3337475" lon="16.4641032"><ele>1331.5</ele><time>2026-04-25T07:16:28.979Z</time></trkpt><trkpt lat="39.3337751" lon="16.4637867"><ele>1331.0</ele><time>2026-04-25T07:16:29.981Z</time></trkpt><trkpt lat="39.3338216" lon="16.463463"><ele>1331.0</ele><time>2026-04-25T07:16:30.974Z</time></trkpt><trkpt lat="39.3338834" lon="16.4631358"><ele>1331.0</ele><time>2026-04-25T07:16:31.968Z</time></trkpt><trkpt lat="39.3339658" lon="16.4628103"><ele>1322.0</ele><time>2026-04-25T07:16:32.982Z</time></trkpt><trkpt lat="39.3340692" lon="16.4624909"><ele>1313.0</ele><time>2026-04-25T07:16:33.982Z</time></trkpt><trkpt lat="39.3341738" lon="16.4621676"><ele>1313.5</ele><time>2026-04-25T07:16:34.976Z</time></trkpt><trkpt lat="39.3343112" lon="16.4618707"><ele>1314.0</ele><time>2026-04-25T07:16:35.977Z</time></trkpt><trkpt lat="39.3344779" lon="16.4615771"><ele>1314.0</ele><time>2026-04-25T07:16:36.986Z</time></trkpt><trkpt lat="39.3346597" lon="16.4613061"><ele>1314.0</ele><time>2026-04-25T07:16:37.974Z</time></trkpt><trkpt lat="39.3342783" lon="16.4665265"><ele>1315.0</ele><time>2026-04-25T07:16:09.984Z</time></trkpt><trkpt lat="39.3341602" lon="16.4664491"><ele>1316.0</ele><time>2026-04-25T07:16:11.982Z</time></trkpt><trkpt lat="39.3340922" lon="16.4664344"><ele>1317.0</ele><time>2026-04-25T07:16:12.978Z</time></trkpt><trkpt lat="39.3340305" lon="16.4664106"><ele>1318.0</ele><time>2026-04-25T07:16:13.981Z</time></trkpt><trkpt lat="39.3339236" lon="16.4663533"><ele>1319.0</ele><time>2026-04-25T07:16:15.969Z</time></trkpt><trkpt lat="39.333848" lon="16.4662648"><ele>1323.0</ele><time>2026-04-25T07:16:17.992Z</time></trkpt><trkpt lat="39.333831" lon="16.466094"><ele>1327.0</ele><time>2026-04-25T07:16:19.981Z</time></trkpt><trkpt lat="39.3338232" lon="16.4659697"><ele>1331.0</ele><time>2026-04-25T07:16:20.974Z</time></trkpt><trkpt lat="39.3338135" lon="16.4658221"><ele>1335.0</ele><time>2026-04-25T07:16:21.982Z</time></trkpt><trkpt lat="39.3338005" lon="16.4656497"><ele>1335.0</ele><time>2026-04-25T07:16:22.989Z</time></trkpt><trkpt lat="39.3337853" lon="16.4654485"><ele>1335.0</ele><time>2026-04-25T07:16:23.985Z</time></trkpt><trkpt lat="39.3337726" lon="16.4652231"><ele>1335.0</ele><time>2026-04-25T07:16:24.975Z</time></trkpt><trkpt lat="39.3337595" lon="16.4649731"><ele>1334.0</ele><time>2026-04-25T07:16:25.981Z</time></trkpt><trkpt lat="39.333748" lon="16.4647005"><ele>1333.0</ele><time>2026-04-25T07:16:26.975Z</time></trkpt><trkpt lat="39.3337399" lon="16.4644087"><ele>1332.0</ele><time>2026-04-25T07:16:27.977Z</time></trkpt><trkpt lat="39.3337475" lon="16.4641032"><ele>1331.5</ele><time>2026-04-25T07:16:28.979Z</time></trkpt><trkpt lat="39.3337751" lon="16.4637867"><ele>1331.0</ele><time>2026-04-25T07:16:29.981Z</time></trkpt><trkpt lat="39.3338216" lon="16.463463"><ele>1331.0</ele><time>2026-04-25T07:16:30.974Z</time></trkpt><trkpt lat="39.3338834" lon="16.4631358"><ele>1331.0</ele><time>2026-04-25T07:16:31.968Z</time></trkpt><trkpt lat="39.3339658" lon="16.4628103"><ele>1322.0</ele><time>2026-04-25T07:16:32.982Z</time></trkpt><trkpt lat="39.3340692" lon="16.4624909"><ele>1313.0</ele><time>2026-04-25T07:16:33.982Z</time></trkpt><trkpt lat="39.3341738" lon="16.4621676"><ele>1313.5</ele><time>2026-04-25T07:16:34.976Z</time></trkpt><trkpt lat="39.3343112" lon="16.4618707"><ele>1314.0</ele><time>2026-04-25T07:16:35.977Z</time></trkpt><trkpt lat="39.3344779" lon="16.4615771"><ele>1314.0</ele><time>2026-04-25T07:16:36.986Z</time></trkpt><trkpt lat="39.3346597" lon="16.4613061"><ele>1314.0</ele><time>2026-04-25T07:16:37.974Z</time></trkpt><trkpt lat="39.3348559" lon="16.461055"><ele>1311.5</ele><time>2026-04-25T07:16:38.969Z</time></trkpt><trkpt lat="39.3350687" lon="16.4608229"><ele>1309.0</ele><time>2026-04-25T07:16:39.994Z</time></trkpt><trkpt lat="39.3352934" lon="16.4606124"><ele>1309.0</ele><time>2026-04-25T07:16:40.974Z</time></trkpt><trkpt lat="39.3355317" lon="16.4604236"><ele>1309.0</ele><time>2026-04-25T07:16:41.979Z</time></trkpt><trkpt lat="39.3357754" lon="16.4602577"><ele>1305.0</ele><time>2026-04-25T07:16:42.969Z</time></trkpt><trkpt lat="39.3360235" lon="16.4601065"><ele>1301.0</ele><time>2026-04-25T07:16:43.986Z</time></trkpt><trkpt lat="39.3362751" lon="16.4599674"><ele>1302.0</ele><time>2026-04-25T07:16:44.974Z</time></trkpt><trkpt lat="39.3365208" lon="16.4598226"><ele>1303.0</ele><time>2026-04-25T07:16:45.985Z</time></trkpt><trkpt lat="39.3367648" lon="16.4596825"><ele>1298.5</ele><time>2026-04-25T07:16:46.982Z</time></trkpt><trkpt lat="39.3370033" lon="16.4595405"><ele>1294.0</ele><time>2026-04-25T07:16:47.98Z</time></trkpt><trkpt lat="39.3372349" lon="16.4593949"><ele>1290.5</ele><time>2026-04-25T07:16:48.977Z</time></trkpt><trkpt lat="39.3374519" lon="16.4592334"><ele>1287.0</ele><time>2026-04-25T07:16:49.991Z</time></trkpt><trkpt lat="39.3376541" lon="16.4590427"><ele>1287.0</ele><time>2026-04-25T07:16:50.978Z</time></trkpt><trkpt lat="39.3378427" lon="16.4588271"><ele>1287.0</ele><time>2026-04-25T07:16:51.981Z</time></trkpt><trkpt lat="39.338028" lon="16.4586051"><ele>1288.5</ele><time>2026-04-25T07:16:52.975Z</time></trkpt><trkpt lat="39.3381694" lon="16.4583405"><ele>1290.0</ele><time>2026-04-25T07:16:53.988Z</time></trkpt><trkpt lat="39.3382954" lon="16.4580606"><ele>1290.0</ele><time>2026-04-25T07:16:54.993Z</time></trkpt><trkpt lat="39.3383938" lon="16.4577472"><ele>1290.0</ele><time>2026-04-25T07:16:56.011Z</time></trkpt><trkpt lat="39.3384666" lon="16.4574316"><ele>1288.5</ele><time>2026-04-25T07:16:56.984Z</time></trkpt><trkpt lat="39.3385124" lon="16.4571035"><ele>1287.0</ele><time>2026-04-25T07:16:57.985Z</time></trkpt><trkpt lat="39.3385515" lon="16.4567633"><ele>1287.0</ele><time>2026-04-25T07:16:58.996Z</time></trkpt><trkpt lat="39.3385895" lon="16.4564183"><ele>1287.0</ele><time>2026-04-25T07:16:59.982Z</time></trkpt><trkpt lat="39.3386305" lon="16.4560692"><ele>1289.5</ele><time>2026-04-25T07:17:00.972Z</time></trkpt><trkpt lat="39.3386741" lon="16.4557205"><ele>1292.0</ele><time>2026-04-25T07:17:01.968Z</time></trkpt><trkpt lat="39.3387164" lon="16.45537"><ele>1292.5</ele><time>2026-04-25T07:17:02.982Z</time></trkpt><trkpt lat="39.3387572" lon="16.4550169"><ele>1293.0</ele><time>2026-04-25T07:17:03.987Z</time></trkpt><trkpt lat="39.3387969" lon="16.4546613"><ele>1289.5</ele><time>2026-04-25T07:17:04.969Z</time></trkpt><trkpt lat="39.3388393" lon="16.4543065"><ele>1286.0</ele><time>2026-04-25T07:17:05.975Z</time></trkpt><trkpt lat="39.3388821" lon="16.4539522"><ele>1281.0</ele><time>2026-04-25T07:17:06.99Z</time></trkpt><trkpt lat="39.3389213" lon="16.4536033"><ele>1276.0</ele><time>2026-04-25T07:17:07.982Z</time></trkpt><trkpt lat="39.3389621" lon="16.4532527"><ele>1278.5</ele><time>2026-04-25T07:17:08.972Z</time></trkpt><trkpt lat="39.3390023" lon="16.4528949"><ele>1281.0</ele><time>2026-04-25T07:17:09.974Z</time></trkpt><trkpt lat="39.3390443" lon="16.452543"><ele>1281.0</ele><time>2026-04-25T07:17:10.978Z</time></trkpt><trkpt lat="39.3390878" lon="16.4521985"><ele>1281.0</ele><time>2026-04-25T07:17:11.971Z</time></trkpt><trkpt lat="39.3391332" lon="16.451871"><ele>1287.0</ele><time>2026-04-25T07:17:12.98Z</time></trkpt><trkpt lat="39.339165" lon="16.451521"><ele>1293.0</ele><time>2026-04-25T07:17:13.99Z</time></trkpt><trkpt lat="39.3391928" lon="16.4511761"><ele>1293.0</ele><time>2026-04-25T07:17:14.965Z</time></trkpt><trkpt lat="39.3392054" lon="16.4508323"><ele>1293.0</ele><time>2026-04-25T07:17:15.973Z</time></trkpt><trkpt lat="39.3392001" lon="16.4504909"><ele>1289.5</ele><time>2026-04-25T07:17:16.991Z</time></trkpt><trkpt lat="39.3391728" lon="16.4501506"><ele>1286.0</ele><time>2026-04-25T07:17:17.974Z</time></trkpt><trkpt lat="39.3391388" lon="16.4498114"><ele>1282.0</ele><time>2026-04-25T07:17:18.978Z</time></trkpt><trkpt lat="39.339083" lon="16.4494757"><ele>1278.0</ele><time>2026-04-25T07:17:19.976Z</time></trkpt><trkpt lat="39.3390208" lon="16.4491395"><ele>1278.0</ele><time>2026-04-25T07:17:20.98Z</time></trkpt><trkpt lat="39.3389228" lon="16.4488094"><ele>1278.0</ele><time>2026-04-25T07:17:21.978Z</time></trkpt><trkpt lat="39.3388124" lon="16.448475"><ele>1283.5</ele><time>2026-04-25T07:17:22.98Z</time></trkpt><trkpt lat="39.3386954" lon="16.4481388"><ele>1289.0</ele><time>2026-04-25T07:17:23.985Z</time></trkpt><trkpt lat="39.3385798" lon="16.4477977"><ele>1289.0</ele><time>2026-04-25T07:17:24.972Z</time></trkpt><trkpt lat="39.3384722" lon="16.4474472"><ele>1289.0</ele><time>2026-04-25T07:17:25.979Z</time></trkpt><trkpt lat="39.3383725" lon="16.4470935"><ele>1282.0</ele><time>2026-04-25T07:17:26.981Z</time></trkpt><trkpt lat="39.3382762" lon="16.446737"><ele>1275.0</ele><time>2026-04-25T07:17:27.975Z</time></trkpt><trkpt lat="39.3381823" lon="16.446387"><ele>1275.0</ele><time>2026-04-25T07:17:28.972Z</time></trkpt><trkpt lat="39.3380921" lon="16.4460376"><ele>1275.0</ele><time>2026-04-25T07:17:29.983Z</time></trkpt><trkpt lat="39.3380035" lon="16.4456925"><ele>1284.5</ele><time>2026-04-25T07:17:30.968Z</time></trkpt><trkpt lat="39.3379181" lon="16.445353"><ele>1294.0</ele><time>2026-04-25T07:17:31.976Z</time></trkpt><trkpt lat="39.3378308" lon="16.4450233"><ele>1294.0</ele><time>2026-04-25T07:17:32.979Z</time></trkpt><trkpt lat="39.3377465" lon="16.4447066"><ele>1294.0</ele><time>2026-04-25T07:17:33.973Z</time></trkpt><trkpt lat="39.3376667" lon="16.4444002"><ele>1292.0</ele><time>2026-04-25T07:17:34.968Z</time></trkpt><trkpt lat="39.3375874" lon="16.4440955"><ele>1290.0</ele><time>2026-04-25T07:17:35.97Z</time></trkpt><trkpt lat="39.337503" lon="16.4437897"><ele>1288.5</ele><time>2026-04-25T07:17:36.985Z</time></trkpt><trkpt lat="39.3374188" lon="16.4434701"><ele>1287.0</ele><time>2026-04-25T07:17:37.984Z</time></trkpt><trkpt lat="39.337338" lon="16.4431362"><ele>1287.0</ele><time>2026-04-25T07:17:38.976Z</time></trkpt><trkpt lat="39.3372548" lon="16.4427878"><ele>1287.0</ele><time>2026-04-25T07:17:39.982Z</time></trkpt><trkpt lat="39.3371664" lon="16.4424372"><ele>1299.5</ele><time>2026-04-25T07:17:40.975Z</time></trkpt><trkpt lat="39.3370736" lon="16.4420917"><ele>1312.0</ele><time>2026-04-25T07:17:41.972Z</time></trkpt><trkpt lat="39.3369778" lon="16.4417535"><ele>1312.0</ele><time>2026-04-25T07:17:42.982Z</time></trkpt><trkpt lat="39.3368743" lon="16.44142"><ele>1312.0</ele><time>2026-04-25T07:17:43.981Z</time></trkpt><trkpt lat="39.3367617" lon="16.4410887"><ele>1307.0</ele><time>2026-04-25T07:17:44.976Z</time></trkpt><trkpt lat="39.3366377" lon="16.4407637"><ele>1302.0</ele><time>2026-04-25T07:17:45.977Z</time></trkpt><trkpt lat="39.3365033" lon="16.4404392"><ele>1310.5</ele><time>2026-04-25T07:17:46.982Z</time></trkpt><trkpt lat="39.3363643" lon="16.4401198"><ele>1319.0</ele><time>2026-04-25T07:17:47.967Z</time></trkpt><trkpt lat="39.3362249" lon="16.4397952"><ele>1315.5</ele><time>2026-04-25T07:17:48.971Z</time></trkpt><trkpt lat="39.3360823" lon="16.4394743"><ele>1312.0</ele><time>2026-04-25T07:17:49.972Z</time></trkpt><trkpt lat="39.3359548" lon="16.4391383"><ele>1312.0</ele><time>2026-04-25T07:17:50.971Z</time></trkpt><trkpt lat="39.3358319" lon="16.4388096"><ele>1312.0</ele><time>2026-04-25T07:17:51.978Z</time></trkpt><trkpt lat="39.3357158" lon="16.4384824"><ele>1313.0</ele><time>2026-04-25T07:17:52.971Z</time></trkpt><trkpt lat="39.3356284" lon="16.4381384"><ele>1314.0</ele><time>2026-04-25T07:17:53.969Z</time></trkpt><trkpt lat="39.3355403" lon="16.4377946"><ele>1326.5</ele><time>2026-04-25T07:17:54.969Z</time></trkpt><trkpt lat="39.3354771" lon="16.4374407"><ele>1339.0</ele><time>2026-04-25T07:17:55.973Z</time></trkpt><trkpt lat="39.3354253" lon="16.4370851"><ele>1342.0</ele><time>2026-04-25T07:17:56.973Z</time></trkpt><trkpt lat="39.3353814" lon="16.4367286"><ele>1345.0</ele><time>2026-04-25T07:17:57.977Z</time></trkpt><trkpt lat="39.3353352" lon="16.4363718"><ele>1343.0</ele><time>2026-04-25T07:17:58.97Z</time></trkpt><trkpt lat="39.3352962" lon="16.4360093"><ele>1341.0</ele><time>2026-04-25T07:17:59.972Z</time></trkpt><trkpt lat="39.335264" lon="16.4356481"><ele>1343.5</ele><time>2026-04-25T07:18:00.971Z</time></trkpt><trkpt lat="39.3352312" lon="16.4352848"><ele>1346.0</ele><time>2026-04-25T07:18:01.971Z</time></trkpt><trkpt lat="39.3351958" lon="16.4349218"><ele>1345.0</ele><time>2026-04-25T07:18:02.977Z</time></trkpt><trkpt lat="39.3351593" lon="16.4345582"><ele>1344.0</ele><time>2026-04-25T07:18:03.964Z</time></trkpt><trkpt lat="39.3351243" lon="16.4341943"><ele>1344.0</ele><time>2026-04-25T07:18:04.975Z</time></trkpt><trkpt lat="39.3350911" lon="16.4338305"><ele>1344.0</ele><time>2026-04-25T07:18:05.967Z</time></trkpt><trkpt lat="39.3350577" lon="16.4334651"><ele>1345.5</ele><time>2026-04-25T07:18:06.973Z</time></trkpt><trkpt lat="39.3350332" lon="16.4330996"><ele>1347.0</ele><time>2026-04-25T07:18:07.967Z</time></trkpt><trkpt lat="39.3350146" lon="16.4327322"><ele>1348.5</ele><time>2026-04-25T07:18:08.968Z</time></trkpt><trkpt lat="39.3350051" lon="16.4323536"><ele>1350.0</ele><time>2026-04-25T07:18:09.975Z</time></trkpt><trkpt lat="39.3349988" lon="16.4319632"><ele>1352.0</ele><time>2026-04-25T07:18:10.971Z</time></trkpt><trkpt lat="39.3349995" lon="16.431572"><ele>1354.0</ele><time>2026-04-25T07:18:11.989Z</time></trkpt><trkpt lat="39.3350023" lon="16.4311863"><ele>1360.5</ele><time>2026-04-25T07:18:12.985Z</time></trkpt><trkpt lat="39.3350122" lon="16.4308026"><ele>1367.0</ele><time>2026-04-25T07:18:13.969Z</time></trkpt><trkpt lat="39.3350044" lon="16.4304204"><ele>1353.0</ele><time>2026-04-25T07:18:14.972Z</time></trkpt><trkpt lat="39.3349794" lon="16.4245557"><ele>1353.0</ele><time>2026-04-25T07:18:30.928Z</time></trkpt><trkpt lat="39.3349933" lon="16.4242325"><ele>1353.0</ele><time>2026-04-25T07:18:31.973Z</time></trkpt><trkpt lat="39.3349908" lon="16.4238791"><ele>1352.0</ele><time>2026-04-25T07:18:32.973Z</time></trkpt><trkpt lat="39.3350014" lon="16.4235158"><ele>1351.0</ele><time>2026-04-25T07:18:33.972Z</time></trkpt><trkpt lat="39.3350112" lon="16.4231552"><ele>1349.0</ele><time>2026-04-25T07:18:34.978Z</time></trkpt><trkpt lat="39.3350284" lon="16.4228007"><ele>1347.0</ele><time>2026-04-25T07:18:35.98Z</time></trkpt><trkpt lat="39.33506" lon="16.4224405"><ele>1344.5</ele><time>2026-04-25T07:18:36.973Z</time></trkpt><trkpt lat="39.3351065" lon="16.4220897"><ele>1342.0</ele><time>2026-04-25T07:18:37.974Z</time></trkpt><trkpt lat="39.3351537" lon="16.4217443"><ele>1342.0</ele><time>2026-04-25T07:18:38.977Z</time></trkpt><trkpt lat="39.3352097" lon="16.4214021"><ele>1342.0</ele><time>2026-04-25T07:18:39.985Z</time></trkpt><trkpt lat="39.3352835" lon="16.4210451"><ele>1346.0</ele><time>2026-04-25T07:18:40.988Z</time></trkpt><trkpt lat="39.3353647" lon="16.4207085"><ele>1350.0</ele><time>2026-04-25T07:18:41.974Z</time></trkpt><trkpt lat="39.3354594" lon="16.4203871"><ele>1351.5</ele><time>2026-04-25T07:18:42.97Z</time></trkpt><trkpt lat="39.3355553" lon="16.4200579"><ele>1353.0</ele><time>2026-04-25T07:18:43.978Z</time></trkpt><trkpt lat="39.3356541" lon="16.4197275"><ele>1363.0</ele><time>2026-04-25T07:18:44.974Z</time></trkpt><trkpt lat="39.3357548" lon="16.419403"><ele>1373.0</ele><time>2026-04-25T07:18:45.974Z</time></trkpt><trkpt lat="39.3358558" lon="16.4190818"><ele>1388.0</ele><time>2026-04-25T07:18:46.968Z</time></trkpt><trkpt lat="39.3359553" lon="16.4187664"><ele>1403.0</ele><time>2026-04-25T07:18:47.977Z</time></trkpt><trkpt lat="39.3360437" lon="16.4184523"><ele>1404.0</ele><time>2026-04-25T07:18:48.968Z</time></trkpt><trkpt lat="39.3376677" lon="16.4130442"><ele>1396.5</ele><time>2026-04-25T07:19:04.902Z</time></trkpt><trkpt lat="39.3377839" lon="16.4127669"><ele>1389.0</ele><time>2026-04-25T07:19:05.965Z</time></trkpt><trkpt lat="39.3378803" lon="16.4124775"><ele>1389.0</ele><time>2026-04-25T07:19:06.988Z</time></trkpt><trkpt lat="39.3379749" lon="16.4121786"><ele>1389.0</ele><time>2026-04-25T07:19:07.978Z</time></trkpt><trkpt lat="39.3380692" lon="16.4118827"><ele>1380.5</ele><time>2026-04-25T07:19:08.975Z</time></trkpt><trkpt lat="39.3381751" lon="16.411608"><ele>1372.0</ele><time>2026-04-25T07:19:09.97Z</time></trkpt><trkpt lat="39.3383006" lon="16.4113461"><ele>1381.0</ele><time>2026-04-25T07:19:10.98Z</time></trkpt><trkpt lat="39.338458" lon="16.4110971"><ele>1390.0</ele><time>2026-04-25T07:19:11.977Z</time></trkpt><trkpt lat="39.338633" lon="16.4108792"><ele>1390.0</ele><time>2026-04-25T07:19:12.977Z</time></trkpt><trkpt lat="39.3388446" lon="16.4106972"><ele>1390.0</ele><time>2026-04-25T07:19:13.978Z</time></trkpt><trkpt lat="39.3390535" lon="16.4105369"><ele>1398.5</ele><time>2026-04-25T07:19:14.982Z</time></trkpt><trkpt lat="39.339276" lon="16.410368"><ele>1407.0</ele><time>2026-04-25T07:19:15.983Z</time></trkpt><trkpt lat="39.341845" lon="16.4083171"><ele>1407.0</ele><time>2026-04-25T07:19:25.966Z</time></trkpt><trkpt lat="39.342156" lon="16.4080809"><ele>1407.0</ele><time>2026-04-25T07:19:26.972Z</time></trkpt><trkpt lat="39.3424416" lon="16.4078222"><ele>1408.5</ele><time>2026-04-25T07:19:27.972Z</time></trkpt><trkpt lat="39.3426999" lon="16.4076444"><ele>1410.0</ele><time>2026-04-25T07:19:28.964Z</time></trkpt><trkpt lat="39.3429451" lon="16.4074588"><ele>1415.0</ele><time>2026-04-25T07:19:29.976Z</time></trkpt><trkpt lat="39.343211" lon="16.4072569"><ele>1420.0</ele><time>2026-04-25T07:19:30.975Z</time></trkpt><trkpt lat="39.3434695" lon="16.4070588"><ele>1423.0</ele><time>2026-04-25T07:19:31.974Z</time></trkpt><trkpt lat="39.3437304" lon="16.4068534"><ele>1426.0</ele><time>2026-04-25T07:19:32.971Z</time></trkpt><trkpt lat="39.3439868" lon="16.4066456"><ele>1426.0</ele><time>2026-04-25T07:19:33.972Z</time></trkpt><trkpt lat="39.3442431" lon="16.4064449"><ele>1426.0</ele><time>2026-04-25T07:19:34.981Z</time></trkpt><trkpt lat="39.3444967" lon="16.4062452"><ele>1427.5</ele><time>2026-04-25T07:19:35.979Z</time></trkpt><trkpt lat="39.3447446" lon="16.4060345"><ele>1429.0</ele><time>2026-04-25T07:19:36.978Z</time></trkpt><trkpt lat="39.3449985" lon="16.4058241"><ele>1429.0</ele><time>2026-04-25T07:19:37.976Z</time></trkpt><trkpt lat="39.3452562" lon="16.4056163"><ele>1429.0</ele><time>2026-04-25T07:19:38.975Z</time></trkpt><trkpt lat="39.3455212" lon="16.4054072"><ele>1438.0</ele><time>2026-04-25T07:19:39.973Z</time></trkpt><trkpt lat="39.3457833" lon="16.405195"><ele>1447.0</ele><time>2026-04-25T07:19:40.956Z</time></trkpt><trkpt lat="39.3513655" lon="16.4007187"><ele>1447.3333333333333</ele><time>2026-04-25T07:20:04.902Z</time></trkpt><trkpt lat="39.3515567" lon="16.4005397"><ele>1447.6666666666667</ele><time>2026-04-25T07:20:05.973Z</time></trkpt><trkpt lat="39.3517328" lon="16.4004103"><ele>1448.0</ele><time>2026-04-25T07:20:06.966Z</time></trkpt><trkpt lat="39.3518988" lon="16.4002651"><ele>1448.0</ele><time>2026-04-25T07:20:07.973Z</time></trkpt><trkpt lat="39.352084" lon="16.4001258"><ele>1448.0</ele><time>2026-04-25T07:20:08.967Z</time></trkpt><trkpt lat="39.3522446" lon="16.3999909"><ele>1448.0</ele><time>2026-04-25T07:20:09.971Z</time></trkpt><trkpt lat="39.3524156" lon="16.3998402"><ele>1446.6666666666667</ele><time>2026-04-25T07:20:10.972Z</time></trkpt><trkpt lat="39.3525825" lon="16.3996989"><ele>1445.3333333333333</ele><time>2026-04-25T07:20:11.972Z</time></trkpt><trkpt lat="39.3527486" lon="16.3995583"><ele>1444.0</ele><time>2026-04-25T07:20:12.977Z</time></trkpt><trkpt lat="39.3529092" lon="16.3994101"><ele>1437.3333333333333</ele><time>2026-04-25T07:20:13.978Z</time></trkpt><trkpt lat="39.3530628" lon="16.3992495"><ele>1430.6666666666667</ele><time>2026-04-25T07:20:14.977Z</time></trkpt><trkpt lat="39.3532061" lon="16.3990749"><ele>1424.0</ele><time>2026-04-25T07:20:15.977Z</time></trkpt><trkpt lat="39.3533337" lon="16.3988809"><ele>1430.0</ele><time>2026-04-25T07:20:16.976Z</time></trkpt><trkpt lat="39.3534434" lon="16.3986756"><ele>1436.0</ele><time>2026-04-25T07:20:17.972Z</time></trkpt><trkpt lat="39.353537" lon="16.3984566"><ele>1442.0</ele><time>2026-04-25T07:20:18.98Z</time></trkpt><trkpt lat="39.3536055" lon="16.3982275"><ele>1445.3333333333335</ele><time>2026-04-25T07:20:19.967Z</time></trkpt><trkpt lat="39.3536514" lon="16.3979817"><ele>1448.6666666666667</ele><time>2026-04-25T07:20:20.974Z</time></trkpt><trkpt lat="39.3536792" lon="16.3977322"><ele>1452.0</ele><time>2026-04-25T07:20:21.979Z</time></trkpt><trkpt lat="39.3536833" lon="16.3974848"><ele>1452.0</ele><time>2026-04-25T07:20:22.97Z</time></trkpt><trkpt lat="39.3536623" lon="16.3972336"><ele>1452.0</ele><time>2026-04-25T07:20:23.978Z</time></trkpt><trkpt lat="39.3536266" lon="16.3969848"><ele>1452.0</ele><time>2026-04-25T07:20:24.98Z</time></trkpt><trkpt lat="39.3535688" lon="16.3967438"><ele>1448.3333333333333</ele><time>2026-04-25T07:20:25.975Z</time></trkpt><trkpt lat="39.3534955" lon="16.3965161"><ele>1444.6666666666665</ele><time>2026-04-25T07:20:26.979Z</time></trkpt><trkpt lat="39.3534045" lon="16.3963072"><ele>1441.0</ele><time>2026-04-25T07:20:27.981Z</time></trkpt><trkpt lat="39.3533002" lon="16.3961002"><ele>1440.0</ele><time>2026-04-25T07:20:28.972Z</time></trkpt><trkpt lat="39.3531892" lon="16.3958986"><ele>1439.0</ele><time>2026-04-25T07:20:29.987Z</time></trkpt><trkpt lat="39.353074" lon="16.3956903"><ele>1438.0</ele><time>2026-04-25T07:20:30.976Z</time></trkpt><trkpt lat="39.3529602" lon="16.3954883"><ele>1438.0</ele><time>2026-04-25T07:20:31.985Z</time></trkpt><trkpt lat="39.3528493" lon="16.395282"><ele>1438.0</ele><time>2026-04-25T07:20:32.979Z</time></trkpt><trkpt lat="39.3527373" lon="16.3950809"><ele>1438.0</ele><time>2026-04-25T07:20:33.976Z</time></trkpt><trkpt lat="39.3526258" lon="16.3948793"><ele>1438.0</ele><time>2026-04-25T07:20:34.984Z</time></trkpt><trkpt lat="39.3525132" lon="16.3946761"><ele>1438.0</ele><time>2026-04-25T07:20:35.979Z</time></trkpt><trkpt lat="39.3524" lon="16.3944757"><ele>1438.0</ele><time>2026-04-25T07:20:36.979Z</time></trkpt><trkpt lat="39.3522874" lon="16.394271"><ele>1436.0</ele><time>2026-04-25T07:20:37.967Z</time></trkpt><trkpt lat="39.3521775" lon="16.3940706"><ele>1434.0</ele><time>2026-04-25T07:20:38.976Z</time></trkpt><trkpt lat="39.3520679" lon="16.393871"><ele>1432.0</ele><time>2026-04-25T07:20:39.983Z</time></trkpt><trkpt lat="39.3519507" lon="16.3936758"><ele>1432.0</ele><time>2026-04-25T07:20:40.972Z</time></trkpt><trkpt lat="39.3518192" lon="16.3934987"><ele>1432.0</ele><time>2026-04-25T07:20:41.984Z</time></trkpt><trkpt lat="39.3516729" lon="16.3933327"><ele>1432.0</ele><time>2026-04-25T07:20:42.98Z</time></trkpt><trkpt lat="39.3515189" lon="16.3931825"><ele>1433.3333333333333</ele><time>2026-04-25T07:20:43.967Z</time></trkpt><trkpt lat="39.3513559" lon="16.3930477"><ele>1434.6666666666667</ele><time>2026-04-25T07:20:44.981Z</time></trkpt><trkpt lat="39.3511873" lon="16.39292"><ele>1436.0</ele><time>2026-04-25T07:20:45.98Z</time></trkpt><trkpt lat="39.3510202" lon="16.3927773"><ele>1436.0</ele><time>2026-04-25T07:20:46.966Z</time></trkpt><trkpt lat="39.350857" lon="16.3926573"><ele>1436.0</ele><time>2026-04-25T07:20:47.978Z</time></trkpt><trkpt lat="39.3496504" lon="16.3919426"><ele>1422.5</ele><time>2026-04-25T07:20:53.977Z</time></trkpt><trkpt lat="39.3493867" lon="16.3918308"><ele>1409.0</ele><time>2026-04-25T07:20:54.979Z</time></trkpt><trkpt lat="39.3491164" lon="16.3917199"><ele>1398.0</ele><time>2026-04-25T07:20:55.98Z</time></trkpt><trkpt lat="39.3488504" lon="16.3916033"><ele>1387.0</ele><time>2026-04-25T07:20:56.995Z</time></trkpt><trkpt lat="39.3485953" lon="16.3914856"><ele>1387.0</ele><time>2026-04-25T07:20:57.982Z</time></trkpt><trkpt lat="39.348344" lon="16.3913744"><ele>1387.0</ele><time>2026-04-25T07:20:58.98Z</time></trkpt><trkpt lat="39.3481095" lon="16.3912365"><ele>1391.5</ele><time>2026-04-25T07:20:59.987Z</time></trkpt><trkpt lat="39.3478991" lon="16.3910611"><ele>1396.0</ele><time>2026-04-25T07:21:00.99Z</time></trkpt><trkpt lat="39.3477199" lon="16.3908534"><ele>1396.0</ele><time>2026-04-25T07:21:01.97Z</time></trkpt><trkpt lat="39.3475568" lon="16.390613"><ele>1396.0</ele><time>2026-04-25T07:21:02.987Z</time></trkpt><trkpt lat="39.3474256" lon="16.3903335"><ele>1395.0</ele><time>2026-04-25T07:21:03.976Z</time></trkpt><trkpt lat="39.3473211" lon="16.3900416"><ele>1394.0</ele><time>2026-04-25T07:21:04.986Z</time></trkpt><trkpt lat="39.3472482" lon="16.3897283"><ele>1407.0</ele><time>2026-04-25T07:21:05.969Z</time></trkpt><trkpt lat="39.3472062" lon="16.3894026"><ele>1420.0</ele><time>2026-04-25T07:21:06.975Z</time></trkpt><trkpt lat="39.3471852" lon="16.3890669"><ele>1423.5</ele><time>2026-04-25T07:21:07.974Z</time></trkpt><trkpt lat="39.3471651" lon="16.3887305"><ele>1427.0</ele><time>2026-04-25T07:21:08.989Z</time></trkpt><trkpt lat="39.3471467" lon="16.3883877"><ele>1427.0</ele><time>2026-04-25T07:21:09.987Z</time></trkpt><trkpt lat="39.3471275" lon="16.3880415"><ele>1427.0</ele><time>2026-04-25T07:21:10.978Z</time></trkpt><trkpt lat="39.3471079" lon="16.3876892"><ele>1425.0</ele><time>2026-04-25T07:21:11.975Z</time></trkpt><trkpt lat="39.3470884" lon="16.3873331"><ele>1423.0</ele><time>2026-04-25T07:21:12.978Z</time></trkpt><trkpt lat="39.3470659" lon="16.386972"><ele>1418.0</ele><time>2026-04-25T07:21:13.985Z</time></trkpt><trkpt lat="39.3470444" lon="16.3866107"><ele>1413.0</ele><time>2026-04-25T07:21:14.972Z</time></trkpt><trkpt lat="39.347024" lon="16.3862539"><ele>1407.5</ele><time>2026-04-25T07:21:15.973Z</time></trkpt><trkpt lat="39.3470044" lon="16.3859025"><ele>1402.0</ele><time>2026-04-25T07:21:16.984Z</time></trkpt><trkpt lat="39.3469832" lon="16.3855583"><ele>1397.0</ele><time>2026-04-25T07:21:17.978Z</time></trkpt><trkpt lat="39.3469621" lon="16.3852211"><ele>1392.0</ele><time>2026-04-25T07:21:18.975Z</time></trkpt><trkpt lat="39.3469391" lon="16.3848905"><ele>1383.0</ele><time>2026-04-25T07:21:19.971Z</time></trkpt><trkpt lat="39.3469069" lon="16.3845719"><ele>1374.0</ele><time>2026-04-25T07:21:20.973Z</time></trkpt><trkpt lat="39.3468526" lon="16.3842686"><ele>1374.0</ele><time>2026-04-25T07:21:21.979Z</time></trkpt><trkpt lat="39.3467734" lon="16.3839825"><ele>1374.0</ele><time>2026-04-25T07:21:22.971Z</time></trkpt><trkpt lat="39.3466638" lon="16.3837164"><ele>1378.0</ele><time>2026-04-25T07:21:23.972Z</time></trkpt><trkpt lat="39.3465254" lon="16.3834731"><ele>1382.0</ele><time>2026-04-25T07:21:24.982Z</time></trkpt><trkpt lat="39.3463605" lon="16.3832567"><ele>1382.0</ele><time>2026-04-25T07:21:25.989Z</time></trkpt><trkpt lat="39.3461727" lon="16.3830724"><ele>1382.0</ele><time>2026-04-25T07:21:26.976Z</time></trkpt><trkpt lat="39.3459658" lon="16.3829292"><ele>1372.0</ele><time>2026-04-25T07:21:27.968Z</time></trkpt><trkpt lat="39.34575" lon="16.3828004"><ele>1362.0</ele><time>2026-04-25T07:21:28.989Z</time></trkpt><trkpt lat="39.3455135" lon="16.3827295"><ele>1334.0</ele><time>2026-04-25T07:21:29.985Z</time></trkpt><trkpt lat="39.3444926" lon="16.3827299"><ele>1334.0</ele><time>2026-04-25T07:21:33.962Z</time></trkpt><trkpt lat="39.3442683" lon="16.3828605"><ele>1334.0</ele><time>2026-04-25T07:21:34.972Z</time></trkpt><trkpt lat="39.344036" lon="16.3831931"><ele>1328.0</ele><time>2026-04-25T07:21:35.98Z</time></trkpt><trkpt lat="39.3438692" lon="16.3834279"><ele>1322.0</ele><time>2026-04-25T07:21:36.982Z</time></trkpt><trkpt lat="39.3437306" lon="16.3836792"><ele>1334.5</ele><time>2026-04-25T07:21:37.982Z</time></trkpt><trkpt lat="39.3435545" lon="16.3839195"><ele>1347.0</ele><time>2026-04-25T07:21:38.974Z</time></trkpt><trkpt lat="39.3433599" lon="16.384134"><ele>1347.0</ele><time>2026-04-25T07:21:39.978Z</time></trkpt><trkpt lat="39.343163" lon="16.384351"><ele>1347.0</ele><time>2026-04-25T07:21:40.978Z</time></trkpt><trkpt lat="39.3429648" lon="16.3845719"><ele>1344.0</ele><time>2026-04-25T07:21:41.972Z</time></trkpt><trkpt lat="39.3427649" lon="16.3847948"><ele>1341.0</ele><time>2026-04-25T07:21:42.974Z</time></trkpt><trkpt lat="39.3425661" lon="16.3850159"><ele>1341.0</ele><time>2026-04-25T07:21:43.973Z</time></trkpt><trkpt lat="39.3423662" lon="16.3852394"><ele>1341.0</ele><time>2026-04-25T07:21:44.971Z</time></trkpt><trkpt lat="39.3421628" lon="16.385456"><ele>1339.5</ele><time>2026-04-25T07:21:45.975Z</time></trkpt><trkpt lat="39.3419567" lon="16.3856616"><ele>1338.0</ele><time>2026-04-25T07:21:46.978Z</time></trkpt><trkpt lat="39.3417411" lon="16.3858489"><ele>1338.0</ele><time>2026-04-25T07:21:47.987Z</time></trkpt><trkpt lat="39.341516" lon="16.3860022"><ele>1338.0</ele><time>2026-04-25T07:21:48.973Z</time></trkpt><trkpt lat="39.3412822" lon="16.3861168"><ele>1329.0</ele><time>2026-04-25T07:21:49.977Z</time></trkpt><trkpt lat="39.3410423" lon="16.3861877"><ele>1320.0</ele><time>2026-04-25T07:21:50.976Z</time></trkpt><trkpt lat="39.3408015" lon="16.3862159"><ele>1320.0</ele><time>2026-04-25T07:21:51.976Z</time></trkpt><trkpt lat="39.3405611" lon="16.3861986"><ele>1320.0</ele><time>2026-04-25T07:21:52.968Z</time></trkpt><trkpt lat="39.3403277" lon="16.3861416"><ele>1315.5</ele><time>2026-04-25T07:21:53.969Z</time></trkpt><trkpt lat="39.3400921" lon="16.3860594"><ele>1311.0</ele><time>2026-04-25T07:21:54.974Z</time></trkpt><trkpt lat="39.3398857" lon="16.3859185"><ele>1329.0</ele><time>2026-04-25T07:21:55.97Z</time></trkpt><trkpt lat="39.3396953" lon="16.3857455"><ele>1347.0</ele><time>2026-04-25T07:21:56.972Z</time></trkpt><trkpt lat="39.3395102" lon="16.385541"><ele>1342.0</ele><time>2026-04-25T07:21:57.973Z</time></trkpt><trkpt lat="39.3393295" lon="16.385313"><ele>1337.0</ele><time>2026-04-25T07:21:58.969Z</time></trkpt><trkpt lat="39.3391474" lon="16.3850731"><ele>1282.0</ele><time>2026-04-25T07:21:59.974Z</time></trkpt><trkpt lat="39.3379992" lon="16.3836166"><ele>1282.0</ele><time>2026-04-25T07:22:05.985Z</time></trkpt><trkpt lat="39.3378302" lon="16.3833058"><ele>1282.0</ele><time>2026-04-25T07:22:06.973Z</time></trkpt><trkpt lat="39.3376544" lon="16.3830398"><ele>1276.0</ele><time>2026-04-25T07:22:07.988Z</time></trkpt><trkpt lat="39.3374994" lon="16.38276"><ele>1270.0</ele><time>2026-04-25T07:22:08.984Z</time></trkpt><trkpt lat="39.3373588" lon="16.3825041"><ele>1270.0</ele><time>2026-04-25T07:22:09.973Z</time></trkpt><trkpt lat="39.3372403" lon="16.3822322"><ele>1270.0</ele><time>2026-04-25T07:22:10.977Z</time></trkpt><trkpt lat="39.3371465" lon="16.3819324"><ele>1278.0</ele><time>2026-04-25T07:22:11.977Z</time></trkpt><trkpt lat="39.3370683" lon="16.3816364"><ele>1286.0</ele><time>2026-04-25T07:22:12.975Z</time></trkpt><trkpt lat="39.3370547" lon="16.3813267"><ele>1286.0</ele><time>2026-04-25T07:22:13.973Z</time></trkpt><trkpt lat="39.3370699" lon="16.3810109"><ele>1286.0</ele><time>2026-04-25T07:22:14.973Z</time></trkpt><trkpt lat="39.3371167" lon="16.3806938"><ele>1281.5</ele><time>2026-04-25T07:22:15.979Z</time></trkpt><trkpt lat="39.3371893" lon="16.380386"><ele>1277.0</ele><time>2026-04-25T07:22:16.982Z</time></trkpt><trkpt lat="39.3372965" lon="16.3800991"><ele>1277.0</ele><time>2026-04-25T07:22:17.979Z</time></trkpt><trkpt lat="39.337433" lon="16.3798309"><ele>1277.0</ele><time>2026-04-25T07:22:18.98Z</time></trkpt><trkpt lat="39.3375939" lon="16.379578"><ele>1288.0</ele><time>2026-04-25T07:22:19.981Z</time></trkpt><trkpt lat="39.3377749" lon="16.379333"><ele>1299.0</ele><time>2026-04-25T07:22:20.987Z</time></trkpt><trkpt lat="39.3379619" lon="16.3790876"><ele>1306.5</ele><time>2026-04-25T07:22:21.984Z</time></trkpt><trkpt lat="39.3381538" lon="16.378837"><ele>1314.0</ele><time>2026-04-25T07:22:22.972Z</time></trkpt><trkpt lat="39.3383495" lon="16.3785789"><ele>1314.0</ele><time>2026-04-25T07:22:23.978Z</time></trkpt><trkpt lat="39.3385499" lon="16.3783158"><ele>1314.0</ele><time>2026-04-25T07:22:24.979Z</time></trkpt><trkpt lat="39.3387518" lon="16.3780509"><ele>1308.5</ele><time>2026-04-25T07:22:25.98Z</time></trkpt><trkpt lat="39.3389559" lon="16.3777824"><ele>1303.0</ele><time>2026-04-25T07:22:26.972Z</time></trkpt><trkpt lat="39.3391626" lon="16.3775134"><ele>1303.0</ele><time>2026-04-25T07:22:27.983Z</time></trkpt><trkpt lat="39.3393656" lon="16.3772425"><ele>1303.0</ele><time>2026-04-25T07:22:28.97Z</time></trkpt><trkpt lat="39.3395583" lon="16.376963"><ele>1297.0</ele><time>2026-04-25T07:22:29.972Z</time></trkpt><trkpt lat="39.339732" lon="16.3766682"><ele>1291.0</ele><time>2026-04-25T07:22:30.972Z</time></trkpt><trkpt lat="39.3398821" lon="16.3763571"><ele>1295.5</ele><time>2026-04-25T07:22:31.977Z</time></trkpt><trkpt lat="39.3400086" lon="16.3760308"><ele>1300.0</ele><time>2026-04-25T07:22:32.969Z</time></trkpt><trkpt lat="39.3401153" lon="16.3756928"><ele>1305.5</ele><time>2026-04-25T07:22:33.972Z</time></trkpt><trkpt lat="39.3402076" lon="16.3753498"><ele>1311.0</ele><time>2026-04-25T07:22:34.98Z</time></trkpt><trkpt lat="39.3402921" lon="16.3750045"><ele>1317.0</ele><time>2026-04-25T07:22:35.982Z</time></trkpt><trkpt lat="39.340377" lon="16.3746595"><ele>1323.0</ele><time>2026-04-25T07:22:36.97Z</time></trkpt><trkpt lat="39.3404654" lon="16.3743173"><ele>1301.5</ele><time>2026-04-25T07:22:37.98Z</time></trkpt><trkpt lat="39.3405604" lon="16.3739781"><ele>1280.0</ele><time>2026-04-25T07:22:38.98Z</time></trkpt><trkpt lat="39.3406663" lon="16.3736429"><ele>1280.0</ele><time>2026-04-25T07:22:39.984Z</time></trkpt><trkpt lat="39.3407892" lon="16.3733185"><ele>1280.0</ele><time>2026-04-25T07:22:40.98Z</time></trkpt><trkpt lat="39.3409293" lon="16.3730076"><ele>1281.5</ele><time>2026-04-25T07:22:41.974Z</time></trkpt><trkpt lat="39.3410885" lon="16.3727112"><ele>1283.0</ele><time>2026-04-25T07:22:42.975Z</time></trkpt><trkpt lat="39.3412664" lon="16.372433"><ele>1282.0</ele><time>2026-04-25T07:22:43.973Z</time></trkpt><trkpt lat="39.341447" lon="16.3721747"><ele>1281.0</ele><time>2026-04-25T07:22:44.976Z</time></trkpt><trkpt lat="39.3416619" lon="16.3719361"><ele>1281.0</ele><time>2026-04-25T07:22:45.98Z</time></trkpt><trkpt lat="39.3418759" lon="16.3716982"><ele>1281.0</ele><time>2026-04-25T07:22:46.97Z</time></trkpt><trkpt lat="39.3420859" lon="16.3714604"><ele>1279.5</ele><time>2026-04-25T07:22:47.974Z</time></trkpt><trkpt lat="39.3422989" lon="16.3712231"><ele>1278.0</ele><time>2026-04-25T07:22:48.983Z</time></trkpt><trkpt lat="39.342507" lon="16.370984"><ele>1278.0</ele><time>2026-04-25T07:22:49.979Z</time></trkpt><trkpt lat="39.3426978" lon="16.3707305"><ele>1278.0</ele><time>2026-04-25T07:22:50.982Z</time></trkpt><trkpt lat="39.3428651" lon="16.3704573"><ele>1285.5</ele><time>2026-04-25T07:22:51.99Z</time></trkpt><trkpt lat="39.3430004" lon="16.3701623"><ele>1293.0</ele><time>2026-04-25T07:22:52.968Z</time></trkpt><trkpt lat="39.3431034" lon="16.3698515"><ele>1276.0</ele><time>2026-04-25T07:22:53.975Z</time></trkpt><trkpt lat="39.3431685" lon="16.3695233"><ele>1259.0</ele><time>2026-04-25T07:22:54.971Z</time></trkpt><trkpt lat="39.3432298" lon="16.3691967"><ele>1257.5</ele><time>2026-04-25T07:22:55.974Z</time></trkpt><trkpt lat="39.3432189" lon="16.3688519"><ele>1256.0</ele><time>2026-04-25T07:22:56.983Z</time></trkpt><trkpt lat="39.3431906" lon="16.3685048"><ele>1256.0</ele><time>2026-04-25T07:22:57.981Z</time></trkpt><trkpt lat="39.3431577" lon="16.3681524"><ele>1256.0</ele><time>2026-04-25T07:22:58.985Z</time></trkpt><trkpt lat="39.3431193" lon="16.3677905"><ele>1260.0</ele><time>2026-04-25T07:22:59.982Z</time></trkpt><trkpt lat="39.3430841" lon="16.3674334"><ele>1264.0</ele><time>2026-04-25T07:23:00.977Z</time></trkpt><trkpt lat="39.3430451" lon="16.367085"><ele>1264.0</ele><time>2026-04-25T07:23:01.988Z</time></trkpt><trkpt lat="39.3429858" lon="16.3667443"><ele>1264.0</ele><time>2026-04-25T07:23:02.978Z</time></trkpt><trkpt lat="39.3428928" lon="16.3664179"><ele>1263.5</ele><time>2026-04-25T07:23:03.983Z</time></trkpt><trkpt lat="39.3427657" lon="16.3661129"><ele>1263.0</ele><time>2026-04-25T07:23:04.971Z</time></trkpt><trkpt lat="39.3426085" lon="16.3658257"><ele>1263.0</ele><time>2026-04-25T07:23:05.977Z</time></trkpt><trkpt lat="39.3424274" lon="16.3655543"><ele>1263.0</ele><time>2026-04-25T07:23:06.971Z</time></trkpt><trkpt lat="39.3422489" lon="16.3652849"><ele>1228.0</ele><time>2026-04-25T07:23:07.981Z</time></trkpt><trkpt lat="39.3389952" lon="16.3612248"><ele>1228.5</ele><time>2026-04-25T07:23:23.943Z</time></trkpt><trkpt lat="39.3387799" lon="16.3610375"><ele>1229.0</ele><time>2026-04-25T07:23:24.968Z</time></trkpt><trkpt lat="39.338545" lon="16.3608506"><ele>1229.0</ele><time>2026-04-25T07:23:25.972Z</time></trkpt><trkpt lat="39.3383098" lon="16.3606797"><ele>1229.0</ele><time>2026-04-25T07:23:26.98Z</time></trkpt><trkpt lat="39.3380892" lon="16.360524"><ele>1218.0</ele><time>2026-04-25T07:23:27.98Z</time></trkpt><trkpt lat="39.3378449" lon="16.3603637"><ele>1207.0</ele><time>2026-04-25T07:23:28.976Z</time></trkpt><trkpt lat="39.3376054" lon="16.3602002"><ele>1207.0</ele><time>2026-04-25T07:23:29.977Z</time></trkpt><trkpt lat="39.3373717" lon="16.3600391"><ele>1207.0</ele><time>2026-04-25T07:23:30.972Z</time></trkpt><trkpt lat="39.3371424" lon="16.3598817"><ele>1210.0</ele><time>2026-04-25T07:23:31.978Z</time></trkpt><trkpt lat="39.3369046" lon="16.3597301"><ele>1213.0</ele><time>2026-04-25T07:23:32.977Z</time></trkpt><trkpt lat="39.3366571" lon="16.3595981"><ele>1213.0</ele><time>2026-04-25T07:23:33.972Z</time></trkpt><trkpt lat="39.3364059" lon="16.3594883"><ele>1213.0</ele><time>2026-04-25T07:23:34.964Z</time></trkpt><trkpt lat="39.3361525" lon="16.3594037"><ele>1215.5</ele><time>2026-04-25T07:23:35.975Z</time></trkpt><trkpt lat="39.3358988" lon="16.3593472"><ele>1218.0</ele><time>2026-04-25T07:23:36.971Z</time></trkpt><trkpt lat="39.3356449" lon="16.3593114"><ele>1212.0</ele><time>2026-04-25T07:23:37.966Z</time></trkpt><trkpt lat="39.3353975" lon="16.3592975"><ele>1206.0</ele><time>2026-04-25T07:23:38.98Z</time></trkpt><trkpt lat="39.335157" lon="16.359299"><ele>1206.0</ele><time>2026-04-25T07:23:39.968Z</time></trkpt><trkpt lat="39.3349232" lon="16.3593116"><ele>1206.0</ele><time>2026-04-25T07:23:40.971Z</time></trkpt><trkpt lat="39.3346989" lon="16.3593319"><ele>1202.6666666666667</ele><time>2026-04-25T07:23:41.97Z</time></trkpt><trkpt lat="39.3344834" lon="16.3593646"><ele>1199.3333333333335</ele><time>2026-04-25T07:23:42.976Z</time></trkpt><trkpt lat="39.3342798" lon="16.359418"><ele>1196.0</ele><time>2026-04-25T07:23:43.975Z</time></trkpt><trkpt lat="39.3340827" lon="16.3594921"><ele>1196.0</ele><time>2026-04-25T07:23:44.967Z</time></trkpt><trkpt lat="39.3339037" lon="16.3595935"><ele>1196.0</ele><time>2026-04-25T07:23:45.971Z</time></trkpt><trkpt lat="39.3337333" lon="16.3597184"><ele>1196.0</ele><time>2026-04-25T07:23:46.973Z</time></trkpt><trkpt lat="39.3335744" lon="16.3598649"><ele>1196.6666666666667</ele><time>2026-04-25T07:23:47.971Z</time></trkpt><trkpt lat="39.3334307" lon="16.3600251"><ele>1197.3333333333333</ele><time>2026-04-25T07:23:48.969Z</time></trkpt><trkpt lat="39.333299" lon="16.3601906"><ele>1198.0</ele><time>2026-04-25T07:23:49.982Z</time></trkpt><trkpt lat="39.3331751" lon="16.3603534"><ele>1198.0</ele><time>2026-04-25T07:23:50.989Z</time></trkpt><trkpt lat="39.3330654" lon="16.3605024"><ele>1198.0</ele><time>2026-04-25T07:23:51.975Z</time></trkpt><trkpt lat="39.332971" lon="16.3606361"><ele>1198.0</ele><time>2026-04-25T07:23:52.972Z</time></trkpt><trkpt lat="39.3328885" lon="16.3607515"><ele>1198.0</ele><time>2026-04-25T07:23:53.969Z</time></trkpt><trkpt lat="39.332823" lon="16.3608427"><ele>1194.8</ele><time>2026-04-25T07:23:54.984Z</time></trkpt><trkpt lat="39.3327719" lon="16.3609165"><ele>1191.6</ele><time>2026-04-25T07:23:55.97Z</time></trkpt><trkpt lat="39.3327289" lon="16.3609803"><ele>1188.4</ele><time>2026-04-25T07:23:56.982Z</time></trkpt><trkpt lat="39.3326321" lon="16.3611285"><ele>1185.2</ele><time>2026-04-25T07:26:16.986Z</time></trkpt><trkpt lat="39.332541" lon="16.3612446"><ele>1182.0</ele><time>2026-04-25T07:26:18.987Z</time></trkpt><trkpt lat="39.3324727" lon="16.3613182"><ele>1178.0</ele><time>2026-04-25T07:26:19.968Z</time></trkpt><trkpt lat="39.3323899" lon="16.3613989"><ele>1174.0</ele><time>2026-04-25T07:26:20.984Z</time></trkpt><trkpt lat="39.3322879" lon="16.3614869"><ele>1170.0</ele><time>2026-04-25T07:26:21.974Z</time></trkpt><trkpt lat="39.332167" lon="16.3615753"><ele>1166.0</ele><time>2026-04-25T07:26:22.973Z</time></trkpt><trkpt lat="39.332024" lon="16.3616602"><ele>1166.0</ele><time>2026-04-25T07:26:23.979Z</time></trkpt><trkpt lat="39.3318604" lon="16.3617334"><ele>1166.0</ele><time>2026-04-25T07:26:24.979Z</time></trkpt><trkpt lat="39.3316806" lon="16.361789"><ele>1166.0</ele><time>2026-04-25T07:26:25.973Z</time></trkpt><trkpt lat="39.3314895" lon="16.3618229"><ele>1168.6666666666667</ele><time>2026-04-25T07:26:26.978Z</time></trkpt><trkpt lat="39.3312873" lon="16.3618293"><ele>1171.3333333333333</ele><time>2026-04-25T07:26:27.978Z</time></trkpt><trkpt lat="39.3310768" lon="16.3618093"><ele>1174.0</ele><time>2026-04-25T07:26:28.977Z</time></trkpt><trkpt lat="39.3308597" lon="16.3617699"><ele>1174.0</ele><time>2026-04-25T07:26:29.975Z</time></trkpt><trkpt lat="39.3306362" lon="16.3617225"><ele>1174.0</ele><time>2026-04-25T07:26:30.975Z</time></trkpt><trkpt lat="39.3304078" lon="16.3616726"><ele>1178.5</ele><time>2026-04-25T07:26:31.977Z</time></trkpt><trkpt lat="39.330176" lon="16.3616217"><ele>1183.0</ele><time>2026-04-25T07:26:32.98Z</time></trkpt><trkpt lat="39.3299403" lon="16.3615734"><ele>1178.0</ele><time>2026-04-25T07:26:33.98Z</time></trkpt><trkpt lat="39.3297006" lon="16.3615378"><ele>1173.0</ele><time>2026-04-25T07:26:34.979Z</time></trkpt><trkpt lat="39.3294566" lon="16.3615227"><ele>1173.0</ele><time>2026-04-25T07:26:35.971Z</time></trkpt><trkpt lat="39.32921" lon="16.3615261"><ele>1173.0</ele><time>2026-04-25T07:26:36.972Z</time></trkpt><trkpt lat="39.3289612" lon="16.361542"><ele>1169.5</ele><time>2026-04-25T07:26:37.978Z</time></trkpt><trkpt lat="39.3287103" lon="16.3615608"><ele>1166.0</ele><time>2026-04-25T07:26:38.975Z</time></trkpt><trkpt lat="39.3284575" lon="16.3615798"><ele>1166.0</ele><time>2026-04-25T07:26:39.975Z</time></trkpt><trkpt lat="39.3282036" lon="16.3616028"><ele>1166.0</ele><time>2026-04-25T07:26:40.98Z</time></trkpt><trkpt lat="39.3279499" lon="16.3616413"><ele>1161.0</ele><time>2026-04-25T07:26:41.976Z</time></trkpt><trkpt lat="39.3276979" lon="16.3617041"><ele>1156.0</ele><time>2026-04-25T07:26:42.978Z</time></trkpt><trkpt lat="39.3274476" lon="16.3617893"><ele>1146.0</ele><time>2026-04-25T07:26:43.981Z</time></trkpt><trkpt lat="39.3271959" lon="16.3618883"><ele>1136.0</ele><time>2026-04-25T07:26:44.984Z</time></trkpt><trkpt lat="39.3269404" lon="16.3619921"><ele>1136.0</ele><time>2026-04-25T07:26:45.982Z</time></trkpt><trkpt lat="39.326681" lon="16.3620981"><ele>1136.0</ele><time>2026-04-25T07:26:46.981Z</time></trkpt><trkpt lat="39.3264192" lon="16.362206"><ele>1121.0</ele><time>2026-04-25T07:26:47.978Z</time></trkpt><trkpt lat="39.3261563" lon="16.362314"><ele>1106.0</ele><time>2026-04-25T07:26:48.977Z</time></trkpt><trkpt lat="39.3258923" lon="16.3624209"><ele>1106.0</ele><time>2026-04-25T07:26:49.984Z</time></trkpt><trkpt lat="39.3256276" lon="16.3625279"><ele>1106.0</ele><time>2026-04-25T07:26:50.982Z</time></trkpt><trkpt lat="39.325362" lon="16.3626365"><ele>1098.0</ele><time>2026-04-25T07:26:51.983Z</time></trkpt><trkpt lat="39.3250963" lon="16.3627441"><ele>1090.0</ele><time>2026-04-25T07:26:52.98Z</time></trkpt><trkpt lat="39.3248306" lon="16.3628518"><ele>1098.0</ele><time>2026-04-25T07:26:53.982Z</time></trkpt><trkpt lat="39.3245645" lon="16.36296"><ele>1106.0</ele><time>2026-04-25T07:26:54.982Z</time></trkpt><trkpt lat="39.3243001" lon="16.3630653"><ele>1117.5</ele><time>2026-04-25T07:26:55.986Z</time></trkpt><trkpt lat="39.3240453" lon="16.3631709"><ele>1129.0</ele><time>2026-04-25T07:26:56.987Z</time></trkpt><trkpt lat="39.3238019" lon="16.3632868"><ele>1129.0</ele><time>2026-04-25T07:26:57.982Z</time></trkpt><trkpt lat="39.3235773" lon="16.36343"><ele>1129.0</ele><time>2026-04-25T07:26:58.983Z</time></trkpt><trkpt lat="39.3233704" lon="16.3636046"><ele>1129.0</ele><time>2026-04-25T07:26:59.985Z</time></trkpt><trkpt lat="39.3231824" lon="16.3638087"><ele>1129.0</ele><time>2026-04-25T07:27:00.983Z</time></trkpt><trkpt lat="39.3230161" lon="16.3640416"><ele>1122.5</ele><time>2026-04-25T07:27:01.985Z</time></trkpt><trkpt lat="39.3228771" lon="16.3643033"><ele>1116.0</ele><time>2026-04-25T07:27:02.983Z</time></trkpt><trkpt lat="39.322766" lon="16.364589"><ele>1124.0</ele><time>2026-04-25T07:27:03.994Z</time></trkpt><trkpt lat="39.3225906" lon="16.3652"><ele>1124.0</ele><time>2026-04-25T07:27:05.982Z</time></trkpt><trkpt lat="39.3225097" lon="16.3655153"><ele>1124.0</ele><time>2026-04-25T07:27:06.993Z</time></trkpt><trkpt lat="39.3224285" lon="16.3658347"><ele>1126.5</ele><time>2026-04-25T07:27:07.99Z</time></trkpt><trkpt lat="39.3223469" lon="16.3661552"><ele>1129.0</ele><time>2026-04-25T07:27:08.978Z</time></trkpt><trkpt lat="39.3222652" lon="16.3664776"><ele>1112.0</ele><time>2026-04-25T07:27:09.991Z</time></trkpt><trkpt lat="39.3221855" lon="16.3667981"><ele>1095.0</ele><time>2026-04-25T07:27:10.973Z</time></trkpt><trkpt lat="39.3221087" lon="16.3671142"><ele>1097.0</ele><time>2026-04-25T07:27:11.969Z</time></trkpt><trkpt lat="39.3220325" lon="16.3674246"><ele>1099.0</ele><time>2026-04-25T07:27:12.968Z</time></trkpt><trkpt lat="39.3219551" lon="16.3677298"><ele>1099.0</ele><time>2026-04-25T07:27:13.973Z</time></trkpt><trkpt lat="39.3218808" lon="16.3680175"><ele>1099.0</ele><time>2026-04-25T07:27:14.978Z</time></trkpt><trkpt lat="39.3217866" lon="16.368303"><ele>1101.0</ele><time>2026-04-25T07:27:15.972Z</time></trkpt><trkpt lat="39.3216746" lon="16.3685698"><ele>1103.0</ele><time>2026-04-25T07:27:16.971Z</time></trkpt><trkpt lat="39.3215378" lon="16.3688186"><ele>1093.5</ele><time>2026-04-25T07:27:17.969Z</time></trkpt><trkpt lat="39.321383" lon="16.3690444"><ele>1084.0</ele><time>2026-04-25T07:27:18.984Z</time></trkpt><trkpt lat="39.3212112" lon="16.3692423"><ele>1084.0</ele><time>2026-04-25T07:27:19.973Z</time></trkpt><trkpt lat="39.3210179" lon="16.3694059"><ele>1084.0</ele><time>2026-04-25T07:27:20.982Z</time></trkpt><trkpt lat="39.3208114" lon="16.3695332"><ele>1084.0</ele><time>2026-04-25T07:27:21.976Z</time></trkpt><trkpt lat="39.3205936" lon="16.3696212"><ele>1084.0</ele><time>2026-04-25T07:27:22.974Z</time></trkpt><trkpt lat="39.3203675" lon="16.3696782"><ele>1073.5</ele><time>2026-04-25T07:27:23.985Z</time></trkpt><trkpt lat="39.3201365" lon="16.3696931"><ele>1063.0</ele><time>2026-04-25T07:27:24.981Z</time></trkpt><trkpt lat="39.3199037" lon="16.3696697"><ele>1069.0</ele><time>2026-04-25T07:27:25.972Z</time></trkpt><trkpt lat="39.3196771" lon="16.3696065"><ele>1075.0</ele><time>2026-04-25T07:27:26.972Z</time></trkpt><trkpt lat="39.3194571" lon="16.3695105"><ele>1075.0</ele><time>2026-04-25T07:27:27.978Z</time></trkpt><trkpt lat="39.3192473" lon="16.369377"><ele>1075.0</ele><time>2026-04-25T07:27:28.989Z</time></trkpt><trkpt lat="39.3190541" lon="16.3692086"><ele>1090.0</ele><time>2026-04-25T07:27:29.986Z</time></trkpt><trkpt lat="39.3188796" lon="16.3690065"><ele>1105.0</ele><time>2026-04-25T07:27:30.974Z</time></trkpt><trkpt lat="39.3187262" lon="16.3687742"><ele>1105.0</ele><time>2026-04-25T07:27:31.97Z</time></trkpt><trkpt lat="39.3185761" lon="16.3685284"><ele>1105.0</ele><time>2026-04-25T07:27:32.973Z</time></trkpt><trkpt lat="39.3184702" lon="16.3682412"><ele>1094.0</ele><time>2026-04-25T07:27:33.978Z</time></trkpt><trkpt lat="39.3183913" lon="16.3679409"><ele>1083.0</ele><time>2026-04-25T07:27:34.975Z</time></trkpt><trkpt lat="39.318326" lon="16.3676303"><ele>1083.0</ele><time>2026-04-25T07:27:35.97Z</time></trkpt><trkpt lat="39.3182708" lon="16.3673111"><ele>1083.0</ele><time>2026-04-25T07:27:36.978Z</time></trkpt><trkpt lat="39.3182111" lon="16.3669849"><ele>1075.0</ele><time>2026-04-25T07:27:37.971Z</time></trkpt><trkpt lat="39.3181508" lon="16.3666613"><ele>1067.0</ele><time>2026-04-25T07:27:38.974Z</time></trkpt><trkpt lat="39.3180898" lon="16.3663353"><ele>1089.0</ele><time>2026-04-25T07:27:39.979Z</time></trkpt><trkpt lat="39.3180279" lon="16.3660045"><ele>1111.0</ele><time>2026-04-25T07:27:40.988Z</time></trkpt><trkpt lat="39.3179632" lon="16.3656755"><ele>1106.0</ele><time>2026-04-25T07:27:41.975Z</time></trkpt><trkpt lat="39.3178936" lon="16.3653461"><ele>1101.0</ele><time>2026-04-25T07:27:42.981Z</time></trkpt><trkpt lat="39.3178209" lon="16.3650196"><ele>1101.0</ele><time>2026-04-25T07:27:43.98Z</time></trkpt><trkpt lat="39.3177445" lon="16.3646968"><ele>1101.0</ele><time>2026-04-25T07:27:44.986Z</time></trkpt><trkpt lat="39.3176581" lon="16.3643796"><ele>1093.5</ele><time>2026-04-25T07:27:45.977Z</time></trkpt><trkpt lat="39.3175625" lon="16.3640646"><ele>1086.0</ele><time>2026-04-25T07:27:46.983Z</time></trkpt><trkpt lat="39.3174653" lon="16.3637526"><ele>1074.0</ele><time>2026-04-25T07:27:47.982Z</time></trkpt><trkpt lat="39.3173671" lon="16.3634403"><ele>1062.0</ele><time>2026-04-25T07:27:48.979Z</time></trkpt><trkpt lat="39.3172753" lon="16.3631274"><ele>1069.5</ele><time>2026-04-25T07:27:49.97Z</time></trkpt><trkpt lat="39.3171936" lon="16.3628101"><ele>1077.0</ele><time>2026-04-25T07:27:50.986Z</time></trkpt><trkpt lat="39.3171319" lon="16.3624885"><ele>1078.0</ele><time>2026-04-25T07:27:51.984Z</time></trkpt><trkpt lat="39.3171015" lon="16.3621627"><ele>1079.0</ele><time>2026-04-25T07:27:52.982Z</time></trkpt><trkpt lat="39.3171036" lon="16.3618374"><ele>1079.0</ele><time>2026-04-25T07:27:53.973Z</time></trkpt><trkpt lat="39.3171374" lon="16.3615191"><ele>1079.0</ele><time>2026-04-25T07:27:54.977Z</time></trkpt><trkpt lat="39.3172014" lon="16.3612087"><ele>1063.5</ele><time>2026-04-25T07:27:55.978Z</time></trkpt><trkpt lat="39.317284" lon="16.3609067"><ele>1048.0</ele><time>2026-04-25T07:27:56.974Z</time></trkpt><trkpt lat="39.317374" lon="16.3606077"><ele>1052.0</ele><time>2026-04-25T07:27:57.987Z</time></trkpt><trkpt lat="39.3174647" lon="16.3603076"><ele>1056.0</ele><time>2026-04-25T07:27:58.971Z</time></trkpt><trkpt lat="39.3175544" lon="16.3600072"><ele>1056.0</ele><time>2026-04-25T07:27:59.972Z</time></trkpt><trkpt lat="39.3176348" lon="16.3597054"><ele>1056.0</ele><time>2026-04-25T07:28:00.983Z</time></trkpt><trkpt lat="39.3176968" lon="16.3593974"><ele>1057.5</ele><time>2026-04-25T07:28:01.978Z</time></trkpt><trkpt lat="39.3177303" lon="16.3590842"><ele>1059.0</ele><time>2026-04-25T07:28:02.978Z</time></trkpt><trkpt lat="39.3177328" lon="16.3587686"><ele>1056.0</ele><time>2026-04-25T07:28:03.977Z</time></trkpt><trkpt lat="39.3177058" lon="16.3584562"><ele>1053.0</ele><time>2026-04-25T07:28:04.972Z</time></trkpt><trkpt lat="39.317647" lon="16.3581507"><ele>1046.5</ele><time>2026-04-25T07:28:05.976Z</time></trkpt><trkpt lat="39.3175732" lon="16.3578643"><ele>1040.0</ele><time>2026-04-25T07:28:06.983Z</time></trkpt><trkpt lat="39.3174408" lon="16.3575942"><ele>1040.0</ele><time>2026-04-25T07:28:07.975Z</time></trkpt><trkpt lat="39.3172823" lon="16.3573515"><ele>1040.0</ele><time>2026-04-25T07:28:08.976Z</time></trkpt><trkpt lat="39.3171023" lon="16.3571412"><ele>1035.5</ele><time>2026-04-25T07:28:09.977Z</time></trkpt><trkpt lat="39.3169035" lon="16.356957"><ele>1031.0</ele><time>2026-04-25T07:28:10.97Z</time></trkpt><trkpt lat="39.316689" lon="16.356807"><ele>1031.0</ele><time>2026-04-25T07:28:11.975Z</time></trkpt><trkpt lat="39.3164596" lon="16.3566905"><ele>1031.0</ele><time>2026-04-25T07:28:12.968Z</time></trkpt><trkpt lat="39.3162198" lon="16.3565972"><ele>1032.5</ele><time>2026-04-25T07:28:13.977Z</time></trkpt><trkpt lat="39.315972" lon="16.3565173"><ele>1034.0</ele><time>2026-04-25T07:28:14.97Z</time></trkpt><trkpt lat="39.3157177" lon="16.3564397"><ele>1015.0</ele><time>2026-04-25T07:28:15.976Z</time></trkpt><trkpt lat="39.3154613" lon="16.3563612"><ele>996.0</ele><time>2026-04-25T07:28:16.977Z</time></trkpt><trkpt lat="39.3151993" lon="16.3562774"><ele>996.0</ele><time>2026-04-25T07:28:17.972Z</time></trkpt><trkpt lat="39.314938" lon="16.3561896"><ele>996.0</ele><time>2026-04-25T07:28:18.976Z</time></trkpt><trkpt lat="39.3146739" lon="16.3561017"><ele>991.0</ele><time>2026-04-25T07:28:19.986Z</time></trkpt><trkpt lat="39.3144106" lon="16.3560113"><ele>986.0</ele><time>2026-04-25T07:28:20.981Z</time></trkpt><trkpt lat="39.3141489" lon="16.3559155"><ele>1001.0</ele><time>2026-04-25T07:28:21.979Z</time></trkpt><trkpt lat="39.3138897" lon="16.3558112"><ele>1016.0</ele><time>2026-04-25T07:28:22.971Z</time></trkpt><trkpt lat="39.3136344" lon="16.3556962"><ele>1016.0</ele><time>2026-04-25T07:28:23.978Z</time></trkpt><trkpt lat="39.3133808" lon="16.3555724"><ele>1016.0</ele><time>2026-04-25T07:28:24.981Z</time></trkpt><trkpt lat="39.3131272" lon="16.3554481"><ele>1017.5</ele><time>2026-04-25T07:28:25.97Z</time></trkpt><trkpt lat="39.3128732" lon="16.355324"><ele>1019.0</ele><time>2026-04-25T07:28:26.969Z</time></trkpt><trkpt lat="39.3126157" lon="16.3551991"><ele>1019.0</ele><time>2026-04-25T07:28:27.972Z</time></trkpt><trkpt lat="39.3123553" lon="16.3550701"><ele>1019.0</ele><time>2026-04-25T07:28:28.968Z</time></trkpt><trkpt lat="39.3113468" lon="16.3545304"><ele>1006.0</ele><time>2026-04-25T07:28:32.97Z</time></trkpt><trkpt lat="39.3110987" lon="16.3544098"><ele>993.0</ele><time>2026-04-25T07:28:33.979Z</time></trkpt><trkpt lat="39.3108504" lon="16.354287"><ele>993.0</ele><time>2026-04-25T07:28:34.974Z</time></trkpt><trkpt lat="39.3106067" lon="16.3541565"><ele>993.0</ele><time>2026-04-25T07:28:35.975Z</time></trkpt><trkpt lat="39.3103593" lon="16.354039"><ele>996.5</ele><time>2026-04-25T07:28:36.971Z</time></trkpt><trkpt lat="39.3101052" lon="16.3539305"><ele>1000.0</ele><time>2026-04-25T07:28:37.979Z</time></trkpt><trkpt lat="39.3098429" lon="16.3538415"><ele>996.0</ele><time>2026-04-25T07:28:38.973Z</time></trkpt><trkpt lat="39.3095789" lon="16.3537827"><ele>992.0</ele><time>2026-04-25T07:28:39.975Z</time></trkpt><trkpt lat="39.3093131" lon="16.3537457"><ele>992.0</ele><time>2026-04-25T07:28:40.977Z</time></trkpt><trkpt lat="39.3090479" lon="16.3537421"><ele>992.0</ele><time>2026-04-25T07:28:41.981Z</time></trkpt><trkpt lat="39.3087813" lon="16.3537406"><ele>972.0</ele><time>2026-04-25T07:28:42.971Z</time></trkpt><trkpt lat="39.3045384" lon="16.3541938"><ele>972.0</ele><time>2026-04-25T07:28:58.977Z</time></trkpt><trkpt lat="39.3042602" lon="16.3542171"><ele>972.0</ele><time>2026-04-25T07:28:59.983Z</time></trkpt><trkpt lat="39.3039854" lon="16.3542141"><ele>972.0</ele><time>2026-04-25T07:29:00.973Z</time></trkpt><trkpt lat="39.3037307" lon="16.3542476"><ele>972.0</ele><time>2026-04-25T07:29:01.971Z</time></trkpt><trkpt lat="39.3034822" lon="16.3543267"><ele>972.0</ele><time>2026-04-25T07:29:02.981Z</time></trkpt><trkpt lat="39.3032459" lon="16.3544459"><ele>972.0</ele><time>2026-04-25T07:29:03.976Z</time></trkpt><trkpt lat="39.3030149" lon="16.3546016"><ele>965.5</ele><time>2026-04-25T07:29:04.972Z</time></trkpt><trkpt lat="39.3028076" lon="16.3547706"><ele>959.0</ele><time>2026-04-25T07:29:05.971Z</time></trkpt><trkpt lat="39.3026066" lon="16.3549685"><ele>959.0</ele><time>2026-04-25T07:29:06.973Z</time></trkpt><trkpt lat="39.302398" lon="16.35515"><ele>959.0</ele><time>2026-04-25T07:29:07.967Z</time></trkpt><trkpt lat="39.3021788" lon="16.355314"><ele>954.5</ele><time>2026-04-25T07:29:08.967Z</time></trkpt><trkpt lat="39.301949" lon="16.3554593"><ele>950.0</ele><time>2026-04-25T07:29:09.977Z</time></trkpt><trkpt lat="39.3017147" lon="16.3555851"><ele>950.0</ele><time>2026-04-25T07:29:10.975Z</time></trkpt><trkpt lat="39.3014717" lon="16.3556931"><ele>950.0</ele><time>2026-04-25T07:29:11.973Z</time></trkpt><trkpt lat="39.3012205" lon="16.3557757"><ele>950.0</ele><time>2026-04-25T07:29:12.97Z</time></trkpt><trkpt lat="39.3009672" lon="16.3558331"><ele>950.0</ele><time>2026-04-25T07:29:13.976Z</time></trkpt><trkpt lat="39.3007158" lon="16.3558731"><ele>949.0</ele><time>2026-04-25T07:29:14.967Z</time></trkpt><trkpt lat="39.3004551" lon="16.35589"><ele>948.0</ele><time>2026-04-25T07:29:15.967Z</time></trkpt><trkpt lat="39.3001892" lon="16.3559005"><ele>948.0</ele><time>2026-04-25T07:29:16.971Z</time></trkpt><trkpt lat="39.2999233" lon="16.3559104"><ele>948.0</ele><time>2026-04-25T07:29:17.975Z</time></trkpt><trkpt lat="39.2996654" lon="16.3559087"><ele>940.5</ele><time>2026-04-25T07:29:18.974Z</time></trkpt><trkpt lat="39.2994044" lon="16.3558948"><ele>933.0</ele><time>2026-04-25T07:29:19.963Z</time></trkpt><trkpt lat="39.2991547" lon="16.3558405"><ele>919.5</ele><time>2026-04-25T07:29:20.969Z</time></trkpt><trkpt lat="39.2989087" lon="16.3557473"><ele>906.0</ele><time>2026-04-25T07:29:21.971Z</time></trkpt><trkpt lat="39.2986703" lon="16.3556132"><ele>922.5</ele><time>2026-04-25T07:29:22.977Z</time></trkpt><trkpt lat="39.2984259" lon="16.3554652"><ele>939.0</ele><time>2026-04-25T07:29:23.971Z</time></trkpt><trkpt lat="39.2981881" lon="16.355323"><ele>929.5</ele><time>2026-04-25T07:29:24.969Z</time></trkpt><trkpt lat="39.2979515" lon="16.3551843"><ele>920.0</ele><time>2026-04-25T07:29:25.978Z</time></trkpt><trkpt lat="39.2977117" lon="16.3550413"><ele>920.0</ele><time>2026-04-25T07:29:26.978Z</time></trkpt><trkpt lat="39.2974667" lon="16.3549186"><ele>920.0</ele><time>2026-04-25T07:29:27.974Z</time></trkpt><trkpt lat="39.2972145" lon="16.3548274"><ele>914.5</ele><time>2026-04-25T07:29:28.968Z</time></trkpt><trkpt lat="39.2969538" lon="16.354771"><ele>909.0</ele><time>2026-04-25T07:29:29.984Z</time></trkpt><trkpt lat="39.2966948" lon="16.3547533"><ele>909.0</ele><time>2026-04-25T07:29:30.967Z</time></trkpt><trkpt lat="39.2964326" lon="16.3547636"><ele>909.0</ele><time>2026-04-25T07:29:31.986Z</time></trkpt><trkpt lat="39.2961758" lon="16.3547815"><ele>907.0</ele><time>2026-04-25T07:29:32.968Z</time></trkpt><trkpt lat="39.2959211" lon="16.3547911"><ele>905.0</ele><time>2026-04-25T07:29:33.977Z</time></trkpt><trkpt lat="39.2956723" lon="16.3547676"><ele>908.0</ele><time>2026-04-25T07:29:34.973Z</time></trkpt><trkpt lat="39.2954375" lon="16.3547137"><ele>911.0</ele><time>2026-04-25T07:29:35.97Z</time></trkpt><trkpt lat="39.295221" lon="16.3546313"><ele>911.0</ele><time>2026-04-25T07:29:36.984Z</time></trkpt><trkpt lat="39.2950171" lon="16.3545175"><ele>911.0</ele><time>2026-04-25T07:29:37.975Z</time></trkpt><trkpt lat="39.2948363" lon="16.3543757"><ele>911.0</ele><time>2026-04-25T07:29:38.971Z</time></trkpt><trkpt lat="39.2946832" lon="16.3542031"><ele>901.6666666666667</ele><time>2026-04-25T07:29:39.97Z</time></trkpt><trkpt lat="39.2945495" lon="16.3539913"><ele>892.3333333333333</ele><time>2026-04-25T07:29:40.971Z</time></trkpt><trkpt lat="39.2944347" lon="16.3537391"><ele>883.0</ele><time>2026-04-25T07:29:41.978Z</time></trkpt><trkpt lat="39.2943263" lon="16.353463"><ele>883.0</ele><time>2026-04-25T07:29:42.972Z</time></trkpt><trkpt lat="39.2942304" lon="16.353166"><ele>883.0</ele><time>2026-04-25T07:29:43.979Z</time></trkpt><trkpt lat="39.2941433" lon="16.3528416"><ele>889.0</ele><time>2026-04-25T07:29:44.972Z</time></trkpt><trkpt lat="39.2940486" lon="16.3525137"><ele>895.0</ele><time>2026-04-25T07:29:45.974Z</time></trkpt><trkpt lat="39.2939416" lon="16.3521891"><ele>891.0</ele><time>2026-04-25T07:29:46.972Z</time></trkpt><trkpt lat="39.293804" lon="16.3518871"><ele>887.0</ele><time>2026-04-25T07:29:47.973Z</time></trkpt><trkpt lat="39.2936341" lon="16.3516114"><ele>897.0</ele><time>2026-04-25T07:29:48.972Z</time></trkpt><trkpt lat="39.2934309" lon="16.3513627"><ele>907.0</ele><time>2026-04-25T07:29:49.966Z</time></trkpt><trkpt lat="39.2932033" lon="16.3511489"><ele>893.5</ele><time>2026-04-25T07:29:51.01Z</time></trkpt><trkpt lat="39.2929596" lon="16.3509596"><ele>880.0</ele><time>2026-04-25T07:29:51.976Z</time></trkpt><trkpt lat="39.2927103" lon="16.3507859"><ele>880.0</ele><time>2026-04-25T07:29:52.976Z</time></trkpt><trkpt lat="39.2924596" lon="16.3506169"><ele>880.0</ele><time>2026-04-25T07:29:53.985Z</time></trkpt><trkpt lat="39.2922115" lon="16.3504375"><ele>870.0</ele><time>2026-04-25T07:29:54.971Z</time></trkpt><trkpt lat="39.2919681" lon="16.3502504"><ele>860.0</ele><time>2026-04-25T07:29:55.975Z</time></trkpt><trkpt lat="39.2917242" lon="16.3500611"><ele>860.0</ele><time>2026-04-25T07:29:56.977Z</time></trkpt><trkpt lat="39.2914809" lon="16.3498741"><ele>860.0</ele><time>2026-04-25T07:29:57.975Z</time></trkpt><trkpt lat="39.2912342" lon="16.3496993"><ele>856.5</ele><time>2026-04-25T07:29:58.975Z</time></trkpt><trkpt lat="39.2909899" lon="16.349525"><ele>853.0</ele><time>2026-04-25T07:29:59.974Z</time></trkpt><trkpt lat="39.2907561" lon="16.3493579"><ele>849.0</ele><time>2026-04-25T07:30:00.972Z</time></trkpt><trkpt lat="39.2905338" lon="16.3491898"><ele>845.0</ele><time>2026-04-25T07:30:01.969Z</time></trkpt><trkpt lat="39.2903197" lon="16.3490278"><ele>853.5</ele><time>2026-04-25T07:30:02.98Z</time></trkpt><trkpt lat="39.2901239" lon="16.348858"><ele>862.0</ele><time>2026-04-25T07:30:03.977Z</time></trkpt><trkpt lat="39.2899474" lon="16.3486749"><ele>862.0</ele><time>2026-04-25T07:30:04.976Z</time></trkpt><trkpt lat="39.289797" lon="16.3484733"><ele>862.0</ele><time>2026-04-25T07:30:05.98Z</time></trkpt><trkpt lat="39.289674" lon="16.3482497"><ele>862.0</ele><time>2026-04-25T07:30:06.973Z</time></trkpt><trkpt lat="39.2895609" lon="16.3480277"><ele>860.3333333333333</ele><time>2026-04-25T07:30:07.972Z</time></trkpt><trkpt lat="39.2895004" lon="16.3477684"><ele>858.6666666666667</ele><time>2026-04-25T07:30:08.977Z</time></trkpt><trkpt lat="39.2894687" lon="16.3475105"><ele>857.0</ele><time>2026-04-25T07:30:09.967Z</time></trkpt><trkpt lat="39.2894677" lon="16.3472471"><ele>852.3333333333334</ele><time>2026-04-25T07:30:10.972Z</time></trkpt><trkpt lat="39.2894905" lon="16.3469851"><ele>847.6666666666667</ele><time>2026-04-25T07:30:11.972Z</time></trkpt><trkpt lat="39.2895459" lon="16.3467287"><ele>843.0</ele><time>2026-04-25T07:30:12.973Z</time></trkpt><trkpt lat="39.2896339" lon="16.3464893"><ele>840.3333333333333</ele><time>2026-04-25T07:30:13.976Z</time></trkpt><trkpt lat="39.2897477" lon="16.3462638"><ele>837.6666666666666</ele><time>2026-04-25T07:30:14.972Z</time></trkpt><trkpt lat="39.2898898" lon="16.3460607"><ele>835.0</ele><time>2026-04-25T07:30:15.973Z</time></trkpt><trkpt lat="39.2900582" lon="16.3458871"><ele>835.0</ele><time>2026-04-25T07:30:16.98Z</time></trkpt><trkpt lat="39.2902516" lon="16.3457385"><ele>835.0</ele><time>2026-04-25T07:30:17.977Z</time></trkpt><trkpt lat="39.2904623" lon="16.3456227"><ele>820.5</ele><time>2026-04-25T07:30:18.98Z</time></trkpt><trkpt lat="39.2906955" lon="16.3455426"><ele>806.0</ele><time>2026-04-25T07:30:19.967Z</time></trkpt><trkpt lat="39.2909458" lon="16.3454846"><ele>806.0</ele><time>2026-04-25T07:30:20.974Z</time></trkpt><trkpt lat="39.2912078" lon="16.3454385"><ele>806.0</ele><time>2026-04-25T07:30:21.975Z</time></trkpt><trkpt lat="39.2914782" lon="16.3453947"><ele>818.0</ele><time>2026-04-25T07:30:22.97Z</time></trkpt><trkpt lat="39.2917564" lon="16.3453496"><ele>830.0</ele><time>2026-04-25T07:30:23.978Z</time></trkpt><trkpt lat="39.2920413" lon="16.3453047"><ele>836.0</ele><time>2026-04-25T07:30:24.974Z</time></trkpt><trkpt lat="39.2923277" lon="16.3452598"><ele>842.0</ele><time>2026-04-25T07:30:25.972Z</time></trkpt><trkpt lat="39.2929223" lon="16.3451717"><ele>836.0</ele><time>2026-04-25T07:30:27.977Z</time></trkpt><trkpt lat="39.2932288" lon="16.345114"><ele>830.0</ele><time>2026-04-25T07:30:28.973Z</time></trkpt><trkpt lat="39.2935283" lon="16.3450575"><ele>830.0</ele><time>2026-04-25T07:30:29.979Z</time></trkpt><trkpt lat="39.2938174" lon="16.3450202"><ele>830.0</ele><time>2026-04-25T07:30:30.975Z</time></trkpt><trkpt lat="39.2941034" lon="16.3449654"><ele>830.5</ele><time>2026-04-25T07:30:31.975Z</time></trkpt><trkpt lat="39.2943924" lon="16.3449148"><ele>831.0</ele><time>2026-04-25T07:30:32.972Z</time></trkpt><trkpt lat="39.2946727" lon="16.3448684"><ele>834.5</ele><time>2026-04-25T07:30:33.987Z</time></trkpt><trkpt lat="39.2949528" lon="16.3448281"><ele>838.0</ele><time>2026-04-25T07:30:34.98Z</time></trkpt><trkpt lat="39.29522" lon="16.3447842"><ele>838.0</ele><time>2026-04-25T07:30:35.979Z</time></trkpt><trkpt lat="39.2954839" lon="16.3447405"><ele>838.0</ele><time>2026-04-25T07:30:36.976Z</time></trkpt><trkpt lat="39.2957433" lon="16.3447128"><ele>823.0</ele><time>2026-04-25T07:30:37.976Z</time></trkpt><trkpt lat="39.2959841" lon="16.3446766"><ele>808.0</ele><time>2026-04-25T07:30:38.976Z</time></trkpt><trkpt lat="39.2962093" lon="16.3446331"><ele>810.0</ele><time>2026-04-25T07:30:39.976Z</time></trkpt><trkpt lat="39.2964203" lon="16.344568"><ele>812.0</ele><time>2026-04-25T07:30:40.969Z</time></trkpt><trkpt lat="39.2966088" lon="16.3444656"><ele>814.0</ele><time>2026-04-25T07:30:41.968Z</time></trkpt><trkpt lat="39.2967713" lon="16.3443268"><ele>814.0</ele><time>2026-04-25T07:30:42.978Z</time></trkpt><trkpt lat="39.2969111" lon="16.3441558"><ele>814.0</ele><time>2026-04-25T07:30:43.975Z</time></trkpt><trkpt lat="39.2970291" lon="16.3439555"><ele>814.0</ele><time>2026-04-25T07:30:44.969Z</time></trkpt><trkpt lat="39.2971304" lon="16.343743"><ele>811.0</ele><time>2026-04-25T07:30:45.972Z</time></trkpt><trkpt lat="39.2972285" lon="16.3435332"><ele>808.0</ele><time>2026-04-25T07:30:46.968Z</time></trkpt><trkpt lat="39.2973361" lon="16.3433382"><ele>805.0</ele><time>2026-04-25T07:30:47.975Z</time></trkpt><trkpt lat="39.2974589" lon="16.3431654"><ele>805.6666666666666</ele><time>2026-04-25T07:30:48.968Z</time></trkpt><trkpt lat="39.2975965" lon="16.3430169"><ele>806.3333333333333</ele><time>2026-04-25T07:30:49.968Z</time></trkpt><trkpt lat="39.2977447" lon="16.3428884"><ele>807.0</ele><time>2026-04-25T07:30:50.972Z</time></trkpt><trkpt lat="39.2978955" lon="16.34277"><ele>807.0</ele><time>2026-04-25T07:30:51.972Z</time></trkpt><trkpt lat="39.298037" lon="16.3426551"><ele>807.0</ele><time>2026-04-25T07:30:52.976Z</time></trkpt><trkpt lat="39.2981631" lon="16.3425347"><ele>807.0</ele><time>2026-04-25T07:30:53.983Z</time></trkpt><trkpt lat="39.2982724" lon="16.342416"><ele>804.6</ele><time>2026-04-25T07:30:54.974Z</time></trkpt><trkpt lat="39.2983666" lon="16.3423061"><ele>802.2</ele><time>2026-04-25T07:30:55.978Z</time></trkpt><trkpt lat="39.2984534" lon="16.3422153"><ele>799.8</ele><time>2026-04-25T07:30:56.975Z</time></trkpt><trkpt lat="39.2985358" lon="16.3421429"><ele>797.4</ele><time>2026-04-25T07:30:57.972Z</time></trkpt><trkpt lat="39.2986188" lon="16.3421203"><ele>795.0</ele><time>2026-04-25T07:30:58.972Z</time></trkpt><trkpt lat="39.2987027" lon="16.3421241"><ele>795.0</ele><time>2026-04-25T07:30:59.979Z</time></trkpt><trkpt lat="39.298784" lon="16.3421355"><ele>795.0</ele><time>2026-04-25T07:31:00.967Z</time></trkpt><trkpt lat="39.2988621" lon="16.3421539"><ele>795.0</ele><time>2026-04-25T07:31:01.981Z</time></trkpt><trkpt lat="39.2989426" lon="16.3421738"><ele>795.0</ele><time>2026-04-25T07:31:02.973Z</time></trkpt><trkpt lat="39.299011" lon="16.3421938"><ele>795.0</ele><time>2026-04-25T07:31:03.976Z</time></trkpt><trkpt lat="39.2990786" lon="16.3422097"><ele>795.0</ele><time>2026-04-25T07:31:04.979Z</time></trkpt><trkpt lat="39.2992048" lon="16.3422344"><ele>795.7142857142858</ele><time>2026-04-25T07:31:06.979Z</time></trkpt><trkpt lat="39.2992727" lon="16.342241"><ele>796.4285714285714</ele><time>2026-04-25T07:31:07.977Z</time></trkpt><trkpt lat="39.2993454" lon="16.3422341"><ele>797.1428571428571</ele><time>2026-04-25T07:31:08.979Z</time></trkpt><trkpt lat="39.2994231" lon="16.3422222"><ele>797.8571428571429</ele><time>2026-04-25T07:31:09.975Z</time></trkpt><trkpt lat="39.2994984" lon="16.3422048"><ele>798.5714285714286</ele><time>2026-04-25T07:31:10.982Z</time></trkpt><trkpt lat="39.2995719" lon="16.3421776"><ele>799.2857142857143</ele><time>2026-04-25T07:31:11.979Z</time></trkpt><trkpt lat="39.2996412" lon="16.3421449"><ele>800.0</ele><time>2026-04-25T07:31:12.975Z</time></trkpt><trkpt lat="39.2997064" lon="16.3421071"><ele>802.0000000000001</ele><time>2026-04-25T07:31:13.987Z</time></trkpt><trkpt lat="39.2997667" lon="16.3420602"><ele>804.0</ele><time>2026-04-25T07:31:14.983Z</time></trkpt><trkpt lat="39.2998219" lon="16.3420077"><ele>806.0</ele><time>2026-04-25T07:31:15.977Z</time></trkpt><trkpt lat="39.2998754" lon="16.3419561"><ele>808.0</ele><time>2026-04-25T07:31:16.971Z</time></trkpt><trkpt lat="39.2999266" lon="16.3419045"><ele>810.0</ele><time>2026-04-25T07:31:17.977Z</time></trkpt><trkpt lat="39.2999728" lon="16.3418476"><ele>812.0000000000001</ele><time>2026-04-25T07:31:18.982Z</time></trkpt><trkpt lat="39.3000132" lon="16.341784"><ele>814.0</ele><time>2026-04-25T07:31:19.975Z</time></trkpt><trkpt lat="39.3000547" lon="16.3417224"><ele>813.9999999999999</ele><time>2026-04-25T07:31:20.975Z</time></trkpt><trkpt lat="39.3000972" lon="16.3416584"><ele>814.0</ele><time>2026-04-25T07:31:21.985Z</time></trkpt><trkpt lat="39.3001391" lon="16.3415853"><ele>814.0</ele><time>2026-04-25T07:31:22.981Z</time></trkpt><trkpt lat="39.3001852" lon="16.3414988"><ele>814.0</ele><time>2026-04-25T07:31:23.976Z</time></trkpt><trkpt lat="39.3002468" lon="16.3413922"><ele>813.9999999999999</ele><time>2026-04-25T07:31:24.976Z</time></trkpt><trkpt lat="39.3003199" lon="16.3412838"><ele>814.0</ele><time>2026-04-25T07:31:25.975Z</time></trkpt><trkpt lat="39.3003941" lon="16.3411883"><ele>814.1666666666666</ele><time>2026-04-25T07:31:26.977Z</time></trkpt><trkpt lat="39.3004612" lon="16.3411034"><ele>814.3333333333333</ele><time>2026-04-25T07:31:27.976Z</time></trkpt><trkpt lat="39.300521" lon="16.3410271"><ele>814.5</ele><time>2026-04-25T07:31:28.979Z</time></trkpt><trkpt lat="39.3005783" lon="16.3409588"><ele>814.6666666666667</ele><time>2026-04-25T07:31:29.977Z</time></trkpt><trkpt lat="39.3006384" lon="16.3409028"><ele>814.8333333333334</ele><time>2026-04-25T07:31:30.981Z</time></trkpt><trkpt lat="39.3006983" lon="16.3408559"><ele>815.0</ele><time>2026-04-25T07:31:31.982Z</time></trkpt><trkpt lat="39.3007599" lon="16.3408162"><ele>815.0000000000001</ele><time>2026-04-25T07:31:33.011Z</time></trkpt><trkpt lat="39.3008273" lon="16.3407829"><ele>815.0</ele><time>2026-04-25T07:31:33.99Z</time></trkpt><trkpt lat="39.300894" lon="16.3407554"><ele>815.0</ele><time>2026-04-25T07:31:34.992Z</time></trkpt><trkpt lat="39.3009736" lon="16.3407317"><ele>815.0</ele><time>2026-04-25T07:31:35.98Z</time></trkpt><trkpt lat="39.3010641" lon="16.3407052"><ele>815.0000000000001</ele><time>2026-04-25T07:31:36.978Z</time></trkpt><trkpt lat="39.3011662" lon="16.3406776"><ele>815.0</ele><time>2026-04-25T07:31:37.987Z</time></trkpt><trkpt lat="39.3012755" lon="16.3406548"><ele>815.0</ele><time>2026-04-25T07:31:38.983Z</time></trkpt><trkpt lat="39.3013826" lon="16.3406435"><ele>815.0</ele><time>2026-04-25T07:31:39.978Z</time></trkpt><trkpt lat="39.3015009" lon="16.3406188"><ele>815.0</ele><time>2026-04-25T07:31:40.979Z</time></trkpt><trkpt lat="39.3016182" lon="16.3405929"><ele>815.0</ele><time>2026-04-25T07:31:41.973Z</time></trkpt><trkpt lat="39.3017486" lon="16.3405572"><ele>810.5</ele><time>2026-04-25T07:31:42.978Z</time></trkpt><trkpt lat="39.3018765" lon="16.3405267"><ele>806.0</ele><time>2026-04-25T07:31:43.974Z</time></trkpt><trkpt lat="39.3020172" lon="16.3405042"><ele>801.5</ele><time>2026-04-25T07:31:44.974Z</time></trkpt><trkpt lat="39.3021651" lon="16.3404776"><ele>797.0</ele><time>2026-04-25T07:31:45.977Z</time></trkpt><trkpt lat="39.3023292" lon="16.3404518"><ele>796.0</ele><time>2026-04-25T07:31:46.977Z</time></trkpt><trkpt lat="39.3024943" lon="16.3404122"><ele>795.0</ele><time>2026-04-25T07:31:47.977Z</time></trkpt><trkpt lat="39.3026533" lon="16.3403572"><ele>794.0</ele><time>2026-04-25T07:31:48.979Z</time></trkpt><trkpt lat="39.3028186" lon="16.3403027"><ele>794.0</ele><time>2026-04-25T07:31:49.974Z</time></trkpt><trkpt lat="39.3029668" lon="16.3402208"><ele>794.0</ele><time>2026-04-25T07:31:50.989Z</time></trkpt><trkpt lat="39.3031111" lon="16.3401249"><ele>794.0</ele><time>2026-04-25T07:31:51.981Z</time></trkpt><trkpt lat="39.3032488" lon="16.3400153"><ele>794.6666666666667</ele><time>2026-04-25T07:31:52.974Z</time></trkpt><trkpt lat="39.3033879" lon="16.3399055"><ele>795.3333333333333</ele><time>2026-04-25T07:31:53.984Z</time></trkpt><trkpt lat="39.3035318" lon="16.3398006"><ele>796.0</ele><time>2026-04-25T07:31:54.975Z</time></trkpt><trkpt lat="39.3036841" lon="16.3397045"><ele>792.0</ele><time>2026-04-25T07:31:55.978Z</time></trkpt><trkpt lat="39.303837" lon="16.3396222"><ele>788.0</ele><time>2026-04-25T07:31:56.979Z</time></trkpt><trkpt lat="39.3039938" lon="16.3395798"><ele>784.0</ele><time>2026-04-25T07:31:57.982Z</time></trkpt><trkpt lat="39.3041535" lon="16.3395559"><ele>784.0</ele><time>2026-04-25T07:31:58.971Z</time></trkpt><trkpt lat="39.3043023" lon="16.33955"><ele>784.0</ele><time>2026-04-25T07:31:59.962Z</time></trkpt><trkpt lat="39.3044412" lon="16.3396184"><ele>784.0</ele><time>2026-04-25T07:32:00.974Z</time></trkpt><trkpt lat="39.3045669" lon="16.3397317"><ele>782.6666666666666</ele><time>2026-04-25T07:32:01.979Z</time></trkpt><trkpt lat="39.304683" lon="16.339894"><ele>781.3333333333333</ele><time>2026-04-25T07:32:02.981Z</time></trkpt><trkpt lat="39.3047867" lon="16.3400936"><ele>780.0</ele><time>2026-04-25T07:32:03.971Z</time></trkpt><trkpt lat="39.3048887" lon="16.340317"><ele>781.6666666666667</ele><time>2026-04-25T07:32:04.978Z</time></trkpt><trkpt lat="39.3049931" lon="16.340555"><ele>783.3333333333334</ele><time>2026-04-25T07:32:05.976Z</time></trkpt><trkpt lat="39.3051013" lon="16.3407896"><ele>785.0</ele><time>2026-04-25T07:32:06.967Z</time></trkpt><trkpt lat="39.3052097" lon="16.3410227"><ele>785.0</ele><time>2026-04-25T07:32:07.98Z</time></trkpt><trkpt lat="39.3053168" lon="16.3412512"><ele>785.0</ele><time>2026-04-25T07:32:08.976Z</time></trkpt><trkpt lat="39.3054179" lon="16.3414697"><ele>785.0</ele><time>2026-04-25T07:32:09.978Z</time></trkpt><trkpt lat="39.3055145" lon="16.3416761"><ele>785.3333333333334</ele><time>2026-04-25T07:32:10.984Z</time></trkpt><trkpt lat="39.3056111" lon="16.3418754"><ele>785.6666666666667</ele><time>2026-04-25T07:32:11.977Z</time></trkpt><trkpt lat="39.3057082" lon="16.3420705"><ele>786.0</ele><time>2026-04-25T07:32:12.98Z</time></trkpt><trkpt lat="39.3058077" lon="16.3422602"><ele>789.3333333333333</ele><time>2026-04-25T07:32:13.982Z</time></trkpt><trkpt lat="39.3059132" lon="16.3424311"><ele>792.6666666666666</ele><time>2026-04-25T07:32:14.968Z</time></trkpt><trkpt lat="39.3060343" lon="16.3425751"><ele>796.0</ele><time>2026-04-25T07:32:15.976Z</time></trkpt><trkpt lat="39.3061757" lon="16.3426824"><ele>796.0</ele><time>2026-04-25T07:32:16.978Z</time></trkpt><trkpt lat="39.3063303" lon="16.3427532"><ele>796.0</ele><time>2026-04-25T07:32:17.978Z</time></trkpt><trkpt lat="39.3064908" lon="16.3427802"><ele>796.0</ele><time>2026-04-25T07:32:18.972Z</time></trkpt><trkpt lat="39.3066536" lon="16.3427615"><ele>791.3333333333333</ele><time>2026-04-25T07:32:19.978Z</time></trkpt><trkpt lat="39.3068129" lon="16.3426941"><ele>786.6666666666667</ele><time>2026-04-25T07:32:20.985Z</time></trkpt><trkpt lat="39.3069595" lon="16.3425866"><ele>782.0</ele><time>2026-04-25T07:32:21.976Z</time></trkpt><trkpt lat="39.3070905" lon="16.3424398"><ele>782.0</ele><time>2026-04-25T07:32:22.979Z</time></trkpt><trkpt lat="39.3072157" lon="16.3422754"><ele>782.0</ele><time>2026-04-25T07:32:23.985Z</time></trkpt><trkpt lat="39.3073449" lon="16.3421067"><ele>782.0</ele><time>2026-04-25T07:32:24.978Z</time></trkpt><trkpt lat="39.3074735" lon="16.3419364"><ele>780.3333333333334</ele><time>2026-04-25T07:32:25.978Z</time></trkpt><trkpt lat="39.3075882" lon="16.3417489"><ele>778.6666666666667</ele><time>2026-04-25T07:32:26.973Z</time></trkpt><trkpt lat="39.3076749" lon="16.341538"><ele>777.0</ele><time>2026-04-25T07:32:27.975Z</time></trkpt><trkpt lat="39.3077372" lon="16.3413107"><ele>773.6666666666666</ele><time>2026-04-25T07:32:28.997Z</time></trkpt><trkpt lat="39.3077893" lon="16.3410763"><ele>770.3333333333333</ele><time>2026-04-25T07:32:29.98Z</time></trkpt><trkpt lat="39.3078362" lon="16.3408434"><ele>767.0</ele><time>2026-04-25T07:32:30.984Z</time></trkpt><trkpt lat="39.3078886" lon="16.3406204"><ele>764.0</ele><time>2026-04-25T07:32:31.975Z</time></trkpt><trkpt lat="39.3079428" lon="16.3404092"><ele>761.0</ele><time>2026-04-25T07:32:32.979Z</time></trkpt><trkpt lat="39.3080152" lon="16.3402015"><ele>758.0</ele><time>2026-04-25T07:32:33.975Z</time></trkpt><trkpt lat="39.3084018" lon="16.3394514"><ele>755.0</ele><time>2026-04-25T07:32:37.974Z</time></trkpt><trkpt lat="39.3086349" lon="16.3393671"><ele>752.0</ele><time>2026-04-25T07:32:38.977Z</time></trkpt><trkpt lat="39.3088939" lon="16.3394094"><ele>750.0</ele><time>2026-04-25T07:32:39.975Z</time></trkpt><trkpt lat="39.3091942" lon="16.3395816"><ele>748.0</ele><time>2026-04-25T07:32:40.979Z</time></trkpt><trkpt lat="39.3094573" lon="16.3395966"><ele>748.0</ele><time>2026-04-25T07:32:41.978Z</time></trkpt><trkpt lat="39.3097219" lon="16.3395814"><ele>748.0</ele><time>2026-04-25T07:32:42.974Z</time></trkpt><trkpt lat="39.3099624" lon="16.3395602"><ele>749.5</ele><time>2026-04-25T07:32:43.982Z</time></trkpt><trkpt lat="39.3101938" lon="16.3395318"><ele>751.0</ele><time>2026-04-25T07:32:44.972Z</time></trkpt><trkpt lat="39.3104179" lon="16.339506"><ele>755.5</ele><time>2026-04-25T07:32:45.974Z</time></trkpt><trkpt lat="39.3106161" lon="16.3394726"><ele>760.0</ele><time>2026-04-25T07:32:46.962Z</time></trkpt><trkpt lat="39.311034" lon="16.3393956"><ele>760.0</ele><time>2026-04-25T07:32:48.97Z</time></trkpt><trkpt lat="39.3112385" lon="16.3393446"><ele>760.0</ele><time>2026-04-25T07:32:49.968Z</time></trkpt><trkpt lat="39.3114551" lon="16.3393015"><ele>760.0</ele><time>2026-04-25T07:32:50.977Z</time></trkpt><trkpt lat="39.3116913" lon="16.3392776"><ele>756.0</ele><time>2026-04-25T07:32:51.975Z</time></trkpt><trkpt lat="39.3119343" lon="16.3392386"><ele>752.0</ele><time>2026-04-25T07:32:52.981Z</time></trkpt><trkpt lat="39.3121816" lon="16.3391983"><ele>745.0</ele><time>2026-04-25T07:32:53.975Z</time></trkpt><trkpt lat="39.3124251" lon="16.33915"><ele>738.0</ele><time>2026-04-25T07:32:54.969Z</time></trkpt><trkpt lat="39.3126732" lon="16.3390717"><ele>738.0</ele><time>2026-04-25T07:32:55.976Z</time></trkpt><trkpt lat="39.3129174" lon="16.3389883"><ele>738.0</ele><time>2026-04-25T07:32:56.977Z</time></trkpt><trkpt lat="39.3131587" lon="16.3388871"><ele>713.5</ele><time>2026-04-25T07:32:57.979Z</time></trkpt><trkpt lat="39.3134035" lon="16.3387894"><ele>689.0</ele><time>2026-04-25T07:32:58.979Z</time></trkpt><trkpt lat="39.3136406" lon="16.3386905"><ele>689.0</ele><time>2026-04-25T07:32:59.979Z</time></trkpt><trkpt lat="39.3138837" lon="16.3385927"><ele>689.0</ele><time>2026-04-25T07:33:00.979Z</time></trkpt><trkpt lat="39.3141245" lon="16.3384962"><ele>680.5</ele><time>2026-04-25T07:33:01.981Z</time></trkpt><trkpt lat="39.3143642" lon="16.3383999"><ele>672.0</ele><time>2026-04-25T07:33:02.978Z</time></trkpt><trkpt lat="39.3146035" lon="16.3383035"><ele>681.5</ele><time>2026-04-25T07:33:03.979Z</time></trkpt><trkpt lat="39.3148411" lon="16.3382083"><ele>691.0</ele><time>2026-04-25T07:33:04.968Z</time></trkpt><trkpt lat="39.3150744" lon="16.338113"><ele>702.0</ele><time>2026-04-25T07:33:05.973Z</time></trkpt><trkpt lat="39.3153058" lon="16.338014"><ele>713.0</ele><time>2026-04-25T07:33:06.982Z</time></trkpt><trkpt lat="39.3155298" lon="16.3379085"><ele>726.0</ele><time>2026-04-25T07:33:07.979Z</time></trkpt><trkpt lat="39.3157442" lon="16.3377891"><ele>739.0</ele><time>2026-04-25T07:33:08.983Z</time></trkpt><trkpt lat="39.3159425" lon="16.3376489"><ele>739.0</ele><time>2026-04-25T07:33:09.987Z</time></trkpt><trkpt lat="39.3161201" lon="16.3374829"><ele>739.0</ele><time>2026-04-25T07:33:10.98Z</time></trkpt><trkpt lat="39.316276" lon="16.3372909"><ele>739.0</ele><time>2026-04-25T07:33:11.982Z</time></trkpt><trkpt lat="39.3164088" lon="16.3370823"><ele>733.3333333333334</ele><time>2026-04-25T07:33:12.975Z</time></trkpt><trkpt lat="39.3165173" lon="16.3368574"><ele>727.6666666666666</ele><time>2026-04-25T07:33:13.976Z</time></trkpt><trkpt lat="39.3166132" lon="16.3366315"><ele>722.0</ele><time>2026-04-25T07:33:14.98Z</time></trkpt><trkpt lat="39.3166697" lon="16.3363689"><ele>720.6666666666666</ele><time>2026-04-25T07:33:15.983Z</time></trkpt><trkpt lat="39.3166972" lon="16.3361042"><ele>719.3333333333334</ele><time>2026-04-25T07:33:16.976Z</time></trkpt><trkpt lat="39.3166989" lon="16.3358332"><ele>718.0</ele><time>2026-04-25T07:33:17.977Z</time></trkpt><trkpt lat="39.3166758" lon="16.3355619"><ele>725.0</ele><time>2026-04-25T07:33:18.98Z</time></trkpt><trkpt lat="39.316627" lon="16.3352917"><ele>732.0</ele><time>2026-04-25T07:33:19.977Z</time></trkpt><trkpt lat="39.3165496" lon="16.3350225"><ele>739.0</ele><time>2026-04-25T07:33:20.971Z</time></trkpt><trkpt lat="39.3164383" lon="16.3347603"><ele>737.5</ele><time>2026-04-25T07:33:21.986Z</time></trkpt><trkpt lat="39.3162964" lon="16.3345168"><ele>736.0</ele><time>2026-04-25T07:33:22.979Z</time></trkpt><trkpt lat="39.3161314" lon="16.3342973"><ele>736.0</ele><time>2026-04-25T07:33:23.977Z</time></trkpt><trkpt lat="39.3159493" lon="16.3341009"><ele>736.0</ele><time>2026-04-25T07:33:24.977Z</time></trkpt><trkpt lat="39.3157608" lon="16.3339179"><ele>732.5</ele><time>2026-04-25T07:33:25.981Z</time></trkpt><trkpt lat="39.3155702" lon="16.3337399"><ele>729.0</ele><time>2026-04-25T07:33:26.978Z</time></trkpt><trkpt lat="39.3153868" lon="16.3335679"><ele>729.0</ele><time>2026-04-25T07:33:27.98Z</time></trkpt><trkpt lat="39.3152102" lon="16.3334024"><ele>729.0</ele><time>2026-04-25T07:33:28.975Z</time></trkpt><trkpt lat="39.3150379" lon="16.3332355"><ele>729.0</ele><time>2026-04-25T07:33:29.977Z</time></trkpt><trkpt lat="39.3148681" lon="16.3330604"><ele>723.6666666666666</ele><time>2026-04-25T07:33:30.97Z</time></trkpt><trkpt lat="39.3147024" lon="16.3328783"><ele>718.3333333333333</ele><time>2026-04-25T07:33:31.979Z</time></trkpt><trkpt lat="39.3145454" lon="16.3326819"><ele>713.0</ele><time>2026-04-25T07:33:32.974Z</time></trkpt><trkpt lat="39.3144012" lon="16.3324625"><ele>719.0</ele><time>2026-04-25T07:33:33.981Z</time></trkpt><trkpt lat="39.3142709" lon="16.3322229"><ele>725.0</ele><time>2026-04-25T07:33:35.025Z</time></trkpt><trkpt lat="39.3141525" lon="16.3319649"><ele>725.0</ele><time>2026-04-25T07:33:35.996Z</time></trkpt><trkpt lat="39.3140443" lon="16.3316945"><ele>725.0</ele><time>2026-04-25T07:33:36.976Z</time></trkpt><trkpt lat="39.3139376" lon="16.3314159"><ele>715.0</ele><time>2026-04-25T07:33:37.975Z</time></trkpt><trkpt lat="39.31383" lon="16.3311349"><ele>705.0</ele><time>2026-04-25T07:33:39.012Z</time></trkpt><trkpt lat="39.3137174" lon="16.3308547"><ele>705.0</ele><time>2026-04-25T07:33:39.983Z</time></trkpt><trkpt lat="39.313603" lon="16.330574"><ele>705.0</ele><time>2026-04-25T07:33:40.986Z</time></trkpt><trkpt lat="39.3134858" lon="16.3302962"><ele>705.0</ele><time>2026-04-25T07:33:41.999Z</time></trkpt><trkpt lat="39.3133609" lon="16.3300272"><ele>705.0</ele><time>2026-04-25T07:33:42.993Z</time></trkpt><trkpt lat="39.3132084" lon="16.3297802"><ele>703.5</ele><time>2026-04-25T07:33:44Z</time></trkpt><trkpt lat="39.3130339" lon="16.3295536"><ele>702.0</ele><time>2026-04-25T07:33:44.985Z</time></trkpt><trkpt lat="39.3128438" lon="16.329343"><ele>702.0</ele><time>2026-04-25T07:33:46.006Z</time></trkpt><trkpt lat="39.3126449" lon="16.3291402"><ele>702.0</ele><time>2026-04-25T07:33:46.993Z</time></trkpt><trkpt lat="39.3124487" lon="16.328941"><ele>701.5</ele><time>2026-04-25T07:33:47.974Z</time></trkpt><trkpt lat="39.3122511" lon="16.3287412"><ele>701.0</ele><time>2026-04-25T07:33:48.977Z</time></trkpt><trkpt lat="39.3120566" lon="16.328543"><ele>701.0</ele><time>2026-04-25T07:33:49.975Z</time></trkpt><trkpt lat="39.3118642" lon="16.3283482"><ele>701.0</ele><time>2026-04-25T07:33:50.987Z</time></trkpt><trkpt lat="39.3116729" lon="16.3281561"><ele>699.5</ele><time>2026-04-25T07:33:51.999Z</time></trkpt><trkpt lat="39.3114759" lon="16.327962"><ele>698.0</ele><time>2026-04-25T07:33:52.98Z</time></trkpt><trkpt lat="39.3112684" lon="16.3277582"><ele>698.0</ele><time>2026-04-25T07:33:53.981Z</time></trkpt><trkpt lat="39.3110475" lon="16.3275357"><ele>698.0</ele><time>2026-04-25T07:33:54.991Z</time></trkpt><trkpt lat="39.3108238" lon="16.3273026"><ele>695.5</ele><time>2026-04-25T07:33:55.981Z</time></trkpt><trkpt lat="39.3106035" lon="16.327071"><ele>693.0</ele><time>2026-04-25T07:33:56.977Z</time></trkpt><trkpt lat="39.3103867" lon="16.3268469"><ele>693.0</ele><time>2026-04-25T07:33:57.978Z</time></trkpt><trkpt lat="39.3101739" lon="16.326636"><ele>693.0</ele><time>2026-04-25T07:33:58.988Z</time></trkpt><trkpt lat="39.3099619" lon="16.326431"><ele>692.0</ele><time>2026-04-25T07:33:59.972Z</time></trkpt><trkpt lat="39.3097509" lon="16.3262193"><ele>691.0</ele><time>2026-04-25T07:34:00.98Z</time></trkpt><trkpt lat="39.3095424" lon="16.3259977"><ele>691.0</ele><time>2026-04-25T07:34:01.977Z</time></trkpt><trkpt lat="39.309334" lon="16.3257742"><ele>691.0</ele><time>2026-04-25T07:34:02.984Z</time></trkpt><trkpt lat="39.3091173" lon="16.3255677"><ele>689.5</ele><time>2026-04-25T07:34:03.976Z</time></trkpt><trkpt lat="39.3088978" lon="16.3253851"><ele>688.0</ele><time>2026-04-25T07:34:04.985Z</time></trkpt><trkpt lat="39.3086801" lon="16.3252265"><ele>688.0</ele><time>2026-04-25T07:34:05.98Z</time></trkpt><trkpt lat="39.3084658" lon="16.325072"><ele>688.0</ele><time>2026-04-25T07:34:06.974Z</time></trkpt><trkpt lat="39.3082581" lon="16.3249474"><ele>685.3333333333334</ele><time>2026-04-25T07:34:07.978Z</time></trkpt><trkpt lat="39.3080668" lon="16.3248296"><ele>682.6666666666666</ele><time>2026-04-25T07:34:08.98Z</time></trkpt><trkpt lat="39.307883" lon="16.3247231"><ele>680.0</ele><time>2026-04-25T07:34:09.98Z</time></trkpt><trkpt lat="39.307703" lon="16.3246097"><ele>680.0</ele><time>2026-04-25T07:34:10.979Z</time></trkpt><trkpt lat="39.3075161" lon="16.3244813"><ele>680.0</ele><time>2026-04-25T07:34:11.979Z</time></trkpt><trkpt lat="39.3073132" lon="16.3243436"><ele>680.0</ele><time>2026-04-25T07:34:12.967Z</time></trkpt><trkpt lat="39.3070974" lon="16.324195"><ele>680.5</ele><time>2026-04-25T07:34:13.983Z</time></trkpt><trkpt lat="39.3068668" lon="16.3240415"><ele>681.0</ele><time>2026-04-25T07:34:14.976Z</time></trkpt><trkpt lat="39.3066242" lon="16.3238845"><ele>675.5</ele><time>2026-04-25T07:34:15.971Z</time></trkpt><trkpt lat="39.3063762" lon="16.3237255"><ele>670.0</ele><time>2026-04-25T07:34:16.982Z</time></trkpt><trkpt lat="39.3061295" lon="16.3235666"><ele>670.0</ele><time>2026-04-25T07:34:17.971Z</time></trkpt><trkpt lat="39.3058892" lon="16.3234135"><ele>670.0</ele><time>2026-04-25T07:34:18.985Z</time></trkpt><trkpt lat="39.3056585" lon="16.3232639"><ele>666.5</ele><time>2026-04-25T07:34:19.975Z</time></trkpt><trkpt lat="39.3054419" lon="16.3231052"><ele>663.0</ele><time>2026-04-25T07:34:20.985Z</time></trkpt><trkpt lat="39.3052322" lon="16.3229425"><ele>663.0</ele><time>2026-04-25T07:34:21.975Z</time></trkpt><trkpt lat="39.3050686" lon="16.3227128"><ele>663.0</ele><time>2026-04-25T07:34:22.966Z</time></trkpt><trkpt lat="39.3049318" lon="16.3224697"><ele>663.0</ele><time>2026-04-25T07:34:23.976Z</time></trkpt><trkpt lat="39.3048211" lon="16.3222024"><ele>663.0</ele><time>2026-04-25T07:34:24.975Z</time></trkpt><trkpt lat="39.304748" lon="16.3219115"><ele>647.0</ele><time>2026-04-25T07:34:25.979Z</time></trkpt><trkpt lat="39.3047077" lon="16.3216111"><ele>631.0</ele><time>2026-04-25T07:34:26.971Z</time></trkpt><trkpt lat="39.3047038" lon="16.3213075"><ele>626.0</ele><time>2026-04-25T07:34:27.968Z</time></trkpt><trkpt lat="39.3047318" lon="16.3210009"><ele>621.0</ele><time>2026-04-25T07:34:28.972Z</time></trkpt><trkpt lat="39.3047982" lon="16.3206987"><ele>630.0</ele><time>2026-04-25T07:34:29.974Z</time></trkpt><trkpt lat="39.3048953" lon="16.3204065"><ele>639.0</ele><time>2026-04-25T07:34:30.979Z</time></trkpt><trkpt lat="39.3050068" lon="16.3201146"><ele>639.0</ele><time>2026-04-25T07:34:31.985Z</time></trkpt><trkpt lat="39.3051193" lon="16.3198164"><ele>639.0</ele><time>2026-04-25T07:34:32.987Z</time></trkpt><trkpt lat="39.3053393" lon="16.3192113"><ele>640.0</ele><time>2026-04-25T07:34:34.979Z</time></trkpt><trkpt lat="39.3054477" lon="16.3189113"><ele>641.0</ele><time>2026-04-25T07:34:35.984Z</time></trkpt><trkpt lat="39.3066167" lon="16.3155056"><ele>641.0</ele><time>2026-04-25T07:34:47.949Z</time></trkpt><trkpt lat="39.3067381" lon="16.3151527"><ele>641.0</ele><time>2026-04-25T07:34:49.019Z</time></trkpt><trkpt lat="39.3068976" lon="16.314893"><ele>642.5</ele><time>2026-04-25T07:34:49.983Z</time></trkpt><trkpt lat="39.307016" lon="16.3145968"><ele>644.0</ele><time>2026-04-25T07:34:50.974Z</time></trkpt><trkpt lat="39.3071292" lon="16.314288"><ele>644.0</ele><time>2026-04-25T07:34:51.99Z</time></trkpt><trkpt lat="39.3072196" lon="16.3140113"><ele>644.0</ele><time>2026-04-25T07:34:52.978Z</time></trkpt><trkpt lat="39.3072848" lon="16.313713"><ele>632.5</ele><time>2026-04-25T07:34:53.976Z</time></trkpt><trkpt lat="39.3073224" lon="16.3134091"><ele>621.0</ele><time>2026-04-25T07:34:54.963Z</time></trkpt><trkpt lat="39.3073311" lon="16.3130977"><ele>621.0</ele><time>2026-04-25T07:34:55.97Z</time></trkpt><trkpt lat="39.3073281" lon="16.3127736"><ele>621.0</ele><time>2026-04-25T07:34:56.975Z</time></trkpt><trkpt lat="39.3072414" lon="16.3118619"><ele>611.0</ele><time>2026-04-25T07:35:00.17Z</time></trkpt><trkpt lat="39.3069976" lon="16.3113298"><ele>611.0</ele><time>2026-04-25T07:35:02.009Z</time></trkpt><trkpt lat="39.3068244" lon="16.31106"><ele>611.0</ele><time>2026-04-25T07:35:02.998Z</time></trkpt><trkpt lat="39.3066588" lon="16.310767"><ele>609.5</ele><time>2026-04-25T07:35:03.99Z</time></trkpt><trkpt lat="39.306511" lon="16.3104775"><ele>608.0</ele><time>2026-04-25T07:35:04.991Z</time></trkpt><trkpt lat="39.3063651" lon="16.3101947"><ele>611.0</ele><time>2026-04-25T07:35:05.977Z</time></trkpt><trkpt lat="39.3061958" lon="16.3099423"><ele>614.0</ele><time>2026-04-25T07:35:06.977Z</time></trkpt><trkpt lat="39.305997" lon="16.3097392"><ele>606.0</ele><time>2026-04-25T07:35:07.97Z</time></trkpt><trkpt lat="39.3057814" lon="16.3095742"><ele>598.0</ele><time>2026-04-25T07:35:08.981Z</time></trkpt><trkpt lat="39.3055404" lon="16.3094649"><ele>598.0</ele><time>2026-04-25T07:35:09.971Z</time></trkpt><trkpt lat="39.3052872" lon="16.3093999"><ele>598.0</ele><time>2026-04-25T07:35:10.97Z</time></trkpt><trkpt lat="39.3050341" lon="16.3093655"><ele>598.0</ele><time>2026-04-25T07:35:11.966Z</time></trkpt><trkpt lat="39.3047861" lon="16.3093797"><ele>598.0</ele><time>2026-04-25T07:35:12.973Z</time></trkpt><trkpt lat="39.3045421" lon="16.3094552"><ele>593.5</ele><time>2026-04-25T07:35:13.966Z</time></trkpt><trkpt lat="39.3043134" lon="16.3095872"><ele>589.0</ele><time>2026-04-25T07:35:14.971Z</time></trkpt><trkpt lat="39.3041081" lon="16.309763"><ele>589.0</ele><time>2026-04-25T07:35:15.977Z</time></trkpt><trkpt lat="39.3039203" lon="16.3099722"><ele>589.0</ele><time>2026-04-25T07:35:16.97Z</time></trkpt><trkpt lat="39.303746" lon="16.3102121"><ele>579.0</ele><time>2026-04-25T07:35:17.978Z</time></trkpt><trkpt lat="39.3036007" lon="16.3104884"><ele>569.0</ele><time>2026-04-25T07:35:18.976Z</time></trkpt><trkpt lat="39.3034695" lon="16.3107845"><ele>569.0</ele><time>2026-04-25T07:35:19.971Z</time></trkpt><trkpt lat="39.3033494" lon="16.3110756"><ele>569.0</ele><time>2026-04-25T07:35:20.976Z</time></trkpt><trkpt lat="39.3032337" lon="16.3113739"><ele>573.0</ele><time>2026-04-25T07:35:21.988Z</time></trkpt><trkpt lat="39.3031251" lon="16.3116645"><ele>577.0</ele><time>2026-04-25T07:35:22.977Z</time></trkpt><trkpt lat="39.3030081" lon="16.3119417"><ele>570.0</ele><time>2026-04-25T07:35:23.973Z</time></trkpt><trkpt lat="39.3029008" lon="16.3122141"><ele>563.0</ele><time>2026-04-25T07:35:24.97Z</time></trkpt><trkpt lat="39.302787" lon="16.3124739"><ele>563.0</ele><time>2026-04-25T07:35:25.978Z</time></trkpt><trkpt lat="39.3026706" lon="16.3127188"><ele>563.0</ele><time>2026-04-25T07:35:26.969Z</time></trkpt><trkpt lat="39.3025499" lon="16.3129592"><ele>563.0</ele><time>2026-04-25T07:35:27.968Z</time></trkpt><trkpt lat="39.3024158" lon="16.3131735"><ele>561.6666666666666</ele><time>2026-04-25T07:35:28.973Z</time></trkpt><trkpt lat="39.3022668" lon="16.3133593"><ele>560.3333333333334</ele><time>2026-04-25T07:35:29.977Z</time></trkpt><trkpt lat="39.3020978" lon="16.313507"><ele>559.0</ele><time>2026-04-25T07:35:30.97Z</time></trkpt><trkpt lat="39.3019192" lon="16.3136174"><ele>559.0</ele><time>2026-04-25T07:35:31.975Z</time></trkpt><trkpt lat="39.301735" lon="16.3137004"><ele>559.0</ele><time>2026-04-25T07:35:32.969Z</time></trkpt><trkpt lat="39.3015481" lon="16.3137549"><ele>559.0</ele><time>2026-04-25T07:35:33.975Z</time></trkpt><trkpt lat="39.3013523" lon="16.3137701"><ele>561.6666666666667</ele><time>2026-04-25T07:35:34.963Z</time></trkpt><trkpt lat="39.3011613" lon="16.3137677"><ele>564.3333333333334</ele><time>2026-04-25T07:35:35.974Z</time></trkpt><trkpt lat="39.3009649" lon="16.3137256"><ele>567.0</ele><time>2026-04-25T07:35:36.968Z</time></trkpt><trkpt lat="39.3007832" lon="16.3136845"><ele>567.0</ele><time>2026-04-25T07:35:37.969Z</time></trkpt><trkpt lat="39.3006115" lon="16.3136005"><ele>567.0</ele><time>2026-04-25T07:35:38.966Z</time></trkpt><trkpt lat="39.3004551" lon="16.3134785"><ele>567.0</ele><time>2026-04-25T07:35:39.967Z</time></trkpt><trkpt lat="39.300312" lon="16.3133305"><ele>565.3333333333334</ele><time>2026-04-25T07:35:40.964Z</time></trkpt><trkpt lat="39.3001792" lon="16.3131589"><ele>563.6666666666667</ele><time>2026-04-25T07:35:41.969Z</time></trkpt><trkpt lat="39.3000607" lon="16.3129546"><ele>562.0</ele><time>2026-04-25T07:35:42.973Z</time></trkpt><trkpt lat="39.2999493" lon="16.3127356"><ele>562.0</ele><time>2026-04-25T07:35:43.972Z</time></trkpt><trkpt lat="39.2998461" lon="16.3125123"><ele>562.0</ele><time>2026-04-25T07:35:44.98Z</time></trkpt><trkpt lat="39.2997453" lon="16.3122912"><ele>562.0</ele><time>2026-04-25T07:35:45.978Z</time></trkpt><trkpt lat="39.2996367" lon="16.3120623"><ele>558.3333333333334</ele><time>2026-04-25T07:35:46.966Z</time></trkpt><trkpt lat="39.2995381" lon="16.311824"><ele>554.6666666666666</ele><time>2026-04-25T07:35:47.978Z</time></trkpt><trkpt lat="39.2994204" lon="16.3115716"><ele>551.0</ele><time>2026-04-25T07:35:48.971Z</time></trkpt><trkpt lat="39.2992938" lon="16.3112978"><ele>551.0</ele><time>2026-04-25T07:35:49.974Z</time></trkpt><trkpt lat="39.2991597" lon="16.3110189"><ele>551.0</ele><time>2026-04-25T07:35:50.968Z</time></trkpt><trkpt lat="39.2990473" lon="16.3107334"><ele>552.5</ele><time>2026-04-25T07:35:51.972Z</time></trkpt><trkpt lat="39.2989317" lon="16.3104662"><ele>554.0</ele><time>2026-04-25T07:35:52.978Z</time></trkpt><trkpt lat="39.2988236" lon="16.3102152"><ele>550.3333333333333</ele><time>2026-04-25T07:35:53.968Z</time></trkpt><trkpt lat="39.2987139" lon="16.3099723"><ele>546.6666666666666</ele><time>2026-04-25T07:35:54.976Z</time></trkpt><trkpt lat="39.2986007" lon="16.3097392"><ele>543.0</ele><time>2026-04-25T07:35:55.967Z</time></trkpt><trkpt lat="39.2984751" lon="16.3095164"><ele>543.0</ele><time>2026-04-25T07:35:56.976Z</time></trkpt><trkpt lat="39.2983302" lon="16.3092977"><ele>543.0</ele><time>2026-04-25T07:35:57.972Z</time></trkpt><trkpt lat="39.298154" lon="16.3090736"><ele>535.0</ele><time>2026-04-25T07:35:58.971Z</time></trkpt><trkpt lat="39.2979588" lon="16.3088209"><ele>527.0</ele><time>2026-04-25T07:35:59.987Z</time></trkpt><trkpt lat="39.2977514" lon="16.3085509"><ele>527.0</ele><time>2026-04-25T07:36:00.967Z</time></trkpt><trkpt lat="39.2975405" lon="16.3082426"><ele>527.0</ele><time>2026-04-25T07:36:01.972Z</time></trkpt><trkpt lat="39.2973334" lon="16.3079488"><ele>524.5</ele><time>2026-04-25T07:36:02.967Z</time></trkpt><trkpt lat="39.2971407" lon="16.3076524"><ele>522.0</ele><time>2026-04-25T07:36:03.975Z</time></trkpt><trkpt lat="39.296971" lon="16.3073482"><ele>528.0</ele><time>2026-04-25T07:36:04.971Z</time></trkpt><trkpt lat="39.2968076" lon="16.3070552"><ele>534.0</ele><time>2026-04-25T07:36:05.979Z</time></trkpt><trkpt lat="39.2966865" lon="16.3067493"><ele>534.0</ele><time>2026-04-25T07:36:06.985Z</time></trkpt><trkpt lat="39.2966036" lon="16.3064212"><ele>534.0</ele><time>2026-04-25T07:36:07.97Z</time></trkpt><trkpt lat="39.2965466" lon="16.3060866"><ele>534.5</ele><time>2026-04-25T07:36:08.981Z</time></trkpt><trkpt lat="39.2965127" lon="16.3057498"><ele>535.0</ele><time>2026-04-25T07:36:09.966Z</time></trkpt><trkpt lat="39.2965077" lon="16.3054047"><ele>532.5</ele><time>2026-04-25T07:36:10.968Z</time></trkpt><trkpt lat="39.2965281" lon="16.3050619"><ele>530.0</ele><time>2026-04-25T07:36:11.968Z</time></trkpt><trkpt lat="39.2965714" lon="16.304715"><ele>526.0</ele><time>2026-04-25T07:36:12.976Z</time></trkpt><trkpt lat="39.2966401" lon="16.3043766"><ele>522.0</ele><time>2026-04-25T07:36:13.964Z</time></trkpt><trkpt lat="39.296727" lon="16.304037"><ele>519.0</ele><time>2026-04-25T07:36:14.968Z</time></trkpt><trkpt lat="39.2968213" lon="16.3036999"><ele>516.0</ele><time>2026-04-25T07:36:15.976Z</time></trkpt><trkpt lat="39.2969159" lon="16.3033687"><ele>512.0</ele><time>2026-04-25T07:36:16.97Z</time></trkpt><trkpt lat="39.2970171" lon="16.303034"><ele>508.0</ele><time>2026-04-25T07:36:17.968Z</time></trkpt><trkpt lat="39.2971152" lon="16.3027014"><ele>508.0</ele><time>2026-04-25T07:36:18.997Z</time></trkpt><trkpt lat="39.2972165" lon="16.3023824"><ele>508.0</ele><time>2026-04-25T07:36:19.97Z</time></trkpt><trkpt lat="39.2973118" lon="16.3020763"><ele>509.0</ele><time>2026-04-25T07:36:20.966Z</time></trkpt><trkpt lat="39.2974004" lon="16.3017798"><ele>510.0</ele><time>2026-04-25T07:36:21.971Z</time></trkpt><trkpt lat="39.2974865" lon="16.3014899"><ele>507.0</ele><time>2026-04-25T07:36:22.97Z</time></trkpt><trkpt lat="39.2975707" lon="16.3012103"><ele>504.0</ele><time>2026-04-25T07:36:23.978Z</time></trkpt><trkpt lat="39.2976516" lon="16.3009355"><ele>504.0</ele><time>2026-04-25T07:36:24.971Z</time></trkpt><trkpt lat="39.2977349" lon="16.300664"><ele>504.0</ele><time>2026-04-25T07:36:25.968Z</time></trkpt><trkpt lat="39.2978141" lon="16.300397"><ele>504.0</ele><time>2026-04-25T07:36:26.972Z</time></trkpt><trkpt lat="39.2978906" lon="16.3001327"><ele>500.66666666666663</ele><time>2026-04-25T07:36:27.972Z</time></trkpt><trkpt lat="39.2979587" lon="16.2998698"><ele>497.3333333333333</ele><time>2026-04-25T07:36:28.965Z</time></trkpt><trkpt lat="39.2980176" lon="16.2996115"><ele>494.0</ele><time>2026-04-25T07:36:29.964Z</time></trkpt><trkpt lat="39.2980674" lon="16.2993568"><ele>494.3333333333333</ele><time>2026-04-25T07:36:30.968Z</time></trkpt><trkpt lat="39.298109" lon="16.2991073"><ele>494.66666666666663</ele><time>2026-04-25T07:36:31.973Z</time></trkpt><trkpt lat="39.2981419" lon="16.2988664"><ele>495.0</ele><time>2026-04-25T07:36:32.981Z</time></trkpt><trkpt lat="39.2981658" lon="16.2986321"><ele>491.66666666666663</ele><time>2026-04-25T07:36:33.971Z</time></trkpt><trkpt lat="39.2981802" lon="16.2983948"><ele>488.3333333333333</ele><time>2026-04-25T07:36:34.966Z</time></trkpt><trkpt lat="39.298187" lon="16.2981428"><ele>485.0</ele><time>2026-04-25T07:36:35.972Z</time></trkpt><trkpt lat="39.2981964" lon="16.2978769"><ele>481.0</ele><time>2026-04-25T07:36:36.964Z</time></trkpt><trkpt lat="39.2982086" lon="16.2976017"><ele>477.0</ele><time>2026-04-25T07:36:37.967Z</time></trkpt><trkpt lat="39.2982177" lon="16.2973202"><ele>473.0</ele><time>2026-04-25T07:36:38.969Z</time></trkpt><trkpt lat="39.2982232" lon="16.2970315"><ele>461.5</ele><time>2026-04-25T07:36:39.973Z</time></trkpt><trkpt lat="39.2982249" lon="16.2967313"><ele>450.0</ele><time>2026-04-25T07:36:40.971Z</time></trkpt><trkpt lat="39.2982265" lon="16.2963984"><ele>445.5</ele><time>2026-04-25T07:36:41.969Z</time></trkpt><trkpt lat="39.2982356" lon="16.2960195"><ele>441.0</ele><time>2026-04-25T07:36:42.972Z</time></trkpt><trkpt lat="39.2982536" lon="16.2956014"><ele>447.5</ele><time>2026-04-25T07:36:43.971Z</time></trkpt><trkpt lat="39.2982819" lon="16.2951499"><ele>454.0</ele><time>2026-04-25T07:36:44.965Z</time></trkpt><trkpt lat="39.2983197" lon="16.2946817"><ele>458.0</ele><time>2026-04-25T07:36:45.973Z</time></trkpt><trkpt lat="39.2983585" lon="16.2942254"><ele>462.0</ele><time>2026-04-25T07:36:46.972Z</time></trkpt><trkpt lat="39.2983955" lon="16.2937866"><ele>462.0</ele><time>2026-04-25T07:36:47.967Z</time></trkpt><trkpt lat="39.2984351" lon="16.2933643"><ele>462.0</ele><time>2026-04-25T07:36:48.967Z</time></trkpt><trkpt lat="39.2984808" lon="16.2929576"><ele>459.0</ele><time>2026-04-25T07:36:49.971Z</time></trkpt><trkpt lat="39.2985389" lon="16.2925646"><ele>456.0</ele><time>2026-04-25T07:36:50.971Z</time></trkpt><trkpt lat="39.2986145" lon="16.2921864"><ele>454.5</ele><time>2026-04-25T07:36:51.969Z</time></trkpt><trkpt lat="39.2987076" lon="16.2918226"><ele>453.0</ele><time>2026-04-25T07:36:52.975Z</time></trkpt><trkpt lat="39.2988091" lon="16.2914686"><ele>448.0</ele><time>2026-04-25T07:36:53.965Z</time></trkpt><trkpt lat="39.298911" lon="16.2911185"><ele>443.0</ele><time>2026-04-25T07:36:54.976Z</time></trkpt><trkpt lat="39.2990028" lon="16.2907676"><ele>436.5</ele><time>2026-04-25T07:36:55.972Z</time></trkpt><trkpt lat="39.299079" lon="16.2904129"><ele>430.0</ele><time>2026-04-25T07:36:57.054Z</time></trkpt><trkpt lat="39.299139" lon="16.2900555"><ele>427.5</ele><time>2026-04-25T07:36:57.972Z</time></trkpt><trkpt lat="39.2991863" lon="16.2896977"><ele>425.0</ele><time>2026-04-25T07:36:58.974Z</time></trkpt><trkpt lat="39.2992234" lon="16.2893411"><ele>425.0</ele><time>2026-04-25T07:36:59.971Z</time></trkpt><trkpt lat="39.2992495" lon="16.2889894"><ele>425.0</ele><time>2026-04-25T07:37:00.971Z</time></trkpt><trkpt lat="39.2992654" lon="16.2886478"><ele>424.0</ele><time>2026-04-25T07:37:01.977Z</time></trkpt><trkpt lat="39.2992745" lon="16.2883164"><ele>423.0</ele><time>2026-04-25T07:37:02.972Z</time></trkpt><trkpt lat="39.2992814" lon="16.2879952"><ele>421.0</ele><time>2026-04-25T07:37:03.974Z</time></trkpt><trkpt lat="39.2992875" lon="16.2876829"><ele>419.0</ele><time>2026-04-25T07:37:04.973Z</time></trkpt><trkpt lat="39.2992933" lon="16.287384"><ele>417.66666666666663</ele><time>2026-04-25T07:37:05.975Z</time></trkpt><trkpt lat="39.2992974" lon="16.2870999"><ele>416.33333333333337</ele><time>2026-04-25T07:37:06.978Z</time></trkpt><trkpt lat="39.2992976" lon="16.2868278"><ele>415.0</ele><time>2026-04-25T07:37:07.972Z</time></trkpt><trkpt lat="39.2992907" lon="16.2865649"><ele>414.6666666666667</ele><time>2026-04-25T07:37:08.965Z</time></trkpt><trkpt lat="39.2992701" lon="16.2863103"><ele>414.33333333333337</ele><time>2026-04-25T07:37:09.97Z</time></trkpt><trkpt lat="39.2992367" lon="16.2860533"><ele>414.0</ele><time>2026-04-25T07:37:10.975Z</time></trkpt><trkpt lat="39.2991946" lon="16.2857847"><ele>412.33333333333337</ele><time>2026-04-25T07:37:11.97Z</time></trkpt><trkpt lat="39.2991497" lon="16.2855032"><ele>410.6666666666667</ele><time>2026-04-25T07:37:12.972Z</time></trkpt><trkpt lat="39.2991053" lon="16.2852286"><ele>409.0</ele><time>2026-04-25T07:37:13.991Z</time></trkpt><trkpt lat="39.2990631" lon="16.2849714"><ele>404.33333333333337</ele><time>2026-04-25T07:37:14.982Z</time></trkpt><trkpt lat="39.2990224" lon="16.2847347"><ele>399.66666666666663</ele><time>2026-04-25T07:37:15.971Z</time></trkpt><trkpt lat="39.2989791" lon="16.2845138"><ele>395.0</ele><time>2026-04-25T07:37:16.974Z</time></trkpt><trkpt lat="39.2989288" lon="16.2842975"><ele>396.3333333333333</ele><time>2026-04-25T07:37:17.976Z</time></trkpt><trkpt lat="39.2988695" lon="16.2840843"><ele>397.66666666666663</ele><time>2026-04-25T07:37:18.973Z</time></trkpt><trkpt lat="39.2988" lon="16.2838766"><ele>399.0</ele><time>2026-04-25T07:37:19.974Z</time></trkpt><trkpt lat="39.2987193" lon="16.2836744"><ele>399.0</ele><time>2026-04-25T07:37:20.973Z</time></trkpt><trkpt lat="39.2986252" lon="16.2834768"><ele>399.0</ele><time>2026-04-25T07:37:21.971Z</time></trkpt><trkpt lat="39.2985194" lon="16.2832832"><ele>399.0</ele><time>2026-04-25T07:37:22.972Z</time></trkpt><trkpt lat="39.2984044" lon="16.2830972"><ele>398.33333333333337</ele><time>2026-04-25T07:37:23.969Z</time></trkpt><trkpt lat="39.2982801" lon="16.2829227"><ele>397.6666666666667</ele><time>2026-04-25T07:37:24.971Z</time></trkpt><trkpt lat="39.298147" lon="16.2827596"><ele>397.0</ele><time>2026-04-25T07:37:25.965Z</time></trkpt><trkpt lat="39.298003" lon="16.2826052"><ele>397.0</ele><time>2026-04-25T07:37:26.979Z</time></trkpt><trkpt lat="39.2978492" lon="16.2824589"><ele>397.0</ele><time>2026-04-25T07:37:27.971Z</time></trkpt><trkpt lat="39.2976887" lon="16.2823191"><ele>397.0</ele><time>2026-04-25T07:37:28.972Z</time></trkpt><trkpt lat="39.2975253" lon="16.282185"><ele>398.33333333333337</ele><time>2026-04-25T07:37:29.972Z</time></trkpt><trkpt lat="39.2973612" lon="16.2820549"><ele>399.66666666666663</ele><time>2026-04-25T07:37:30.968Z</time></trkpt><trkpt lat="39.2971986" lon="16.2819271"><ele>401.0</ele><time>2026-04-25T07:37:31.962Z</time></trkpt><trkpt lat="39.2970395" lon="16.2818008"><ele>401.0</ele><time>2026-04-25T07:37:32.975Z</time></trkpt><trkpt lat="39.2968874" lon="16.2816755"><ele>401.0</ele><time>2026-04-25T07:37:33.97Z</time></trkpt><trkpt lat="39.2967451" lon="16.2815472"><ele>401.0</ele><time>2026-04-25T07:37:34.969Z</time></trkpt><trkpt lat="39.2966122" lon="16.2814107"><ele>402.3333333333333</ele><time>2026-04-25T07:37:35.971Z</time></trkpt><trkpt lat="39.2964844" lon="16.281264"><ele>403.66666666666663</ele><time>2026-04-25T07:37:36.966Z</time></trkpt><trkpt lat="39.2963558" lon="16.2811185"><ele>405.0</ele><time>2026-04-25T07:37:37.971Z</time></trkpt><trkpt lat="39.2954303" lon="16.2774066"><ele>373.0</ele><time>2026-04-25T07:37:54.964Z</time></trkpt><trkpt lat="39.295481" lon="16.2770745"><ele>341.0</ele><time>2026-04-25T07:37:55.972Z</time></trkpt><trkpt lat="39.2954986" lon="16.2768276"><ele>341.0</ele><time>2026-04-25T07:37:56.991Z</time></trkpt><trkpt lat="39.2955184" lon="16.2765719"><ele>341.0</ele><time>2026-04-25T07:37:57.975Z</time></trkpt><trkpt lat="39.2955047" lon="16.2763223"><ele>341.0</ele><time>2026-04-25T07:37:58.966Z</time></trkpt><trkpt lat="39.2954666" lon="16.2760846"><ele>341.0</ele><time>2026-04-25T07:37:59.974Z</time></trkpt><trkpt lat="39.2954077" lon="16.275826"><ele>341.0</ele><time>2026-04-25T07:38:00.968Z</time></trkpt><trkpt lat="39.2953186" lon="16.275557"><ele>341.0</ele><time>2026-04-25T07:38:01.978Z</time></trkpt><trkpt lat="39.2952392" lon="16.2752791"><ele>342.5</ele><time>2026-04-25T07:38:02.984Z</time></trkpt><trkpt lat="39.2951631" lon="16.2749947"><ele>344.0</ele><time>2026-04-25T07:38:03.973Z</time></trkpt><trkpt lat="39.2950951" lon="16.2747261"><ele>344.0</ele><time>2026-04-25T07:38:04.971Z</time></trkpt><trkpt lat="39.2950345" lon="16.2744709"><ele>344.0</ele><time>2026-04-25T07:38:05.973Z</time></trkpt><trkpt lat="39.2949804" lon="16.27423"><ele>344.0</ele><time>2026-04-25T07:38:06.975Z</time></trkpt><trkpt lat="39.2949291" lon="16.2739979"><ele>341.0</ele><time>2026-04-25T07:38:07.972Z</time></trkpt><trkpt lat="39.2948727" lon="16.2737679"><ele>338.0</ele><time>2026-04-25T07:38:08.99Z</time></trkpt><trkpt lat="39.29482" lon="16.2735418"><ele>335.0</ele><time>2026-04-25T07:38:09.98Z</time></trkpt><trkpt lat="39.2947682" lon="16.2733237"><ele>335.6666666666667</ele><time>2026-04-25T07:38:10.975Z</time></trkpt><trkpt lat="39.2947251" lon="16.2731103"><ele>336.3333333333333</ele><time>2026-04-25T07:38:11.977Z</time></trkpt><trkpt lat="39.2947026" lon="16.2728958"><ele>337.0</ele><time>2026-04-25T07:38:12.976Z</time></trkpt><trkpt lat="39.2946914" lon="16.2726741"><ele>337.0</ele><time>2026-04-25T07:38:13.982Z</time></trkpt><trkpt lat="39.2947025" lon="16.2724522"><ele>337.0</ele><time>2026-04-25T07:38:14.981Z</time></trkpt><trkpt lat="39.2947308" lon="16.2722383"><ele>337.0</ele><time>2026-04-25T07:38:15.971Z</time></trkpt><trkpt lat="39.2947712" lon="16.2720322"><ele>331.66666666666663</ele><time>2026-04-25T07:38:16.977Z</time></trkpt><trkpt lat="39.2948317" lon="16.2718336"><ele>326.3333333333333</ele><time>2026-04-25T07:38:17.974Z</time></trkpt><trkpt lat="39.2949059" lon="16.2716408"><ele>321.0</ele><time>2026-04-25T07:38:18.979Z</time></trkpt><trkpt lat="39.2949884" lon="16.2714492"><ele>321.0</ele><time>2026-04-25T07:38:19.976Z</time></trkpt><trkpt lat="39.2950788" lon="16.2712529"><ele>321.0</ele><time>2026-04-25T07:38:20.985Z</time></trkpt><trkpt lat="39.2951782" lon="16.2710207"><ele>321.0</ele><time>2026-04-25T07:38:21.985Z</time></trkpt><trkpt lat="39.2952967" lon="16.2708173"><ele>321.0</ele><time>2026-04-25T07:38:22.97Z</time></trkpt><trkpt lat="39.2954323" lon="16.270599"><ele>321.0</ele><time>2026-04-25T07:38:23.979Z</time></trkpt><trkpt lat="39.2955658" lon="16.2703704"><ele>321.0</ele><time>2026-04-25T07:38:24.979Z</time></trkpt><trkpt lat="39.2957" lon="16.270135"><ele>321.0</ele><time>2026-04-25T07:38:25.975Z</time></trkpt><trkpt lat="39.295831" lon="16.2698956"><ele>321.0</ele><time>2026-04-25T07:38:26.971Z</time></trkpt><trkpt lat="39.2959644" lon="16.2696594"><ele>316.5</ele><time>2026-04-25T07:38:27.977Z</time></trkpt><trkpt lat="39.2960943" lon="16.2694179"><ele>312.0</ele><time>2026-04-25T07:38:28.97Z</time></trkpt><trkpt lat="39.2962162" lon="16.2691761"><ele>308.6666666666667</ele><time>2026-04-25T07:38:29.97Z</time></trkpt><trkpt lat="39.2963263" lon="16.2689343"><ele>305.33333333333337</ele><time>2026-04-25T07:38:30.994Z</time></trkpt><trkpt lat="39.2964055" lon="16.2686831"><ele>302.0</ele><time>2026-04-25T07:38:31.98Z</time></trkpt><trkpt lat="39.2964617" lon="16.2684349"><ele>309.33333333333337</ele><time>2026-04-25T07:38:32.972Z</time></trkpt><trkpt lat="39.2964891" lon="16.2681859"><ele>316.6666666666667</ele><time>2026-04-25T07:38:33.975Z</time></trkpt><trkpt lat="39.296489" lon="16.2679432"><ele>324.0</ele><time>2026-04-25T07:38:34.973Z</time></trkpt><trkpt lat="39.296478" lon="16.2677121"><ele>324.0</ele><time>2026-04-25T07:38:35.971Z</time></trkpt><trkpt lat="39.2964529" lon="16.2674905"><ele>324.0</ele><time>2026-04-25T07:38:36.973Z</time></trkpt><trkpt lat="39.296405" lon="16.2672833"><ele>324.0</ele><time>2026-04-25T07:38:37.976Z</time></trkpt><trkpt lat="39.296343" lon="16.2670877"><ele>318.0</ele><time>2026-04-25T07:38:38.975Z</time></trkpt><trkpt lat="39.2962576" lon="16.2669056"><ele>312.0</ele><time>2026-04-25T07:38:39.973Z</time></trkpt><trkpt lat="39.2961709" lon="16.2667398"><ele>306.0</ele><time>2026-04-25T07:38:40.977Z</time></trkpt><trkpt lat="39.2960712" lon="16.2665962"><ele>306.0</ele><time>2026-04-25T07:38:41.98Z</time></trkpt><trkpt lat="39.295967" lon="16.2664692"><ele>306.0</ele><time>2026-04-25T07:38:42.965Z</time></trkpt><trkpt lat="39.2958499" lon="16.2663482"><ele>306.0</ele><time>2026-04-25T07:38:43.975Z</time></trkpt><trkpt lat="39.2957206" lon="16.2662311"><ele>305.3333333333333</ele><time>2026-04-25T07:38:44.978Z</time></trkpt><trkpt lat="39.2955707" lon="16.2661234"><ele>304.66666666666663</ele><time>2026-04-25T07:38:45.969Z</time></trkpt><trkpt lat="39.2953856" lon="16.2660256"><ele>304.0</ele><time>2026-04-25T07:38:46.969Z</time></trkpt><trkpt lat="39.2951714" lon="16.265914"><ele>304.0</ele><time>2026-04-25T07:38:47.974Z</time></trkpt><trkpt lat="39.2949465" lon="16.2657969"><ele>304.0</ele><time>2026-04-25T07:38:48.972Z</time></trkpt><trkpt lat="39.2947144" lon="16.2656629"><ele>305.0</ele><time>2026-04-25T07:38:49.973Z</time></trkpt><trkpt lat="39.2944684" lon="16.2655248"><ele>306.0</ele><time>2026-04-25T07:38:50.966Z</time></trkpt><trkpt lat="39.2942179" lon="16.2653911"><ele>306.0</ele><time>2026-04-25T07:38:51.969Z</time></trkpt><trkpt lat="39.2939718" lon="16.2652664"><ele>306.0</ele><time>2026-04-25T07:38:52.973Z</time></trkpt><trkpt lat="39.2937477" lon="16.2651371"><ele>298.0</ele><time>2026-04-25T07:38:53.97Z</time></trkpt><trkpt lat="39.2935298" lon="16.265023"><ele>290.0</ele><time>2026-04-25T07:38:54.968Z</time></trkpt><trkpt lat="39.2933192" lon="16.2649114"><ele>290.0</ele><time>2026-04-25T07:38:55.974Z</time></trkpt><trkpt lat="39.2931254" lon="16.2648089"><ele>290.0</ele><time>2026-04-25T07:38:56.972Z</time></trkpt><trkpt lat="39.2929366" lon="16.2647039"><ele>290.0</ele><time>2026-04-25T07:38:57.972Z</time></trkpt><trkpt lat="39.2927701" lon="16.2645841"><ele>292.33333333333337</ele><time>2026-04-25T07:38:58.965Z</time></trkpt><trkpt lat="39.2926299" lon="16.2644425"><ele>294.6666666666667</ele><time>2026-04-25T07:38:59.968Z</time></trkpt><trkpt lat="39.2925184" lon="16.2642734"><ele>297.0</ele><time>2026-04-25T07:39:00.963Z</time></trkpt><trkpt lat="39.2924335" lon="16.2640758"><ele>297.6666666666667</ele><time>2026-04-25T07:39:01.97Z</time></trkpt><trkpt lat="39.2923773" lon="16.2638566"><ele>298.33333333333337</ele><time>2026-04-25T07:39:02.975Z</time></trkpt><trkpt lat="39.2923613" lon="16.2636267"><ele>299.0</ele><time>2026-04-25T07:39:03.971Z</time></trkpt><trkpt lat="39.2923812" lon="16.2633937"><ele>299.0</ele><time>2026-04-25T07:39:04.969Z</time></trkpt><trkpt lat="39.2924347" lon="16.263166"><ele>299.0</ele><time>2026-04-25T07:39:05.982Z</time></trkpt><trkpt lat="39.292496" lon="16.2629392"><ele>299.0</ele><time>2026-04-25T07:39:06.972Z</time></trkpt><trkpt lat="39.2926052" lon="16.2627216"><ele>294.33333333333337</ele><time>2026-04-25T07:39:07.967Z</time></trkpt><trkpt lat="39.2927396" lon="16.2625357"><ele>289.6666666666667</ele><time>2026-04-25T07:39:08.97Z</time></trkpt><trkpt lat="39.2928915" lon="16.2623773"><ele>285.0</ele><time>2026-04-25T07:39:09.98Z</time></trkpt><trkpt lat="39.2930607" lon="16.2622702"><ele>278.6666666666667</ele><time>2026-04-25T07:39:10.971Z</time></trkpt><trkpt lat="39.2932471" lon="16.2622107"><ele>272.33333333333337</ele><time>2026-04-25T07:39:11.976Z</time></trkpt><trkpt lat="39.2934408" lon="16.2621994"><ele>266.0</ele><time>2026-04-25T07:39:12.975Z</time></trkpt><trkpt lat="39.2936374" lon="16.2622179"><ele>268.33333333333337</ele><time>2026-04-25T07:39:13.966Z</time></trkpt><trkpt lat="39.2938327" lon="16.2623232"><ele>270.6666666666667</ele><time>2026-04-25T07:39:14.966Z</time></trkpt><trkpt lat="39.2940267" lon="16.2624407"><ele>273.0</ele><time>2026-04-25T07:39:15.969Z</time></trkpt><trkpt lat="39.2942288" lon="16.2625682"><ele>273.0</ele><time>2026-04-25T07:39:16.974Z</time></trkpt><trkpt lat="39.2944274" lon="16.2627115"><ele>273.0</ele><time>2026-04-25T07:39:17.973Z</time></trkpt><trkpt lat="39.2946161" lon="16.2628848"><ele>274.0</ele><time>2026-04-25T07:39:18.97Z</time></trkpt><trkpt lat="39.2947835" lon="16.2630787"><ele>275.0</ele><time>2026-04-25T07:39:19.98Z</time></trkpt><trkpt lat="39.2949535" lon="16.2632731"><ele>275.0</ele><time>2026-04-25T07:39:20.965Z</time></trkpt><trkpt lat="39.2951379" lon="16.2634557"><ele>275.0</ele><time>2026-04-25T07:39:21.966Z</time></trkpt><trkpt lat="39.2953414" lon="16.2636168"><ele>275.0</ele><time>2026-04-25T07:39:22.969Z</time></trkpt><trkpt lat="39.2955654" lon="16.2637452"><ele>275.0</ele><time>2026-04-25T07:39:23.983Z</time></trkpt><trkpt lat="39.2958052" lon="16.2638417"><ele>281.0</ele><time>2026-04-25T07:39:24.97Z</time></trkpt><trkpt lat="39.2960608" lon="16.2639075"><ele>287.0</ele><time>2026-04-25T07:39:25.977Z</time></trkpt><trkpt lat="39.2963154" lon="16.2639651"><ele>279.0</ele><time>2026-04-25T07:39:26.975Z</time></trkpt><trkpt lat="39.2965596" lon="16.2640236"><ele>271.0</ele><time>2026-04-25T07:39:27.974Z</time></trkpt><trkpt lat="39.2967913" lon="16.2641168"><ele>271.0</ele><time>2026-04-25T07:39:28.984Z</time></trkpt><trkpt lat="39.2970254" lon="16.264244"><ele>271.0</ele><time>2026-04-25T07:39:29.965Z</time></trkpt><trkpt lat="39.2972561" lon="16.2643992"><ele>256.5</ele><time>2026-04-25T07:39:30.97Z</time></trkpt><trkpt lat="39.2974891" lon="16.2645534"><ele>242.0</ele><time>2026-04-25T07:39:31.978Z</time></trkpt><trkpt lat="39.2977222" lon="16.2646979"><ele>252.0</ele><time>2026-04-25T07:39:32.978Z</time></trkpt><trkpt lat="39.2979571" lon="16.2648161"><ele>262.0</ele><time>2026-04-25T07:39:33.965Z</time></trkpt><trkpt lat="39.2981905" lon="16.2648987"><ele>262.0</ele><time>2026-04-25T07:39:34.968Z</time></trkpt><trkpt lat="39.2984242" lon="16.2649457"><ele>262.0</ele><time>2026-04-25T07:39:35.98Z</time></trkpt><trkpt lat="39.2986586" lon="16.2649552"><ele>262.0</ele><time>2026-04-25T07:39:36.976Z</time></trkpt><trkpt lat="39.2988952" lon="16.2649492"><ele>262.0</ele><time>2026-04-25T07:39:37.978Z</time></trkpt><trkpt lat="39.299135" lon="16.2649382"><ele>259.5</ele><time>2026-04-25T07:39:38.967Z</time></trkpt><trkpt lat="39.2993792" lon="16.2649441"><ele>257.0</ele><time>2026-04-25T07:39:39.964Z</time></trkpt><trkpt lat="39.2996271" lon="16.2649739"><ele>250.5</ele><time>2026-04-25T07:39:40.971Z</time></trkpt><trkpt lat="39.2998724" lon="16.2650357"><ele>244.0</ele><time>2026-04-25T07:39:41.972Z</time></trkpt><trkpt lat="39.3001175" lon="16.2651217"><ele>244.0</ele><time>2026-04-25T07:39:42.981Z</time></trkpt><trkpt lat="39.3003655" lon="16.2652223"><ele>244.0</ele><time>2026-04-25T07:39:43.97Z</time></trkpt><trkpt lat="39.3006157" lon="16.265314"><ele>237.0</ele><time>2026-04-25T07:39:44.975Z</time></trkpt><trkpt lat="39.3008699" lon="16.2653737"><ele>230.0</ele><time>2026-04-25T07:39:45.975Z</time></trkpt><trkpt lat="39.3011263" lon="16.2653935"><ele>230.0</ele><time>2026-04-25T07:39:46.972Z</time></trkpt><trkpt lat="39.3013775" lon="16.2653695"><ele>230.0</ele><time>2026-04-25T07:39:47.972Z</time></trkpt><trkpt lat="39.3016233" lon="16.2653286"><ele>228.5</ele><time>2026-04-25T07:39:48.963Z</time></trkpt><trkpt lat="39.3018595" lon="16.2652198"><ele>227.0</ele><time>2026-04-25T07:39:49.967Z</time></trkpt><trkpt lat="39.3020848" lon="16.2650714"><ele>225.5</ele><time>2026-04-25T07:39:50.974Z</time></trkpt><trkpt lat="39.30229" lon="16.2648914"><ele>224.0</ele><time>2026-04-25T07:39:51.981Z</time></trkpt><trkpt lat="39.3024842" lon="16.264689"><ele>221.5</ele><time>2026-04-25T07:39:52.979Z</time></trkpt><trkpt lat="39.3026753" lon="16.2644775"><ele>219.0</ele><time>2026-04-25T07:39:53.971Z</time></trkpt><trkpt lat="39.302866" lon="16.2642806"><ele>219.0</ele><time>2026-04-25T07:39:54.972Z</time></trkpt><trkpt lat="39.3030615" lon="16.2640787"><ele>219.0</ele><time>2026-04-25T07:39:55.973Z</time></trkpt><trkpt lat="39.3032472" lon="16.2638728"><ele>218.5</ele><time>2026-04-25T07:39:56.974Z</time></trkpt><trkpt lat="39.303427" lon="16.2636828"><ele>218.0</ele><time>2026-04-25T07:39:57.984Z</time></trkpt><trkpt lat="39.3035988" lon="16.2635052"><ele>218.0</ele><time>2026-04-25T07:39:58.968Z</time></trkpt><trkpt lat="39.3037811" lon="16.2633791"><ele>218.0</ele><time>2026-04-25T07:39:59.974Z</time></trkpt><trkpt lat="39.3039721" lon="16.2632934"><ele>218.0</ele><time>2026-04-25T07:40:00.967Z</time></trkpt><trkpt lat="39.3041452" lon="16.263239"><ele>217.66666666666669</ele><time>2026-04-25T07:40:01.972Z</time></trkpt><trkpt lat="39.3043057" lon="16.2632038"><ele>217.33333333333331</ele><time>2026-04-25T07:40:02.973Z</time></trkpt><trkpt lat="39.3044616" lon="16.2631818"><ele>217.0</ele><time>2026-04-25T07:40:03.98Z</time></trkpt><trkpt lat="39.3046217" lon="16.2631598"><ele>217.0</ele><time>2026-04-25T07:40:04.969Z</time></trkpt><trkpt lat="39.3047851" lon="16.2631377"><ele>217.0</ele><time>2026-04-25T07:40:05.975Z</time></trkpt><trkpt lat="39.30495" lon="16.2631143"><ele>217.0</ele><time>2026-04-25T07:40:06.983Z</time></trkpt><trkpt lat="39.3051195" lon="16.2630901"><ele>216.0</ele><time>2026-04-25T07:40:07.974Z</time></trkpt><trkpt lat="39.3052936" lon="16.2630671"><ele>215.0</ele><time>2026-04-25T07:40:08.968Z</time></trkpt><trkpt lat="39.3054726" lon="16.2630449"><ele>214.0</ele><time>2026-04-25T07:40:09.987Z</time></trkpt><trkpt lat="39.3056542" lon="16.2630231"><ele>213.33333333333331</ele><time>2026-04-25T07:40:10.974Z</time></trkpt><trkpt lat="39.305843" lon="16.2629983"><ele>212.66666666666669</ele><time>2026-04-25T07:40:11.97Z</time></trkpt><trkpt lat="39.3060365" lon="16.2629717"><ele>212.0</ele><time>2026-04-25T07:40:12.978Z</time></trkpt><trkpt lat="39.3062296" lon="16.2629432"><ele>211.0</ele><time>2026-04-25T07:40:13.979Z</time></trkpt><trkpt lat="39.3064218" lon="16.262916"><ele>210.0</ele><time>2026-04-25T07:40:14.981Z</time></trkpt><trkpt lat="39.3066113" lon="16.2628902"><ele>209.0</ele><time>2026-04-25T07:40:15.98Z</time></trkpt><trkpt lat="39.3067976" lon="16.2628646"><ele>209.0</ele><time>2026-04-25T07:40:16.965Z</time></trkpt><trkpt lat="39.3069847" lon="16.2628385"><ele>209.0</ele><time>2026-04-25T07:40:17.97Z</time></trkpt><trkpt lat="39.3071809" lon="16.2628085"><ele>209.0</ele><time>2026-04-25T07:40:18.975Z</time></trkpt><trkpt lat="39.3073845" lon="16.262781"><ele>209.0</ele><time>2026-04-25T07:40:19.981Z</time></trkpt><trkpt lat="39.3075916" lon="16.2627567"><ele>209.0</ele><time>2026-04-25T07:40:20.979Z</time></trkpt><trkpt lat="39.3077995" lon="16.2627339"><ele>209.0</ele><time>2026-04-25T07:40:21.982Z</time></trkpt><trkpt lat="39.3080008" lon="16.2627167"><ele>209.0</ele><time>2026-04-25T07:40:22.98Z</time></trkpt><trkpt lat="39.3081985" lon="16.262707"><ele>209.0</ele><time>2026-04-25T07:40:23.971Z</time></trkpt><trkpt lat="39.308397" lon="16.2626995"><ele>209.0</ele><time>2026-04-25T07:40:24.98Z</time></trkpt><trkpt lat="39.3086062" lon="16.2626968"><ele>209.0</ele><time>2026-04-25T07:40:25.977Z</time></trkpt><trkpt lat="39.3088325" lon="16.2627067"><ele>209.0</ele><time>2026-04-25T07:40:26.975Z</time></trkpt><trkpt lat="39.3090712" lon="16.2627284"><ele>209.0</ele><time>2026-04-25T07:40:27.971Z</time></trkpt><trkpt lat="39.3093114" lon="16.2627532"><ele>209.0</ele><time>2026-04-25T07:40:28.973Z</time></trkpt><trkpt lat="39.3095473" lon="16.2627746"><ele>208.0</ele><time>2026-04-25T07:40:29.984Z</time></trkpt><trkpt lat="39.3097779" lon="16.262791"><ele>207.0</ele><time>2026-04-25T07:40:30.98Z</time></trkpt><trkpt lat="39.3100061" lon="16.2627947"><ele>207.0</ele><time>2026-04-25T07:40:31.982Z</time></trkpt><trkpt lat="39.3102297" lon="16.2627805"><ele>207.0</ele><time>2026-04-25T07:40:32.973Z</time></trkpt><trkpt lat="39.3104369" lon="16.2627144"><ele>207.0</ele><time>2026-04-25T07:40:33.98Z</time></trkpt><trkpt lat="39.3106364" lon="16.2626215"><ele>207.0</ele><time>2026-04-25T07:40:34.991Z</time></trkpt><trkpt lat="39.3108147" lon="16.2625023"><ele>207.0</ele><time>2026-04-25T07:40:35.978Z</time></trkpt><trkpt lat="39.3109808" lon="16.2623695"><ele>207.0</ele><time>2026-04-25T07:40:36.971Z</time></trkpt><trkpt lat="39.3111408" lon="16.2622155"><ele>207.0</ele><time>2026-04-25T07:40:37.978Z</time></trkpt><trkpt lat="39.3112998" lon="16.2620417"><ele>207.0</ele><time>2026-04-25T07:40:38.985Z</time></trkpt><trkpt lat="39.3114633" lon="16.2618558"><ele>207.0</ele><time>2026-04-25T07:40:39.98Z</time></trkpt><trkpt lat="39.3116334" lon="16.2616593"><ele>207.0</ele><time>2026-04-25T07:40:40.978Z</time></trkpt><trkpt lat="39.3118104" lon="16.2614569"><ele>207.0</ele><time>2026-04-25T07:40:41.986Z</time></trkpt><trkpt lat="39.3119918" lon="16.2612481"><ele>207.0</ele><time>2026-04-25T07:40:42.973Z</time></trkpt><trkpt lat="39.3121745" lon="16.2610398"><ele>207.0</ele><time>2026-04-25T07:40:43.972Z</time></trkpt><trkpt lat="39.3123566" lon="16.2608324"><ele>207.5</ele><time>2026-04-25T07:40:44.977Z</time></trkpt><trkpt lat="39.3125327" lon="16.2606254"><ele>208.0</ele><time>2026-04-25T07:40:45.974Z</time></trkpt><trkpt lat="39.312704" lon="16.260423"><ele>207.33333333333331</ele><time>2026-04-25T07:40:46.979Z</time></trkpt><trkpt lat="39.3128726" lon="16.2602313"><ele>206.66666666666669</ele><time>2026-04-25T07:40:47.981Z</time></trkpt><trkpt lat="39.3130383" lon="16.2600481"><ele>206.0</ele><time>2026-04-25T07:40:48.976Z</time></trkpt><trkpt lat="39.3132024" lon="16.2598747"><ele>206.0</ele><time>2026-04-25T07:40:49.97Z</time></trkpt><trkpt lat="39.3133677" lon="16.2597104"><ele>206.0</ele><time>2026-04-25T07:40:50.978Z</time></trkpt><trkpt lat="39.313534" lon="16.2595524"><ele>206.0</ele><time>2026-04-25T07:40:51.972Z</time></trkpt><trkpt lat="39.313706" lon="16.2594023"><ele>206.0</ele><time>2026-04-25T07:40:52.97Z</time></trkpt><trkpt lat="39.3138843" lon="16.2592653"><ele>206.0</ele><time>2026-04-25T07:40:53.98Z</time></trkpt><trkpt lat="39.3140677" lon="16.2591404"><ele>206.0</ele><time>2026-04-25T07:40:54.972Z</time></trkpt><trkpt lat="39.3142557" lon="16.2590276"><ele>204.66666666666669</ele><time>2026-04-25T07:40:55.972Z</time></trkpt><trkpt lat="39.3144436" lon="16.2589265"><ele>203.33333333333331</ele><time>2026-04-25T07:40:56.974Z</time></trkpt><trkpt lat="39.3146313" lon="16.2588353"><ele>202.0</ele><time>2026-04-25T07:40:57.984Z</time></trkpt><trkpt lat="39.3148192" lon="16.2587517"><ele>202.0</ele><time>2026-04-25T07:40:58.973Z</time></trkpt><trkpt lat="39.3150044" lon="16.2586784"><ele>202.0</ele><time>2026-04-25T07:40:59.978Z</time></trkpt><trkpt lat="39.3151875" lon="16.2586145"><ele>202.0</ele><time>2026-04-25T07:41:00.969Z</time></trkpt><trkpt lat="39.3153662" lon="16.2585587"><ele>202.0</ele><time>2026-04-25T07:41:01.973Z</time></trkpt><trkpt lat="39.3155402" lon="16.2585078"><ele>202.0</ele><time>2026-04-25T07:41:02.977Z</time></trkpt><trkpt lat="39.3157058" lon="16.2584618"><ele>202.0</ele><time>2026-04-25T07:41:03.972Z</time></trkpt><trkpt lat="39.3158631" lon="16.2584207"><ele>202.33333333333331</ele><time>2026-04-25T07:41:04.963Z</time></trkpt><trkpt lat="39.3160153" lon="16.2583811"><ele>202.66666666666669</ele><time>2026-04-25T07:41:05.982Z</time></trkpt><trkpt lat="39.3161682" lon="16.2583387"><ele>203.0</ele><time>2026-04-25T07:41:06.972Z</time></trkpt><trkpt lat="39.3163213" lon="16.2582909"><ele>202.66666666666669</ele><time>2026-04-25T07:41:07.976Z</time></trkpt><trkpt lat="39.3164727" lon="16.2582388"><ele>202.33333333333331</ele><time>2026-04-25T07:41:08.972Z</time></trkpt><trkpt lat="39.3166229" lon="16.2581857"><ele>202.0</ele><time>2026-04-25T07:41:09.975Z</time></trkpt><trkpt lat="39.3167725" lon="16.2581349"><ele>201.25</ele><time>2026-04-25T07:41:10.981Z</time></trkpt><trkpt lat="39.3169202" lon="16.2580867"><ele>200.5</ele><time>2026-04-25T07:41:11.972Z</time></trkpt><trkpt lat="39.3170622" lon="16.258042"><ele>199.75</ele><time>2026-04-25T07:41:12.976Z</time></trkpt><trkpt lat="39.3171966" lon="16.2580024"><ele>199.0</ele><time>2026-04-25T07:41:13.976Z</time></trkpt><trkpt lat="39.3173196" lon="16.2579716"><ele>198.79999999999998</ele><time>2026-04-25T07:41:14.972Z</time></trkpt><trkpt lat="39.3174279" lon="16.2579451"><ele>198.6</ele><time>2026-04-25T07:41:15.987Z</time></trkpt><trkpt lat="39.3175207" lon="16.2579274"><ele>198.4</ele><time>2026-04-25T07:41:16.979Z</time></trkpt><trkpt lat="39.3176005" lon="16.2579228"><ele>198.2</ele><time>2026-04-25T07:41:17.976Z</time></trkpt><trkpt lat="39.3176782" lon="16.2579034"><ele>198.0</ele><time>2026-04-25T07:41:19.983Z</time></trkpt><trkpt lat="39.3177723" lon="16.2578946"><ele>198.0</ele><time>2026-04-25T07:41:42.982Z</time></trkpt><trkpt lat="39.3178463" lon="16.2578797"><ele>198.0</ele><time>2026-04-25T07:41:43.982Z</time></trkpt><trkpt lat="39.3179368" lon="16.2578526"><ele>198.0</ele><time>2026-04-25T07:41:44.981Z</time></trkpt><trkpt lat="39.3180428" lon="16.2578181"><ele>198.0</ele><time>2026-04-25T07:41:45.972Z</time></trkpt><trkpt lat="39.3181628" lon="16.2577787"><ele>198.0</ele><time>2026-04-25T07:41:46.979Z</time></trkpt><trkpt lat="39.318298" lon="16.2577355"><ele>198.33333333333331</ele><time>2026-04-25T07:41:47.975Z</time></trkpt><trkpt lat="39.3184452" lon="16.2576914"><ele>198.66666666666666</ele><time>2026-04-25T07:41:48.98Z</time></trkpt><trkpt lat="39.3185967" lon="16.2576521"><ele>199.0</ele><time>2026-04-25T07:41:49.978Z</time></trkpt><trkpt lat="39.3187544" lon="16.2576127"><ele>199.0</ele><time>2026-04-25T07:41:50.982Z</time></trkpt><trkpt lat="39.3189179" lon="16.2575713"><ele>199.0</ele><time>2026-04-25T07:41:51.969Z</time></trkpt><trkpt lat="39.3190877" lon="16.2575293"><ele>199.0</ele><time>2026-04-25T07:41:52.975Z</time></trkpt><trkpt lat="39.3192665" lon="16.257485"><ele>199.0</ele><time>2026-04-25T07:41:53.981Z</time></trkpt><trkpt lat="39.3194529" lon="16.2574366"><ele>199.0</ele><time>2026-04-25T07:41:54.977Z</time></trkpt><trkpt lat="39.3196452" lon="16.2573863"><ele>199.0</ele><time>2026-04-25T07:41:55.99Z</time></trkpt><trkpt lat="39.3198445" lon="16.2573335"><ele>198.33333333333331</ele><time>2026-04-25T07:41:57.003Z</time></trkpt><trkpt lat="39.3200491" lon="16.2572787"><ele>197.66666666666669</ele><time>2026-04-25T07:41:57.977Z</time></trkpt><trkpt lat="39.3202597" lon="16.257224"><ele>197.0</ele><time>2026-04-25T07:41:58.984Z</time></trkpt><trkpt lat="39.3204754" lon="16.257169"><ele>196.5</ele><time>2026-04-25T07:41:59.978Z</time></trkpt><trkpt lat="39.3206962" lon="16.2571128"><ele>196.0</ele><time>2026-04-25T07:42:00.975Z</time></trkpt><trkpt lat="39.3209205" lon="16.2570574"><ele>196.0</ele><time>2026-04-25T07:42:01.978Z</time></trkpt><trkpt lat="39.321144" lon="16.2570034"><ele>196.0</ele><time>2026-04-25T07:42:02.976Z</time></trkpt><trkpt lat="39.3213633" lon="16.2569479"><ele>196.33333333333331</ele><time>2026-04-25T07:42:03.972Z</time></trkpt><trkpt lat="39.3215773" lon="16.2568903"><ele>196.66666666666669</ele><time>2026-04-25T07:42:04.973Z</time></trkpt><trkpt lat="39.3217865" lon="16.2568297"><ele>197.0</ele><time>2026-04-25T07:42:05.976Z</time></trkpt><trkpt lat="39.3219929" lon="16.2567646"><ele>197.0</ele><time>2026-04-25T07:42:06.971Z</time></trkpt><trkpt lat="39.3221964" lon="16.2567008"><ele>197.0</ele><time>2026-04-25T07:42:07.969Z</time></trkpt><trkpt lat="39.3224002" lon="16.2566363"><ele>197.0</ele><time>2026-04-25T07:42:08.974Z</time></trkpt><trkpt lat="39.3226029" lon="16.2565727"><ele>196.33333333333334</ele><time>2026-04-25T07:42:09.976Z</time></trkpt><trkpt lat="39.322804" lon="16.256509"><ele>195.66666666666669</ele><time>2026-04-25T07:42:10.975Z</time></trkpt><trkpt lat="39.3230001" lon="16.2564453"><ele>195.0</ele><time>2026-04-25T07:42:11.978Z</time></trkpt><trkpt lat="39.3231856" lon="16.2563821"><ele>194.66666666666669</ele><time>2026-04-25T07:42:12.982Z</time></trkpt><trkpt lat="39.3233614" lon="16.256318"><ele>194.33333333333334</ele><time>2026-04-25T07:42:13.975Z</time></trkpt><trkpt lat="39.3235274" lon="16.2562531"><ele>194.0</ele><time>2026-04-25T07:42:14.971Z</time></trkpt><trkpt lat="39.3236865" lon="16.2561911"><ele>194.0</ele><time>2026-04-25T07:42:15.985Z</time></trkpt><trkpt lat="39.3238424" lon="16.2561329"><ele>194.0</ele><time>2026-04-25T07:42:16.974Z</time></trkpt><trkpt lat="39.3239968" lon="16.2560801"><ele>194.0</ele><time>2026-04-25T07:42:17.978Z</time></trkpt><trkpt lat="39.3241461" lon="16.2560307"><ele>193.5</ele><time>2026-04-25T07:42:18.982Z</time></trkpt><trkpt lat="39.3242875" lon="16.2559854"><ele>193.0</ele><time>2026-04-25T07:42:19.978Z</time></trkpt><trkpt lat="39.3244303" lon="16.25594"><ele>192.5</ele><time>2026-04-25T07:42:20.974Z</time></trkpt><trkpt lat="39.3245825" lon="16.2558939"><ele>192.0</ele><time>2026-04-25T07:42:21.98Z</time></trkpt><trkpt lat="39.3247418" lon="16.2558479"><ele>191.0</ele><time>2026-04-25T07:42:22.975Z</time></trkpt><trkpt lat="39.3249038" lon="16.2558053"><ele>190.0</ele><time>2026-04-25T07:42:23.977Z</time></trkpt><trkpt lat="39.3250671" lon="16.2557631"><ele>189.0</ele><time>2026-04-25T07:42:24.983Z</time></trkpt><trkpt lat="39.3252296" lon="16.2557201"><ele>189.0</ele><time>2026-04-25T07:42:25.98Z</time></trkpt><trkpt lat="39.3253939" lon="16.2556768"><ele>189.0</ele><time>2026-04-25T07:42:26.973Z</time></trkpt><trkpt lat="39.3255567" lon="16.2556266"><ele>189.0</ele><time>2026-04-25T07:42:27.986Z</time></trkpt><trkpt lat="39.3257235" lon="16.2555687"><ele>189.66666666666666</ele><time>2026-04-25T07:42:28.971Z</time></trkpt><trkpt lat="39.3258876" lon="16.2555103"><ele>190.33333333333331</ele><time>2026-04-25T07:42:29.974Z</time></trkpt><trkpt lat="39.3260547" lon="16.2554467"><ele>191.0</ele><time>2026-04-25T07:42:30.972Z</time></trkpt><trkpt lat="39.3262203" lon="16.2553772"><ele>191.0</ele><time>2026-04-25T07:42:31.976Z</time></trkpt><trkpt lat="39.3263829" lon="16.2552965"><ele>191.0</ele><time>2026-04-25T07:42:32.974Z</time></trkpt><trkpt lat="39.3265379" lon="16.2552056"><ele>191.0</ele><time>2026-04-25T07:42:33.984Z</time></trkpt><trkpt lat="39.3266871" lon="16.255106"><ele>191.0</ele><time>2026-04-25T07:42:34.976Z</time></trkpt><trkpt lat="39.3268271" lon="16.2549971"><ele>191.0</ele><time>2026-04-25T07:42:35.976Z</time></trkpt><trkpt lat="39.3269639" lon="16.2548824"><ele>191.0</ele><time>2026-04-25T07:42:36.971Z</time></trkpt><trkpt lat="39.327096" lon="16.2547635"><ele>191.0</ele><time>2026-04-25T07:42:37.979Z</time></trkpt><trkpt lat="39.3272188" lon="16.2546354"><ele>191.0</ele><time>2026-04-25T07:42:38.981Z</time></trkpt><trkpt lat="39.3273315" lon="16.2544956"><ele>191.0</ele><time>2026-04-25T07:42:39.98Z</time></trkpt><trkpt lat="39.3274326" lon="16.2543443"><ele>191.0</ele><time>2026-04-25T07:42:40.974Z</time></trkpt><trkpt lat="39.3275258" lon="16.2541837"><ele>191.0</ele><time>2026-04-25T07:42:41.974Z</time></trkpt><trkpt lat="39.3276074" lon="16.2540133"><ele>191.0</ele><time>2026-04-25T07:42:42.976Z</time></trkpt><trkpt lat="39.3276776" lon="16.2538302"><ele>191.0</ele><time>2026-04-25T07:42:43.973Z</time></trkpt><trkpt lat="39.3277384" lon="16.2536361"><ele>191.0</ele><time>2026-04-25T07:42:44.978Z</time></trkpt><trkpt lat="39.3277951" lon="16.2534195"><ele>191.0</ele><time>2026-04-25T07:42:45.971Z</time></trkpt><trkpt lat="39.3278578" lon="16.253182"><ele>191.0</ele><time>2026-04-25T07:42:46.976Z</time></trkpt><trkpt lat="39.3279338" lon="16.252937"><ele>191.0</ele><time>2026-04-25T07:42:47.975Z</time></trkpt><trkpt lat="39.3280199" lon="16.2526886"><ele>191.0</ele><time>2026-04-25T07:42:48.981Z</time></trkpt><trkpt lat="39.3281084" lon="16.2524323"><ele>191.0</ele><time>2026-04-25T07:42:50.014Z</time></trkpt><trkpt lat="39.3281959" lon="16.2521655"><ele>191.0</ele><time>2026-04-25T07:42:50.974Z</time></trkpt><trkpt lat="39.3282816" lon="16.2518892"><ele>191.0</ele><time>2026-04-25T07:42:51.97Z</time></trkpt><trkpt lat="39.3283664" lon="16.2516056"><ele>191.0</ele><time>2026-04-25T07:42:52.975Z</time></trkpt><trkpt lat="39.3284532" lon="16.2513189"><ele>192.0</ele><time>2026-04-25T07:42:53.976Z</time></trkpt><trkpt lat="39.3285413" lon="16.2510298"><ele>193.0</ele><time>2026-04-25T07:42:54.973Z</time></trkpt><trkpt lat="39.3286302" lon="16.2507411"><ele>192.5</ele><time>2026-04-25T07:42:55.978Z</time></trkpt><trkpt lat="39.3287177" lon="16.2504556"><ele>192.0</ele><time>2026-04-25T07:42:56.975Z</time></trkpt><trkpt lat="39.3288041" lon="16.2501716"><ele>192.0</ele><time>2026-04-25T07:42:57.976Z</time></trkpt><trkpt lat="39.3288894" lon="16.2498904"><ele>192.0</ele><time>2026-04-25T07:42:58.976Z</time></trkpt><trkpt lat="39.3289743" lon="16.2496102"><ele>192.5</ele><time>2026-04-25T07:42:59.986Z</time></trkpt><trkpt lat="39.3290601" lon="16.2493314"><ele>193.0</ele><time>2026-04-25T07:43:00.992Z</time></trkpt><trkpt lat="39.3291438" lon="16.2490592"><ele>193.33333333333331</ele><time>2026-04-25T07:43:01.987Z</time></trkpt><trkpt lat="39.3292235" lon="16.2487969"><ele>193.66666666666669</ele><time>2026-04-25T07:43:02.987Z</time></trkpt><trkpt lat="39.3292997" lon="16.2485461"><ele>194.0</ele><time>2026-04-25T07:43:03.976Z</time></trkpt><trkpt lat="39.3293741" lon="16.2483053"><ele>195.0</ele><time>2026-04-25T07:43:04.974Z</time></trkpt><trkpt lat="39.329448" lon="16.248071"><ele>196.0</ele><time>2026-04-25T07:43:05.981Z</time></trkpt><trkpt lat="39.3295203" lon="16.2478423"><ele>197.0</ele><time>2026-04-25T07:43:06.975Z</time></trkpt><trkpt lat="39.329591" lon="16.2476195"><ele>197.0</ele><time>2026-04-25T07:43:07.974Z</time></trkpt><trkpt lat="39.3296601" lon="16.2474112"><ele>197.0</ele><time>2026-04-25T07:43:08.986Z</time></trkpt><trkpt lat="39.3297317" lon="16.2472212"><ele>197.0</ele><time>2026-04-25T07:43:09.97Z</time></trkpt><trkpt lat="39.3298078" lon="16.2470436"><ele>198.0</ele><time>2026-04-25T07:43:10.972Z</time></trkpt><trkpt lat="39.329892" lon="16.2468738"><ele>199.0</ele><time>2026-04-25T07:43:11.971Z</time></trkpt><trkpt lat="39.3299842" lon="16.2467109"><ele>200.0</ele><time>2026-04-25T07:43:12.975Z</time></trkpt><trkpt lat="39.3300855" lon="16.2465534"><ele>201.33333333333334</ele><time>2026-04-25T07:43:13.978Z</time></trkpt><trkpt lat="39.3301924" lon="16.2464002"><ele>202.66666666666669</ele><time>2026-04-25T07:43:14.97Z</time></trkpt><trkpt lat="39.3303043" lon="16.24625"><ele>204.0</ele><time>2026-04-25T07:43:15.978Z</time></trkpt><trkpt lat="39.3304231" lon="16.246107"><ele>204.0</ele><time>2026-04-25T07:43:16.987Z</time></trkpt><trkpt lat="39.3305475" lon="16.2459717"><ele>204.0</ele><time>2026-04-25T07:43:17.985Z</time></trkpt><trkpt lat="39.3306728" lon="16.245838"><ele>204.0</ele><time>2026-04-25T07:43:18.975Z</time></trkpt><trkpt lat="39.3307961" lon="16.2457025"><ele>203.66666666666669</ele><time>2026-04-25T07:43:19.975Z</time></trkpt><trkpt lat="39.3309186" lon="16.2455641"><ele>203.33333333333334</ele><time>2026-04-25T07:43:20.984Z</time></trkpt><trkpt lat="39.3310431" lon="16.2454227"><ele>203.0</ele><time>2026-04-25T07:43:21.98Z</time></trkpt><trkpt lat="39.3311698" lon="16.2452797"><ele>203.0</ele><time>2026-04-25T07:43:22.985Z</time></trkpt><trkpt lat="39.331297" lon="16.2451333"><ele>203.0</ele><time>2026-04-25T07:43:23.984Z</time></trkpt><trkpt lat="39.3314242" lon="16.2449968"><ele>203.0</ele><time>2026-04-25T07:43:24.976Z</time></trkpt><trkpt lat="39.3315428" lon="16.2448429"><ele>202.66666666666669</ele><time>2026-04-25T07:43:25.987Z</time></trkpt><trkpt lat="39.331648" lon="16.2446767"><ele>202.33333333333331</ele><time>2026-04-25T07:43:26.978Z</time></trkpt><trkpt lat="39.3317482" lon="16.2445037"><ele>202.0</ele><time>2026-04-25T07:43:27.978Z</time></trkpt><trkpt lat="39.3318413" lon="16.2443223"><ele>202.0</ele><time>2026-04-25T07:43:28.977Z</time></trkpt><trkpt lat="39.3319225" lon="16.2441336"><ele>202.0</ele><time>2026-04-25T07:43:29.983Z</time></trkpt><trkpt lat="39.3319953" lon="16.2439434"><ele>202.0</ele><time>2026-04-25T07:43:31.027Z</time></trkpt><trkpt lat="39.3320539" lon="16.2437514"><ele>202.0</ele><time>2026-04-25T07:43:31.977Z</time></trkpt><trkpt lat="39.332104" lon="16.2435528"><ele>202.0</ele><time>2026-04-25T07:43:32.974Z</time></trkpt><trkpt lat="39.3321377" lon="16.2433462"><ele>202.0</ele><time>2026-04-25T07:43:33.971Z</time></trkpt><trkpt lat="39.3321595" lon="16.2431313"><ele>202.0</ele><time>2026-04-25T07:43:34.977Z</time></trkpt><trkpt lat="39.3321723" lon="16.2429034"><ele>202.0</ele><time>2026-04-25T07:43:35.979Z</time></trkpt><trkpt lat="39.3321679" lon="16.242649"><ele>202.0</ele><time>2026-04-25T07:43:36.973Z</time></trkpt><trkpt lat="39.3321518" lon="16.2423652"><ele>203.0</ele><time>2026-04-25T07:43:37.97Z</time></trkpt><trkpt lat="39.332133" lon="16.2420713"><ele>204.0</ele><time>2026-04-25T07:43:38.975Z</time></trkpt><trkpt lat="39.3321197" lon="16.2417855"><ele>204.0</ele><time>2026-04-25T07:43:39.975Z</time></trkpt><trkpt lat="39.3321092" lon="16.2415142"><ele>204.0</ele><time>2026-04-25T07:43:40.975Z</time></trkpt><trkpt lat="39.3321029" lon="16.2412545"><ele>204.0</ele><time>2026-04-25T07:43:41.984Z</time></trkpt><trkpt lat="39.3321047" lon="16.2410054"><ele>204.33333333333331</ele><time>2026-04-25T07:43:42.974Z</time></trkpt><trkpt lat="39.3321204" lon="16.2407682"><ele>204.66666666666666</ele><time>2026-04-25T07:43:43.977Z</time></trkpt><trkpt lat="39.332148" lon="16.2405446"><ele>205.0</ele><time>2026-04-25T07:43:44.978Z</time></trkpt><trkpt lat="39.3321834" lon="16.2403355"><ele>205.25</ele><time>2026-04-25T07:43:45.982Z</time></trkpt><trkpt lat="39.3322268" lon="16.2401401"><ele>205.5</ele><time>2026-04-25T07:43:46.983Z</time></trkpt><trkpt lat="39.332277" lon="16.2399591"><ele>205.75</ele><time>2026-04-25T07:43:47.976Z</time></trkpt><trkpt lat="39.3323347" lon="16.2397944"><ele>206.0</ele><time>2026-04-25T07:43:48.974Z</time></trkpt><trkpt lat="39.3323944" lon="16.2396567"><ele>205.99999999999997</ele><time>2026-04-25T07:43:49.977Z</time></trkpt><trkpt lat="39.3324519" lon="16.2395567"><ele>206.0</ele><time>2026-04-25T07:43:50.978Z</time></trkpt><trkpt lat="39.3325079" lon="16.2394851"><ele>206.0</ele><time>2026-04-25T07:43:51.981Z</time></trkpt><trkpt lat="39.332565" lon="16.2394299"><ele>206.0</ele><time>2026-04-25T07:43:52.968Z</time></trkpt><trkpt lat="39.3326245" lon="16.2393872"><ele>206.0</ele><time>2026-04-25T07:43:53.976Z</time></trkpt><trkpt lat="39.3326849" lon="16.2393539"><ele>205.99999999999997</ele><time>2026-04-25T07:43:54.976Z</time></trkpt><trkpt lat="39.3327391" lon="16.2393099"><ele>206.0</ele><time>2026-04-25T07:43:55.983Z</time></trkpt><trkpt lat="39.3327772" lon="16.2392411"><ele>206.0</ele><time>2026-04-25T07:43:56.972Z</time></trkpt><trkpt lat="39.332795" lon="16.2391473"><ele>206.0</ele><time>2026-04-25T07:43:57.978Z</time></trkpt><trkpt lat="39.332805" lon="16.2390392"><ele>206.0</ele><time>2026-04-25T07:43:58.984Z</time></trkpt><trkpt lat="39.3328152" lon="16.2389176"><ele>206.0</ele><time>2026-04-25T07:43:59.979Z</time></trkpt><trkpt lat="39.3328304" lon="16.2387809"><ele>206.0</ele><time>2026-04-25T07:44:00.98Z</time></trkpt><trkpt lat="39.3328542" lon="16.2386325"><ele>206.0</ele><time>2026-04-25T07:44:01.972Z</time></trkpt><trkpt lat="39.332883" lon="16.2384753"><ele>206.0</ele><time>2026-04-25T07:44:02.985Z</time></trkpt><trkpt lat="39.3329134" lon="16.2383113"><ele>206.0</ele><time>2026-04-25T07:44:03.985Z</time></trkpt><trkpt lat="39.3329456" lon="16.2381409"><ele>206.0</ele><time>2026-04-25T07:44:04.975Z</time></trkpt><trkpt lat="39.3329736" lon="16.2379605"><ele>206.33333333333334</ele><time>2026-04-25T07:44:05.995Z</time></trkpt><trkpt lat="39.3329966" lon="16.2377691"><ele>206.66666666666669</ele><time>2026-04-25T07:44:06.982Z</time></trkpt><trkpt lat="39.3330197" lon="16.2375794"><ele>207.0</ele><time>2026-04-25T07:44:07.975Z</time></trkpt><trkpt lat="39.3330421" lon="16.2373856"><ele>208.0</ele><time>2026-04-25T07:44:08.971Z</time></trkpt><trkpt lat="39.3330545" lon="16.2371729"><ele>209.0</ele><time>2026-04-25T07:44:09.981Z</time></trkpt><trkpt lat="39.3330491" lon="16.2369594"><ele>210.0</ele><time>2026-04-25T07:44:10.988Z</time></trkpt><trkpt lat="39.3330054" lon="16.2367172"><ele>210.0</ele><time>2026-04-25T07:44:11.985Z</time></trkpt><trkpt lat="39.3329582" lon="16.2365206"><ele>210.0</ele><time>2026-04-25T07:44:12.979Z</time></trkpt><trkpt lat="39.3329266" lon="16.2363272"><ele>210.0</ele><time>2026-04-25T07:44:13.992Z</time></trkpt><trkpt lat="39.3328935" lon="16.2361306"><ele>210.66666666666669</ele><time>2026-04-25T07:44:14.995Z</time></trkpt><trkpt lat="39.3328528" lon="16.2359254"><ele>211.33333333333334</ele><time>2026-04-25T07:44:15.973Z</time></trkpt><trkpt lat="39.3328144" lon="16.2357111"><ele>212.0</ele><time>2026-04-25T07:44:16.981Z</time></trkpt><trkpt lat="39.3327746" lon="16.2354857"><ele>213.33333333333334</ele><time>2026-04-25T07:44:17.981Z</time></trkpt><trkpt lat="39.3327296" lon="16.2352343"><ele>214.66666666666669</ele><time>2026-04-25T07:44:18.979Z</time></trkpt><trkpt lat="39.3326759" lon="16.2349443"><ele>216.0</ele><time>2026-04-25T07:44:19.972Z</time></trkpt><trkpt lat="39.3326154" lon="16.2346089"><ele>216.0</ele><time>2026-04-25T07:44:20.981Z</time></trkpt><trkpt lat="39.3325602" lon="16.2342651"><ele>216.0</ele><time>2026-04-25T07:44:21.989Z</time></trkpt><trkpt lat="39.3325162" lon="16.2339599"><ele>216.0</ele><time>2026-04-25T07:44:22.972Z</time></trkpt><trkpt lat="39.3324753" lon="16.2336937"><ele>216.0</ele><time>2026-04-25T07:44:23.975Z</time></trkpt><trkpt lat="39.3324337" lon="16.2334835"><ele>216.0</ele><time>2026-04-25T07:44:24.974Z</time></trkpt><trkpt lat="39.332411" lon="16.2332709"><ele>215.25</ele><time>2026-04-25T07:44:25.989Z</time></trkpt><trkpt lat="39.3323738" lon="16.233078"><ele>214.5</ele><time>2026-04-25T07:44:26.985Z</time></trkpt><trkpt lat="39.3323518" lon="16.2329042"><ele>213.75</ele><time>2026-04-25T07:44:27.998Z</time></trkpt><trkpt lat="39.3323254" lon="16.2327294"><ele>213.0</ele><time>2026-04-25T07:44:28.977Z</time></trkpt><trkpt lat="39.3323095" lon="16.23255"><ele>213.0</ele><time>2026-04-25T07:44:29.99Z</time></trkpt><trkpt lat="39.3322985" lon="16.2323628"><ele>213.0</ele><time>2026-04-25T07:44:30.984Z</time></trkpt><trkpt lat="39.3322937" lon="16.2321595"><ele>213.0</ele><time>2026-04-25T07:44:31.982Z</time></trkpt><trkpt lat="39.3323056" lon="16.231933"><ele>213.0</ele><time>2026-04-25T07:44:32.991Z</time></trkpt><trkpt lat="39.3323345" lon="16.2317167"><ele>213.0</ele><time>2026-04-25T07:44:33.97Z</time></trkpt><trkpt lat="39.3323703" lon="16.2315208"><ele>213.0</ele><time>2026-04-25T07:44:34.978Z</time></trkpt><trkpt lat="39.3324117" lon="16.2313378"><ele>213.33333333333331</ele><time>2026-04-25T07:44:35.983Z</time></trkpt><trkpt lat="39.3324537" lon="16.2311581"><ele>213.66666666666666</ele><time>2026-04-25T07:44:36.98Z</time></trkpt><trkpt lat="39.3325195" lon="16.2309761"><ele>214.0</ele><time>2026-04-25T07:44:37.98Z</time></trkpt><trkpt lat="39.3325963" lon="16.2307985"><ele>212.66666666666666</ele><time>2026-04-25T07:44:38.977Z</time></trkpt><trkpt lat="39.33269" lon="16.2306222"><ele>211.33333333333331</ele><time>2026-04-25T07:44:39.982Z</time></trkpt><trkpt lat="39.3327907" lon="16.2304512"><ele>210.0</ele><time>2026-04-25T07:44:40.969Z</time></trkpt><trkpt lat="39.3329009" lon="16.2302858"><ele>210.0</ele><time>2026-04-25T07:44:41.971Z</time></trkpt><trkpt lat="39.3330214" lon="16.2301287"><ele>210.0</ele><time>2026-04-25T07:44:42.979Z</time></trkpt><trkpt lat="39.3331578" lon="16.2299838"><ele>210.0</ele><time>2026-04-25T07:44:43.97Z</time></trkpt><trkpt lat="39.3333001" lon="16.229851"><ele>210.0</ele><time>2026-04-25T07:44:44.97Z</time></trkpt><trkpt lat="39.3334456" lon="16.2297308"><ele>210.0</ele><time>2026-04-25T07:44:45.985Z</time></trkpt><trkpt lat="39.3335995" lon="16.2296267"><ele>210.0</ele><time>2026-04-25T07:44:46.974Z</time></trkpt><trkpt lat="39.3337596" lon="16.2295303"><ele>208.66666666666669</ele><time>2026-04-25T07:44:47.975Z</time></trkpt><trkpt lat="39.3339432" lon="16.2294567"><ele>207.33333333333334</ele><time>2026-04-25T07:44:48.977Z</time></trkpt><trkpt lat="39.3341184" lon="16.2293981"><ele>206.0</ele><time>2026-04-25T07:44:49.975Z</time></trkpt><trkpt lat="39.3342956" lon="16.2293475"><ele>206.0</ele><time>2026-04-25T07:44:50.978Z</time></trkpt><trkpt lat="39.3344863" lon="16.2292963"><ele>206.0</ele><time>2026-04-25T07:44:51.981Z</time></trkpt><trkpt lat="39.3346981" lon="16.2292416"><ele>206.0</ele><time>2026-04-25T07:44:52.971Z</time></trkpt><trkpt lat="39.3349253" lon="16.2291882"><ele>204.0</ele><time>2026-04-25T07:44:53.981Z</time></trkpt><trkpt lat="39.3351625" lon="16.2291391"><ele>202.0</ele><time>2026-04-25T07:44:54.977Z</time></trkpt><trkpt lat="39.3354172" lon="16.2290945"><ele>203.5</ele><time>2026-04-25T07:44:55.979Z</time></trkpt><trkpt lat="39.335676" lon="16.2290448"><ele>205.0</ele><time>2026-04-25T07:44:56.979Z</time></trkpt><trkpt lat="39.33594" lon="16.2289926"><ele>204.5</ele><time>2026-04-25T07:44:57.976Z</time></trkpt><trkpt lat="39.3361977" lon="16.2289377"><ele>204.0</ele><time>2026-04-25T07:44:58.981Z</time></trkpt><trkpt lat="39.3364502" lon="16.2288908"><ele>205.5</ele><time>2026-04-25T07:44:59.979Z</time></trkpt><trkpt lat="39.3366944" lon="16.2288666"><ele>207.0</ele><time>2026-04-25T07:45:00.985Z</time></trkpt><trkpt lat="39.3369348" lon="16.2288654"><ele>207.0</ele><time>2026-04-25T07:45:01.972Z</time></trkpt><trkpt lat="39.337173" lon="16.2288938"><ele>207.0</ele><time>2026-04-25T07:45:02.978Z</time></trkpt><trkpt lat="39.3374063" lon="16.2289537"><ele>208.5</ele><time>2026-04-25T07:45:03.972Z</time></trkpt><trkpt lat="39.3376312" lon="16.2290454"><ele>210.0</ele><time>2026-04-25T07:45:04.972Z</time></trkpt><trkpt lat="39.3378467" lon="16.2291698"><ele>211.0</ele><time>2026-04-25T07:45:05.98Z</time></trkpt><trkpt lat="39.3380531" lon="16.2293244"><ele>212.0</ele><time>2026-04-25T07:45:06.978Z</time></trkpt><trkpt lat="39.3382499" lon="16.2295101"><ele>212.0</ele><time>2026-04-25T07:45:07.974Z</time></trkpt><trkpt lat="39.3384331" lon="16.2297277"><ele>212.0</ele><time>2026-04-25T07:45:08.976Z</time></trkpt><trkpt lat="39.3386027" lon="16.2299743"><ele>211.0</ele><time>2026-04-25T07:45:09.981Z</time></trkpt><trkpt lat="39.3387571" lon="16.230241"><ele>210.0</ele><time>2026-04-25T07:45:10.981Z</time></trkpt><trkpt lat="39.3389017" lon="16.2305161"><ele>212.0</ele><time>2026-04-25T07:45:11.978Z</time></trkpt><trkpt lat="39.3390394" lon="16.2307929"><ele>214.0</ele><time>2026-04-25T07:45:12.978Z</time></trkpt><trkpt lat="39.3391734" lon="16.2310693"><ele>214.0</ele><time>2026-04-25T07:45:13.974Z</time></trkpt><trkpt lat="39.3393047" lon="16.2313409"><ele>214.0</ele><time>2026-04-25T07:45:14.971Z</time></trkpt><trkpt lat="39.3394406" lon="16.2316021"><ele>216.0</ele><time>2026-04-25T07:45:15.975Z</time></trkpt><trkpt lat="39.3395917" lon="16.2318439"><ele>218.0</ele><time>2026-04-25T07:45:16.979Z</time></trkpt><trkpt lat="39.3397552" lon="16.2320663"><ele>218.0</ele><time>2026-04-25T07:45:17.971Z</time></trkpt><trkpt lat="39.3399293" lon="16.2322693"><ele>218.0</ele><time>2026-04-25T07:45:18.969Z</time></trkpt><trkpt lat="39.3401154" lon="16.2324522"><ele>212.0</ele><time>2026-04-25T07:45:19.979Z</time></trkpt><trkpt lat="39.3403159" lon="16.2326122"><ele>206.0</ele><time>2026-04-25T07:45:20.972Z</time></trkpt><trkpt lat="39.3405275" lon="16.2327467"><ele>208.0</ele><time>2026-04-25T07:45:21.974Z</time></trkpt><trkpt lat="39.3407479" lon="16.2328554"><ele>210.0</ele><time>2026-04-25T07:45:22.976Z</time></trkpt><trkpt lat="39.3409742" lon="16.2329352"><ele>210.0</ele><time>2026-04-25T07:45:23.977Z</time></trkpt><trkpt lat="39.3412051" lon="16.2329905"><ele>210.0</ele><time>2026-04-25T07:45:24.971Z</time></trkpt><trkpt lat="39.3414374" lon="16.2330317"><ele>212.5</ele><time>2026-04-25T07:45:25.977Z</time></trkpt><trkpt lat="39.3416706" lon="16.2330679"><ele>215.0</ele><time>2026-04-25T07:45:26.971Z</time></trkpt><trkpt lat="39.3419049" lon="16.2331038"><ele>215.0</ele><time>2026-04-25T07:45:27.968Z</time></trkpt><trkpt lat="39.3421404" lon="16.2331368"><ele>215.0</ele><time>2026-04-25T07:45:28.98Z</time></trkpt><trkpt lat="39.342371" lon="16.23317"><ele>212.0</ele><time>2026-04-25T07:45:29.975Z</time></trkpt><trkpt lat="39.3426037" lon="16.2332037"><ele>209.0</ele><time>2026-04-25T07:45:30.972Z</time></trkpt><trkpt lat="39.3428482" lon="16.2332388"><ele>209.5</ele><time>2026-04-25T07:45:31.978Z</time></trkpt><trkpt lat="39.3431013" lon="16.2332827"><ele>210.0</ele><time>2026-04-25T07:45:32.984Z</time></trkpt><trkpt lat="39.3433574" lon="16.2333332"><ele>210.0</ele><time>2026-04-25T07:45:33.973Z</time></trkpt><trkpt lat="39.3436167" lon="16.2333836"><ele>210.0</ele><time>2026-04-25T07:45:34.98Z</time></trkpt><trkpt lat="39.3438774" lon="16.2334293"><ele>209.0</ele><time>2026-04-25T07:45:35.976Z</time></trkpt><trkpt lat="39.344135" lon="16.2334686"><ele>208.0</ele><time>2026-04-25T07:45:36.975Z</time></trkpt><trkpt lat="39.3443879" lon="16.2335075"><ele>208.0</ele><time>2026-04-25T07:45:37.982Z</time></trkpt><trkpt lat="39.3446359" lon="16.2335453"><ele>208.0</ele><time>2026-04-25T07:45:38.996Z</time></trkpt><trkpt lat="39.3448791" lon="16.2335818"><ele>209.0</ele><time>2026-04-25T07:45:39.988Z</time></trkpt><trkpt lat="39.3451187" lon="16.2336197"><ele>210.0</ele><time>2026-04-25T07:45:40.982Z</time></trkpt><trkpt lat="39.3453561" lon="16.2336601"><ele>211.5</ele><time>2026-04-25T07:45:41.984Z</time></trkpt><trkpt lat="39.3455912" lon="16.2337026"><ele>213.0</ele><time>2026-04-25T07:45:42.984Z</time></trkpt><trkpt lat="39.3458238" lon="16.2337445"><ele>213.0</ele><time>2026-04-25T07:45:43.983Z</time></trkpt><trkpt lat="39.3460537" lon="16.2337859"><ele>213.0</ele><time>2026-04-25T07:45:44.975Z</time></trkpt><trkpt lat="39.3462825" lon="16.2338271"><ele>212.0</ele><time>2026-04-25T07:45:45.982Z</time></trkpt><trkpt lat="39.3465142" lon="16.2338672"><ele>211.0</ele><time>2026-04-25T07:45:46.983Z</time></trkpt><trkpt lat="39.3467557" lon="16.2339052"><ele>211.0</ele><time>2026-04-25T07:45:47.985Z</time></trkpt><trkpt lat="39.346997" lon="16.233945"><ele>211.0</ele><time>2026-04-25T07:45:48.983Z</time></trkpt><trkpt lat="39.3472301" lon="16.2339835"><ele>205.5</ele><time>2026-04-25T07:45:49.984Z</time></trkpt><trkpt lat="39.3474631" lon="16.2340163"><ele>200.0</ele><time>2026-04-25T07:45:50.985Z</time></trkpt><trkpt lat="39.3477009" lon="16.2340367"><ele>200.0</ele><time>2026-04-25T07:45:51.973Z</time></trkpt><trkpt lat="39.3479311" lon="16.2340442"><ele>200.0</ele><time>2026-04-25T07:45:52.99Z</time></trkpt><trkpt lat="39.34815" lon="16.2340384"><ele>200.0</ele><time>2026-04-25T07:45:53.985Z</time></trkpt><trkpt lat="39.3483559" lon="16.2340156"><ele>199.0</ele><time>2026-04-25T07:45:54.973Z</time></trkpt><trkpt lat="39.3485564" lon="16.2339746"><ele>198.0</ele><time>2026-04-25T07:45:55.985Z</time></trkpt><trkpt lat="39.3487613" lon="16.2339146"><ele>197.0</ele><time>2026-04-25T07:45:56.98Z</time></trkpt><trkpt lat="39.3489625" lon="16.2338398"><ele>197.0</ele><time>2026-04-25T07:45:57.978Z</time></trkpt><trkpt lat="39.3491564" lon="16.2337526"><ele>197.0</ele><time>2026-04-25T07:45:58.977Z</time></trkpt><trkpt lat="39.3493407" lon="16.2336516"><ele>197.0</ele><time>2026-04-25T07:45:59.983Z</time></trkpt><trkpt lat="39.3495261" lon="16.2335386"><ele>197.0</ele><time>2026-04-25T07:46:00.981Z</time></trkpt><trkpt lat="39.3496987" lon="16.2334008"><ele>197.0</ele><time>2026-04-25T07:46:01.98Z</time></trkpt><trkpt lat="39.3498671" lon="16.2332519"><ele>197.0</ele><time>2026-04-25T07:46:02.986Z</time></trkpt><trkpt lat="39.3500314" lon="16.2330899"><ele>197.0</ele><time>2026-04-25T07:46:03.979Z</time></trkpt><trkpt lat="39.3501875" lon="16.2329189"><ele>197.0</ele><time>2026-04-25T07:46:04.97Z</time></trkpt><trkpt lat="39.3503406" lon="16.2327285"><ele>197.0</ele><time>2026-04-25T07:46:05.982Z</time></trkpt><trkpt lat="39.350486" lon="16.2325255"><ele>197.0</ele><time>2026-04-25T07:46:06.98Z</time></trkpt><trkpt lat="39.3506198" lon="16.2323108"><ele>197.0</ele><time>2026-04-25T07:46:07.979Z</time></trkpt><trkpt lat="39.3507293" lon="16.2321084"><ele>197.0</ele><time>2026-04-25T07:46:08.974Z</time></trkpt><trkpt lat="39.3508183" lon="16.2319318"><ele>198.0</ele><time>2026-04-25T07:46:09.976Z</time></trkpt><trkpt lat="39.3509014" lon="16.2317897"><ele>199.0</ele><time>2026-04-25T07:46:10.975Z</time></trkpt><trkpt lat="39.3509936" lon="16.2316884"><ele>200.0</ele><time>2026-04-25T07:46:11.979Z</time></trkpt><trkpt lat="39.3510887" lon="16.2316165"><ele>201.0</ele><time>2026-04-25T07:46:12.973Z</time></trkpt><trkpt lat="39.3511877" lon="16.2315687"><ele>201.0</ele><time>2026-04-25T07:46:13.977Z</time></trkpt><trkpt lat="39.3512935" lon="16.2315412"><ele>201.0</ele><time>2026-04-25T07:46:14.986Z</time></trkpt><trkpt lat="39.3513998" lon="16.2315359"><ele>201.0</ele><time>2026-04-25T07:46:15.987Z</time></trkpt><trkpt lat="39.3515004" lon="16.2315567"><ele>201.0</ele><time>2026-04-25T07:46:16.976Z</time></trkpt><trkpt lat="39.3515896" lon="16.2315927"><ele>201.0</ele><time>2026-04-25T07:46:17.985Z</time></trkpt><trkpt lat="39.3516644" lon="16.2316358"><ele>200.8</ele><time>2026-04-25T07:46:18.973Z</time></trkpt><trkpt lat="39.3517221" lon="16.2316799"><ele>200.60000000000002</ele><time>2026-04-25T07:46:19.978Z</time></trkpt><trkpt lat="39.3517923" lon="16.2317605"><ele>200.4</ele><time>2026-04-25T07:46:21.983Z</time></trkpt><trkpt lat="39.3518651" lon="16.2318814"><ele>200.2</ele><time>2026-04-25T07:46:28.987Z</time></trkpt><trkpt lat="39.3519096" lon="16.2319665"><ele>200.0</ele><time>2026-04-25T07:46:29.982Z</time></trkpt><trkpt lat="39.351969" lon="16.232093"><ele>200.0</ele><time>2026-04-25T07:46:30.974Z</time></trkpt><trkpt lat="39.3520376" lon="16.2322542"><ele>200.0</ele><time>2026-04-25T07:46:31.972Z</time></trkpt><trkpt lat="39.3521177" lon="16.232435"><ele>200.0</ele><time>2026-04-25T07:46:32.973Z</time></trkpt><trkpt lat="39.3522087" lon="16.2326244"><ele>199.33333333333334</ele><time>2026-04-25T07:46:33.982Z</time></trkpt><trkpt lat="39.3523045" lon="16.2328149"><ele>198.66666666666669</ele><time>2026-04-25T07:46:34.976Z</time></trkpt><trkpt lat="39.3523969" lon="16.2329968"><ele>198.0</ele><time>2026-04-25T07:46:35.975Z</time></trkpt><trkpt lat="39.3524806" lon="16.2331704"><ele>197.33333333333331</ele><time>2026-04-25T07:46:36.98Z</time></trkpt><trkpt lat="39.3525548" lon="16.2333429"><ele>196.66666666666666</ele><time>2026-04-25T07:46:37.976Z</time></trkpt><trkpt lat="39.3526259" lon="16.2335143"><ele>196.0</ele><time>2026-04-25T07:46:38.975Z</time></trkpt><trkpt lat="39.3526965" lon="16.2336834"><ele>196.0</ele><time>2026-04-25T07:46:39.975Z</time></trkpt><trkpt lat="39.3527659" lon="16.2338424"><ele>196.0</ele><time>2026-04-25T07:46:40.993Z</time></trkpt><trkpt lat="39.3528382" lon="16.2340075"><ele>196.0</ele><time>2026-04-25T07:46:41.973Z</time></trkpt><trkpt lat="39.3529033" lon="16.2341649"><ele>196.0</ele><time>2026-04-25T07:46:42.973Z</time></trkpt><trkpt lat="39.3529461" lon="16.2343252"><ele>195.4</ele><time>2026-04-25T07:46:43.985Z</time></trkpt><trkpt lat="39.3529673" lon="16.2344699"><ele>194.8</ele><time>2026-04-25T07:46:44.981Z</time></trkpt><trkpt lat="39.3529692" lon="16.2346041"><ele>194.20000000000002</ele><time>2026-04-25T07:46:45.988Z</time></trkpt><trkpt lat="39.352955" lon="16.2347202"><ele>193.60000000000002</ele><time>2026-04-25T07:46:46.971Z</time></trkpt><trkpt lat="39.3529083" lon="16.2348247"><ele>193.0</ele><time>2026-04-25T07:46:47.989Z</time></trkpt><trkpt lat="39.3528536" lon="16.2349122"><ele>192.2</ele><time>2026-04-25T07:46:48.973Z</time></trkpt><trkpt lat="39.3527979" lon="16.2350022"><ele>191.4</ele><time>2026-04-25T07:46:49.975Z</time></trkpt><trkpt lat="39.3527559" lon="16.2351028"><ele>190.6</ele><time>2026-04-25T07:46:50.98Z</time></trkpt><trkpt lat="39.3527248" lon="16.2352165"><ele>189.79999999999998</ele><time>2026-04-25T07:46:51.978Z</time></trkpt><trkpt lat="39.3526946" lon="16.2353251"><ele>189.0</ele><time>2026-04-25T07:46:52.982Z</time></trkpt><trkpt lat="39.3526556" lon="16.2354313"><ele>189.0</ele><time>2026-04-25T07:46:53.98Z</time></trkpt><trkpt lat="39.3526025" lon="16.2355245"><ele>189.0</ele><time>2026-04-25T07:46:54.987Z</time></trkpt><trkpt lat="39.352532" lon="16.2355954"><ele>189.0</ele><time>2026-04-25T07:46:55.984Z</time></trkpt><trkpt lat="39.3524538" lon="16.2356401"><ele>189.0</ele><time>2026-04-25T07:46:56.984Z</time></trkpt><trkpt lat="39.3523729" lon="16.2356662"><ele>189.0</ele><time>2026-04-25T07:46:57.987Z</time></trkpt><trkpt lat="39.3522849" lon="16.235674"><ele>189.0</ele><time>2026-04-25T07:46:58.974Z</time></trkpt><trkpt lat="39.3521934" lon="16.2356632"><ele>189.39999999999998</ele><time>2026-04-25T07:46:59.978Z</time></trkpt><trkpt lat="39.3521003" lon="16.2356311"><ele>189.8</ele><time>2026-04-25T07:47:00.977Z</time></trkpt><trkpt lat="39.3520123" lon="16.2355677"><ele>190.2</ele><time>2026-04-25T07:47:01.986Z</time></trkpt><trkpt lat="39.3519341" lon="16.235474"><ele>190.60000000000002</ele><time>2026-04-25T07:47:02.976Z</time></trkpt><trkpt lat="39.3518627" lon="16.2353609"><ele>191.0</ele><time>2026-04-25T07:47:03.976Z</time></trkpt><trkpt lat="39.3517986" lon="16.2352329"><ele>191.0</ele><time>2026-04-25T07:47:04.974Z</time></trkpt><trkpt lat="39.3517469" lon="16.2350911"><ele>191.0</ele><time>2026-04-25T07:47:05.983Z</time></trkpt><trkpt lat="39.3517168" lon="16.2349399"><ele>191.0</ele><time>2026-04-25T07:47:06.995Z</time></trkpt><trkpt lat="39.3517081" lon="16.2347837"><ele>191.0</ele><time>2026-04-25T07:47:07.987Z</time></trkpt><trkpt lat="39.3517223" lon="16.2346261"><ele>192.75</ele><time>2026-04-25T07:47:08.981Z</time></trkpt><trkpt lat="39.3517595" lon="16.2344738"><ele>194.5</ele><time>2026-04-25T07:47:09.986Z</time></trkpt><trkpt lat="39.3518202" lon="16.2343317"><ele>196.25</ele><time>2026-04-25T07:47:10.978Z</time></trkpt><trkpt lat="39.3519034" lon="16.2342057"><ele>198.0</ele><time>2026-04-25T07:47:11.979Z</time></trkpt><trkpt lat="39.3520071" lon="16.2341031"><ele>198.0</ele><time>2026-04-25T07:47:12.992Z</time></trkpt><trkpt lat="39.3521303" lon="16.2340339"><ele>198.0</ele><time>2026-04-25T07:47:13.982Z</time></trkpt><trkpt lat="39.3522683" lon="16.2339936"><ele>198.0</ele><time>2026-04-25T07:47:14.984Z</time></trkpt><trkpt lat="39.3524162" lon="16.2339652"><ele>198.0</ele><time>2026-04-25T07:47:15.988Z</time></trkpt><trkpt lat="39.3525724" lon="16.2339365"><ele>197.33333333333331</ele><time>2026-04-25T07:47:17.008Z</time></trkpt><trkpt lat="39.3527394" lon="16.2339088"><ele>196.66666666666666</ele><time>2026-04-25T07:47:17.99Z</time></trkpt><trkpt lat="39.3529163" lon="16.2338817"><ele>196.0</ele><time>2026-04-25T07:47:18.996Z</time></trkpt><trkpt lat="39.3531036" lon="16.2338565"><ele>196.0</ele><time>2026-04-25T07:47:19.985Z</time></trkpt><trkpt lat="39.3533032" lon="16.2338332"><ele>196.0</ele><time>2026-04-25T07:47:20.983Z</time></trkpt><trkpt lat="39.3535171" lon="16.2337986"><ele>196.0</ele><time>2026-04-25T07:47:21.972Z</time></trkpt><trkpt lat="39.3537482" lon="16.2337635"><ele>196.0</ele><time>2026-04-25T07:47:22.979Z</time></trkpt><trkpt lat="39.3540155" lon="16.2337263"><ele>196.0</ele><time>2026-04-25T07:47:23.976Z</time></trkpt><trkpt lat="39.3543288" lon="16.2336901"><ele>196.0</ele><time>2026-04-25T07:47:24.975Z</time></trkpt><trkpt lat="39.354676" lon="16.2336629"><ele>196.0</ele><time>2026-04-25T07:47:25.982Z</time></trkpt><trkpt lat="39.355053" lon="16.2336455"><ele>196.0</ele><time>2026-04-25T07:47:26.982Z</time></trkpt><trkpt lat="39.3554542" lon="16.233633"><ele>196.0</ele><time>2026-04-25T07:47:27.976Z</time></trkpt><trkpt lat="39.3558794" lon="16.2336213"><ele>198.5</ele><time>2026-04-25T07:47:28.978Z</time></trkpt><trkpt lat="39.3563237" lon="16.23361"><ele>201.0</ele><time>2026-04-25T07:47:29.978Z</time></trkpt><trkpt lat="39.3567719" lon="16.2335991"><ele>199.0</ele><time>2026-04-25T07:47:30.977Z</time></trkpt><trkpt lat="39.3572035" lon="16.2335918"><ele>197.0</ele><time>2026-04-25T07:47:31.971Z</time></trkpt><trkpt lat="39.357622" lon="16.2335891"><ele>197.0</ele><time>2026-04-25T07:47:32.984Z</time></trkpt><trkpt lat="39.3580265" lon="16.2335908"><ele>197.0</ele><time>2026-04-25T07:47:33.984Z</time></trkpt><trkpt lat="39.35842" lon="16.2335964"><ele>195.5</ele><time>2026-04-25T07:47:34.972Z</time></trkpt><trkpt lat="39.3588025" lon="16.2336128"><ele>194.0</ele><time>2026-04-25T07:47:35.969Z</time></trkpt><trkpt lat="39.3591744" lon="16.2336371"><ele>190.5</ele><time>2026-04-25T07:47:36.984Z</time></trkpt><trkpt lat="39.3595389" lon="16.2336739"><ele>187.0</ele><time>2026-04-25T07:47:37.979Z</time></trkpt><trkpt lat="39.3598965" lon="16.2337266"><ele>187.0</ele><time>2026-04-25T07:47:38.973Z</time></trkpt><trkpt lat="39.3602493" lon="16.233795"><ele>187.0</ele><time>2026-04-25T07:47:39.987Z</time></trkpt><trkpt lat="39.3605981" lon="16.2338768"><ele>185.5</ele><time>2026-04-25T07:47:40.97Z</time></trkpt><trkpt lat="39.3609448" lon="16.2339727"><ele>184.0</ele><time>2026-04-25T07:47:41.975Z</time></trkpt><trkpt lat="39.3612892" lon="16.2340805"><ele>183.5</ele><time>2026-04-25T07:47:42.975Z</time></trkpt><trkpt lat="39.3616315" lon="16.2341964"><ele>183.0</ele><time>2026-04-25T07:47:43.981Z</time></trkpt><trkpt lat="39.3619722" lon="16.2343195"><ele>183.5</ele><time>2026-04-25T07:47:44.975Z</time></trkpt><trkpt lat="39.3623112" lon="16.2344483"><ele>184.0</ele><time>2026-04-25T07:47:45.978Z</time></trkpt><trkpt lat="39.3626484" lon="16.2345802"><ele>184.0</ele><time>2026-04-25T07:47:46.975Z</time></trkpt><trkpt lat="39.3629836" lon="16.2347136"><ele>184.0</ele><time>2026-04-25T07:47:47.983Z</time></trkpt><trkpt lat="39.363315" lon="16.2348483"><ele>182.0</ele><time>2026-04-25T07:47:48.975Z</time></trkpt><trkpt lat="39.3636423" lon="16.234985"><ele>180.0</ele><time>2026-04-25T07:47:49.981Z</time></trkpt><trkpt lat="39.3639689" lon="16.2351228"><ele>180.0</ele><time>2026-04-25T07:47:50.978Z</time></trkpt><trkpt lat="39.3642971" lon="16.2352597"><ele>180.0</ele><time>2026-04-25T07:47:51.988Z</time></trkpt><trkpt lat="39.3646271" lon="16.2353956"><ele>179.0</ele><time>2026-04-25T07:47:52.974Z</time></trkpt><trkpt lat="39.3649588" lon="16.2355324"><ele>178.0</ele><time>2026-04-25T07:47:53.975Z</time></trkpt><trkpt lat="39.3652918" lon="16.2356704"><ele>179.5</ele><time>2026-04-25T07:47:54.974Z</time></trkpt><trkpt lat="39.3656261" lon="16.235807"><ele>181.0</ele><time>2026-04-25T07:47:55.98Z</time></trkpt><trkpt lat="39.3659632" lon="16.2359406"><ele>181.0</ele><time>2026-04-25T07:47:56.975Z</time></trkpt><trkpt lat="39.366303" lon="16.2360663"><ele>181.0</ele><time>2026-04-25T07:47:57.993Z</time></trkpt><trkpt lat="39.3666435" lon="16.2361812"><ele>181.0</ele><time>2026-04-25T07:47:58.975Z</time></trkpt><trkpt lat="39.3669868" lon="16.2362829"><ele>181.0</ele><time>2026-04-25T07:47:59.981Z</time></trkpt><trkpt lat="39.3673311" lon="16.2363688"><ele>182.5</ele><time>2026-04-25T07:48:00.982Z</time></trkpt><trkpt lat="39.3676763" lon="16.2364354"><ele>184.0</ele><time>2026-04-25T07:48:01.983Z</time></trkpt><trkpt lat="39.3680229" lon="16.2364815"><ele>180.0</ele><time>2026-04-25T07:48:02.978Z</time></trkpt><trkpt lat="39.3683696" lon="16.2365119"><ele>176.0</ele><time>2026-04-25T07:48:03.981Z</time></trkpt><trkpt lat="39.3687161" lon="16.2365305"><ele>175.5</ele><time>2026-04-25T07:48:04.975Z</time></trkpt><trkpt lat="39.3690619" lon="16.2365393"><ele>175.0</ele><time>2026-04-25T07:48:05.973Z</time></trkpt><trkpt lat="39.3694068" lon="16.2365422"><ele>173.5</ele><time>2026-04-25T07:48:06.988Z</time></trkpt><trkpt lat="39.3697488" lon="16.236544"><ele>172.0</ele><time>2026-04-25T07:48:07.979Z</time></trkpt><trkpt lat="39.370089" lon="16.2365434"><ele>172.0</ele><time>2026-04-25T07:48:08.993Z</time></trkpt><trkpt lat="39.3704344" lon="16.2365398"><ele>172.0</ele><time>2026-04-25T07:48:09.984Z</time></trkpt><trkpt lat="39.370772" lon="16.2365267"><ele>172.0</ele><time>2026-04-25T07:48:10.985Z</time></trkpt><trkpt lat="39.3711209" lon="16.2365249"><ele>172.0</ele><time>2026-04-25T07:48:11.977Z</time></trkpt><trkpt lat="39.3714688" lon="16.2365211"><ele>172.0</ele><time>2026-04-25T07:48:12.985Z</time></trkpt><trkpt lat="39.3718102" lon="16.2365204"><ele>172.0</ele><time>2026-04-25T07:48:13.982Z</time></trkpt><trkpt lat="39.3721541" lon="16.2365151"><ele>173.0</ele><time>2026-04-25T07:48:14.981Z</time></trkpt><trkpt lat="39.3725036" lon="16.2365069"><ele>174.0</ele><time>2026-04-25T07:48:15.992Z</time></trkpt><trkpt lat="39.3728485" lon="16.2364973"><ele>173.5</ele><time>2026-04-25T07:48:16.983Z</time></trkpt><trkpt lat="39.3731898" lon="16.2364895"><ele>173.0</ele><time>2026-04-25T07:48:17.987Z</time></trkpt><trkpt lat="39.3735338" lon="16.2364846"><ele>171.0</ele><time>2026-04-25T07:48:18.986Z</time></trkpt><trkpt lat="39.3738741" lon="16.2364838"><ele>169.0</ele><time>2026-04-25T07:48:19.989Z</time></trkpt><trkpt lat="39.3742159" lon="16.2364806"><ele>169.0</ele><time>2026-04-25T07:48:20.986Z</time></trkpt><trkpt lat="39.374557" lon="16.2364726"><ele>169.0</ele><time>2026-04-25T07:48:21.976Z</time></trkpt><trkpt lat="39.3748981" lon="16.2364715"><ele>169.5</ele><time>2026-04-25T07:48:22.987Z</time></trkpt><trkpt lat="39.3752399" lon="16.2364666"><ele>170.0</ele><time>2026-04-25T07:48:23.99Z</time></trkpt><trkpt lat="39.3755863" lon="16.2364667"><ele>171.0</ele><time>2026-04-25T07:48:24.981Z</time></trkpt><trkpt lat="39.3759313" lon="16.2364666"><ele>172.0</ele><time>2026-04-25T07:48:25.993Z</time></trkpt><trkpt lat="39.3762765" lon="16.2364662"><ele>173.0</ele><time>2026-04-25T07:48:26.981Z</time></trkpt><trkpt lat="39.3766238" lon="16.2364645"><ele>174.0</ele><time>2026-04-25T07:48:27.985Z</time></trkpt><trkpt lat="39.376971" lon="16.2364598"><ele>173.5</ele><time>2026-04-25T07:48:28.987Z</time></trkpt><trkpt lat="39.3773187" lon="16.2364543"><ele>173.0</ele><time>2026-04-25T07:48:29.988Z</time></trkpt><trkpt lat="39.3776694" lon="16.2364511"><ele>171.0</ele><time>2026-04-25T07:48:30.987Z</time></trkpt><trkpt lat="39.3780236" lon="16.2364477"><ele>169.0</ele><time>2026-04-25T07:48:31.989Z</time></trkpt><trkpt lat="39.3783706" lon="16.2364418"><ele>169.0</ele><time>2026-04-25T07:48:32.978Z</time></trkpt><trkpt lat="39.3787237" lon="16.2364427"><ele>169.0</ele><time>2026-04-25T07:48:33.982Z</time></trkpt><trkpt lat="39.3790789" lon="16.2364409"><ele>166.5</ele><time>2026-04-25T07:48:34.982Z</time></trkpt><trkpt lat="39.3794417" lon="16.2364387"><ele>164.0</ele><time>2026-04-25T07:48:35.978Z</time></trkpt><trkpt lat="39.3797964" lon="16.2364429"><ele>163.0</ele><time>2026-04-25T07:48:36.974Z</time></trkpt><trkpt lat="39.3801519" lon="16.2364429"><ele>162.0</ele><time>2026-04-25T07:48:37.987Z</time></trkpt><trkpt lat="39.3805099" lon="16.2364412"><ele>161.5</ele><time>2026-04-25T07:48:38.983Z</time></trkpt><trkpt lat="39.3808649" lon="16.2364388"><ele>161.0</ele><time>2026-04-25T07:48:39.979Z</time></trkpt><trkpt lat="39.3812207" lon="16.2364375"><ele>161.0</ele><time>2026-04-25T07:48:40.994Z</time></trkpt><trkpt lat="39.3815755" lon="16.2364393"><ele>161.0</ele><time>2026-04-25T07:48:41.981Z</time></trkpt><trkpt lat="39.3819315" lon="16.2364454"><ele>160.0</ele><time>2026-04-25T07:48:42.98Z</time></trkpt><trkpt lat="39.3822856" lon="16.2364569"><ele>159.0</ele><time>2026-04-25T07:48:43.984Z</time></trkpt><trkpt lat="39.3826383" lon="16.236477"><ele>159.0</ele><time>2026-04-25T07:48:44.984Z</time></trkpt><trkpt lat="39.3829895" lon="16.2365067"><ele>159.0</ele><time>2026-04-25T07:48:45.974Z</time></trkpt><trkpt lat="39.3833394" lon="16.2365505"><ele>159.0</ele><time>2026-04-25T07:48:46.98Z</time></trkpt><trkpt lat="39.3836863" lon="16.2366116"><ele>159.0</ele><time>2026-04-25T07:48:47.984Z</time></trkpt><trkpt lat="39.3840298" lon="16.2366896"><ele>159.0</ele><time>2026-04-25T07:48:48.975Z</time></trkpt><trkpt lat="39.3843736" lon="16.2367728"><ele>159.0</ele><time>2026-04-25T07:48:49.982Z</time></trkpt><trkpt lat="39.3847067" lon="16.2368935"><ele>159.0</ele><time>2026-04-25T07:48:50.991Z</time></trkpt><trkpt lat="39.3850352" lon="16.2370262"><ele>159.0</ele><time>2026-04-25T07:48:51.971Z</time></trkpt><trkpt lat="39.3853634" lon="16.2371774"><ele>160.0</ele><time>2026-04-25T07:48:52.987Z</time></trkpt><trkpt lat="39.3856841" lon="16.2373427"><ele>161.0</ele><time>2026-04-25T07:48:53.983Z</time></trkpt><trkpt lat="39.3859979" lon="16.2375251"><ele>161.0</ele><time>2026-04-25T07:48:54.974Z</time></trkpt><trkpt lat="39.3863073" lon="16.2377217"><ele>161.0</ele><time>2026-04-25T07:48:55.99Z</time></trkpt><trkpt lat="39.3866101" lon="16.2379334"><ele>160.5</ele><time>2026-04-25T07:48:56.987Z</time></trkpt><trkpt lat="39.3869076" lon="16.2381574"><ele>160.0</ele><time>2026-04-25T07:48:57.98Z</time></trkpt><trkpt lat="39.3871997" lon="16.2383948"><ele>160.0</ele><time>2026-04-25T07:48:58.981Z</time></trkpt><trkpt lat="39.3874851" lon="16.238643"><ele>160.0</ele><time>2026-04-25T07:48:59.999Z</time></trkpt><trkpt lat="39.3877665" lon="16.2388971"><ele>161.5</ele><time>2026-04-25T07:49:00.979Z</time></trkpt><trkpt lat="39.3880452" lon="16.2391594"><ele>163.0</ele><time>2026-04-25T07:49:01.981Z</time></trkpt><trkpt lat="39.3883231" lon="16.2394245"><ele>163.0</ele><time>2026-04-25T07:49:02.99Z</time></trkpt><trkpt lat="39.3885998" lon="16.2396889"><ele>163.0</ele><time>2026-04-25T07:49:04.031Z</time></trkpt><trkpt lat="39.3888772" lon="16.239955"><ele>164.0</ele><time>2026-04-25T07:49:04.993Z</time></trkpt><trkpt lat="39.3891579" lon="16.2402208"><ele>165.0</ele><time>2026-04-25T07:49:05.98Z</time></trkpt><trkpt lat="39.3894418" lon="16.2404806"><ele>165.5</ele><time>2026-04-25T07:49:06.987Z</time></trkpt><trkpt lat="39.3897307" lon="16.2407336"><ele>166.0</ele><time>2026-04-25T07:49:07.99Z</time></trkpt><trkpt lat="39.3900253" lon="16.2409757"><ele>166.0</ele><time>2026-04-25T07:49:08.983Z</time></trkpt><trkpt lat="39.3903257" lon="16.2412044"><ele>166.0</ele><time>2026-04-25T07:49:09.979Z</time></trkpt><trkpt lat="39.3906335" lon="16.2414167"><ele>165.0</ele><time>2026-04-25T07:49:10.986Z</time></trkpt><trkpt lat="39.3909464" lon="16.2416142"><ele>164.0</ele><time>2026-04-25T07:49:11.974Z</time></trkpt><trkpt lat="39.3912656" lon="16.2417988"><ele>164.0</ele><time>2026-04-25T07:49:12.982Z</time></trkpt><trkpt lat="39.3915906" lon="16.2419684"><ele>164.0</ele><time>2026-04-25T07:49:13.983Z</time></trkpt><trkpt lat="39.3919208" lon="16.242123"><ele>164.0</ele><time>2026-04-25T07:49:14.975Z</time></trkpt><trkpt lat="39.3922565" lon="16.2422629"><ele>164.0</ele><time>2026-04-25T07:49:15.977Z</time></trkpt><trkpt lat="39.3925976" lon="16.2423831"><ele>162.0</ele><time>2026-04-25T07:49:16.984Z</time></trkpt><trkpt lat="39.392942" lon="16.2424847"><ele>160.0</ele><time>2026-04-25T07:49:17.97Z</time></trkpt><trkpt lat="39.3932894" lon="16.2425709"><ele>160.0</ele><time>2026-04-25T07:49:18.97Z</time></trkpt><trkpt lat="39.3936387" lon="16.2426438"><ele>160.0</ele><time>2026-04-25T07:49:19.977Z</time></trkpt><trkpt lat="39.3939904" lon="16.2427047"><ele>158.5</ele><time>2026-04-25T07:49:20.973Z</time></trkpt><trkpt lat="39.394344" lon="16.2427573"><ele>157.0</ele><time>2026-04-25T07:49:21.976Z</time></trkpt><trkpt lat="39.3946984" lon="16.242806"><ele>156.5</ele><time>2026-04-25T07:49:22.979Z</time></trkpt><trkpt lat="39.3950539" lon="16.2428518"><ele>156.0</ele><time>2026-04-25T07:49:23.975Z</time></trkpt><trkpt lat="39.3954133" lon="16.242888"><ele>154.0</ele><time>2026-04-25T07:49:24.976Z</time></trkpt><trkpt lat="39.3957774" lon="16.242936"><ele>152.0</ele><time>2026-04-25T07:49:25.983Z</time></trkpt><trkpt lat="39.3961387" lon="16.2429799"><ele>150.0</ele><time>2026-04-25T07:49:26.973Z</time></trkpt><trkpt lat="39.3964972" lon="16.2430224"><ele>148.0</ele><time>2026-04-25T07:49:27.991Z</time></trkpt><trkpt lat="39.3968535" lon="16.2430679"><ele>148.5</ele><time>2026-04-25T07:49:28.992Z</time></trkpt><trkpt lat="39.397206" lon="16.2431123"><ele>149.0</ele><time>2026-04-25T07:49:29.981Z</time></trkpt><trkpt lat="39.3975658" lon="16.2431515"><ele>149.0</ele><time>2026-04-25T07:49:30.985Z</time></trkpt><trkpt lat="39.3979162" lon="16.2431954"><ele>149.0</ele><time>2026-04-25T07:49:31.977Z</time></trkpt><trkpt lat="39.3982656" lon="16.2432413"><ele>147.0</ele><time>2026-04-25T07:49:32.981Z</time></trkpt><trkpt lat="39.3986135" lon="16.2432847"><ele>145.0</ele><time>2026-04-25T07:49:33.975Z</time></trkpt><trkpt lat="39.3989659" lon="16.2433298"><ele>144.5</ele><time>2026-04-25T07:49:34.979Z</time></trkpt><trkpt lat="39.3993154" lon="16.2433697"><ele>144.0</ele><time>2026-04-25T07:49:35.986Z</time></trkpt><trkpt lat="39.3996639" lon="16.2434152"><ele>144.0</ele><time>2026-04-25T07:49:36.985Z</time></trkpt><trkpt lat="39.4000144" lon="16.2434601"><ele>144.0</ele><time>2026-04-25T07:49:37.987Z</time></trkpt><trkpt lat="39.4003631" lon="16.2435036"><ele>144.5</ele><time>2026-04-25T07:49:38.977Z</time></trkpt><trkpt lat="39.4007112" lon="16.2435474"><ele>145.0</ele><time>2026-04-25T07:49:39.974Z</time></trkpt><trkpt lat="39.4010597" lon="16.2435937"><ele>144.0</ele><time>2026-04-25T07:49:40.981Z</time></trkpt><trkpt lat="39.4014097" lon="16.2436386"><ele>143.0</ele><time>2026-04-25T07:49:41.976Z</time></trkpt><trkpt lat="39.4017603" lon="16.2436835"><ele>143.0</ele><time>2026-04-25T07:49:42.98Z</time></trkpt><trkpt lat="39.4021096" lon="16.2437304"><ele>143.0</ele><time>2026-04-25T07:49:43.976Z</time></trkpt><trkpt lat="39.402457" lon="16.2437749"><ele>143.5</ele><time>2026-04-25T07:49:44.974Z</time></trkpt><trkpt lat="39.402805" lon="16.2438189"><ele>144.0</ele><time>2026-04-25T07:49:45.979Z</time></trkpt><trkpt lat="39.4031525" lon="16.2438621"><ele>146.0</ele><time>2026-04-25T07:49:46.975Z</time></trkpt><trkpt lat="39.4035004" lon="16.2439057"><ele>148.0</ele><time>2026-04-25T07:49:47.983Z</time></trkpt><trkpt lat="39.4038466" lon="16.2439471"><ele>149.0</ele><time>2026-04-25T07:49:48.984Z</time></trkpt><trkpt lat="39.4041953" lon="16.243999"><ele>150.0</ele><time>2026-04-25T07:49:49.984Z</time></trkpt><trkpt lat="39.4045406" lon="16.2440436"><ele>150.0</ele><time>2026-04-25T07:49:50.984Z</time></trkpt><trkpt lat="39.4048886" lon="16.2440901"><ele>150.0</ele><time>2026-04-25T07:49:51.976Z</time></trkpt><trkpt lat="39.4052394" lon="16.2441365"><ele>150.5</ele><time>2026-04-25T07:49:52.975Z</time></trkpt><trkpt lat="39.4055891" lon="16.2441801"><ele>151.0</ele><time>2026-04-25T07:49:53.978Z</time></trkpt><trkpt lat="39.4059424" lon="16.2442216"><ele>151.0</ele><time>2026-04-25T07:49:54.982Z</time></trkpt><trkpt lat="39.4062986" lon="16.2442568"><ele>151.0</ele><time>2026-04-25T07:49:55.98Z</time></trkpt><trkpt lat="39.4066518" lon="16.2442986"><ele>151.0</ele><time>2026-04-25T07:49:56.983Z</time></trkpt><trkpt lat="39.407003" lon="16.2443387"><ele>151.0</ele><time>2026-04-25T07:49:57.984Z</time></trkpt><trkpt lat="39.4073536" lon="16.2443868"><ele>150.5</ele><time>2026-04-25T07:49:58.984Z</time></trkpt><trkpt lat="39.407704" lon="16.2444346"><ele>150.0</ele><time>2026-04-25T07:49:59.982Z</time></trkpt><trkpt lat="39.4080549" lon="16.2444821"><ele>150.0</ele><time>2026-04-25T07:50:00.981Z</time></trkpt><trkpt lat="39.4084077" lon="16.2445341"><ele>150.0</ele><time>2026-04-25T07:50:01.993Z</time></trkpt><trkpt lat="39.4087564" lon="16.2445846"><ele>149.5</ele><time>2026-04-25T07:50:02.981Z</time></trkpt><trkpt lat="39.4090994" lon="16.2446333"><ele>149.0</ele><time>2026-04-25T07:50:03.984Z</time></trkpt><trkpt lat="39.4094416" lon="16.2446799"><ele>148.5</ele><time>2026-04-25T07:50:04.993Z</time></trkpt><trkpt lat="39.4097856" lon="16.2447235"><ele>148.0</ele><time>2026-04-25T07:50:05.974Z</time></trkpt><trkpt lat="39.4101316" lon="16.2447615"><ele>148.0</ele><time>2026-04-25T07:50:06.979Z</time></trkpt><trkpt lat="39.4104722" lon="16.2447959"><ele>148.0</ele><time>2026-04-25T07:50:07.98Z</time></trkpt><trkpt lat="39.4108134" lon="16.2448295"><ele>146.0</ele><time>2026-04-25T07:50:08.984Z</time></trkpt><trkpt lat="39.4111554" lon="16.2448624"><ele>144.0</ele><time>2026-04-25T07:50:09.979Z</time></trkpt><trkpt lat="39.411497" lon="16.2448908"><ele>144.0</ele><time>2026-04-25T07:50:10.979Z</time></trkpt><trkpt lat="39.4118423" lon="16.2449153"><ele>144.0</ele><time>2026-04-25T07:50:11.986Z</time></trkpt><trkpt lat="39.4121917" lon="16.2449352"><ele>143.0</ele><time>2026-04-25T07:50:12.975Z</time></trkpt><trkpt lat="39.4125405" lon="16.2449439"><ele>142.0</ele><time>2026-04-25T07:50:13.986Z</time></trkpt><trkpt lat="39.4128914" lon="16.2449368"><ele>140.0</ele><time>2026-04-25T07:50:14.98Z</time></trkpt><trkpt lat="39.4132428" lon="16.2449152"><ele>138.0</ele><time>2026-04-25T07:50:15.981Z</time></trkpt><trkpt lat="39.4135914" lon="16.2448817"><ele>138.0</ele><time>2026-04-25T07:50:16.978Z</time></trkpt><trkpt lat="39.413942" lon="16.2448344"><ele>138.0</ele><time>2026-04-25T07:50:17.977Z</time></trkpt><trkpt lat="39.4142922" lon="16.2447705"><ele>137.0</ele><time>2026-04-25T07:50:18.99Z</time></trkpt><trkpt lat="39.4146415" lon="16.2446932"><ele>136.0</ele><time>2026-04-25T07:50:19.982Z</time></trkpt><trkpt lat="39.4149887" lon="16.2446022"><ele>136.0</ele><time>2026-04-25T07:50:20.98Z</time></trkpt><trkpt lat="39.4153343" lon="16.2444952"><ele>136.0</ele><time>2026-04-25T07:50:21.986Z</time></trkpt><trkpt lat="39.4156771" lon="16.2443823"><ele>133.5</ele><time>2026-04-25T07:50:22.987Z</time></trkpt><trkpt lat="39.4160178" lon="16.2442642"><ele>131.0</ele><time>2026-04-25T07:50:23.979Z</time></trkpt><trkpt lat="39.4163596" lon="16.2441424"><ele>131.0</ele><time>2026-04-25T07:50:24.98Z</time></trkpt><trkpt lat="39.4167005" lon="16.2440188"><ele>131.0</ele><time>2026-04-25T07:50:25.98Z</time></trkpt><trkpt lat="39.4170389" lon="16.2438885"><ele>136.5</ele><time>2026-04-25T07:50:26.987Z</time></trkpt><trkpt lat="39.4173743" lon="16.2437662"><ele>142.0</ele><time>2026-04-25T07:50:27.972Z</time></trkpt><trkpt lat="39.4177068" lon="16.2436413"><ele>142.0</ele><time>2026-04-25T07:50:28.986Z</time></trkpt><trkpt lat="39.4180397" lon="16.2435198"><ele>142.0</ele><time>2026-04-25T07:50:29.989Z</time></trkpt><trkpt lat="39.4183762" lon="16.2433943"><ele>142.0</ele><time>2026-04-25T07:50:30.981Z</time></trkpt><trkpt lat="39.4187154" lon="16.2432817"><ele>142.0</ele><time>2026-04-25T07:50:31.98Z</time></trkpt><trkpt lat="39.4190557" lon="16.2431745"><ele>142.5</ele><time>2026-04-25T07:50:32.977Z</time></trkpt><trkpt lat="39.4193972" lon="16.2430762"><ele>143.0</ele><time>2026-04-25T07:50:33.982Z</time></trkpt><trkpt lat="39.4197449" lon="16.2429848"><ele>143.5</ele><time>2026-04-25T07:50:34.976Z</time></trkpt><trkpt lat="39.4200919" lon="16.2429017"><ele>144.0</ele><time>2026-04-25T07:50:35.971Z</time></trkpt><trkpt lat="39.420441" lon="16.2428262"><ele>143.5</ele><time>2026-04-25T07:50:36.988Z</time></trkpt><trkpt lat="39.4207907" lon="16.2427541"><ele>143.0</ele><time>2026-04-25T07:50:37.984Z</time></trkpt><trkpt lat="39.4211411" lon="16.2426807"><ele>143.0</ele><time>2026-04-25T07:50:38.979Z</time></trkpt><trkpt lat="39.4214906" lon="16.2426082"><ele>143.0</ele><time>2026-04-25T07:50:39.98Z</time></trkpt><trkpt lat="39.4218396" lon="16.2425377"><ele>142.5</ele><time>2026-04-25T07:50:40.984Z</time></trkpt><trkpt lat="39.4221902" lon="16.2424704"><ele>142.0</ele><time>2026-04-25T07:50:41.973Z</time></trkpt><trkpt lat="39.4225413" lon="16.242404"><ele>142.0</ele><time>2026-04-25T07:50:42.975Z</time></trkpt><trkpt lat="39.4228939" lon="16.24234"><ele>142.0</ele><time>2026-04-25T07:50:43.98Z</time></trkpt><trkpt lat="39.4232459" lon="16.2422761"><ele>142.0</ele><time>2026-04-25T07:50:44.981Z</time></trkpt><trkpt lat="39.4235973" lon="16.2422104"><ele>142.0</ele><time>2026-04-25T07:50:45.976Z</time></trkpt><trkpt lat="39.423948" lon="16.2421433"><ele>142.5</ele><time>2026-04-25T07:50:46.977Z</time></trkpt><trkpt lat="39.4242984" lon="16.2420766"><ele>143.0</ele><time>2026-04-25T07:50:47.99Z</time></trkpt><trkpt lat="39.4246491" lon="16.2420103"><ele>142.0</ele><time>2026-04-25T07:50:48.975Z</time></trkpt><trkpt lat="39.4250011" lon="16.2419441"><ele>141.0</ele><time>2026-04-25T07:50:49.977Z</time></trkpt><trkpt lat="39.4253521" lon="16.2418803"><ele>140.5</ele><time>2026-04-25T07:50:50.976Z</time></trkpt><trkpt lat="39.4257016" lon="16.2418187"><ele>140.0</ele><time>2026-04-25T07:50:52.001Z</time></trkpt><trkpt lat="39.4260523" lon="16.241753"><ele>140.0</ele><time>2026-04-25T07:50:52.971Z</time></trkpt><trkpt lat="39.4264033" lon="16.2416913"><ele>140.0</ele><time>2026-04-25T07:50:53.973Z</time></trkpt><trkpt lat="39.4267546" lon="16.2416281"><ele>140.0</ele><time>2026-04-25T07:50:54.972Z</time></trkpt><trkpt lat="39.4271037" lon="16.2415607"><ele>140.0</ele><time>2026-04-25T07:50:55.971Z</time></trkpt><trkpt lat="39.4274538" lon="16.2414937"><ele>140.5</ele><time>2026-04-25T07:50:56.971Z</time></trkpt><trkpt lat="39.4278031" lon="16.2414271"><ele>141.0</ele><time>2026-04-25T07:50:57.97Z</time></trkpt><trkpt lat="39.4281525" lon="16.2413649"><ele>141.0</ele><time>2026-04-25T07:50:58.975Z</time></trkpt><trkpt lat="39.4285029" lon="16.2412996"><ele>141.0</ele><time>2026-04-25T07:50:59.972Z</time></trkpt><trkpt lat="39.4288553" lon="16.2412353"><ele>138.0</ele><time>2026-04-25T07:51:00.974Z</time></trkpt><trkpt lat="39.4292085" lon="16.2411832"><ele>135.0</ele><time>2026-04-25T07:51:01.977Z</time></trkpt><trkpt lat="39.4295632" lon="16.2411376"><ele>134.5</ele><time>2026-04-25T07:51:02.983Z</time></trkpt><trkpt lat="39.4299191" lon="16.2411028"><ele>134.0</ele><time>2026-04-25T07:51:03.983Z</time></trkpt><trkpt lat="39.430274" lon="16.2410773"><ele>133.5</ele><time>2026-04-25T07:51:04.977Z</time></trkpt><trkpt lat="39.4306293" lon="16.2410592"><ele>133.0</ele><time>2026-04-25T07:51:05.977Z</time></trkpt><trkpt lat="39.4309848" lon="16.2410467"><ele>132.5</ele><time>2026-04-25T07:51:06.982Z</time></trkpt><trkpt lat="39.4313403" lon="16.2410401"><ele>132.0</ele><time>2026-04-25T07:51:07.975Z</time></trkpt><trkpt lat="39.4316978" lon="16.2410345"><ele>132.0</ele><time>2026-04-25T07:51:08.977Z</time></trkpt><trkpt lat="39.4320544" lon="16.2410288"><ele>132.0</ele><time>2026-04-25T07:51:09.979Z</time></trkpt><trkpt lat="39.4324104" lon="16.2410244"><ele>132.0</ele><time>2026-04-25T07:51:10.983Z</time></trkpt><trkpt lat="39.4327677" lon="16.2410198"><ele>132.0</ele><time>2026-04-25T07:51:11.971Z</time></trkpt><trkpt lat="39.4331247" lon="16.2410193"><ele>131.0</ele><time>2026-04-25T07:51:12.984Z</time></trkpt><trkpt lat="39.43348" lon="16.2410169"><ele>130.0</ele><time>2026-04-25T07:51:13.981Z</time></trkpt><trkpt lat="39.4338336" lon="16.241011"><ele>129.5</ele><time>2026-04-25T07:51:14.975Z</time></trkpt><trkpt lat="39.4341883" lon="16.2410013"><ele>129.0</ele><time>2026-04-25T07:51:15.998Z</time></trkpt><trkpt lat="39.4345425" lon="16.2409836"><ele>128.0</ele><time>2026-04-25T07:51:16.981Z</time></trkpt><trkpt lat="39.4348969" lon="16.2409546"><ele>127.0</ele><time>2026-04-25T07:51:17.976Z</time></trkpt><trkpt lat="39.4352485" lon="16.2409141"><ele>127.0</ele><time>2026-04-25T07:51:18.983Z</time></trkpt><trkpt lat="39.4355988" lon="16.2408596"><ele>127.0</ele><time>2026-04-25T07:51:19.994Z</time></trkpt><trkpt lat="39.4359481" lon="16.2407903"><ele>127.0</ele><time>2026-04-25T07:51:20.982Z</time></trkpt><trkpt lat="39.4362943" lon="16.2407039"><ele>127.0</ele><time>2026-04-25T07:51:21.973Z</time></trkpt><trkpt lat="39.4366379" lon="16.2405997"><ele>127.0</ele><time>2026-04-25T07:51:22.981Z</time></trkpt><trkpt lat="39.4369771" lon="16.2404762"><ele>127.0</ele><time>2026-04-25T07:51:23.993Z</time></trkpt><trkpt lat="39.4373122" lon="16.240335"><ele>126.5</ele><time>2026-04-25T07:51:24.98Z</time></trkpt><trkpt lat="39.4376429" lon="16.2401816"><ele>126.0</ele><time>2026-04-25T07:51:25.982Z</time></trkpt><trkpt lat="39.4379723" lon="16.2400214"><ele>126.0</ele><time>2026-04-25T07:51:26.988Z</time></trkpt><trkpt lat="39.4382986" lon="16.2398625"><ele>126.0</ele><time>2026-04-25T07:51:27.976Z</time></trkpt><trkpt lat="39.4386271" lon="16.2397017"><ele>124.5</ele><time>2026-04-25T07:51:28.986Z</time></trkpt><trkpt lat="39.4389548" lon="16.239539"><ele>123.0</ele><time>2026-04-25T07:51:29.981Z</time></trkpt><trkpt lat="39.4392849" lon="16.239374"><ele>123.0</ele><time>2026-04-25T07:51:30.974Z</time></trkpt><trkpt lat="39.4396119" lon="16.2392143"><ele>123.0</ele><time>2026-04-25T07:51:31.982Z</time></trkpt><trkpt lat="39.4399373" lon="16.2390562"><ele>121.0</ele><time>2026-04-25T07:51:32.982Z</time></trkpt><trkpt lat="39.4402653" lon="16.2388964"><ele>119.0</ele><time>2026-04-25T07:51:33.988Z</time></trkpt><trkpt lat="39.4405921" lon="16.23874"><ele>119.0</ele><time>2026-04-25T07:51:34.983Z</time></trkpt><trkpt lat="39.4409262" lon="16.238589"><ele>119.0</ele><time>2026-04-25T07:51:35.985Z</time></trkpt><trkpt lat="39.4412582" lon="16.2384461"><ele>118.0</ele><time>2026-04-25T07:51:36.981Z</time></trkpt><trkpt lat="39.4415951" lon="16.2383164"><ele>117.0</ele><time>2026-04-25T07:51:37.979Z</time></trkpt><trkpt lat="39.4419359" lon="16.2382002"><ele>119.0</ele><time>2026-04-25T07:51:38.975Z</time></trkpt><trkpt lat="39.4422738" lon="16.2381019"><ele>121.0</ele><time>2026-04-25T07:51:39.976Z</time></trkpt><trkpt lat="39.4426194" lon="16.2380193"><ele>123.0</ele><time>2026-04-25T07:51:40.979Z</time></trkpt><trkpt lat="39.4429662" lon="16.2379557"><ele>125.0</ele><time>2026-04-25T07:51:41.972Z</time></trkpt><trkpt lat="39.4433142" lon="16.2379096"><ele>125.0</ele><time>2026-04-25T07:51:42.99Z</time></trkpt><trkpt lat="39.4436634" lon="16.2378794"><ele>125.0</ele><time>2026-04-25T07:51:43.982Z</time></trkpt><trkpt lat="39.4440132" lon="16.2378677"><ele>124.5</ele><time>2026-04-25T07:51:44.978Z</time></trkpt><trkpt lat="39.4443612" lon="16.2378677"><ele>124.0</ele><time>2026-04-25T07:51:45.996Z</time></trkpt><trkpt lat="39.4447085" lon="16.2378781"><ele>124.0</ele><time>2026-04-25T07:51:46.996Z</time></trkpt><trkpt lat="39.4450572" lon="16.2378974"><ele>124.0</ele><time>2026-04-25T07:51:47.983Z</time></trkpt><trkpt lat="39.4454037" lon="16.2379221"><ele>123.5</ele><time>2026-04-25T07:51:48.987Z</time></trkpt><trkpt lat="39.4457509" lon="16.2379469"><ele>123.0</ele><time>2026-04-25T07:51:49.988Z</time></trkpt><trkpt lat="39.4460977" lon="16.2379691"><ele>122.5</ele><time>2026-04-25T07:51:50.98Z</time></trkpt><trkpt lat="39.4464439" lon="16.2379843"><ele>122.0</ele><time>2026-04-25T07:51:51.974Z</time></trkpt><trkpt lat="39.4467908" lon="16.2379898"><ele>120.5</ele><time>2026-04-25T07:51:52.977Z</time></trkpt><trkpt lat="39.4471377" lon="16.2379832"><ele>119.0</ele><time>2026-04-25T07:51:53.971Z</time></trkpt><trkpt lat="39.4474843" lon="16.2379637"><ele>119.0</ele><time>2026-04-25T07:51:54.986Z</time></trkpt><trkpt lat="39.4478307" lon="16.2379327"><ele>119.0</ele><time>2026-04-25T07:51:55.974Z</time></trkpt><trkpt lat="39.4481767" lon="16.2378897"><ele>116.5</ele><time>2026-04-25T07:51:56.979Z</time></trkpt><trkpt lat="39.4485218" lon="16.237833"><ele>114.0</ele><time>2026-04-25T07:51:57.974Z</time></trkpt><trkpt lat="39.4488651" lon="16.237762"><ele>113.0</ele><time>2026-04-25T07:51:58.976Z</time></trkpt><trkpt lat="39.4492059" lon="16.2376751"><ele>112.0</ele><time>2026-04-25T07:51:59.981Z</time></trkpt><trkpt lat="39.449544" lon="16.2375729"><ele>110.5</ele><time>2026-04-25T07:52:00.991Z</time></trkpt><trkpt lat="39.4498796" lon="16.2374533"><ele>109.0</ele><time>2026-04-25T07:52:01.979Z</time></trkpt><trkpt lat="39.4502117" lon="16.2373186"><ele>110.5</ele><time>2026-04-25T07:52:02.986Z</time></trkpt><trkpt lat="39.4505401" lon="16.2371708"><ele>112.0</ele><time>2026-04-25T07:52:03.984Z</time></trkpt><trkpt lat="39.4508653" lon="16.2370123"><ele>112.0</ele><time>2026-04-25T07:52:04.99Z</time></trkpt><trkpt lat="39.4511863" lon="16.2368407"><ele>112.0</ele><time>2026-04-25T07:52:05.976Z</time></trkpt><trkpt lat="39.4515038" lon="16.2366571"><ele>109.5</ele><time>2026-04-25T07:52:06.987Z</time></trkpt><trkpt lat="39.4518166" lon="16.2364605"><ele>107.0</ele><time>2026-04-25T07:52:07.979Z</time></trkpt><trkpt lat="39.4521242" lon="16.2362512"><ele>106.5</ele><time>2026-04-25T07:52:08.975Z</time></trkpt><trkpt lat="39.4524262" lon="16.2360285"><ele>106.0</ele><time>2026-04-25T07:52:09.987Z</time></trkpt><trkpt lat="39.4527217" lon="16.2357927"><ele>105.0</ele><time>2026-04-25T07:52:10.988Z</time></trkpt><trkpt lat="39.4530109" lon="16.2355433"><ele>104.0</ele><time>2026-04-25T07:52:11.979Z</time></trkpt><trkpt lat="39.4532937" lon="16.2352815"><ele>104.0</ele><time>2026-04-25T07:52:12.984Z</time></trkpt><trkpt lat="39.4535699" lon="16.2350083"><ele>104.0</ele><time>2026-04-25T07:52:13.977Z</time></trkpt><trkpt lat="39.4538396" lon="16.2347252"><ele>104.0</ele><time>2026-04-25T07:52:14.98Z</time></trkpt><trkpt lat="39.4541027" lon="16.2344313"><ele>104.0</ele><time>2026-04-25T07:52:15.98Z</time></trkpt><trkpt lat="39.4543573" lon="16.2341254"><ele>104.0</ele><time>2026-04-25T07:52:16.976Z</time></trkpt><trkpt lat="39.4546036" lon="16.2338081"><ele>104.0</ele><time>2026-04-25T07:52:17.974Z</time></trkpt><trkpt lat="39.4548437" lon="16.2334829"><ele>104.0</ele><time>2026-04-25T07:52:18.982Z</time></trkpt><trkpt lat="39.4550787" lon="16.2331528"><ele>104.0</ele><time>2026-04-25T07:52:19.984Z</time></trkpt><trkpt lat="39.4553087" lon="16.2328176"><ele>104.0</ele><time>2026-04-25T07:52:20.984Z</time></trkpt><trkpt lat="39.4555347" lon="16.2324779"><ele>104.0</ele><time>2026-04-25T07:52:21.974Z</time></trkpt><trkpt lat="39.4557607" lon="16.2321381"><ele>104.0</ele><time>2026-04-25T07:52:22.983Z</time></trkpt><trkpt lat="39.4559885" lon="16.2318002"><ele>104.0</ele><time>2026-04-25T07:52:23.997Z</time></trkpt><trkpt lat="39.4562197" lon="16.2314647"><ele>103.5</ele><time>2026-04-25T07:52:24.976Z</time></trkpt><trkpt lat="39.456452" lon="16.2311311"><ele>103.0</ele><time>2026-04-25T07:52:25.979Z</time></trkpt><trkpt lat="39.4566851" lon="16.2307988"><ele>102.5</ele><time>2026-04-25T07:52:26.981Z</time></trkpt><trkpt lat="39.456917" lon="16.2304663"><ele>102.0</ele><time>2026-04-25T07:52:27.987Z</time></trkpt><trkpt lat="39.457149" lon="16.2301333"><ele>102.5</ele><time>2026-04-25T07:52:28.98Z</time></trkpt><trkpt lat="39.4573799" lon="16.2297989"><ele>103.0</ele><time>2026-04-25T07:52:29.974Z</time></trkpt><trkpt lat="39.4576101" lon="16.2294638"><ele>103.0</ele><time>2026-04-25T07:52:30.976Z</time></trkpt><trkpt lat="39.4578411" lon="16.2291288"><ele>103.0</ele><time>2026-04-25T07:52:31.977Z</time></trkpt><trkpt lat="39.4580741" lon="16.228796"><ele>102.5</ele><time>2026-04-25T07:52:32.98Z</time></trkpt><trkpt lat="39.4583088" lon="16.2284644"><ele>102.0</ele><time>2026-04-25T07:52:33.98Z</time></trkpt><trkpt lat="39.4585432" lon="16.2281326"><ele>101.5</ele><time>2026-04-25T07:52:34.988Z</time></trkpt><trkpt lat="39.4587758" lon="16.2277994"><ele>101.0</ele><time>2026-04-25T07:52:35.984Z</time></trkpt><trkpt lat="39.4590069" lon="16.2274652"><ele>102.0</ele><time>2026-04-25T07:52:36.971Z</time></trkpt><trkpt lat="39.4592376" lon="16.2271295"><ele>103.0</ele><time>2026-04-25T07:52:37.984Z</time></trkpt><trkpt lat="39.4594696" lon="16.2267941"><ele>101.5</ele><time>2026-04-25T07:52:38.994Z</time></trkpt><trkpt lat="39.4597025" lon="16.2264597"><ele>100.0</ele><time>2026-04-25T07:52:39.981Z</time></trkpt><trkpt lat="39.4599366" lon="16.2261261"><ele>100.0</ele><time>2026-04-25T07:52:40.995Z</time></trkpt><trkpt lat="39.4601718" lon="16.2257943"><ele>100.0</ele><time>2026-04-25T07:52:41.987Z</time></trkpt><trkpt lat="39.4604095" lon="16.2254649"><ele>100.0</ele><time>2026-04-25T07:52:42.986Z</time></trkpt><trkpt lat="39.4606504" lon="16.2251401"><ele>100.0</ele><time>2026-04-25T07:52:43.979Z</time></trkpt><trkpt lat="39.4608952" lon="16.2248211"><ele>100.0</ele><time>2026-04-25T07:52:44.978Z</time></trkpt><trkpt lat="39.4611452" lon="16.2245087"><ele>100.0</ele><time>2026-04-25T07:52:46Z</time></trkpt><trkpt lat="39.4614002" lon="16.2242047"><ele>100.0</ele><time>2026-04-25T07:52:46.987Z</time></trkpt><trkpt lat="39.4616605" lon="16.2239087"><ele>100.0</ele><time>2026-04-25T07:52:47.985Z</time></trkpt><trkpt lat="39.4619273" lon="16.2236213"><ele>99.5</ele><time>2026-04-25T07:52:48.986Z</time></trkpt><trkpt lat="39.4621992" lon="16.2233412"><ele>99.0</ele><time>2026-04-25T07:52:49.974Z</time></trkpt><trkpt lat="39.4624756" lon="16.223069"><ele>99.0</ele><time>2026-04-25T07:52:50.979Z</time></trkpt><trkpt lat="39.4627558" lon="16.2228044"><ele>99.0</ele><time>2026-04-25T07:52:51.981Z</time></trkpt><trkpt lat="39.4630404" lon="16.2225481"><ele>98.5</ele><time>2026-04-25T07:52:52.98Z</time></trkpt><trkpt lat="39.4633305" lon="16.2223016"><ele>98.0</ele><time>2026-04-25T07:52:53.974Z</time></trkpt><trkpt lat="39.4636252" lon="16.2220643"><ele>97.5</ele><time>2026-04-25T07:52:54.994Z</time></trkpt><trkpt lat="39.463924" lon="16.2218357"><ele>97.0</ele><time>2026-04-25T07:52:55.981Z</time></trkpt><trkpt lat="39.4642257" lon="16.2216138"><ele>98.5</ele><time>2026-04-25T07:52:56.973Z</time></trkpt><trkpt lat="39.4645301" lon="16.2213968"><ele>100.0</ele><time>2026-04-25T07:52:57.98Z</time></trkpt><trkpt lat="39.4648378" lon="16.2211868"><ele>100.0</ele><time>2026-04-25T07:52:58.98Z</time></trkpt><trkpt lat="39.4651496" lon="16.2209867"><ele>100.0</ele><time>2026-04-25T07:52:59.978Z</time></trkpt><trkpt lat="39.4654649" lon="16.2207971"><ele>99.0</ele><time>2026-04-25T07:53:00.983Z</time></trkpt><trkpt lat="39.4657832" lon="16.2206168"><ele>98.0</ele><time>2026-04-25T07:53:01.98Z</time></trkpt><trkpt lat="39.466104" lon="16.2204436"><ele>97.5</ele><time>2026-04-25T07:53:02.982Z</time></trkpt><trkpt lat="39.4664275" lon="16.2202776"><ele>97.0</ele><time>2026-04-25T07:53:03.999Z</time></trkpt><trkpt lat="39.4667527" lon="16.2201182"><ele>97.0</ele><time>2026-04-25T07:53:04.973Z</time></trkpt><trkpt lat="39.4670787" lon="16.2199622"><ele>97.0</ele><time>2026-04-25T07:53:05.976Z</time></trkpt><trkpt lat="39.4674051" lon="16.2198089"><ele>97.0</ele><time>2026-04-25T07:53:06.993Z</time></trkpt><trkpt lat="39.4677333" lon="16.2196595"><ele>97.0</ele><time>2026-04-25T07:53:07.999Z</time></trkpt><trkpt lat="39.4680624" lon="16.2195144"><ele>97.0</ele><time>2026-04-25T07:53:08.991Z</time></trkpt><trkpt lat="39.4683919" lon="16.2193715"><ele>97.0</ele><time>2026-04-25T07:53:10.005Z</time></trkpt><trkpt lat="39.4687214" lon="16.2192285"><ele>97.0</ele><time>2026-04-25T07:53:10.983Z</time></trkpt><trkpt lat="39.4690507" lon="16.2190882"><ele>97.0</ele><time>2026-04-25T07:53:11.987Z</time></trkpt><trkpt lat="39.4693804" lon="16.2189487"><ele>96.5</ele><time>2026-04-25T07:53:12.99Z</time></trkpt><trkpt lat="39.4697104" lon="16.2188079"><ele>96.0</ele><time>2026-04-25T07:53:13.984Z</time></trkpt><trkpt lat="39.4700402" lon="16.2186665"><ele>96.0</ele><time>2026-04-25T07:53:14.981Z</time></trkpt><trkpt lat="39.4703706" lon="16.218526"><ele>96.0</ele><time>2026-04-25T07:53:15.984Z</time></trkpt><trkpt lat="39.4707014" lon="16.2183863"><ele>96.5</ele><time>2026-04-25T07:53:16.985Z</time></trkpt><trkpt lat="39.4710312" lon="16.2182464"><ele>97.0</ele><time>2026-04-25T07:53:17.979Z</time></trkpt><trkpt lat="39.4713616" lon="16.2181065"><ele>95.0</ele><time>2026-04-25T07:53:18.972Z</time></trkpt><trkpt lat="39.4716917" lon="16.217966"><ele>93.0</ele><time>2026-04-25T07:53:19.99Z</time></trkpt><trkpt lat="39.4720214" lon="16.2178239"><ele>93.0</ele><time>2026-04-25T07:53:20.975Z</time></trkpt><trkpt lat="39.4723512" lon="16.2176812"><ele>93.0</ele><time>2026-04-25T07:53:21.992Z</time></trkpt><trkpt lat="39.4726812" lon="16.2175383"><ele>93.0</ele><time>2026-04-25T07:53:22.983Z</time></trkpt><trkpt lat="39.4730109" lon="16.2173955"><ele>93.0</ele><time>2026-04-25T07:53:23.986Z</time></trkpt><trkpt lat="39.4733406" lon="16.2172547"><ele>93.0</ele><time>2026-04-25T07:53:24.988Z</time></trkpt><trkpt lat="39.4736701" lon="16.2171145"><ele>93.0</ele><time>2026-04-25T07:53:25.984Z</time></trkpt><trkpt lat="39.4740001" lon="16.2169753"><ele>93.0</ele><time>2026-04-25T07:53:26.975Z</time></trkpt><trkpt lat="39.4743296" lon="16.2168373"><ele>93.0</ele><time>2026-04-25T07:53:27.979Z</time></trkpt><trkpt lat="39.4746596" lon="16.2167027"><ele>92.5</ele><time>2026-04-25T07:53:28.98Z</time></trkpt><trkpt lat="39.4749913" lon="16.216576"><ele>92.0</ele><time>2026-04-25T07:53:29.984Z</time></trkpt><trkpt lat="39.4753252" lon="16.2164579"><ele>92.5</ele><time>2026-04-25T07:53:30.973Z</time></trkpt><trkpt lat="39.4756611" lon="16.2163474"><ele>93.0</ele><time>2026-04-25T07:53:31.985Z</time></trkpt><trkpt lat="39.4759987" lon="16.2162426"><ele>93.0</ele><time>2026-04-25T07:53:32.989Z</time></trkpt><trkpt lat="39.4763375" lon="16.2161463"><ele>93.0</ele><time>2026-04-25T07:53:33.977Z</time></trkpt><trkpt lat="39.4766769" lon="16.216057"><ele>93.0</ele><time>2026-04-25T07:53:34.98Z</time></trkpt><trkpt lat="39.4770169" lon="16.2159704"><ele>93.0</ele><time>2026-04-25T07:53:35.987Z</time></trkpt><trkpt lat="39.4773573" lon="16.2158844"><ele>94.0</ele><time>2026-04-25T07:53:36.985Z</time></trkpt><trkpt lat="39.4776981" lon="16.2157994"><ele>95.0</ele><time>2026-04-25T07:53:37.979Z</time></trkpt><trkpt lat="39.4780389" lon="16.2157156"><ele>96.0</ele><time>2026-04-25T07:53:38.975Z</time></trkpt><trkpt lat="39.47838" lon="16.2156328"><ele>97.0</ele><time>2026-04-25T07:53:39.985Z</time></trkpt><trkpt lat="39.4787211" lon="16.2155504"><ele>96.0</ele><time>2026-04-25T07:53:40.986Z</time></trkpt><trkpt lat="39.4790626" lon="16.2154686"><ele>95.0</ele><time>2026-04-25T07:53:41.979Z</time></trkpt><trkpt lat="39.4794041" lon="16.2153872"><ele>95.5</ele><time>2026-04-25T07:53:42.982Z</time></trkpt><trkpt lat="39.4797454" lon="16.2153047"><ele>96.0</ele><time>2026-04-25T07:53:43.978Z</time></trkpt><trkpt lat="39.4800866" lon="16.21522"><ele>96.0</ele><time>2026-04-25T07:53:44.975Z</time></trkpt><trkpt lat="39.4804279" lon="16.2151345"><ele>96.0</ele><time>2026-04-25T07:53:45.989Z</time></trkpt><trkpt lat="39.4807696" lon="16.2150495"><ele>96.0</ele><time>2026-04-25T07:53:46.984Z</time></trkpt><trkpt lat="39.4811112" lon="16.2149644"><ele>96.0</ele><time>2026-04-25T07:53:47.973Z</time></trkpt><trkpt lat="39.4814528" lon="16.2148789"><ele>95.5</ele><time>2026-04-25T07:53:48.982Z</time></trkpt><trkpt lat="39.4817942" lon="16.2147938"><ele>95.0</ele><time>2026-04-25T07:53:49.986Z</time></trkpt><trkpt lat="39.4821357" lon="16.2147096"><ele>94.5</ele><time>2026-04-25T07:53:50.978Z</time></trkpt><trkpt lat="39.4824778" lon="16.2146249"><ele>94.0</ele><time>2026-04-25T07:53:51.981Z</time></trkpt><trkpt lat="39.4828196" lon="16.2145393"><ele>93.5</ele><time>2026-04-25T07:53:52.977Z</time></trkpt><trkpt lat="39.4831614" lon="16.2144527"><ele>93.0</ele><time>2026-04-25T07:53:53.983Z</time></trkpt><trkpt lat="39.4835033" lon="16.2143661"><ele>92.5</ele><time>2026-04-25T07:53:54.983Z</time></trkpt><trkpt lat="39.4838452" lon="16.2142813"><ele>92.0</ele><time>2026-04-25T07:53:55.995Z</time></trkpt><trkpt lat="39.4841872" lon="16.2141967"><ele>92.0</ele><time>2026-04-25T07:53:56.975Z</time></trkpt><trkpt lat="39.4845292" lon="16.2141111"><ele>92.0</ele><time>2026-04-25T07:53:57.981Z</time></trkpt><trkpt lat="39.4848704" lon="16.2140246"><ele>91.5</ele><time>2026-04-25T07:53:58.978Z</time></trkpt><trkpt lat="39.4852113" lon="16.213937"><ele>91.0</ele><time>2026-04-25T07:53:59.973Z</time></trkpt><trkpt lat="39.4855522" lon="16.2138494"><ele>90.5</ele><time>2026-04-25T07:54:00.972Z</time></trkpt><trkpt lat="39.4858935" lon="16.2137638"><ele>90.0</ele><time>2026-04-25T07:54:01.979Z</time></trkpt><trkpt lat="39.4862352" lon="16.2136787"><ele>90.0</ele><time>2026-04-25T07:54:02.978Z</time></trkpt><trkpt lat="39.4865774" lon="16.2135931"><ele>90.0</ele><time>2026-04-25T07:54:03.988Z</time></trkpt><trkpt lat="39.4869193" lon="16.2135072"><ele>89.5</ele><time>2026-04-25T07:54:04.974Z</time></trkpt><trkpt lat="39.4872612" lon="16.2134211"><ele>89.0</ele><time>2026-04-25T07:54:05.974Z</time></trkpt><trkpt lat="39.4876019" lon="16.2133325"><ele>89.0</ele><time>2026-04-25T07:54:06.979Z</time></trkpt><trkpt lat="39.4879418" lon="16.2132396"><ele>89.0</ele><time>2026-04-25T07:54:07.984Z</time></trkpt><trkpt lat="39.4882817" lon="16.2131465"><ele>89.0</ele><time>2026-04-25T07:54:08.983Z</time></trkpt><trkpt lat="39.4886213" lon="16.2130548"><ele>89.0</ele><time>2026-04-25T07:54:09.986Z</time></trkpt><trkpt lat="39.488961" lon="16.2129649"><ele>89.0</ele><time>2026-04-25T07:54:10.973Z</time></trkpt><trkpt lat="39.4893" lon="16.212878"><ele>89.0</ele><time>2026-04-25T07:54:11.97Z</time></trkpt><trkpt lat="39.4896401" lon="16.2127917"><ele>89.5</ele><time>2026-04-25T07:54:12.981Z</time></trkpt><trkpt lat="39.4899805" lon="16.2127066"><ele>90.0</ele><time>2026-04-25T07:54:13.976Z</time></trkpt><trkpt lat="39.4903211" lon="16.2126212"><ele>89.5</ele><time>2026-04-25T07:54:14.98Z</time></trkpt><trkpt lat="39.4906615" lon="16.2125373"><ele>89.0</ele><time>2026-04-25T07:54:15.977Z</time></trkpt><trkpt lat="39.4910027" lon="16.2124563"><ele>89.0</ele><time>2026-04-25T07:54:16.979Z</time></trkpt><trkpt lat="39.4913441" lon="16.212378"><ele>89.0</ele><time>2026-04-25T07:54:17.977Z</time></trkpt><trkpt lat="39.4916855" lon="16.2123014"><ele>89.0</ele><time>2026-04-25T07:54:18.976Z</time></trkpt><trkpt lat="39.4920273" lon="16.2122269"><ele>89.0</ele><time>2026-04-25T07:54:19.983Z</time></trkpt><trkpt lat="39.4923696" lon="16.2121537"><ele>89.0</ele><time>2026-04-25T07:54:20.988Z</time></trkpt><trkpt lat="39.4927122" lon="16.2120828"><ele>89.0</ele><time>2026-04-25T07:54:21.978Z</time></trkpt><trkpt lat="39.4930553" lon="16.2120154"><ele>88.5</ele><time>2026-04-25T07:54:22.977Z</time></trkpt><trkpt lat="39.4933992" lon="16.2119536"><ele>88.0</ele><time>2026-04-25T07:54:23.978Z</time></trkpt><trkpt lat="39.4937443" lon="16.2119"><ele>87.5</ele><time>2026-04-25T07:54:24.992Z</time></trkpt><trkpt lat="39.4940897" lon="16.2118548"><ele>87.0</ele><time>2026-04-25T07:54:25.981Z</time></trkpt><trkpt lat="39.4944352" lon="16.2118127"><ele>88.0</ele><time>2026-04-25T07:54:26.981Z</time></trkpt><trkpt lat="39.4947805" lon="16.2117668"><ele>89.0</ele><time>2026-04-25T07:54:27.982Z</time></trkpt><trkpt lat="39.4951254" lon="16.2117122"><ele>89.0</ele><time>2026-04-25T07:54:28.981Z</time></trkpt><trkpt lat="39.495469" lon="16.2116482"><ele>89.0</ele><time>2026-04-25T07:54:29.984Z</time></trkpt><trkpt lat="39.4958123" lon="16.2115745"><ele>89.0</ele><time>2026-04-25T07:54:30.984Z</time></trkpt><trkpt lat="39.4961541" lon="16.2114942"><ele>89.0</ele><time>2026-04-25T07:54:31.988Z</time></trkpt><trkpt lat="39.4964957" lon="16.2114092"><ele>89.0</ele><time>2026-04-25T07:54:32.982Z</time></trkpt><trkpt lat="39.4968374" lon="16.2113213"><ele>89.0</ele><time>2026-04-25T07:54:33.991Z</time></trkpt><trkpt lat="39.497179" lon="16.2112347"><ele>88.5</ele><time>2026-04-25T07:54:34.982Z</time></trkpt><trkpt lat="39.4975207" lon="16.2111497"><ele>88.0</ele><time>2026-04-25T07:54:35.978Z</time></trkpt><trkpt lat="39.4978625" lon="16.2110641"><ele>88.5</ele><time>2026-04-25T07:54:36.99Z</time></trkpt><trkpt lat="39.4982039" lon="16.2109774"><ele>89.0</ele><time>2026-04-25T07:54:37.981Z</time></trkpt><trkpt lat="39.4985457" lon="16.2108896"><ele>89.0</ele><time>2026-04-25T07:54:38.978Z</time></trkpt><trkpt lat="39.498887" lon="16.2108005"><ele>89.0</ele><time>2026-04-25T07:54:39.975Z</time></trkpt><trkpt lat="39.4992283" lon="16.2107103"><ele>87.5</ele><time>2026-04-25T07:54:40.978Z</time></trkpt><trkpt lat="39.4995692" lon="16.2106185"><ele>86.0</ele><time>2026-04-25T07:54:41.976Z</time></trkpt><trkpt lat="39.4999091" lon="16.2105239"><ele>86.0</ele><time>2026-04-25T07:54:42.98Z</time></trkpt><trkpt lat="39.5002501" lon="16.2104331"><ele>86.0</ele><time>2026-04-25T07:54:43.972Z</time></trkpt><trkpt lat="39.5005916" lon="16.2103471"><ele>85.5</ele><time>2026-04-25T07:54:44.979Z</time></trkpt><trkpt lat="39.5009334" lon="16.2102633"><ele>85.0</ele><time>2026-04-25T07:54:45.986Z</time></trkpt><trkpt lat="39.5012751" lon="16.2101819"><ele>85.0</ele><time>2026-04-25T07:54:46.975Z</time></trkpt><trkpt lat="39.5016176" lon="16.2101096"><ele>85.0</ele><time>2026-04-25T07:54:47.974Z</time></trkpt><trkpt lat="39.5019619" lon="16.2100484"><ele>84.5</ele><time>2026-04-25T07:54:48.976Z</time></trkpt><trkpt lat="39.502307" lon="16.2099971"><ele>84.0</ele><time>2026-04-25T07:54:49.977Z</time></trkpt><trkpt lat="39.5026527" lon="16.2099542"><ele>84.0</ele><time>2026-04-25T07:54:50.977Z</time></trkpt><trkpt lat="39.5029986" lon="16.209919"><ele>84.0</ele><time>2026-04-25T07:54:51.975Z</time></trkpt><trkpt lat="39.5033445" lon="16.209891"><ele>84.0</ele><time>2026-04-25T07:54:52.972Z</time></trkpt><trkpt lat="39.50369" lon="16.2098703"><ele>84.0</ele><time>2026-04-25T07:54:53.98Z</time></trkpt><trkpt lat="39.5040352" lon="16.2098572"><ele>84.0</ele><time>2026-04-25T07:54:54.985Z</time></trkpt><trkpt lat="39.5043803" lon="16.209851"><ele>84.0</ele><time>2026-04-25T07:54:55.987Z</time></trkpt><trkpt lat="39.504726" lon="16.2098509"><ele>85.0</ele><time>2026-04-25T07:54:56.987Z</time></trkpt><trkpt lat="39.5050719" lon="16.2098561"><ele>86.0</ele><time>2026-04-25T07:54:57.984Z</time></trkpt><trkpt lat="39.5054176" lon="16.2098647"><ele>86.0</ele><time>2026-04-25T07:54:58.989Z</time></trkpt><trkpt lat="39.5057641" lon="16.2098752"><ele>86.0</ele><time>2026-04-25T07:54:59.981Z</time></trkpt><trkpt lat="39.5061108" lon="16.2098864"><ele>87.0</ele><time>2026-04-25T07:55:00.977Z</time></trkpt><trkpt lat="39.5064576" lon="16.2098968"><ele>88.0</ele><time>2026-04-25T07:55:01.981Z</time></trkpt><trkpt lat="39.5068047" lon="16.2099063"><ele>88.0</ele><time>2026-04-25T07:55:02.975Z</time></trkpt><trkpt lat="39.5071514" lon="16.2099156"><ele>88.0</ele><time>2026-04-25T07:55:03.984Z</time></trkpt><trkpt lat="39.5074989" lon="16.2099246"><ele>88.0</ele><time>2026-04-25T07:55:04.988Z</time></trkpt><trkpt lat="39.5078474" lon="16.2099346"><ele>88.0</ele><time>2026-04-25T07:55:05.979Z</time></trkpt><trkpt lat="39.5081963" lon="16.2099452"><ele>88.5</ele><time>2026-04-25T07:55:06.992Z</time></trkpt><trkpt lat="39.5085448" lon="16.2099556"><ele>89.0</ele><time>2026-04-25T07:55:07.979Z</time></trkpt><trkpt lat="39.508894" lon="16.209964"><ele>89.5</ele><time>2026-04-25T07:55:08.987Z</time></trkpt><trkpt lat="39.5092434" lon="16.2099711"><ele>90.0</ele><time>2026-04-25T07:55:09.978Z</time></trkpt><trkpt lat="39.5095921" lon="16.2099782"><ele>90.5</ele><time>2026-04-25T07:55:10.975Z</time></trkpt><trkpt lat="39.5099405" lon="16.2099853"><ele>91.0</ele><time>2026-04-25T07:55:11.976Z</time></trkpt><trkpt lat="39.5102896" lon="16.2099892"><ele>91.0</ele><time>2026-04-25T07:55:12.982Z</time></trkpt><trkpt lat="39.5106387" lon="16.2099917"><ele>91.0</ele><time>2026-04-25T07:55:13.972Z</time></trkpt><trkpt lat="39.5109878" lon="16.2099967"><ele>91.0</ele><time>2026-04-25T07:55:14.981Z</time></trkpt><trkpt lat="39.5113369" lon="16.2100067"><ele>91.0</ele><time>2026-04-25T07:55:15.979Z</time></trkpt><trkpt lat="39.511686" lon="16.2100215"><ele>91.0</ele><time>2026-04-25T07:55:16.979Z</time></trkpt><trkpt lat="39.5120341" lon="16.2100459"><ele>91.0</ele><time>2026-04-25T07:55:17.991Z</time></trkpt><trkpt lat="39.5123814" lon="16.2100839"><ele>90.5</ele><time>2026-04-25T07:55:18.985Z</time></trkpt><trkpt lat="39.5127275" lon="16.2101374"><ele>90.0</ele><time>2026-04-25T07:55:19.979Z</time></trkpt><trkpt lat="39.5130718" lon="16.2102069"><ele>90.0</ele><time>2026-04-25T07:55:20.983Z</time></trkpt><trkpt lat="39.5134129" lon="16.2102917"><ele>90.0</ele><time>2026-04-25T07:55:21.989Z</time></trkpt><trkpt lat="39.5137512" lon="16.2103916"><ele>90.0</ele><time>2026-04-25T07:55:22.983Z</time></trkpt><trkpt lat="39.5140751" lon="16.2105022"><ele>90.0</ele><time>2026-04-25T07:55:23.989Z</time></trkpt><trkpt lat="39.5143743" lon="16.2106147"><ele>88.5</ele><time>2026-04-25T07:55:24.99Z</time></trkpt><trkpt lat="39.514647" lon="16.210721"><ele>87.0</ele><time>2026-04-25T07:55:25.987Z</time></trkpt><trkpt lat="39.5148925" lon="16.2108175"><ele>87.0</ele><time>2026-04-25T07:55:26.978Z</time></trkpt><trkpt lat="39.5151206" lon="16.2109068"><ele>87.0</ele><time>2026-04-25T07:55:27.992Z</time></trkpt><trkpt lat="39.5153397" lon="16.2109905"><ele>88.0</ele><time>2026-04-25T07:55:28.98Z</time></trkpt><trkpt lat="39.5155524" lon="16.2110712"><ele>89.0</ele><time>2026-04-25T07:55:29.987Z</time></trkpt><trkpt lat="39.5157682" lon="16.2111526"><ele>90.0</ele><time>2026-04-25T07:55:30.972Z</time></trkpt><trkpt lat="39.5159909" lon="16.2112371"><ele>90.0</ele><time>2026-04-25T07:55:31.974Z</time></trkpt><trkpt lat="39.516221" lon="16.211326"><ele>90.0</ele><time>2026-04-25T07:55:32.969Z</time></trkpt><trkpt lat="39.5164584" lon="16.2114185"><ele>88.5</ele><time>2026-04-25T07:55:33.971Z</time></trkpt><trkpt lat="39.5167042" lon="16.2115153"><ele>87.0</ele><time>2026-04-25T07:55:34.983Z</time></trkpt><trkpt lat="39.5169591" lon="16.2116154"><ele>86.5</ele><time>2026-04-25T07:55:35.983Z</time></trkpt><trkpt lat="39.5172234" lon="16.2117182"><ele>86.0</ele><time>2026-04-25T07:55:36.985Z</time></trkpt><trkpt lat="39.5174966" lon="16.2118233"><ele>86.0</ele><time>2026-04-25T07:55:37.987Z</time></trkpt><trkpt lat="39.5177777" lon="16.2119306"><ele>86.0</ele><time>2026-04-25T07:55:38.98Z</time></trkpt><trkpt lat="39.5180635" lon="16.2120403"><ele>86.0</ele><time>2026-04-25T07:55:39.973Z</time></trkpt><trkpt lat="39.5183568" lon="16.2121542"><ele>86.0</ele><time>2026-04-25T07:55:40.982Z</time></trkpt><trkpt lat="39.5186599" lon="16.2122721"><ele>83.5</ele><time>2026-04-25T07:55:41.975Z</time></trkpt><trkpt lat="39.5189733" lon="16.2123935"><ele>81.0</ele><time>2026-04-25T07:55:42.98Z</time></trkpt><trkpt lat="39.5192953" lon="16.2125172"><ele>82.0</ele><time>2026-04-25T07:55:43.98Z</time></trkpt><trkpt lat="39.5196231" lon="16.2126426"><ele>83.0</ele><time>2026-04-25T07:55:44.974Z</time></trkpt><trkpt lat="39.5199539" lon="16.2127699"><ele>83.0</ele><time>2026-04-25T07:55:45.97Z</time></trkpt><trkpt lat="39.5202852" lon="16.2129009"><ele>83.0</ele><time>2026-04-25T07:55:46.985Z</time></trkpt><trkpt lat="39.5206171" lon="16.2130351"><ele>83.0</ele><time>2026-04-25T07:55:47.974Z</time></trkpt><trkpt lat="39.5209485" lon="16.2131715"><ele>83.0</ele><time>2026-04-25T07:55:48.98Z</time></trkpt><trkpt lat="39.5212795" lon="16.21331"><ele>83.0</ele><time>2026-04-25T07:55:49.985Z</time></trkpt><trkpt lat="39.5216093" lon="16.2134569"><ele>83.0</ele><time>2026-04-25T07:55:50.97Z</time></trkpt><trkpt lat="39.5219343" lon="16.2136175"><ele>83.0</ele><time>2026-04-25T07:55:51.971Z</time></trkpt><trkpt lat="39.5222543" lon="16.2137952"><ele>83.0</ele><time>2026-04-25T07:55:52.982Z</time></trkpt><trkpt lat="39.5225688" lon="16.2139883"><ele>81.0</ele><time>2026-04-25T07:55:53.972Z</time></trkpt><trkpt lat="39.5228777" lon="16.2141972"><ele>79.0</ele><time>2026-04-25T07:55:54.964Z</time></trkpt><trkpt lat="39.5231799" lon="16.2144206"><ele>79.0</ele><time>2026-04-25T07:55:55.973Z</time></trkpt><trkpt lat="39.5234765" lon="16.2146557"><ele>79.0</ele><time>2026-04-25T07:55:56.975Z</time></trkpt><trkpt lat="39.5237691" lon="16.214899"><ele>78.0</ele><time>2026-04-25T07:55:57.971Z</time></trkpt><trkpt lat="39.5240733" lon="16.2151522"><ele>77.0</ele><time>2026-04-25T07:55:58.975Z</time></trkpt><trkpt lat="39.5243647" lon="16.2154034"><ele>76.0</ele><time>2026-04-25T07:55:59.981Z</time></trkpt><trkpt lat="39.5246538" lon="16.2156619"><ele>75.0</ele><time>2026-04-25T07:56:00.977Z</time></trkpt><trkpt lat="39.5249406" lon="16.2159216"><ele>75.0</ele><time>2026-04-25T07:56:01.971Z</time></trkpt><trkpt lat="39.5252275" lon="16.2161793"><ele>75.0</ele><time>2026-04-25T07:56:02.98Z</time></trkpt><trkpt lat="39.5255133" lon="16.2164369"><ele>74.5</ele><time>2026-04-25T07:56:03.977Z</time></trkpt><trkpt lat="39.5257987" lon="16.2166908"><ele>74.0</ele><time>2026-04-25T07:56:04.968Z</time></trkpt><trkpt lat="39.5260856" lon="16.2169428"><ele>74.5</ele><time>2026-04-25T07:56:05.983Z</time></trkpt><trkpt lat="39.5263768" lon="16.2171906"><ele>75.0</ele><time>2026-04-25T07:56:06.978Z</time></trkpt><trkpt lat="39.5266702" lon="16.2174317"><ele>75.0</ele><time>2026-04-25T07:56:07.972Z</time></trkpt><trkpt lat="39.5269679" lon="16.2176631"><ele>75.0</ele><time>2026-04-25T07:56:08.987Z</time></trkpt><trkpt lat="39.5272705" lon="16.2178856"><ele>75.5</ele><time>2026-04-25T07:56:09.983Z</time></trkpt><trkpt lat="39.5275753" lon="16.2180979"><ele>76.0</ele><time>2026-04-25T07:56:10.972Z</time></trkpt><trkpt lat="39.5278844" lon="16.2183025"><ele>77.0</ele><time>2026-04-25T07:56:11.984Z</time></trkpt><trkpt lat="39.5281963" lon="16.2184999"><ele>78.0</ele><time>2026-04-25T07:56:12.983Z</time></trkpt><trkpt lat="39.5285103" lon="16.2186914"><ele>78.0</ele><time>2026-04-25T07:56:13.971Z</time></trkpt><trkpt lat="39.528825" lon="16.2188774"><ele>78.0</ele><time>2026-04-25T07:56:14.968Z</time></trkpt><trkpt lat="39.5291408" lon="16.2190617"><ele>77.5</ele><time>2026-04-25T07:56:15.982Z</time></trkpt><trkpt lat="39.5294573" lon="16.2192436"><ele>77.0</ele><time>2026-04-25T07:56:16.979Z</time></trkpt><trkpt lat="39.5297734" lon="16.2194264"><ele>77.0</ele><time>2026-04-25T07:56:17.984Z</time></trkpt><trkpt lat="39.5300899" lon="16.2196093"><ele>77.0</ele><time>2026-04-25T07:56:18.973Z</time></trkpt><trkpt lat="39.5304071" lon="16.2197931"><ele>77.5</ele><time>2026-04-25T07:56:19.968Z</time></trkpt><trkpt lat="39.5307236" lon="16.2199762"><ele>78.0</ele><time>2026-04-25T07:56:20.978Z</time></trkpt><trkpt lat="39.5310415" lon="16.2201574"><ele>78.5</ele><time>2026-04-25T07:56:21.987Z</time></trkpt><trkpt lat="39.5313593" lon="16.2203399"><ele>79.0</ele><time>2026-04-25T07:56:23.003Z</time></trkpt><trkpt lat="39.5316758" lon="16.2205246"><ele>78.5</ele><time>2026-04-25T07:56:23.98Z</time></trkpt><trkpt lat="39.5319928" lon="16.2207088"><ele>78.0</ele><time>2026-04-25T07:56:24.971Z</time></trkpt><trkpt lat="39.5323099" lon="16.2208913"><ele>78.0</ele><time>2026-04-25T07:56:25.981Z</time></trkpt><trkpt lat="39.5326279" lon="16.2210739"><ele>78.0</ele><time>2026-04-25T07:56:26.997Z</time></trkpt><trkpt lat="39.5329461" lon="16.2212585"><ele>78.0</ele><time>2026-04-25T07:56:27.982Z</time></trkpt><trkpt lat="39.5332634" lon="16.2214436"><ele>78.0</ele><time>2026-04-25T07:56:28.977Z</time></trkpt><trkpt lat="39.5335795" lon="16.2216298"><ele>77.5</ele><time>2026-04-25T07:56:29.98Z</time></trkpt><trkpt lat="39.5338966" lon="16.2218166"><ele>77.0</ele><time>2026-04-25T07:56:30.986Z</time></trkpt><trkpt lat="39.5342135" lon="16.222003"><ele>77.0</ele><time>2026-04-25T07:56:31.978Z</time></trkpt><trkpt lat="39.534531" lon="16.2221889"><ele>77.0</ele><time>2026-04-25T07:56:32.98Z</time></trkpt><trkpt lat="39.5348498" lon="16.2223709"><ele>77.0</ele><time>2026-04-25T07:56:33.987Z</time></trkpt><trkpt lat="39.5351699" lon="16.2225512"><ele>77.0</ele><time>2026-04-25T07:56:34.977Z</time></trkpt><trkpt lat="39.5354905" lon="16.2227286"><ele>77.0</ele><time>2026-04-25T07:56:35.972Z</time></trkpt><trkpt lat="39.535812" lon="16.2229023"><ele>77.0</ele><time>2026-04-25T07:56:36.983Z</time></trkpt><trkpt lat="39.536135" lon="16.2230712"><ele>76.5</ele><time>2026-04-25T07:56:37.992Z</time></trkpt><trkpt lat="39.5364595" lon="16.2232345"><ele>76.0</ele><time>2026-04-25T07:56:38.975Z</time></trkpt><trkpt lat="39.5367849" lon="16.2233948"><ele>75.0</ele><time>2026-04-25T07:56:39.979Z</time></trkpt><trkpt lat="39.5371099" lon="16.2235543"><ele>74.0</ele><time>2026-04-25T07:56:40.983Z</time></trkpt><trkpt lat="39.5374349" lon="16.2237131"><ele>74.0</ele><time>2026-04-25T07:56:41.973Z</time></trkpt><trkpt lat="39.5377602" lon="16.2238715"><ele>74.0</ele><time>2026-04-25T07:56:42.987Z</time></trkpt><trkpt lat="39.5380855" lon="16.2240287"><ele>74.0</ele><time>2026-04-25T07:56:43.987Z</time></trkpt><trkpt lat="39.5384106" lon="16.2241866"><ele>74.0</ele><time>2026-04-25T07:56:44.977Z</time></trkpt><trkpt lat="39.5387352" lon="16.2243447"><ele>74.5</ele><time>2026-04-25T07:56:45.98Z</time></trkpt><trkpt lat="39.5390606" lon="16.2245017"><ele>75.0</ele><time>2026-04-25T07:56:46.991Z</time></trkpt><trkpt lat="39.5393857" lon="16.2246584"><ele>75.5</ele><time>2026-04-25T07:56:47.98Z</time></trkpt><trkpt lat="39.5397116" lon="16.2248146"><ele>76.0</ele><time>2026-04-25T07:56:48.987Z</time></trkpt><trkpt lat="39.5400371" lon="16.2249703"><ele>76.0</ele><time>2026-04-25T07:56:49.99Z</time></trkpt><trkpt lat="39.5403632" lon="16.2251256"><ele>76.0</ele><time>2026-04-25T07:56:50.975Z</time></trkpt><trkpt lat="39.5406899" lon="16.2252802"><ele>76.5</ele><time>2026-04-25T07:56:51.976Z</time></trkpt><trkpt lat="39.5410166" lon="16.2254338"><ele>77.0</ele><time>2026-04-25T07:56:52.983Z</time></trkpt><trkpt lat="39.5413436" lon="16.2255873"><ele>75.5</ele><time>2026-04-25T07:56:53.979Z</time></trkpt><trkpt lat="39.5416703" lon="16.2257392"><ele>74.0</ele><time>2026-04-25T07:56:54.971Z</time></trkpt><trkpt lat="39.5419971" lon="16.2258894"><ele>73.5</ele><time>2026-04-25T07:56:55.987Z</time></trkpt><trkpt lat="39.5423244" lon="16.2260399"><ele>73.0</ele><time>2026-04-25T07:56:56.979Z</time></trkpt><trkpt lat="39.5426521" lon="16.2261905"><ele>73.0</ele><time>2026-04-25T07:56:57.972Z</time></trkpt><trkpt lat="39.5429798" lon="16.2263423"><ele>73.0</ele><time>2026-04-25T07:56:58.987Z</time></trkpt><trkpt lat="39.5433067" lon="16.2264973"><ele>72.5</ele><time>2026-04-25T07:56:59.984Z</time></trkpt><trkpt lat="39.5436335" lon="16.2266528"><ele>72.0</ele><time>2026-04-25T07:57:00.98Z</time></trkpt><trkpt lat="39.5439596" lon="16.226809"><ele>72.0</ele><time>2026-04-25T07:57:01.973Z</time></trkpt><trkpt lat="39.5442854" lon="16.2269646"><ele>72.0</ele><time>2026-04-25T07:57:02.989Z</time></trkpt><trkpt lat="39.5446105" lon="16.2271209"><ele>72.5</ele><time>2026-04-25T07:57:03.982Z</time></trkpt><trkpt lat="39.5449358" lon="16.2272782"><ele>73.0</ele><time>2026-04-25T07:57:04.973Z</time></trkpt><trkpt lat="39.5452605" lon="16.2274366"><ele>71.5</ele><time>2026-04-25T07:57:05.989Z</time></trkpt><trkpt lat="39.5455848" lon="16.2275952"><ele>70.0</ele><time>2026-04-25T07:57:06.98Z</time></trkpt><trkpt lat="39.5459102" lon="16.2277523"><ele>70.5</ele><time>2026-04-25T07:57:07.98Z</time></trkpt><trkpt lat="39.5462353" lon="16.2279089"><ele>71.0</ele><time>2026-04-25T07:57:08.977Z</time></trkpt><trkpt lat="39.5465609" lon="16.228065"><ele>71.0</ele><time>2026-04-25T07:57:09.983Z</time></trkpt><trkpt lat="39.5468864" lon="16.2282215"><ele>71.0</ele><time>2026-04-25T07:57:10.975Z</time></trkpt><trkpt lat="39.5472116" lon="16.2283773"><ele>71.0</ele><time>2026-04-25T07:57:11.975Z</time></trkpt><trkpt lat="39.5475367" lon="16.2285328"><ele>71.0</ele><time>2026-04-25T07:57:12.991Z</time></trkpt><trkpt lat="39.5478624" lon="16.2286881"><ele>71.0</ele><time>2026-04-25T07:57:13.984Z</time></trkpt><trkpt lat="39.5481874" lon="16.2288437"><ele>71.0</ele><time>2026-04-25T07:57:14.979Z</time></trkpt><trkpt lat="39.5485119" lon="16.2290006"><ele>71.5</ele><time>2026-04-25T07:57:15.988Z</time></trkpt><trkpt lat="39.5488365" lon="16.2291579"><ele>72.0</ele><time>2026-04-25T07:57:16.984Z</time></trkpt><trkpt lat="39.5491611" lon="16.2293143"><ele>72.0</ele><time>2026-04-25T07:57:17.98Z</time></trkpt><trkpt lat="39.5494857" lon="16.2294706"><ele>72.0</ele><time>2026-04-25T07:57:18.992Z</time></trkpt><trkpt lat="39.5498107" lon="16.2296263"><ele>72.0</ele><time>2026-04-25T07:57:19.973Z</time></trkpt><trkpt lat="39.5501358" lon="16.2297827"><ele>72.0</ele><time>2026-04-25T07:57:20.975Z</time></trkpt><trkpt lat="39.5504612" lon="16.2299393"><ele>72.0</ele><time>2026-04-25T07:57:21.979Z</time></trkpt><trkpt lat="39.5507874" lon="16.2300957"><ele>72.0</ele><time>2026-04-25T07:57:22.984Z</time></trkpt><trkpt lat="39.5511137" lon="16.2302518"><ele>72.5</ele><time>2026-04-25T07:57:23.979Z</time></trkpt><trkpt lat="39.5514405" lon="16.2304075"><ele>73.0</ele><time>2026-04-25T07:57:24.984Z</time></trkpt><trkpt lat="39.5517672" lon="16.2305627"><ele>72.5</ele><time>2026-04-25T07:57:25.988Z</time></trkpt><trkpt lat="39.5520936" lon="16.2307185"><ele>72.0</ele><time>2026-04-25T07:57:27Z</time></trkpt><trkpt lat="39.5524202" lon="16.2308739"><ele>72.0</ele><time>2026-04-25T07:57:27.98Z</time></trkpt><trkpt lat="39.5527464" lon="16.2310295"><ele>72.0</ele><time>2026-04-25T07:57:28.976Z</time></trkpt><trkpt lat="39.5530733" lon="16.2311848"><ele>72.0</ele><time>2026-04-25T07:57:29.984Z</time></trkpt><trkpt lat="39.5533995" lon="16.2313411"><ele>72.0</ele><time>2026-04-25T07:57:30.978Z</time></trkpt><trkpt lat="39.5537256" lon="16.2314993"><ele>72.0</ele><time>2026-04-25T07:57:31.971Z</time></trkpt><trkpt lat="39.5540514" lon="16.2316579"><ele>72.0</ele><time>2026-04-25T07:57:32.999Z</time></trkpt><trkpt lat="39.5543774" lon="16.2318161"><ele>72.5</ele><time>2026-04-25T07:57:33.979Z</time></trkpt><trkpt lat="39.554704" lon="16.2319721"><ele>73.0</ele><time>2026-04-25T07:57:34.987Z</time></trkpt><trkpt lat="39.5550301" lon="16.232128"><ele>73.0</ele><time>2026-04-25T07:57:35.985Z</time></trkpt><trkpt lat="39.555356" lon="16.2322849"><ele>73.0</ele><time>2026-04-25T07:57:36.977Z</time></trkpt><trkpt lat="39.5556822" lon="16.2324425"><ele>72.5</ele><time>2026-04-25T07:57:37.979Z</time></trkpt><trkpt lat="39.5560079" lon="16.2326001"><ele>72.0</ele><time>2026-04-25T07:57:38.99Z</time></trkpt><trkpt lat="39.5563337" lon="16.232758"><ele>70.5</ele><time>2026-04-25T07:57:39.984Z</time></trkpt><trkpt lat="39.5566598" lon="16.2329157"><ele>69.0</ele><time>2026-04-25T07:57:40.978Z</time></trkpt><trkpt lat="39.5569856" lon="16.233073"><ele>69.5</ele><time>2026-04-25T07:57:41.99Z</time></trkpt><trkpt lat="39.5573118" lon="16.2332294"><ele>70.0</ele><time>2026-04-25T07:57:42.988Z</time></trkpt><trkpt lat="39.5576373" lon="16.2333864"><ele>70.0</ele><time>2026-04-25T07:57:43.978Z</time></trkpt><trkpt lat="39.557963" lon="16.2335432"><ele>70.0</ele><time>2026-04-25T07:57:44.988Z</time></trkpt><trkpt lat="39.558289" lon="16.2336996"><ele>70.0</ele><time>2026-04-25T07:57:45.987Z</time></trkpt><trkpt lat="39.5586152" lon="16.2338551"><ele>70.0</ele><time>2026-04-25T07:57:46.99Z</time></trkpt><trkpt lat="39.558941" lon="16.2340101"><ele>69.5</ele><time>2026-04-25T07:57:47.979Z</time></trkpt><trkpt lat="39.559268" lon="16.2341636"><ele>69.0</ele><time>2026-04-25T07:57:48.984Z</time></trkpt><trkpt lat="39.5595956" lon="16.2343151"><ele>68.0</ele><time>2026-04-25T07:57:49.98Z</time></trkpt><trkpt lat="39.559924" lon="16.2344635"><ele>67.0</ele><time>2026-04-25T07:57:50.974Z</time></trkpt><trkpt lat="39.5602532" lon="16.2346086"><ele>67.5</ele><time>2026-04-25T07:57:51.989Z</time></trkpt><trkpt lat="39.5605831" lon="16.2347502"><ele>68.0</ele><time>2026-04-25T07:57:52.973Z</time></trkpt><trkpt lat="39.5609136" lon="16.2348882"><ele>67.0</ele><time>2026-04-25T07:57:53.975Z</time></trkpt><trkpt lat="39.5612452" lon="16.2350217"><ele>66.0</ele><time>2026-04-25T07:57:54.981Z</time></trkpt><trkpt lat="39.5615782" lon="16.2351498"><ele>66.0</ele><time>2026-04-25T07:57:55.982Z</time></trkpt><trkpt lat="39.5619128" lon="16.2352731"><ele>66.0</ele><time>2026-04-25T07:57:56.977Z</time></trkpt><trkpt lat="39.5622486" lon="16.235391"><ele>65.5</ele><time>2026-04-25T07:57:57.972Z</time></trkpt><trkpt lat="39.5625848" lon="16.2355039"><ele>65.0</ele><time>2026-04-25T07:57:58.975Z</time></trkpt><trkpt lat="39.5629223" lon="16.2356115"><ele>65.0</ele><time>2026-04-25T07:57:59.979Z</time></trkpt><trkpt lat="39.5632608" lon="16.2357145"><ele>65.0</ele><time>2026-04-25T07:58:00.981Z</time></trkpt><trkpt lat="39.5635994" lon="16.2358156"><ele>64.5</ele><time>2026-04-25T07:58:01.984Z</time></trkpt><trkpt lat="39.5639378" lon="16.235917"><ele>64.0</ele><time>2026-04-25T07:58:02.981Z</time></trkpt><trkpt lat="39.5642762" lon="16.2360192"><ele>64.5</ele><time>2026-04-25T07:58:03.979Z</time></trkpt><trkpt lat="39.5646146" lon="16.2361204"><ele>65.0</ele><time>2026-04-25T07:58:04.989Z</time></trkpt><trkpt lat="39.5649531" lon="16.236222"><ele>65.0</ele><time>2026-04-25T07:58:05.983Z</time></trkpt><trkpt lat="39.5652922" lon="16.2363229"><ele>65.0</ele><time>2026-04-25T07:58:06.981Z</time></trkpt><trkpt lat="39.5656307" lon="16.2364246"><ele>64.5</ele><time>2026-04-25T07:58:07.989Z</time></trkpt><trkpt lat="39.5659693" lon="16.2365266"><ele>64.0</ele><time>2026-04-25T07:58:08.99Z</time></trkpt><trkpt lat="39.5663076" lon="16.2366283"><ele>63.5</ele><time>2026-04-25T07:58:09.978Z</time></trkpt><trkpt lat="39.5666465" lon="16.2367291"><ele>63.0</ele><time>2026-04-25T07:58:10.977Z</time></trkpt><trkpt lat="39.5669853" lon="16.2368292"><ele>63.0</ele><time>2026-04-25T07:58:11.987Z</time></trkpt><trkpt lat="39.5673242" lon="16.2369279"><ele>63.0</ele><time>2026-04-25T07:58:12.985Z</time></trkpt><trkpt lat="39.5676633" lon="16.237024"><ele>64.0</ele><time>2026-04-25T07:58:13.978Z</time></trkpt><trkpt lat="39.5680026" lon="16.2371185"><ele>65.0</ele><time>2026-04-25T07:58:14.976Z</time></trkpt><trkpt lat="39.5683414" lon="16.2372162"><ele>64.0</ele><time>2026-04-25T07:58:15.98Z</time></trkpt><trkpt lat="39.5686796" lon="16.2373174"><ele>63.0</ele><time>2026-04-25T07:58:16.972Z</time></trkpt><trkpt lat="39.5690187" lon="16.2374174"><ele>63.0</ele><time>2026-04-25T07:58:17.986Z</time></trkpt><trkpt lat="39.5693578" lon="16.2375177"><ele>63.0</ele><time>2026-04-25T07:58:18.986Z</time></trkpt><trkpt lat="39.5696963" lon="16.2376189"><ele>62.5</ele><time>2026-04-25T07:58:19.985Z</time></trkpt><trkpt lat="39.5700349" lon="16.2377199"><ele>62.0</ele><time>2026-04-25T07:58:20.984Z</time></trkpt><trkpt lat="39.5703744" lon="16.2378191"><ele>63.5</ele><time>2026-04-25T07:58:21.972Z</time></trkpt><trkpt lat="39.5707137" lon="16.2379191"><ele>65.0</ele><time>2026-04-25T07:58:22.975Z</time></trkpt><trkpt lat="39.5710524" lon="16.238021"><ele>65.5</ele><time>2026-04-25T07:58:23.984Z</time></trkpt><trkpt lat="39.5713905" lon="16.238126"><ele>66.0</ele><time>2026-04-25T07:58:24.973Z</time></trkpt><trkpt lat="39.5717268" lon="16.2382388"><ele>65.0</ele><time>2026-04-25T07:58:25.98Z</time></trkpt><trkpt lat="39.5720703" lon="16.2383504"><ele>64.0</ele><time>2026-04-25T07:58:26.972Z</time></trkpt><trkpt lat="39.5724026" lon="16.2384861"><ele>64.0</ele><time>2026-04-25T07:58:27.979Z</time></trkpt><trkpt lat="39.5727292" lon="16.2386392"><ele>64.0</ele><time>2026-04-25T07:58:28.984Z</time></trkpt><trkpt lat="39.5730515" lon="16.2388013"><ele>62.5</ele><time>2026-04-25T07:58:29.984Z</time></trkpt><trkpt lat="39.5733679" lon="16.23898"><ele>61.0</ele><time>2026-04-25T07:58:30.981Z</time></trkpt><trkpt lat="39.5736849" lon="16.239168"><ele>62.0</ele><time>2026-04-25T07:58:31.984Z</time></trkpt><trkpt lat="39.5739959" lon="16.2393747"><ele>63.0</ele><time>2026-04-25T07:58:32.987Z</time></trkpt><trkpt lat="39.5742968" lon="16.2395964"><ele>63.0</ele><time>2026-04-25T07:58:33.984Z</time></trkpt><trkpt lat="39.5745938" lon="16.2398286"><ele>63.0</ele><time>2026-04-25T07:58:34.975Z</time></trkpt><trkpt lat="39.5748852" lon="16.2400716"><ele>63.0</ele><time>2026-04-25T07:58:35.978Z</time></trkpt><trkpt lat="39.575171" lon="16.2403261"><ele>63.0</ele><time>2026-04-25T07:58:36.984Z</time></trkpt><trkpt lat="39.5754543" lon="16.2405844"><ele>63.5</ele><time>2026-04-25T07:58:37.974Z</time></trkpt><trkpt lat="39.5757374" lon="16.2408456"><ele>64.0</ele><time>2026-04-25T07:58:38.975Z</time></trkpt><trkpt lat="39.5760198" lon="16.2411086"><ele>63.5</ele><time>2026-04-25T07:58:39.977Z</time></trkpt><trkpt lat="39.5763001" lon="16.2413712"><ele>63.0</ele><time>2026-04-25T07:58:40.994Z</time></trkpt><trkpt lat="39.57658" lon="16.2416324"><ele>63.0</ele><time>2026-04-25T07:58:41.985Z</time></trkpt><trkpt lat="39.5768613" lon="16.2418943"><ele>63.0</ele><time>2026-04-25T07:58:42.975Z</time></trkpt><trkpt lat="39.5771439" lon="16.2421541"><ele>62.0</ele><time>2026-04-25T07:58:43.99Z</time></trkpt><trkpt lat="39.5774293" lon="16.2424094"><ele>61.0</ele><time>2026-04-25T07:58:44.986Z</time></trkpt><trkpt lat="39.5777171" lon="16.2426587"><ele>61.5</ele><time>2026-04-25T07:58:45.981Z</time></trkpt><trkpt lat="39.5780089" lon="16.242902"><ele>62.0</ele><time>2026-04-25T07:58:46.989Z</time></trkpt><trkpt lat="39.5783044" lon="16.243138"><ele>62.0</ele><time>2026-04-25T07:58:47.996Z</time></trkpt><trkpt lat="39.5786048" lon="16.2433653"><ele>62.0</ele><time>2026-04-25T07:58:48.984Z</time></trkpt><trkpt lat="39.5789071" lon="16.2435865"><ele>62.0</ele><time>2026-04-25T07:58:49.988Z</time></trkpt><trkpt lat="39.5792109" lon="16.2438022"><ele>62.0</ele><time>2026-04-25T07:58:50.989Z</time></trkpt><trkpt lat="39.5795201" lon="16.2440074"><ele>62.0</ele><time>2026-04-25T07:58:51.986Z</time></trkpt><trkpt lat="39.5798343" lon="16.2442004"><ele>62.0</ele><time>2026-04-25T07:58:52.988Z</time></trkpt><trkpt lat="39.5801529" lon="16.2443805"><ele>60.5</ele><time>2026-04-25T07:58:53.975Z</time></trkpt><trkpt lat="39.5804767" lon="16.2445467"><ele>59.0</ele><time>2026-04-25T07:58:54.988Z</time></trkpt><trkpt lat="39.5808032" lon="16.2447038"><ele>59.5</ele><time>2026-04-25T07:58:55.985Z</time></trkpt><trkpt lat="39.5811325" lon="16.2448499"><ele>60.0</ele><time>2026-04-25T07:58:56.971Z</time></trkpt><trkpt lat="39.5814645" lon="16.2449862"><ele>60.0</ele><time>2026-04-25T07:58:57.981Z</time></trkpt><trkpt lat="39.581798" lon="16.2451114"><ele>60.0</ele><time>2026-04-25T07:58:58.979Z</time></trkpt><trkpt lat="39.5821333" lon="16.2452267"><ele>61.0</ele><time>2026-04-25T07:58:59.978Z</time></trkpt><trkpt lat="39.582471" lon="16.2453301"><ele>62.0</ele><time>2026-04-25T07:59:00.982Z</time></trkpt><trkpt lat="39.5828103" lon="16.2454233"><ele>61.5</ele><time>2026-04-25T07:59:01.985Z</time></trkpt><trkpt lat="39.5831515" lon="16.2455041"><ele>61.0</ele><time>2026-04-25T07:59:02.979Z</time></trkpt><trkpt lat="39.5834944" lon="16.2455712"><ele>60.5</ele><time>2026-04-25T07:59:03.974Z</time></trkpt><trkpt lat="39.5838382" lon="16.2456274"><ele>60.0</ele><time>2026-04-25T07:59:04.976Z</time></trkpt><trkpt lat="39.5841832" lon="16.2456732"><ele>60.5</ele><time>2026-04-25T07:59:05.988Z</time></trkpt><trkpt lat="39.5845284" lon="16.2457115"><ele>61.0</ele><time>2026-04-25T07:59:06.99Z</time></trkpt><trkpt lat="39.5848748" lon="16.2457425"><ele>61.0</ele><time>2026-04-25T07:59:07.972Z</time></trkpt><trkpt lat="39.5852212" lon="16.2457681"><ele>61.0</ele><time>2026-04-25T07:59:08.982Z</time></trkpt><trkpt lat="39.5855684" lon="16.245792"><ele>60.5</ele><time>2026-04-25T07:59:09.972Z</time></trkpt><trkpt lat="39.5859154" lon="16.2458115"><ele>60.0</ele><time>2026-04-25T07:59:10.968Z</time></trkpt><trkpt lat="39.5862631" lon="16.2458298"><ele>60.0</ele><time>2026-04-25T07:59:11.974Z</time></trkpt><trkpt lat="39.5866118" lon="16.2458425"><ele>60.0</ele><time>2026-04-25T07:59:12.977Z</time></trkpt><trkpt lat="39.5869598" lon="16.2458574"><ele>60.5</ele><time>2026-04-25T07:59:13.972Z</time></trkpt><trkpt lat="39.5873067" lon="16.2458722"><ele>61.0</ele><time>2026-04-25T07:59:14.984Z</time></trkpt><trkpt lat="39.5876533" lon="16.2458881"><ele>62.5</ele><time>2026-04-25T07:59:15.988Z</time></trkpt><trkpt lat="39.5879993" lon="16.2459064"><ele>64.0</ele><time>2026-04-25T07:59:16.977Z</time></trkpt><trkpt lat="39.5883455" lon="16.2459245"><ele>66.5</ele><time>2026-04-25T07:59:17.997Z</time></trkpt><trkpt lat="39.5886916" lon="16.2459407"><ele>69.0</ele><time>2026-04-25T07:59:18.981Z</time></trkpt><trkpt lat="39.5890376" lon="16.2459544"><ele>69.0</ele><time>2026-04-25T07:59:19.98Z</time></trkpt><trkpt lat="39.5893835" lon="16.2459686"><ele>69.0</ele><time>2026-04-25T07:59:20.988Z</time></trkpt><trkpt lat="39.5897296" lon="16.2459835"><ele>71.0</ele><time>2026-04-25T07:59:21.977Z</time></trkpt><trkpt lat="39.5900757" lon="16.2459967"><ele>73.0</ele><time>2026-04-25T07:59:22.973Z</time></trkpt><trkpt lat="39.5904214" lon="16.2460067"><ele>73.5</ele><time>2026-04-25T07:59:23.982Z</time></trkpt><trkpt lat="39.590766" lon="16.2460109"><ele>74.0</ele><time>2026-04-25T07:59:24.976Z</time></trkpt><trkpt lat="39.5911114" lon="16.2460068"><ele>76.5</ele><time>2026-04-25T07:59:25.979Z</time></trkpt><trkpt lat="39.5914567" lon="16.2459915"><ele>79.0</ele><time>2026-04-25T07:59:26.98Z</time></trkpt><trkpt lat="39.591802" lon="16.2459609"><ele>75.0</ele><time>2026-04-25T07:59:27.989Z</time></trkpt><trkpt lat="39.5921467" lon="16.2459126"><ele>71.0</ele><time>2026-04-25T07:59:28.975Z</time></trkpt><trkpt lat="39.5924902" lon="16.2458484"><ele>71.0</ele><time>2026-04-25T07:59:29.975Z</time></trkpt><trkpt lat="39.5928313" lon="16.2457704"><ele>71.0</ele><time>2026-04-25T07:59:30.981Z</time></trkpt><trkpt lat="39.5931704" lon="16.2456782"><ele>70.0</ele><time>2026-04-25T07:59:31.978Z</time></trkpt><trkpt lat="39.5935059" lon="16.2455699"><ele>69.0</ele><time>2026-04-25T07:59:32.981Z</time></trkpt><trkpt lat="39.5938389" lon="16.245442"><ele>77.5</ele><time>2026-04-25T07:59:33.978Z</time></trkpt><trkpt lat="39.5941665" lon="16.2452975"><ele>86.0</ele><time>2026-04-25T07:59:34.974Z</time></trkpt><trkpt lat="39.5944902" lon="16.2451382"><ele>88.0</ele><time>2026-04-25T07:59:35.978Z</time></trkpt><trkpt lat="39.5948103" lon="16.2449655"><ele>90.0</ele><time>2026-04-25T07:59:36.973Z</time></trkpt><trkpt lat="39.595126" lon="16.2447812"><ele>94.0</ele><time>2026-04-25T07:59:37.98Z</time></trkpt><trkpt lat="39.5954379" lon="16.2445841"><ele>98.0</ele><time>2026-04-25T07:59:38.977Z</time></trkpt><trkpt lat="39.5957441" lon="16.244374"><ele>98.0</ele><time>2026-04-25T07:59:39.985Z</time></trkpt><trkpt lat="39.5960442" lon="16.2441493"><ele>98.0</ele><time>2026-04-25T07:59:40.977Z</time></trkpt><trkpt lat="39.5963368" lon="16.2439096"><ele>103.0</ele><time>2026-04-25T07:59:41.981Z</time></trkpt><trkpt lat="39.5966227" lon="16.2436547"><ele>108.0</ele><time>2026-04-25T07:59:42.983Z</time></trkpt><trkpt lat="39.5969014" lon="16.2433876"><ele>108.5</ele><time>2026-04-25T07:59:43.982Z</time></trkpt><trkpt lat="39.5971732" lon="16.2431095"><ele>109.0</ele><time>2026-04-25T07:59:44.973Z</time></trkpt><trkpt lat="39.5974381" lon="16.2428194"><ele>109.0</ele><time>2026-04-25T07:59:45.98Z</time></trkpt><trkpt lat="39.5976943" lon="16.2425176"><ele>109.0</ele><time>2026-04-25T07:59:46.984Z</time></trkpt><trkpt lat="39.5979421" lon="16.2422039"><ele>109.0</ele><time>2026-04-25T07:59:47.977Z</time></trkpt><trkpt lat="39.598182" lon="16.2418811"><ele>109.0</ele><time>2026-04-25T07:59:48.982Z</time></trkpt><trkpt lat="39.5984144" lon="16.2415486"><ele>108.5</ele><time>2026-04-25T07:59:49.979Z</time></trkpt><trkpt lat="39.5986401" lon="16.2412084"><ele>108.0</ele><time>2026-04-25T07:59:50.979Z</time></trkpt><trkpt lat="39.5988608" lon="16.2408634"><ele>112.0</ele><time>2026-04-25T07:59:51.98Z</time></trkpt><trkpt lat="39.5990781" lon="16.2405148"><ele>116.0</ele><time>2026-04-25T07:59:52.976Z</time></trkpt><trkpt lat="39.5992943" lon="16.2401643"><ele>123.5</ele><time>2026-04-25T07:59:53.982Z</time></trkpt><trkpt lat="39.5995107" lon="16.2398132"><ele>131.0</ele><time>2026-04-25T07:59:54.986Z</time></trkpt><trkpt lat="39.5997283" lon="16.2394634"><ele>131.0</ele><time>2026-04-25T07:59:55.972Z</time></trkpt><trkpt lat="39.599946" lon="16.2391254"><ele>131.0</ele><time>2026-04-25T07:59:56.978Z</time></trkpt><trkpt lat="39.6001705" lon="16.2387796"><ele>135.0</ele><time>2026-04-25T07:59:57.978Z</time></trkpt><trkpt lat="39.6003872" lon="16.2384301"><ele>139.0</ele><time>2026-04-25T07:59:58.968Z</time></trkpt><trkpt lat="39.6008479" lon="16.2377247"><ele>139.0</ele><time>2026-04-25T08:00:00.976Z</time></trkpt><trkpt lat="39.6010825" lon="16.2373967"><ele>139.0</ele><time>2026-04-25T08:00:01.985Z</time></trkpt><trkpt lat="39.6013307" lon="16.2370305"><ele>141.5</ele><time>2026-04-25T08:00:02.978Z</time></trkpt><trkpt lat="39.6015985" lon="16.2367112"><ele>144.0</ele><time>2026-04-25T08:00:03.981Z</time></trkpt><trkpt lat="39.6018617" lon="16.236404"><ele>153.5</ele><time>2026-04-25T08:00:04.981Z</time></trkpt><trkpt lat="39.6021208" lon="16.2360998"><ele>163.0</ele><time>2026-04-25T08:00:05.975Z</time></trkpt><trkpt lat="39.6023474" lon="16.235833"><ele>172.0</ele><time>2026-04-25T08:00:30.626Z</time></trkpt><trkpt lat="39.611424" lon="16.2313593"><ele>172.0</ele><time>2026-04-25T08:00:33.92Z</time></trkpt><trkpt lat="39.6117699" lon="16.2311779"><ele>172.0</ele><time>2026-04-25T08:00:34.976Z</time></trkpt><trkpt lat="39.6121163" lon="16.2310577"><ele>172.0</ele><time>2026-04-25T08:00:35.979Z</time></trkpt><trkpt lat="39.6124526" lon="16.230934"><ele>172.0</ele><time>2026-04-25T08:00:36.977Z</time></trkpt><trkpt lat="39.6127819" lon="16.2308128"><ele>173.0</ele><time>2026-04-25T08:00:37.986Z</time></trkpt><trkpt lat="39.6131143" lon="16.2306913"><ele>174.0</ele><time>2026-04-25T08:00:38.975Z</time></trkpt><trkpt lat="39.6134492" lon="16.2305697"><ele>168.0</ele><time>2026-04-25T08:00:39.973Z</time></trkpt><trkpt lat="39.6137851" lon="16.2304512"><ele>162.0</ele><time>2026-04-25T08:00:40.98Z</time></trkpt><trkpt lat="39.614124" lon="16.2303404"><ele>162.0</ele><time>2026-04-25T08:00:41.976Z</time></trkpt><trkpt lat="39.6144629" lon="16.2302424"><ele>162.0</ele><time>2026-04-25T08:00:42.977Z</time></trkpt><trkpt lat="39.6148036" lon="16.2301558"><ele>162.5</ele><time>2026-04-25T08:00:43.983Z</time></trkpt><trkpt lat="39.6151486" lon="16.2300864"><ele>163.0</ele><time>2026-04-25T08:00:44.982Z</time></trkpt><trkpt lat="39.6154976" lon="16.2300393"><ele>163.0</ele><time>2026-04-25T08:00:45.978Z</time></trkpt><trkpt lat="39.6158447" lon="16.2300095"><ele>163.0</ele><time>2026-04-25T08:00:46.975Z</time></trkpt><trkpt lat="39.6161928" lon="16.2299973"><ele>162.0</ele><time>2026-04-25T08:00:47.979Z</time></trkpt><trkpt lat="39.6165418" lon="16.2300056"><ele>161.0</ele><time>2026-04-25T08:00:48.977Z</time></trkpt><trkpt lat="39.6168908" lon="16.2300232"><ele>156.5</ele><time>2026-04-25T08:00:49.979Z</time></trkpt><trkpt lat="39.6172359" lon="16.230059"><ele>152.0</ele><time>2026-04-25T08:00:50.978Z</time></trkpt><trkpt lat="39.6175834" lon="16.2300984"><ele>152.0</ele><time>2026-04-25T08:00:51.995Z</time></trkpt><trkpt lat="39.617931" lon="16.2301333"><ele>152.0</ele><time>2026-04-25T08:00:52.985Z</time></trkpt><trkpt lat="39.6182771" lon="16.2301623"><ele>152.0</ele><time>2026-04-25T08:00:53.984Z</time></trkpt><trkpt lat="39.6186234" lon="16.230168"><ele>152.0</ele><time>2026-04-25T08:00:54.981Z</time></trkpt><trkpt lat="39.6189657" lon="16.2301459"><ele>151.5</ele><time>2026-04-25T08:00:55.993Z</time></trkpt><trkpt lat="39.619311" lon="16.2300993"><ele>151.0</ele><time>2026-04-25T08:00:56.987Z</time></trkpt><trkpt lat="39.619656" lon="16.2300374"><ele>151.0</ele><time>2026-04-25T08:00:57.994Z</time></trkpt><trkpt lat="39.62" lon="16.2299625"><ele>151.0</ele><time>2026-04-25T08:00:59.006Z</time></trkpt><trkpt lat="39.6203417" lon="16.2298734"><ele>148.0</ele><time>2026-04-25T08:00:59.983Z</time></trkpt><trkpt lat="39.6206796" lon="16.2297824"><ele>145.0</ele><time>2026-04-25T08:01:00.99Z</time></trkpt><trkpt lat="39.6210226" lon="16.2296946"><ele>145.0</ele><time>2026-04-25T08:01:01.981Z</time></trkpt><trkpt lat="39.6213684" lon="16.2296091"><ele>145.0</ele><time>2026-04-25T08:01:02.977Z</time></trkpt><trkpt lat="39.6217084" lon="16.2295204"><ele>142.0</ele><time>2026-04-25T08:01:03.98Z</time></trkpt><trkpt lat="39.6220498" lon="16.2294351"><ele>139.0</ele><time>2026-04-25T08:01:04.985Z</time></trkpt><trkpt lat="39.6223924" lon="16.2293477"><ele>139.0</ele><time>2026-04-25T08:01:05.985Z</time></trkpt><trkpt lat="39.6227337" lon="16.2292602"><ele>139.0</ele><time>2026-04-25T08:01:06.984Z</time></trkpt><trkpt lat="39.6230744" lon="16.2291765"><ele>138.5</ele><time>2026-04-25T08:01:07.98Z</time></trkpt><trkpt lat="39.6234175" lon="16.2291011"><ele>138.0</ele><time>2026-04-25T08:01:08.982Z</time></trkpt><trkpt lat="39.6237628" lon="16.2290392"><ele>138.0</ele><time>2026-04-25T08:01:09.979Z</time></trkpt><trkpt lat="39.6241086" lon="16.2289922"><ele>138.0</ele><time>2026-04-25T08:01:10.999Z</time></trkpt><trkpt lat="39.624454" lon="16.2289573"><ele>133.0</ele><time>2026-04-25T08:01:11.979Z</time></trkpt><trkpt lat="39.6248001" lon="16.2289422"><ele>128.0</ele><time>2026-04-25T08:01:12.985Z</time></trkpt><trkpt lat="39.6251472" lon="16.2289514"><ele>130.0</ele><time>2026-04-25T08:01:13.988Z</time></trkpt><trkpt lat="39.6254948" lon="16.228979"><ele>132.0</ele><time>2026-04-25T08:01:14.987Z</time></trkpt><trkpt lat="39.6258391" lon="16.2290233"><ele>131.0</ele><time>2026-04-25T08:01:15.975Z</time></trkpt><trkpt lat="39.6261834" lon="16.2290948"><ele>130.0</ele><time>2026-04-25T08:01:16.985Z</time></trkpt><trkpt lat="39.6265253" lon="16.2291711"><ele>130.0</ele><time>2026-04-25T08:01:17.976Z</time></trkpt><trkpt lat="39.6268668" lon="16.2292575"><ele>130.0</ele><time>2026-04-25T08:01:18.971Z</time></trkpt><trkpt lat="39.6272084" lon="16.2293504"><ele>126.5</ele><time>2026-04-25T08:01:19.981Z</time></trkpt><trkpt lat="39.6275485" lon="16.2294425"><ele>123.0</ele><time>2026-04-25T08:01:20.974Z</time></trkpt><trkpt lat="39.6278908" lon="16.2295285"><ele>122.0</ele><time>2026-04-25T08:01:21.974Z</time></trkpt><trkpt lat="39.6282324" lon="16.2296203"><ele>121.0</ele><time>2026-04-25T08:01:22.975Z</time></trkpt><trkpt lat="39.6285687" lon="16.2297182"><ele>122.5</ele><time>2026-04-25T08:01:23.975Z</time></trkpt><trkpt lat="39.6289047" lon="16.2298305"><ele>124.0</ele><time>2026-04-25T08:01:24.979Z</time></trkpt><trkpt lat="39.6292373" lon="16.2299573"><ele>122.0</ele><time>2026-04-25T08:01:25.98Z</time></trkpt><trkpt lat="39.6295658" lon="16.2301025"><ele>120.0</ele><time>2026-04-25T08:01:26.975Z</time></trkpt><trkpt lat="39.6298908" lon="16.2302604"><ele>120.0</ele><time>2026-04-25T08:01:27.984Z</time></trkpt><trkpt lat="39.6302138" lon="16.2304295"><ele>120.0</ele><time>2026-04-25T08:01:28.978Z</time></trkpt><trkpt lat="39.6305329" lon="16.2306086"><ele>117.0</ele><time>2026-04-25T08:01:29.985Z</time></trkpt><trkpt lat="39.630847" lon="16.2307878"><ele>114.0</ele><time>2026-04-25T08:01:30.986Z</time></trkpt><trkpt lat="39.631165" lon="16.2309693"><ele>112.0</ele><time>2026-04-25T08:01:31.981Z</time></trkpt><trkpt lat="39.6314833" lon="16.2311457"><ele>110.0</ele><time>2026-04-25T08:01:32.985Z</time></trkpt><trkpt lat="39.6318105" lon="16.2313037"><ele>110.0</ele><time>2026-04-25T08:01:33.983Z</time></trkpt><trkpt lat="39.6321399" lon="16.2314482"><ele>110.0</ele><time>2026-04-25T08:01:34.983Z</time></trkpt><trkpt lat="39.6324711" lon="16.2315782"><ele>110.0</ele><time>2026-04-25T08:01:35.983Z</time></trkpt><trkpt lat="39.6327924" lon="16.23169"><ele>110.0</ele><time>2026-04-25T08:01:36.994Z</time></trkpt><trkpt lat="39.6331215" lon="16.2317792"><ele>107.0</ele><time>2026-04-25T08:01:37.98Z</time></trkpt><trkpt lat="39.6334681" lon="16.2318414"><ele>104.0</ele><time>2026-04-25T08:01:38.974Z</time></trkpt><trkpt lat="39.6338347" lon="16.2318825"><ele>103.0</ele><time>2026-04-25T08:01:39.976Z</time></trkpt><trkpt lat="39.6342143" lon="16.2319149"><ele>102.0</ele><time>2026-04-25T08:01:40.978Z</time></trkpt><trkpt lat="39.6345918" lon="16.231941"><ele>101.0</ele><time>2026-04-25T08:01:41.972Z</time></trkpt><trkpt lat="39.6349656" lon="16.2319594"><ele>100.0</ele><time>2026-04-25T08:01:42.98Z</time></trkpt><trkpt lat="39.6353314" lon="16.2319398"><ele>97.5</ele><time>2026-04-25T08:01:43.971Z</time></trkpt><trkpt lat="39.6356888" lon="16.2318971"><ele>95.0</ele><time>2026-04-25T08:01:44.981Z</time></trkpt><trkpt lat="39.6360376" lon="16.2318367"><ele>93.5</ele><time>2026-04-25T08:01:45.973Z</time></trkpt><trkpt lat="39.6363814" lon="16.2317539"><ele>92.0</ele><time>2026-04-25T08:01:46.984Z</time></trkpt><trkpt lat="39.6367215" lon="16.2316537"><ele>91.0</ele><time>2026-04-25T08:01:47.984Z</time></trkpt><trkpt lat="39.6370594" lon="16.2315382"><ele>90.0</ele><time>2026-04-25T08:01:48.98Z</time></trkpt><trkpt lat="39.637391" lon="16.2314111"><ele>90.0</ele><time>2026-04-25T08:01:49.989Z</time></trkpt><trkpt lat="39.6377242" lon="16.2312782"><ele>90.0</ele><time>2026-04-25T08:01:50.979Z</time></trkpt><trkpt lat="39.6380557" lon="16.231143"><ele>89.0</ele><time>2026-04-25T08:01:51.979Z</time></trkpt><trkpt lat="39.6383862" lon="16.2310056"><ele>88.0</ele><time>2026-04-25T08:01:52.994Z</time></trkpt><trkpt lat="39.6387167" lon="16.2308678"><ele>87.5</ele><time>2026-04-25T08:01:53.974Z</time></trkpt><trkpt lat="39.6390486" lon="16.2307313"><ele>87.0</ele><time>2026-04-25T08:01:54.977Z</time></trkpt><trkpt lat="39.639379" lon="16.2305937"><ele>85.5</ele><time>2026-04-25T08:01:55.984Z</time></trkpt><trkpt lat="39.6397087" lon="16.2304582"><ele>84.0</ele><time>2026-04-25T08:01:56.985Z</time></trkpt><trkpt lat="39.6400403" lon="16.2303217"><ele>82.5</ele><time>2026-04-25T08:01:57.97Z</time></trkpt><trkpt lat="39.64037" lon="16.2301835"><ele>81.0</ele><time>2026-04-25T08:01:58.982Z</time></trkpt><trkpt lat="39.6406975" lon="16.2300366"><ele>81.0</ele><time>2026-04-25T08:02:00.001Z</time></trkpt><trkpt lat="39.6410199" lon="16.2298734"><ele>81.0</ele><time>2026-04-25T08:02:00.987Z</time></trkpt><trkpt lat="39.6413371" lon="16.2296931"><ele>81.0</ele><time>2026-04-25T08:02:01.984Z</time></trkpt><trkpt lat="39.6416493" lon="16.229498"><ele>81.0</ele><time>2026-04-25T08:02:02.981Z</time></trkpt><trkpt lat="39.6419553" lon="16.2292888"><ele>80.5</ele><time>2026-04-25T08:02:04.002Z</time></trkpt><trkpt lat="39.6422549" lon="16.2290641"><ele>80.0</ele><time>2026-04-25T08:02:04.999Z</time></trkpt><trkpt lat="39.6425464" lon="16.2288242"><ele>81.5</ele><time>2026-04-25T08:02:05.981Z</time></trkpt><trkpt lat="39.6428286" lon="16.2285679"><ele>83.0</ele><time>2026-04-25T08:02:06.984Z</time></trkpt><trkpt lat="39.6431011" lon="16.2282953"><ele>83.0</ele><time>2026-04-25T08:02:07.979Z</time></trkpt><trkpt lat="39.6433637" lon="16.2280062"><ele>83.0</ele><time>2026-04-25T08:02:08.978Z</time></trkpt><trkpt lat="39.6436174" lon="16.2277033"><ele>83.0</ele><time>2026-04-25T08:02:09.99Z</time></trkpt><trkpt lat="39.6438625" lon="16.2273886"><ele>83.0</ele><time>2026-04-25T08:02:10.976Z</time></trkpt><trkpt lat="39.6440975" lon="16.2270613"><ele>83.0</ele><time>2026-04-25T08:02:11.968Z</time></trkpt><trkpt lat="39.644323" lon="16.2267215"><ele>83.0</ele><time>2026-04-25T08:02:12.981Z</time></trkpt><trkpt lat="39.6445354" lon="16.2263681"><ele>83.0</ele><time>2026-04-25T08:02:13.98Z</time></trkpt><trkpt lat="39.6447345" lon="16.2260006"><ele>83.0</ele><time>2026-04-25T08:02:14.974Z</time></trkpt><trkpt lat="39.644922" lon="16.2256224"><ele>84.5</ele><time>2026-04-25T08:02:15.98Z</time></trkpt><trkpt lat="39.6451012" lon="16.2252369"><ele>86.0</ele><time>2026-04-25T08:02:16.972Z</time></trkpt><trkpt lat="39.6452744" lon="16.2248463"><ele>90.5</ele><time>2026-04-25T08:02:17.988Z</time></trkpt><trkpt lat="39.6454408" lon="16.2244499"><ele>95.0</ele><time>2026-04-25T08:02:18.977Z</time></trkpt><trkpt lat="39.6456023" lon="16.2240496"><ele>98.5</ele><time>2026-04-25T08:02:19.966Z</time></trkpt><trkpt lat="39.6457613" lon="16.2236473"><ele>102.0</ele><time>2026-04-25T08:02:20.975Z</time></trkpt><trkpt lat="39.6459204" lon="16.2232455"><ele>98.5</ele><time>2026-04-25T08:02:21.983Z</time></trkpt><trkpt lat="39.6460794" lon="16.2228437"><ele>95.0</ele><time>2026-04-25T08:02:22.985Z</time></trkpt><trkpt lat="39.6462388" lon="16.2224415"><ele>95.0</ele><time>2026-04-25T08:02:23.97Z</time></trkpt><trkpt lat="39.6463989" lon="16.22204"><ele>95.0</ele><time>2026-04-25T08:02:24.975Z</time></trkpt><trkpt lat="39.6465639" lon="16.2216418"><ele>96.0</ele><time>2026-04-25T08:02:25.987Z</time></trkpt><trkpt lat="39.6467379" lon="16.2212498"><ele>97.0</ele><time>2026-04-25T08:02:26.971Z</time></trkpt><trkpt lat="39.6469241" lon="16.2208677"><ele>92.5</ele><time>2026-04-25T08:02:27.977Z</time></trkpt><trkpt lat="39.6471233" lon="16.2204972"><ele>88.0</ele><time>2026-04-25T08:02:28.976Z</time></trkpt><trkpt lat="39.6473327" lon="16.2201375"><ele>88.0</ele><time>2026-04-25T08:02:29.972Z</time></trkpt><trkpt lat="39.6475525" lon="16.2197885"><ele>88.0</ele><time>2026-04-25T08:02:30.985Z</time></trkpt><trkpt lat="39.6477819" lon="16.2194507"><ele>89.0</ele><time>2026-04-25T08:02:31.99Z</time></trkpt><trkpt lat="39.6480225" lon="16.2191281"><ele>90.0</ele><time>2026-04-25T08:02:32.982Z</time></trkpt><trkpt lat="39.6482757" lon="16.2188208"><ele>90.0</ele><time>2026-04-25T08:02:33.979Z</time></trkpt><trkpt lat="39.6485397" lon="16.2185288"><ele>90.0</ele><time>2026-04-25T08:02:34.978Z</time></trkpt><trkpt lat="39.6488133" lon="16.2182523"><ele>90.5</ele><time>2026-04-25T08:02:35.99Z</time></trkpt><trkpt lat="39.6490953" lon="16.2179903"><ele>91.0</ele><time>2026-04-25T08:02:36.986Z</time></trkpt><trkpt lat="39.649385" lon="16.2177431"><ele>92.0</ele><time>2026-04-25T08:02:37.992Z</time></trkpt><trkpt lat="39.649682" lon="16.2175099"><ele>93.0</ele><time>2026-04-25T08:02:38.972Z</time></trkpt><trkpt lat="39.6499866" lon="16.2172938"><ele>89.0</ele><time>2026-04-25T08:02:39.979Z</time></trkpt><trkpt lat="39.6502994" lon="16.2170988"><ele>85.0</ele><time>2026-04-25T08:02:40.978Z</time></trkpt><trkpt lat="39.650619" lon="16.216924"><ele>85.0</ele><time>2026-04-25T08:02:41.977Z</time></trkpt><trkpt lat="39.6509436" lon="16.2167667"><ele>85.0</ele><time>2026-04-25T08:02:42.976Z</time></trkpt><trkpt lat="39.6512716" lon="16.2166252"><ele>84.5</ele><time>2026-04-25T08:02:43.984Z</time></trkpt><trkpt lat="39.6516037" lon="16.2164981"><ele>84.0</ele><time>2026-04-25T08:02:44.977Z</time></trkpt><trkpt lat="39.6519389" lon="16.2163859"><ele>83.5</ele><time>2026-04-25T08:02:45.979Z</time></trkpt><trkpt lat="39.6522768" lon="16.216287"><ele>83.0</ele><time>2026-04-25T08:02:46.979Z</time></trkpt><trkpt lat="39.6526164" lon="16.216198"><ele>83.5</ele><time>2026-04-25T08:02:47.994Z</time></trkpt><trkpt lat="39.6529571" lon="16.2161133"><ele>84.0</ele><time>2026-04-25T08:02:48.995Z</time></trkpt><trkpt lat="39.653298" lon="16.2160319"><ele>84.0</ele><time>2026-04-25T08:02:49.969Z</time></trkpt><trkpt lat="39.6536398" lon="16.2159525"><ele>84.0</ele><time>2026-04-25T08:02:50.998Z</time></trkpt><trkpt lat="39.6539818" lon="16.2158739"><ele>84.0</ele><time>2026-04-25T08:02:51.983Z</time></trkpt><trkpt lat="39.654324" lon="16.2157935"><ele>84.0</ele><time>2026-04-25T08:02:52.977Z</time></trkpt><trkpt lat="39.6546656" lon="16.2157125"><ele>83.5</ele><time>2026-04-25T08:02:53.981Z</time></trkpt><trkpt lat="39.6550074" lon="16.2156334"><ele>83.0</ele><time>2026-04-25T08:02:54.983Z</time></trkpt><trkpt lat="39.6553497" lon="16.2155561"><ele>82.5</ele><time>2026-04-25T08:02:55.977Z</time></trkpt><trkpt lat="39.6556922" lon="16.21548"><ele>82.0</ele><time>2026-04-25T08:02:56.982Z</time></trkpt><trkpt lat="39.6560344" lon="16.2154045"><ele>82.5</ele><time>2026-04-25T08:02:57.988Z</time></trkpt><trkpt lat="39.6563765" lon="16.2153287"><ele>83.0</ele><time>2026-04-25T08:02:58.971Z</time></trkpt><trkpt lat="39.6567189" lon="16.2152514"><ele>83.0</ele><time>2026-04-25T08:02:59.975Z</time></trkpt><trkpt lat="39.6570606" lon="16.2151724"><ele>83.0</ele><time>2026-04-25T08:03:00.976Z</time></trkpt><trkpt lat="39.657402" lon="16.2150933"><ele>83.0</ele><time>2026-04-25T08:03:01.98Z</time></trkpt><trkpt lat="39.6577435" lon="16.2150141"><ele>83.0</ele><time>2026-04-25T08:03:02.983Z</time></trkpt><trkpt lat="39.6580852" lon="16.2149348"><ele>82.5</ele><time>2026-04-25T08:03:03.984Z</time></trkpt><trkpt lat="39.6584273" lon="16.2148548"><ele>82.0</ele><time>2026-04-25T08:03:04.97Z</time></trkpt><trkpt lat="39.6587699" lon="16.2147752"><ele>82.0</ele><time>2026-04-25T08:03:05.979Z</time></trkpt><trkpt lat="39.6591129" lon="16.2146974"><ele>82.0</ele><time>2026-04-25T08:03:06.988Z</time></trkpt><trkpt lat="39.6594564" lon="16.2146209"><ele>82.5</ele><time>2026-04-25T08:03:07.974Z</time></trkpt><trkpt lat="39.6597998" lon="16.2145448"><ele>83.0</ele><time>2026-04-25T08:03:08.99Z</time></trkpt><trkpt lat="39.660143" lon="16.2144682"><ele>83.0</ele><time>2026-04-25T08:03:09.985Z</time></trkpt><trkpt lat="39.6604863" lon="16.2143917"><ele>83.0</ele><time>2026-04-25T08:03:10.983Z</time></trkpt><trkpt lat="39.6608292" lon="16.2143165"><ele>82.5</ele><time>2026-04-25T08:03:11.981Z</time></trkpt><trkpt lat="39.6611731" lon="16.2142461"><ele>82.0</ele><time>2026-04-25T08:03:12.996Z</time></trkpt><trkpt lat="39.6615178" lon="16.2141827"><ele>82.0</ele><time>2026-04-25T08:03:13.985Z</time></trkpt><trkpt lat="39.6618629" lon="16.2141278"><ele>82.0</ele><time>2026-04-25T08:03:14.974Z</time></trkpt><trkpt lat="39.6622091" lon="16.2140837"><ele>82.5</ele><time>2026-04-25T08:03:15.979Z</time></trkpt><trkpt lat="39.6625562" lon="16.2140528"><ele>83.0</ele><time>2026-04-25T08:03:16.981Z</time></trkpt><trkpt lat="39.6629033" lon="16.2140349"><ele>83.0</ele><time>2026-04-25T08:03:17.97Z</time></trkpt><trkpt lat="39.6632504" lon="16.2140314"><ele>83.0</ele><time>2026-04-25T08:03:18.977Z</time></trkpt><trkpt lat="39.6635975" lon="16.214042"><ele>83.5</ele><time>2026-04-25T08:03:19.978Z</time></trkpt><trkpt lat="39.6639438" lon="16.2140662"><ele>84.0</ele><time>2026-04-25T08:03:20.971Z</time></trkpt><trkpt lat="39.6642896" lon="16.2141037"><ele>84.0</ele><time>2026-04-25T08:03:21.986Z</time></trkpt><trkpt lat="39.6646346" lon="16.214154"><ele>84.0</ele><time>2026-04-25T08:03:22.978Z</time></trkpt><trkpt lat="39.6649791" lon="16.2142155"><ele>84.0</ele><time>2026-04-25T08:03:23.968Z</time></trkpt><trkpt lat="39.6653222" lon="16.2142879"><ele>84.0</ele><time>2026-04-25T08:03:24.986Z</time></trkpt><trkpt lat="39.6656629" lon="16.2143732"><ele>84.0</ele><time>2026-04-25T08:03:25.997Z</time></trkpt><trkpt lat="39.6660013" lon="16.2144706"><ele>84.0</ele><time>2026-04-25T08:03:26.987Z</time></trkpt><trkpt lat="39.6663386" lon="16.2145768"><ele>84.5</ele><time>2026-04-25T08:03:27.994Z</time></trkpt><trkpt lat="39.6666752" lon="16.2146878"><ele>85.0</ele><time>2026-04-25T08:03:28.983Z</time></trkpt><trkpt lat="39.6670114" lon="16.2148008"><ele>86.0</ele><time>2026-04-25T08:03:29.984Z</time></trkpt><trkpt lat="39.6673469" lon="16.2149138"><ele>87.0</ele><time>2026-04-25T08:03:30.988Z</time></trkpt><trkpt lat="39.667683" lon="16.215025"><ele>86.5</ele><time>2026-04-25T08:03:31.991Z</time></trkpt><trkpt lat="39.6680189" lon="16.2151373"><ele>86.0</ele><time>2026-04-25T08:03:32.981Z</time></trkpt><trkpt lat="39.6683545" lon="16.2152506"><ele>86.0</ele><time>2026-04-25T08:03:33.995Z</time></trkpt><trkpt lat="39.6686896" lon="16.2153642"><ele>86.0</ele><time>2026-04-25T08:03:35.003Z</time></trkpt><trkpt lat="39.6690257" lon="16.215476"><ele>86.0</ele><time>2026-04-25T08:03:35.977Z</time></trkpt><trkpt lat="39.6693622" lon="16.215586"><ele>86.0</ele><time>2026-04-25T08:03:36.982Z</time></trkpt><trkpt lat="39.669699" lon="16.2156957"><ele>86.5</ele><time>2026-04-25T08:03:37.987Z</time></trkpt><trkpt lat="39.6700355" lon="16.2158059"><ele>87.0</ele><time>2026-04-25T08:03:38.976Z</time></trkpt><trkpt lat="39.670372" lon="16.2159176"><ele>87.5</ele><time>2026-04-25T08:03:39.995Z</time></trkpt><trkpt lat="39.6707075" lon="16.2160324"><ele>88.0</ele><time>2026-04-25T08:03:40.983Z</time></trkpt><trkpt lat="39.6710428" lon="16.2161493"><ele>89.0</ele><time>2026-04-25T08:03:41.979Z</time></trkpt><trkpt lat="39.6713777" lon="16.2162649"><ele>90.0</ele><time>2026-04-25T08:03:42.988Z</time></trkpt><trkpt lat="39.6717133" lon="16.2163787"><ele>90.0</ele><time>2026-04-25T08:03:43.993Z</time></trkpt><trkpt lat="39.6720505" lon="16.2164904"><ele>90.0</ele><time>2026-04-25T08:03:44.972Z</time></trkpt><trkpt lat="39.6723874" lon="16.2166011"><ele>90.0</ele><time>2026-04-25T08:03:45.98Z</time></trkpt><trkpt lat="39.6727236" lon="16.2167131"><ele>90.0</ele><time>2026-04-25T08:03:46.987Z</time></trkpt><trkpt lat="39.6730593" lon="16.2168259"><ele>91.0</ele><time>2026-04-25T08:03:47.982Z</time></trkpt><trkpt lat="39.6733949" lon="16.2169401"><ele>92.0</ele><time>2026-04-25T08:03:48.982Z</time></trkpt><trkpt lat="39.6737297" lon="16.2170539"><ele>92.0</ele><time>2026-04-25T08:03:49.992Z</time></trkpt><trkpt lat="39.6740645" lon="16.2171684"><ele>92.0</ele><time>2026-04-25T08:03:50.977Z</time></trkpt><trkpt lat="39.6743999" lon="16.2172822"><ele>92.0</ele><time>2026-04-25T08:03:52.002Z</time></trkpt><trkpt lat="39.6747358" lon="16.2173953"><ele>92.0</ele><time>2026-04-25T08:03:52.972Z</time></trkpt><trkpt lat="39.6750717" lon="16.2175071"><ele>93.0</ele><time>2026-04-25T08:03:53.992Z</time></trkpt><trkpt lat="39.6754084" lon="16.2176169"><ele>94.0</ele><time>2026-04-25T08:03:54.988Z</time></trkpt><trkpt lat="39.6757452" lon="16.2177268"><ele>94.0</ele><time>2026-04-25T08:03:55.987Z</time></trkpt><trkpt lat="39.6760819" lon="16.2178383"><ele>94.0</ele><time>2026-04-25T08:03:56.989Z</time></trkpt><trkpt lat="39.676419" lon="16.2179512"><ele>94.0</ele><time>2026-04-25T08:03:57.981Z</time></trkpt><trkpt lat="39.6767561" lon="16.2180637"><ele>94.0</ele><time>2026-04-25T08:03:58.988Z</time></trkpt><trkpt lat="39.6770933" lon="16.2181775"><ele>93.5</ele><time>2026-04-25T08:03:59.992Z</time></trkpt><trkpt lat="39.6774301" lon="16.2182932"><ele>93.0</ele><time>2026-04-25T08:04:00.979Z</time></trkpt><trkpt lat="39.6777665" lon="16.2184114"><ele>93.0</ele><time>2026-04-25T08:04:01.99Z</time></trkpt><trkpt lat="39.6781028" lon="16.218531"><ele>93.0</ele><time>2026-04-25T08:04:02.977Z</time></trkpt><trkpt lat="39.6784389" lon="16.2186511"><ele>92.5</ele><time>2026-04-25T08:04:03.99Z</time></trkpt><trkpt lat="39.6787744" lon="16.2187746"><ele>92.0</ele><time>2026-04-25T08:04:04.988Z</time></trkpt><trkpt lat="39.6791077" lon="16.218907"><ele>92.5</ele><time>2026-04-25T08:04:05.987Z</time></trkpt><trkpt lat="39.6794387" lon="16.2190506"><ele>93.0</ele><time>2026-04-25T08:04:06.988Z</time></trkpt><trkpt lat="39.6797665" lon="16.2192045"><ele>93.0</ele><time>2026-04-25T08:04:07.988Z</time></trkpt><trkpt lat="39.6800903" lon="16.2193711"><ele>93.0</ele><time>2026-04-25T08:04:08.986Z</time></trkpt><trkpt lat="39.6804091" lon="16.2195521"><ele>92.0</ele><time>2026-04-25T08:04:09.99Z</time></trkpt><trkpt lat="39.6807229" lon="16.2197453"><ele>91.0</ele><time>2026-04-25T08:04:10.989Z</time></trkpt><trkpt lat="39.681033" lon="16.2199481"><ele>90.5</ele><time>2026-04-25T08:04:11.974Z</time></trkpt><trkpt lat="39.6813387" lon="16.2201621"><ele>90.0</ele><time>2026-04-25T08:04:12.978Z</time></trkpt><trkpt lat="39.681638" lon="16.2203895"><ele>90.0</ele><time>2026-04-25T08:04:13.975Z</time></trkpt><trkpt lat="39.6819311" lon="16.2206292"><ele>90.0</ele><time>2026-04-25T08:04:14.979Z</time></trkpt><trkpt lat="39.6822196" lon="16.2208769"><ele>90.0</ele><time>2026-04-25T08:04:15.981Z</time></trkpt><trkpt lat="39.6825047" lon="16.2211319"><ele>90.0</ele><time>2026-04-25T08:04:16.981Z</time></trkpt><trkpt lat="39.6827831" lon="16.2213987"><ele>90.0</ele><time>2026-04-25T08:04:17.988Z</time></trkpt><trkpt lat="39.683052" lon="16.2216811"><ele>90.0</ele><time>2026-04-25T08:04:18.98Z</time></trkpt><trkpt lat="39.6833141" lon="16.2219757"><ele>90.0</ele><time>2026-04-25T08:04:19.978Z</time></trkpt><trkpt lat="39.6835726" lon="16.2222761"><ele>90.0</ele><time>2026-04-25T08:04:20.982Z</time></trkpt><trkpt lat="39.6838274" lon="16.2225817"><ele>89.5</ele><time>2026-04-25T08:04:21.985Z</time></trkpt><trkpt lat="39.6840773" lon="16.2228938"><ele>89.0</ele><time>2026-04-25T08:04:22.976Z</time></trkpt><trkpt lat="39.6843255" lon="16.2232083"><ele>89.5</ele><time>2026-04-25T08:04:23.981Z</time></trkpt><trkpt lat="39.6845749" lon="16.2235214"><ele>90.0</ele><time>2026-04-25T08:04:24.98Z</time></trkpt><trkpt lat="39.6848265" lon="16.2238312"><ele>90.0</ele><time>2026-04-25T08:04:25.98Z</time></trkpt><trkpt lat="39.6850794" lon="16.2241397"><ele>90.0</ele><time>2026-04-25T08:04:26.994Z</time></trkpt><trkpt lat="39.6853319" lon="16.2244486"><ele>90.5</ele><time>2026-04-25T08:04:27.98Z</time></trkpt><trkpt lat="39.6855841" lon="16.2247585"><ele>91.0</ele><time>2026-04-25T08:04:28.981Z</time></trkpt><trkpt lat="39.6858357" lon="16.2250692"><ele>92.0</ele><time>2026-04-25T08:04:29.982Z</time></trkpt><trkpt lat="39.6860867" lon="16.2253802"><ele>93.0</ele><time>2026-04-25T08:04:30.979Z</time></trkpt><trkpt lat="39.6863374" lon="16.2256914"><ele>94.0</ele><time>2026-04-25T08:04:31.989Z</time></trkpt><trkpt lat="39.686588" lon="16.2260034"><ele>95.0</ele><time>2026-04-25T08:04:32.989Z</time></trkpt><trkpt lat="39.6868372" lon="16.2263175"><ele>96.5</ele><time>2026-04-25T08:04:33.995Z</time></trkpt><trkpt lat="39.6870831" lon="16.2266367"><ele>98.0</ele><time>2026-04-25T08:04:34.98Z</time></trkpt><trkpt lat="39.6873249" lon="16.2269611"><ele>98.0</ele><time>2026-04-25T08:04:35.986Z</time></trkpt><trkpt lat="39.6875638" lon="16.227289"><ele>98.0</ele><time>2026-04-25T08:04:36.988Z</time></trkpt><trkpt lat="39.687801" lon="16.2276184"><ele>97.5</ele><time>2026-04-25T08:04:37.981Z</time></trkpt><trkpt lat="39.6880364" lon="16.2279499"><ele>97.0</ele><time>2026-04-25T08:04:38.983Z</time></trkpt><trkpt lat="39.6882708" lon="16.2282825"><ele>97.0</ele><time>2026-04-25T08:04:39.983Z</time></trkpt><trkpt lat="39.6885038" lon="16.2286164"><ele>97.0</ele><time>2026-04-25T08:04:40.98Z</time></trkpt><trkpt lat="39.688737" lon="16.2289504"><ele>98.0</ele><time>2026-04-25T08:04:41.988Z</time></trkpt><trkpt lat="39.6889713" lon="16.2292834"><ele>99.0</ele><time>2026-04-25T08:04:42.986Z</time></trkpt><trkpt lat="39.6892084" lon="16.2296132"><ele>99.0</ele><time>2026-04-25T08:04:43.981Z</time></trkpt><trkpt lat="39.6894477" lon="16.2299401"><ele>99.0</ele><time>2026-04-25T08:04:44.975Z</time></trkpt><trkpt lat="39.6896886" lon="16.2302659"><ele>99.0</ele><time>2026-04-25T08:04:46.002Z</time></trkpt><trkpt lat="39.6899377" lon="16.2305759"><ele>99.0</ele><time>2026-04-25T08:04:46.981Z</time></trkpt><trkpt lat="39.6901873" lon="16.2308914"><ele>98.5</ele><time>2026-04-25T08:04:47.976Z</time></trkpt><trkpt lat="39.6904324" lon="16.2312127"><ele>98.0</ele><time>2026-04-25T08:04:48.987Z</time></trkpt><trkpt lat="39.6906691" lon="16.2315433"><ele>98.0</ele><time>2026-04-25T08:04:49.978Z</time></trkpt><trkpt lat="39.6909006" lon="16.2318768"><ele>98.0</ele><time>2026-04-25T08:04:50.976Z</time></trkpt><trkpt lat="39.6911382" lon="16.2322094"><ele>96.0</ele><time>2026-04-25T08:04:51.979Z</time></trkpt><trkpt lat="39.6913738" lon="16.2325417"><ele>94.0</ele><time>2026-04-25T08:04:52.976Z</time></trkpt><trkpt lat="39.6916124" lon="16.2328743"><ele>93.0</ele><time>2026-04-25T08:04:53.971Z</time></trkpt><trkpt lat="39.6918505" lon="16.2332046"><ele>92.0</ele><time>2026-04-25T08:04:54.977Z</time></trkpt><trkpt lat="39.6920889" lon="16.2335332"><ele>92.0</ele><time>2026-04-25T08:04:55.985Z</time></trkpt><trkpt lat="39.692327" lon="16.2338615"><ele>92.0</ele><time>2026-04-25T08:04:56.971Z</time></trkpt><trkpt lat="39.6925675" lon="16.2341853"><ele>91.5</ele><time>2026-04-25T08:04:57.983Z</time></trkpt><trkpt lat="39.6928123" lon="16.234505"><ele>91.0</ele><time>2026-04-25T08:04:58.985Z</time></trkpt><trkpt lat="39.693062" lon="16.234816"><ele>92.5</ele><time>2026-04-25T08:04:59.975Z</time></trkpt><trkpt lat="39.6933165" lon="16.235118"><ele>94.0</ele><time>2026-04-25T08:05:00.978Z</time></trkpt><trkpt lat="39.69358" lon="16.2354083"><ele>93.5</ele><time>2026-04-25T08:05:01.98Z</time></trkpt><trkpt lat="39.6938513" lon="16.2356875"><ele>93.0</ele><time>2026-04-25T08:05:02.979Z</time></trkpt><trkpt lat="39.6941287" lon="16.2359573"><ele>93.0</ele><time>2026-04-25T08:05:03.977Z</time></trkpt><trkpt lat="39.6944128" lon="16.2362172"><ele>93.0</ele><time>2026-04-25T08:05:04.981Z</time></trkpt><trkpt lat="39.6947028" lon="16.2364643"><ele>93.0</ele><time>2026-04-25T08:05:05.978Z</time></trkpt><trkpt lat="39.6949989" lon="16.236701"><ele>93.0</ele><time>2026-04-25T08:05:06.977Z</time></trkpt><trkpt lat="39.6953" lon="16.2369285"><ele>93.0</ele><time>2026-04-25T08:05:07.991Z</time></trkpt><trkpt lat="39.6956053" lon="16.2371454"><ele>93.0</ele><time>2026-04-25T08:05:08.98Z</time></trkpt><trkpt lat="39.6959148" lon="16.2373507"><ele>91.5</ele><time>2026-04-25T08:05:09.981Z</time></trkpt><trkpt lat="39.6962282" lon="16.2375469"><ele>90.0</ele><time>2026-04-25T08:05:10.98Z</time></trkpt><trkpt lat="39.6965422" lon="16.2377383"><ele>90.0</ele><time>2026-04-25T08:05:11.982Z</time></trkpt><trkpt lat="39.6968587" lon="16.2379297"><ele>90.0</ele><time>2026-04-25T08:05:12.986Z</time></trkpt><trkpt lat="39.6971743" lon="16.2381217"><ele>90.0</ele><time>2026-04-25T08:05:13.982Z</time></trkpt><trkpt lat="39.6974884" lon="16.2383176"><ele>90.0</ele><time>2026-04-25T08:05:14.972Z</time></trkpt><trkpt lat="39.697801" lon="16.2385152"><ele>89.0</ele><time>2026-04-25T08:05:15.978Z</time></trkpt><trkpt lat="39.698115" lon="16.2387108"><ele>88.0</ele><time>2026-04-25T08:05:16.969Z</time></trkpt><trkpt lat="39.698429" lon="16.2389066"><ele>87.5</ele><time>2026-04-25T08:05:17.974Z</time></trkpt><trkpt lat="39.6987419" lon="16.2391035"><ele>87.0</ele><time>2026-04-25T08:05:18.979Z</time></trkpt><trkpt lat="39.699054" lon="16.2392998"><ele>87.0</ele><time>2026-04-25T08:05:19.984Z</time></trkpt><trkpt lat="39.6993674" lon="16.2394954"><ele>87.0</ele><time>2026-04-25T08:05:20.985Z</time></trkpt><trkpt lat="39.6996807" lon="16.2396885"><ele>87.5</ele><time>2026-04-25T08:05:21.979Z</time></trkpt><trkpt lat="39.6999948" lon="16.23988"><ele>88.0</ele><time>2026-04-25T08:05:22.984Z</time></trkpt><trkpt lat="39.7003091" lon="16.2400701"><ele>88.5</ele><time>2026-04-25T08:05:23.981Z</time></trkpt><trkpt lat="39.7006232" lon="16.2402606"><ele>89.0</ele><time>2026-04-25T08:05:24.973Z</time></trkpt><trkpt lat="39.7009375" lon="16.2404513"><ele>88.0</ele><time>2026-04-25T08:05:25.976Z</time></trkpt><trkpt lat="39.7012515" lon="16.2406418"><ele>87.0</ele><time>2026-04-25T08:05:26.986Z</time></trkpt><trkpt lat="39.7015654" lon="16.2408304"><ele>87.0</ele><time>2026-04-25T08:05:27.976Z</time></trkpt><trkpt lat="39.70188" lon="16.2410184"><ele>87.0</ele><time>2026-04-25T08:05:28.98Z</time></trkpt><trkpt lat="39.7021947" lon="16.2412058"><ele>88.5</ele><time>2026-04-25T08:05:29.98Z</time></trkpt><trkpt lat="39.7025088" lon="16.2413953"><ele>90.0</ele><time>2026-04-25T08:05:30.973Z</time></trkpt><trkpt lat="39.7028229" lon="16.2415869"><ele>90.0</ele><time>2026-04-25T08:05:31.984Z</time></trkpt><trkpt lat="39.7031373" lon="16.24178"><ele>90.0</ele><time>2026-04-25T08:05:32.978Z</time></trkpt><trkpt lat="39.7034513" lon="16.2419722"><ele>91.0</ele><time>2026-04-25T08:05:33.975Z</time></trkpt><trkpt lat="39.7037664" lon="16.2421609"><ele>92.0</ele><time>2026-04-25T08:05:34.973Z</time></trkpt><trkpt lat="39.7040819" lon="16.242349"><ele>92.0</ele><time>2026-04-25T08:05:35.986Z</time></trkpt><trkpt lat="39.7043977" lon="16.2425373"><ele>92.0</ele><time>2026-04-25T08:05:36.971Z</time></trkpt><trkpt lat="39.7047144" lon="16.2427232"><ele>92.0</ele><time>2026-04-25T08:05:37.979Z</time></trkpt><trkpt lat="39.7050338" lon="16.2429031"><ele>92.0</ele><time>2026-04-25T08:05:38.976Z</time></trkpt><trkpt lat="39.7053553" lon="16.2430736"><ele>92.5</ele><time>2026-04-25T08:05:39.974Z</time></trkpt><trkpt lat="39.7056807" lon="16.2432342"><ele>93.0</ele><time>2026-04-25T08:05:40.98Z</time></trkpt><trkpt lat="39.7060093" lon="16.2433821"><ele>95.5</ele><time>2026-04-25T08:05:41.984Z</time></trkpt><trkpt lat="39.7063404" lon="16.2435178"><ele>98.0</ele><time>2026-04-25T08:05:42.979Z</time></trkpt><trkpt lat="39.7066739" lon="16.243643"><ele>99.0</ele><time>2026-04-25T08:05:44.007Z</time></trkpt><trkpt lat="39.7070097" lon="16.2437576"><ele>100.0</ele><time>2026-04-25T08:05:44.988Z</time></trkpt><trkpt lat="39.7073478" lon="16.2438574"><ele>100.0</ele><time>2026-04-25T08:05:45.979Z</time></trkpt><trkpt lat="39.7076881" lon="16.2439434"><ele>100.0</ele><time>2026-04-25T08:05:46.984Z</time></trkpt><trkpt lat="39.7080313" lon="16.2440147"><ele>99.5</ele><time>2026-04-25T08:05:47.991Z</time></trkpt><trkpt lat="39.7083759" lon="16.2440713"><ele>99.0</ele><time>2026-04-25T08:05:48.983Z</time></trkpt><trkpt lat="39.7087217" lon="16.244113"><ele>98.0</ele><time>2026-04-25T08:05:49.978Z</time></trkpt><trkpt lat="39.7090674" lon="16.244143"><ele>97.0</ele><time>2026-04-25T08:05:50.98Z</time></trkpt><trkpt lat="39.7094141" lon="16.2441612"><ele>96.5</ele><time>2026-04-25T08:05:51.987Z</time></trkpt><trkpt lat="39.7097612" lon="16.2441672"><ele>96.0</ele><time>2026-04-25T08:05:52.978Z</time></trkpt><trkpt lat="39.7101091" lon="16.244162"><ele>97.5</ele><time>2026-04-25T08:05:53.98Z</time></trkpt><trkpt lat="39.7104562" lon="16.2441439"><ele>99.0</ele><time>2026-04-25T08:05:54.986Z</time></trkpt><trkpt lat="39.7108028" lon="16.2441105"><ele>97.0</ele><time>2026-04-25T08:05:55.981Z</time></trkpt><trkpt lat="39.7111478" lon="16.2440614"><ele>95.0</ele><time>2026-04-25T08:05:56.983Z</time></trkpt><trkpt lat="39.7114919" lon="16.2439972"><ele>98.0</ele><time>2026-04-25T08:05:57.979Z</time></trkpt><trkpt lat="39.7118348" lon="16.2439214"><ele>101.0</ele><time>2026-04-25T08:05:58.986Z</time></trkpt><trkpt lat="39.7121761" lon="16.2438354"><ele>96.5</ele><time>2026-04-25T08:05:59.978Z</time></trkpt><trkpt lat="39.7125154" lon="16.2437383"><ele>92.0</ele><time>2026-04-25T08:06:00.991Z</time></trkpt><trkpt lat="39.7128521" lon="16.2436295"><ele>92.0</ele><time>2026-04-25T08:06:01.997Z</time></trkpt><trkpt lat="39.7131847" lon="16.2435091"><ele>92.0</ele><time>2026-04-25T08:06:02.979Z</time></trkpt><trkpt lat="39.713514" lon="16.2433759"><ele>95.0</ele><time>2026-04-25T08:06:03.987Z</time></trkpt><trkpt lat="39.7138403" lon="16.2432283"><ele>98.0</ele><time>2026-04-25T08:06:04.983Z</time></trkpt><trkpt lat="39.7141632" lon="16.2430699"><ele>102.0</ele><time>2026-04-25T08:06:05.98Z</time></trkpt><trkpt lat="39.7144845" lon="16.2429057"><ele>106.0</ele><time>2026-04-25T08:06:06.98Z</time></trkpt><trkpt lat="39.7148056" lon="16.2427402"><ele>106.0</ele><time>2026-04-25T08:06:07.991Z</time></trkpt><trkpt lat="39.7151269" lon="16.242574"><ele>106.0</ele><time>2026-04-25T08:06:08.977Z</time></trkpt><trkpt lat="39.7154478" lon="16.242406"><ele>108.0</ele><time>2026-04-25T08:06:09.989Z</time></trkpt><trkpt lat="39.7157687" lon="16.2422357"><ele>110.0</ele><time>2026-04-25T08:06:10.977Z</time></trkpt><trkpt lat="39.7160894" lon="16.2420651"><ele>110.0</ele><time>2026-04-25T08:06:11.976Z</time></trkpt><trkpt lat="39.7164119" lon="16.2418946"><ele>110.0</ele><time>2026-04-25T08:06:12.988Z</time></trkpt><trkpt lat="39.7167351" lon="16.2417238"><ele>109.5</ele><time>2026-04-25T08:06:13.983Z</time></trkpt><trkpt lat="39.7170583" lon="16.2415525"><ele>109.0</ele><time>2026-04-25T08:06:14.981Z</time></trkpt><trkpt lat="39.7173817" lon="16.2413834"><ele>110.0</ele><time>2026-04-25T08:06:15.99Z</time></trkpt><trkpt lat="39.7177048" lon="16.2412144"><ele>111.0</ele><time>2026-04-25T08:06:16.974Z</time></trkpt><trkpt lat="39.7180274" lon="16.2410444"><ele>109.0</ele><time>2026-04-25T08:06:17.973Z</time></trkpt><trkpt lat="39.7183503" lon="16.2408729"><ele>107.0</ele><time>2026-04-25T08:06:18.984Z</time></trkpt><trkpt lat="39.7186731" lon="16.240701"><ele>107.0</ele><time>2026-04-25T08:06:19.982Z</time></trkpt><trkpt lat="39.719" lon="16.2405276"><ele>107.0</ele><time>2026-04-25T08:06:20.987Z</time></trkpt><trkpt lat="39.7193253" lon="16.2403544"><ele>107.5</ele><time>2026-04-25T08:06:21.982Z</time></trkpt><trkpt lat="39.7196462" lon="16.240188"><ele>108.0</ele><time>2026-04-25T08:06:22.987Z</time></trkpt><trkpt lat="39.7199663" lon="16.2400204"><ele>108.0</ele><time>2026-04-25T08:06:23.992Z</time></trkpt><trkpt lat="39.7202929" lon="16.2398524"><ele>108.0</ele><time>2026-04-25T08:06:24.983Z</time></trkpt><trkpt lat="39.7206157" lon="16.2396849"><ele>108.5</ele><time>2026-04-25T08:06:25.983Z</time></trkpt><trkpt lat="39.7209401" lon="16.2395201"><ele>109.0</ele><time>2026-04-25T08:06:26.984Z</time></trkpt><trkpt lat="39.7212601" lon="16.2393498"><ele>108.0</ele><time>2026-04-25T08:06:27.977Z</time></trkpt><trkpt lat="39.72158" lon="16.2391862"><ele>107.0</ele><time>2026-04-25T08:06:28.971Z</time></trkpt><trkpt lat="39.7219036" lon="16.2390199"><ele>107.0</ele><time>2026-04-25T08:06:29.981Z</time></trkpt><trkpt lat="39.7222298" lon="16.238846"><ele>107.0</ele><time>2026-04-25T08:06:30.978Z</time></trkpt><trkpt lat="39.7225499" lon="16.2386772"><ele>108.0</ele><time>2026-04-25T08:06:31.977Z</time></trkpt><trkpt lat="39.7228736" lon="16.2385084"><ele>109.0</ele><time>2026-04-25T08:06:32.981Z</time></trkpt><trkpt lat="39.7231953" lon="16.2383357"><ele>109.0</ele><time>2026-04-25T08:06:33.975Z</time></trkpt><trkpt lat="39.7235195" lon="16.2381691"><ele>109.0</ele><time>2026-04-25T08:06:34.973Z</time></trkpt><trkpt lat="39.7238421" lon="16.2379993"><ele>107.0</ele><time>2026-04-25T08:06:35.976Z</time></trkpt><trkpt lat="39.7241657" lon="16.2378314"><ele>105.0</ele><time>2026-04-25T08:06:36.98Z</time></trkpt><trkpt lat="39.7244882" lon="16.2376651"><ele>105.0</ele><time>2026-04-25T08:06:37.974Z</time></trkpt><trkpt lat="39.7248123" lon="16.2374991"><ele>105.0</ele><time>2026-04-25T08:06:38.989Z</time></trkpt><trkpt lat="39.7251347" lon="16.2373316"><ele>104.5</ele><time>2026-04-25T08:06:39.989Z</time></trkpt><trkpt lat="39.7254574" lon="16.2371628"><ele>104.0</ele><time>2026-04-25T08:06:40.982Z</time></trkpt><trkpt lat="39.7257787" lon="16.2369913"><ele>103.0</ele><time>2026-04-25T08:06:41.982Z</time></trkpt><trkpt lat="39.7261003" lon="16.2368183"><ele>102.0</ele><time>2026-04-25T08:06:42.98Z</time></trkpt><trkpt lat="39.7264198" lon="16.2366421"><ele>102.0</ele><time>2026-04-25T08:06:43.985Z</time></trkpt><trkpt lat="39.7267391" lon="16.2364664"><ele>102.0</ele><time>2026-04-25T08:06:44.978Z</time></trkpt><trkpt lat="39.7270602" lon="16.236292"><ele>102.0</ele><time>2026-04-25T08:06:45.982Z</time></trkpt><trkpt lat="39.7273816" lon="16.2361209"><ele>102.0</ele><time>2026-04-25T08:06:46.976Z</time></trkpt><trkpt lat="39.727704" lon="16.2359516"><ele>102.0</ele><time>2026-04-25T08:06:47.982Z</time></trkpt><trkpt lat="39.7280262" lon="16.235781"><ele>102.0</ele><time>2026-04-25T08:06:48.984Z</time></trkpt><trkpt lat="39.7283455" lon="16.2356072"><ele>102.0</ele><time>2026-04-25T08:06:49.987Z</time></trkpt><trkpt lat="39.7286648" lon="16.2354305"><ele>102.0</ele><time>2026-04-25T08:06:50.981Z</time></trkpt><trkpt lat="39.7289843" lon="16.2352501"><ele>102.0</ele><time>2026-04-25T08:06:51.984Z</time></trkpt><trkpt lat="39.7293013" lon="16.2350686"><ele>102.0</ele><time>2026-04-25T08:06:52.974Z</time></trkpt><trkpt lat="39.7296194" lon="16.2348882"><ele>100.0</ele><time>2026-04-25T08:06:53.989Z</time></trkpt><trkpt lat="39.7299387" lon="16.2347122"><ele>98.0</ele><time>2026-04-25T08:06:54.986Z</time></trkpt><trkpt lat="39.7302601" lon="16.2345381"><ele>98.0</ele><time>2026-04-25T08:06:55.975Z</time></trkpt><trkpt lat="39.730581" lon="16.2343639"><ele>98.0</ele><time>2026-04-25T08:06:56.979Z</time></trkpt><trkpt lat="39.7309011" lon="16.2341887"><ele>98.0</ele><time>2026-04-25T08:06:57.985Z</time></trkpt><trkpt lat="39.7312211" lon="16.2340121"><ele>98.0</ele><time>2026-04-25T08:06:58.975Z</time></trkpt><trkpt lat="39.7315407" lon="16.2338345"><ele>99.5</ele><time>2026-04-25T08:06:59.983Z</time></trkpt><trkpt lat="39.731861" lon="16.233658"><ele>101.0</ele><time>2026-04-25T08:07:00.977Z</time></trkpt><trkpt lat="39.7321822" lon="16.2334836"><ele>101.0</ele><time>2026-04-25T08:07:01.978Z</time></trkpt><trkpt lat="39.7325042" lon="16.2333117"><ele>101.0</ele><time>2026-04-25T08:07:02.985Z</time></trkpt><trkpt lat="39.7328274" lon="16.233144"><ele>102.0</ele><time>2026-04-25T08:07:03.983Z</time></trkpt><trkpt lat="39.7331511" lon="16.2329827"><ele>103.0</ele><time>2026-04-25T08:07:04.976Z</time></trkpt><trkpt lat="39.7334799" lon="16.2328371"><ele>104.0</ele><time>2026-04-25T08:07:05.982Z</time></trkpt><trkpt lat="39.7338134" lon="16.2327116"><ele>105.0</ele><time>2026-04-25T08:07:06.981Z</time></trkpt><trkpt lat="39.7341508" lon="16.2326038"><ele>105.0</ele><time>2026-04-25T08:07:07.975Z</time></trkpt><trkpt lat="39.73449" lon="16.2325101"><ele>105.0</ele><time>2026-04-25T08:07:08.98Z</time></trkpt><trkpt lat="39.7348322" lon="16.2324284"><ele>105.0</ele><time>2026-04-25T08:07:09.976Z</time></trkpt><trkpt lat="39.7351755" lon="16.2323524"><ele>105.0</ele><time>2026-04-25T08:07:10.976Z</time></trkpt><trkpt lat="39.7355196" lon="16.2322801"><ele>108.0</ele><time>2026-04-25T08:07:11.973Z</time></trkpt><trkpt lat="39.7358636" lon="16.2322095"><ele>111.0</ele><time>2026-04-25T08:07:12.977Z</time></trkpt><trkpt lat="39.7362067" lon="16.2321378"><ele>111.0</ele><time>2026-04-25T08:07:13.972Z</time></trkpt><trkpt lat="39.7365491" lon="16.2320619"><ele>111.0</ele><time>2026-04-25T08:07:14.982Z</time></trkpt><trkpt lat="39.7368895" lon="16.2319771"><ele>111.0</ele><time>2026-04-25T08:07:15.987Z</time></trkpt><trkpt lat="39.7372268" lon="16.2318791"><ele>111.0</ele><time>2026-04-25T08:07:16.972Z</time></trkpt><trkpt lat="39.7375594" lon="16.2317665"><ele>110.5</ele><time>2026-04-25T08:07:17.975Z</time></trkpt><trkpt lat="39.7378869" lon="16.2316357"><ele>110.0</ele><time>2026-04-25T08:07:18.97Z</time></trkpt><trkpt lat="39.7382107" lon="16.2314871"><ele>115.5</ele><time>2026-04-25T08:07:19.984Z</time></trkpt><trkpt lat="39.7385306" lon="16.2313214"><ele>121.0</ele><time>2026-04-25T08:07:20.971Z</time></trkpt><trkpt lat="39.7388464" lon="16.2311404"><ele>121.0</ele><time>2026-04-25T08:07:21.988Z</time></trkpt><trkpt lat="39.739158" lon="16.2309462"><ele>121.0</ele><time>2026-04-25T08:07:22.981Z</time></trkpt><trkpt lat="39.7394638" lon="16.2307369"><ele>124.0</ele><time>2026-04-25T08:07:23.981Z</time></trkpt><trkpt lat="39.7397633" lon="16.2305126"><ele>127.0</ele><time>2026-04-25T08:07:24.981Z</time></trkpt><trkpt lat="39.7400566" lon="16.2302728"><ele>128.5</ele><time>2026-04-25T08:07:25.982Z</time></trkpt><trkpt lat="39.7403442" lon="16.2300223"><ele>130.0</ele><time>2026-04-25T08:07:26.979Z</time></trkpt><trkpt lat="39.7406289" lon="16.2297663"><ele>130.0</ele><time>2026-04-25T08:07:27.989Z</time></trkpt><trkpt lat="39.7409141" lon="16.2295108"><ele>130.0</ele><time>2026-04-25T08:07:28.991Z</time></trkpt><trkpt lat="39.741201" lon="16.2292585"><ele>127.5</ele><time>2026-04-25T08:07:29.975Z</time></trkpt><trkpt lat="39.7414899" lon="16.229008"><ele>125.0</ele><time>2026-04-25T08:07:30.989Z</time></trkpt><trkpt lat="39.7417766" lon="16.2287567"><ele>125.0</ele><time>2026-04-25T08:07:31.98Z</time></trkpt><trkpt lat="39.7420621" lon="16.2285035"><ele>125.0</ele><time>2026-04-25T08:07:32.969Z</time></trkpt><trkpt lat="39.742347" lon="16.2282476"><ele>127.5</ele><time>2026-04-25T08:07:33.974Z</time></trkpt><trkpt lat="39.7426317" lon="16.2279915"><ele>130.0</ele><time>2026-04-25T08:07:34.98Z</time></trkpt><trkpt lat="39.7429169" lon="16.2277357"><ele>132.0</ele><time>2026-04-25T08:07:35.982Z</time></trkpt><trkpt lat="39.7432015" lon="16.2274808"><ele>134.0</ele><time>2026-04-25T08:07:36.971Z</time></trkpt><trkpt lat="39.7434886" lon="16.2272286"><ele>138.0</ele><time>2026-04-25T08:07:37.98Z</time></trkpt><trkpt lat="39.7437815" lon="16.2269873"><ele>142.0</ele><time>2026-04-25T08:07:38.979Z</time></trkpt><trkpt lat="39.7440823" lon="16.2267645"><ele>140.0</ele><time>2026-04-25T08:07:39.975Z</time></trkpt><trkpt lat="39.7443912" lon="16.2265621"><ele>138.0</ele><time>2026-04-25T08:07:40.987Z</time></trkpt><trkpt lat="39.7447073" lon="16.2263775"><ele>144.0</ele><time>2026-04-25T08:07:41.979Z</time></trkpt><trkpt lat="39.7450273" lon="16.2262034"><ele>150.0</ele><time>2026-04-25T08:07:42.991Z</time></trkpt><trkpt lat="39.7453515" lon="16.2260419"><ele>152.0</ele><time>2026-04-25T08:07:43.977Z</time></trkpt><trkpt lat="39.7456793" lon="16.2258966"><ele>154.0</ele><time>2026-04-25T08:07:44.977Z</time></trkpt><trkpt lat="39.7460109" lon="16.2257679"><ele>153.5</ele><time>2026-04-25T08:07:45.983Z</time></trkpt><trkpt lat="39.7463455" lon="16.2256557"><ele>153.0</ele><time>2026-04-25T08:07:46.978Z</time></trkpt><trkpt lat="39.7466835" lon="16.2255573"><ele>157.5</ele><time>2026-04-25T08:07:47.98Z</time></trkpt><trkpt lat="39.7470222" lon="16.2254676"><ele>162.0</ele><time>2026-04-25T08:07:48.985Z</time></trkpt><trkpt lat="39.7473618" lon="16.2253802"><ele>162.0</ele><time>2026-04-25T08:07:49.984Z</time></trkpt><trkpt lat="39.7477015" lon="16.2252923"><ele>162.0</ele><time>2026-04-25T08:07:50.973Z</time></trkpt><trkpt lat="39.748041" lon="16.2252054"><ele>164.5</ele><time>2026-04-25T08:07:51.968Z</time></trkpt><trkpt lat="39.7483807" lon="16.2251197"><ele>167.0</ele><time>2026-04-25T08:07:52.974Z</time></trkpt><trkpt lat="39.7487207" lon="16.2250335"><ele>168.0</ele><time>2026-04-25T08:07:53.984Z</time></trkpt><trkpt lat="39.7490609" lon="16.2249468"><ele>169.0</ele><time>2026-04-25T08:07:54.973Z</time></trkpt><trkpt lat="39.7494009" lon="16.2248589"><ele>176.5</ele><time>2026-04-25T08:07:55.981Z</time></trkpt><trkpt lat="39.7497405" lon="16.2247695"><ele>184.0</ele><time>2026-04-25T08:07:56.976Z</time></trkpt><trkpt lat="39.7500799" lon="16.2246795"><ele>182.5</ele><time>2026-04-25T08:07:57.974Z</time></trkpt><trkpt lat="39.7504192" lon="16.224592"><ele>181.0</ele><time>2026-04-25T08:07:58.976Z</time></trkpt><trkpt lat="39.7507593" lon="16.2245056"><ele>179.5</ele><time>2026-04-25T08:07:59.988Z</time></trkpt><trkpt lat="39.7510994" lon="16.2244205"><ele>178.0</ele><time>2026-04-25T08:08:00.969Z</time></trkpt><trkpt lat="39.7514406" lon="16.2243372"><ele>178.0</ele><time>2026-04-25T08:08:01.978Z</time></trkpt><trkpt lat="39.7517805" lon="16.2242531"><ele>178.0</ele><time>2026-04-25T08:08:02.976Z</time></trkpt><trkpt lat="39.752118" lon="16.2241586"><ele>179.5</ele><time>2026-04-25T08:08:03.974Z</time></trkpt><trkpt lat="39.7524418" lon="16.224041"><ele>181.0</ele><time>2026-04-25T08:08:04.986Z</time></trkpt><trkpt lat="39.7527501" lon="16.2238926"><ele>187.5</ele><time>2026-04-25T08:08:05.983Z</time></trkpt><trkpt lat="39.7530409" lon="16.2237047"><ele>194.0</ele><time>2026-04-25T08:08:06.972Z</time></trkpt><trkpt lat="39.7533284" lon="16.2235057"><ele>196.5</ele><time>2026-04-25T08:08:07.984Z</time></trkpt><trkpt lat="39.753585" lon="16.223232"><ele>199.0</ele><time>2026-04-25T08:08:08.982Z</time></trkpt><trkpt lat="39.7538335" lon="16.2229215"><ele>199.0</ele><time>2026-04-25T08:08:09.971Z</time></trkpt><trkpt lat="39.7540664" lon="16.2225986"><ele>199.0</ele><time>2026-04-25T08:08:10.977Z</time></trkpt><trkpt lat="39.7543012" lon="16.2222665"><ele>201.0</ele><time>2026-04-25T08:08:11.975Z</time></trkpt><trkpt lat="39.7545328" lon="16.2219446"><ele>203.0</ele><time>2026-04-25T08:08:12.972Z</time></trkpt><trkpt lat="39.7547756" lon="16.2216467"><ele>204.0</ele><time>2026-04-25T08:08:13.979Z</time></trkpt><trkpt lat="39.7550409" lon="16.2213935"><ele>205.0</ele><time>2026-04-25T08:08:14.971Z</time></trkpt><trkpt lat="39.7553091" lon="16.221182"><ele>205.0</ele><time>2026-04-25T08:08:15.974Z</time></trkpt><trkpt lat="39.7555843" lon="16.2210098"><ele>205.0</ele><time>2026-04-25T08:08:16.985Z</time></trkpt><trkpt lat="39.7558622" lon="16.2208643"><ele>194.5</ele><time>2026-04-25T08:08:17.97Z</time></trkpt><trkpt lat="39.7561537" lon="16.2207567"><ele>184.0</ele><time>2026-04-25T08:08:18.974Z</time></trkpt><trkpt lat="39.7564585" lon="16.2206934"><ele>184.0</ele><time>2026-04-25T08:08:19.981Z</time></trkpt><trkpt lat="39.7567791" lon="16.2206592"><ele>184.0</ele><time>2026-04-25T08:08:20.976Z</time></trkpt><trkpt lat="39.7571173" lon="16.2206477"><ele>173.0</ele><time>2026-04-25T08:08:21.974Z</time></trkpt><trkpt lat="39.7574669" lon="16.2206404"><ele>162.0</ele><time>2026-04-25T08:08:22.974Z</time></trkpt><trkpt lat="39.757823" lon="16.2206239"><ele>152.5</ele><time>2026-04-25T08:08:23.986Z</time></trkpt><trkpt lat="39.7581823" lon="16.2206012"><ele>143.0</ele><time>2026-04-25T08:08:24.972Z</time></trkpt><trkpt lat="39.758542" lon="16.220581"><ele>143.0</ele><time>2026-04-25T08:08:25.981Z</time></trkpt><trkpt lat="39.7589023" lon="16.2205611"><ele>143.0</ele><time>2026-04-25T08:08:26.981Z</time></trkpt><trkpt lat="39.7592606" lon="16.2205414"><ele>150.5</ele><time>2026-04-25T08:08:27.975Z</time></trkpt><trkpt lat="39.7596169" lon="16.2205207"><ele>158.0</ele><time>2026-04-25T08:08:28.971Z</time></trkpt><trkpt lat="39.7599716" lon="16.2204991"><ele>170.5</ele><time>2026-04-25T08:08:29.976Z</time></trkpt><trkpt lat="39.7603235" lon="16.2204775"><ele>183.0</ele><time>2026-04-25T08:08:30.982Z</time></trkpt><trkpt lat="39.760672" lon="16.2204625"><ele>183.0</ele><time>2026-04-25T08:08:31.984Z</time></trkpt><trkpt lat="39.7610154" lon="16.2204623"><ele>183.0</ele><time>2026-04-25T08:08:32.973Z</time></trkpt><trkpt lat="39.761353" lon="16.2204922"><ele>192.5</ele><time>2026-04-25T08:08:33.976Z</time></trkpt><trkpt lat="39.7616863" lon="16.2205565"><ele>202.0</ele><time>2026-04-25T08:08:34.975Z</time></trkpt><trkpt lat="39.7620146" lon="16.2206573"><ele>209.0</ele><time>2026-04-25T08:08:35.972Z</time></trkpt><trkpt lat="39.7623431" lon="16.2207913"><ele>216.0</ele><time>2026-04-25T08:08:36.972Z</time></trkpt><trkpt lat="39.762678" lon="16.220951"><ele>225.0</ele><time>2026-04-25T08:08:37.974Z</time></trkpt><trkpt lat="39.7630222" lon="16.2211221"><ele>234.0</ele><time>2026-04-25T08:08:38.981Z</time></trkpt><trkpt lat="39.7633667" lon="16.2212958"><ele>236.5</ele><time>2026-04-25T08:08:39.974Z</time></trkpt><trkpt lat="39.7637062" lon="16.2214658"><ele>239.0</ele><time>2026-04-25T08:08:40.989Z</time></trkpt><trkpt lat="39.7640399" lon="16.2216343"><ele>245.0</ele><time>2026-04-25T08:08:41.985Z</time></trkpt><trkpt lat="39.7643706" lon="16.2218016"><ele>251.0</ele><time>2026-04-25T08:08:42.97Z</time></trkpt><trkpt lat="39.7647027" lon="16.2219674"><ele>251.0</ele><time>2026-04-25T08:08:43.994Z</time></trkpt><trkpt lat="39.7650375" lon="16.2221323"><ele>251.0</ele><time>2026-04-25T08:08:44.985Z</time></trkpt><trkpt lat="39.7653751" lon="16.2223009"><ele>247.0</ele><time>2026-04-25T08:08:45.973Z</time></trkpt><trkpt lat="39.7657158" lon="16.222459"><ele>243.0</ele><time>2026-04-25T08:08:46.968Z</time></trkpt><trkpt lat="39.7660573" lon="16.2226256"><ele>243.0</ele><time>2026-04-25T08:08:47.981Z</time></trkpt><trkpt lat="39.7663931" lon="16.2227979"><ele>243.0</ele><time>2026-04-25T08:08:48.975Z</time></trkpt><trkpt lat="39.7667335" lon="16.2229646"><ele>235.5</ele><time>2026-04-25T08:08:49.987Z</time></trkpt><trkpt lat="39.7670737" lon="16.2231334"><ele>228.0</ele><time>2026-04-25T08:08:50.969Z</time></trkpt><trkpt lat="39.7674102" lon="16.2232993"><ele>240.5</ele><time>2026-04-25T08:08:51.997Z</time></trkpt><trkpt lat="39.7677469" lon="16.2234592"><ele>253.0</ele><time>2026-04-25T08:08:52.984Z</time></trkpt><trkpt lat="39.7680826" lon="16.2236092"><ele>253.0</ele><time>2026-04-25T08:08:53.97Z</time></trkpt><trkpt lat="39.7684212" lon="16.223748"><ele>253.0</ele><time>2026-04-25T08:08:54.982Z</time></trkpt><trkpt lat="39.7687625" lon="16.2238553"><ele>257.0</ele><time>2026-04-25T08:08:55.976Z</time></trkpt><trkpt lat="39.7691079" lon="16.2239626"><ele>261.0</ele><time>2026-04-25T08:08:56.977Z</time></trkpt><trkpt lat="39.7694621" lon="16.2240496"><ele>262.0</ele><time>2026-04-25T08:08:57.971Z</time></trkpt><trkpt lat="39.7698188" lon="16.224128"><ele>263.0</ele><time>2026-04-25T08:08:58.983Z</time></trkpt><trkpt lat="39.7701819" lon="16.2241835"><ele>264.0</ele><time>2026-04-25T08:08:59.984Z</time></trkpt><trkpt lat="39.7705442" lon="16.2242185"><ele>265.0</ele><time>2026-04-25T08:09:00.981Z</time></trkpt><trkpt lat="39.7709074" lon="16.2242366"><ele>266.0</ele><time>2026-04-25T08:09:01.985Z</time></trkpt><trkpt lat="39.7712712" lon="16.2242341"><ele>267.0</ele><time>2026-04-25T08:09:02.978Z</time></trkpt><trkpt lat="39.7716316" lon="16.2242137"><ele>268.0</ele><time>2026-04-25T08:09:03.976Z</time></trkpt><trkpt lat="39.7719908" lon="16.2241734"><ele>269.0</ele><time>2026-04-25T08:09:04.983Z</time></trkpt><trkpt lat="39.7723471" lon="16.2241144"><ele>269.0</ele><time>2026-04-25T08:09:05.976Z</time></trkpt><trkpt lat="39.772704" lon="16.224038"><ele>269.0</ele><time>2026-04-25T08:09:06.975Z</time></trkpt><trkpt lat="39.773059" lon="16.2239429"><ele>268.0</ele><time>2026-04-25T08:09:07.977Z</time></trkpt><trkpt lat="39.7734156" lon="16.2238347"><ele>267.0</ele><time>2026-04-25T08:09:08.968Z</time></trkpt><trkpt lat="39.7737731" lon="16.2237232"><ele>267.0</ele><time>2026-04-25T08:09:09.98Z</time></trkpt><trkpt lat="39.7741314" lon="16.2236103"><ele>267.0</ele><time>2026-04-25T08:09:10.975Z</time></trkpt><trkpt lat="39.7744878" lon="16.223498"><ele>264.5</ele><time>2026-04-25T08:09:11.973Z</time></trkpt><trkpt lat="39.7748427" lon="16.2233856"><ele>262.0</ele><time>2026-04-25T08:09:12.988Z</time></trkpt><trkpt lat="39.7751953" lon="16.2232774"><ele>262.0</ele><time>2026-04-25T08:09:13.973Z</time></trkpt><trkpt lat="39.7755454" lon="16.2231754"><ele>262.0</ele><time>2026-04-25T08:09:14.97Z</time></trkpt><trkpt lat="39.7758948" lon="16.2230884"><ele>266.0</ele><time>2026-04-25T08:09:15.996Z</time></trkpt><trkpt lat="39.7762457" lon="16.2230234"><ele>270.0</ele><time>2026-04-25T08:09:16.991Z</time></trkpt><trkpt lat="39.7766" lon="16.2229837"><ele>271.0</ele><time>2026-04-25T08:09:17.976Z</time></trkpt><trkpt lat="39.776956" lon="16.2229657"><ele>272.0</ele><time>2026-04-25T08:09:18.99Z</time></trkpt><trkpt lat="39.7773131" lon="16.222972"><ele>272.0</ele><time>2026-04-25T08:09:19.984Z</time></trkpt><trkpt lat="39.7776694" lon="16.2230031"><ele>272.0</ele><time>2026-04-25T08:09:20.975Z</time></trkpt><trkpt lat="39.7780273" lon="16.2230646"><ele>271.5</ele><time>2026-04-25T08:09:21.982Z</time></trkpt><trkpt lat="39.7783909" lon="16.2231556"><ele>271.0</ele><time>2026-04-25T08:09:22.991Z</time></trkpt><trkpt lat="39.7787555" lon="16.2232704"><ele>256.0</ele><time>2026-04-25T08:09:23.972Z</time></trkpt><trkpt lat="39.7791202" lon="16.223403"><ele>241.0</ele><time>2026-04-25T08:09:24.976Z</time></trkpt><trkpt lat="39.7794856" lon="16.2235395"><ele>233.0</ele><time>2026-04-25T08:09:25.98Z</time></trkpt><trkpt lat="39.7798495" lon="16.2236714"><ele>225.0</ele><time>2026-04-25T08:09:26.989Z</time></trkpt><trkpt lat="39.7802109" lon="16.223805"><ele>207.0</ele><time>2026-04-25T08:09:27.982Z</time></trkpt><trkpt lat="39.7805689" lon="16.2239402"><ele>189.0</ele><time>2026-04-25T08:09:28.976Z</time></trkpt><trkpt lat="39.7809245" lon="16.224075"><ele>184.0</ele><time>2026-04-25T08:09:29.98Z</time></trkpt><trkpt lat="39.7812732" lon="16.2242074"><ele>179.0</ele><time>2026-04-25T08:09:30.983Z</time></trkpt><trkpt lat="39.7816156" lon="16.2243359"><ele>196.0</ele><time>2026-04-25T08:09:31.979Z</time></trkpt><trkpt lat="39.7819527" lon="16.2244625"><ele>213.0</ele><time>2026-04-25T08:09:32.979Z</time></trkpt><trkpt lat="39.7822875" lon="16.2245867"><ele>213.0</ele><time>2026-04-25T08:09:33.979Z</time></trkpt><trkpt lat="39.7826206" lon="16.2247077"><ele>213.0</ele><time>2026-04-25T08:09:34.972Z</time></trkpt><trkpt lat="39.7829482" lon="16.2248261"><ele>239.5</ele><time>2026-04-25T08:09:35.984Z</time></trkpt><trkpt lat="39.783258" lon="16.2249398"><ele>266.0</ele><time>2026-04-25T08:09:36.973Z</time></trkpt><trkpt lat="39.7835517" lon="16.2250498"><ele>283.5</ele><time>2026-04-25T08:09:37.984Z</time></trkpt><trkpt lat="39.7838361" lon="16.225157"><ele>301.0</ele><time>2026-04-25T08:09:38.979Z</time></trkpt><trkpt lat="39.784116" lon="16.2252634"><ele>305.5</ele><time>2026-04-25T08:09:39.977Z</time></trkpt><trkpt lat="39.7843929" lon="16.2253683"><ele>310.0</ele><time>2026-04-25T08:09:40.974Z</time></trkpt><trkpt lat="39.7846681" lon="16.225472"><ele>310.0</ele><time>2026-04-25T08:09:41.98Z</time></trkpt><trkpt lat="39.7849421" lon="16.2255758"><ele>310.0</ele><time>2026-04-25T08:09:42.977Z</time></trkpt><trkpt lat="39.7852138" lon="16.2256775"><ele>311.0</ele><time>2026-04-25T08:09:43.974Z</time></trkpt><trkpt lat="39.7854849" lon="16.2257803"><ele>312.0</ele><time>2026-04-25T08:09:44.975Z</time></trkpt><trkpt lat="39.7857567" lon="16.2258876"><ele>315.0</ele><time>2026-04-25T08:09:45.983Z</time></trkpt><trkpt lat="39.7860305" lon="16.2259992"><ele>318.0</ele><time>2026-04-25T08:09:46.97Z</time></trkpt><trkpt lat="39.7863065" lon="16.2261121"><ele>318.0</ele><time>2026-04-25T08:09:47.978Z</time></trkpt><trkpt lat="39.7865865" lon="16.2262247"><ele>318.0</ele><time>2026-04-25T08:09:48.969Z</time></trkpt><trkpt lat="39.7868688" lon="16.2263348"><ele>321.0</ele><time>2026-04-25T08:09:49.972Z</time></trkpt><trkpt lat="39.7871548" lon="16.2264406"><ele>324.0</ele><time>2026-04-25T08:09:50.976Z</time></trkpt><trkpt lat="39.7874444" lon="16.2265452"><ele>326.5</ele><time>2026-04-25T08:09:51.978Z</time></trkpt><trkpt lat="39.787739" lon="16.2266507"><ele>329.0</ele><time>2026-04-25T08:09:52.982Z</time></trkpt><trkpt lat="39.7880412" lon="16.2267608"><ele>329.0</ele><time>2026-04-25T08:09:53.979Z</time></trkpt><trkpt lat="39.7883519" lon="16.2268753"><ele>329.0</ele><time>2026-04-25T08:09:54.973Z</time></trkpt><trkpt lat="39.7886755" lon="16.2269957"><ele>329.5</ele><time>2026-04-25T08:09:55.987Z</time></trkpt><trkpt lat="39.7890108" lon="16.2271198"><ele>330.0</ele><time>2026-04-25T08:09:56.981Z</time></trkpt><trkpt lat="39.7893502" lon="16.2272457"><ele>333.0</ele><time>2026-04-25T08:09:57.972Z</time></trkpt><trkpt lat="39.7896899" lon="16.2273722"><ele>336.0</ele><time>2026-04-25T08:09:58.989Z</time></trkpt><trkpt lat="39.7900284" lon="16.2274981"><ele>334.5</ele><time>2026-04-25T08:09:59.975Z</time></trkpt><trkpt lat="39.7903648" lon="16.2276216"><ele>333.0</ele><time>2026-04-25T08:10:00.976Z</time></trkpt><trkpt lat="39.7906977" lon="16.2277429"><ele>330.5</ele><time>2026-04-25T08:10:01.982Z</time></trkpt><trkpt lat="39.791026" lon="16.2278622"><ele>328.0</ele><time>2026-04-25T08:10:02.98Z</time></trkpt><trkpt lat="39.7913492" lon="16.227983"><ele>328.0</ele><time>2026-04-25T08:10:03.99Z</time></trkpt><trkpt lat="39.791666" lon="16.2281119"><ele>328.0</ele><time>2026-04-25T08:10:04.981Z</time></trkpt><trkpt lat="39.7919755" lon="16.228255"><ele>331.0</ele><time>2026-04-25T08:10:05.979Z</time></trkpt><trkpt lat="39.7922817" lon="16.2284167"><ele>334.0</ele><time>2026-04-25T08:10:06.974Z</time></trkpt><trkpt lat="39.7925869" lon="16.2285956"><ele>333.5</ele><time>2026-04-25T08:10:07.974Z</time></trkpt><trkpt lat="39.7928859" lon="16.2287895"><ele>333.0</ele><time>2026-04-25T08:10:08.978Z</time></trkpt><trkpt lat="39.793178" lon="16.2289969"><ele>334.5</ele><time>2026-04-25T08:10:09.977Z</time></trkpt><trkpt lat="39.7934631" lon="16.2292176"><ele>336.0</ele><time>2026-04-25T08:10:10.973Z</time></trkpt><trkpt lat="39.7937401" lon="16.2294509"><ele>336.0</ele><time>2026-04-25T08:10:11.978Z</time></trkpt><trkpt lat="39.7940067" lon="16.2296964"><ele>336.0</ele><time>2026-04-25T08:10:12.981Z</time></trkpt><trkpt lat="39.794263" lon="16.2299525"><ele>338.0</ele><time>2026-04-25T08:10:13.975Z</time></trkpt><trkpt lat="39.7945116" lon="16.2302197"><ele>340.0</ele><time>2026-04-25T08:10:14.974Z</time></trkpt><trkpt lat="39.7947526" lon="16.230499"><ele>341.5</ele><time>2026-04-25T08:10:15.973Z</time></trkpt><trkpt lat="39.7949844" lon="16.2307912"><ele>343.0</ele><time>2026-04-25T08:10:16.979Z</time></trkpt><trkpt lat="39.7952071" lon="16.2310952"><ele>343.0</ele><time>2026-04-25T08:10:17.971Z</time></trkpt><trkpt lat="39.7954206" lon="16.2314113"><ele>343.0</ele><time>2026-04-25T08:10:18.976Z</time></trkpt><trkpt lat="39.795632" lon="16.2317273"><ele>346.0</ele><time>2026-04-25T08:10:19.986Z</time></trkpt><trkpt lat="39.795824" lon="16.2320651"><ele>349.0</ele><time>2026-04-25T08:10:20.971Z</time></trkpt><trkpt lat="39.7960108" lon="16.2324201"><ele>350.0</ele><time>2026-04-25T08:10:21.978Z</time></trkpt><trkpt lat="39.7961816" lon="16.2327906"><ele>351.0</ele><time>2026-04-25T08:10:22.98Z</time></trkpt><trkpt lat="39.7963519" lon="16.2331729"><ele>350.5</ele><time>2026-04-25T08:10:23.97Z</time></trkpt><trkpt lat="39.796522" lon="16.2335796"><ele>350.0</ele><time>2026-04-25T08:10:24.975Z</time></trkpt><trkpt lat="39.7966825" lon="16.2340095"><ele>350.0</ele><time>2026-04-25T08:10:25.979Z</time></trkpt><trkpt lat="39.7968274" lon="16.2344504"><ele>350.0</ele><time>2026-04-25T08:10:26.971Z</time></trkpt><trkpt lat="39.7969613" lon="16.234892"><ele>350.0</ele><time>2026-04-25T08:10:27.974Z</time></trkpt><trkpt lat="39.7970902" lon="16.2353322"><ele>350.0</ele><time>2026-04-25T08:10:28.973Z</time></trkpt><trkpt lat="39.7972177" lon="16.2357698"><ele>350.0</ele><time>2026-04-25T08:10:29.984Z</time></trkpt><trkpt lat="39.7973473" lon="16.2361989"><ele>350.0</ele><time>2026-04-25T08:10:30.979Z</time></trkpt><trkpt lat="39.7974848" lon="16.2366204"><ele>350.5</ele><time>2026-04-25T08:10:31.971Z</time></trkpt><trkpt lat="39.7976388" lon="16.2370301"><ele>351.0</ele><time>2026-04-25T08:10:32.973Z</time></trkpt><trkpt lat="39.7978159" lon="16.2374191"><ele>351.0</ele><time>2026-04-25T08:10:33.978Z</time></trkpt><trkpt lat="39.7980121" lon="16.237792"><ele>351.0</ele><time>2026-04-25T08:10:34.979Z</time></trkpt><trkpt lat="39.7982251" lon="16.2381466"><ele>350.0</ele><time>2026-04-25T08:10:35.982Z</time></trkpt><trkpt lat="39.7984541" lon="16.2384824"><ele>349.0</ele><time>2026-04-25T08:10:36.994Z</time></trkpt><trkpt lat="39.7986964" lon="16.2388002"><ele>349.0</ele><time>2026-04-25T08:10:37.988Z</time></trkpt><trkpt lat="39.7989485" lon="16.2391064"><ele>349.0</ele><time>2026-04-25T08:10:38.996Z</time></trkpt><trkpt lat="39.7992021" lon="16.2394096"><ele>350.0</ele><time>2026-04-25T08:10:39.98Z</time></trkpt><trkpt lat="39.7994561" lon="16.2397136"><ele>351.0</ele><time>2026-04-25T08:10:40.989Z</time></trkpt><trkpt lat="39.7997107" lon="16.2400184"><ele>351.0</ele><time>2026-04-25T08:10:41.982Z</time></trkpt><trkpt lat="39.7999664" lon="16.2403234"><ele>351.0</ele><time>2026-04-25T08:10:42.979Z</time></trkpt><trkpt lat="39.8002221" lon="16.240627"><ele>352.5</ele><time>2026-04-25T08:10:43.99Z</time></trkpt><trkpt lat="39.8004815" lon="16.2409263"><ele>354.0</ele><time>2026-04-25T08:10:44.987Z</time></trkpt><trkpt lat="39.8007423" lon="16.2412188"><ele>354.5</ele><time>2026-04-25T08:10:45.984Z</time></trkpt><trkpt lat="39.8009983" lon="16.2415122"><ele>355.0</ele><time>2026-04-25T08:10:46.976Z</time></trkpt><trkpt lat="39.8012596" lon="16.2418108"><ele>355.0</ele><time>2026-04-25T08:10:47.988Z</time></trkpt><trkpt lat="39.8015102" lon="16.2421105"><ele>355.0</ele><time>2026-04-25T08:10:48.974Z</time></trkpt><trkpt lat="39.8017616" lon="16.2424126"><ele>355.0</ele><time>2026-04-25T08:10:49.977Z</time></trkpt><trkpt lat="39.8020147" lon="16.2427148"><ele>355.0</ele><time>2026-04-25T08:10:50.992Z</time></trkpt><trkpt lat="39.8022665" lon="16.2430156"><ele>355.0</ele><time>2026-04-25T08:10:51.979Z</time></trkpt><trkpt lat="39.8025215" lon="16.2433147"><ele>355.0</ele><time>2026-04-25T08:10:52.977Z</time></trkpt><trkpt lat="39.8027778" lon="16.2436157"><ele>355.0</ele><time>2026-04-25T08:10:53.988Z</time></trkpt><trkpt lat="39.8030328" lon="16.2439191"><ele>355.0</ele><time>2026-04-25T08:10:54.98Z</time></trkpt><trkpt lat="39.803288" lon="16.2442248"><ele>355.5</ele><time>2026-04-25T08:10:55.979Z</time></trkpt><trkpt lat="39.8035422" lon="16.2445303"><ele>356.0</ele><time>2026-04-25T08:10:56.975Z</time></trkpt><trkpt lat="39.8037973" lon="16.2448349"><ele>359.5</ele><time>2026-04-25T08:10:57.983Z</time></trkpt><trkpt lat="39.8040533" lon="16.245139"><ele>363.0</ele><time>2026-04-25T08:10:58.982Z</time></trkpt><trkpt lat="39.8043096" lon="16.2454439"><ele>365.5</ele><time>2026-04-25T08:10:59.978Z</time></trkpt><trkpt lat="39.8045658" lon="16.2457485"><ele>368.0</ele><time>2026-04-25T08:11:00.972Z</time></trkpt><trkpt lat="39.8048224" lon="16.246053"><ele>368.0</ele><time>2026-04-25T08:11:01.983Z</time></trkpt><trkpt lat="39.805079" lon="16.2463571"><ele>368.0</ele><time>2026-04-25T08:11:02.976Z</time></trkpt><trkpt lat="39.8053355" lon="16.2466608"><ele>369.0</ele><time>2026-04-25T08:11:03.979Z</time></trkpt><trkpt lat="39.8055923" lon="16.2469648"><ele>370.0</ele><time>2026-04-25T08:11:05.001Z</time></trkpt><trkpt lat="39.8058494" lon="16.2472696"><ele>369.5</ele><time>2026-04-25T08:11:05.991Z</time></trkpt><trkpt lat="39.8061054" lon="16.247574"><ele>369.0</ele><time>2026-04-25T08:11:06.974Z</time></trkpt><trkpt lat="39.8063599" lon="16.2478808"><ele>372.0</ele><time>2026-04-25T08:11:07.985Z</time></trkpt><trkpt lat="39.8066132" lon="16.2481899"><ele>375.0</ele><time>2026-04-25T08:11:08.982Z</time></trkpt><trkpt lat="39.8068654" lon="16.2485003"><ele>375.0</ele><time>2026-04-25T08:11:09.987Z</time></trkpt><trkpt lat="39.8071171" lon="16.2488105"><ele>375.0</ele><time>2026-04-25T08:11:10.975Z</time></trkpt><trkpt lat="39.8073703" lon="16.2491188"><ele>378.0</ele><time>2026-04-25T08:11:11.983Z</time></trkpt><trkpt lat="39.8076241" lon="16.2494259"><ele>381.0</ele><time>2026-04-25T08:11:12.984Z</time></trkpt><trkpt lat="39.80788" lon="16.2497304"><ele>384.0</ele><time>2026-04-25T08:11:13.976Z</time></trkpt><trkpt lat="39.8081354" lon="16.2500354"><ele>387.0</ele><time>2026-04-25T08:11:14.981Z</time></trkpt><trkpt lat="39.8083903" lon="16.2503419"><ele>386.0</ele><time>2026-04-25T08:11:15.976Z</time></trkpt><trkpt lat="39.8086449" lon="16.2506461"><ele>385.0</ele><time>2026-04-25T08:11:16.981Z</time></trkpt><trkpt lat="39.8089051" lon="16.2509464"><ele>385.0</ele><time>2026-04-25T08:11:17.975Z</time></trkpt><trkpt lat="39.8091642" lon="16.2512215"><ele>385.0</ele><time>2026-04-25T08:11:18.983Z</time></trkpt><trkpt lat="39.8094295" lon="16.2514672"><ele>381.0</ele><time>2026-04-25T08:11:19.973Z</time></trkpt><trkpt lat="39.8097008" lon="16.2516869"><ele>377.0</ele><time>2026-04-25T08:11:20.98Z</time></trkpt><trkpt lat="39.8099904" lon="16.2518836"><ele>371.5</ele><time>2026-04-25T08:11:21.985Z</time></trkpt><trkpt lat="39.8103019" lon="16.2520633"><ele>366.0</ele><time>2026-04-25T08:11:22.98Z</time></trkpt><trkpt lat="39.8106287" lon="16.2522212"><ele>366.0</ele><time>2026-04-25T08:11:23.986Z</time></trkpt><trkpt lat="39.8109748" lon="16.2523664"><ele>366.0</ele><time>2026-04-25T08:11:24.985Z</time></trkpt><trkpt lat="39.8113183" lon="16.2524971"><ele>366.0</ele><time>2026-04-25T08:11:25.982Z</time></trkpt><trkpt lat="39.8116541" lon="16.2526257"><ele>366.0</ele><time>2026-04-25T08:11:26.981Z</time></trkpt><trkpt lat="39.8119823" lon="16.2527575"><ele>369.5</ele><time>2026-04-25T08:11:27.99Z</time></trkpt><trkpt lat="39.8123086" lon="16.2528865"><ele>373.0</ele><time>2026-04-25T08:11:28.995Z</time></trkpt><trkpt lat="39.8126346" lon="16.2530116"><ele>383.0</ele><time>2026-04-25T08:11:29.98Z</time></trkpt><trkpt lat="39.8129619" lon="16.2531321"><ele>393.0</ele><time>2026-04-25T08:11:30.974Z</time></trkpt><trkpt lat="39.8132885" lon="16.2532511"><ele>398.5</ele><time>2026-04-25T08:11:31.982Z</time></trkpt><trkpt lat="39.8136131" lon="16.2533715"><ele>404.0</ele><time>2026-04-25T08:11:32.98Z</time></trkpt><trkpt lat="39.8139365" lon="16.2534928"><ele>404.0</ele><time>2026-04-25T08:11:33.971Z</time></trkpt><trkpt lat="39.8142614" lon="16.2536141"><ele>404.0</ele><time>2026-04-25T08:11:34.987Z</time></trkpt><trkpt lat="39.8145858" lon="16.2537349"><ele>406.5</ele><time>2026-04-25T08:11:35.974Z</time></trkpt><trkpt lat="39.8149107" lon="16.2538553"><ele>409.0</ele><time>2026-04-25T08:11:36.976Z</time></trkpt><trkpt lat="39.8152371" lon="16.2539742"><ele>410.5</ele><time>2026-04-25T08:11:37.98Z</time></trkpt><trkpt lat="39.8155645" lon="16.2540947"><ele>412.0</ele><time>2026-04-25T08:11:38.974Z</time></trkpt><trkpt lat="39.8158924" lon="16.2542163"><ele>413.0</ele><time>2026-04-25T08:11:39.977Z</time></trkpt><trkpt lat="39.8162211" lon="16.2543394"><ele>414.0</ele><time>2026-04-25T08:11:40.977Z</time></trkpt><trkpt lat="39.8165504" lon="16.254462"><ele>415.0</ele><time>2026-04-25T08:11:41.985Z</time></trkpt><trkpt lat="39.8168804" lon="16.2545827"><ele>416.0</ele><time>2026-04-25T08:11:42.992Z</time></trkpt><trkpt lat="39.8172091" lon="16.2547028"><ele>417.5</ele><time>2026-04-25T08:11:43.987Z</time></trkpt><trkpt lat="39.8175374" lon="16.2548233"><ele>419.0</ele><time>2026-04-25T08:11:44.971Z</time></trkpt><trkpt lat="39.8178646" lon="16.2549468"><ele>419.0</ele><time>2026-04-25T08:11:45.971Z</time></trkpt><trkpt lat="39.8181893" lon="16.2550765"><ele>419.0</ele><time>2026-04-25T08:11:46.983Z</time></trkpt><trkpt lat="39.8185124" lon="16.2552118"><ele>420.0</ele><time>2026-04-25T08:11:47.986Z</time></trkpt><trkpt lat="39.8188336" lon="16.2553506"><ele>421.0</ele><time>2026-04-25T08:11:48.975Z</time></trkpt><trkpt lat="39.8191517" lon="16.2554982"><ele>424.5</ele><time>2026-04-25T08:11:49.984Z</time></trkpt><trkpt lat="39.8194668" lon="16.2556572"><ele>428.0</ele><time>2026-04-25T08:11:50.98Z</time></trkpt><trkpt lat="39.8197776" lon="16.2558279"><ele>428.0</ele><time>2026-04-25T08:11:51.97Z</time></trkpt><trkpt lat="39.8200836" lon="16.2560104"><ele>428.0</ele><time>2026-04-25T08:11:52.983Z</time></trkpt><trkpt lat="39.8203861" lon="16.2562057"><ele>431.5</ele><time>2026-04-25T08:11:53.982Z</time></trkpt><trkpt lat="39.8206856" lon="16.2564175"><ele>435.0</ele><time>2026-04-25T08:11:54.972Z</time></trkpt><trkpt lat="39.8209872" lon="16.2566477"><ele>439.0</ele><time>2026-04-25T08:11:55.979Z</time></trkpt><trkpt lat="39.8212961" lon="16.256894"><ele>443.0</ele><time>2026-04-25T08:11:56.991Z</time></trkpt><trkpt lat="39.8216078" lon="16.2571495"><ele>447.0</ele><time>2026-04-25T08:11:57.986Z</time></trkpt><trkpt lat="39.821913" lon="16.257402"><ele>451.0</ele><time>2026-04-25T08:11:58.979Z</time></trkpt><trkpt lat="39.8222106" lon="16.2576497"><ele>451.0</ele><time>2026-04-25T08:11:59.983Z</time></trkpt><trkpt lat="39.8225029" lon="16.257894"><ele>451.0</ele><time>2026-04-25T08:12:00.976Z</time></trkpt><trkpt lat="39.8227908" lon="16.2581338"><ele>453.5</ele><time>2026-04-25T08:12:01.976Z</time></trkpt><trkpt lat="39.8230737" lon="16.2583588"><ele>456.0</ele><time>2026-04-25T08:12:02.972Z</time></trkpt><trkpt lat="39.8233603" lon="16.2585772"><ele>456.0</ele><time>2026-04-25T08:12:04.013Z</time></trkpt><trkpt lat="39.8236491" lon="16.2587841"><ele>456.0</ele><time>2026-04-25T08:12:04.978Z</time></trkpt><trkpt lat="39.8239448" lon="16.2589629"><ele>456.0</ele><time>2026-04-25T08:12:05.972Z</time></trkpt><trkpt lat="39.8242455" lon="16.259126"><ele>456.0</ele><time>2026-04-25T08:12:06.983Z</time></trkpt><trkpt lat="39.8245524" lon="16.2592681"><ele>458.0</ele><time>2026-04-25T08:12:07.984Z</time></trkpt><trkpt lat="39.824863" lon="16.2593914"><ele>460.0</ele><time>2026-04-25T08:12:08.977Z</time></trkpt><trkpt lat="39.8251785" lon="16.2594939"><ele>461.0</ele><time>2026-04-25T08:12:09.98Z</time></trkpt><trkpt lat="39.8254976" lon="16.2595766"><ele>462.0</ele><time>2026-04-25T08:12:10.975Z</time></trkpt><trkpt lat="39.8258192" lon="16.25964"><ele>463.5</ele><time>2026-04-25T08:12:11.971Z</time></trkpt><trkpt lat="39.8261408" lon="16.2596862"><ele>465.0</ele><time>2026-04-25T08:12:12.982Z</time></trkpt><trkpt lat="39.8264608" lon="16.2597129"><ele>465.0</ele><time>2026-04-25T08:12:13.971Z</time></trkpt><trkpt lat="39.8267829" lon="16.2597183"><ele>465.0</ele><time>2026-04-25T08:12:14.975Z</time></trkpt><trkpt lat="39.8271047" lon="16.2597038"><ele>465.0</ele><time>2026-04-25T08:12:15.974Z</time></trkpt><trkpt lat="39.8274252" lon="16.2596699"><ele>465.0</ele><time>2026-04-25T08:12:16.975Z</time></trkpt><trkpt lat="39.8277427" lon="16.2596191"><ele>465.5</ele><time>2026-04-25T08:12:17.971Z</time></trkpt><trkpt lat="39.8280581" lon="16.2595516"><ele>466.0</ele><time>2026-04-25T08:12:18.979Z</time></trkpt><trkpt lat="39.8283712" lon="16.2594657"><ele>466.5</ele><time>2026-04-25T08:12:19.976Z</time></trkpt><trkpt lat="39.8286788" lon="16.2593602"><ele>467.0</ele><time>2026-04-25T08:12:20.989Z</time></trkpt><trkpt lat="39.8289801" lon="16.2592361"><ele>467.0</ele><time>2026-04-25T08:12:21.984Z</time></trkpt><trkpt lat="39.829274" lon="16.2590986"><ele>467.0</ele><time>2026-04-25T08:12:22.98Z</time></trkpt><trkpt lat="39.8295634" lon="16.2589568"><ele>466.5</ele><time>2026-04-25T08:12:23.982Z</time></trkpt><trkpt lat="39.8298497" lon="16.2588131"><ele>466.0</ele><time>2026-04-25T08:12:24.98Z</time></trkpt><trkpt lat="39.8301324" lon="16.258672"><ele>467.0</ele><time>2026-04-25T08:12:25.979Z</time></trkpt><trkpt lat="39.8304104" lon="16.2585348"><ele>468.0</ele><time>2026-04-25T08:12:26.974Z</time></trkpt><trkpt lat="39.8306829" lon="16.2584"><ele>468.0</ele><time>2026-04-25T08:12:27.978Z</time></trkpt><trkpt lat="39.8309498" lon="16.2582685"><ele>468.0</ele><time>2026-04-25T08:12:28.974Z</time></trkpt><trkpt lat="39.8312121" lon="16.2581393"><ele>469.0</ele><time>2026-04-25T08:12:29.975Z</time></trkpt><trkpt lat="39.8314718" lon="16.2580122"><ele>470.0</ele><time>2026-04-25T08:12:30.979Z</time></trkpt><trkpt lat="39.8317326" lon="16.2578839"><ele>471.5</ele><time>2026-04-25T08:12:31.99Z</time></trkpt><trkpt lat="39.8319995" lon="16.2577524"><ele>473.0</ele><time>2026-04-25T08:12:32.987Z</time></trkpt><trkpt lat="39.8322733" lon="16.2576168"><ele>473.0</ele><time>2026-04-25T08:12:33.974Z</time></trkpt><trkpt lat="39.8325553" lon="16.2574768"><ele>473.0</ele><time>2026-04-25T08:12:34.972Z</time></trkpt><trkpt lat="39.8328424" lon="16.2573341"><ele>475.0</ele><time>2026-04-25T08:12:35.987Z</time></trkpt><trkpt lat="39.8331349" lon="16.2571895"><ele>477.0</ele><time>2026-04-25T08:12:36.979Z</time></trkpt><trkpt lat="39.8334301" lon="16.2570429"><ele>479.5</ele><time>2026-04-25T08:12:37.988Z</time></trkpt><trkpt lat="39.8337261" lon="16.2568958"><ele>482.0</ele><time>2026-04-25T08:12:38.978Z</time></trkpt><trkpt lat="39.8340228" lon="16.2567493"><ele>483.5</ele><time>2026-04-25T08:12:39.974Z</time></trkpt><trkpt lat="39.83432" lon="16.2566019"><ele>485.0</ele><time>2026-04-25T08:12:40.979Z</time></trkpt><trkpt lat="39.8346166" lon="16.2564496"><ele>485.0</ele><time>2026-04-25T08:12:41.977Z</time></trkpt><trkpt lat="39.8349106" lon="16.2562868"><ele>485.0</ele><time>2026-04-25T08:12:42.966Z</time></trkpt><trkpt lat="39.8352007" lon="16.2561101"><ele>488.0</ele><time>2026-04-25T08:12:43.991Z</time></trkpt><trkpt lat="39.835486" lon="16.2559177"><ele>491.0</ele><time>2026-04-25T08:12:44.986Z</time></trkpt><trkpt lat="39.8357666" lon="16.2557102"><ele>494.0</ele><time>2026-04-25T08:12:45.994Z</time></trkpt><trkpt lat="39.8360412" lon="16.2554885"><ele>497.0</ele><time>2026-04-25T08:12:47.009Z</time></trkpt><trkpt lat="39.8363099" lon="16.2552514"><ele>497.0</ele><time>2026-04-25T08:12:48.003Z</time></trkpt><trkpt lat="39.8365712" lon="16.2550011"><ele>497.0</ele><time>2026-04-25T08:12:48.977Z</time></trkpt><trkpt lat="39.8368277" lon="16.2547387"><ele>499.5</ele><time>2026-04-25T08:12:50.015Z</time></trkpt><trkpt lat="39.8370771" lon="16.2544647"><ele>502.0</ele><time>2026-04-25T08:12:50.996Z</time></trkpt><trkpt lat="39.8373196" lon="16.2541795"><ele>503.0</ele><time>2026-04-25T08:12:52.006Z</time></trkpt><trkpt lat="39.8375547" lon="16.253884"><ele>504.0</ele><time>2026-04-25T08:12:52.986Z</time></trkpt><trkpt lat="39.8377818" lon="16.2535781"><ele>507.5</ele><time>2026-04-25T08:12:53.982Z</time></trkpt><trkpt lat="39.838" lon="16.2532607"><ele>511.0</ele><time>2026-04-25T08:12:54.994Z</time></trkpt><trkpt lat="39.8382102" lon="16.252934"><ele>511.5</ele><time>2026-04-25T08:12:55.989Z</time></trkpt><trkpt lat="39.8384139" lon="16.2525994"><ele>512.0</ele><time>2026-04-25T08:12:56.983Z</time></trkpt><trkpt lat="39.8386117" lon="16.2522587"><ele>516.5</ele><time>2026-04-25T08:12:57.982Z</time></trkpt><trkpt lat="39.8388073" lon="16.2519147"><ele>521.0</ele><time>2026-04-25T08:12:58.979Z</time></trkpt><trkpt lat="39.8390051" lon="16.2515697"><ele>519.5</ele><time>2026-04-25T08:12:59.983Z</time></trkpt><trkpt lat="39.8392065" lon="16.2512255"><ele>518.0</ele><time>2026-04-25T08:13:00.979Z</time></trkpt><trkpt lat="39.8394105" lon="16.2508812"><ele>520.5</ele><time>2026-04-25T08:13:01.977Z</time></trkpt><trkpt lat="39.8396163" lon="16.2505332"><ele>523.0</ele><time>2026-04-25T08:13:02.972Z</time></trkpt><trkpt lat="39.8398195" lon="16.2501823"><ele>523.0</ele><time>2026-04-25T08:13:03.976Z</time></trkpt><trkpt lat="39.8400209" lon="16.2498272"><ele>523.0</ele><time>2026-04-25T08:13:04.967Z</time></trkpt><trkpt lat="39.8402209" lon="16.2494689"><ele>524.5</ele><time>2026-04-25T08:13:05.977Z</time></trkpt><trkpt lat="39.8404205" lon="16.24911"><ele>526.0</ele><time>2026-04-25T08:13:06.979Z</time></trkpt><trkpt lat="39.8406195" lon="16.248753"><ele>526.0</ele><time>2026-04-25T08:13:08.014Z</time></trkpt><trkpt lat="39.8408185" lon="16.2483978"><ele>526.0</ele><time>2026-04-25T08:13:08.996Z</time></trkpt><trkpt lat="39.8410195" lon="16.2480464"><ele>530.5</ele><time>2026-04-25T08:13:09.987Z</time></trkpt><trkpt lat="39.8412212" lon="16.2476974"><ele>535.0</ele><time>2026-04-25T08:13:10.975Z</time></trkpt><trkpt lat="39.8414215" lon="16.2473482"><ele>535.5</ele><time>2026-04-25T08:13:11.978Z</time></trkpt><trkpt lat="39.8416176" lon="16.246996"><ele>536.0</ele><time>2026-04-25T08:13:13.016Z</time></trkpt><trkpt lat="39.8418077" lon="16.2466393"><ele>540.5</ele><time>2026-04-25T08:13:14Z</time></trkpt><trkpt lat="39.8419874" lon="16.2462743"><ele>545.0</ele><time>2026-04-25T08:13:14.982Z</time></trkpt><trkpt lat="39.842161" lon="16.2458924"><ele>544.0</ele><time>2026-04-25T08:13:15.988Z</time></trkpt><trkpt lat="39.8423352" lon="16.2454929"><ele>543.0</ele><time>2026-04-25T08:13:16.972Z</time></trkpt><trkpt lat="39.8425111" lon="16.2450791"><ele>547.0</ele><time>2026-04-25T08:13:17.981Z</time></trkpt><trkpt lat="39.8426912" lon="16.2446576"><ele>551.0</ele><time>2026-04-25T08:13:18.982Z</time></trkpt><trkpt lat="39.8428706" lon="16.2442397"><ele>551.0</ele><time>2026-04-25T08:13:19.977Z</time></trkpt><trkpt lat="39.8430469" lon="16.2438253"><ele>551.0</ele><time>2026-04-25T08:13:20.973Z</time></trkpt><trkpt lat="39.8432205" lon="16.2434143"><ele>550.5</ele><time>2026-04-25T08:13:21.977Z</time></trkpt><trkpt lat="39.8433921" lon="16.2430073"><ele>550.0</ele><time>2026-04-25T08:13:22.978Z</time></trkpt><trkpt lat="39.8435618" lon="16.2426038"><ele>555.0</ele><time>2026-04-25T08:13:23.985Z</time></trkpt><trkpt lat="39.8437295" lon="16.2422028"><ele>560.0</ele><time>2026-04-25T08:13:24.983Z</time></trkpt><trkpt lat="39.8438956" lon="16.2418042"><ele>560.5</ele><time>2026-04-25T08:13:25.974Z</time></trkpt><trkpt lat="39.8440612" lon="16.2414082"><ele>561.0</ele><time>2026-04-25T08:13:26.986Z</time></trkpt><trkpt lat="39.8442269" lon="16.241015"><ele>566.0</ele><time>2026-04-25T08:13:27.986Z</time></trkpt><trkpt lat="39.8443924" lon="16.2406223"><ele>571.0</ele><time>2026-04-25T08:13:28.975Z</time></trkpt><trkpt lat="39.8445589" lon="16.2402303"><ele>571.0</ele><time>2026-04-25T08:13:29.969Z</time></trkpt><trkpt lat="39.8447264" lon="16.2398382"><ele>571.0</ele><time>2026-04-25T08:13:30.978Z</time></trkpt><trkpt lat="39.8448937" lon="16.2394453"><ele>572.0</ele><time>2026-04-25T08:13:31.978Z</time></trkpt><trkpt lat="39.8450609" lon="16.23905"><ele>573.0</ele><time>2026-04-25T08:13:32.969Z</time></trkpt><trkpt lat="39.8452289" lon="16.238653"><ele>577.5</ele><time>2026-04-25T08:13:33.981Z</time></trkpt><trkpt lat="39.8453977" lon="16.2382545"><ele>582.0</ele><time>2026-04-25T08:13:35.002Z</time></trkpt><trkpt lat="39.8455665" lon="16.237855"><ele>582.0</ele><time>2026-04-25T08:13:35.971Z</time></trkpt><trkpt lat="39.8457356" lon="16.2374558"><ele>582.0</ele><time>2026-04-25T08:13:36.978Z</time></trkpt><trkpt lat="39.8459057" lon="16.2370571"><ele>585.5</ele><time>2026-04-25T08:13:37.978Z</time></trkpt><trkpt lat="39.8460757" lon="16.236658"><ele>589.0</ele><time>2026-04-25T08:13:38.986Z</time></trkpt><trkpt lat="39.8462419" lon="16.2362563"><ele>580.5</ele><time>2026-04-25T08:13:39.984Z</time></trkpt><trkpt lat="39.8464006" lon="16.2358492"><ele>572.0</ele><time>2026-04-25T08:13:40.988Z</time></trkpt><trkpt lat="39.846548" lon="16.2354347"><ele>571.0</ele><time>2026-04-25T08:13:41.985Z</time></trkpt><trkpt lat="39.8466854" lon="16.235015"><ele>570.0</ele><time>2026-04-25T08:13:42.98Z</time></trkpt><trkpt lat="39.8468124" lon="16.2345901"><ele>576.5</ele><time>2026-04-25T08:13:44.01Z</time></trkpt><trkpt lat="39.84693" lon="16.234161"><ele>583.0</ele><time>2026-04-25T08:13:44.986Z</time></trkpt><trkpt lat="39.8470373" lon="16.2337286"><ele>585.0</ele><time>2026-04-25T08:13:45.979Z</time></trkpt><trkpt lat="39.8471328" lon="16.233292"><ele>587.0</ele><time>2026-04-25T08:13:46.976Z</time></trkpt><trkpt lat="39.8472165" lon="16.2328516"><ele>588.5</ele><time>2026-04-25T08:13:47.99Z</time></trkpt><trkpt lat="39.8472894" lon="16.2324082"><ele>590.0</ele><time>2026-04-25T08:13:48.974Z</time></trkpt><trkpt lat="39.8473505" lon="16.2319633"><ele>590.5</ele><time>2026-04-25T08:13:49.976Z</time></trkpt><trkpt lat="39.8474009" lon="16.231518"><ele>591.0</ele><time>2026-04-25T08:13:50.974Z</time></trkpt><trkpt lat="39.8474406" lon="16.2310703"><ele>594.5</ele><time>2026-04-25T08:13:51.979Z</time></trkpt><trkpt lat="39.8474705" lon="16.2306201"><ele>598.0</ele><time>2026-04-25T08:13:52.971Z</time></trkpt><trkpt lat="39.8474939" lon="16.2301684"><ele>599.5</ele><time>2026-04-25T08:13:53.984Z</time></trkpt><trkpt lat="39.8475143" lon="16.229716"><ele>601.0</ele><time>2026-04-25T08:13:54.977Z</time></trkpt><trkpt lat="39.8475364" lon="16.2292626"><ele>603.0</ele><time>2026-04-25T08:13:55.973Z</time></trkpt><trkpt lat="39.8475621" lon="16.2288086"><ele>605.0</ele><time>2026-04-25T08:13:56.981Z</time></trkpt><trkpt lat="39.8475907" lon="16.2283533"><ele>606.5</ele><time>2026-04-25T08:13:57.978Z</time></trkpt><trkpt lat="39.8476187" lon="16.2278973"><ele>608.0</ele><time>2026-04-25T08:13:58.976Z</time></trkpt><trkpt lat="39.8476427" lon="16.2274407"><ele>616.0</ele><time>2026-04-25T08:13:59.984Z</time></trkpt><trkpt lat="39.847662" lon="16.2269828"><ele>624.0</ele><time>2026-04-25T08:14:00.974Z</time></trkpt><trkpt lat="39.8476791" lon="16.2265244"><ele>624.5</ele><time>2026-04-25T08:14:01.984Z</time></trkpt><trkpt lat="39.8476965" lon="16.2260654"><ele>625.0</ele><time>2026-04-25T08:14:02.976Z</time></trkpt><trkpt lat="39.8477151" lon="16.2256042"><ele>626.0</ele><time>2026-04-25T08:14:03.972Z</time></trkpt><trkpt lat="39.847735" lon="16.2251416"><ele>627.0</ele><time>2026-04-25T08:14:04.985Z</time></trkpt><trkpt lat="39.8477566" lon="16.2246773"><ele>628.5</ele><time>2026-04-25T08:14:05.979Z</time></trkpt><trkpt lat="39.8477793" lon="16.2242114"><ele>630.0</ele><time>2026-04-25T08:14:06.973Z</time></trkpt><trkpt lat="39.8478018" lon="16.2237475"><ele>631.0</ele><time>2026-04-25T08:14:07.977Z</time></trkpt><trkpt lat="39.8478263" lon="16.2232879"><ele>632.0</ele><time>2026-04-25T08:14:08.981Z</time></trkpt><trkpt lat="39.8478563" lon="16.2228326"><ele>633.0</ele><time>2026-04-25T08:14:09.982Z</time></trkpt><trkpt lat="39.8478953" lon="16.2223813"><ele>634.0</ele><time>2026-04-25T08:14:10.977Z</time></trkpt><trkpt lat="39.8479454" lon="16.221934"><ele>634.0</ele><time>2026-04-25T08:14:11.988Z</time></trkpt><trkpt lat="39.8480032" lon="16.2214901"><ele>634.0</ele><time>2026-04-25T08:14:12.987Z</time></trkpt><trkpt lat="39.8480644" lon="16.221048"><ele>635.0</ele><time>2026-04-25T08:14:13.976Z</time></trkpt><trkpt lat="39.8481268" lon="16.2206072"><ele>636.0</ele><time>2026-04-25T08:14:14.975Z</time></trkpt><trkpt lat="39.8481883" lon="16.2201675"><ele>636.0</ele><time>2026-04-25T08:14:15.982Z</time></trkpt><trkpt lat="39.8482492" lon="16.2197281"><ele>636.0</ele><time>2026-04-25T08:14:16.98Z</time></trkpt><trkpt lat="39.8483093" lon="16.2192875"><ele>635.5</ele><time>2026-04-25T08:14:17.981Z</time></trkpt><trkpt lat="39.8483688" lon="16.2188453"><ele>635.0</ele><time>2026-04-25T08:14:18.975Z</time></trkpt><trkpt lat="39.8484283" lon="16.2184021"><ele>641.0</ele><time>2026-04-25T08:14:19.977Z</time></trkpt><trkpt lat="39.8484893" lon="16.2179569"><ele>647.0</ele><time>2026-04-25T08:14:20.984Z</time></trkpt><trkpt lat="39.8485518" lon="16.2175118"><ele>646.5</ele><time>2026-04-25T08:14:21.972Z</time></trkpt><trkpt lat="39.8486167" lon="16.2170665"><ele>646.0</ele><time>2026-04-25T08:14:22.98Z</time></trkpt><trkpt lat="39.8486812" lon="16.2166211"><ele>644.0</ele><time>2026-04-25T08:14:23.983Z</time></trkpt><trkpt lat="39.8487446" lon="16.2161761"><ele>642.0</ele><time>2026-04-25T08:14:24.975Z</time></trkpt><trkpt lat="39.8488064" lon="16.2157319"><ele>641.5</ele><time>2026-04-25T08:14:25.974Z</time></trkpt><trkpt lat="39.8488672" lon="16.2152918"><ele>641.0</ele><time>2026-04-25T08:14:26.983Z</time></trkpt><trkpt lat="39.848926" lon="16.2148552"><ele>641.5</ele><time>2026-04-25T08:14:27.975Z</time></trkpt><trkpt lat="39.8489821" lon="16.2144226"><ele>642.0</ele><time>2026-04-25T08:14:28.98Z</time></trkpt><trkpt lat="39.8490385" lon="16.213993"><ele>648.0</ele><time>2026-04-25T08:14:29.984Z</time></trkpt><trkpt lat="39.8491023" lon="16.2136143"><ele>654.0</ele><time>2026-04-25T08:14:30.976Z</time></trkpt><trkpt lat="39.8491578" lon="16.2131955"><ele>661.0</ele><time>2026-04-25T08:14:31.98Z</time></trkpt><trkpt lat="39.8492146" lon="16.2127816"><ele>668.0</ele><time>2026-04-25T08:14:32.984Z</time></trkpt><trkpt lat="39.8492747" lon="16.2123529"><ele>663.0</ele><time>2026-04-25T08:14:33.973Z</time></trkpt><trkpt lat="39.8501067" lon="16.2095262"><ele>663.0</ele><time>2026-04-25T08:14:40.978Z</time></trkpt><trkpt lat="39.8502792" lon="16.2091944"><ele>663.0</ele><time>2026-04-25T08:14:41.983Z</time></trkpt><trkpt lat="39.850475" lon="16.2088178"><ele>663.0</ele><time>2026-04-25T08:14:42.974Z</time></trkpt><trkpt lat="39.850657" lon="16.2084231"><ele>663.0</ele><time>2026-04-25T08:14:43.967Z</time></trkpt><trkpt lat="39.8508021" lon="16.2080147"><ele>657.5</ele><time>2026-04-25T08:14:44.975Z</time></trkpt><trkpt lat="39.8509716" lon="16.2076309"><ele>652.0</ele><time>2026-04-25T08:14:45.981Z</time></trkpt><trkpt lat="39.8511522" lon="16.2072569"><ele>648.0</ele><time>2026-04-25T08:14:46.982Z</time></trkpt><trkpt lat="39.8513267" lon="16.2068801"><ele>644.0</ele><time>2026-04-25T08:14:47.969Z</time></trkpt><trkpt lat="39.8515057" lon="16.2065029"><ele>646.5</ele><time>2026-04-25T08:14:48.982Z</time></trkpt><trkpt lat="39.8516834" lon="16.2061274"><ele>649.0</ele><time>2026-04-25T08:14:49.974Z</time></trkpt><trkpt lat="39.8518601" lon="16.2057517"><ele>666.0</ele><time>2026-04-25T08:14:50.987Z</time></trkpt><trkpt lat="39.8520356" lon="16.205374"><ele>683.0</ele><time>2026-04-25T08:14:51.983Z</time></trkpt><trkpt lat="39.8522138" lon="16.2049995"><ele>679.0</ele><time>2026-04-25T08:14:52.971Z</time></trkpt><trkpt lat="39.8523949" lon="16.2046325"><ele>675.0</ele><time>2026-04-25T08:14:53.973Z</time></trkpt><trkpt lat="39.852585" lon="16.2042736"><ele>677.0</ele><time>2026-04-25T08:14:54.978Z</time></trkpt><trkpt lat="39.8527828" lon="16.2039235"><ele>679.0</ele><time>2026-04-25T08:14:55.975Z</time></trkpt><trkpt lat="39.8529866" lon="16.2035813"><ele>679.0</ele><time>2026-04-25T08:14:56.986Z</time></trkpt><trkpt lat="39.853198" lon="16.2032494"><ele>679.0</ele><time>2026-04-25T08:14:57.976Z</time></trkpt><trkpt lat="39.853414" lon="16.2029245"><ele>679.5</ele><time>2026-04-25T08:14:58.973Z</time></trkpt><trkpt lat="39.8536314" lon="16.2026039"><ele>680.0</ele><time>2026-04-25T08:14:59.982Z</time></trkpt><trkpt lat="39.8538474" lon="16.2022836"><ele>680.5</ele><time>2026-04-25T08:15:00.971Z</time></trkpt><trkpt lat="39.8540631" lon="16.2019649"><ele>681.0</ele><time>2026-04-25T08:15:01.969Z</time></trkpt><trkpt lat="39.854279" lon="16.2016483"><ele>683.5</ele><time>2026-04-25T08:15:02.97Z</time></trkpt><trkpt lat="39.8544951" lon="16.2013344"><ele>686.0</ele><time>2026-04-25T08:15:03.977Z</time></trkpt><trkpt lat="39.8547101" lon="16.2010211"><ele>686.0</ele><time>2026-04-25T08:15:04.978Z</time></trkpt><trkpt lat="39.8549254" lon="16.2007067"><ele>686.0</ele><time>2026-04-25T08:15:05.977Z</time></trkpt><trkpt lat="39.8551378" lon="16.2003929"><ele>691.0</ele><time>2026-04-25T08:15:06.969Z</time></trkpt><trkpt lat="39.8553501" lon="16.2000771"><ele>696.0</ele><time>2026-04-25T08:15:07.979Z</time></trkpt><trkpt lat="39.8555639" lon="16.1997599"><ele>696.5</ele><time>2026-04-25T08:15:08.972Z</time></trkpt><trkpt lat="39.8557793" lon="16.1994409"><ele>697.0</ele><time>2026-04-25T08:15:09.984Z</time></trkpt><trkpt lat="39.8559963" lon="16.1991215"><ele>700.5</ele><time>2026-04-25T08:15:10.98Z</time></trkpt><trkpt lat="39.8562139" lon="16.1988"><ele>704.0</ele><time>2026-04-25T08:15:11.976Z</time></trkpt><trkpt lat="39.8564321" lon="16.1984775"><ele>704.5</ele><time>2026-04-25T08:15:12.979Z</time></trkpt><trkpt lat="39.856651" lon="16.198154"><ele>705.0</ele><time>2026-04-25T08:15:13.98Z</time></trkpt><trkpt lat="39.85687" lon="16.1978287"><ele>707.0</ele><time>2026-04-25T08:15:14.968Z</time></trkpt><trkpt lat="39.8570888" lon="16.1975034"><ele>709.0</ele><time>2026-04-25T08:15:15.976Z</time></trkpt><trkpt lat="39.8573085" lon="16.1971776"><ele>709.0</ele><time>2026-04-25T08:15:16.977Z</time></trkpt><trkpt lat="39.8575295" lon="16.1968515"><ele>709.0</ele><time>2026-04-25T08:15:17.971Z</time></trkpt><trkpt lat="39.8577511" lon="16.1965251"><ele>713.0</ele><time>2026-04-25T08:15:18.97Z</time></trkpt><trkpt lat="39.8579736" lon="16.1961983"><ele>717.0</ele><time>2026-04-25T08:15:19.982Z</time></trkpt><trkpt lat="39.858198" lon="16.1958701"><ele>715.5</ele><time>2026-04-25T08:15:20.977Z</time></trkpt><trkpt lat="39.8584286" lon="16.195532"><ele>714.0</ele><time>2026-04-25T08:15:21.969Z</time></trkpt><trkpt lat="39.8586661" lon="16.1951826"><ele>714.5</ele><time>2026-04-25T08:15:22.979Z</time></trkpt><trkpt lat="39.8589033" lon="16.1948334"><ele>715.0</ele><time>2026-04-25T08:15:23.978Z</time></trkpt><trkpt lat="39.8591393" lon="16.1944852"><ele>717.0</ele><time>2026-04-25T08:15:24.972Z</time></trkpt><trkpt lat="39.8593738" lon="16.1941401"><ele>719.0</ele><time>2026-04-25T08:15:25.966Z</time></trkpt><trkpt lat="39.8596061" lon="16.1937992"><ele>719.0</ele><time>2026-04-25T08:15:26.976Z</time></trkpt><trkpt lat="39.859835" lon="16.1934593"><ele>719.0</ele><time>2026-04-25T08:15:27.974Z</time></trkpt><trkpt lat="39.860061" lon="16.1931201"><ele>721.0</ele><time>2026-04-25T08:15:28.975Z</time></trkpt><trkpt lat="39.8602842" lon="16.19278"><ele>723.0</ele><time>2026-04-25T08:15:29.986Z</time></trkpt><trkpt lat="39.8605038" lon="16.1924371"><ele>720.0</ele><time>2026-04-25T08:15:30.978Z</time></trkpt><trkpt lat="39.8607182" lon="16.1920906"><ele>717.0</ele><time>2026-04-25T08:15:31.971Z</time></trkpt><trkpt lat="39.8609253" lon="16.191739"><ele>720.5</ele><time>2026-04-25T08:15:32.977Z</time></trkpt><trkpt lat="39.8611242" lon="16.191381"><ele>724.0</ele><time>2026-04-25T08:15:33.979Z</time></trkpt><trkpt lat="39.8613147" lon="16.191015"><ele>721.5</ele><time>2026-04-25T08:15:34.969Z</time></trkpt><trkpt lat="39.8614966" lon="16.1906417"><ele>719.0</ele><time>2026-04-25T08:15:35.974Z</time></trkpt><trkpt lat="39.8616742" lon="16.1902643"><ele>723.5</ele><time>2026-04-25T08:15:36.984Z</time></trkpt><trkpt lat="39.8618511" lon="16.1898851"><ele>728.0</ele><time>2026-04-25T08:15:37.97Z</time></trkpt><trkpt lat="39.8620296" lon="16.1895063"><ele>728.0</ele><time>2026-04-25T08:15:38.969Z</time></trkpt><trkpt lat="39.8622104" lon="16.189128"><ele>728.0</ele><time>2026-04-25T08:15:39.972Z</time></trkpt><trkpt lat="39.8623911" lon="16.1887498"><ele>727.0</ele><time>2026-04-25T08:15:40.98Z</time></trkpt><trkpt lat="39.8625717" lon="16.1883715"><ele>726.0</ele><time>2026-04-25T08:15:41.972Z</time></trkpt><trkpt lat="39.8627524" lon="16.1879929"><ele>727.5</ele><time>2026-04-25T08:15:42.969Z</time></trkpt><trkpt lat="39.8629319" lon="16.1876136"><ele>729.0</ele><time>2026-04-25T08:15:43.978Z</time></trkpt><trkpt lat="39.8631113" lon="16.1872326"><ele>729.0</ele><time>2026-04-25T08:15:44.98Z</time></trkpt><trkpt lat="39.8632942" lon="16.1868423"><ele>729.0</ele><time>2026-04-25T08:15:45.972Z</time></trkpt><trkpt lat="39.8634825" lon="16.1864392"><ele>729.0</ele><time>2026-04-25T08:15:46.981Z</time></trkpt><trkpt lat="39.8636725" lon="16.1860352"><ele>729.0</ele><time>2026-04-25T08:15:47.975Z</time></trkpt><trkpt lat="39.8638622" lon="16.1856354"><ele>730.0</ele><time>2026-04-25T08:15:48.972Z</time></trkpt><trkpt lat="39.8640506" lon="16.1852422"><ele>731.0</ele><time>2026-04-25T08:15:49.984Z</time></trkpt><trkpt lat="39.864238" lon="16.1848567"><ele>736.5</ele><time>2026-04-25T08:15:50.975Z</time></trkpt><trkpt lat="39.8644226" lon="16.18448"><ele>742.0</ele><time>2026-04-25T08:15:51.971Z</time></trkpt><trkpt lat="39.8646084" lon="16.184113"><ele>743.0</ele><time>2026-04-25T08:15:52.983Z</time></trkpt><trkpt lat="39.864798" lon="16.1837567"><ele>744.0</ele><time>2026-04-25T08:15:53.978Z</time></trkpt><trkpt lat="39.8649981" lon="16.1834004"><ele>748.5</ele><time>2026-04-25T08:15:54.967Z</time></trkpt><trkpt lat="39.8652149" lon="16.1830382"><ele>753.0</ele><time>2026-04-25T08:15:55.976Z</time></trkpt><trkpt lat="39.8654492" lon="16.1826727"><ele>752.0</ele><time>2026-04-25T08:15:56.974Z</time></trkpt><trkpt lat="39.8656972" lon="16.1823044"><ele>751.0</ele><time>2026-04-25T08:15:57.966Z</time></trkpt><trkpt lat="39.865954" lon="16.181932"><ele>755.0</ele><time>2026-04-25T08:15:58.972Z</time></trkpt><trkpt lat="39.8662043" lon="16.1815658"><ele>759.0</ele><time>2026-04-25T08:15:59.967Z</time></trkpt><trkpt lat="39.8664447" lon="16.181206"><ele>759.0</ele><time>2026-04-25T08:16:00.965Z</time></trkpt><trkpt lat="39.8666766" lon="16.1808525"><ele>759.0</ele><time>2026-04-25T08:16:01.979Z</time></trkpt><trkpt lat="39.8669029" lon="16.180505"><ele>760.5</ele><time>2026-04-25T08:16:02.974Z</time></trkpt><trkpt lat="39.8671251" lon="16.1801633"><ele>762.0</ele><time>2026-04-25T08:16:03.972Z</time></trkpt><trkpt lat="39.8673456" lon="16.1798256"><ele>762.0</ele><time>2026-04-25T08:16:04.979Z</time></trkpt><trkpt lat="39.8675641" lon="16.1794918"><ele>762.0</ele><time>2026-04-25T08:16:05.977Z</time></trkpt><trkpt lat="39.8677805" lon="16.1791608"><ele>763.0</ele><time>2026-04-25T08:16:06.97Z</time></trkpt><trkpt lat="39.8679951" lon="16.1788312"><ele>764.0</ele><time>2026-04-25T08:16:07.973Z</time></trkpt><trkpt lat="39.8682082" lon="16.1785018"><ele>763.0</ele><time>2026-04-25T08:16:08.974Z</time></trkpt><trkpt lat="39.8684195" lon="16.1781716"><ele>762.0</ele><time>2026-04-25T08:16:09.974Z</time></trkpt><trkpt lat="39.8686301" lon="16.177842"><ele>762.0</ele><time>2026-04-25T08:16:10.976Z</time></trkpt><trkpt lat="39.8688407" lon="16.1775142"><ele>762.0</ele><time>2026-04-25T08:16:11.975Z</time></trkpt><trkpt lat="39.8690522" lon="16.1771897"><ele>759.5</ele><time>2026-04-25T08:16:12.971Z</time></trkpt><trkpt lat="39.8692645" lon="16.1768681"><ele>757.0</ele><time>2026-04-25T08:16:13.988Z</time></trkpt><trkpt lat="39.8694748" lon="16.1765488"><ele>761.5</ele><time>2026-04-25T08:16:14.978Z</time></trkpt><trkpt lat="39.8696838" lon="16.1762307"><ele>766.0</ele><time>2026-04-25T08:16:15.977Z</time></trkpt><trkpt lat="39.8698915" lon="16.1759139"><ele>765.5</ele><time>2026-04-25T08:16:16.964Z</time></trkpt><trkpt lat="39.8700989" lon="16.1755989"><ele>765.0</ele><time>2026-04-25T08:16:17.972Z</time></trkpt><trkpt lat="39.8703047" lon="16.1752845"><ele>770.5</ele><time>2026-04-25T08:16:18.972Z</time></trkpt><trkpt lat="39.8705097" lon="16.1749711"><ele>776.0</ele><time>2026-04-25T08:16:19.969Z</time></trkpt><trkpt lat="39.8707135" lon="16.1746592"><ele>776.0</ele><time>2026-04-25T08:16:20.971Z</time></trkpt><trkpt lat="39.8709156" lon="16.1743507"><ele>776.0</ele><time>2026-04-25T08:16:21.969Z</time></trkpt><trkpt lat="39.8711173" lon="16.1740434"><ele>781.0</ele><time>2026-04-25T08:16:22.964Z</time></trkpt><trkpt lat="39.8713194" lon="16.1737358"><ele>786.0</ele><time>2026-04-25T08:16:23.972Z</time></trkpt><trkpt lat="39.8715204" lon="16.1734271"><ele>786.0</ele><time>2026-04-25T08:16:24.97Z</time></trkpt><trkpt lat="39.8717209" lon="16.1731189"><ele>786.0</ele><time>2026-04-25T08:16:25.969Z</time></trkpt><trkpt lat="39.8719175" lon="16.1728134"><ele>786.0</ele><time>2026-04-25T08:16:26.975Z</time></trkpt><trkpt lat="39.872112" lon="16.1725376"><ele>786.0</ele><time>2026-04-25T08:16:27.974Z</time></trkpt><trkpt lat="39.8723062" lon="16.1722616"><ele>786.0</ele><time>2026-04-25T08:16:28.959Z</time></trkpt><trkpt lat="39.8724949" lon="16.1719809"><ele>786.0</ele><time>2026-04-25T08:16:29.965Z</time></trkpt><trkpt lat="39.8726721" lon="16.1717154"><ele>789.0</ele><time>2026-04-25T08:16:30.963Z</time></trkpt><trkpt lat="39.8728442" lon="16.1714662"><ele>792.0</ele><time>2026-04-25T08:16:31.974Z</time></trkpt><trkpt lat="39.8730099" lon="16.1712344"><ele>792.0</ele><time>2026-04-25T08:16:32.975Z</time></trkpt><trkpt lat="39.8731634" lon="16.1710131"><ele>792.0</ele><time>2026-04-25T08:16:33.973Z</time></trkpt><trkpt lat="39.8733035" lon="16.1708029"><ele>792.0</ele><time>2026-04-25T08:16:34.975Z</time></trkpt><trkpt lat="39.8734331" lon="16.1706055"><ele>794.0</ele><time>2026-04-25T08:16:35.975Z</time></trkpt><trkpt lat="39.873561" lon="16.1704271"><ele>796.0</ele><time>2026-04-25T08:16:36.979Z</time></trkpt><trkpt lat="39.8736974" lon="16.1702704"><ele>798.0</ele><time>2026-04-25T08:16:37.969Z</time></trkpt><trkpt lat="39.8738482" lon="16.1701386"><ele>798.0</ele><time>2026-04-25T08:16:38.967Z</time></trkpt><trkpt lat="39.8740141" lon="16.1700334"><ele>798.0</ele><time>2026-04-25T08:16:39.976Z</time></trkpt><trkpt lat="39.8741927" lon="16.1699594"><ele>798.0</ele><time>2026-04-25T08:16:40.973Z</time></trkpt><trkpt lat="39.8743789" lon="16.1699207"><ele>802.0</ele><time>2026-04-25T08:16:41.967Z</time></trkpt><trkpt lat="39.8745621" lon="16.1699189"><ele>806.0</ele><time>2026-04-25T08:16:42.967Z</time></trkpt><trkpt lat="39.8747388" lon="16.169929"><ele>810.0</ele><time>2026-04-25T08:16:43.966Z</time></trkpt><trkpt lat="39.8748939" lon="16.1699364"><ele>810.0</ele><time>2026-04-25T08:16:44.963Z</time></trkpt><trkpt lat="39.8750325" lon="16.1698965"><ele>810.0</ele><time>2026-04-25T08:16:45.977Z</time></trkpt><trkpt lat="39.8751466" lon="16.1698012"><ele>810.0</ele><time>2026-04-25T08:16:46.972Z</time></trkpt><trkpt lat="39.8752341" lon="16.1696755"><ele>810.0</ele><time>2026-04-25T08:16:47.978Z</time></trkpt><trkpt lat="39.875291" lon="16.1695138"><ele>811.5</ele><time>2026-04-25T08:16:48.979Z</time></trkpt><trkpt lat="39.875314" lon="16.1693332"><ele>813.0</ele><time>2026-04-25T08:16:49.968Z</time></trkpt><trkpt lat="39.8752917" lon="16.1691496"><ele>814.5</ele><time>2026-04-25T08:16:50.968Z</time></trkpt><trkpt lat="39.8752611" lon="16.1689705"><ele>816.0</ele><time>2026-04-25T08:16:51.973Z</time></trkpt><trkpt lat="39.8751534" lon="16.1688171"><ele>811.0</ele><time>2026-04-25T08:16:52.966Z</time></trkpt><trkpt lat="39.8750215" lon="16.1686601"><ele>806.0</ele><time>2026-04-25T08:16:53.968Z</time></trkpt><trkpt lat="39.8748771" lon="16.1684945"><ele>801.0</ele><time>2026-04-25T08:16:54.963Z</time></trkpt><trkpt lat="39.8747298" lon="16.1683279"><ele>800.0</ele><time>2026-04-25T08:16:55.976Z</time></trkpt><trkpt lat="39.8745914" lon="16.1681563"><ele>799.0</ele><time>2026-04-25T08:16:56.969Z</time></trkpt><trkpt lat="39.874471" lon="16.1679913"><ele>798.0</ele><time>2026-04-25T08:16:57.984Z</time></trkpt><trkpt lat="39.8743746" lon="16.1678056"><ele>798.0</ele><time>2026-04-25T08:16:58.97Z</time></trkpt><trkpt lat="39.8743062" lon="16.1675954"><ele>798.0</ele><time>2026-04-25T08:16:59.972Z</time></trkpt><trkpt lat="39.8742575" lon="16.1673798"><ele>798.0</ele><time>2026-04-25T08:17:00.976Z</time></trkpt><trkpt lat="39.8742357" lon="16.1671557"><ele>793.3333333333333</ele><time>2026-04-25T08:17:01.97Z</time></trkpt><trkpt lat="39.8742417" lon="16.1669256"><ele>788.6666666666666</ele><time>2026-04-25T08:17:02.979Z</time></trkpt><trkpt lat="39.874271" lon="16.1666987"><ele>784.0</ele><time>2026-04-25T08:17:03.967Z</time></trkpt><trkpt lat="39.8743273" lon="16.1664835"><ele>784.0</ele><time>2026-04-25T08:17:04.969Z</time></trkpt><trkpt lat="39.8744045" lon="16.1662868"><ele>784.0</ele><time>2026-04-25T08:17:05.967Z</time></trkpt><trkpt lat="39.8744964" lon="16.1661034"><ele>784.0</ele><time>2026-04-25T08:17:06.975Z</time></trkpt><trkpt lat="39.8745903" lon="16.1659245"><ele>784.0</ele><time>2026-04-25T08:17:07.973Z</time></trkpt><trkpt lat="39.8746771" lon="16.1657476"><ele>784.0</ele><time>2026-04-25T08:17:08.971Z</time></trkpt><trkpt lat="39.8747619" lon="16.165574"><ele>784.0</ele><time>2026-04-25T08:17:09.97Z</time></trkpt><trkpt lat="39.8748508" lon="16.1653834"><ele>781.0</ele><time>2026-04-25T08:17:10.975Z</time></trkpt><trkpt lat="39.8749588" lon="16.1651727"><ele>778.0</ele><time>2026-04-25T08:17:11.97Z</time></trkpt><trkpt lat="39.8750688" lon="16.1649418"><ele>775.0</ele><time>2026-04-25T08:17:12.972Z</time></trkpt><trkpt lat="39.8751929" lon="16.1646989"><ele>774.0</ele><time>2026-04-25T08:17:13.967Z</time></trkpt><trkpt lat="39.8753171" lon="16.1644534"><ele>773.0</ele><time>2026-04-25T08:17:14.965Z</time></trkpt><trkpt lat="39.8754469" lon="16.1642022"><ele>770.0</ele><time>2026-04-25T08:17:15.977Z</time></trkpt><trkpt lat="39.8755751" lon="16.1639464"><ele>767.0</ele><time>2026-04-25T08:17:16.96Z</time></trkpt><trkpt lat="39.8757006" lon="16.1636872"><ele>767.0</ele><time>2026-04-25T08:17:17.982Z</time></trkpt><trkpt lat="39.8758262" lon="16.1634293"><ele>767.0</ele><time>2026-04-25T08:17:18.974Z</time></trkpt><trkpt lat="39.8759522" lon="16.1631724"><ele>768.5</ele><time>2026-04-25T08:17:19.971Z</time></trkpt><trkpt lat="39.8760736" lon="16.1629114"><ele>770.0</ele><time>2026-04-25T08:17:20.967Z</time></trkpt><trkpt lat="39.8761839" lon="16.162641"><ele>766.0</ele><time>2026-04-25T08:17:21.977Z</time></trkpt><trkpt lat="39.8762744" lon="16.1623612"><ele>762.0</ele><time>2026-04-25T08:17:22.97Z</time></trkpt><trkpt lat="39.8763439" lon="16.1620693"><ele>762.0</ele><time>2026-04-25T08:17:23.975Z</time></trkpt><trkpt lat="39.876389" lon="16.1617649"><ele>762.0</ele><time>2026-04-25T08:17:24.98Z</time></trkpt><trkpt lat="39.8764112" lon="16.1614536"><ele>757.5</ele><time>2026-04-25T08:17:25.971Z</time></trkpt><trkpt lat="39.8764063" lon="16.1611371"><ele>753.0</ele><time>2026-04-25T08:17:26.969Z</time></trkpt><trkpt lat="39.8763748" lon="16.1608229"><ele>749.5</ele><time>2026-04-25T08:17:27.975Z</time></trkpt><trkpt lat="39.8763172" lon="16.1605131"><ele>746.0</ele><time>2026-04-25T08:17:28.967Z</time></trkpt><trkpt lat="39.8762376" lon="16.1602107"><ele>746.0</ele><time>2026-04-25T08:17:29.974Z</time></trkpt><trkpt lat="39.8761334" lon="16.1599202"><ele>746.0</ele><time>2026-04-25T08:17:30.975Z</time></trkpt><trkpt lat="39.8760038" lon="16.1596458"><ele>738.5</ele><time>2026-04-25T08:17:31.972Z</time></trkpt><trkpt lat="39.8758512" lon="16.1593919"><ele>731.0</ele><time>2026-04-25T08:17:32.977Z</time></trkpt><trkpt lat="39.875676" lon="16.1591626"><ele>722.5</ele><time>2026-04-25T08:17:33.974Z</time></trkpt><trkpt lat="39.8754823" lon="16.1589604"><ele>714.0</ele><time>2026-04-25T08:17:34.968Z</time></trkpt><trkpt lat="39.8752717" lon="16.1587869"><ele>714.5</ele><time>2026-04-25T08:17:35.972Z</time></trkpt><trkpt lat="39.8750483" lon="16.1586432"><ele>715.0</ele><time>2026-04-25T08:17:36.974Z</time></trkpt><trkpt lat="39.8748131" lon="16.1585319"><ele>715.0</ele><time>2026-04-25T08:17:37.965Z</time></trkpt><trkpt lat="39.8745701" lon="16.1584533"><ele>715.0</ele><time>2026-04-25T08:17:38.975Z</time></trkpt><trkpt lat="39.8743203" lon="16.1584045"><ele>714.0</ele><time>2026-04-25T08:17:39.966Z</time></trkpt><trkpt lat="39.874068" lon="16.1583717"><ele>713.0</ele><time>2026-04-25T08:17:40.965Z</time></trkpt><trkpt lat="39.8738113" lon="16.1583468"><ele>713.0</ele><time>2026-04-25T08:17:41.967Z</time></trkpt><trkpt lat="39.8735535" lon="16.1583226"><ele>713.0</ele><time>2026-04-25T08:17:42.975Z</time></trkpt><trkpt lat="39.8732918" lon="16.1582978"><ele>710.5</ele><time>2026-04-25T08:17:43.974Z</time></trkpt><trkpt lat="39.8730257" lon="16.1582745"><ele>708.0</ele><time>2026-04-25T08:17:44.977Z</time></trkpt><trkpt lat="39.8727569" lon="16.158251"><ele>705.0</ele><time>2026-04-25T08:17:45.986Z</time></trkpt><trkpt lat="39.8724856" lon="16.1582263"><ele>702.0</ele><time>2026-04-25T08:17:46.973Z</time></trkpt><trkpt lat="39.8722123" lon="16.1582011"><ele>697.5</ele><time>2026-04-25T08:17:47.969Z</time></trkpt><trkpt lat="39.8719375" lon="16.1581759"><ele>693.0</ele><time>2026-04-25T08:17:48.972Z</time></trkpt><trkpt lat="39.8716609" lon="16.1581501"><ele>692.0</ele><time>2026-04-25T08:17:49.975Z</time></trkpt><trkpt lat="39.8713829" lon="16.1581259"><ele>691.0</ele><time>2026-04-25T08:17:50.972Z</time></trkpt><trkpt lat="39.8711039" lon="16.1581027"><ele>687.5</ele><time>2026-04-25T08:17:51.971Z</time></trkpt><trkpt lat="39.8708245" lon="16.1580799"><ele>684.0</ele><time>2026-04-25T08:17:52.975Z</time></trkpt><trkpt lat="39.8705439" lon="16.1580568"><ele>684.0</ele><time>2026-04-25T08:17:53.98Z</time></trkpt><trkpt lat="39.8702633" lon="16.1580332"><ele>684.0</ele><time>2026-04-25T08:17:54.976Z</time></trkpt><trkpt lat="39.869981" lon="16.1580088"><ele>682.0</ele><time>2026-04-25T08:17:55.968Z</time></trkpt><trkpt lat="39.8696986" lon="16.1579817"><ele>680.0</ele><time>2026-04-25T08:17:56.974Z</time></trkpt><trkpt lat="39.8694154" lon="16.1579537"><ele>676.5</ele><time>2026-04-25T08:17:57.973Z</time></trkpt><trkpt lat="39.869132" lon="16.1579265"><ele>673.0</ele><time>2026-04-25T08:17:58.969Z</time></trkpt><trkpt lat="39.8688481" lon="16.1579014"><ele>673.0</ele><time>2026-04-25T08:17:59.967Z</time></trkpt><trkpt lat="39.8685634" lon="16.1578775"><ele>673.0</ele><time>2026-04-25T08:18:00.97Z</time></trkpt><trkpt lat="39.8682782" lon="16.1578544"><ele>670.5</ele><time>2026-04-25T08:18:01.976Z</time></trkpt><trkpt lat="39.867993" lon="16.1578307"><ele>668.0</ele><time>2026-04-25T08:18:02.972Z</time></trkpt><trkpt lat="39.8677081" lon="16.1578062"><ele>665.5</ele><time>2026-04-25T08:18:03.967Z</time></trkpt><trkpt lat="39.8674241" lon="16.1577803"><ele>663.0</ele><time>2026-04-25T08:18:04.976Z</time></trkpt><trkpt lat="39.8671415" lon="16.1577547"><ele>663.0</ele><time>2026-04-25T08:18:05.965Z</time></trkpt><trkpt lat="39.8668592" lon="16.1577297"><ele>663.0</ele><time>2026-04-25T08:18:06.972Z</time></trkpt><trkpt lat="39.8665764" lon="16.1577065"><ele>656.5</ele><time>2026-04-25T08:18:07.971Z</time></trkpt><trkpt lat="39.8662937" lon="16.1576844"><ele>650.0</ele><time>2026-04-25T08:18:08.977Z</time></trkpt><trkpt lat="39.8660113" lon="16.1576616"><ele>647.0</ele><time>2026-04-25T08:18:09.966Z</time></trkpt><trkpt lat="39.8657288" lon="16.157638"><ele>644.0</ele><time>2026-04-25T08:18:10.979Z</time></trkpt><trkpt lat="39.8654464" lon="16.1576133"><ele>644.0</ele><time>2026-04-25T08:18:11.971Z</time></trkpt><trkpt lat="39.8651639" lon="16.1575873"><ele>644.0</ele><time>2026-04-25T08:18:12.973Z</time></trkpt><trkpt lat="39.8648812" lon="16.1575603"><ele>643.0</ele><time>2026-04-25T08:18:13.975Z</time></trkpt><trkpt lat="39.8645985" lon="16.1575298"><ele>642.0</ele><time>2026-04-25T08:18:14.968Z</time></trkpt><trkpt lat="39.8643161" lon="16.1574909"><ele>640.0</ele><time>2026-04-25T08:18:15.969Z</time></trkpt><trkpt lat="39.8640359" lon="16.1574339"><ele>638.0</ele><time>2026-04-25T08:18:16.975Z</time></trkpt><trkpt lat="39.863759" lon="16.157357"><ele>637.5</ele><time>2026-04-25T08:18:17.973Z</time></trkpt><trkpt lat="39.863486" lon="16.1572575"><ele>637.0</ele><time>2026-04-25T08:18:18.973Z</time></trkpt><trkpt lat="39.8632172" lon="16.1571352"><ele>634.5</ele><time>2026-04-25T08:18:19.97Z</time></trkpt><trkpt lat="39.862955" lon="16.1569905"><ele>632.0</ele><time>2026-04-25T08:18:20.973Z</time></trkpt><trkpt lat="39.8627012" lon="16.1568251"><ele>630.0</ele><time>2026-04-25T08:18:21.968Z</time></trkpt><trkpt lat="39.8624566" lon="16.1566437"><ele>628.0</ele><time>2026-04-25T08:18:22.966Z</time></trkpt><trkpt lat="39.8622162" lon="16.1564559"><ele>627.5</ele><time>2026-04-25T08:18:23.971Z</time></trkpt><trkpt lat="39.8619791" lon="16.156267"><ele>627.0</ele><time>2026-04-25T08:18:24.973Z</time></trkpt><trkpt lat="39.8617436" lon="16.1560799"><ele>624.0</ele><time>2026-04-25T08:18:25.982Z</time></trkpt><trkpt lat="39.8615073" lon="16.1558973"><ele>621.0</ele><time>2026-04-25T08:18:26.975Z</time></trkpt><trkpt lat="39.8612717" lon="16.1557176"><ele>621.0</ele><time>2026-04-25T08:18:27.977Z</time></trkpt><trkpt lat="39.8610379" lon="16.1555366"><ele>621.0</ele><time>2026-04-25T08:18:28.974Z</time></trkpt><trkpt lat="39.8608056" lon="16.1553535"><ele>618.0</ele><time>2026-04-25T08:18:29.971Z</time></trkpt><trkpt lat="39.8605747" lon="16.1551698"><ele>615.0</ele><time>2026-04-25T08:18:30.974Z</time></trkpt><trkpt lat="39.8603431" lon="16.1549944"><ele>615.0</ele><time>2026-04-25T08:18:31.98Z</time></trkpt><trkpt lat="39.8601171" lon="16.1548173"><ele>615.0</ele><time>2026-04-25T08:18:32.972Z</time></trkpt><trkpt lat="39.8598878" lon="16.1546372"><ele>612.5</ele><time>2026-04-25T08:18:33.967Z</time></trkpt><trkpt lat="39.8596603" lon="16.1544595"><ele>610.0</ele><time>2026-04-25T08:18:34.97Z</time></trkpt><trkpt lat="39.8594311" lon="16.1542821"><ele>607.0</ele><time>2026-04-25T08:18:35.973Z</time></trkpt><trkpt lat="39.8592055" lon="16.1541035"><ele>604.0</ele><time>2026-04-25T08:18:36.97Z</time></trkpt><trkpt lat="39.8589791" lon="16.1539283"><ele>603.5</ele><time>2026-04-25T08:18:37.968Z</time></trkpt><trkpt lat="39.8587582" lon="16.1537538"><ele>603.0</ele><time>2026-04-25T08:18:38.968Z</time></trkpt><trkpt lat="39.8585464" lon="16.1535875"><ele>600.5</ele><time>2026-04-25T08:18:39.968Z</time></trkpt><trkpt lat="39.858343" lon="16.1534297"><ele>598.0</ele><time>2026-04-25T08:18:40.969Z</time></trkpt><trkpt lat="39.8581467" lon="16.1532782"><ele>597.5</ele><time>2026-04-25T08:18:41.964Z</time></trkpt><trkpt lat="39.8579511" lon="16.1531286"><ele>597.0</ele><time>2026-04-25T08:18:42.983Z</time></trkpt><trkpt lat="39.8577571" lon="16.152976"><ele>595.0</ele><time>2026-04-25T08:18:43.976Z</time></trkpt><trkpt lat="39.8575612" lon="16.1528196"><ele>593.0</ele><time>2026-04-25T08:18:44.98Z</time></trkpt><trkpt lat="39.8573628" lon="16.1526631"><ele>593.0</ele><time>2026-04-25T08:18:45.976Z</time></trkpt><trkpt lat="39.8571537" lon="16.152512"><ele>593.0</ele><time>2026-04-25T08:18:46.977Z</time></trkpt><trkpt lat="39.8569309" lon="16.1523722"><ele>590.5</ele><time>2026-04-25T08:18:47.973Z</time></trkpt><trkpt lat="39.8566949" lon="16.1522417"><ele>588.0</ele><time>2026-04-25T08:18:48.973Z</time></trkpt><trkpt lat="39.8564502" lon="16.152112"><ele>588.0</ele><time>2026-04-25T08:18:49.967Z</time></trkpt><trkpt lat="39.8562011" lon="16.1519764"><ele>588.0</ele><time>2026-04-25T08:18:50.969Z</time></trkpt><trkpt lat="39.8559501" lon="16.1518356"><ele>586.0</ele><time>2026-04-25T08:18:51.969Z</time></trkpt><trkpt lat="39.8556965" lon="16.1516954"><ele>584.0</ele><time>2026-04-25T08:18:52.973Z</time></trkpt><trkpt lat="39.8554417" lon="16.1515547"><ele>584.0</ele><time>2026-04-25T08:18:53.978Z</time></trkpt><trkpt lat="39.8551849" lon="16.1514121"><ele>584.0</ele><time>2026-04-25T08:18:54.977Z</time></trkpt><trkpt lat="39.8549277" lon="16.1512697"><ele>581.0</ele><time>2026-04-25T08:18:55.972Z</time></trkpt><trkpt lat="39.8546709" lon="16.1511273"><ele>578.0</ele><time>2026-04-25T08:18:56.964Z</time></trkpt><trkpt lat="39.8544148" lon="16.1509855"><ele>575.5</ele><time>2026-04-25T08:18:57.966Z</time></trkpt><trkpt lat="39.8541591" lon="16.1508463"><ele>573.0</ele><time>2026-04-25T08:18:58.978Z</time></trkpt><trkpt lat="39.8539039" lon="16.1507087"><ele>573.0</ele><time>2026-04-25T08:18:59.971Z</time></trkpt><trkpt lat="39.8536524" lon="16.1505724"><ele>573.0</ele><time>2026-04-25T08:19:00.968Z</time></trkpt><trkpt lat="39.8534071" lon="16.1504391"><ele>571.5</ele><time>2026-04-25T08:19:01.971Z</time></trkpt><trkpt lat="39.8531727" lon="16.1503098"><ele>570.0</ele><time>2026-04-25T08:19:02.974Z</time></trkpt><trkpt lat="39.8529483" lon="16.1501865"><ele>570.0</ele><time>2026-04-25T08:19:03.968Z</time></trkpt><trkpt lat="39.8527401" lon="16.1500754"><ele>570.0</ele><time>2026-04-25T08:19:04.972Z</time></trkpt><trkpt lat="39.8525502" lon="16.1499719"><ele>570.0</ele><time>2026-04-25T08:19:05.974Z</time></trkpt><trkpt lat="39.8523714" lon="16.1498712"><ele>568.6666666666666</ele><time>2026-04-25T08:19:06.973Z</time></trkpt><trkpt lat="39.852196" lon="16.1497709"><ele>567.3333333333333</ele><time>2026-04-25T08:19:07.971Z</time></trkpt><trkpt lat="39.85202" lon="16.1496698"><ele>566.0</ele><time>2026-04-25T08:19:08.975Z</time></trkpt><trkpt lat="39.8518443" lon="16.1495716"><ele>564.3333333333333</ele><time>2026-04-25T08:19:09.982Z</time></trkpt><trkpt lat="39.8516704" lon="16.1494761"><ele>562.6666666666666</ele><time>2026-04-25T08:19:10.975Z</time></trkpt><trkpt lat="39.8515004" lon="16.1493815"><ele>561.0</ele><time>2026-04-25T08:19:11.965Z</time></trkpt><trkpt lat="39.851334" lon="16.1492884"><ele>561.0</ele><time>2026-04-25T08:19:12.971Z</time></trkpt><trkpt lat="39.8511717" lon="16.149201"><ele>561.0</ele><time>2026-04-25T08:19:13.97Z</time></trkpt><trkpt lat="39.8510174" lon="16.1491196"><ele>561.0</ele><time>2026-04-25T08:19:14.975Z</time></trkpt><trkpt lat="39.8508742" lon="16.1490442"><ele>560.0</ele><time>2026-04-25T08:19:15.98Z</time></trkpt><trkpt lat="39.8507435" lon="16.1489756"><ele>559.0</ele><time>2026-04-25T08:19:16.97Z</time></trkpt><trkpt lat="39.8506253" lon="16.1489147"><ele>558.0</ele><time>2026-04-25T08:19:17.973Z</time></trkpt><trkpt lat="39.85051" lon="16.1488579"><ele>557.0</ele><time>2026-04-25T08:19:18.972Z</time></trkpt><trkpt lat="39.8503823" lon="16.1487969"><ele>557.0</ele><time>2026-04-25T08:19:19.971Z</time></trkpt><trkpt lat="39.8502399" lon="16.1487213"><ele>557.0</ele><time>2026-04-25T08:19:20.975Z</time></trkpt><trkpt lat="39.850082" lon="16.1486385"><ele>557.0</ele><time>2026-04-25T08:19:21.972Z</time></trkpt><trkpt lat="39.8499077" lon="16.1485653"><ele>555.6666666666666</ele><time>2026-04-25T08:19:22.975Z</time></trkpt><trkpt lat="39.8497179" lon="16.1485056"><ele>554.3333333333334</ele><time>2026-04-25T08:19:23.967Z</time></trkpt><trkpt lat="39.849517" lon="16.1484579"><ele>553.0</ele><time>2026-04-25T08:19:24.989Z</time></trkpt><trkpt lat="39.8493072" lon="16.148421"><ele>552.3333333333334</ele><time>2026-04-25T08:19:25.974Z</time></trkpt><trkpt lat="39.8490891" lon="16.1483942"><ele>551.6666666666666</ele><time>2026-04-25T08:19:26.979Z</time></trkpt><trkpt lat="39.8488618" lon="16.1483793"><ele>551.0</ele><time>2026-04-25T08:19:27.975Z</time></trkpt><trkpt lat="39.8486271" lon="16.1483783"><ele>549.0</ele><time>2026-04-25T08:19:28.976Z</time></trkpt><trkpt lat="39.8483895" lon="16.1483926"><ele>547.0</ele><time>2026-04-25T08:19:29.97Z</time></trkpt><trkpt lat="39.8481461" lon="16.1484246"><ele>547.0</ele><time>2026-04-25T08:19:30.974Z</time></trkpt><trkpt lat="39.8478951" lon="16.1484761"><ele>547.0</ele><time>2026-04-25T08:19:31.97Z</time></trkpt><trkpt lat="39.8476369" lon="16.1485495"><ele>545.0</ele><time>2026-04-25T08:19:32.991Z</time></trkpt><trkpt lat="39.8473834" lon="16.1486425"><ele>543.0</ele><time>2026-04-25T08:19:33.971Z</time></trkpt><trkpt lat="39.8471373" lon="16.1487501"><ele>543.0</ele><time>2026-04-25T08:19:34.969Z</time></trkpt><trkpt lat="39.8468993" lon="16.1488656"><ele>543.0</ele><time>2026-04-25T08:19:35.968Z</time></trkpt><trkpt lat="39.846668" lon="16.1489852"><ele>542.0</ele><time>2026-04-25T08:19:36.982Z</time></trkpt><trkpt lat="39.846442" lon="16.1491048"><ele>541.0</ele><time>2026-04-25T08:19:37.968Z</time></trkpt><trkpt lat="39.8462202" lon="16.1492194"><ele>541.0</ele><time>2026-04-25T08:19:38.976Z</time></trkpt><trkpt lat="39.8460006" lon="16.1493259"><ele>541.0</ele><time>2026-04-25T08:19:39.972Z</time></trkpt><trkpt lat="39.8457796" lon="16.1494199"><ele>540.0</ele><time>2026-04-25T08:19:40.973Z</time></trkpt><trkpt lat="39.8455551" lon="16.1495007"><ele>539.0</ele><time>2026-04-25T08:19:41.975Z</time></trkpt><trkpt lat="39.8453245" lon="16.1495709"><ele>539.0</ele><time>2026-04-25T08:19:42.967Z</time></trkpt><trkpt lat="39.8450855" lon="16.1496269"><ele>539.0</ele><time>2026-04-25T08:19:43.968Z</time></trkpt><trkpt lat="39.8448382" lon="16.1496722"><ele>539.0</ele><time>2026-04-25T08:19:44.981Z</time></trkpt><trkpt lat="39.8445844" lon="16.1497048"><ele>539.0</ele><time>2026-04-25T08:19:45.974Z</time></trkpt><trkpt lat="39.8443283" lon="16.1497217"><ele>538.0</ele><time>2026-04-25T08:19:46.971Z</time></trkpt><trkpt lat="39.8440713" lon="16.1497242"><ele>537.0</ele><time>2026-04-25T08:19:47.975Z</time></trkpt><trkpt lat="39.8438144" lon="16.1497099"><ele>537.0</ele><time>2026-04-25T08:19:48.971Z</time></trkpt><trkpt lat="39.8435602" lon="16.1496768"><ele>537.0</ele><time>2026-04-25T08:19:49.972Z</time></trkpt><trkpt lat="39.8433106" lon="16.1496271"><ele>537.5</ele><time>2026-04-25T08:19:50.974Z</time></trkpt><trkpt lat="39.8430663" lon="16.1495692"><ele>538.0</ele><time>2026-04-25T08:19:51.976Z</time></trkpt><trkpt lat="39.8428261" lon="16.1495102"><ele>539.0</ele><time>2026-04-25T08:19:52.973Z</time></trkpt><trkpt lat="39.8425896" lon="16.1494518"><ele>540.0</ele><time>2026-04-25T08:19:53.974Z</time></trkpt><trkpt lat="39.8423576" lon="16.149394"><ele>540.0</ele><time>2026-04-25T08:19:54.977Z</time></trkpt><trkpt lat="39.8421298" lon="16.1493394"><ele>540.0</ele><time>2026-04-25T08:19:55.976Z</time></trkpt><trkpt lat="39.8419048" lon="16.1492856"><ele>539.5</ele><time>2026-04-25T08:19:56.971Z</time></trkpt><trkpt lat="39.841682" lon="16.1492311"><ele>539.0</ele><time>2026-04-25T08:19:57.969Z</time></trkpt><trkpt lat="39.8414601" lon="16.1491773"><ele>539.0</ele><time>2026-04-25T08:19:58.983Z</time></trkpt><trkpt lat="39.8412418" lon="16.1491266"><ele>539.0</ele><time>2026-04-25T08:19:59.974Z</time></trkpt><trkpt lat="39.8410446" lon="16.1490897"><ele>539.0</ele><time>2026-04-25T08:20:00.971Z</time></trkpt><trkpt lat="39.8408642" lon="16.1490834"><ele>536.6666666666666</ele><time>2026-04-25T08:20:01.977Z</time></trkpt><trkpt lat="39.8406965" lon="16.1491236"><ele>534.3333333333334</ele><time>2026-04-25T08:20:02.976Z</time></trkpt><trkpt lat="39.8405468" lon="16.1492131"><ele>532.0</ele><time>2026-04-25T08:20:03.974Z</time></trkpt><trkpt lat="39.8404226" lon="16.1493459"><ele>532.0</ele><time>2026-04-25T08:20:05Z</time></trkpt><trkpt lat="39.8403237" lon="16.1495203"><ele>532.0</ele><time>2026-04-25T08:20:05.98Z</time></trkpt><trkpt lat="39.8402445" lon="16.1497277"><ele>532.0</ele><time>2026-04-25T08:20:06.969Z</time></trkpt><trkpt lat="39.8401754" lon="16.1499529"><ele>528.0</ele><time>2026-04-25T08:20:07.972Z</time></trkpt><trkpt lat="39.8401073" lon="16.1501812"><ele>524.0</ele><time>2026-04-25T08:20:08.979Z</time></trkpt><trkpt lat="39.8400337" lon="16.1504004"><ele>520.0</ele><time>2026-04-25T08:20:09.975Z</time></trkpt><trkpt lat="39.8399502" lon="16.1506053"><ele>522.0</ele><time>2026-04-25T08:20:10.972Z</time></trkpt><trkpt lat="39.8398479" lon="16.1507888"><ele>524.0</ele><time>2026-04-25T08:20:11.972Z</time></trkpt><trkpt lat="39.8397239" lon="16.1509495"><ele>526.0</ele><time>2026-04-25T08:20:12.972Z</time></trkpt><trkpt lat="39.8395783" lon="16.1510785"><ele>526.0</ele><time>2026-04-25T08:20:13.981Z</time></trkpt><trkpt lat="39.8394151" lon="16.151166"><ele>526.0</ele><time>2026-04-25T08:20:14.972Z</time></trkpt><trkpt lat="39.8392418" lon="16.1512075"><ele>526.0</ele><time>2026-04-25T08:20:15.972Z</time></trkpt><trkpt lat="39.8390679" lon="16.1512028"><ele>522.0</ele><time>2026-04-25T08:20:16.968Z</time></trkpt><trkpt lat="39.838906" lon="16.1511565"><ele>518.0</ele><time>2026-04-25T08:20:17.977Z</time></trkpt><trkpt lat="39.8387614" lon="16.151086"><ele>514.0</ele><time>2026-04-25T08:20:18.973Z</time></trkpt><trkpt lat="39.8386321" lon="16.1510081"><ele>514.0</ele><time>2026-04-25T08:20:19.988Z</time></trkpt><trkpt lat="39.8385216" lon="16.150925"><ele>514.0</ele><time>2026-04-25T08:20:21.003Z</time></trkpt><trkpt lat="39.8384389" lon="16.1508297"><ele>514.0</ele><time>2026-04-25T08:20:21.997Z</time></trkpt><trkpt lat="39.8383857" lon="16.1507238"><ele>514.0</ele><time>2026-04-25T08:20:22.985Z</time></trkpt><trkpt lat="39.838357" lon="16.1506185"><ele>514.0</ele><time>2026-04-25T08:20:23.981Z</time></trkpt><trkpt lat="39.8383436" lon="16.1505192"><ele>514.0</ele><time>2026-04-25T08:20:24.975Z</time></trkpt><trkpt lat="39.8383399" lon="16.1504205"><ele>514.0</ele><time>2026-04-25T08:20:25.972Z</time></trkpt><trkpt lat="39.8383503" lon="16.1503188"><ele>514.0</ele><time>2026-04-25T08:20:26.946Z</time></trkpt><trkpt lat="39.8383782" lon="16.1502152"><ele>514.0</ele><time>2026-04-25T08:20:27.977Z</time></trkpt><trkpt lat="39.8384142" lon="16.150102"><ele>514.0</ele><time>2026-04-25T08:20:28.972Z</time></trkpt><trkpt lat="39.8384564" lon="16.1499739"><ele>514.0</ele><time>2026-04-25T08:20:29.983Z</time></trkpt><trkpt lat="39.8385049" lon="16.149828"><ele>514.0</ele><time>2026-04-25T08:20:30.985Z</time></trkpt><trkpt lat="39.8385594" lon="16.1496647"><ele>514.0</ele><time>2026-04-25T08:20:31.995Z</time></trkpt><trkpt lat="39.838618" lon="16.1494891"><ele>514.0</ele><time>2026-04-25T08:20:32.988Z</time></trkpt><trkpt lat="39.8386804" lon="16.1492992"><ele>514.0</ele><time>2026-04-25T08:20:33.977Z</time></trkpt><trkpt lat="39.8387476" lon="16.1490954"><ele>516.0</ele><time>2026-04-25T08:20:34.969Z</time></trkpt><trkpt lat="39.8388194" lon="16.1488833"><ele>518.0</ele><time>2026-04-25T08:20:35.978Z</time></trkpt><trkpt lat="39.8388921" lon="16.1486707"><ele>520.0</ele><time>2026-04-25T08:20:36.978Z</time></trkpt><trkpt lat="39.8389609" lon="16.1484588"><ele>520.0</ele><time>2026-04-25T08:20:37.968Z</time></trkpt><trkpt lat="39.8390218" lon="16.1482478"><ele>520.0</ele><time>2026-04-25T08:20:38.975Z</time></trkpt><trkpt lat="39.8390726" lon="16.1480377"><ele>520.0</ele><time>2026-04-25T08:20:39.978Z</time></trkpt><trkpt lat="39.8391156" lon="16.1478286"><ele>519.6666666666667</ele><time>2026-04-25T08:20:40.972Z</time></trkpt><trkpt lat="39.8391555" lon="16.1476186"><ele>519.3333333333334</ele><time>2026-04-25T08:20:41.973Z</time></trkpt><trkpt lat="39.8391954" lon="16.1474087"><ele>519.0</ele><time>2026-04-25T08:20:42.976Z</time></trkpt><trkpt lat="39.8392374" lon="16.1472007"><ele>518.6666666666666</ele><time>2026-04-25T08:20:43.969Z</time></trkpt><trkpt lat="39.8392839" lon="16.1469988"><ele>518.3333333333333</ele><time>2026-04-25T08:20:44.969Z</time></trkpt><trkpt lat="39.8393434" lon="16.1468076"><ele>518.0</ele><time>2026-04-25T08:20:45.978Z</time></trkpt><trkpt lat="39.8394199" lon="16.1466292"><ele>518.3333333333333</ele><time>2026-04-25T08:20:46.973Z</time></trkpt><trkpt lat="39.8395055" lon="16.146461"><ele>518.6666666666666</ele><time>2026-04-25T08:20:47.975Z</time></trkpt><trkpt lat="39.839593" lon="16.1463009"><ele>519.0</ele><time>2026-04-25T08:20:48.972Z</time></trkpt><trkpt lat="39.8396765" lon="16.1461448"><ele>519.0</ele><time>2026-04-25T08:20:49.991Z</time></trkpt><trkpt lat="39.8397548" lon="16.1459907"><ele>519.0</ele><time>2026-04-25T08:20:50.982Z</time></trkpt><trkpt lat="39.8398281" lon="16.1458358"><ele>519.0</ele><time>2026-04-25T08:20:51.983Z</time></trkpt><trkpt lat="39.8398972" lon="16.1456731"><ele>519.0</ele><time>2026-04-25T08:20:52.979Z</time></trkpt><trkpt lat="39.8399632" lon="16.1455004"><ele>518.6666666666666</ele><time>2026-04-25T08:20:53.978Z</time></trkpt><trkpt lat="39.8400265" lon="16.1453204"><ele>518.3333333333333</ele><time>2026-04-25T08:20:54.979Z</time></trkpt><trkpt lat="39.8400869" lon="16.1451372"><ele>518.0</ele><time>2026-04-25T08:20:55.974Z</time></trkpt><trkpt lat="39.840147" lon="16.1449531"><ele>519.3333333333333</ele><time>2026-04-25T08:20:56.972Z</time></trkpt><trkpt lat="39.8402089" lon="16.1447713"><ele>520.6666666666666</ele><time>2026-04-25T08:20:57.979Z</time></trkpt><trkpt lat="39.8402725" lon="16.1445921"><ele>522.0</ele><time>2026-04-25T08:20:58.973Z</time></trkpt><trkpt lat="39.8403334" lon="16.1444128"><ele>522.0</ele><time>2026-04-25T08:20:59.983Z</time></trkpt><trkpt lat="39.84039" lon="16.1442331"><ele>522.0</ele><time>2026-04-25T08:21:00.968Z</time></trkpt><trkpt lat="39.8404464" lon="16.1440552"><ele>522.0</ele><time>2026-04-25T08:21:01.974Z</time></trkpt><trkpt lat="39.8405087" lon="16.1438831"><ele>522.0</ele><time>2026-04-25T08:21:02.975Z</time></trkpt><trkpt lat="39.8405793" lon="16.1437195"><ele>525.0</ele><time>2026-04-25T08:21:03.977Z</time></trkpt><trkpt lat="39.8406533" lon="16.1435632"><ele>528.0</ele><time>2026-04-25T08:21:04.98Z</time></trkpt><trkpt lat="39.8407237" lon="16.1434085"><ele>531.0</ele><time>2026-04-25T08:21:05.982Z</time></trkpt><trkpt lat="39.8407843" lon="16.1432495"><ele>534.0</ele><time>2026-04-25T08:21:06.97Z</time></trkpt><trkpt lat="39.8408336" lon="16.1430817"><ele>537.0</ele><time>2026-04-25T08:21:07.99Z</time></trkpt><trkpt lat="39.8408763" lon="16.1429029"><ele>540.0</ele><time>2026-04-25T08:21:08.975Z</time></trkpt><trkpt lat="39.8409176" lon="16.1427101"><ele>543.0</ele><time>2026-04-25T08:21:09.973Z</time></trkpt><trkpt lat="39.8409599" lon="16.1425109"><ele>542.3333333333334</ele><time>2026-04-25T08:21:10.971Z</time></trkpt><trkpt lat="39.841002" lon="16.1423094"><ele>541.6666666666667</ele><time>2026-04-25T08:21:11.971Z</time></trkpt><trkpt lat="39.8410448" lon="16.1421074"><ele>541.0</ele><time>2026-04-25T08:21:12.981Z</time></trkpt><trkpt lat="39.8410879" lon="16.1419052"><ele>541.0</ele><time>2026-04-25T08:21:13.971Z</time></trkpt><trkpt lat="39.841129" lon="16.1417026"><ele>541.0</ele><time>2026-04-25T08:21:14.975Z</time></trkpt><trkpt lat="39.8411693" lon="16.1415037"><ele>541.0</ele><time>2026-04-25T08:21:15.972Z</time></trkpt><trkpt lat="39.8412096" lon="16.1413116"><ele>542.5</ele><time>2026-04-25T08:21:16.967Z</time></trkpt><trkpt lat="39.8412497" lon="16.1411282"><ele>544.0</ele><time>2026-04-25T08:21:17.97Z</time></trkpt><trkpt lat="39.8412879" lon="16.1409555"><ele>545.5</ele><time>2026-04-25T08:21:18.979Z</time></trkpt><trkpt lat="39.8413237" lon="16.1407959"><ele>547.0</ele><time>2026-04-25T08:21:19.971Z</time></trkpt><trkpt lat="39.8413595" lon="16.1406491"><ele>548.4</ele><time>2026-04-25T08:21:20.966Z</time></trkpt><trkpt lat="39.8413991" lon="16.1405138"><ele>549.8000000000001</ele><time>2026-04-25T08:21:21.972Z</time></trkpt><trkpt lat="39.8414448" lon="16.1403929"><ele>551.2</ele><time>2026-04-25T08:21:22.967Z</time></trkpt><trkpt lat="39.841495" lon="16.1402945"><ele>552.6</ele><time>2026-04-25T08:21:23.969Z</time></trkpt><trkpt lat="39.8415469" lon="16.1402159"><ele>554.0</ele><time>2026-04-25T08:21:24.975Z</time></trkpt><trkpt lat="39.8415959" lon="16.1401533"><ele>554.0</ele><time>2026-04-25T08:21:25.972Z</time></trkpt><trkpt lat="39.8416761" lon="16.1400623"><ele>554.0</ele><time>2026-04-25T08:21:27.979Z</time></trkpt><trkpt lat="39.8417418" lon="16.1399908"><ele>554.0</ele><time>2026-04-25T08:21:29.975Z</time></trkpt><trkpt lat="39.8418077" lon="16.1399191"><ele>554.0</ele><time>2026-04-25T08:21:31.991Z</time></trkpt><trkpt lat="39.8418859" lon="16.1398413"><ele>554.0</ele><time>2026-04-25T08:21:33.975Z</time></trkpt><trkpt lat="39.8419733" lon="16.1397566"><ele>554.4</ele><time>2026-04-25T08:21:35.972Z</time></trkpt><trkpt lat="39.8420511" lon="16.1396825"><ele>554.8</ele><time>2026-04-25T08:21:37.971Z</time></trkpt><trkpt lat="39.842112" lon="16.1396161"><ele>555.2</ele><time>2026-04-25T08:21:39.986Z</time></trkpt><trkpt lat="39.8421895" lon="16.139547"><ele>555.6</ele><time>2026-04-25T08:21:42.977Z</time></trkpt><trkpt lat="39.8422525" lon="16.1394825"><ele>556.0</ele><time>2026-04-25T08:21:44.97Z</time></trkpt><trkpt lat="39.8423423" lon="16.1393983"><ele>556.0</ele><time>2026-04-25T08:21:46.978Z</time></trkpt><trkpt lat="39.8424418" lon="16.1393007"><ele>556.0</ele><time>2026-04-25T08:21:48.968Z</time></trkpt><trkpt lat="39.8424943" lon="16.1392421"><ele>556.0</ele><time>2026-04-25T08:21:49.98Z</time></trkpt><trkpt lat="39.8425489" lon="16.1391858"><ele>556.0</ele><time>2026-04-25T08:21:50.978Z</time></trkpt><trkpt lat="39.8426064" lon="16.1391275"><ele>556.0</ele><time>2026-04-25T08:21:51.971Z</time></trkpt><trkpt lat="39.8426663" lon="16.1390668"><ele>556.0</ele><time>2026-04-25T08:21:52.989Z</time></trkpt><trkpt lat="39.8427278" lon="16.1390001"><ele>556.8333333333334</ele><time>2026-04-25T08:21:53.972Z</time></trkpt><trkpt lat="39.8427938" lon="16.1389336"><ele>557.6666666666667</ele><time>2026-04-25T08:21:54.972Z</time></trkpt><trkpt lat="39.8428592" lon="16.138865"><ele>558.5</ele><time>2026-04-25T08:21:55.974Z</time></trkpt><trkpt lat="39.8429233" lon="16.1388006"><ele>559.3333333333334</ele><time>2026-04-25T08:21:56.997Z</time></trkpt><trkpt lat="39.8429916" lon="16.1387387"><ele>560.1666666666666</ele><time>2026-04-25T08:21:58.019Z</time></trkpt><trkpt lat="39.8430601" lon="16.1386788"><ele>561.0</ele><time>2026-04-25T08:21:58.971Z</time></trkpt><trkpt lat="39.8431257" lon="16.1386204"><ele>561.0</ele><time>2026-04-25T08:21:59.979Z</time></trkpt><trkpt lat="39.8431888" lon="16.1385628"><ele>561.0</ele><time>2026-04-25T08:22:00.976Z</time></trkpt><trkpt lat="39.8432453" lon="16.138507"><ele>561.0</ele><time>2026-04-25T08:22:02.022Z</time></trkpt><trkpt lat="39.8433295" lon="16.1384163"><ele>561.0</ele><time>2026-04-25T08:22:03.98Z</time></trkpt><trkpt lat="39.8433857" lon="16.1383342"><ele>561.0</ele><time>2026-04-25T08:22:07.009Z</time></trkpt><trkpt lat="39.8433647" lon="16.1382301"><ele>561.0</ele><time>2026-04-25T08:22:09.993Z</time></trkpt><trkpt lat="39.8432749" lon="16.1381644"><ele>564.8</ele><time>2026-04-25T08:22:11.988Z</time></trkpt><trkpt lat="39.8431881" lon="16.1380505"><ele>568.6</ele><time>2026-04-25T08:22:13.982Z</time></trkpt><trkpt lat="39.8431379" lon="16.1379076"><ele>572.4</ele><time>2026-04-25T08:22:15.984Z</time></trkpt><trkpt lat="39.8430991" lon="16.137765"><ele>576.2</ele><time>2026-04-25T08:22:17.98Z</time></trkpt><trkpt lat="39.8430607" lon="16.1376914"><ele>580.0</ele><time>2026-04-25T08:22:18.985Z</time></trkpt><trkpt lat="39.843009" lon="16.1376144"><ele>580.0</ele><time>2026-04-25T08:22:19.986Z</time></trkpt><trkpt lat="39.8429535" lon="16.1375446"><ele>580.0</ele><time>2026-04-25T08:22:20.974Z</time></trkpt><trkpt lat="39.842893" lon="16.1374935"><ele>580.0</ele><time>2026-04-25T08:22:21.979Z</time></trkpt><trkpt lat="39.842823" lon="16.1374629"><ele>580.0</ele><time>2026-04-25T08:22:22.978Z</time></trkpt><trkpt lat="39.8427444" lon="16.1374587"><ele>580.0</ele><time>2026-04-25T08:22:23.977Z</time></trkpt><trkpt lat="39.8426731" lon="16.1374595"><ele>580.0</ele><time>2026-04-25T08:22:24.984Z</time></trkpt><trkpt lat="39.8425946" lon="16.1374746"><ele>579.1666666666667</ele><time>2026-04-25T08:22:25.974Z</time></trkpt><trkpt lat="39.8425154" lon="16.1375002"><ele>578.3333333333334</ele><time>2026-04-25T08:22:26.967Z</time></trkpt><trkpt lat="39.8424428" lon="16.1375286"><ele>577.5</ele><time>2026-04-25T08:22:27.971Z</time></trkpt><trkpt lat="39.8423624" lon="16.1375654"><ele>576.6666666666666</ele><time>2026-04-25T08:22:28.976Z</time></trkpt><trkpt lat="39.8422778" lon="16.1375999"><ele>575.8333333333333</ele><time>2026-04-25T08:22:29.972Z</time></trkpt><trkpt lat="39.842203" lon="16.1376354"><ele>575.0</ele><time>2026-04-25T08:22:30.974Z</time></trkpt><trkpt lat="39.8421025" lon="16.1376776"><ele>575.0</ele><time>2026-04-25T08:22:31.976Z</time></trkpt><trkpt lat="39.8420087" lon="16.1377232"><ele>575.0</ele><time>2026-04-25T08:22:32.975Z</time></trkpt><trkpt lat="39.8419283" lon="16.1377592"><ele>575.0</ele><time>2026-04-25T08:22:33.975Z</time></trkpt><trkpt lat="39.841865" lon="16.1377864"><ele>575.0</ele><time>2026-04-25T08:22:34.97Z</time></trkpt><trkpt lat="39.8417951" lon="16.1378106"><ele>575.0</ele><time>2026-04-25T08:22:35.979Z</time></trkpt><trkpt lat="39.8417256" lon="16.1378229"><ele>575.0</ele><time>2026-04-25T08:22:36.972Z</time></trkpt><trkpt lat="39.8416622" lon="16.1377994"><ele>575.4</ele><time>2026-04-25T08:22:37.97Z</time></trkpt><trkpt lat="39.8416063" lon="16.1377375"><ele>575.8</ele><time>2026-04-25T08:22:38.97Z</time></trkpt><trkpt lat="39.841571" lon="16.1376685"><ele>576.2</ele><time>2026-04-25T08:22:39.972Z</time></trkpt><trkpt lat="39.8415379" lon="16.1375111"><ele>576.6</ele><time>2026-04-25T08:22:41.98Z</time></trkpt><trkpt lat="39.8416002" lon="16.1373686"><ele>577.0</ele><time>2026-04-25T08:22:43.975Z</time></trkpt><trkpt lat="39.8416776" lon="16.1373138"><ele>578.5</ele><time>2026-04-25T08:22:45.974Z</time></trkpt><trkpt lat="39.8417645" lon="16.137247"><ele>580.0</ele><time>2026-04-25T08:23:09.979Z</time></trkpt><trkpt lat="39.8418236" lon="16.1372094"><ele>581.5</ele><time>2026-04-25T08:23:10.979Z</time></trkpt><trkpt lat="39.8418822" lon="16.1371652"><ele>583.0</ele><time>2026-04-25T08:23:11.974Z</time></trkpt><trkpt lat="39.8419431" lon="16.1371141"><ele>584.5</ele><time>2026-04-25T08:23:12.969Z</time></trkpt><trkpt lat="39.8420094" lon="16.1370616"><ele>586.0</ele><time>2026-04-25T08:23:13.98Z</time></trkpt><trkpt lat="39.8420798" lon="16.1370129"><ele>586.0</ele><time>2026-04-25T08:23:14.967Z</time></trkpt><trkpt lat="39.8421551" lon="16.1369745"><ele>586.0</ele><time>2026-04-25T08:23:15.975Z</time></trkpt><trkpt lat="39.8422287" lon="16.1369422"><ele>586.0</ele><time>2026-04-25T08:23:16.972Z</time></trkpt><trkpt lat="39.8422981" lon="16.1369141"><ele>586.0</ele><time>2026-04-25T08:23:17.972Z</time></trkpt><trkpt lat="39.8423631" lon="16.1368922"><ele>586.0</ele><time>2026-04-25T08:23:18.978Z</time></trkpt><trkpt lat="39.8424693" lon="16.136838"><ele>586.0</ele><time>2026-04-25T08:23:20.975Z</time></trkpt><trkpt lat="39.8425327" lon="16.1367477"><ele>586.0</ele><time>2026-04-25T08:23:22.981Z</time></trkpt><trkpt lat="39.8425257" lon="16.1366357"><ele>586.0</ele><time>2026-04-25T08:23:24.986Z</time></trkpt><trkpt lat="39.8424629" lon="16.1365798"><ele>586.0</ele><time>2026-04-25T08:23:26.977Z</time></trkpt><trkpt lat="39.8423656" lon="16.136609"><ele>586.0</ele><time>2026-04-25T08:23:28.977Z</time></trkpt><trkpt lat="39.8422599" lon="16.1366775"><ele>586.0</ele><time>2026-04-25T08:23:30.973Z</time></trkpt><trkpt lat="39.8421984" lon="16.1367137"><ele>586.0</ele><time>2026-04-25T08:23:31.982Z</time></trkpt><trkpt lat="39.8421346" lon="16.1367527"><ele>586.0</ele><time>2026-04-25T08:23:32.986Z</time></trkpt><trkpt lat="39.8420761" lon="16.136788"><ele>586.0</ele><time>2026-04-25T08:23:33.982Z</time></trkpt><trkpt lat="39.8420153" lon="16.1368235"><ele>586.0</ele><time>2026-04-25T08:23:34.978Z</time></trkpt><trkpt lat="39.841948" lon="16.1368589"><ele>586.0</ele><time>2026-04-25T08:23:35.972Z</time></trkpt><trkpt lat="39.8418829" lon="16.1368909"><ele>586.0</ele><time>2026-04-25T08:23:36.972Z</time></trkpt><trkpt lat="39.8417905" lon="16.1368389"><ele>586.0</ele><time>2026-04-25T08:23:40.003Z</time></trkpt><trkpt lat="39.8418152" lon="16.1367348"><ele>586.0</ele><time>2026-04-25T08:23:42.99Z</time></trkpt><trkpt lat="39.8418754" lon="16.1366803"><ele>586.0</ele><time>2026-04-25T08:23:44.981Z</time></trkpt><trkpt lat="39.8419415" lon="16.1366234"><ele>586.0</ele><time>2026-04-25T08:23:47.991Z</time></trkpt><trkpt lat="39.8420268" lon="16.1365615"><ele>586.0</ele><time>2026-04-25T08:23:50.997Z</time></trkpt><trkpt lat="39.8420892" lon="16.1365109"><ele>586.0</ele><time>2026-04-25T08:23:53.028Z</time></trkpt><trkpt lat="39.8421631" lon="16.1364657"><ele>586.0</ele><time>2026-04-25T08:23:55.999Z</time></trkpt><trkpt lat="39.8422403" lon="16.1364112"><ele>588.8333333333334</ele><time>2026-04-25T08:23:59.063Z</time></trkpt><trkpt lat="39.8423035" lon="16.1363646"><ele>591.6666666666667</ele><time>2026-04-25T08:24:00.97Z</time></trkpt><trkpt lat="39.8423829" lon="16.1363162"><ele>594.5</ele><time>2026-04-25T08:24:02.988Z</time></trkpt><trkpt lat="39.8424626" lon="16.1362592"><ele>597.3333333333334</ele><time>2026-04-25T08:24:04.986Z</time></trkpt><trkpt lat="39.8425228" lon="16.1361724"><ele>600.1666666666666</ele><time>2026-04-25T08:24:06.97Z</time></trkpt><trkpt lat="39.8425699" lon="16.1360634"><ele>603.0</ele><time>2026-04-25T08:24:08.978Z</time></trkpt><trkpt lat="39.8426036" lon="16.1359401"><ele>606.1666666666666</ele><time>2026-04-25T08:24:10.983Z</time></trkpt><trkpt lat="39.8426342" lon="16.1358168"><ele>609.3333333333334</ele><time>2026-04-25T08:24:12.98Z</time></trkpt><trkpt lat="39.8426715" lon="16.1357043"><ele>612.5</ele><time>2026-04-25T08:24:14.986Z</time></trkpt><trkpt lat="39.8427123" lon="16.1356328"><ele>615.6666666666667</ele><time>2026-04-25T08:24:16.983Z</time></trkpt><trkpt lat="39.842757" lon="16.135569"><ele>618.8333333333334</ele><time>2026-04-25T08:24:19.987Z</time></trkpt><trkpt lat="39.8427702" lon="16.1354762"><ele>622.0</ele><time>2026-04-25T08:24:22.985Z</time></trkpt><trkpt lat="39.8427865" lon="16.1353576"><ele>623.1666666666667</ele><time>2026-04-25T08:24:24.97Z</time></trkpt><trkpt lat="39.8427782" lon="16.1352748"><ele>624.3333333333334</ele><time>2026-04-25T08:24:26.976Z</time></trkpt><trkpt lat="39.8427308" lon="16.1352053"><ele>625.5</ele><time>2026-04-25T08:24:28.978Z</time></trkpt><trkpt lat="39.8426582" lon="16.1351508"><ele>626.6666666666666</ele><time>2026-04-25T08:24:30.983Z</time></trkpt><trkpt lat="39.8425786" lon="16.1351279"><ele>627.8333333333333</ele><time>2026-04-25T08:24:32.981Z</time></trkpt><trkpt lat="39.8424923" lon="16.1351475"><ele>629.0</ele><time>2026-04-25T08:24:35.08Z</time></trkpt><trkpt lat="39.8424076" lon="16.1351611"><ele>626.3333333333333</ele><time>2026-04-25T08:24:37.011Z</time></trkpt><trkpt lat="39.8423253" lon="16.1351735"><ele>623.6666666666666</ele><time>2026-04-25T08:24:39.004Z</time></trkpt><trkpt lat="39.8422337" lon="16.1351754"><ele>621.0</ele><time>2026-04-25T08:24:40.999Z</time></trkpt><trkpt lat="39.8421494" lon="16.1351738"><ele>618.3333333333334</ele><time>2026-04-25T08:24:42.978Z</time></trkpt><trkpt lat="39.8420703" lon="16.1351851"><ele>615.6666666666667</ele><time>2026-04-25T08:24:44.979Z</time></trkpt><trkpt lat="39.8419924" lon="16.1352241"><ele>613.0</ele><time>2026-04-25T08:24:46.984Z</time></trkpt><trkpt lat="39.8419348" lon="16.1352709"><ele>613.0</ele><time>2026-04-25T08:24:48.972Z</time></trkpt><trkpt lat="39.8418795" lon="16.1353223"><ele>613.0</ele><time>2026-04-25T08:25:38.983Z</time></trkpt><trkpt lat="39.8417802" lon="16.1353813"><ele>613.0</ele><time>2026-04-25T08:25:40.973Z</time></trkpt><trkpt lat="39.8416803" lon="16.1354458"><ele>613.0</ele><time>2026-04-25T08:25:42.979Z</time></trkpt><trkpt lat="39.8416158" lon="16.1354798"><ele>613.0</ele><time>2026-04-25T08:25:44.974Z</time></trkpt><trkpt lat="39.8415294" lon="16.1355229"><ele>613.1999999999999</ele><time>2026-04-25T08:26:46.987Z</time></trkpt><trkpt lat="39.8414105" lon="16.1355846"><ele>613.4</ele><time>2026-04-25T08:26:48.97Z</time></trkpt><trkpt lat="39.8413346" lon="16.1356288"><ele>613.5999999999999</ele><time>2026-04-25T08:26:49.974Z</time></trkpt><trkpt lat="39.8412509" lon="16.1356779"><ele>613.8</ele><time>2026-04-25T08:26:50.982Z</time></trkpt><trkpt lat="39.8411632" lon="16.1357303"><ele>614.0</ele><time>2026-04-25T08:26:51.969Z</time></trkpt><trkpt lat="39.8410706" lon="16.1357825"><ele>612.4</ele><time>2026-04-25T08:26:52.974Z</time></trkpt><trkpt lat="39.8409757" lon="16.1358322"><ele>610.8</ele><time>2026-04-25T08:26:53.975Z</time></trkpt><trkpt lat="39.84088" lon="16.1358777"><ele>609.2</ele><time>2026-04-25T08:26:54.974Z</time></trkpt><trkpt lat="39.8407842" lon="16.1359206"><ele>607.6</ele><time>2026-04-25T08:26:55.979Z</time></trkpt><trkpt lat="39.8406901" lon="16.1359644"><ele>606.0</ele><time>2026-04-25T08:26:56.973Z</time></trkpt><trkpt lat="39.8406017" lon="16.1360121"><ele>606.0</ele><time>2026-04-25T08:26:57.972Z</time></trkpt><trkpt lat="39.8405233" lon="16.1360717"><ele>606.0</ele><time>2026-04-25T08:26:58.979Z</time></trkpt><trkpt lat="39.8404563" lon="16.1361434"><ele>606.0</ele><time>2026-04-25T08:26:59.972Z</time></trkpt><trkpt lat="39.8404015" lon="16.1362251"><ele>606.0</ele><time>2026-04-25T08:27:00.973Z</time></trkpt><trkpt lat="39.8403569" lon="16.1363036"><ele>606.0</ele><time>2026-04-25T08:27:01.975Z</time></trkpt><trkpt lat="39.8403158" lon="16.1363763"><ele>606.0</ele><time>2026-04-25T08:27:02.972Z</time></trkpt><trkpt lat="39.8403119" lon="16.136492"><ele>606.0</ele><time>2026-04-25T08:27:04.982Z</time></trkpt><trkpt lat="39.8403706" lon="16.1365322"><ele>606.0</ele><time>2026-04-25T08:27:07.991Z</time></trkpt><trkpt lat="39.8404415" lon="16.1364413"><ele>606.0</ele><time>2026-04-25T08:27:10.987Z</time></trkpt><trkpt lat="39.8405242" lon="16.1363332"><ele>606.0</ele><time>2026-04-25T08:27:12.979Z</time></trkpt><trkpt lat="39.8406391" lon="16.1363685"><ele>606.0</ele><time>2026-04-25T08:27:14.986Z</time></trkpt><trkpt lat="39.8406987" lon="16.1364267"><ele>606.0</ele><time>2026-04-25T08:27:15.984Z</time></trkpt><trkpt lat="39.8407659" lon="16.1364904"><ele>606.0</ele><time>2026-04-25T08:27:16.981Z</time></trkpt><trkpt lat="39.840842" lon="16.1365636"><ele>606.0</ele><time>2026-04-25T08:27:17.986Z</time></trkpt><trkpt lat="39.8409168" lon="16.1366293"><ele>606.0</ele><time>2026-04-25T08:27:18.984Z</time></trkpt><trkpt lat="39.8409917" lon="16.1366882"><ele>606.0</ele><time>2026-04-25T08:27:19.982Z</time></trkpt><trkpt lat="39.8410633" lon="16.136744"><ele>606.0</ele><time>2026-04-25T08:27:20.974Z</time></trkpt><trkpt lat="39.841147" lon="16.1367376"><ele>603.5</ele><time>2026-04-25T08:27:21.978Z</time></trkpt><trkpt lat="39.8412326" lon="16.1367023"><ele>601.0</ele><time>2026-04-25T08:27:22.991Z</time></trkpt><trkpt lat="39.8413185" lon="16.1366595"><ele>598.5</ele><time>2026-04-25T08:27:23.974Z</time></trkpt><trkpt lat="39.8413985" lon="16.1366148"><ele>596.0</ele><time>2026-04-25T08:27:24.982Z</time></trkpt><trkpt lat="39.8414735" lon="16.1365842"><ele>593.5</ele><time>2026-04-25T08:27:25.974Z</time></trkpt><trkpt lat="39.8415348" lon="16.136559"><ele>591.0</ele><time>2026-04-25T08:27:26.968Z</time></trkpt><trkpt lat="39.84162" lon="16.1365931"><ele>591.0</ele><time>2026-04-25T08:27:28.983Z</time></trkpt><trkpt lat="39.8416673" lon="16.1366813"><ele>591.0</ele><time>2026-04-25T08:27:30.98Z</time></trkpt><trkpt lat="39.8417049" lon="16.136752"><ele>591.0</ele><time>2026-04-25T08:27:32.979Z</time></trkpt><trkpt lat="39.8417392" lon="16.1368549"><ele>591.0</ele><time>2026-04-25T08:27:34.978Z</time></trkpt><trkpt lat="39.8418373" lon="16.1369404"><ele>591.0</ele><time>2026-04-25T08:27:36.98Z</time></trkpt><trkpt lat="39.8419088" lon="16.1369054"><ele>591.0</ele><time>2026-04-25T08:27:37.971Z</time></trkpt><trkpt lat="39.8419867" lon="16.1368585"><ele>590.1666666666666</ele><time>2026-04-25T08:27:38.978Z</time></trkpt><trkpt lat="39.8420688" lon="16.1368108"><ele>589.3333333333334</ele><time>2026-04-25T08:27:39.987Z</time></trkpt><trkpt lat="39.8421563" lon="16.1367666"><ele>588.5</ele><time>2026-04-25T08:27:40.979Z</time></trkpt><trkpt lat="39.8422393" lon="16.1367207"><ele>587.6666666666667</ele><time>2026-04-25T08:27:41.972Z</time></trkpt><trkpt lat="39.8423267" lon="16.1366752"><ele>586.8333333333334</ele><time>2026-04-25T08:27:42.986Z</time></trkpt><trkpt lat="39.8423998" lon="16.1366474"><ele>586.0</ele><time>2026-04-25T08:27:43.976Z</time></trkpt><trkpt lat="39.8425004" lon="16.1366824"><ele>586.0</ele><time>2026-04-25T08:27:45.977Z</time></trkpt><trkpt lat="39.8424823" lon="16.1368"><ele>586.0</ele><time>2026-04-25T08:27:47.983Z</time></trkpt><trkpt lat="39.8423737" lon="16.1368581"><ele>586.0</ele><time>2026-04-25T08:27:49.979Z</time></trkpt><trkpt lat="39.8423017" lon="16.1368808"><ele>586.0</ele><time>2026-04-25T08:27:50.979Z</time></trkpt><trkpt lat="39.8422232" lon="16.1369058"><ele>586.0</ele><time>2026-04-25T08:27:51.971Z</time></trkpt><trkpt lat="39.8421306" lon="16.1369537"><ele>586.0</ele><time>2026-04-25T08:27:52.98Z</time></trkpt><trkpt lat="39.8420364" lon="16.1370132"><ele>586.0</ele><time>2026-04-25T08:27:53.97Z</time></trkpt><trkpt lat="39.8419416" lon="16.1370747"><ele>586.0</ele><time>2026-04-25T08:27:54.975Z</time></trkpt><trkpt lat="39.8418394" lon="16.1371473"><ele>586.0</ele><time>2026-04-25T08:27:55.973Z</time></trkpt><trkpt lat="39.8417392" lon="16.1372152"><ele>586.0</ele><time>2026-04-25T08:27:56.976Z</time></trkpt><trkpt lat="39.8416486" lon="16.1372814"><ele>587.25</ele><time>2026-04-25T08:27:57.98Z</time></trkpt><trkpt lat="39.8415739" lon="16.1373529"><ele>588.5</ele><time>2026-04-25T08:27:58.973Z</time></trkpt><trkpt lat="39.8415132" lon="16.137573"><ele>589.75</ele><time>2026-04-25T08:28:00.978Z</time></trkpt><trkpt lat="39.8415056" lon="16.1376878"><ele>591.0</ele><time>2026-04-25T08:28:01.979Z</time></trkpt><trkpt lat="39.8415588" lon="16.1377928"><ele>588.2</ele><time>2026-04-25T08:28:02.972Z</time></trkpt><trkpt lat="39.841649" lon="16.1378623"><ele>585.4000000000001</ele><time>2026-04-25T08:28:03.976Z</time></trkpt><trkpt lat="39.8417541" lon="16.1378799"><ele>582.6</ele><time>2026-04-25T08:28:04.976Z</time></trkpt><trkpt lat="39.8418616" lon="16.1378568"><ele>579.8000000000001</ele><time>2026-04-25T08:28:05.98Z</time></trkpt><trkpt lat="39.8419625" lon="16.1378108"><ele>577.0</ele><time>2026-04-25T08:28:06.981Z</time></trkpt><trkpt lat="39.8420742" lon="16.1377592"><ele>576.3333333333334</ele><time>2026-04-25T08:28:07.991Z</time></trkpt><trkpt lat="39.8421974" lon="16.1377013"><ele>575.6666666666666</ele><time>2026-04-25T08:28:08.969Z</time></trkpt><trkpt lat="39.8423297" lon="16.1376408"><ele>575.0</ele><time>2026-04-25T08:28:09.968Z</time></trkpt><trkpt lat="39.8425774" lon="16.1375288"><ele>576.0</ele><time>2026-04-25T08:28:11.978Z</time></trkpt><trkpt lat="39.8426925" lon="16.1375025"><ele>577.0</ele><time>2026-04-25T08:28:12.968Z</time></trkpt><trkpt lat="39.8427993" lon="16.1375154"><ele>578.0</ele><time>2026-04-25T08:28:13.982Z</time></trkpt><trkpt lat="39.8428861" lon="16.1375669"><ele>579.0</ele><time>2026-04-25T08:28:14.975Z</time></trkpt><trkpt lat="39.8429613" lon="16.1376411"><ele>580.0</ele><time>2026-04-25T08:28:15.982Z</time></trkpt><trkpt lat="39.8430263" lon="16.13773"><ele>580.0</ele><time>2026-04-25T08:28:16.985Z</time></trkpt><trkpt lat="39.8430676" lon="16.1378142"><ele>580.0</ele><time>2026-04-25T08:28:17.983Z</time></trkpt><trkpt lat="39.8431015" lon="16.1379597"><ele>580.0</ele><time>2026-04-25T08:28:19.973Z</time></trkpt><trkpt lat="39.8431872" lon="16.1381657"><ele>580.0</ele><time>2026-04-25T08:28:22.982Z</time></trkpt><trkpt lat="39.8432686" lon="16.1382755"><ele>582.0</ele><time>2026-04-25T08:28:24.98Z</time></trkpt><trkpt lat="39.8433147" lon="16.1383349"><ele>584.0</ele><time>2026-04-25T08:28:26.983Z</time></trkpt><trkpt lat="39.843384" lon="16.1383617"><ele>586.0</ele><time>2026-04-25T08:28:29.987Z</time></trkpt><trkpt lat="39.8434602" lon="16.138342"><ele>588.0</ele><time>2026-04-25T08:28:32.998Z</time></trkpt><trkpt lat="39.8435203" lon="16.1382994"><ele>590.0</ele><time>2026-04-25T08:28:34.978Z</time></trkpt><trkpt lat="39.8436347" lon="16.1382373"><ele>592.0</ele><time>2026-04-25T08:28:36.979Z</time></trkpt><trkpt lat="39.8437082" lon="16.1382087"><ele>592.0</ele><time>2026-04-25T08:28:37.977Z</time></trkpt><trkpt lat="39.8437907" lon="16.1381795"><ele>592.0</ele><time>2026-04-25T08:28:38.974Z</time></trkpt><trkpt lat="39.8438885" lon="16.1381569"><ele>592.0</ele><time>2026-04-25T08:28:39.982Z</time></trkpt><trkpt lat="39.8439996" lon="16.1381484"><ele>592.0</ele><time>2026-04-25T08:28:40.987Z</time></trkpt><trkpt lat="39.8441238" lon="16.1381541"><ele>592.0</ele><time>2026-04-25T08:28:41.974Z</time></trkpt><trkpt lat="39.8442532" lon="16.1381599"><ele>597.6666666666667</ele><time>2026-04-25T08:28:42.974Z</time></trkpt><trkpt lat="39.8443966" lon="16.1381768"><ele>603.3333333333334</ele><time>2026-04-25T08:28:43.985Z</time></trkpt><trkpt lat="39.8445622" lon="16.1382055"><ele>609.0</ele><time>2026-04-25T08:28:44.975Z</time></trkpt><trkpt lat="39.8447637" lon="16.1382544"><ele>591.5</ele><time>2026-04-25T08:28:45.98Z</time></trkpt><trkpt lat="39.8449916" lon="16.1383031"><ele>574.0</ele><time>2026-04-25T08:28:46.981Z</time></trkpt><trkpt lat="39.8452382" lon="16.138335"><ele>574.0</ele><time>2026-04-25T08:28:47.98Z</time></trkpt><trkpt lat="39.845492" lon="16.1383589"><ele>574.0</ele><time>2026-04-25T08:28:48.98Z</time></trkpt><trkpt lat="39.8457299" lon="16.1383811"><ele>574.0</ele><time>2026-04-25T08:28:49.97Z</time></trkpt><trkpt lat="39.8459471" lon="16.1383943"><ele>574.0</ele><time>2026-04-25T08:28:50.975Z</time></trkpt><trkpt lat="39.8461461" lon="16.1383832"><ele>574.0</ele><time>2026-04-25T08:28:51.977Z</time></trkpt><trkpt lat="39.846329" lon="16.1383366"><ele>571.3333333333334</ele><time>2026-04-25T08:28:52.973Z</time></trkpt><trkpt lat="39.8465128" lon="16.1382552"><ele>568.6666666666666</ele><time>2026-04-25T08:28:53.974Z</time></trkpt><trkpt lat="39.8466927" lon="16.1381537"><ele>566.0</ele><time>2026-04-25T08:28:54.979Z</time></trkpt><trkpt lat="39.8470402" lon="16.1379251"><ele>571.3333333333333</ele><time>2026-04-25T08:28:56.983Z</time></trkpt><trkpt lat="39.8471951" lon="16.1378097"><ele>576.6666666666666</ele><time>2026-04-25T08:28:57.977Z</time></trkpt><trkpt lat="39.8473298" lon="16.1376995"><ele>582.0</ele><time>2026-04-25T08:28:58.974Z</time></trkpt><trkpt lat="39.8474449" lon="16.1375955"><ele>582.0</ele><time>2026-04-25T08:28:59.974Z</time></trkpt><trkpt lat="39.8475445" lon="16.1374936"><ele>582.0</ele><time>2026-04-25T08:29:00.978Z</time></trkpt><trkpt lat="39.847635" lon="16.1373907"><ele>582.0</ele><time>2026-04-25T08:29:01.984Z</time></trkpt><trkpt lat="39.8477184" lon="16.1372848"><ele>582.0</ele><time>2026-04-25T08:29:02.972Z</time></trkpt><trkpt lat="39.847791" lon="16.1371722"><ele>576.25</ele><time>2026-04-25T08:29:03.974Z</time></trkpt><trkpt lat="39.8478538" lon="16.1370533"><ele>570.5</ele><time>2026-04-25T08:29:04.975Z</time></trkpt><trkpt lat="39.8479055" lon="16.1369168"><ele>564.75</ele><time>2026-04-25T08:29:05.983Z</time></trkpt><trkpt lat="39.8479589" lon="16.1367737"><ele>559.0</ele><time>2026-04-25T08:29:06.977Z</time></trkpt><trkpt lat="39.8479912" lon="16.1366158"><ele>561.0</ele><time>2026-04-25T08:29:07.988Z</time></trkpt><trkpt lat="39.8480221" lon="16.1364551"><ele>563.0</ele><time>2026-04-25T08:29:08.979Z</time></trkpt><trkpt lat="39.8480468" lon="16.1362916"><ele>565.0</ele><time>2026-04-25T08:29:09.986Z</time></trkpt><trkpt lat="39.8480625" lon="16.1361253"><ele>567.0</ele><time>2026-04-25T08:29:10.968Z</time></trkpt><trkpt lat="39.8480637" lon="16.1359564"><ele>567.0</ele><time>2026-04-25T08:29:11.993Z</time></trkpt><trkpt lat="39.8480584" lon="16.1357835"><ele>567.0</ele><time>2026-04-25T08:29:13.007Z</time></trkpt><trkpt lat="39.8480432" lon="16.1356061"><ele>567.0</ele><time>2026-04-25T08:29:13.972Z</time></trkpt><trkpt lat="39.8480199" lon="16.135414"><ele>567.0</ele><time>2026-04-25T08:29:14.976Z</time></trkpt><trkpt lat="39.8479729" lon="16.1351961"><ele>566.0</ele><time>2026-04-25T08:29:15.976Z</time></trkpt><trkpt lat="39.8479392" lon="16.1349548"><ele>565.0</ele><time>2026-04-25T08:29:16.979Z</time></trkpt><trkpt lat="39.8479135" lon="16.1347252"><ele>564.0</ele><time>2026-04-25T08:29:17.974Z</time></trkpt><trkpt lat="39.84788" lon="16.1345147"><ele>564.0</ele><time>2026-04-25T08:29:18.972Z</time></trkpt><trkpt lat="39.8478351" lon="16.1343234"><ele>564.0</ele><time>2026-04-25T08:29:19.98Z</time></trkpt><trkpt lat="39.8477675" lon="16.1341511"><ele>564.0</ele><time>2026-04-25T08:29:20.969Z</time></trkpt><trkpt lat="39.8476717" lon="16.1340075"><ele>564.0</ele><time>2026-04-25T08:29:21.976Z</time></trkpt><trkpt lat="39.8475612" lon="16.1338762"><ele>570.0</ele><time>2026-04-25T08:29:22.975Z</time></trkpt><trkpt lat="39.8474462" lon="16.1337546"><ele>576.0</ele><time>2026-04-25T08:29:23.977Z</time></trkpt><trkpt lat="39.8473347" lon="16.1336354"><ele>582.0</ele><time>2026-04-25T08:29:24.981Z</time></trkpt><trkpt lat="39.8472325" lon="16.1335253"><ele>588.0</ele><time>2026-04-25T08:29:25.967Z</time></trkpt><trkpt lat="39.8471425" lon="16.1334168"><ele>588.0</ele><time>2026-04-25T08:29:26.989Z</time></trkpt><trkpt lat="39.8470743" lon="16.1333009"><ele>588.0</ele><time>2026-04-25T08:29:27.974Z</time></trkpt><trkpt lat="39.8470309" lon="16.1331675"><ele>588.0</ele><time>2026-04-25T08:29:28.969Z</time></trkpt><trkpt lat="39.8469929" lon="16.1330233"><ele>588.0</ele><time>2026-04-25T08:29:29.982Z</time></trkpt><trkpt lat="39.8469886" lon="16.1328619"><ele>587.25</ele><time>2026-04-25T08:29:30.977Z</time></trkpt><trkpt lat="39.8469875" lon="16.1326986"><ele>586.5</ele><time>2026-04-25T08:29:31.967Z</time></trkpt><trkpt lat="39.8469857" lon="16.1325467"><ele>585.75</ele><time>2026-04-25T08:29:32.974Z</time></trkpt><trkpt lat="39.8469919" lon="16.1324044"><ele>585.0</ele><time>2026-04-25T08:29:33.974Z</time></trkpt><trkpt lat="39.8470016" lon="16.1322721"><ele>585.0</ele><time>2026-04-25T08:29:34.968Z</time></trkpt><trkpt lat="39.8470197" lon="16.1321427"><ele>585.0</ele><time>2026-04-25T08:29:35.977Z</time></trkpt><trkpt lat="39.8470347" lon="16.1320119"><ele>585.0</ele><time>2026-04-25T08:29:36.97Z</time></trkpt><trkpt lat="39.8470576" lon="16.1318612"><ele>585.0</ele><time>2026-04-25T08:29:37.971Z</time></trkpt><trkpt lat="39.8470813" lon="16.1317025"><ele>585.0</ele><time>2026-04-25T08:29:38.971Z</time></trkpt><trkpt lat="39.8471075" lon="16.1315333"><ele>586.6666666666666</ele><time>2026-04-25T08:29:39.974Z</time></trkpt><trkpt lat="39.8471331" lon="16.1313472"><ele>588.3333333333333</ele><time>2026-04-25T08:29:40.97Z</time></trkpt><trkpt lat="39.8471501" lon="16.1311454"><ele>590.0</ele><time>2026-04-25T08:29:41.972Z</time></trkpt><trkpt lat="39.8471594" lon="16.1309321"><ele>590.3333333333333</ele><time>2026-04-25T08:29:42.974Z</time></trkpt><trkpt lat="39.8471682" lon="16.1307015"><ele>590.6666666666666</ele><time>2026-04-25T08:29:43.976Z</time></trkpt><trkpt lat="39.8471793" lon="16.1304647"><ele>591.0</ele><time>2026-04-25T08:29:44.987Z</time></trkpt><trkpt lat="39.8471885" lon="16.130233"><ele>591.0</ele><time>2026-04-25T08:29:45.977Z</time></trkpt><trkpt lat="39.847184" lon="16.1299967"><ele>591.0</ele><time>2026-04-25T08:29:46.969Z</time></trkpt><trkpt lat="39.847159" lon="16.1297597"><ele>591.0</ele><time>2026-04-25T08:29:47.976Z</time></trkpt><trkpt lat="39.8471181" lon="16.1295274"><ele>591.0</ele><time>2026-04-25T08:29:48.982Z</time></trkpt><trkpt lat="39.8470641" lon="16.1293011"><ele>591.0</ele><time>2026-04-25T08:29:49.98Z</time></trkpt><trkpt lat="39.8470014" lon="16.1290822"><ele>591.0</ele><time>2026-04-25T08:29:50.976Z</time></trkpt><trkpt lat="39.8469351" lon="16.1288707"><ele>591.3333333333334</ele><time>2026-04-25T08:29:51.984Z</time></trkpt><trkpt lat="39.8468758" lon="16.1286585"><ele>591.6666666666667</ele><time>2026-04-25T08:29:52.97Z</time></trkpt><trkpt lat="39.8468177" lon="16.128451"><ele>592.0</ele><time>2026-04-25T08:29:53.974Z</time></trkpt><trkpt lat="39.8467626" lon="16.128249"><ele>597.0</ele><time>2026-04-25T08:29:54.974Z</time></trkpt><trkpt lat="39.8467084" lon="16.1280532"><ele>602.0</ele><time>2026-04-25T08:29:55.983Z</time></trkpt><trkpt lat="39.846656" lon="16.1278646"><ele>607.0</ele><time>2026-04-25T08:29:56.974Z</time></trkpt><trkpt lat="39.8466092" lon="16.1276933"><ele>607.0</ele><time>2026-04-25T08:29:57.973Z</time></trkpt><trkpt lat="39.8465698" lon="16.1275461"><ele>607.0</ele><time>2026-04-25T08:29:58.982Z</time></trkpt><trkpt lat="39.8465396" lon="16.12742"><ele>607.0</ele><time>2026-04-25T08:29:59.979Z</time></trkpt><trkpt lat="39.8465122" lon="16.1273018"><ele>607.0</ele><time>2026-04-25T08:30:00.982Z</time></trkpt><trkpt lat="39.8464885" lon="16.1271904"><ele>607.0</ele><time>2026-04-25T08:30:01.976Z</time></trkpt><trkpt lat="39.8464689" lon="16.127084"><ele>607.1666666666667</ele><time>2026-04-25T08:30:02.991Z</time></trkpt><trkpt lat="39.8464581" lon="16.1269809"><ele>607.3333333333334</ele><time>2026-04-25T08:30:03.978Z</time></trkpt><trkpt lat="39.8464543" lon="16.126886"><ele>607.5</ele><time>2026-04-25T08:30:04.986Z</time></trkpt><trkpt lat="39.846465" lon="16.1267472"><ele>607.6666666666666</ele><time>2026-04-25T08:30:06.974Z</time></trkpt><trkpt lat="39.8464812" lon="16.1266597"><ele>607.8333333333333</ele><time>2026-04-25T08:30:08.977Z</time></trkpt><trkpt lat="39.8464837" lon="16.1265735"><ele>608.0</ele><time>2026-04-25T08:30:12.974Z</time></trkpt><trkpt lat="39.8464136" lon="16.1266013"><ele>608.0</ele><time>2026-04-25T08:30:26.977Z</time></trkpt><trkpt lat="39.846386" lon="16.1267166"><ele>608.0</ele><time>2026-04-25T08:30:28.981Z</time></trkpt><trkpt lat="39.846352" lon="16.1268814"><ele>608.0</ele><time>2026-04-25T08:30:30.987Z</time></trkpt><trkpt lat="39.8463325" lon="16.126985"><ele>608.0</ele><time>2026-04-25T08:30:31.986Z</time></trkpt><trkpt lat="39.8463156" lon="16.1271052"><ele>608.0</ele><time>2026-04-25T08:30:32.982Z</time></trkpt><trkpt lat="39.8463039" lon="16.1272371"><ele>608.0</ele><time>2026-04-25T08:30:33.977Z</time></trkpt><trkpt lat="39.8462973" lon="16.1273711"><ele>608.0</ele><time>2026-04-25T08:30:34.981Z</time></trkpt><trkpt lat="39.8462956" lon="16.127506"><ele>608.0</ele><time>2026-04-25T08:30:35.986Z</time></trkpt><trkpt lat="39.8462966" lon="16.1276384"><ele>608.0</ele><time>2026-04-25T08:30:36.977Z</time></trkpt><trkpt lat="39.8462947" lon="16.1277694"><ele>608.0</ele><time>2026-04-25T08:30:37.978Z</time></trkpt><trkpt lat="39.846288" lon="16.1280165"><ele>607.8333333333333</ele><time>2026-04-25T08:30:39.974Z</time></trkpt><trkpt lat="39.8462923" lon="16.1281254"><ele>607.6666666666666</ele><time>2026-04-25T08:30:40.98Z</time></trkpt><trkpt lat="39.846303" lon="16.1282281"><ele>607.5</ele><time>2026-04-25T08:30:41.981Z</time></trkpt><trkpt lat="39.8463168" lon="16.1283318"><ele>607.3333333333334</ele><time>2026-04-25T08:30:42.985Z</time></trkpt><trkpt lat="39.8463348" lon="16.1284395"><ele>607.1666666666667</ele><time>2026-04-25T08:30:43.987Z</time></trkpt><trkpt lat="39.8463489" lon="16.1285476"><ele>607.0</ele><time>2026-04-25T08:30:44.973Z</time></trkpt><trkpt lat="39.8463815" lon="16.1286644"><ele>607.8000000000001</ele><time>2026-04-25T08:30:45.972Z</time></trkpt><trkpt lat="39.8464152" lon="16.1287767"><ele>608.6</ele><time>2026-04-25T08:30:46.978Z</time></trkpt><trkpt lat="39.8464504" lon="16.1288888"><ele>609.4000000000001</ele><time>2026-04-25T08:30:47.983Z</time></trkpt><trkpt lat="39.8464857" lon="16.1289949"><ele>610.2</ele><time>2026-04-25T08:30:48.985Z</time></trkpt><trkpt lat="39.8465183" lon="16.1291012"><ele>611.0</ele><time>2026-04-25T08:30:49.984Z</time></trkpt><trkpt lat="39.8465372" lon="16.129217"><ele>613.2</ele><time>2026-04-25T08:30:50.978Z</time></trkpt><trkpt lat="39.8465585" lon="16.1293343"><ele>615.4000000000001</ele><time>2026-04-25T08:30:51.971Z</time></trkpt><trkpt lat="39.8465728" lon="16.1294607"><ele>617.6</ele><time>2026-04-25T08:30:52.98Z</time></trkpt><trkpt lat="39.846589" lon="16.1295859"><ele>619.8000000000001</ele><time>2026-04-25T08:30:53.989Z</time></trkpt><trkpt lat="39.8466074" lon="16.1297135"><ele>622.0</ele><time>2026-04-25T08:30:54.973Z</time></trkpt><trkpt lat="39.8466212" lon="16.1298397"><ele>624.8000000000001</ele><time>2026-04-25T08:30:55.981Z</time></trkpt><trkpt lat="39.8466345" lon="16.1299594"><ele>627.6</ele><time>2026-04-25T08:30:56.976Z</time></trkpt><trkpt lat="39.8466547" lon="16.1300911"><ele>630.4000000000001</ele><time>2026-04-25T08:30:57.979Z</time></trkpt><trkpt lat="39.8466707" lon="16.1302252"><ele>633.2</ele><time>2026-04-25T08:30:58.971Z</time></trkpt><trkpt lat="39.846679" lon="16.1303677"><ele>636.0</ele><time>2026-04-25T08:30:59.977Z</time></trkpt><trkpt lat="39.8466804" lon="16.1305207"><ele>636.0</ele><time>2026-04-25T08:31:00.987Z</time></trkpt><trkpt lat="39.8466752" lon="16.1306688"><ele>636.0</ele><time>2026-04-25T08:31:01.966Z</time></trkpt><trkpt lat="39.8466545" lon="16.1308022"><ele>636.0</ele><time>2026-04-25T08:31:02.97Z</time></trkpt><trkpt lat="39.8466294" lon="16.1309263"><ele>636.0</ele><time>2026-04-25T08:31:03.977Z</time></trkpt><trkpt lat="39.8465991" lon="16.1310526"><ele>636.0</ele><time>2026-04-25T08:31:04.984Z</time></trkpt><trkpt lat="39.8465647" lon="16.1311814"><ele>636.0</ele><time>2026-04-25T08:31:05.983Z</time></trkpt><trkpt lat="39.8465328" lon="16.1313143"><ele>636.0</ele><time>2026-04-25T08:31:06.982Z</time></trkpt><trkpt lat="39.8464971" lon="16.1314492"><ele>636.0</ele><time>2026-04-25T08:31:07.975Z</time></trkpt><trkpt lat="39.8464585" lon="16.1315872"><ele>636.0</ele><time>2026-04-25T08:31:08.981Z</time></trkpt><trkpt lat="39.8464184" lon="16.1317319"><ele>636.0</ele><time>2026-04-25T08:31:09.973Z</time></trkpt><trkpt lat="39.8463696" lon="16.1318747"><ele>636.0</ele><time>2026-04-25T08:31:10.965Z</time></trkpt><trkpt lat="39.8463292" lon="16.1320186"><ele>636.0</ele><time>2026-04-25T08:31:11.973Z</time></trkpt><trkpt lat="39.8462882" lon="16.1321616"><ele>636.0</ele><time>2026-04-25T08:31:12.976Z</time></trkpt><trkpt lat="39.8462453" lon="16.1323083"><ele>636.0</ele><time>2026-04-25T08:31:13.972Z</time></trkpt><trkpt lat="39.846193" lon="16.1324566"><ele>634.4</ele><time>2026-04-25T08:31:14.977Z</time></trkpt><trkpt lat="39.8461376" lon="16.1325965"><ele>632.8</ele><time>2026-04-25T08:31:15.976Z</time></trkpt><trkpt lat="39.8460816" lon="16.1327276"><ele>631.1999999999999</ele><time>2026-04-25T08:31:16.969Z</time></trkpt><trkpt lat="39.8460244" lon="16.1328483"><ele>629.6</ele><time>2026-04-25T08:31:17.974Z</time></trkpt><trkpt lat="39.845963" lon="16.1329551"><ele>628.0</ele><time>2026-04-25T08:31:18.978Z</time></trkpt><trkpt lat="39.8458469" lon="16.1331151"><ele>635.0</ele><time>2026-04-25T08:31:20.981Z</time></trkpt><trkpt lat="39.8457546" lon="16.1332078"><ele>642.0</ele><time>2026-04-25T08:31:22.975Z</time></trkpt><trkpt lat="39.8456785" lon="16.1332695"><ele>649.0</ele><time>2026-04-25T08:31:24.983Z</time></trkpt><trkpt lat="39.8456098" lon="16.1333668"><ele>656.0</ele><time>2026-04-25T08:31:26.986Z</time></trkpt><trkpt lat="39.8455503" lon="16.1334769"><ele>663.0</ele><time>2026-04-25T08:31:28.968Z</time></trkpt><trkpt lat="39.8455152" lon="16.1335616"><ele>663.0</ele><time>2026-04-25T08:31:30.989Z</time></trkpt><trkpt lat="39.8454433" lon="16.133677"><ele>663.0</ele><time>2026-04-25T08:31:34.999Z</time></trkpt><trkpt lat="39.8454397" lon="16.1337874"><ele>663.0</ele><time>2026-04-25T08:31:54.99Z</time></trkpt><trkpt lat="39.8454852" lon="16.1338555"><ele>663.0</ele><time>2026-04-25T08:32:03.985Z</time></trkpt><trkpt lat="39.8455318" lon="16.1339369"><ele>663.0</ele><time>2026-04-25T08:32:05.994Z</time></trkpt><trkpt lat="39.845612" lon="16.1340157"><ele>663.0</ele><time>2026-04-25T08:32:07.996Z</time></trkpt><trkpt lat="39.8457068" lon="16.1340819"><ele>665.0</ele><time>2026-04-25T08:32:09.976Z</time></trkpt><trkpt lat="39.8457922" lon="16.1341657"><ele>667.0</ele><time>2026-04-25T08:32:11.986Z</time></trkpt><trkpt lat="39.8458787" lon="16.1342516"><ele>669.0</ele><time>2026-04-25T08:32:13.971Z</time></trkpt><trkpt lat="39.8459648" lon="16.134335"><ele>671.0</ele><time>2026-04-25T08:32:15.995Z</time></trkpt><trkpt lat="39.846051" lon="16.1344193"><ele>673.0</ele><time>2026-04-25T08:32:17.978Z</time></trkpt><trkpt lat="39.8461395" lon="16.1345109"><ele>668.2</ele><time>2026-04-25T08:32:19.98Z</time></trkpt><trkpt lat="39.8462375" lon="16.1345897"><ele>663.4</ele><time>2026-04-25T08:32:21.978Z</time></trkpt><trkpt lat="39.846343" lon="16.1346565"><ele>658.6</ele><time>2026-04-25T08:32:23.983Z</time></trkpt><trkpt lat="39.8464315" lon="16.1347163"><ele>653.8000000000001</ele><time>2026-04-25T08:32:25.976Z</time></trkpt><trkpt lat="39.8464139" lon="16.1348052"><ele>649.0</ele><time>2026-04-25T08:32:28.983Z</time></trkpt><trkpt lat="39.8463463" lon="16.1347884"><ele>649.0</ele><time>2026-04-25T08:32:30.974Z</time></trkpt><trkpt lat="39.8462448" lon="16.1347287"><ele>649.0</ele><time>2026-04-25T08:32:32.982Z</time></trkpt><trkpt lat="39.84618" lon="16.134697"><ele>649.0</ele><time>2026-04-25T08:32:33.977Z</time></trkpt><trkpt lat="39.8461156" lon="16.1346658"><ele>649.0</ele><time>2026-04-25T08:32:34.981Z</time></trkpt><trkpt lat="39.8460391" lon="16.1346401"><ele>649.0</ele><time>2026-04-25T08:32:35.975Z</time></trkpt><trkpt lat="39.845957" lon="16.1346173"><ele>649.0</ele><time>2026-04-25T08:32:36.977Z</time></trkpt><trkpt lat="39.8458703" lon="16.1345997"><ele>653.0</ele><time>2026-04-25T08:32:37.978Z</time></trkpt><trkpt lat="39.8457828" lon="16.13459"><ele>657.0</ele><time>2026-04-25T08:32:38.982Z</time></trkpt><trkpt lat="39.8457011" lon="16.1345852"><ele>661.0</ele><time>2026-04-25T08:32:39.974Z</time></trkpt><trkpt lat="39.8456226" lon="16.1345874"><ele>665.0</ele><time>2026-04-25T08:32:40.976Z</time></trkpt><trkpt lat="39.8455494" lon="16.1345954"><ele>669.0</ele><time>2026-04-25T08:32:41.975Z</time></trkpt><trkpt lat="39.8454831" lon="16.1346178"><ele>673.0</ele><time>2026-04-25T08:32:42.968Z</time></trkpt><trkpt lat="39.845383" lon="16.1347055"><ele>673.0</ele><time>2026-04-25T08:32:44.977Z</time></trkpt><trkpt lat="39.8452997" lon="16.1348198"><ele>673.0</ele><time>2026-04-25T08:32:46.977Z</time></trkpt><trkpt lat="39.8452448" lon="16.1348962"><ele>673.0</ele><time>2026-04-25T08:32:48.976Z</time></trkpt><trkpt lat="39.8452608" lon="16.1349899"><ele>673.0</ele><time>2026-04-25T08:32:51.982Z</time></trkpt><trkpt lat="39.8453382" lon="16.1349803"><ele>673.0</ele><time>2026-04-25T08:32:53.986Z</time></trkpt><trkpt lat="39.8454438" lon="16.1349423"><ele>677.3333333333334</ele><time>2026-04-25T08:32:55.978Z</time></trkpt><trkpt lat="39.845532" lon="16.1349019"><ele>681.6666666666667</ele><time>2026-04-25T08:32:57.974Z</time></trkpt><trkpt lat="39.8455758" lon="16.134973"><ele>686.0</ele><time>2026-04-25T08:33:00.991Z</time></trkpt><trkpt lat="39.8455234" lon="16.1350642"><ele>690.3333333333334</ele><time>2026-04-25T08:33:03.982Z</time></trkpt><trkpt lat="39.8454918" lon="16.1351588"><ele>694.6666666666666</ele><time>2026-04-25T08:33:06.994Z</time></trkpt><trkpt lat="39.8454411" lon="16.1352216"><ele>699.0</ele><time>2026-04-25T08:33:16.979Z</time></trkpt><trkpt lat="39.8454262" lon="16.1353089"><ele>699.0</ele><time>2026-04-25T08:33:29.984Z</time></trkpt><trkpt lat="39.8455059" lon="16.1352373"><ele>699.0</ele><time>2026-04-25T09:44:14.423Z</time></trkpt><trkpt lat="39.8454544" lon="16.1353006"><ele>699.0</ele><time>2026-04-25T09:44:16.438Z</time></trkpt><trkpt lat="39.8453935" lon="16.1353382"><ele>699.0</ele><time>2026-04-25T09:44:19.502Z</time></trkpt><trkpt lat="39.845447" lon="16.1352903"><ele>699.0</ele><time>2026-04-25T09:46:36.767Z</time></trkpt><trkpt lat="39.8454754" lon="16.1352169"><ele>699.0</ele><time>2026-04-25T09:46:37.777Z</time></trkpt><trkpt lat="39.8455385" lon="16.1350811"><ele>699.0</ele><time>2026-04-25T09:46:39.776Z</time></trkpt><trkpt lat="39.8455717" lon="16.1349719"><ele>699.0</ele><time>2026-04-25T09:46:41.767Z</time></trkpt><trkpt lat="39.845476" lon="16.1349406"><ele>699.0</ele><time>2026-04-25T09:46:44.773Z</time></trkpt><trkpt lat="39.8453703" lon="16.1349985"><ele>699.0</ele><time>2026-04-25T09:46:46.78Z</time></trkpt><trkpt lat="39.8452866" lon="16.1350303"><ele>699.0</ele><time>2026-04-25T09:46:48.775Z</time></trkpt><trkpt lat="39.8452401" lon="16.1349534"><ele>694.6666666666666</ele><time>2026-04-25T09:46:51.773Z</time></trkpt><trkpt lat="39.8452937" lon="16.1348426"><ele>690.3333333333334</ele><time>2026-04-25T09:46:53.771Z</time></trkpt><trkpt lat="39.8453404" lon="16.1347774"><ele>686.0</ele><time>2026-04-25T09:46:54.775Z</time></trkpt><trkpt lat="39.8454053" lon="16.1347076"><ele>681.6666666666667</ele><time>2026-04-25T09:46:55.769Z</time></trkpt><trkpt lat="39.8454718" lon="16.1346425"><ele>677.3333333333334</ele><time>2026-04-25T09:46:56.775Z</time></trkpt><trkpt lat="39.845558" lon="16.1346151"><ele>673.0</ele><time>2026-04-25T09:46:57.771Z</time></trkpt><trkpt lat="39.8456444" lon="16.1346065"><ele>673.0</ele><time>2026-04-25T09:46:58.77Z</time></trkpt><trkpt lat="39.8457262" lon="16.134616"><ele>673.0</ele><time>2026-04-25T09:46:59.777Z</time></trkpt><trkpt lat="39.8458059" lon="16.1346248"><ele>673.0</ele><time>2026-04-25T09:47:00.776Z</time></trkpt><trkpt lat="39.8458723" lon="16.1346397"><ele>673.0</ele><time>2026-04-25T09:47:01.77Z</time></trkpt><trkpt lat="39.8459362" lon="16.1346557"><ele>673.0</ele><time>2026-04-25T09:47:02.766Z</time></trkpt><trkpt lat="39.8459991" lon="16.134675"><ele>673.0</ele><time>2026-04-25T09:47:03.779Z</time></trkpt><trkpt lat="39.8460665" lon="16.1346953"><ele>673.0</ele><time>2026-04-25T09:47:04.771Z</time></trkpt><trkpt lat="39.8461383" lon="16.1347229"><ele>669.0</ele><time>2026-04-25T09:47:05.762Z</time></trkpt><trkpt lat="39.8462142" lon="16.1347554"><ele>665.0</ele><time>2026-04-25T09:47:06.765Z</time></trkpt><trkpt lat="39.8462862" lon="16.1347868"><ele>661.0</ele><time>2026-04-25T09:47:07.77Z</time></trkpt><trkpt lat="39.8463459" lon="16.1348194"><ele>657.0</ele><time>2026-04-25T09:47:08.78Z</time></trkpt><trkpt lat="39.8464297" lon="16.1348077"><ele>653.0</ele><time>2026-04-25T09:47:10.763Z</time></trkpt><trkpt lat="39.8464535" lon="16.1347257"><ele>649.0</ele><time>2026-04-25T09:47:13.773Z</time></trkpt><trkpt lat="39.8463676" lon="16.134667"><ele>649.0</ele><time>2026-04-25T09:47:15.775Z</time></trkpt><trkpt lat="39.8463022" lon="16.1346219"><ele>649.0</ele><time>2026-04-25T09:47:16.778Z</time></trkpt><trkpt lat="39.8462306" lon="16.1345714"><ele>649.0</ele><time>2026-04-25T09:47:17.767Z</time></trkpt><trkpt lat="39.8461605" lon="16.1345187"><ele>649.0</ele><time>2026-04-25T09:47:18.773Z</time></trkpt><trkpt lat="39.8460968" lon="16.134447"><ele>649.0</ele><time>2026-04-25T09:47:19.765Z</time></trkpt><trkpt lat="39.8460299" lon="16.1343786"><ele>649.0</ele><time>2026-04-25T09:47:20.785Z</time></trkpt><trkpt lat="39.845964" lon="16.1343059"><ele>651.8000000000001</ele><time>2026-04-25T09:47:21.77Z</time></trkpt><trkpt lat="39.8458995" lon="16.134238"><ele>654.6</ele><time>2026-04-25T09:47:22.77Z</time></trkpt><trkpt lat="39.8458336" lon="16.1341812"><ele>657.4</ele><time>2026-04-25T09:47:23.772Z</time></trkpt><trkpt lat="39.8457721" lon="16.1341318"><ele>660.2</ele><time>2026-04-25T09:47:24.775Z</time></trkpt><trkpt lat="39.8456826" lon="16.1340348"><ele>663.0</ele><time>2026-04-25T09:47:26.774Z</time></trkpt><trkpt lat="39.8456295" lon="16.1338756"><ele>663.0</ele><time>2026-04-25T09:47:28.773Z</time></trkpt><trkpt lat="39.8456106" lon="16.1337793"><ele>663.0</ele><time>2026-04-25T09:47:29.773Z</time></trkpt><trkpt lat="39.8455961" lon="16.1336839"><ele>663.0</ele><time>2026-04-25T09:47:30.773Z</time></trkpt><trkpt lat="39.8455894" lon="16.1335947"><ele>663.0</ele><time>2026-04-25T09:47:31.783Z</time></trkpt><trkpt lat="39.8455935" lon="16.1335033"><ele>663.0</ele><time>2026-04-25T09:47:32.78Z</time></trkpt><trkpt lat="39.8456004" lon="16.1334111"><ele>663.0</ele><time>2026-04-25T09:47:33.782Z</time></trkpt><trkpt lat="39.8456581" lon="16.1333233"><ele>663.0</ele><time>2026-04-25T09:47:34.773Z</time></trkpt><trkpt lat="39.8457236" lon="16.1332452"><ele>663.0</ele><time>2026-04-25T09:47:35.777Z</time></trkpt><trkpt lat="39.8457831" lon="16.1331727"><ele>663.0</ele><time>2026-04-25T09:47:36.767Z</time></trkpt><trkpt lat="39.8458422" lon="16.1331047"><ele>663.0</ele><time>2026-04-25T09:47:37.769Z</time></trkpt><trkpt lat="39.8458992" lon="16.1330332"><ele>663.0</ele><time>2026-04-25T09:47:38.771Z</time></trkpt><trkpt lat="39.8459507" lon="16.1329548"><ele>663.0</ele><time>2026-04-25T09:47:39.772Z</time></trkpt><trkpt lat="39.8459978" lon="16.1328683"><ele>657.6</ele><time>2026-04-25T09:47:40.77Z</time></trkpt><trkpt lat="39.8460426" lon="16.1327725"><ele>652.1999999999999</ele><time>2026-04-25T09:47:41.777Z</time></trkpt><trkpt lat="39.8460862" lon="16.1326714"><ele>646.8</ele><time>2026-04-25T09:47:42.774Z</time></trkpt><trkpt lat="39.8461282" lon="16.1325643"><ele>641.4</ele><time>2026-04-25T09:47:43.779Z</time></trkpt><trkpt lat="39.8461717" lon="16.1324549"><ele>636.0</ele><time>2026-04-25T09:47:44.776Z</time></trkpt><trkpt lat="39.8462148" lon="16.1323437"><ele>636.0</ele><time>2026-04-25T09:47:45.774Z</time></trkpt><trkpt lat="39.8462587" lon="16.1322282"><ele>636.0</ele><time>2026-04-25T09:47:46.77Z</time></trkpt><trkpt lat="39.8462996" lon="16.1321052"><ele>636.0</ele><time>2026-04-25T09:47:47.773Z</time></trkpt><trkpt lat="39.8463372" lon="16.1319761"><ele>636.0</ele><time>2026-04-25T09:47:48.771Z</time></trkpt><trkpt lat="39.8463744" lon="16.1318469"><ele>636.0</ele><time>2026-04-25T09:47:49.773Z</time></trkpt><trkpt lat="39.8464112" lon="16.1317194"><ele>636.0</ele><time>2026-04-25T09:47:50.768Z</time></trkpt><trkpt lat="39.8464466" lon="16.131591"><ele>636.0</ele><time>2026-04-25T09:47:51.774Z</time></trkpt><trkpt lat="39.8464818" lon="16.1314671"><ele>636.0</ele><time>2026-04-25T09:47:52.766Z</time></trkpt><trkpt lat="39.8465169" lon="16.1313441"><ele>636.0</ele><time>2026-04-25T09:47:53.777Z</time></trkpt><trkpt lat="39.84655" lon="16.1312246"><ele>636.0</ele><time>2026-04-25T09:47:54.774Z</time></trkpt><trkpt lat="39.8465831" lon="16.1311038"><ele>636.0</ele><time>2026-04-25T09:47:55.773Z</time></trkpt><trkpt lat="39.8466141" lon="16.1309851"><ele>636.0</ele><time>2026-04-25T09:47:56.776Z</time></trkpt><trkpt lat="39.846642" lon="16.1308696"><ele>636.0</ele><time>2026-04-25T09:47:57.774Z</time></trkpt><trkpt lat="39.8466653" lon="16.1307523"><ele>636.0</ele><time>2026-04-25T09:47:58.765Z</time></trkpt><trkpt lat="39.8466895" lon="16.1306326"><ele>636.0</ele><time>2026-04-25T09:47:59.771Z</time></trkpt><trkpt lat="39.846698" lon="16.1305013"><ele>636.0</ele><time>2026-04-25T09:48:00.766Z</time></trkpt><trkpt lat="39.8466954" lon="16.1303666"><ele>636.0</ele><time>2026-04-25T09:48:01.775Z</time></trkpt><trkpt lat="39.8466862" lon="16.1302358"><ele>636.0</ele><time>2026-04-25T09:48:02.77Z</time></trkpt><trkpt lat="39.8466737" lon="16.1301168"><ele>636.0</ele><time>2026-04-25T09:48:03.773Z</time></trkpt><trkpt lat="39.8466616" lon="16.1300043"><ele>636.0</ele><time>2026-04-25T09:48:04.775Z</time></trkpt><trkpt lat="39.8466438" lon="16.1298833"><ele>633.2</ele><time>2026-04-25T09:48:05.767Z</time></trkpt><trkpt lat="39.8466258" lon="16.1297642"><ele>630.4000000000001</ele><time>2026-04-25T09:48:06.762Z</time></trkpt><trkpt lat="39.8466104" lon="16.1296352"><ele>627.6</ele><time>2026-04-25T09:48:07.773Z</time></trkpt><trkpt lat="39.8465965" lon="16.1295065"><ele>624.8000000000001</ele><time>2026-04-25T09:48:08.766Z</time></trkpt><trkpt lat="39.8465822" lon="16.1293792"><ele>622.0</ele><time>2026-04-25T09:48:09.772Z</time></trkpt><trkpt lat="39.8465644" lon="16.129257"><ele>622.0</ele><time>2026-04-25T09:48:10.769Z</time></trkpt><trkpt lat="39.8465409" lon="16.1291375"><ele>622.0</ele><time>2026-04-25T09:48:11.786Z</time></trkpt><trkpt lat="39.8465104" lon="16.1290202"><ele>622.0</ele><time>2026-04-25T09:48:12.767Z</time></trkpt><trkpt lat="39.8464753" lon="16.1289043"><ele>622.0</ele><time>2026-04-25T09:48:13.783Z</time></trkpt><trkpt lat="39.8464397" lon="16.1287879"><ele>622.0</ele><time>2026-04-25T09:48:14.781Z</time></trkpt><trkpt lat="39.8464065" lon="16.1286736"><ele>620.1666666666667</ele><time>2026-04-25T09:48:15.781Z</time></trkpt><trkpt lat="39.8463742" lon="16.1285599"><ele>618.3333333333334</ele><time>2026-04-25T09:48:16.776Z</time></trkpt><trkpt lat="39.8463423" lon="16.128449"><ele>616.5</ele><time>2026-04-25T09:48:17.783Z</time></trkpt><trkpt lat="39.8463209" lon="16.1283303"><ele>614.6666666666666</ele><time>2026-04-25T09:48:18.791Z</time></trkpt><trkpt lat="39.8463096" lon="16.1282173"><ele>612.8333333333333</ele><time>2026-04-25T09:48:19.779Z</time></trkpt><trkpt lat="39.846305" lon="16.1281093"><ele>611.0</ele><time>2026-04-25T09:48:20.775Z</time></trkpt><trkpt lat="39.846305" lon="16.128001"><ele>610.5</ele><time>2026-04-25T09:48:21.772Z</time></trkpt><trkpt lat="39.8463049" lon="16.1278929"><ele>610.0</ele><time>2026-04-25T09:48:22.769Z</time></trkpt><trkpt lat="39.8463055" lon="16.1277891"><ele>609.5</ele><time>2026-04-25T09:48:23.775Z</time></trkpt><trkpt lat="39.846306" lon="16.1276861"><ele>609.0</ele><time>2026-04-25T09:48:24.78Z</time></trkpt><trkpt lat="39.8463021" lon="16.1275794"><ele>608.5</ele><time>2026-04-25T09:48:25.78Z</time></trkpt><trkpt lat="39.8462999" lon="16.1274782"><ele>608.0</ele><time>2026-04-25T09:48:26.779Z</time></trkpt><trkpt lat="39.8462998" lon="16.1273691"><ele>608.0</ele><time>2026-04-25T09:48:27.776Z</time></trkpt><trkpt lat="39.8463016" lon="16.127268"><ele>608.0</ele><time>2026-04-25T09:48:28.777Z</time></trkpt><trkpt lat="39.8463093" lon="16.127177"><ele>608.0</ele><time>2026-04-25T09:48:29.774Z</time></trkpt><trkpt lat="39.8463304" lon="16.1270291"><ele>608.0</ele><time>2026-04-25T09:48:31.779Z</time></trkpt><trkpt lat="39.8463518" lon="16.1269057"><ele>608.0</ele><time>2026-04-25T09:48:33.771Z</time></trkpt><trkpt lat="39.8463587" lon="16.1268033"><ele>608.0</ele><time>2026-04-25T09:48:36.776Z</time></trkpt><trkpt lat="39.8463791" lon="16.1266871"><ele>609.1999999999999</ele><time>2026-04-25T09:48:39.775Z</time></trkpt><trkpt lat="39.8464374" lon="16.1265565"><ele>610.4</ele><time>2026-04-25T09:48:41.775Z</time></trkpt><trkpt lat="39.8464672" lon="16.1264747"><ele>611.5999999999999</ele><time>2026-04-25T09:48:42.764Z</time></trkpt><trkpt lat="39.8464988" lon="16.1263696"><ele>612.8</ele><time>2026-04-25T09:48:43.776Z</time></trkpt><trkpt lat="39.8465388" lon="16.1262391"><ele>614.0</ele><time>2026-04-25T09:48:44.773Z</time></trkpt><trkpt lat="39.8465937" lon="16.1260835"><ele>614.0</ele><time>2026-04-25T09:48:45.77Z</time></trkpt><trkpt lat="39.8466603" lon="16.1259079"><ele>614.0</ele><time>2026-04-25T09:48:46.777Z</time></trkpt><trkpt lat="39.8467354" lon="16.1257205"><ele>614.0</ele><time>2026-04-25T09:48:47.778Z</time></trkpt><trkpt lat="39.8468109" lon="16.1255244"><ele>613.6666666666666</ele><time>2026-04-25T09:48:48.779Z</time></trkpt><trkpt lat="39.8468874" lon="16.1253255"><ele>613.3333333333334</ele><time>2026-04-25T09:48:49.775Z</time></trkpt><trkpt lat="39.8469582" lon="16.1251277"><ele>613.0</ele><time>2026-04-25T09:48:50.77Z</time></trkpt><trkpt lat="39.8470155" lon="16.124929"><ele>614.6666666666667</ele><time>2026-04-25T09:48:51.784Z</time></trkpt><trkpt lat="39.8470528" lon="16.1247282"><ele>616.3333333333334</ele><time>2026-04-25T09:48:52.774Z</time></trkpt><trkpt lat="39.8470707" lon="16.1245282"><ele>618.0</ele><time>2026-04-25T09:48:53.774Z</time></trkpt><trkpt lat="39.8470824" lon="16.1243331"><ele>618.0</ele><time>2026-04-25T09:48:54.78Z</time></trkpt><trkpt lat="39.8470942" lon="16.1241529"><ele>618.0</ele><time>2026-04-25T09:48:55.771Z</time></trkpt><trkpt lat="39.8471069" lon="16.123996"><ele>618.0</ele><time>2026-04-25T09:48:56.778Z</time></trkpt><trkpt lat="39.8471175" lon="16.1238613"><ele>618.0</ele><time>2026-04-25T09:48:57.782Z</time></trkpt><trkpt lat="39.8471242" lon="16.1237403"><ele>618.8</ele><time>2026-04-25T09:48:58.765Z</time></trkpt><trkpt lat="39.8471297" lon="16.1236226"><ele>619.5999999999999</ele><time>2026-04-25T09:48:59.77Z</time></trkpt><trkpt lat="39.8471341" lon="16.1235002"><ele>620.4000000000001</ele><time>2026-04-25T09:49:00.772Z</time></trkpt><trkpt lat="39.8471344" lon="16.1233763"><ele>621.2</ele><time>2026-04-25T09:49:01.771Z</time></trkpt><trkpt lat="39.84713" lon="16.1232548"><ele>622.0</ele><time>2026-04-25T09:49:02.774Z</time></trkpt><trkpt lat="39.8471244" lon="16.12315"><ele>623.0</ele><time>2026-04-25T09:49:03.771Z</time></trkpt><trkpt lat="39.8471199" lon="16.1230678"><ele>624.0</ele><time>2026-04-25T09:49:04.769Z</time></trkpt><trkpt lat="39.8471065" lon="16.1229205"><ele>625.0</ele><time>2026-04-25T09:49:06.778Z</time></trkpt><trkpt lat="39.847096" lon="16.1227765"><ele>626.0</ele><time>2026-04-25T09:49:08.774Z</time></trkpt><trkpt lat="39.8470847" lon="16.1226751"><ele>627.0</ele><time>2026-04-25T09:49:10.768Z</time></trkpt><trkpt lat="39.8470727" lon="16.1225536"><ele>627.0</ele><time>2026-04-25T09:49:12.783Z</time></trkpt><trkpt lat="39.8470591" lon="16.1224581"><ele>627.0</ele><time>2026-04-25T09:49:13.778Z</time></trkpt><trkpt lat="39.8470383" lon="16.1223334"><ele>627.0</ele><time>2026-04-25T09:49:14.781Z</time></trkpt><trkpt lat="39.8470173" lon="16.1221929"><ele>627.0</ele><time>2026-04-25T09:49:15.784Z</time></trkpt><trkpt lat="39.8469988" lon="16.1220419"><ele>627.0</ele><time>2026-04-25T09:49:16.771Z</time></trkpt><trkpt lat="39.8469782" lon="16.1218824"><ele>627.75</ele><time>2026-04-25T09:49:17.769Z</time></trkpt><trkpt lat="39.846955" lon="16.1217214"><ele>628.5</ele><time>2026-04-25T09:49:18.772Z</time></trkpt><trkpt lat="39.846932" lon="16.1215639"><ele>629.25</ele><time>2026-04-25T09:49:19.775Z</time></trkpt><trkpt lat="39.8469116" lon="16.1214085"><ele>630.0</ele><time>2026-04-25T09:49:20.772Z</time></trkpt><trkpt lat="39.8468936" lon="16.1212544"><ele>631.75</ele><time>2026-04-25T09:49:21.763Z</time></trkpt><trkpt lat="39.8468736" lon="16.1210956"><ele>633.5</ele><time>2026-04-25T09:49:22.772Z</time></trkpt><trkpt lat="39.8468502" lon="16.1209296"><ele>635.25</ele><time>2026-04-25T09:49:23.78Z</time></trkpt><trkpt lat="39.8468266" lon="16.1207657"><ele>637.0</ele><time>2026-04-25T09:49:24.773Z</time></trkpt><trkpt lat="39.8468027" lon="16.1206064"><ele>639.4000000000001</ele><time>2026-04-25T09:49:25.78Z</time></trkpt><trkpt lat="39.8467812" lon="16.1204567"><ele>641.8000000000001</ele><time>2026-04-25T09:49:26.766Z</time></trkpt><trkpt lat="39.8467647" lon="16.1203203"><ele>644.2</ele><time>2026-04-25T09:49:27.778Z</time></trkpt><trkpt lat="39.8467523" lon="16.1201943"><ele>646.6</ele><time>2026-04-25T09:49:28.768Z</time></trkpt><trkpt lat="39.8467419" lon="16.1200772"><ele>649.0</ele><time>2026-04-25T09:49:29.783Z</time></trkpt><trkpt lat="39.846734" lon="16.1199662"><ele>649.1666666666667</ele><time>2026-04-25T09:49:30.779Z</time></trkpt><trkpt lat="39.846728" lon="16.1198684"><ele>649.3333333333334</ele><time>2026-04-25T09:49:31.771Z</time></trkpt><trkpt lat="39.8467484" lon="16.1197729"><ele>649.5</ele><time>2026-04-25T09:49:32.77Z</time></trkpt><trkpt lat="39.8467846" lon="16.1196844"><ele>649.6666666666666</ele><time>2026-04-25T09:49:33.777Z</time></trkpt><trkpt lat="39.8468378" lon="16.1195886"><ele>649.8333333333333</ele><time>2026-04-25T09:49:34.771Z</time></trkpt><trkpt lat="39.8469078" lon="16.119474"><ele>650.0</ele><time>2026-04-25T09:49:35.771Z</time></trkpt><trkpt lat="39.8470081" lon="16.1193356"><ele>650.0</ele><time>2026-04-25T09:49:36.777Z</time></trkpt><trkpt lat="39.8471196" lon="16.1191764"><ele>650.0</ele><time>2026-04-25T09:49:37.769Z</time></trkpt><trkpt lat="39.8472296" lon="16.118993"><ele>650.0</ele><time>2026-04-25T09:49:38.767Z</time></trkpt><trkpt lat="39.8473343" lon="16.1188015"><ele>652.3333333333333</ele><time>2026-04-25T09:49:39.777Z</time></trkpt><trkpt lat="39.8474361" lon="16.1186101"><ele>654.6666666666666</ele><time>2026-04-25T09:49:40.767Z</time></trkpt><trkpt lat="39.8475422" lon="16.1184235"><ele>657.0</ele><time>2026-04-25T09:49:41.771Z</time></trkpt><trkpt lat="39.8476549" lon="16.1182451"><ele>660.6666666666666</ele><time>2026-04-25T09:49:42.768Z</time></trkpt><trkpt lat="39.8477675" lon="16.1180811"><ele>664.3333333333333</ele><time>2026-04-25T09:49:43.774Z</time></trkpt><trkpt lat="39.8478781" lon="16.1179432"><ele>668.0</ele><time>2026-04-25T09:49:44.778Z</time></trkpt><trkpt lat="39.8479912" lon="16.1178425"><ele>668.0</ele><time>2026-04-25T09:49:45.772Z</time></trkpt><trkpt lat="39.8481142" lon="16.1177755"><ele>668.0</ele><time>2026-04-25T09:49:46.783Z</time></trkpt><trkpt lat="39.8482511" lon="16.1177422"><ele>668.0</ele><time>2026-04-25T09:49:47.786Z</time></trkpt><trkpt lat="39.8483988" lon="16.1177456"><ele>668.0</ele><time>2026-04-25T09:49:48.767Z</time></trkpt><trkpt lat="39.848554" lon="16.1177784"><ele>671.6666666666666</ele><time>2026-04-25T09:49:49.781Z</time></trkpt><trkpt lat="39.8487145" lon="16.117826"><ele>675.3333333333334</ele><time>2026-04-25T09:49:50.78Z</time></trkpt><trkpt lat="39.8488695" lon="16.117884"><ele>679.0</ele><time>2026-04-25T09:49:51.777Z</time></trkpt><trkpt lat="39.8490167" lon="16.1179602"><ele>679.0</ele><time>2026-04-25T09:49:52.782Z</time></trkpt><trkpt lat="39.8491536" lon="16.1180762"><ele>679.0</ele><time>2026-04-25T09:49:53.783Z</time></trkpt><trkpt lat="39.8492846" lon="16.1182312"><ele>679.0</ele><time>2026-04-25T09:49:54.781Z</time></trkpt><trkpt lat="39.8494209" lon="16.1184169"><ele>686.0</ele><time>2026-04-25T09:49:55.782Z</time></trkpt><trkpt lat="39.8495525" lon="16.1186136"><ele>693.0</ele><time>2026-04-25T09:49:56.771Z</time></trkpt><trkpt lat="39.8496648" lon="16.1188214"><ele>700.0</ele><time>2026-04-25T09:49:57.772Z</time></trkpt><trkpt lat="39.8497542" lon="16.1190458"><ele>696.0</ele><time>2026-04-25T09:49:58.773Z</time></trkpt><trkpt lat="39.8498302" lon="16.1192829"><ele>692.0</ele><time>2026-04-25T09:49:59.771Z</time></trkpt><trkpt lat="39.8499045" lon="16.1195213"><ele>688.0</ele><time>2026-04-25T09:50:00.769Z</time></trkpt><trkpt lat="39.8499812" lon="16.1197515"><ele>684.0</ele><time>2026-04-25T09:50:01.774Z</time></trkpt><trkpt lat="39.8500723" lon="16.1199697"><ele>680.0</ele><time>2026-04-25T09:50:02.772Z</time></trkpt><trkpt lat="39.8501826" lon="16.1201798"><ele>676.0</ele><time>2026-04-25T09:50:03.781Z</time></trkpt><trkpt lat="39.8502954" lon="16.1203735"><ele>677.25</ele><time>2026-04-25T09:50:04.774Z</time></trkpt><trkpt lat="39.850397" lon="16.1205487"><ele>678.5</ele><time>2026-04-25T09:50:05.778Z</time></trkpt><trkpt lat="39.8504852" lon="16.120701"><ele>679.75</ele><time>2026-04-25T09:50:06.768Z</time></trkpt><trkpt lat="39.8505651" lon="16.1208213"><ele>681.0</ele><time>2026-04-25T09:50:07.778Z</time></trkpt><trkpt lat="39.8506403" lon="16.1209099"><ele>681.0</ele><time>2026-04-25T09:50:08.774Z</time></trkpt><trkpt lat="39.8507282" lon="16.1209187"><ele>681.0</ele><time>2026-04-25T09:50:09.784Z</time></trkpt><trkpt lat="39.8508026" lon="16.1208814"><ele>681.0</ele><time>2026-04-25T09:50:10.773Z</time></trkpt><trkpt lat="39.850849" lon="16.1207963"><ele>681.0</ele><time>2026-04-25T09:50:11.776Z</time></trkpt><trkpt lat="39.8508558" lon="16.1206894"><ele>681.0</ele><time>2026-04-25T09:50:12.773Z</time></trkpt><trkpt lat="39.8508199" lon="16.1205812"><ele>681.0</ele><time>2026-04-25T09:50:13.781Z</time></trkpt><trkpt lat="39.8507617" lon="16.120469"><ele>686.0</ele><time>2026-04-25T09:50:14.774Z</time></trkpt><trkpt lat="39.8506581" lon="16.1203842"><ele>691.0</ele><time>2026-04-25T09:50:15.763Z</time></trkpt><trkpt lat="39.8505614" lon="16.1203031"><ele>696.0</ele><time>2026-04-25T09:50:16.774Z</time></trkpt><trkpt lat="39.8504564" lon="16.1202009"><ele>701.0</ele><time>2026-04-25T09:50:17.779Z</time></trkpt><trkpt lat="39.8503761" lon="16.1200626"><ele>705.0</ele><time>2026-04-25T09:50:18.771Z</time></trkpt><trkpt lat="39.8503193" lon="16.119883"><ele>709.0</ele><time>2026-04-25T09:50:19.787Z</time></trkpt><trkpt lat="39.8502803" lon="16.119666"><ele>713.0</ele><time>2026-04-25T09:50:20.774Z</time></trkpt><trkpt lat="39.8502461" lon="16.1194062"><ele>713.0</ele><time>2026-04-25T09:50:21.774Z</time></trkpt><trkpt lat="39.8502167" lon="16.1191226"><ele>713.0</ele><time>2026-04-25T09:50:22.782Z</time></trkpt><trkpt lat="39.8501875" lon="16.1188568"><ele>713.0</ele><time>2026-04-25T09:50:23.782Z</time></trkpt><trkpt lat="39.8501537" lon="16.1186023"><ele>712.0</ele><time>2026-04-25T09:50:24.77Z</time></trkpt><trkpt lat="39.8501082" lon="16.118363"><ele>711.0</ele><time>2026-04-25T09:50:25.783Z</time></trkpt><trkpt lat="39.8500493" lon="16.1181428"><ele>710.0</ele><time>2026-04-25T09:50:26.779Z</time></trkpt><trkpt lat="39.8499842" lon="16.1179397"><ele>710.0</ele><time>2026-04-25T09:50:27.773Z</time></trkpt><trkpt lat="39.8499228" lon="16.1177463"><ele>710.0</ele><time>2026-04-25T09:50:28.776Z</time></trkpt><trkpt lat="39.8498897" lon="16.1175512"><ele>710.0</ele><time>2026-04-25T09:50:29.784Z</time></trkpt><trkpt lat="39.8498827" lon="16.117344"><ele>712.6666666666666</ele><time>2026-04-25T09:50:30.765Z</time></trkpt><trkpt lat="39.8498893" lon="16.1171297"><ele>715.3333333333334</ele><time>2026-04-25T09:50:31.765Z</time></trkpt><trkpt lat="39.8499037" lon="16.1168879"><ele>718.0</ele><time>2026-04-25T09:50:32.777Z</time></trkpt><trkpt lat="39.8499206" lon="16.1166073"><ele>720.0</ele><time>2026-04-25T09:50:33.776Z</time></trkpt><trkpt lat="39.8499368" lon="16.1163203"><ele>722.0</ele><time>2026-04-25T09:50:34.773Z</time></trkpt><trkpt lat="39.8499444" lon="16.1160498"><ele>724.0</ele><time>2026-04-25T09:50:35.776Z</time></trkpt><trkpt lat="39.8499443" lon="16.1158048"><ele>728.0</ele><time>2026-04-25T09:50:36.779Z</time></trkpt><trkpt lat="39.849884" lon="16.1156084"><ele>732.0</ele><time>2026-04-25T09:50:37.772Z</time></trkpt><trkpt lat="39.8497926" lon="16.1154413"><ele>736.0</ele><time>2026-04-25T09:50:38.781Z</time></trkpt><trkpt lat="39.8496654" lon="16.1152933"><ele>736.0</ele><time>2026-04-25T09:50:39.773Z</time></trkpt><trkpt lat="39.8495209" lon="16.1151392"><ele>736.0</ele><time>2026-04-25T09:50:40.771Z</time></trkpt><trkpt lat="39.8493619" lon="16.1149614"><ele>736.0</ele><time>2026-04-25T09:50:41.774Z</time></trkpt><trkpt lat="39.8491961" lon="16.1147713"><ele>736.6666666666667</ele><time>2026-04-25T09:50:42.769Z</time></trkpt><trkpt lat="39.8490324" lon="16.1145937"><ele>737.3333333333334</ele><time>2026-04-25T09:50:43.773Z</time></trkpt><trkpt lat="39.8488814" lon="16.1144314"><ele>738.0</ele><time>2026-04-25T09:50:44.768Z</time></trkpt><trkpt lat="39.8487415" lon="16.1142853"><ele>738.0</ele><time>2026-04-25T09:50:45.767Z</time></trkpt><trkpt lat="39.8486148" lon="16.1141554"><ele>738.0</ele><time>2026-04-25T09:50:46.77Z</time></trkpt><trkpt lat="39.8485042" lon="16.1140383"><ele>738.0</ele><time>2026-04-25T09:50:47.769Z</time></trkpt><trkpt lat="39.8484084" lon="16.113932"><ele>738.0</ele><time>2026-04-25T09:50:48.772Z</time></trkpt><trkpt lat="39.8483301" lon="16.1138312"><ele>738.5999999999999</ele><time>2026-04-25T09:50:49.778Z</time></trkpt><trkpt lat="39.84826" lon="16.1137375"><ele>739.1999999999999</ele><time>2026-04-25T09:50:50.77Z</time></trkpt><trkpt lat="39.8481894" lon="16.1136473"><ele>739.8</ele><time>2026-04-25T09:50:51.774Z</time></trkpt><trkpt lat="39.8481167" lon="16.1135626"><ele>740.4</ele><time>2026-04-25T09:50:52.77Z</time></trkpt><trkpt lat="39.848042" lon="16.1134777"><ele>741.0</ele><time>2026-04-25T09:50:53.775Z</time></trkpt><trkpt lat="39.8479641" lon="16.1133886"><ele>741.0</ele><time>2026-04-25T09:50:54.78Z</time></trkpt><trkpt lat="39.8478801" lon="16.1132993"><ele>741.0</ele><time>2026-04-25T09:50:55.776Z</time></trkpt><trkpt lat="39.8477883" lon="16.1132109"><ele>741.0</ele><time>2026-04-25T09:50:56.776Z</time></trkpt><trkpt lat="39.8476858" lon="16.1131324"><ele>741.0</ele><time>2026-04-25T09:50:57.774Z</time></trkpt><trkpt lat="39.8475717" lon="16.1130726"><ele>744.75</ele><time>2026-04-25T09:50:58.772Z</time></trkpt><trkpt lat="39.8474476" lon="16.1130356"><ele>748.5</ele><time>2026-04-25T09:50:59.78Z</time></trkpt><trkpt lat="39.8473168" lon="16.1130202"><ele>752.25</ele><time>2026-04-25T09:51:00.773Z</time></trkpt><trkpt lat="39.8471821" lon="16.1130183"><ele>756.0</ele><time>2026-04-25T09:51:01.786Z</time></trkpt><trkpt lat="39.8470481" lon="16.1130234"><ele>756.0</ele><time>2026-04-25T09:51:02.777Z</time></trkpt><trkpt lat="39.8469262" lon="16.1130229"><ele>756.0</ele><time>2026-04-25T09:51:03.772Z</time></trkpt><trkpt lat="39.8468234" lon="16.113"><ele>756.0</ele><time>2026-04-25T09:51:04.776Z</time></trkpt><trkpt lat="39.8467474" lon="16.1129476"><ele>756.0</ele><time>2026-04-25T09:51:05.77Z</time></trkpt><trkpt lat="39.8467049" lon="16.1128657"><ele>756.0</ele><time>2026-04-25T09:51:06.779Z</time></trkpt><trkpt lat="39.8467005" lon="16.1127694"><ele>756.0</ele><time>2026-04-25T09:51:07.781Z</time></trkpt><trkpt lat="39.8467349" lon="16.1126808"><ele>756.0</ele><time>2026-04-25T09:51:08.773Z</time></trkpt><trkpt lat="39.8468017" lon="16.1126186"><ele>756.0</ele><time>2026-04-25T09:51:09.781Z</time></trkpt><trkpt lat="39.8469041" lon="16.1125873"><ele>756.0</ele><time>2026-04-25T09:51:10.78Z</time></trkpt><trkpt lat="39.847046" lon="16.1125813"><ele>756.0</ele><time>2026-04-25T09:51:11.782Z</time></trkpt><trkpt lat="39.8472304" lon="16.1125923"><ele>756.0</ele><time>2026-04-25T09:51:12.777Z</time></trkpt><trkpt lat="39.8474616" lon="16.1126097"><ele>756.0</ele><time>2026-04-25T09:51:13.787Z</time></trkpt><trkpt lat="39.8477236" lon="16.1126273"><ele>759.0</ele><time>2026-04-25T09:51:14.771Z</time></trkpt><trkpt lat="39.8480075" lon="16.1126513"><ele>762.0</ele><time>2026-04-25T09:51:15.778Z</time></trkpt><trkpt lat="39.8482661" lon="16.1127046"><ele>770.0</ele><time>2026-04-25T09:51:16.775Z</time></trkpt><trkpt lat="39.8484954" lon="16.1127795"><ele>778.0</ele><time>2026-04-25T09:51:17.775Z</time></trkpt><trkpt lat="39.8487023" lon="16.1128707"><ele>778.0</ele><time>2026-04-25T09:51:18.777Z</time></trkpt><trkpt lat="39.8488844" lon="16.1129895"><ele>778.0</ele><time>2026-04-25T09:51:19.78Z</time></trkpt><trkpt lat="39.8490455" lon="16.1131178"><ele>778.0</ele><time>2026-04-25T09:51:20.773Z</time></trkpt><trkpt lat="39.8491889" lon="16.113235"><ele>777.6666666666666</ele><time>2026-04-25T09:51:21.771Z</time></trkpt><trkpt lat="39.8493329" lon="16.1133268"><ele>777.3333333333333</ele><time>2026-04-25T09:51:22.772Z</time></trkpt><trkpt lat="39.849478" lon="16.1133983"><ele>777.0</ele><time>2026-04-25T09:51:23.768Z</time></trkpt><trkpt lat="39.8496291" lon="16.1134639"><ele>777.0</ele><time>2026-04-25T09:51:24.775Z</time></trkpt><trkpt lat="39.8497915" lon="16.1135449"><ele>777.0</ele><time>2026-04-25T09:51:25.769Z</time></trkpt><trkpt lat="39.8499771" lon="16.1136455"><ele>777.0</ele><time>2026-04-25T09:51:26.771Z</time></trkpt><trkpt lat="39.8501801" lon="16.1137588"><ele>775.6666666666667</ele><time>2026-04-25T09:51:27.778Z</time></trkpt><trkpt lat="39.8503795" lon="16.1138754"><ele>774.3333333333334</ele><time>2026-04-25T09:51:28.772Z</time></trkpt><trkpt lat="39.8505607" lon="16.1139933"><ele>773.0</ele><time>2026-04-25T09:51:29.771Z</time></trkpt><trkpt lat="39.8507233" lon="16.1141122"><ele>773.0</ele><time>2026-04-25T09:51:30.772Z</time></trkpt><trkpt lat="39.8508689" lon="16.1142419"><ele>773.0</ele><time>2026-04-25T09:51:31.774Z</time></trkpt><trkpt lat="39.8509954" lon="16.1143782"><ele>773.0</ele><time>2026-04-25T09:51:32.771Z</time></trkpt><trkpt lat="39.851097" lon="16.1145232"><ele>780.25</ele><time>2026-04-25T09:51:33.765Z</time></trkpt><trkpt lat="39.8511685" lon="16.1146828"><ele>787.5</ele><time>2026-04-25T09:51:34.773Z</time></trkpt><trkpt lat="39.851202" lon="16.1148648"><ele>794.75</ele><time>2026-04-25T09:51:35.774Z</time></trkpt><trkpt lat="39.8512057" lon="16.1150728"><ele>802.0</ele><time>2026-04-25T09:51:36.77Z</time></trkpt><trkpt lat="39.8511948" lon="16.1153015"><ele>802.0</ele><time>2026-04-25T09:51:37.783Z</time></trkpt><trkpt lat="39.8511855" lon="16.1155318"><ele>802.0</ele><time>2026-04-25T09:51:38.774Z</time></trkpt><trkpt lat="39.851181" lon="16.1157409"><ele>802.0</ele><time>2026-04-25T09:51:39.775Z</time></trkpt><trkpt lat="39.8511855" lon="16.1159201"><ele>800.25</ele><time>2026-04-25T09:51:40.773Z</time></trkpt><trkpt lat="39.8512187" lon="16.1160629"><ele>798.5</ele><time>2026-04-25T09:51:41.78Z</time></trkpt><trkpt lat="39.8512888" lon="16.1161595"><ele>796.75</ele><time>2026-04-25T09:51:42.766Z</time></trkpt><trkpt lat="39.8513946" lon="16.1162199"><ele>795.0</ele><time>2026-04-25T09:51:43.774Z</time></trkpt><trkpt lat="39.8515228" lon="16.1162665"><ele>795.0</ele><time>2026-04-25T09:51:44.769Z</time></trkpt><trkpt lat="39.8516744" lon="16.1163027"><ele>795.0</ele><time>2026-04-25T09:51:45.775Z</time></trkpt><trkpt lat="39.8518285" lon="16.1163487"><ele>795.0</ele><time>2026-04-25T09:51:46.777Z</time></trkpt><trkpt lat="39.8519828" lon="16.1163742"><ele>797.3333333333333</ele><time>2026-04-25T09:51:47.813Z</time></trkpt><trkpt lat="39.8521343" lon="16.11636"><ele>799.6666666666666</ele><time>2026-04-25T09:51:48.78Z</time></trkpt><trkpt lat="39.8522819" lon="16.1162976"><ele>802.0</ele><time>2026-04-25T09:51:49.776Z</time></trkpt><trkpt lat="39.8524272" lon="16.1161898"><ele>802.0</ele><time>2026-04-25T09:51:50.78Z</time></trkpt><trkpt lat="39.8525818" lon="16.1160416"><ele>802.0</ele><time>2026-04-25T09:51:51.784Z</time></trkpt><trkpt lat="39.8527422" lon="16.1158584"><ele>802.0</ele><time>2026-04-25T09:51:52.767Z</time></trkpt><trkpt lat="39.8529045" lon="16.1156555"><ele>807.6666666666666</ele><time>2026-04-25T09:51:53.78Z</time></trkpt><trkpt lat="39.853055" lon="16.1154597"><ele>813.3333333333333</ele><time>2026-04-25T09:51:54.778Z</time></trkpt><trkpt lat="39.8531978" lon="16.1152899"><ele>819.0</ele><time>2026-04-25T09:51:55.78Z</time></trkpt><trkpt lat="39.8533406" lon="16.1151542"><ele>817.3333333333333</ele><time>2026-04-25T09:51:56.773Z</time></trkpt><trkpt lat="39.8534896" lon="16.1150519"><ele>815.6666666666666</ele><time>2026-04-25T09:51:57.774Z</time></trkpt><trkpt lat="39.8536398" lon="16.1149855"><ele>814.0</ele><time>2026-04-25T09:51:58.77Z</time></trkpt><trkpt lat="39.8537836" lon="16.1149502"><ele>814.0</ele><time>2026-04-25T09:51:59.777Z</time></trkpt><trkpt lat="39.8539182" lon="16.114943"><ele>814.0</ele><time>2026-04-25T09:52:00.77Z</time></trkpt><trkpt lat="39.8540597" lon="16.1149611"><ele>814.0</ele><time>2026-04-25T09:52:01.775Z</time></trkpt><trkpt lat="39.8542236" lon="16.115005"><ele>814.0</ele><time>2026-04-25T09:52:02.766Z</time></trkpt><trkpt lat="39.8544169" lon="16.1150716"><ele>817.3333333333333</ele><time>2026-04-25T09:52:03.77Z</time></trkpt><trkpt lat="39.8546257" lon="16.115125"><ele>820.6666666666667</ele><time>2026-04-25T09:52:04.767Z</time></trkpt><trkpt lat="39.8548474" lon="16.1151522"><ele>824.0</ele><time>2026-04-25T09:52:05.782Z</time></trkpt><trkpt lat="39.8550662" lon="16.1151509"><ele>822.3333333333334</ele><time>2026-04-25T09:52:06.777Z</time></trkpt><trkpt lat="39.8552685" lon="16.1151228"><ele>820.6666666666667</ele><time>2026-04-25T09:52:07.772Z</time></trkpt><trkpt lat="39.8554526" lon="16.115066"><ele>819.0</ele><time>2026-04-25T09:52:08.771Z</time></trkpt><trkpt lat="39.855615" lon="16.1149806"><ele>830.25</ele><time>2026-04-25T09:52:09.778Z</time></trkpt><trkpt lat="39.8557583" lon="16.1148898"><ele>841.5</ele><time>2026-04-25T09:52:10.774Z</time></trkpt><trkpt lat="39.8558936" lon="16.1148331"><ele>852.75</ele><time>2026-04-25T09:52:11.775Z</time></trkpt><trkpt lat="39.8560279" lon="16.1148315"><ele>864.0</ele><time>2026-04-25T09:52:12.769Z</time></trkpt><trkpt lat="39.8561586" lon="16.1148838"><ele>854.6666666666667</ele><time>2026-04-25T09:52:13.771Z</time></trkpt><trkpt lat="39.8562878" lon="16.1149819"><ele>845.3333333333334</ele><time>2026-04-25T09:52:14.769Z</time></trkpt><trkpt lat="39.8564197" lon="16.1151116"><ele>836.0</ele><time>2026-04-25T09:52:15.783Z</time></trkpt><trkpt lat="39.8565552" lon="16.1152623"><ele>836.0</ele><time>2026-04-25T09:52:16.77Z</time></trkpt><trkpt lat="39.8566913" lon="16.1154319"><ele>836.0</ele><time>2026-04-25T09:52:17.77Z</time></trkpt><trkpt lat="39.8568231" lon="16.1156123"><ele>836.0</ele><time>2026-04-25T09:52:18.774Z</time></trkpt><trkpt lat="39.8569493" lon="16.1157942"><ele>835.6666666666667</ele><time>2026-04-25T09:52:19.776Z</time></trkpt><trkpt lat="39.8570645" lon="16.1159653"><ele>835.3333333333333</ele><time>2026-04-25T09:52:20.766Z</time></trkpt><trkpt lat="39.8571629" lon="16.1161193"><ele>835.0</ele><time>2026-04-25T09:52:21.778Z</time></trkpt><trkpt lat="39.8572528" lon="16.1162449"><ele>835.0</ele><time>2026-04-25T09:52:22.783Z</time></trkpt><trkpt lat="39.8573443" lon="16.1163279"><ele>835.0</ele><time>2026-04-25T09:52:23.785Z</time></trkpt><trkpt lat="39.857437" lon="16.1163742"><ele>835.0</ele><time>2026-04-25T09:52:24.784Z</time></trkpt><trkpt lat="39.8575184" lon="16.1163191"><ele>835.0</ele><time>2026-04-25T09:52:25.786Z</time></trkpt><trkpt lat="39.8575639" lon="16.1162284"><ele>835.0</ele><time>2026-04-25T09:52:26.769Z</time></trkpt><trkpt lat="39.8575619" lon="16.1161149"><ele>835.0</ele><time>2026-04-25T09:52:27.774Z</time></trkpt><trkpt lat="39.8575095" lon="16.1159987"><ele>835.0</ele><time>2026-04-25T09:52:28.777Z</time></trkpt><trkpt lat="39.8574128" lon="16.1158734"><ele>835.0</ele><time>2026-04-25T09:52:29.767Z</time></trkpt><trkpt lat="39.8572841" lon="16.1157193"><ele>835.0</ele><time>2026-04-25T09:52:30.775Z</time></trkpt><trkpt lat="39.857132" lon="16.1155351"><ele>835.3333333333333</ele><time>2026-04-25T09:52:31.78Z</time></trkpt><trkpt lat="39.8569778" lon="16.1153504"><ele>835.6666666666667</ele><time>2026-04-25T09:52:32.774Z</time></trkpt><trkpt lat="39.8568255" lon="16.1151718"><ele>836.0</ele><time>2026-04-25T09:52:33.775Z</time></trkpt><trkpt lat="39.8566561" lon="16.1149818"><ele>853.5</ele><time>2026-04-25T09:52:34.775Z</time></trkpt><trkpt lat="39.8564706" lon="16.1147915"><ele>871.0</ele><time>2026-04-25T09:52:35.779Z</time></trkpt><trkpt lat="39.8562884" lon="16.1146302"><ele>871.0</ele><time>2026-04-25T09:52:36.771Z</time></trkpt><trkpt lat="39.8561234" lon="16.1145076"><ele>871.0</ele><time>2026-04-25T09:52:37.78Z</time></trkpt><trkpt lat="39.8559768" lon="16.114433"><ele>871.0</ele><time>2026-04-25T09:52:38.775Z</time></trkpt><trkpt lat="39.8558438" lon="16.1144222"><ele>869.25</ele><time>2026-04-25T09:52:39.776Z</time></trkpt><trkpt lat="39.8557173" lon="16.1144721"><ele>867.5</ele><time>2026-04-25T09:52:40.774Z</time></trkpt><trkpt lat="39.8555964" lon="16.1145556"><ele>865.75</ele><time>2026-04-25T09:52:41.789Z</time></trkpt><trkpt lat="39.8554779" lon="16.1146301"><ele>864.0</ele><time>2026-04-25T09:52:42.784Z</time></trkpt><trkpt lat="39.8553563" lon="16.114673"><ele>864.0</ele><time>2026-04-25T09:52:43.775Z</time></trkpt><trkpt lat="39.8552291" lon="16.114677"><ele>864.0</ele><time>2026-04-25T09:52:44.785Z</time></trkpt><trkpt lat="39.8550878" lon="16.1146449"><ele>864.0</ele><time>2026-04-25T09:52:45.778Z</time></trkpt><trkpt lat="39.8549312" lon="16.1145874"><ele>864.0</ele><time>2026-04-25T09:52:46.776Z</time></trkpt><trkpt lat="39.8547623" lon="16.1145076"><ele>863.0</ele><time>2026-04-25T09:52:47.77Z</time></trkpt><trkpt lat="39.8545875" lon="16.1144069"><ele>862.0</ele><time>2026-04-25T09:52:48.78Z</time></trkpt><trkpt lat="39.8544125" lon="16.1142944"><ele>861.0</ele><time>2026-04-25T09:52:49.785Z</time></trkpt><trkpt lat="39.8542424" lon="16.1141827"><ele>861.0</ele><time>2026-04-25T09:52:50.773Z</time></trkpt><trkpt lat="39.8540722" lon="16.1140903"><ele>861.0</ele><time>2026-04-25T09:52:51.77Z</time></trkpt><trkpt lat="39.853892" lon="16.1140353"><ele>861.0</ele><time>2026-04-25T09:52:52.771Z</time></trkpt><trkpt lat="39.853696" lon="16.1140239"><ele>860.0</ele><time>2026-04-25T09:52:53.779Z</time></trkpt><trkpt lat="39.8534958" lon="16.1140373"><ele>859.0</ele><time>2026-04-25T09:52:54.777Z</time></trkpt><trkpt lat="39.8533099" lon="16.1140607"><ele>858.0</ele><time>2026-04-25T09:52:55.774Z</time></trkpt><trkpt lat="39.8531414" lon="16.1140852"><ele>858.0</ele><time>2026-04-25T09:52:56.775Z</time></trkpt><trkpt lat="39.8529892" lon="16.114111"><ele>858.0</ele><time>2026-04-25T09:52:57.778Z</time></trkpt><trkpt lat="39.8528537" lon="16.1141186"><ele>858.0</ele><time>2026-04-25T09:52:58.775Z</time></trkpt><trkpt lat="39.8527478" lon="16.1140921"><ele>858.0</ele><time>2026-04-25T09:52:59.772Z</time></trkpt><trkpt lat="39.8526783" lon="16.1140266"><ele>863.6666666666666</ele><time>2026-04-25T09:53:00.774Z</time></trkpt><trkpt lat="39.8526515" lon="16.1139393"><ele>869.3333333333333</ele><time>2026-04-25T09:53:01.779Z</time></trkpt><trkpt lat="39.8526664" lon="16.113848"><ele>875.0</ele><time>2026-04-25T09:53:02.767Z</time></trkpt><trkpt lat="39.8527171" lon="16.1137791"><ele>880.6666666666666</ele><time>2026-04-25T09:53:03.778Z</time></trkpt><trkpt lat="39.8527988" lon="16.1137489"><ele>886.3333333333333</ele><time>2026-04-25T09:53:04.774Z</time></trkpt><trkpt lat="39.852904" lon="16.1137595"><ele>892.0</ele><time>2026-04-25T09:53:05.776Z</time></trkpt><trkpt lat="39.8530337" lon="16.1138043"><ele>892.0</ele><time>2026-04-25T09:53:06.78Z</time></trkpt><trkpt lat="39.8531887" lon="16.1138496"><ele>892.0</ele><time>2026-04-25T09:53:07.776Z</time></trkpt><trkpt lat="39.8533612" lon="16.1138595"><ele>892.0</ele><time>2026-04-25T09:53:08.776Z</time></trkpt><trkpt lat="39.8535393" lon="16.1138285"><ele>896.0</ele><time>2026-04-25T09:53:09.779Z</time></trkpt><trkpt lat="39.853719" lon="16.113785"><ele>900.0</ele><time>2026-04-25T09:53:10.77Z</time></trkpt><trkpt lat="39.8539005" lon="16.1137634"><ele>904.0</ele><time>2026-04-25T09:53:11.768Z</time></trkpt><trkpt lat="39.854079" lon="16.1137755"><ele>904.0</ele><time>2026-04-25T09:53:12.785Z</time></trkpt><trkpt lat="39.8542522" lon="16.1138254"><ele>904.0</ele><time>2026-04-25T09:53:13.773Z</time></trkpt><trkpt lat="39.8544223" lon="16.1139007"><ele>904.0</ele><time>2026-04-25T09:53:14.779Z</time></trkpt><trkpt lat="39.8545923" lon="16.1139779"><ele>906.3333333333333</ele><time>2026-04-25T09:53:15.784Z</time></trkpt><trkpt lat="39.8547586" lon="16.114046"><ele>908.6666666666667</ele><time>2026-04-25T09:53:16.779Z</time></trkpt><trkpt lat="39.854921" lon="16.1140945"><ele>911.0</ele><time>2026-04-25T09:53:17.768Z</time></trkpt><trkpt lat="39.8550812" lon="16.1141074"><ele>905.6666666666667</ele><time>2026-04-25T09:53:18.775Z</time></trkpt><trkpt lat="39.8552404" lon="16.1140785"><ele>900.3333333333333</ele><time>2026-04-25T09:53:19.774Z</time></trkpt><trkpt lat="39.855405" lon="16.1140323"><ele>895.0</ele><time>2026-04-25T09:53:20.781Z</time></trkpt><trkpt lat="39.8555554" lon="16.1139125"><ele>895.0</ele><time>2026-04-25T09:53:21.785Z</time></trkpt><trkpt lat="39.8556963" lon="16.1137595"><ele>895.0</ele><time>2026-04-25T09:53:22.785Z</time></trkpt><trkpt lat="39.8558274" lon="16.1136077"><ele>895.0</ele><time>2026-04-25T09:53:23.776Z</time></trkpt><trkpt lat="39.8559497" lon="16.1134751"><ele>896.5</ele><time>2026-04-25T09:53:24.77Z</time></trkpt><trkpt lat="39.8560689" lon="16.113365"><ele>898.0</ele><time>2026-04-25T09:53:25.776Z</time></trkpt><trkpt lat="39.856186" lon="16.1132943"><ele>899.5</ele><time>2026-04-25T09:53:26.77Z</time></trkpt><trkpt lat="39.8563005" lon="16.1132729"><ele>901.0</ele><time>2026-04-25T09:53:27.772Z</time></trkpt><trkpt lat="39.8564066" lon="16.1133041"><ele>901.0</ele><time>2026-04-25T09:53:28.775Z</time></trkpt><trkpt lat="39.8565138" lon="16.1133559"><ele>901.0</ele><time>2026-04-25T09:53:29.775Z</time></trkpt><trkpt lat="39.8565899" lon="16.1134952"><ele>901.0</ele><time>2026-04-25T09:53:30.78Z</time></trkpt><trkpt lat="39.8566717" lon="16.1136456"><ele>901.0</ele><time>2026-04-25T09:53:31.79Z</time></trkpt><trkpt lat="39.8567757" lon="16.1137803"><ele>900.0</ele><time>2026-04-25T09:53:32.775Z</time></trkpt><trkpt lat="39.8569089" lon="16.113899"><ele>899.0</ele><time>2026-04-25T09:53:33.796Z</time></trkpt><trkpt lat="39.8570684" lon="16.1140029"><ele>898.0</ele><time>2026-04-25T09:53:34.768Z</time></trkpt><trkpt lat="39.8572404" lon="16.1141023"><ele>898.0</ele><time>2026-04-25T09:53:35.779Z</time></trkpt><trkpt lat="39.8574281" lon="16.114197"><ele>898.0</ele><time>2026-04-25T09:53:36.774Z</time></trkpt><trkpt lat="39.8576083" lon="16.1142828"><ele>898.0</ele><time>2026-04-25T09:53:37.778Z</time></trkpt><trkpt lat="39.8577841" lon="16.1143636"><ele>905.0</ele><time>2026-04-25T09:53:38.776Z</time></trkpt><trkpt lat="39.8579524" lon="16.1144281"><ele>912.0</ele><time>2026-04-25T09:53:39.776Z</time></trkpt><trkpt lat="39.8581124" lon="16.114476"><ele>919.0</ele><time>2026-04-25T09:53:40.783Z</time></trkpt><trkpt lat="39.8582723" lon="16.1145028"><ele>919.0</ele><time>2026-04-25T09:53:41.777Z</time></trkpt><trkpt lat="39.8584352" lon="16.114513"><ele>919.0</ele><time>2026-04-25T09:53:42.77Z</time></trkpt><trkpt lat="39.8586007" lon="16.1144995"><ele>919.0</ele><time>2026-04-25T09:53:43.776Z</time></trkpt><trkpt lat="39.8587779" lon="16.114454"><ele>916.0</ele><time>2026-04-25T09:53:44.776Z</time></trkpt><trkpt lat="39.858959" lon="16.1143819"><ele>913.0</ele><time>2026-04-25T09:53:45.764Z</time></trkpt><trkpt lat="39.8591397" lon="16.1142798"><ele>910.0</ele><time>2026-04-25T09:53:46.771Z</time></trkpt><trkpt lat="39.8593156" lon="16.1141507"><ele>914.6666666666666</ele><time>2026-04-25T09:53:47.773Z</time></trkpt><trkpt lat="39.859484" lon="16.1140078"><ele>919.3333333333333</ele><time>2026-04-25T09:53:48.769Z</time></trkpt><trkpt lat="39.8596475" lon="16.1138665"><ele>924.0</ele><time>2026-04-25T09:53:49.78Z</time></trkpt><trkpt lat="39.8598086" lon="16.1137417"><ele>924.0</ele><time>2026-04-25T09:53:50.778Z</time></trkpt><trkpt lat="39.8599684" lon="16.1136359"><ele>924.0</ele><time>2026-04-25T09:53:51.767Z</time></trkpt><trkpt lat="39.8601264" lon="16.1135536"><ele>924.0</ele><time>2026-04-25T09:53:52.773Z</time></trkpt><trkpt lat="39.8602784" lon="16.1134873"><ele>920.75</ele><time>2026-04-25T09:53:53.775Z</time></trkpt><trkpt lat="39.8604138" lon="16.1134076"><ele>917.5</ele><time>2026-04-25T09:53:54.769Z</time></trkpt><trkpt lat="39.8605251" lon="16.1132959"><ele>914.25</ele><time>2026-04-25T09:53:55.781Z</time></trkpt><trkpt lat="39.8606293" lon="16.1131747"><ele>911.0</ele><time>2026-04-25T09:53:56.776Z</time></trkpt><trkpt lat="39.8606784" lon="16.1129881"><ele>911.0</ele><time>2026-04-25T09:53:57.778Z</time></trkpt><trkpt lat="39.86071" lon="16.1127837"><ele>911.0</ele><time>2026-04-25T09:53:58.778Z</time></trkpt><trkpt lat="39.8607545" lon="16.1125812"><ele>911.0</ele><time>2026-04-25T09:53:59.773Z</time></trkpt><trkpt lat="39.8608107" lon="16.112386"><ele>914.5</ele><time>2026-04-25T09:54:00.778Z</time></trkpt><trkpt lat="39.8608652" lon="16.1121985"><ele>918.0</ele><time>2026-04-25T09:54:01.774Z</time></trkpt><trkpt lat="39.8609092" lon="16.1120242"><ele>921.5</ele><time>2026-04-25T09:54:02.78Z</time></trkpt><trkpt lat="39.8609386" lon="16.111877"><ele>925.0</ele><time>2026-04-25T09:54:03.78Z</time></trkpt><trkpt lat="39.8609543" lon="16.1117529"><ele>913.75</ele><time>2026-04-25T09:54:04.775Z</time></trkpt><trkpt lat="39.8609581" lon="16.1116306"><ele>902.5</ele><time>2026-04-25T09:54:05.782Z</time></trkpt><trkpt lat="39.8609559" lon="16.1114897"><ele>891.25</ele><time>2026-04-25T09:54:06.774Z</time></trkpt><trkpt lat="39.8609594" lon="16.1113251"><ele>880.0</ele><time>2026-04-25T09:54:07.775Z</time></trkpt><trkpt lat="39.860959" lon="16.111148"><ele>880.0</ele><time>2026-04-25T09:54:08.773Z</time></trkpt><trkpt lat="39.8609573" lon="16.1109492"><ele>880.0</ele><time>2026-04-25T09:54:09.77Z</time></trkpt><trkpt lat="39.8609478" lon="16.1107385"><ele>880.0</ele><time>2026-04-25T09:54:10.774Z</time></trkpt><trkpt lat="39.8609401" lon="16.1105239"><ele>919.0</ele><time>2026-04-25T09:54:11.774Z</time></trkpt><trkpt lat="39.8582723" lon="16.1145028"><ele>919.0</ele><time>2026-04-25T09:53:41.777Z</time></trkpt><trkpt lat="39.8584352" lon="16.114513"><ele>919.0</ele><time>2026-04-25T09:53:42.77Z</time></trkpt><trkpt lat="39.8586007" lon="16.1144995"><ele>919.0</ele><time>2026-04-25T09:53:43.776Z</time></trkpt><trkpt lat="39.8587779" lon="16.114454"><ele>916.0</ele><time>2026-04-25T09:53:44.776Z</time></trkpt><trkpt lat="39.858959" lon="16.1143819"><ele>913.0</ele><time>2026-04-25T09:53:45.764Z</time></trkpt><trkpt lat="39.8591397" lon="16.1142798"><ele>910.0</ele><time>2026-04-25T09:53:46.771Z</time></trkpt><trkpt lat="39.8593156" lon="16.1141507"><ele>914.6666666666666</ele><time>2026-04-25T09:53:47.773Z</time></trkpt><trkpt lat="39.859484" lon="16.1140078"><ele>919.3333333333333</ele><time>2026-04-25T09:53:48.769Z</time></trkpt><trkpt lat="39.8596475" lon="16.1138665"><ele>924.0</ele><time>2026-04-25T09:53:49.78Z</time></trkpt><trkpt lat="39.8598086" lon="16.1137417"><ele>924.0</ele><time>2026-04-25T09:53:50.778Z</time></trkpt><trkpt lat="39.8599684" lon="16.1136359"><ele>924.0</ele><time>2026-04-25T09:53:51.767Z</time></trkpt><trkpt lat="39.8601264" lon="16.1135536"><ele>924.0</ele><time>2026-04-25T09:53:52.773Z</time></trkpt><trkpt lat="39.8602784" lon="16.1134873"><ele>920.75</ele><time>2026-04-25T09:53:53.775Z</time></trkpt><trkpt lat="39.8604138" lon="16.1134076"><ele>917.5</ele><time>2026-04-25T09:53:54.769Z</time></trkpt><trkpt lat="39.8605251" lon="16.1132959"><ele>914.25</ele><time>2026-04-25T09:53:55.781Z</time></trkpt><trkpt lat="39.8606293" lon="16.1131747"><ele>911.0</ele><time>2026-04-25T09:53:56.776Z</time></trkpt><trkpt lat="39.8606784" lon="16.1129881"><ele>911.0</ele><time>2026-04-25T09:53:57.778Z</time></trkpt><trkpt lat="39.86071" lon="16.1127837"><ele>911.0</ele><time>2026-04-25T09:53:58.778Z</time></trkpt><trkpt lat="39.8607545" lon="16.1125812"><ele>911.0</ele><time>2026-04-25T09:53:59.773Z</time></trkpt><trkpt lat="39.8608107" lon="16.112386"><ele>914.5</ele><time>2026-04-25T09:54:00.778Z</time></trkpt><trkpt lat="39.8608652" lon="16.1121985"><ele>918.0</ele><time>2026-04-25T09:54:01.774Z</time></trkpt><trkpt lat="39.8609092" lon="16.1120242"><ele>921.5</ele><time>2026-04-25T09:54:02.78Z</time></trkpt><trkpt lat="39.8609386" lon="16.111877"><ele>925.0</ele><time>2026-04-25T09:54:03.78Z</time></trkpt><trkpt lat="39.8609543" lon="16.1117529"><ele>913.75</ele><time>2026-04-25T09:54:04.775Z</time></trkpt><trkpt lat="39.8609581" lon="16.1116306"><ele>902.5</ele><time>2026-04-25T09:54:05.782Z</time></trkpt><trkpt lat="39.8609559" lon="16.1114897"><ele>891.25</ele><time>2026-04-25T09:54:06.774Z</time></trkpt><trkpt lat="39.8609594" lon="16.1113251"><ele>880.0</ele><time>2026-04-25T09:54:07.775Z</time></trkpt><trkpt lat="39.860959" lon="16.111148"><ele>880.0</ele><time>2026-04-25T09:54:08.773Z</time></trkpt><trkpt lat="39.8609573" lon="16.1109492"><ele>880.0</ele><time>2026-04-25T09:54:09.77Z</time></trkpt><trkpt lat="39.8609478" lon="16.1107385"><ele>880.0</ele><time>2026-04-25T09:54:10.774Z</time></trkpt><trkpt lat="39.8609401" lon="16.1105239"><ele>883.0</ele><time>2026-04-25T09:54:11.774Z</time></trkpt><trkpt lat="39.8609372" lon="16.1103147"><ele>886.0</ele><time>2026-04-25T09:54:12.768Z</time></trkpt><trkpt lat="39.8609493" lon="16.1101019"><ele>889.0</ele><time>2026-04-25T09:54:13.773Z</time></trkpt><trkpt lat="39.8609876" lon="16.1098804"><ele>895.6666666666666</ele><time>2026-04-25T09:54:14.77Z</time></trkpt><trkpt lat="39.8610492" lon="16.1096426"><ele>902.3333333333333</ele><time>2026-04-25T09:54:15.764Z</time></trkpt><trkpt lat="39.861123" lon="16.1093926"><ele>909.0</ele><time>2026-04-25T09:54:16.765Z</time></trkpt><trkpt lat="39.8612059" lon="16.1091202"><ele>920.0</ele><time>2026-04-25T09:54:17.768Z</time></trkpt><trkpt lat="39.8612976" lon="16.1088322"><ele>931.0</ele><time>2026-04-25T09:54:18.772Z</time></trkpt><trkpt lat="39.8613982" lon="16.1085511"><ele>931.0</ele><time>2026-04-25T09:54:19.783Z</time></trkpt><trkpt lat="39.8615095" lon="16.1082813"><ele>931.0</ele><time>2026-04-25T09:54:20.771Z</time></trkpt><trkpt lat="39.8616235" lon="16.1080274"><ele>932.0</ele><time>2026-04-25T09:54:21.777Z</time></trkpt><trkpt lat="39.8617305" lon="16.1077803"><ele>933.0</ele><time>2026-04-25T09:54:22.775Z</time></trkpt><trkpt lat="39.8618176" lon="16.1075282"><ele>934.0</ele><time>2026-04-25T09:54:23.77Z</time></trkpt><trkpt lat="39.8618857" lon="16.1072745"><ele>934.0</ele><time>2026-04-25T09:54:24.773Z</time></trkpt><trkpt lat="39.8619362" lon="16.1070298"><ele>934.0</ele><time>2026-04-25T09:54:25.78Z</time></trkpt><trkpt lat="39.8619843" lon="16.106802"><ele>934.0</ele><time>2026-04-25T09:54:26.775Z</time></trkpt><trkpt lat="39.862029" lon="16.1066022"><ele>943.0</ele><time>2026-04-25T09:54:27.766Z</time></trkpt><trkpt lat="39.8620895" lon="16.106444"><ele>952.0</ele><time>2026-04-25T09:54:28.777Z</time></trkpt><trkpt lat="39.8621707" lon="16.1063295"><ele>961.0</ele><time>2026-04-25T09:54:29.783Z</time></trkpt><trkpt lat="39.8622776" lon="16.1062589"><ele>970.0</ele><time>2026-04-25T09:54:30.769Z</time></trkpt><trkpt lat="39.8624021" lon="16.1062178"><ele>970.0</ele><time>2026-04-25T09:54:31.773Z</time></trkpt><trkpt lat="39.8625378" lon="16.1061888"><ele>970.0</ele><time>2026-04-25T09:54:32.773Z</time></trkpt><trkpt lat="39.8626783" lon="16.1061368"><ele>970.0</ele><time>2026-04-25T09:54:33.775Z</time></trkpt><trkpt lat="39.8628148" lon="16.1060518"><ele>970.0</ele><time>2026-04-25T09:54:34.772Z</time></trkpt><trkpt lat="39.862956" lon="16.1059229"><ele>974.3333333333333</ele><time>2026-04-25T09:54:35.785Z</time></trkpt><trkpt lat="39.8631064" lon="16.1057728"><ele>978.6666666666667</ele><time>2026-04-25T09:54:36.77Z</time></trkpt><trkpt lat="39.8632631" lon="16.1055757"><ele>983.0</ele><time>2026-04-25T09:54:37.774Z</time></trkpt><trkpt lat="39.8634264" lon="16.1053608"><ele>979.5</ele><time>2026-04-25T09:54:38.77Z</time></trkpt><trkpt lat="39.8636007" lon="16.1051389"><ele>976.0</ele><time>2026-04-25T09:54:39.772Z</time></trkpt><trkpt lat="39.8637796" lon="16.10491"><ele>976.0</ele><time>2026-04-25T09:54:40.776Z</time></trkpt><trkpt lat="39.8639606" lon="16.1046817"><ele>976.0</ele><time>2026-04-25T09:54:41.779Z</time></trkpt><trkpt lat="39.8641465" lon="16.1044491"><ele>973.5</ele><time>2026-04-25T09:54:42.781Z</time></trkpt><trkpt lat="39.8643285" lon="16.1042216"><ele>971.0</ele><time>2026-04-25T09:54:43.784Z</time></trkpt><trkpt lat="39.8645047" lon="16.1040017"><ele>971.0</ele><time>2026-04-25T09:54:44.777Z</time></trkpt><trkpt lat="39.8646686" lon="16.1037919"><ele>971.0</ele><time>2026-04-25T09:54:45.777Z</time></trkpt><trkpt lat="39.8648189" lon="16.1035931"><ele>971.0</ele><time>2026-04-25T09:54:46.77Z</time></trkpt><trkpt lat="39.8649568" lon="16.1033917"><ele>976.3333333333334</ele><time>2026-04-25T09:54:47.771Z</time></trkpt><trkpt lat="39.8650774" lon="16.1031754"><ele>981.6666666666667</ele><time>2026-04-25T09:54:48.783Z</time></trkpt><trkpt lat="39.8651789" lon="16.1029524"><ele>987.0</ele><time>2026-04-25T09:54:49.778Z</time></trkpt><trkpt lat="39.865261" lon="16.1027354"><ele>978.5</ele><time>2026-04-25T09:54:50.779Z</time></trkpt><trkpt lat="39.8653197" lon="16.1025355"><ele>970.0</ele><time>2026-04-25T09:54:51.772Z</time></trkpt><trkpt lat="39.8653428" lon="16.1023568"><ele>961.5</ele><time>2026-04-25T09:54:52.772Z</time></trkpt><trkpt lat="39.8653244" lon="16.1022009"><ele>953.0</ele><time>2026-04-25T09:54:53.776Z</time></trkpt><trkpt lat="39.8652664" lon="16.1020615"><ele>953.0</ele><time>2026-04-25T09:54:54.769Z</time></trkpt><trkpt lat="39.865177" lon="16.1019263"><ele>953.0</ele><time>2026-04-25T09:54:55.782Z</time></trkpt><trkpt lat="39.8650748" lon="16.1017826"><ele>953.0</ele><time>2026-04-25T09:54:56.782Z</time></trkpt><trkpt lat="39.8649683" lon="16.1016381"><ele>953.0</ele><time>2026-04-25T09:54:57.785Z</time></trkpt><trkpt lat="39.8648563" lon="16.1014988"><ele>958.3333333333334</ele><time>2026-04-25T09:54:58.775Z</time></trkpt><trkpt lat="39.864729" lon="16.1013858"><ele>963.6666666666667</ele><time>2026-04-25T09:54:59.772Z</time></trkpt><trkpt lat="39.8645813" lon="16.1013047"><ele>969.0</ele><time>2026-04-25T09:55:00.779Z</time></trkpt><trkpt lat="39.8644233" lon="16.1012447"><ele>973.3333333333333</ele><time>2026-04-25T09:55:01.773Z</time></trkpt><trkpt lat="39.8642614" lon="16.1011848"><ele>977.6666666666666</ele><time>2026-04-25T09:55:02.778Z</time></trkpt><trkpt lat="39.8640994" lon="16.1011037"><ele>982.0</ele><time>2026-04-25T09:55:03.773Z</time></trkpt><trkpt lat="39.8639429" lon="16.1009926"><ele>982.0</ele><time>2026-04-25T09:55:04.775Z</time></trkpt><trkpt lat="39.8637939" lon="16.1008658"><ele>982.0</ele><time>2026-04-25T09:55:05.777Z</time></trkpt><trkpt lat="39.8636478" lon="16.1007447"><ele>982.0</ele><time>2026-04-25T09:55:06.771Z</time></trkpt><trkpt lat="39.8635009" lon="16.1006296"><ele>980.6666666666666</ele><time>2026-04-25T09:55:07.775Z</time></trkpt><trkpt lat="39.8633494" lon="16.1005448"><ele>979.3333333333333</ele><time>2026-04-25T09:55:08.771Z</time></trkpt><trkpt lat="39.8631881" lon="16.1004999"><ele>978.0</ele><time>2026-04-25T09:55:09.77Z</time></trkpt><trkpt lat="39.8630338" lon="16.1005068"><ele>978.0</ele><time>2026-04-25T09:55:10.774Z</time></trkpt><trkpt lat="39.8628909" lon="16.100561"><ele>978.0</ele><time>2026-04-25T09:55:11.772Z</time></trkpt><trkpt lat="39.8627615" lon="16.1006444"><ele>978.0</ele><time>2026-04-25T09:55:12.773Z</time></trkpt><trkpt lat="39.8626433" lon="16.1007389"><ele>978.0</ele><time>2026-04-25T09:55:13.783Z</time></trkpt><trkpt lat="39.8625223" lon="16.1008124"><ele>979.5</ele><time>2026-04-25T09:55:14.77Z</time></trkpt><trkpt lat="39.8623965" lon="16.1008511"><ele>981.0</ele><time>2026-04-25T09:55:15.777Z</time></trkpt><trkpt lat="39.8622649" lon="16.1008412"><ele>982.5</ele><time>2026-04-25T09:55:16.776Z</time></trkpt><trkpt lat="39.8621306" lon="16.1007793"><ele>984.0</ele><time>2026-04-25T09:55:17.771Z</time></trkpt><trkpt lat="39.8619945" lon="16.1006755"><ele>984.0</ele><time>2026-04-25T09:55:18.774Z</time></trkpt><trkpt lat="39.8618592" lon="16.1005522"><ele>984.0</ele><time>2026-04-25T09:55:19.773Z</time></trkpt><trkpt lat="39.8617292" lon="16.1004189"><ele>984.0</ele><time>2026-04-25T09:55:20.778Z</time></trkpt><trkpt lat="39.8616109" lon="16.1002733"><ele>989.0</ele><time>2026-04-25T09:55:21.778Z</time></trkpt><trkpt lat="39.8615119" lon="16.1001036"><ele>994.0</ele><time>2026-04-25T09:55:22.775Z</time></trkpt><trkpt lat="39.8614376" lon="16.0999136"><ele>999.0</ele><time>2026-04-25T09:55:23.77Z</time></trkpt><trkpt lat="39.8613882" lon="16.0997028"><ele>999.0</ele><time>2026-04-25T09:55:24.775Z</time></trkpt><trkpt lat="39.8613479" lon="16.09947"><ele>999.0</ele><time>2026-04-25T09:55:25.784Z</time></trkpt><trkpt lat="39.8612984" lon="16.0992211"><ele>999.0</ele><time>2026-04-25T09:55:26.773Z</time></trkpt><trkpt lat="39.8612372" lon="16.0989674"><ele>1002.3333333333333</ele><time>2026-04-25T09:55:27.791Z</time></trkpt><trkpt lat="39.8611732" lon="16.0987102"><ele>1005.6666666666666</ele><time>2026-04-25T09:55:28.773Z</time></trkpt><trkpt lat="39.8611054" lon="16.0984659"><ele>1009.0</ele><time>2026-04-25T09:55:29.778Z</time></trkpt><trkpt lat="39.861042" lon="16.0982258"><ele>1016.0</ele><time>2026-04-25T09:55:30.773Z</time></trkpt><trkpt lat="39.8609732" lon="16.0979963"><ele>1023.0</ele><time>2026-04-25T09:55:31.772Z</time></trkpt><trkpt lat="39.8608922" lon="16.0977648"><ele>1030.0</ele><time>2026-04-25T09:55:32.77Z</time></trkpt><trkpt lat="39.8607996" lon="16.0975297"><ele>1036.0</ele><time>2026-04-25T09:55:33.777Z</time></trkpt><trkpt lat="39.8607005" lon="16.0972925"><ele>1042.0</ele><time>2026-04-25T09:55:34.77Z</time></trkpt><trkpt lat="39.8605916" lon="16.0970407"><ele>1048.0</ele><time>2026-04-25T09:55:35.769Z</time></trkpt><trkpt lat="39.8602143" lon="16.096209"><ele>1044.3333333333333</ele><time>2026-04-25T09:55:38.772Z</time></trkpt><trkpt lat="39.8600687" lon="16.0959673"><ele>1040.6666666666667</ele><time>2026-04-25T09:55:39.772Z</time></trkpt><trkpt lat="39.8599846" lon="16.0957534"><ele>1037.0</ele><time>2026-04-25T09:55:40.77Z</time></trkpt><trkpt lat="39.8599036" lon="16.0955704"><ele>1035.25</ele><time>2026-04-25T09:55:41.763Z</time></trkpt><trkpt lat="39.8598379" lon="16.0954106"><ele>1033.5</ele><time>2026-04-25T09:55:42.778Z</time></trkpt><trkpt lat="39.8597806" lon="16.0952871"><ele>1031.75</ele><time>2026-04-25T09:55:43.775Z</time></trkpt><trkpt lat="39.8597186" lon="16.0951407"><ele>1030.0</ele><time>2026-04-25T09:55:44.773Z</time></trkpt><trkpt lat="39.8596671" lon="16.0949894"><ele>1029.75</ele><time>2026-04-25T09:55:45.767Z</time></trkpt><trkpt lat="39.8596273" lon="16.0948226"><ele>1029.5</ele><time>2026-04-25T09:55:46.775Z</time></trkpt><trkpt lat="39.859608" lon="16.0946423"><ele>1029.25</ele><time>2026-04-25T09:55:47.772Z</time></trkpt><trkpt lat="39.8596062" lon="16.094447"><ele>1029.0</ele><time>2026-04-25T09:55:48.774Z</time></trkpt><trkpt lat="39.8596198" lon="16.0942414"><ele>1026.6666666666667</ele><time>2026-04-25T09:55:49.782Z</time></trkpt><trkpt lat="39.8596402" lon="16.0940361"><ele>1024.3333333333335</ele><time>2026-04-25T09:55:50.774Z</time></trkpt><trkpt lat="39.8596952" lon="16.0938191"><ele>1022.0</ele><time>2026-04-25T09:55:51.779Z</time></trkpt><trkpt lat="39.8597618" lon="16.0936123"><ele>1022.0</ele><time>2026-04-25T09:55:52.782Z</time></trkpt><trkpt lat="39.8598301" lon="16.0933989"><ele>1022.0</ele><time>2026-04-25T09:55:53.777Z</time></trkpt><trkpt lat="39.8598998" lon="16.0931838"><ele>1022.0</ele><time>2026-04-25T09:55:54.772Z</time></trkpt><trkpt lat="39.8599733" lon="16.0929685"><ele>1020.6666666666667</ele><time>2026-04-25T09:55:55.778Z</time></trkpt><trkpt lat="39.8600542" lon="16.0927452"><ele>1019.3333333333333</ele><time>2026-04-25T09:55:56.773Z</time></trkpt><trkpt lat="39.8601424" lon="16.0925127"><ele>1018.0</ele><time>2026-04-25T09:55:57.779Z</time></trkpt><trkpt lat="39.8602353" lon="16.0922787"><ele>1018.0</ele><time>2026-04-25T09:55:58.774Z</time></trkpt><trkpt lat="39.8603328" lon="16.0920394"><ele>1018.0</ele><time>2026-04-25T09:55:59.778Z</time></trkpt><trkpt lat="39.8604332" lon="16.0917973"><ele>1018.0</ele><time>2026-04-25T09:56:00.77Z</time></trkpt><trkpt lat="39.8605352" lon="16.0915471"><ele>1014.6666666666666</ele><time>2026-04-25T09:56:01.777Z</time></trkpt><trkpt lat="39.8606355" lon="16.0912904"><ele>1011.3333333333333</ele><time>2026-04-25T09:56:02.778Z</time></trkpt><trkpt lat="39.8607297" lon="16.0910304"><ele>1008.0</ele><time>2026-04-25T09:56:03.791Z</time></trkpt><trkpt lat="39.8608147" lon="16.0907622"><ele>1007.6666666666667</ele><time>2026-04-25T09:56:04.769Z</time></trkpt><trkpt lat="39.86089" lon="16.0904913"><ele>1007.3333333333334</ele><time>2026-04-25T09:56:05.772Z</time></trkpt><trkpt lat="39.860961" lon="16.0902218"><ele>1007.0</ele><time>2026-04-25T09:56:06.78Z</time></trkpt><trkpt lat="39.8610307" lon="16.0899546"><ele>1006.3333333333334</ele><time>2026-04-25T09:56:07.779Z</time></trkpt><trkpt lat="39.8611029" lon="16.0896911"><ele>1005.6666666666667</ele><time>2026-04-25T09:56:08.774Z</time></trkpt><trkpt lat="39.8611763" lon="16.089433"><ele>1005.0</ele><time>2026-04-25T09:56:09.769Z</time></trkpt><trkpt lat="39.8612492" lon="16.0891807"><ele>1005.0</ele><time>2026-04-25T09:56:10.774Z</time></trkpt><trkpt lat="39.8613236" lon="16.0889382"><ele>1005.0</ele><time>2026-04-25T09:56:11.773Z</time></trkpt><trkpt lat="39.8613999" lon="16.0887078"><ele>1005.0</ele><time>2026-04-25T09:56:12.767Z</time></trkpt><trkpt lat="39.861477" lon="16.0884884"><ele>1005.0</ele><time>2026-04-25T09:56:13.785Z</time></trkpt><trkpt lat="39.8615551" lon="16.0882832"><ele>1005.0</ele><time>2026-04-25T09:56:14.781Z</time></trkpt><trkpt lat="39.8616276" lon="16.0880845"><ele>1005.0</ele><time>2026-04-25T09:56:15.791Z</time></trkpt><trkpt lat="39.8616967" lon="16.0878794"><ele>1005.0</ele><time>2026-04-25T09:56:16.782Z</time></trkpt><trkpt lat="39.8617668" lon="16.0876888"><ele>1005.0</ele><time>2026-04-25T09:56:17.783Z</time></trkpt><trkpt lat="39.8618438" lon="16.0875112"><ele>1005.0</ele><time>2026-04-25T09:56:18.775Z</time></trkpt><trkpt lat="39.8619337" lon="16.0873312"><ele>1004.3333333333333</ele><time>2026-04-25T09:56:19.779Z</time></trkpt><trkpt lat="39.8620364" lon="16.0871712"><ele>1003.6666666666666</ele><time>2026-04-25T09:56:20.778Z</time></trkpt><trkpt lat="39.8621558" lon="16.0870242"><ele>1003.0</ele><time>2026-04-25T09:56:21.781Z</time></trkpt><trkpt lat="39.862277" lon="16.0868924"><ele>1003.0</ele><time>2026-04-25T09:56:22.779Z</time></trkpt><trkpt lat="39.8623917" lon="16.0867677"><ele>1003.0</ele><time>2026-04-25T09:56:23.774Z</time></trkpt><trkpt lat="39.8624866" lon="16.0866305"><ele>1003.0</ele><time>2026-04-25T09:56:24.766Z</time></trkpt><trkpt lat="39.8625676" lon="16.0864689"><ele>1003.0</ele><time>2026-04-25T09:56:25.785Z</time></trkpt><trkpt lat="39.8626417" lon="16.0862734"><ele>1002.6666666666666</ele><time>2026-04-25T09:56:26.773Z</time></trkpt><trkpt lat="39.8627209" lon="16.0860661"><ele>1002.3333333333333</ele><time>2026-04-25T09:56:27.775Z</time></trkpt><trkpt lat="39.8627994" lon="16.08585"><ele>1002.0</ele><time>2026-04-25T09:56:28.775Z</time></trkpt><trkpt lat="39.8628781" lon="16.0856325"><ele>1001.6666666666667</ele><time>2026-04-25T09:56:29.781Z</time></trkpt><trkpt lat="39.8629602" lon="16.0853964"><ele>1001.3333333333334</ele><time>2026-04-25T09:56:30.771Z</time></trkpt><trkpt lat="39.8630251" lon="16.0851445"><ele>1001.0</ele><time>2026-04-25T09:56:31.776Z</time></trkpt><trkpt lat="39.8630833" lon="16.0848913"><ele>1001.0</ele><time>2026-04-25T09:56:32.771Z</time></trkpt><trkpt lat="39.8631096" lon="16.0846176"><ele>1001.0</ele><time>2026-04-25T09:56:33.78Z</time></trkpt><trkpt lat="39.86312" lon="16.0843435"><ele>1001.0</ele><time>2026-04-25T09:56:34.77Z</time></trkpt><trkpt lat="39.8631212" lon="16.0840719"><ele>1001.0</ele><time>2026-04-25T09:56:35.772Z</time></trkpt><trkpt lat="39.8631204" lon="16.0837992"><ele>1001.0</ele><time>2026-04-25T09:56:36.779Z</time></trkpt><trkpt lat="39.8631227" lon="16.0835247"><ele>1001.0</ele><time>2026-04-25T09:56:37.779Z</time></trkpt><trkpt lat="39.8631336" lon="16.0832594"><ele>1000.3333333333334</ele><time>2026-04-25T09:56:38.78Z</time></trkpt><trkpt lat="39.8631543" lon="16.0829961"><ele>999.6666666666667</ele><time>2026-04-25T09:56:39.782Z</time></trkpt><trkpt lat="39.8631862" lon="16.082734"><ele>999.0</ele><time>2026-04-25T09:56:40.775Z</time></trkpt><trkpt lat="39.8632283" lon="16.0824699"><ele>997.6666666666667</ele><time>2026-04-25T09:56:41.777Z</time></trkpt><trkpt lat="39.8632809" lon="16.082209"><ele>996.3333333333334</ele><time>2026-04-25T09:56:42.778Z</time></trkpt><trkpt lat="39.863341" lon="16.0819597"><ele>995.0</ele><time>2026-04-25T09:56:43.78Z</time></trkpt><trkpt lat="39.8634134" lon="16.0817283"><ele>995.3333333333334</ele><time>2026-04-25T09:56:44.78Z</time></trkpt><trkpt lat="39.8634985" lon="16.0815085"><ele>995.6666666666667</ele><time>2026-04-25T09:56:45.777Z</time></trkpt><trkpt lat="39.8635909" lon="16.0812928"><ele>996.0</ele><time>2026-04-25T09:56:46.774Z</time></trkpt><trkpt lat="39.8636835" lon="16.0810765"><ele>996.0</ele><time>2026-04-25T09:56:47.776Z</time></trkpt><trkpt lat="39.8637777" lon="16.080862"><ele>996.0</ele><time>2026-04-25T09:56:48.773Z</time></trkpt><trkpt lat="39.863878" lon="16.0806472"><ele>996.0</ele><time>2026-04-25T09:56:49.788Z</time></trkpt><trkpt lat="39.8639908" lon="16.080428"><ele>994.6666666666667</ele><time>2026-04-25T09:56:50.778Z</time></trkpt><trkpt lat="39.8641207" lon="16.0802064"><ele>993.3333333333334</ele><time>2026-04-25T09:56:51.78Z</time></trkpt><trkpt lat="39.864267" lon="16.0799865"><ele>992.0</ele><time>2026-04-25T09:56:52.768Z</time></trkpt><trkpt lat="39.8644182" lon="16.0797691"><ele>991.3333333333334</ele><time>2026-04-25T09:56:53.771Z</time></trkpt><trkpt lat="39.8645708" lon="16.0795549"><ele>990.6666666666667</ele><time>2026-04-25T09:56:54.772Z</time></trkpt><trkpt lat="39.8647248" lon="16.0793455"><ele>990.0</ele><time>2026-04-25T09:56:55.776Z</time></trkpt><trkpt lat="39.8648792" lon="16.0791394"><ele>987.6666666666667</ele><time>2026-04-25T09:56:56.769Z</time></trkpt><trkpt lat="39.8650332" lon="16.078935"><ele>985.3333333333334</ele><time>2026-04-25T09:56:57.77Z</time></trkpt><trkpt lat="39.8651861" lon="16.0787306"><ele>983.0</ele><time>2026-04-25T09:56:58.772Z</time></trkpt><trkpt lat="39.8653376" lon="16.0785274"><ele>982.3333333333334</ele><time>2026-04-25T09:56:59.782Z</time></trkpt><trkpt lat="39.865491" lon="16.0783267"><ele>981.6666666666667</ele><time>2026-04-25T09:57:00.772Z</time></trkpt><trkpt lat="39.8656461" lon="16.078129"><ele>981.0</ele><time>2026-04-25T09:57:01.784Z</time></trkpt><trkpt lat="39.8658007" lon="16.0779321"><ele>979.3333333333333</ele><time>2026-04-25T09:57:02.774Z</time></trkpt><trkpt lat="39.8659528" lon="16.0777354"><ele>977.6666666666666</ele><time>2026-04-25T09:57:03.782Z</time></trkpt><trkpt lat="39.8661029" lon="16.0775378"><ele>976.0</ele><time>2026-04-25T09:57:04.776Z</time></trkpt><trkpt lat="39.866252" lon="16.0773402"><ele>975.3333333333333</ele><time>2026-04-25T09:57:05.769Z</time></trkpt><trkpt lat="39.8664029" lon="16.0771431"><ele>974.6666666666667</ele><time>2026-04-25T09:57:06.773Z</time></trkpt><trkpt lat="39.8665539" lon="16.0769449"><ele>974.0</ele><time>2026-04-25T09:57:07.768Z</time></trkpt><trkpt lat="39.8667038" lon="16.0767462"><ele>972.3333333333334</ele><time>2026-04-25T09:57:08.768Z</time></trkpt><trkpt lat="39.8668522" lon="16.0765546"><ele>970.6666666666667</ele><time>2026-04-25T09:57:09.772Z</time></trkpt><trkpt lat="39.8670021" lon="16.0763578"><ele>969.0</ele><time>2026-04-25T09:57:10.775Z</time></trkpt><trkpt lat="39.867145" lon="16.0761595"><ele>969.0</ele><time>2026-04-25T09:57:11.769Z</time></trkpt><trkpt lat="39.8672891" lon="16.0759609"><ele>969.0</ele><time>2026-04-25T09:57:12.771Z</time></trkpt><trkpt lat="39.8674198" lon="16.0757543"><ele>969.0</ele><time>2026-04-25T09:57:13.766Z</time></trkpt><trkpt lat="39.8675435" lon="16.0755413"><ele>969.3333333333333</ele><time>2026-04-25T09:57:14.769Z</time></trkpt><trkpt lat="39.8676632" lon="16.0753283"><ele>969.6666666666666</ele><time>2026-04-25T09:57:15.771Z</time></trkpt><trkpt lat="39.867777" lon="16.0751155"><ele>970.0</ele><time>2026-04-25T09:57:16.768Z</time></trkpt><trkpt lat="39.8678904" lon="16.0749081"><ele>970.0</ele><time>2026-04-25T09:57:17.774Z</time></trkpt><trkpt lat="39.8679988" lon="16.0747078"><ele>970.0</ele><time>2026-04-25T09:57:18.771Z</time></trkpt><trkpt lat="39.8681" lon="16.0745199"><ele>970.0</ele><time>2026-04-25T09:57:19.768Z</time></trkpt><trkpt lat="39.8682043" lon="16.0743342"><ele>970.0</ele><time>2026-04-25T09:57:20.779Z</time></trkpt><trkpt lat="39.8683059" lon="16.0741576"><ele>970.0</ele><time>2026-04-25T09:57:21.773Z</time></trkpt><trkpt lat="39.8684072" lon="16.0739828"><ele>970.0</ele><time>2026-04-25T09:57:22.764Z</time></trkpt><trkpt lat="39.8684972" lon="16.0738218"><ele>970.2</ele><time>2026-04-25T09:57:23.777Z</time></trkpt><trkpt lat="39.8685883" lon="16.0736865"><ele>970.4</ele><time>2026-04-25T09:57:24.771Z</time></trkpt><trkpt lat="39.8686749" lon="16.0735854"><ele>970.5999999999999</ele><time>2026-04-25T09:57:25.77Z</time></trkpt><trkpt lat="39.8687613" lon="16.073516"><ele>970.8</ele><time>2026-04-25T09:57:26.772Z</time></trkpt><trkpt lat="39.8688399" lon="16.0734646"><ele>971.0</ele><time>2026-04-25T09:57:27.781Z</time></trkpt><trkpt lat="39.8688976" lon="16.0733969"><ele>971.0000000000001</ele><time>2026-04-25T09:57:28.77Z</time></trkpt><trkpt lat="39.8689236" lon="16.0733045"><ele>971.0</ele><time>2026-04-25T09:57:29.769Z</time></trkpt><trkpt lat="39.8689319" lon="16.0731995"><ele>971.0</ele><time>2026-04-25T09:57:30.775Z</time></trkpt><trkpt lat="39.8689445" lon="16.0730867"><ele>971.0</ele><time>2026-04-25T09:57:31.777Z</time></trkpt><trkpt lat="39.8689714" lon="16.0729807"><ele>971.0000000000001</ele><time>2026-04-25T09:57:32.778Z</time></trkpt><trkpt lat="39.869004" lon="16.0728936"><ele>971.0</ele><time>2026-04-25T09:57:33.767Z</time></trkpt><trkpt lat="39.8690565" lon="16.0727716"><ele>971.0</ele><time>2026-04-25T09:57:35.775Z</time></trkpt><trkpt lat="39.8690949" lon="16.0726844"><ele>970.9999999999999</ele><time>2026-04-25T09:57:37.766Z</time></trkpt><trkpt lat="39.8691342" lon="16.0726012"><ele>970.9999999999999</ele><time>2026-04-25T09:57:38.784Z</time></trkpt><trkpt lat="39.8691983" lon="16.072479"><ele>971.0</ele><time>2026-04-25T09:57:39.778Z</time></trkpt><trkpt lat="39.8692817" lon="16.0723238"><ele>971.0</ele><time>2026-04-25T09:57:40.77Z</time></trkpt><trkpt lat="39.869389" lon="16.0721217"><ele>972.0</ele><time>2026-04-25T09:57:41.778Z</time></trkpt><trkpt lat="39.8695186" lon="16.0718853"><ele>973.0</ele><time>2026-04-25T09:57:42.779Z</time></trkpt><trkpt lat="39.8696662" lon="16.0716324"><ele>972.5</ele><time>2026-04-25T09:57:43.771Z</time></trkpt><trkpt lat="39.8698249" lon="16.0713842"><ele>972.0</ele><time>2026-04-25T09:57:44.772Z</time></trkpt><trkpt lat="39.8699978" lon="16.0711446"><ele>973.0</ele><time>2026-04-25T09:57:45.777Z</time></trkpt><trkpt lat="39.8701897" lon="16.0709153"><ele>974.0</ele><time>2026-04-25T09:57:46.764Z</time></trkpt><trkpt lat="39.870382" lon="16.0707076"><ele>972.6666666666667</ele><time>2026-04-25T09:57:47.772Z</time></trkpt><trkpt lat="39.8705656" lon="16.0705202"><ele>971.3333333333333</ele><time>2026-04-25T09:57:48.783Z</time></trkpt><trkpt lat="39.8707351" lon="16.070351"><ele>970.0</ele><time>2026-04-25T09:57:49.769Z</time></trkpt><trkpt lat="39.8709042" lon="16.0701881"><ele>970.6666666666666</ele><time>2026-04-25T09:57:50.774Z</time></trkpt><trkpt lat="39.87105" lon="16.0700046"><ele>971.3333333333333</ele><time>2026-04-25T09:57:51.775Z</time></trkpt><trkpt lat="39.8711838" lon="16.0698172"><ele>972.0</ele><time>2026-04-25T09:57:52.774Z</time></trkpt><trkpt lat="39.8713125" lon="16.0696215"><ele>972.0</ele><time>2026-04-25T09:57:53.77Z</time></trkpt><trkpt lat="39.8714379" lon="16.0694245"><ele>972.0</ele><time>2026-04-25T09:57:54.771Z</time></trkpt><trkpt lat="39.871563" lon="16.0692305"><ele>972.0</ele><time>2026-04-25T09:57:55.769Z</time></trkpt><trkpt lat="39.8716897" lon="16.0690385"><ele>974.3333333333333</ele><time>2026-04-25T09:57:56.768Z</time></trkpt><trkpt lat="39.871817" lon="16.0688448"><ele>976.6666666666666</ele><time>2026-04-25T09:57:57.774Z</time></trkpt><trkpt lat="39.8719402" lon="16.0686517"><ele>979.0</ele><time>2026-04-25T09:57:58.769Z</time></trkpt><trkpt lat="39.8720676" lon="16.0684651"><ele>979.0</ele><time>2026-04-25T09:57:59.767Z</time></trkpt><trkpt lat="39.8722073" lon="16.0682951"><ele>979.0</ele><time>2026-04-25T09:58:00.773Z</time></trkpt><trkpt lat="39.8723576" lon="16.0681459"><ele>979.0</ele><time>2026-04-25T09:58:01.771Z</time></trkpt><trkpt lat="39.8725153" lon="16.0680156"><ele>978.3333333333333</ele><time>2026-04-25T09:58:02.762Z</time></trkpt><trkpt lat="39.8726731" lon="16.0678921"><ele>977.6666666666667</ele><time>2026-04-25T09:58:03.776Z</time></trkpt><trkpt lat="39.8728269" lon="16.0677711"><ele>977.0</ele><time>2026-04-25T09:58:04.765Z</time></trkpt><trkpt lat="39.8729701" lon="16.0676415"><ele>977.0</ele><time>2026-04-25T09:58:05.773Z</time></trkpt><trkpt lat="39.8731184" lon="16.0675172"><ele>977.0</ele><time>2026-04-25T09:58:06.778Z</time></trkpt><trkpt lat="39.8732703" lon="16.0673948"><ele>977.0</ele><time>2026-04-25T09:58:07.775Z</time></trkpt><trkpt lat="39.8734211" lon="16.067271"><ele>975.6666666666667</ele><time>2026-04-25T09:58:08.779Z</time></trkpt><trkpt lat="39.8735722" lon="16.0671427"><ele>974.3333333333333</ele><time>2026-04-25T09:58:09.783Z</time></trkpt><trkpt lat="39.873727" lon="16.067002"><ele>973.0</ele><time>2026-04-25T09:58:10.769Z</time></trkpt><trkpt lat="39.8738844" lon="16.0668452"><ele>973.0</ele><time>2026-04-25T09:58:11.773Z</time></trkpt><trkpt lat="39.874031" lon="16.066697"><ele>973.0</ele><time>2026-04-25T09:58:12.767Z</time></trkpt><trkpt lat="39.8741688" lon="16.0665597"><ele>973.0</ele><time>2026-04-25T09:58:13.773Z</time></trkpt><trkpt lat="39.8743012" lon="16.0664367"><ele>973.25</ele><time>2026-04-25T09:58:14.776Z</time></trkpt><trkpt lat="39.874419" lon="16.0663219"><ele>973.5</ele><time>2026-04-25T09:58:15.784Z</time></trkpt><trkpt lat="39.8745246" lon="16.0662217"><ele>973.75</ele><time>2026-04-25T09:58:16.789Z</time></trkpt><trkpt lat="39.8746301" lon="16.0661466"><ele>974.0</ele><time>2026-04-25T09:58:17.775Z</time></trkpt><trkpt lat="39.8747437" lon="16.06609"><ele>974.0</ele><time>2026-04-25T09:58:18.774Z</time></trkpt><trkpt lat="39.8748729" lon="16.0660433"><ele>974.0</ele><time>2026-04-25T09:58:19.774Z</time></trkpt><trkpt lat="39.8750217" lon="16.0660068"><ele>974.0</ele><time>2026-04-25T09:58:20.776Z</time></trkpt><trkpt lat="39.8751809" lon="16.0660007"><ele>974.0</ele><time>2026-04-25T09:58:21.773Z</time></trkpt><trkpt lat="39.8753388" lon="16.0660326"><ele>974.3333333333334</ele><time>2026-04-25T09:58:22.77Z</time></trkpt><trkpt lat="39.8755046" lon="16.0661091"><ele>974.6666666666667</ele><time>2026-04-25T09:58:23.781Z</time></trkpt><trkpt lat="39.8756822" lon="16.0662311"><ele>975.0</ele><time>2026-04-25T09:58:24.771Z</time></trkpt><trkpt lat="39.8758618" lon="16.0663866"><ele>976.0</ele><time>2026-04-25T09:58:25.774Z</time></trkpt><trkpt lat="39.8760414" lon="16.0665493"><ele>977.0</ele><time>2026-04-25T09:58:26.776Z</time></trkpt><trkpt lat="39.8762111" lon="16.0667091"><ele>978.0</ele><time>2026-04-25T09:58:27.79Z</time></trkpt><trkpt lat="39.8763706" lon="16.0668588"><ele>978.5</ele><time>2026-04-25T09:58:28.775Z</time></trkpt><trkpt lat="39.8765088" lon="16.0669671"><ele>979.0</ele><time>2026-04-25T09:58:29.773Z</time></trkpt><trkpt lat="39.8766296" lon="16.0670447"><ele>979.5</ele><time>2026-04-25T09:58:30.777Z</time></trkpt><trkpt lat="39.8767617" lon="16.0670834"><ele>980.0</ele><time>2026-04-25T09:58:31.773Z</time></trkpt><trkpt lat="39.8768827" lon="16.0671233"><ele>981.0</ele><time>2026-04-25T09:58:32.769Z</time></trkpt><trkpt lat="39.8770146" lon="16.0670943"><ele>982.0</ele><time>2026-04-25T09:58:33.772Z</time></trkpt><trkpt lat="39.8771219" lon="16.067031"><ele>983.0</ele><time>2026-04-25T09:58:34.768Z</time></trkpt><trkpt lat="39.8772166" lon="16.0669348"><ele>984.0</ele><time>2026-04-25T09:58:35.78Z</time></trkpt><trkpt lat="39.8773035" lon="16.0668076"><ele>984.0</ele><time>2026-04-25T09:58:36.763Z</time></trkpt><trkpt lat="39.8773665" lon="16.0666723"><ele>984.0</ele><time>2026-04-25T09:58:37.781Z</time></trkpt><trkpt lat="39.8774183" lon="16.0665251"><ele>984.0</ele><time>2026-04-25T09:58:38.775Z</time></trkpt><trkpt lat="39.877458" lon="16.0663749"><ele>984.0</ele><time>2026-04-25T09:58:39.777Z</time></trkpt><trkpt lat="39.8774927" lon="16.066224"><ele>984.0</ele><time>2026-04-25T09:58:40.775Z</time></trkpt><trkpt lat="39.8775278" lon="16.0660752"><ele>984.0</ele><time>2026-04-25T09:58:41.782Z</time></trkpt><trkpt lat="39.8775662" lon="16.0659291"><ele>984.0</ele><time>2026-04-25T09:58:42.777Z</time></trkpt><trkpt lat="39.877602" lon="16.0657854"><ele>984.0</ele><time>2026-04-25T09:58:43.77Z</time></trkpt><trkpt lat="39.8776367" lon="16.0656417"><ele>985.4000000000001</ele><time>2026-04-25T09:58:44.771Z</time></trkpt><trkpt lat="39.8776703" lon="16.0654992"><ele>986.8000000000001</ele><time>2026-04-25T09:58:45.779Z</time></trkpt><trkpt lat="39.8777045" lon="16.0653613"><ele>988.1999999999999</ele><time>2026-04-25T09:58:46.771Z</time></trkpt><trkpt lat="39.8777386" lon="16.0652277"><ele>989.5999999999999</ele><time>2026-04-25T09:58:47.777Z</time></trkpt><trkpt lat="39.877773" lon="16.0650962"><ele>991.0</ele><time>2026-04-25T09:58:48.778Z</time></trkpt><trkpt lat="39.8778051" lon="16.0649661"><ele>991.0</ele><time>2026-04-25T09:58:49.78Z</time></trkpt><trkpt lat="39.8778349" lon="16.064839"><ele>990.9999999999999</ele><time>2026-04-25T09:58:50.773Z</time></trkpt><trkpt lat="39.8778629" lon="16.0647176"><ele>990.9999999999999</ele><time>2026-04-25T09:58:51.776Z</time></trkpt><trkpt lat="39.8778929" lon="16.0646013"><ele>991.0</ele><time>2026-04-25T09:58:52.775Z</time></trkpt><trkpt lat="39.8779224" lon="16.0644892"><ele>991.0</ele><time>2026-04-25T09:58:53.786Z</time></trkpt><trkpt lat="39.877952" lon="16.0643821"><ele>990.9999999999999</ele><time>2026-04-25T09:58:54.772Z</time></trkpt><trkpt lat="39.8779816" lon="16.0642788"><ele>991.0</ele><time>2026-04-25T09:58:55.787Z</time></trkpt><trkpt lat="39.8780156" lon="16.0641806"><ele>991.0</ele><time>2026-04-25T09:58:56.775Z</time></trkpt><trkpt lat="39.8780556" lon="16.0640893"><ele>991.0</ele><time>2026-04-25T09:58:57.775Z</time></trkpt><trkpt lat="39.8781013" lon="16.0640084"><ele>990.9999999999999</ele><time>2026-04-25T09:58:58.776Z</time></trkpt><trkpt lat="39.8781483" lon="16.0639183"><ele>991.0</ele><time>2026-04-25T09:58:59.774Z</time></trkpt><trkpt lat="39.8782025" lon="16.0638358"><ele>991.4999999999999</ele><time>2026-04-25T09:59:00.778Z</time></trkpt><trkpt lat="39.8782563" lon="16.0637552"><ele>992.0</ele><time>2026-04-25T09:59:01.785Z</time></trkpt><trkpt lat="39.8783143" lon="16.0636909"><ele>992.5</ele><time>2026-04-25T09:59:02.782Z</time></trkpt><trkpt lat="39.8783633" lon="16.063634"><ele>993.0</ele><time>2026-04-25T09:59:03.767Z</time></trkpt><trkpt lat="39.8784263" lon="16.0635539"><ele>993.4999999999999</ele><time>2026-04-25T09:59:05.778Z</time></trkpt><trkpt lat="39.8784685" lon="16.0634467"><ele>994.0</ele><time>2026-04-25T09:59:36.777Z</time></trkpt><trkpt lat="39.8785192" lon="16.0632982"><ele>993.2</ele><time>2026-04-25T09:59:38.777Z</time></trkpt><trkpt lat="39.878553" lon="16.063204"><ele>992.4000000000001</ele><time>2026-04-25T09:59:39.77Z</time></trkpt><trkpt lat="39.8785908" lon="16.0630921"><ele>991.6</ele><time>2026-04-25T09:59:40.781Z</time></trkpt><trkpt lat="39.8786279" lon="16.0629649"><ele>990.8</ele><time>2026-04-25T09:59:41.786Z</time></trkpt><trkpt lat="39.8786654" lon="16.0628246"><ele>990.0</ele><time>2026-04-25T09:59:42.771Z</time></trkpt><trkpt lat="39.8787079" lon="16.0626685"><ele>990.0</ele><time>2026-04-25T09:59:43.776Z</time></trkpt><trkpt lat="39.8787591" lon="16.0624883"><ele>990.0</ele><time>2026-04-25T09:59:44.772Z</time></trkpt><trkpt lat="39.8788161" lon="16.0622921"><ele>990.0</ele><time>2026-04-25T09:59:45.776Z</time></trkpt><trkpt lat="39.8788757" lon="16.0620849"><ele>988.6666666666667</ele><time>2026-04-25T09:59:46.768Z</time></trkpt><trkpt lat="39.8789383" lon="16.06187"><ele>987.3333333333334</ele><time>2026-04-25T09:59:47.771Z</time></trkpt><trkpt lat="39.8790022" lon="16.0616531"><ele>986.0</ele><time>2026-04-25T09:59:48.769Z</time></trkpt><trkpt lat="39.879068" lon="16.0614332"><ele>984.6666666666667</ele><time>2026-04-25T09:59:49.773Z</time></trkpt><trkpt lat="39.8791379" lon="16.0612119"><ele>983.3333333333333</ele><time>2026-04-25T09:59:50.775Z</time></trkpt><trkpt lat="39.8792147" lon="16.0609891"><ele>982.0</ele><time>2026-04-25T09:59:51.775Z</time></trkpt><trkpt lat="39.8793017" lon="16.0607675"><ele>981.0</ele><time>2026-04-25T09:59:52.777Z</time></trkpt><trkpt lat="39.8793975" lon="16.0605461"><ele>980.0</ele><time>2026-04-25T09:59:53.772Z</time></trkpt><trkpt lat="39.8795012" lon="16.0603246"><ele>979.0</ele><time>2026-04-25T09:59:54.773Z</time></trkpt><trkpt lat="39.8796139" lon="16.0601052"><ele>977.6666666666666</ele><time>2026-04-25T09:59:55.78Z</time></trkpt><trkpt lat="39.8797402" lon="16.059895"><ele>976.3333333333333</ele><time>2026-04-25T09:59:56.774Z</time></trkpt><trkpt lat="39.8798806" lon="16.0596931"><ele>975.0</ele><time>2026-04-25T09:59:57.765Z</time></trkpt><trkpt lat="39.8800351" lon="16.0594998"><ele>974.0</ele><time>2026-04-25T09:59:58.771Z</time></trkpt><trkpt lat="39.8802024" lon="16.0593145"><ele>973.0</ele><time>2026-04-25T09:59:59.771Z</time></trkpt><trkpt lat="39.88038" lon="16.059134"><ele>972.0</ele><time>2026-04-25T10:00:00.774Z</time></trkpt><trkpt lat="39.8805646" lon="16.0589568"><ele>972.0</ele><time>2026-04-25T10:00:01.77Z</time></trkpt><trkpt lat="39.8807547" lon="16.0587885"><ele>972.0</ele><time>2026-04-25T10:00:02.774Z</time></trkpt><trkpt lat="39.8809473" lon="16.0586315"><ele>973.0</ele><time>2026-04-25T10:00:03.781Z</time></trkpt><trkpt lat="39.8811364" lon="16.0584872"><ele>974.0</ele><time>2026-04-25T10:00:04.775Z</time></trkpt><trkpt lat="39.8813346" lon="16.0583674"><ele>975.0</ele><time>2026-04-25T10:00:05.767Z</time></trkpt><trkpt lat="39.8815318" lon="16.0582562"><ele>973.0</ele><time>2026-04-25T10:00:06.768Z</time></trkpt><trkpt lat="39.8817256" lon="16.0581619"><ele>971.0</ele><time>2026-04-25T10:00:07.775Z</time></trkpt><trkpt lat="39.8819121" lon="16.0580719"><ele>969.0</ele><time>2026-04-25T10:00:08.776Z</time></trkpt><trkpt lat="39.8820873" lon="16.0579955"><ele>969.0</ele><time>2026-04-25T10:00:09.78Z</time></trkpt><trkpt lat="39.8822607" lon="16.0579437"><ele>969.0</ele><time>2026-04-25T10:00:10.772Z</time></trkpt><trkpt lat="39.8824312" lon="16.0579019"><ele>969.0</ele><time>2026-04-25T10:00:11.769Z</time></trkpt><trkpt lat="39.8826162" lon="16.0579049"><ele>969.3333333333333</ele><time>2026-04-25T10:00:12.765Z</time></trkpt><trkpt lat="39.8828035" lon="16.0579242"><ele>969.6666666666666</ele><time>2026-04-25T10:00:13.766Z</time></trkpt><trkpt lat="39.8829962" lon="16.0579476"><ele>970.0</ele><time>2026-04-25T10:00:14.77Z</time></trkpt><trkpt lat="39.8831881" lon="16.0579668"><ele>970.0</ele><time>2026-04-25T10:00:15.771Z</time></trkpt><trkpt lat="39.883384" lon="16.0579946"><ele>970.0</ele><time>2026-04-25T10:00:16.763Z</time></trkpt><trkpt lat="39.8835843" lon="16.0580366"><ele>970.0</ele><time>2026-04-25T10:00:17.765Z</time></trkpt><trkpt lat="39.8837822" lon="16.0580855"><ele>970.0</ele><time>2026-04-25T10:00:18.764Z</time></trkpt><trkpt lat="39.8839736" lon="16.0581446"><ele>970.0</ele><time>2026-04-25T10:00:19.767Z</time></trkpt><trkpt lat="39.8841512" lon="16.0582065"><ele>970.0</ele><time>2026-04-25T10:00:20.771Z</time></trkpt><trkpt lat="39.8843214" lon="16.0582653"><ele>971.5</ele><time>2026-04-25T10:00:21.767Z</time></trkpt><trkpt lat="39.8844458" lon="16.0583011"><ele>973.0</ele><time>2026-04-25T10:00:22.768Z</time></trkpt><trkpt lat="39.8845577" lon="16.0582971"><ele>974.5</ele><time>2026-04-25T10:00:23.768Z</time></trkpt><trkpt lat="39.8846577" lon="16.0582416"><ele>976.0</ele><time>2026-04-25T10:00:24.77Z</time></trkpt><trkpt lat="39.8847222" lon="16.0581313"><ele>976.0</ele><time>2026-04-25T10:00:25.773Z</time></trkpt><trkpt lat="39.8847735" lon="16.0579816"><ele>976.0</ele><time>2026-04-25T10:00:26.769Z</time></trkpt><trkpt lat="39.8848354" lon="16.0578086"><ele>976.0</ele><time>2026-04-25T10:00:27.777Z</time></trkpt><trkpt lat="39.8849274" lon="16.0576258"><ele>976.0</ele><time>2026-04-25T10:00:28.768Z</time></trkpt><trkpt lat="39.8850563" lon="16.0574401"><ele>978.0</ele><time>2026-04-25T10:00:29.773Z</time></trkpt><trkpt lat="39.8852055" lon="16.0572429"><ele>980.0</ele><time>2026-04-25T10:00:30.769Z</time></trkpt><trkpt lat="39.8853563" lon="16.057026"><ele>982.0</ele><time>2026-04-25T10:00:31.784Z</time></trkpt><trkpt lat="39.8855007" lon="16.0567894"><ele>978.5</ele><time>2026-04-25T10:00:32.766Z</time></trkpt><trkpt lat="39.8856425" lon="16.0565473"><ele>975.0</ele><time>2026-04-25T10:00:33.774Z</time></trkpt><trkpt lat="39.8857849" lon="16.0563015"><ele>981.5</ele><time>2026-04-25T10:00:34.773Z</time></trkpt><trkpt lat="39.8859296" lon="16.0560583"><ele>988.0</ele><time>2026-04-25T10:00:35.777Z</time></trkpt><trkpt lat="39.8860789" lon="16.0558198"><ele>984.5</ele><time>2026-04-25T10:00:36.766Z</time></trkpt><trkpt lat="39.8862347" lon="16.055594"><ele>981.0</ele><time>2026-04-25T10:00:37.771Z</time></trkpt><trkpt lat="39.8864054" lon="16.055383"><ele>981.0</ele><time>2026-04-25T10:00:38.769Z</time></trkpt><trkpt lat="39.8865868" lon="16.0551764"><ele>981.0</ele><time>2026-04-25T10:00:39.791Z</time></trkpt><trkpt lat="39.8867787" lon="16.0549715"><ele>982.5</ele><time>2026-04-25T10:00:40.773Z</time></trkpt><trkpt lat="39.8869809" lon="16.0547677"><ele>984.0</ele><time>2026-04-25T10:00:41.785Z</time></trkpt><trkpt lat="39.8871846" lon="16.0545657"><ele>984.0</ele><time>2026-04-25T10:00:42.788Z</time></trkpt><trkpt lat="39.8874013" lon="16.0543641"><ele>984.0</ele><time>2026-04-25T10:00:43.827Z</time></trkpt><trkpt lat="39.8876093" lon="16.0541655"><ele>987.0</ele><time>2026-04-25T10:00:44.804Z</time></trkpt><trkpt lat="39.8878161" lon="16.0539713"><ele>990.0</ele><time>2026-04-25T10:00:45.784Z</time></trkpt><trkpt lat="39.8880231" lon="16.0537789"><ele>990.0</ele><time>2026-04-25T10:00:46.769Z</time></trkpt><trkpt lat="39.8882243" lon="16.0535814"><ele>990.0</ele><time>2026-04-25T10:00:47.773Z</time></trkpt><trkpt lat="39.8884096" lon="16.0533737"><ele>992.3333333333333</ele><time>2026-04-25T10:00:48.774Z</time></trkpt><trkpt lat="39.8885723" lon="16.0531568"><ele>994.6666666666666</ele><time>2026-04-25T10:00:49.776Z</time></trkpt><trkpt lat="39.8887118" lon="16.0529446"><ele>997.0</ele><time>2026-04-25T10:00:50.767Z</time></trkpt><trkpt lat="39.8888185" lon="16.0527562"><ele>997.0</ele><time>2026-04-25T10:00:51.773Z</time></trkpt><trkpt lat="39.8888888" lon="16.0525673"><ele>997.0</ele><time>2026-04-25T10:00:52.77Z</time></trkpt><trkpt lat="39.8889441" lon="16.0523666"><ele>997.0</ele><time>2026-04-25T10:00:53.769Z</time></trkpt><trkpt lat="39.8890031" lon="16.0521585"><ele>998.3333333333333</ele><time>2026-04-25T10:00:54.774Z</time></trkpt><trkpt lat="39.8890643" lon="16.0519422"><ele>999.6666666666667</ele><time>2026-04-25T10:00:55.771Z</time></trkpt><trkpt lat="39.889135" lon="16.0517213"><ele>1001.0</ele><time>2026-04-25T10:00:56.775Z</time></trkpt><trkpt lat="39.8892152" lon="16.0514953"><ele>1004.0</ele><time>2026-04-25T10:00:57.776Z</time></trkpt><trkpt lat="39.8893021" lon="16.0512625"><ele>1007.0</ele><time>2026-04-25T10:00:58.766Z</time></trkpt><trkpt lat="39.8893947" lon="16.0510276"><ele>1010.0</ele><time>2026-04-25T10:00:59.79Z</time></trkpt><trkpt lat="39.8894928" lon="16.0507895"><ele>1010.0</ele><time>2026-04-25T10:01:00.774Z</time></trkpt><trkpt lat="39.8895908" lon="16.0505513"><ele>1010.0</ele><time>2026-04-25T10:01:01.767Z</time></trkpt><trkpt lat="39.8896942" lon="16.0503149"><ele>1010.0</ele><time>2026-04-25T10:01:02.769Z</time></trkpt><trkpt lat="39.8898045" lon="16.0500888"><ele>1010.3333333333334</ele><time>2026-04-25T10:01:03.774Z</time></trkpt><trkpt lat="39.8899223" lon="16.0498761"><ele>1010.6666666666667</ele><time>2026-04-25T10:01:04.763Z</time></trkpt><trkpt lat="39.8900381" lon="16.0496798"><ele>1011.0</ele><time>2026-04-25T10:01:05.774Z</time></trkpt><trkpt lat="39.8901413" lon="16.049502"><ele>1011.5</ele><time>2026-04-25T10:01:06.768Z</time></trkpt><trkpt lat="39.8902277" lon="16.0493415"><ele>1012.0</ele><time>2026-04-25T10:01:07.765Z</time></trkpt><trkpt lat="39.8903001" lon="16.0492039"><ele>1012.5</ele><time>2026-04-25T10:01:08.767Z</time></trkpt><trkpt lat="39.8903643" lon="16.0490954"><ele>1013.0</ele><time>2026-04-25T10:01:09.769Z</time></trkpt><trkpt lat="39.8904294" lon="16.0490293"><ele>1013.0</ele><time>2026-04-25T10:01:10.766Z</time></trkpt><trkpt lat="39.8904928" lon="16.0490211"><ele>1013.0</ele><time>2026-04-25T10:01:11.769Z</time></trkpt><trkpt lat="39.8905643" lon="16.0491427"><ele>1013.0</ele><time>2026-04-25T10:01:13.772Z</time></trkpt><trkpt lat="39.8905743" lon="16.0492578"><ele>1013.0</ele><time>2026-04-25T10:01:14.777Z</time></trkpt><trkpt lat="39.8905829" lon="16.0494049"><ele>1013.0</ele><time>2026-04-25T10:01:15.774Z</time></trkpt><trkpt lat="39.8906051" lon="16.0495811"><ele>1014.6666666666667</ele><time>2026-04-25T10:01:16.77Z</time></trkpt><trkpt lat="39.8906409" lon="16.0497796"><ele>1016.3333333333333</ele><time>2026-04-25T10:01:17.777Z</time></trkpt><trkpt lat="39.8906797" lon="16.0500007"><ele>1018.0</ele><time>2026-04-25T10:01:18.776Z</time></trkpt><trkpt lat="39.890721" lon="16.0502364"><ele>1019.0</ele><time>2026-04-25T10:01:19.766Z</time></trkpt><trkpt lat="39.890766" lon="16.0504731"><ele>1020.0</ele><time>2026-04-25T10:01:20.774Z</time></trkpt><trkpt lat="39.8908095" lon="16.0506984"><ele>1021.0</ele><time>2026-04-25T10:01:21.785Z</time></trkpt><trkpt lat="39.8908488" lon="16.0508952"><ele>1021.75</ele><time>2026-04-25T10:01:22.766Z</time></trkpt><trkpt lat="39.8908919" lon="16.0510547"><ele>1022.5</ele><time>2026-04-25T10:01:23.772Z</time></trkpt><trkpt lat="39.8909575" lon="16.0511711"><ele>1023.25</ele><time>2026-04-25T10:01:24.772Z</time></trkpt><trkpt lat="39.8910476" lon="16.0512412"><ele>1024.0</ele><time>2026-04-25T10:01:25.763Z</time></trkpt><trkpt lat="39.8911487" lon="16.051296"><ele>1027.0</ele><time>2026-04-25T10:01:26.775Z</time></trkpt><trkpt lat="39.8912456" lon="16.0513761"><ele>1030.0</ele><time>2026-04-25T10:01:27.771Z</time></trkpt><trkpt lat="39.8913314" lon="16.051494"><ele>1033.0</ele><time>2026-04-25T10:01:28.781Z</time></trkpt><trkpt lat="39.8914058" lon="16.0516397"><ele>1036.0</ele><time>2026-04-25T10:01:29.77Z</time></trkpt><trkpt lat="39.8914769" lon="16.0517948"><ele>1036.0</ele><time>2026-04-25T10:01:30.773Z</time></trkpt><trkpt lat="39.8915594" lon="16.0519419"><ele>1036.0</ele><time>2026-04-25T10:01:31.78Z</time></trkpt><trkpt lat="39.89166" lon="16.0520651"><ele>1036.0</ele><time>2026-04-25T10:01:32.769Z</time></trkpt><trkpt lat="39.8917755" lon="16.0521511"><ele>1036.0</ele><time>2026-04-25T10:01:33.768Z</time></trkpt><trkpt lat="39.8918915" lon="16.0522071"><ele>1039.6</ele><time>2026-04-25T10:01:34.77Z</time></trkpt><trkpt lat="39.8919875" lon="16.0522724"><ele>1043.1999999999998</ele><time>2026-04-25T10:01:35.767Z</time></trkpt><trkpt lat="39.8920628" lon="16.0523464"><ele>1046.8000000000002</ele><time>2026-04-25T10:01:36.777Z</time></trkpt><trkpt lat="39.8920645" lon="16.052462"><ele>1050.4</ele><time>2026-04-25T10:01:37.768Z</time></trkpt><trkpt lat="39.8920377" lon="16.0525703"><ele>1054.0</ele><time>2026-04-25T10:01:38.765Z</time></trkpt><trkpt lat="39.8919807" lon="16.0526708"><ele>1054.5</ele><time>2026-04-25T10:01:39.775Z</time></trkpt><trkpt lat="39.8919174" lon="16.0527684"><ele>1055.0</ele><time>2026-04-25T10:01:40.774Z</time></trkpt><trkpt lat="39.8918626" lon="16.0528732"><ele>1055.5</ele><time>2026-04-25T10:01:41.763Z</time></trkpt><trkpt lat="39.89184" lon="16.0529787"><ele>1056.0</ele><time>2026-04-25T10:01:42.769Z</time></trkpt><trkpt lat="39.8918648" lon="16.0530635"><ele>1056.5</ele><time>2026-04-25T10:01:43.775Z</time></trkpt><trkpt lat="39.8918995" lon="16.0531335"><ele>1057.0</ele><time>2026-04-25T10:01:44.766Z</time></trkpt><trkpt lat="39.8919778" lon="16.0531013"><ele>1057.0</ele><time>2026-04-25T10:01:45.775Z</time></trkpt><trkpt lat="39.8920274" lon="16.0530171"><ele>1057.0</ele><time>2026-04-25T10:01:46.767Z</time></trkpt><trkpt lat="39.8920662" lon="16.0529088"><ele>1057.0</ele><time>2026-04-25T10:01:47.767Z</time></trkpt><trkpt lat="39.8921092" lon="16.052779"><ele>1057.0</ele><time>2026-04-25T10:01:48.77Z</time></trkpt><trkpt lat="39.8921812" lon="16.0526481"><ele>1057.0</ele><time>2026-04-25T10:01:49.778Z</time></trkpt><trkpt lat="39.8922766" lon="16.0525196"><ele>1056.25</ele><time>2026-04-25T10:01:50.764Z</time></trkpt><trkpt lat="39.8923711" lon="16.0523878"><ele>1055.5</ele><time>2026-04-25T10:01:51.775Z</time></trkpt><trkpt lat="39.8924443" lon="16.0522315"><ele>1054.75</ele><time>2026-04-25T10:01:52.776Z</time></trkpt><trkpt lat="39.8924832" lon="16.052059"><ele>1054.0</ele><time>2026-04-25T10:01:53.763Z</time></trkpt><trkpt lat="39.8924842" lon="16.0518823"><ele>1054.0</ele><time>2026-04-25T10:01:54.77Z</time></trkpt><trkpt lat="39.8924575" lon="16.0517144"><ele>1054.0</ele><time>2026-04-25T10:01:55.77Z</time></trkpt><trkpt lat="39.8924221" lon="16.0515478"><ele>1054.0</ele><time>2026-04-25T10:01:56.769Z</time></trkpt><trkpt lat="39.8924127" lon="16.0513813"><ele>1054.0</ele><time>2026-04-25T10:01:57.783Z</time></trkpt><trkpt lat="39.8924406" lon="16.0512155"><ele>1053.6666666666665</ele><time>2026-04-25T10:01:58.771Z</time></trkpt><trkpt lat="39.8924995" lon="16.0510491"><ele>1053.3333333333333</ele><time>2026-04-25T10:01:59.767Z</time></trkpt><trkpt lat="39.8925802" lon="16.0508792"><ele>1053.0</ele><time>2026-04-25T10:02:00.771Z</time></trkpt><trkpt lat="39.8926739" lon="16.0507054"><ele>1056.0</ele><time>2026-04-25T10:02:01.773Z</time></trkpt><trkpt lat="39.8927711" lon="16.0505304"><ele>1059.0</ele><time>2026-04-25T10:02:02.769Z</time></trkpt><trkpt lat="39.8928695" lon="16.0503607"><ele>1062.0</ele><time>2026-04-25T10:02:03.778Z</time></trkpt><trkpt lat="39.8929708" lon="16.0501963"><ele>1062.0</ele><time>2026-04-25T10:02:04.775Z</time></trkpt><trkpt lat="39.893075" lon="16.0500445"><ele>1062.0</ele><time>2026-04-25T10:02:05.768Z</time></trkpt><trkpt lat="39.89319" lon="16.0499144"><ele>1062.0</ele><time>2026-04-25T10:02:06.78Z</time></trkpt><trkpt lat="39.8933165" lon="16.0498161"><ele>1064.25</ele><time>2026-04-25T10:02:07.774Z</time></trkpt><trkpt lat="39.8934516" lon="16.0497498"><ele>1066.5</ele><time>2026-04-25T10:02:08.774Z</time></trkpt><trkpt lat="39.8935901" lon="16.0497204"><ele>1068.75</ele><time>2026-04-25T10:02:09.78Z</time></trkpt><trkpt lat="39.8937273" lon="16.0497181"><ele>1071.0</ele><time>2026-04-25T10:02:10.767Z</time></trkpt><trkpt lat="39.8938619" lon="16.0497206"><ele>1071.0</ele><time>2026-04-25T10:02:11.77Z</time></trkpt><trkpt lat="39.8939888" lon="16.0497181"><ele>1071.0</ele><time>2026-04-25T10:02:12.78Z</time></trkpt><trkpt lat="39.8941048" lon="16.0496981"><ele>1071.0</ele><time>2026-04-25T10:02:13.78Z</time></trkpt><trkpt lat="39.8942021" lon="16.0496444"><ele>1071.0</ele><time>2026-04-25T10:02:14.77Z</time></trkpt><trkpt lat="39.8942836" lon="16.0495853"><ele>1071.0</ele><time>2026-04-25T10:02:15.779Z</time></trkpt><trkpt lat="39.8943018" lon="16.0494788"><ele>1071.0</ele><time>2026-04-25T10:02:16.782Z</time></trkpt><trkpt lat="39.8942769" lon="16.0493675"><ele>1071.0</ele><time>2026-04-25T10:02:17.788Z</time></trkpt><trkpt lat="39.8942165" lon="16.0492605"><ele>1071.0</ele><time>2026-04-25T10:02:18.771Z</time></trkpt><trkpt lat="39.8941432" lon="16.049152"><ele>1071.0</ele><time>2026-04-25T10:02:19.778Z</time></trkpt><trkpt lat="39.8940753" lon="16.0490345"><ele>1071.0</ele><time>2026-04-25T10:02:20.784Z</time></trkpt><trkpt lat="39.8940209" lon="16.0489011"><ele>1071.5</ele><time>2026-04-25T10:02:21.778Z</time></trkpt><trkpt lat="39.8939874" lon="16.0487594"><ele>1072.0</ele><time>2026-04-25T10:02:22.774Z</time></trkpt><trkpt lat="39.8939808" lon="16.0486334"><ele>1072.5</ele><time>2026-04-25T10:02:23.77Z</time></trkpt><trkpt lat="39.8940075" lon="16.0485392"><ele>1073.0</ele><time>2026-04-25T10:02:24.776Z</time></trkpt><trkpt lat="39.8940584" lon="16.0484876"><ele>1073.5</ele><time>2026-04-25T10:02:25.767Z</time></trkpt><trkpt lat="39.8941305" lon="16.0484731"><ele>1074.0</ele><time>2026-04-25T10:02:26.776Z</time></trkpt><trkpt lat="39.8942163" lon="16.0484751"><ele>1076.6000000000001</ele><time>2026-04-25T10:02:27.774Z</time></trkpt><trkpt lat="39.8943122" lon="16.0484804"><ele>1079.2</ele><time>2026-04-25T10:02:28.785Z</time></trkpt><trkpt lat="39.8944073" lon="16.0485078"><ele>1081.8000000000002</ele><time>2026-04-25T10:02:29.78Z</time></trkpt><trkpt lat="39.8944968" lon="16.0485663"><ele>1084.4</ele><time>2026-04-25T10:02:30.772Z</time></trkpt><trkpt lat="39.8945688" lon="16.0486505"><ele>1087.0</ele><time>2026-04-25T10:02:31.768Z</time></trkpt><trkpt lat="39.8946257" lon="16.0487341"><ele>1087.0</ele><time>2026-04-25T10:02:32.779Z</time></trkpt><trkpt lat="39.8946755" lon="16.0488077"><ele>1087.0</ele><time>2026-04-25T10:02:33.769Z</time></trkpt><trkpt lat="39.8947307" lon="16.0488628"><ele>1087.0</ele><time>2026-04-25T10:02:34.77Z</time></trkpt><trkpt lat="39.8947976" lon="16.0488957"><ele>1087.0</ele><time>2026-04-25T10:02:35.767Z</time></trkpt><trkpt lat="39.8948816" lon="16.0489061"><ele>1087.0</ele><time>2026-04-25T10:02:36.779Z</time></trkpt><trkpt lat="39.8949869" lon="16.0489012"><ele>1087.0</ele><time>2026-04-25T10:02:37.771Z</time></trkpt><trkpt lat="39.8951127" lon="16.048883"><ele>1086.0</ele><time>2026-04-25T10:02:38.779Z</time></trkpt><trkpt lat="39.8952559" lon="16.0488577"><ele>1085.0</ele><time>2026-04-25T10:02:39.781Z</time></trkpt><trkpt lat="39.8954107" lon="16.0488375"><ele>1084.0</ele><time>2026-04-25T10:02:40.772Z</time></trkpt><trkpt lat="39.8955772" lon="16.0488365"><ele>1084.0</ele><time>2026-04-25T10:02:41.767Z</time></trkpt><trkpt lat="39.8957527" lon="16.0488367"><ele>1084.0</ele><time>2026-04-25T10:02:42.773Z</time></trkpt><trkpt lat="39.8959233" lon="16.0488401"><ele>1084.0</ele><time>2026-04-25T10:02:43.771Z</time></trkpt><trkpt lat="39.8960775" lon="16.0488107"><ele>1083.25</ele><time>2026-04-25T10:02:44.765Z</time></trkpt><trkpt lat="39.8962097" lon="16.0487226"><ele>1082.5</ele><time>2026-04-25T10:02:45.787Z</time></trkpt><trkpt lat="39.8963222" lon="16.0485974"><ele>1081.75</ele><time>2026-04-25T10:02:46.782Z</time></trkpt><trkpt lat="39.896421" lon="16.048455"><ele>1081.0</ele><time>2026-04-25T10:02:47.762Z</time></trkpt><trkpt lat="39.8965249" lon="16.0483139"><ele>1081.75</ele><time>2026-04-25T10:02:48.774Z</time></trkpt><trkpt lat="39.8966433" lon="16.0482001"><ele>1082.5</ele><time>2026-04-25T10:02:49.787Z</time></trkpt><trkpt lat="39.896755" lon="16.0481"><ele>1083.25</ele><time>2026-04-25T10:02:50.787Z</time></trkpt><trkpt lat="39.8969037" lon="16.048063"><ele>1084.0</ele><time>2026-04-25T10:02:51.767Z</time></trkpt><trkpt lat="39.8970591" lon="16.0480164"><ele>1079.5</ele><time>2026-04-25T10:02:52.776Z</time></trkpt><trkpt lat="39.8972004" lon="16.0479528"><ele>1075.0</ele><time>2026-04-25T10:02:53.783Z</time></trkpt><trkpt lat="39.8973309" lon="16.0478952"><ele>1070.5</ele><time>2026-04-25T10:02:54.77Z</time></trkpt><trkpt lat="39.8974554" lon="16.0478446"><ele>1066.0</ele><time>2026-04-25T10:02:55.777Z</time></trkpt><trkpt lat="39.8975761" lon="16.0477951"><ele>1068.6</ele><time>2026-04-25T10:02:56.775Z</time></trkpt><trkpt lat="39.8976842" lon="16.0477467"><ele>1071.1999999999998</ele><time>2026-04-25T10:02:57.785Z</time></trkpt><trkpt lat="39.8977753" lon="16.0477039"><ele>1073.8000000000002</ele><time>2026-04-25T10:02:58.775Z</time></trkpt><trkpt lat="39.8978379" lon="16.0476564"><ele>1076.4</ele><time>2026-04-25T10:02:59.777Z</time></trkpt><trkpt lat="39.8978631" lon="16.0475342"><ele>1079.0</ele><time>2026-04-25T10:03:01.788Z</time></trkpt><trkpt lat="39.8977661" lon="16.0475052"><ele>1079.0</ele><time>2026-04-25T10:03:03.779Z</time></trkpt><trkpt lat="39.8976935" lon="16.0475269"><ele>1079.0</ele><time>2026-04-25T10:03:04.775Z</time></trkpt><trkpt lat="39.8976042" lon="16.0475574"><ele>1079.0</ele><time>2026-04-25T10:03:05.781Z</time></trkpt><trkpt lat="39.8975112" lon="16.0475936"><ele>1079.0</ele><time>2026-04-25T10:03:06.767Z</time></trkpt><trkpt lat="39.8973986" lon="16.0476213"><ele>1079.0</ele><time>2026-04-25T10:03:07.768Z</time></trkpt><trkpt lat="39.8972713" lon="16.0476495"><ele>1076.8333333333335</ele><time>2026-04-25T10:03:08.769Z</time></trkpt><trkpt lat="39.8971596" lon="16.047675"><ele>1074.6666666666667</ele><time>2026-04-25T10:03:09.778Z</time></trkpt><trkpt lat="39.8970741" lon="16.0476662"><ele>1072.5</ele><time>2026-04-25T10:03:10.77Z</time></trkpt><trkpt lat="39.8970033" lon="16.0476255"><ele>1070.3333333333333</ele><time>2026-04-25T10:03:11.774Z</time></trkpt><trkpt lat="39.8969614" lon="16.0475455"><ele>1068.1666666666665</ele><time>2026-04-25T10:03:12.773Z</time></trkpt><trkpt lat="39.8969309" lon="16.0474542"><ele>1066.0</ele><time>2026-04-25T10:03:13.778Z</time></trkpt><trkpt lat="39.8969665" lon="16.0473473"><ele>1066.0</ele><time>2026-04-25T10:03:14.773Z</time></trkpt><trkpt lat="39.8970337" lon="16.0472677"><ele>1066.0</ele><time>2026-04-25T10:03:15.778Z</time></trkpt><trkpt lat="39.8971161" lon="16.0471867"><ele>1066.0</ele><time>2026-04-25T10:03:16.77Z</time></trkpt><trkpt lat="39.8972071" lon="16.0470933"><ele>1066.0</ele><time>2026-04-25T10:03:17.771Z</time></trkpt><trkpt lat="39.8972972" lon="16.0469827"><ele>1066.0</ele><time>2026-04-25T10:03:18.775Z</time></trkpt><trkpt lat="39.8973961" lon="16.0468728"><ele>1066.0</ele><time>2026-04-25T10:03:19.784Z</time></trkpt><trkpt lat="39.8974844" lon="16.0467372"><ele>1066.0</ele><time>2026-04-25T10:03:20.764Z</time></trkpt><trkpt lat="39.8975822" lon="16.0466083"><ele>1066.0</ele><time>2026-04-25T10:03:21.769Z</time></trkpt><trkpt lat="39.8976821" lon="16.0464774"><ele>1066.0</ele><time>2026-04-25T10:03:22.775Z</time></trkpt><trkpt lat="39.8977853" lon="16.0463509"><ele>1064.75</ele><time>2026-04-25T10:03:23.772Z</time></trkpt><trkpt lat="39.8979029" lon="16.0462428"><ele>1063.5</ele><time>2026-04-25T10:03:24.77Z</time></trkpt><trkpt lat="39.8980227" lon="16.0461624"><ele>1062.25</ele><time>2026-04-25T10:03:25.776Z</time></trkpt><trkpt lat="39.89815" lon="16.0460733"><ele>1061.0</ele><time>2026-04-25T10:03:26.773Z</time></trkpt><trkpt lat="39.8982724" lon="16.0459826"><ele>1061.0</ele><time>2026-04-25T10:03:27.78Z</time></trkpt><trkpt lat="39.8983949" lon="16.0458676"><ele>1061.0</ele><time>2026-04-25T10:03:28.773Z</time></trkpt><trkpt lat="39.8985104" lon="16.0457484"><ele>1061.0</ele><time>2026-04-25T10:03:29.774Z</time></trkpt><trkpt lat="39.8986289" lon="16.0456274"><ele>1061.0</ele><time>2026-04-25T10:03:30.766Z</time></trkpt><trkpt lat="39.8987537" lon="16.0455212"><ele>1060.3333333333335</ele><time>2026-04-25T10:03:31.775Z</time></trkpt><trkpt lat="39.8988916" lon="16.0454381"><ele>1059.6666666666667</ele><time>2026-04-25T10:03:32.769Z</time></trkpt><trkpt lat="39.8990502" lon="16.0453746"><ele>1059.0</ele><time>2026-04-25T10:03:33.766Z</time></trkpt><trkpt lat="39.8991809" lon="16.0453082"><ele>1054.6666666666667</ele><time>2026-04-25T10:03:34.77Z</time></trkpt><trkpt lat="39.8993195" lon="16.0452715"><ele>1050.3333333333335</ele><time>2026-04-25T10:03:35.767Z</time></trkpt><trkpt lat="39.8994738" lon="16.0452622"><ele>1046.0</ele><time>2026-04-25T10:03:36.772Z</time></trkpt><trkpt lat="39.899637" lon="16.0452626"><ele>1046.0</ele><time>2026-04-25T10:03:37.769Z</time></trkpt><trkpt lat="39.8998073" lon="16.0452606"><ele>1046.0</ele><time>2026-04-25T10:03:38.772Z</time></trkpt><trkpt lat="39.8999682" lon="16.0452414"><ele>1046.0</ele><time>2026-04-25T10:03:39.766Z</time></trkpt><trkpt lat="39.900116" lon="16.0452059"><ele>1043.0</ele><time>2026-04-25T10:03:40.765Z</time></trkpt><trkpt lat="39.9002477" lon="16.0451662"><ele>1040.0</ele><time>2026-04-25T10:03:41.763Z</time></trkpt><trkpt lat="39.9003647" lon="16.0451272"><ele>1037.0</ele><time>2026-04-25T10:03:42.766Z</time></trkpt><trkpt lat="39.900475" lon="16.045085"><ele>1034.0</ele><time>2026-04-25T10:03:43.767Z</time></trkpt><trkpt lat="39.9005763" lon="16.0450428"><ele>1034.0</ele><time>2026-04-25T10:03:44.769Z</time></trkpt><trkpt lat="39.9006809" lon="16.0450022"><ele>1034.0</ele><time>2026-04-25T10:03:45.775Z</time></trkpt><trkpt lat="39.9007861" lon="16.0449622"><ele>1034.0</ele><time>2026-04-25T10:03:46.774Z</time></trkpt><trkpt lat="39.9008932" lon="16.0449184"><ele>1034.0</ele><time>2026-04-25T10:03:47.782Z</time></trkpt><trkpt lat="39.9010026" lon="16.0448733"><ele>1034.0</ele><time>2026-04-25T10:03:48.771Z</time></trkpt><trkpt lat="39.901114" lon="16.0448286"><ele>1032.75</ele><time>2026-04-25T10:03:49.777Z</time></trkpt><trkpt lat="39.9012278" lon="16.0447733"><ele>1031.5</ele><time>2026-04-25T10:03:50.773Z</time></trkpt><trkpt lat="39.901347" lon="16.0447132"><ele>1030.25</ele><time>2026-04-25T10:03:51.771Z</time></trkpt><trkpt lat="39.901464" lon="16.0446221"><ele>1029.0</ele><time>2026-04-25T10:03:52.768Z</time></trkpt><trkpt lat="39.9015863" lon="16.0445079"><ele>1029.0</ele><time>2026-04-25T10:03:53.776Z</time></trkpt><trkpt lat="39.9017075" lon="16.0443906"><ele>1029.0</ele><time>2026-04-25T10:03:54.774Z</time></trkpt><trkpt lat="39.9018379" lon="16.044261"><ele>1029.0</ele><time>2026-04-25T10:03:55.769Z</time></trkpt><trkpt lat="39.9019688" lon="16.0441271"><ele>1028.6666666666667</ele><time>2026-04-25T10:03:56.78Z</time></trkpt><trkpt lat="39.9020962" lon="16.0440003"><ele>1028.3333333333335</ele><time>2026-04-25T10:03:57.783Z</time></trkpt><trkpt lat="39.9022193" lon="16.0438818"><ele>1028.0</ele><time>2026-04-25T10:03:58.764Z</time></trkpt><trkpt lat="39.9023402" lon="16.043776"><ele>1028.0</ele><time>2026-04-25T10:03:59.775Z</time></trkpt><trkpt lat="39.9024676" lon="16.0436956"><ele>1028.0</ele><time>2026-04-25T10:04:00.768Z</time></trkpt><trkpt lat="39.9026033" lon="16.0436468"><ele>1028.0</ele><time>2026-04-25T10:04:01.782Z</time></trkpt><trkpt lat="39.9027503" lon="16.0436254"><ele>1028.0</ele><time>2026-04-25T10:04:02.77Z</time></trkpt><trkpt lat="39.9029049" lon="16.0436243"><ele>1022.6666666666667</ele><time>2026-04-25T10:04:03.775Z</time></trkpt><trkpt lat="39.9030649" lon="16.0436349"><ele>1017.3333333333333</ele><time>2026-04-25T10:04:04.769Z</time></trkpt><trkpt lat="39.9032257" lon="16.0436489"><ele>1012.0</ele><time>2026-04-25T10:04:05.77Z</time></trkpt><trkpt lat="39.9033966" lon="16.0437017"><ele>1009.6666666666666</ele><time>2026-04-25T10:04:06.773Z</time></trkpt><trkpt lat="39.9035629" lon="16.0437575"><ele>1007.3333333333333</ele><time>2026-04-25T10:04:07.768Z</time></trkpt><trkpt lat="39.9037237" lon="16.0438024"><ele>1005.0</ele><time>2026-04-25T10:04:08.786Z</time></trkpt><trkpt lat="39.9038903" lon="16.0438332"><ele>1005.0</ele><time>2026-04-25T10:04:09.789Z</time></trkpt><trkpt lat="39.9040553" lon="16.0438532"><ele>1005.0</ele><time>2026-04-25T10:04:10.781Z</time></trkpt><trkpt lat="39.9042136" lon="16.0438646"><ele>1005.0</ele><time>2026-04-25T10:04:11.767Z</time></trkpt><trkpt lat="39.9043718" lon="16.0438459"><ele>1003.3333333333333</ele><time>2026-04-25T10:04:12.768Z</time></trkpt><trkpt lat="39.9045295" lon="16.0437908"><ele>1001.6666666666666</ele><time>2026-04-25T10:04:13.778Z</time></trkpt><trkpt lat="39.904681" lon="16.043706"><ele>1000.0</ele><time>2026-04-25T10:04:14.774Z</time></trkpt><trkpt lat="39.9048358" lon="16.043632"><ele>1000.0</ele><time>2026-04-25T10:04:15.782Z</time></trkpt><trkpt lat="39.9049909" lon="16.0435607"><ele>1000.0</ele><time>2026-04-25T10:04:16.774Z</time></trkpt><trkpt lat="39.905165" lon="16.0435531"><ele>1000.0</ele><time>2026-04-25T10:04:17.77Z</time></trkpt><trkpt lat="39.9053432" lon="16.0435491"><ele>998.6666666666666</ele><time>2026-04-25T10:04:18.77Z</time></trkpt><trkpt lat="39.90552" lon="16.0435334"><ele>997.3333333333333</ele><time>2026-04-25T10:04:19.764Z</time></trkpt><trkpt lat="39.9057091" lon="16.0435153"><ele>996.0</ele><time>2026-04-25T10:04:20.766Z</time></trkpt><trkpt lat="39.9058869" lon="16.0434666"><ele>991.6666666666667</ele><time>2026-04-25T10:04:21.772Z</time></trkpt><trkpt lat="39.9060773" lon="16.0433829"><ele>987.3333333333334</ele><time>2026-04-25T10:04:22.769Z</time></trkpt><trkpt lat="39.9062681" lon="16.0432912"><ele>983.0</ele><time>2026-04-25T10:04:23.767Z</time></trkpt><trkpt lat="39.9064589" lon="16.0432006"><ele>985.6666666666667</ele><time>2026-04-25T10:04:24.769Z</time></trkpt><trkpt lat="39.906649" lon="16.0431009"><ele>988.3333333333333</ele><time>2026-04-25T10:04:25.771Z</time></trkpt><trkpt lat="39.9068375" lon="16.0429948"><ele>991.0</ele><time>2026-04-25T10:04:26.768Z</time></trkpt><trkpt lat="39.9070218" lon="16.0428916"><ele>991.0</ele><time>2026-04-25T10:04:27.775Z</time></trkpt><trkpt lat="39.907207" lon="16.0428033"><ele>991.0</ele><time>2026-04-25T10:04:28.77Z</time></trkpt><trkpt lat="39.9073847" lon="16.0427264"><ele>991.0</ele><time>2026-04-25T10:04:29.776Z</time></trkpt><trkpt lat="39.9075589" lon="16.0426544"><ele>984.3333333333333</ele><time>2026-04-25T10:04:30.778Z</time></trkpt><trkpt lat="39.9077232" lon="16.042599"><ele>977.6666666666667</ele><time>2026-04-25T10:04:31.77Z</time></trkpt><trkpt lat="39.9078784" lon="16.0425764"><ele>971.0</ele><time>2026-04-25T10:04:32.774Z</time></trkpt><trkpt lat="39.9080291" lon="16.0426034"><ele>971.0</ele><time>2026-04-25T10:04:33.767Z</time></trkpt><trkpt lat="39.9081689" lon="16.0426743"><ele>971.0</ele><time>2026-04-25T10:04:34.769Z</time></trkpt><trkpt lat="39.9083006" lon="16.0427683"><ele>971.0</ele><time>2026-04-25T10:04:35.775Z</time></trkpt><trkpt lat="39.9084313" lon="16.042865"><ele>969.0</ele><time>2026-04-25T10:04:36.773Z</time></trkpt><trkpt lat="39.9085689" lon="16.0429431"><ele>967.0</ele><time>2026-04-25T10:04:37.793Z</time></trkpt><trkpt lat="39.9087117" lon="16.0429999"><ele>965.0</ele><time>2026-04-25T10:04:38.774Z</time></trkpt><trkpt lat="39.9088626" lon="16.0430332"><ele>965.0</ele><time>2026-04-25T10:04:39.764Z</time></trkpt><trkpt lat="39.9090188" lon="16.0430439"><ele>965.0</ele><time>2026-04-25T10:04:40.765Z</time></trkpt><trkpt lat="39.9091769" lon="16.0430392"><ele>965.0</ele><time>2026-04-25T10:04:41.767Z</time></trkpt><trkpt lat="39.90933" lon="16.0430345"><ele>961.75</ele><time>2026-04-25T10:04:42.771Z</time></trkpt><trkpt lat="39.9094777" lon="16.0430211"><ele>958.5</ele><time>2026-04-25T10:04:43.765Z</time></trkpt><trkpt lat="39.909615" lon="16.0429834"><ele>955.25</ele><time>2026-04-25T10:04:44.768Z</time></trkpt><trkpt lat="39.9097336" lon="16.0429074"><ele>952.0</ele><time>2026-04-25T10:04:45.774Z</time></trkpt><trkpt lat="39.9098293" lon="16.0427928"><ele>952.0</ele><time>2026-04-25T10:04:46.777Z</time></trkpt><trkpt lat="39.909909" lon="16.0426486"><ele>952.0</ele><time>2026-04-25T10:04:47.775Z</time></trkpt><trkpt lat="39.9099821" lon="16.042489"><ele>952.0</ele><time>2026-04-25T10:04:48.789Z</time></trkpt><trkpt lat="39.9100641" lon="16.0423226"><ele>952.0</ele><time>2026-04-25T10:04:49.776Z</time></trkpt><trkpt lat="39.9101537" lon="16.0421585"><ele>950.4000000000001</ele><time>2026-04-25T10:04:50.765Z</time></trkpt><trkpt lat="39.9102453" lon="16.0420153"><ele>948.8000000000001</ele><time>2026-04-25T10:04:51.768Z</time></trkpt><trkpt lat="39.9103265" lon="16.0419019"><ele>947.2</ele><time>2026-04-25T10:04:52.776Z</time></trkpt><trkpt lat="39.9103909" lon="16.0418211"><ele>945.6</ele><time>2026-04-25T10:04:53.773Z</time></trkpt><trkpt lat="39.9104876" lon="16.0418088"><ele>944.0</ele><time>2026-04-25T10:04:55.771Z</time></trkpt><trkpt lat="39.9104917" lon="16.0419175"><ele>944.0</ele><time>2026-04-25T10:04:57.767Z</time></trkpt><trkpt lat="39.9104493" lon="16.0419978"><ele>944.0000000000001</ele><time>2026-04-25T10:04:58.766Z</time></trkpt><trkpt lat="39.9103957" lon="16.042086"><ele>944.0000000000001</ele><time>2026-04-25T10:04:59.775Z</time></trkpt><trkpt lat="39.9103385" lon="16.0421885"><ele>944.0</ele><time>2026-04-25T10:05:00.774Z</time></trkpt><trkpt lat="39.9102829" lon="16.0423083"><ele>944.0</ele><time>2026-04-25T10:05:01.769Z</time></trkpt><trkpt lat="39.9102398" lon="16.0424432"><ele>940.5</ele><time>2026-04-25T10:05:02.77Z</time></trkpt><trkpt lat="39.9102027" lon="16.0425917"><ele>937.0</ele><time>2026-04-25T10:05:03.775Z</time></trkpt><trkpt lat="39.9101683" lon="16.0427462"><ele>933.5</ele><time>2026-04-25T10:05:04.773Z</time></trkpt><trkpt lat="39.9101331" lon="16.0428896"><ele>930.0</ele><time>2026-04-25T10:05:05.773Z</time></trkpt><trkpt lat="39.9100973" lon="16.0430112"><ele>930.0</ele><time>2026-04-25T10:05:06.783Z</time></trkpt><trkpt lat="39.9100689" lon="16.0431134"><ele>930.0</ele><time>2026-04-25T10:05:07.768Z</time></trkpt><trkpt lat="39.9100633" lon="16.0432026"><ele>930.0</ele><time>2026-04-25T10:05:08.767Z</time></trkpt><trkpt lat="39.9100928" lon="16.0432781"><ele>930.0</ele><time>2026-04-25T10:05:09.772Z</time></trkpt><trkpt lat="39.9102044" lon="16.0433365"><ele>930.0</ele><time>2026-04-25T10:05:11.775Z</time></trkpt><trkpt lat="39.9103014" lon="16.0432865"><ele>930.0</ele><time>2026-04-25T10:05:12.773Z</time></trkpt><trkpt lat="39.9104022" lon="16.0432034"><ele>930.0</ele><time>2026-04-25T10:05:13.766Z</time></trkpt><trkpt lat="39.9105122" lon="16.0430903"><ele>930.0</ele><time>2026-04-25T10:05:14.778Z</time></trkpt><trkpt lat="39.9106122" lon="16.0429493"><ele>930.0</ele><time>2026-04-25T10:05:15.766Z</time></trkpt><trkpt lat="39.9107054" lon="16.0427897"><ele>930.0</ele><time>2026-04-25T10:05:16.789Z</time></trkpt><trkpt lat="39.9107993" lon="16.0426245"><ele>926.0</ele><time>2026-04-25T10:05:17.784Z</time></trkpt><trkpt lat="39.9108892" lon="16.0424642"><ele>922.0</ele><time>2026-04-25T10:05:18.772Z</time></trkpt><trkpt lat="39.9109826" lon="16.04231"><ele>918.0</ele><time>2026-04-25T10:05:19.774Z</time></trkpt><trkpt lat="39.9110934" lon="16.0421687"><ele>918.0</ele><time>2026-04-25T10:05:20.775Z</time></trkpt><trkpt lat="39.9112196" lon="16.0420409"><ele>918.0</ele><time>2026-04-25T10:05:21.769Z</time></trkpt><trkpt lat="39.9113541" lon="16.0419132"><ele>918.0</ele><time>2026-04-25T10:05:22.769Z</time></trkpt><trkpt lat="39.9114898" lon="16.0417782"><ele>918.0</ele><time>2026-04-25T10:05:23.774Z</time></trkpt><trkpt lat="39.9116241" lon="16.0416338"><ele>918.0</ele><time>2026-04-25T10:05:24.771Z</time></trkpt><trkpt lat="39.9117555" lon="16.0414836"><ele>918.0</ele><time>2026-04-25T10:05:25.778Z</time></trkpt><trkpt lat="39.911882" lon="16.0413312"><ele>914.6666666666667</ele><time>2026-04-25T10:05:26.772Z</time></trkpt><trkpt lat="39.9120065" lon="16.0411829"><ele>911.3333333333334</ele><time>2026-04-25T10:05:27.767Z</time></trkpt><trkpt lat="39.912133" lon="16.04105"><ele>908.0</ele><time>2026-04-25T10:05:28.769Z</time></trkpt><trkpt lat="39.9122674" lon="16.0409448"><ele>908.0</ele><time>2026-04-25T10:05:29.767Z</time></trkpt><trkpt lat="39.9124114" lon="16.0408683"><ele>908.0</ele><time>2026-04-25T10:05:30.773Z</time></trkpt><trkpt lat="39.9125626" lon="16.0408019"><ele>908.0</ele><time>2026-04-25T10:05:31.777Z</time></trkpt><trkpt lat="39.9127197" lon="16.0407466"><ele>906.75</ele><time>2026-04-25T10:05:32.781Z</time></trkpt><trkpt lat="39.9128747" lon="16.0406953"><ele>905.5</ele><time>2026-04-25T10:05:33.767Z</time></trkpt><trkpt lat="39.9130118" lon="16.0406406"><ele>904.25</ele><time>2026-04-25T10:05:34.771Z</time></trkpt><trkpt lat="39.9131347" lon="16.0405704"><ele>903.0</ele><time>2026-04-25T10:05:35.779Z</time></trkpt><trkpt lat="39.9132381" lon="16.0404747"><ele>903.0</ele><time>2026-04-25T10:05:36.768Z</time></trkpt><trkpt lat="39.9133337" lon="16.0403626"><ele>903.0</ele><time>2026-04-25T10:05:37.779Z</time></trkpt><trkpt lat="39.9134306" lon="16.0402373"><ele>903.0</ele><time>2026-04-25T10:05:38.774Z</time></trkpt><trkpt lat="39.913527" lon="16.040098"><ele>903.0</ele><time>2026-04-25T10:05:39.763Z</time></trkpt><trkpt lat="39.9136222" lon="16.0399477"><ele>898.3333333333333</ele><time>2026-04-25T10:05:40.775Z</time></trkpt><trkpt lat="39.9137148" lon="16.0397844"><ele>893.6666666666666</ele><time>2026-04-25T10:05:41.774Z</time></trkpt><trkpt lat="39.9138037" lon="16.0396106"><ele>889.0</ele><time>2026-04-25T10:05:42.779Z</time></trkpt><trkpt lat="39.9138941" lon="16.0394427"><ele>889.0</ele><time>2026-04-25T10:05:43.778Z</time></trkpt><trkpt lat="39.9139847" lon="16.0392865"><ele>889.0</ele><time>2026-04-25T10:05:44.784Z</time></trkpt><trkpt lat="39.9140864" lon="16.0391467"><ele>889.0</ele><time>2026-04-25T10:05:45.77Z</time></trkpt><trkpt lat="39.9142096" lon="16.039036"><ele>889.0</ele><time>2026-04-25T10:05:46.778Z</time></trkpt><trkpt lat="39.9143503" lon="16.0389438"><ele>886.3333333333333</ele><time>2026-04-25T10:05:47.771Z</time></trkpt><trkpt lat="39.9144997" lon="16.0388532"><ele>883.6666666666667</ele><time>2026-04-25T10:05:48.777Z</time></trkpt><trkpt lat="39.9146475" lon="16.0387561"><ele>881.0</ele><time>2026-04-25T10:05:49.768Z</time></trkpt><trkpt lat="39.9147918" lon="16.0386554"><ele>881.0</ele><time>2026-04-25T10:05:50.771Z</time></trkpt><trkpt lat="39.9149278" lon="16.0385526"><ele>881.0</ele><time>2026-04-25T10:05:51.772Z</time></trkpt><trkpt lat="39.9150598" lon="16.0384481"><ele>881.0</ele><time>2026-04-25T10:05:52.791Z</time></trkpt><trkpt lat="39.9151937" lon="16.0383487"><ele>875.3333333333334</ele><time>2026-04-25T10:05:53.771Z</time></trkpt><trkpt lat="39.9153253" lon="16.0382483"><ele>869.6666666666667</ele><time>2026-04-25T10:05:54.778Z</time></trkpt><trkpt lat="39.9154464" lon="16.0381273"><ele>864.0</ele><time>2026-04-25T10:05:55.776Z</time></trkpt><trkpt lat="39.9155538" lon="16.0379775"><ele>864.0</ele><time>2026-04-25T10:05:56.769Z</time></trkpt><trkpt lat="39.9156521" lon="16.037804"><ele>864.0</ele><time>2026-04-25T10:05:57.767Z</time></trkpt><trkpt lat="39.9157501" lon="16.0376041"><ele>864.0</ele><time>2026-04-25T10:05:58.777Z</time></trkpt><trkpt lat="39.9158535" lon="16.0373776"><ele>859.0</ele><time>2026-04-25T10:05:59.769Z</time></trkpt><trkpt lat="39.9159617" lon="16.037131"><ele>854.0</ele><time>2026-04-25T10:06:00.781Z</time></trkpt><trkpt lat="39.9160744" lon="16.0368716"><ele>849.0</ele><time>2026-04-25T10:06:01.774Z</time></trkpt><trkpt lat="39.9161874" lon="16.0366082"><ele>849.0</ele><time>2026-04-25T10:06:02.778Z</time></trkpt><trkpt lat="39.9162997" lon="16.0363474"><ele>849.0</ele><time>2026-04-25T10:06:03.78Z</time></trkpt><trkpt lat="39.9164104" lon="16.0360928"><ele>849.0</ele><time>2026-04-25T10:06:04.776Z</time></trkpt><trkpt lat="39.9165196" lon="16.0358452"><ele>849.0</ele><time>2026-04-25T10:06:05.767Z</time></trkpt><trkpt lat="39.9166265" lon="16.0356039"><ele>849.0</ele><time>2026-04-25T10:06:06.78Z</time></trkpt><trkpt lat="39.9167294" lon="16.0353674"><ele>844.6666666666667</ele><time>2026-04-25T10:06:07.775Z</time></trkpt><trkpt lat="39.9168287" lon="16.0351353"><ele>840.3333333333334</ele><time>2026-04-25T10:06:08.772Z</time></trkpt><trkpt lat="39.9169243" lon="16.0349085"><ele>836.0</ele><time>2026-04-25T10:06:09.77Z</time></trkpt><trkpt lat="39.9170176" lon="16.0346896"><ele>836.0</ele><time>2026-04-25T10:06:10.778Z</time></trkpt><trkpt lat="39.917119" lon="16.0344861"><ele>836.0</ele><time>2026-04-25T10:06:11.765Z</time></trkpt><trkpt lat="39.9172332" lon="16.0342993"><ele>836.0</ele><time>2026-04-25T10:06:12.767Z</time></trkpt><trkpt lat="39.917354" lon="16.0341246"><ele>842.0</ele><time>2026-04-25T10:06:13.785Z</time></trkpt><trkpt lat="39.9174762" lon="16.0339596"><ele>848.0</ele><time>2026-04-25T10:06:14.81Z</time></trkpt><trkpt lat="39.9175961" lon="16.033801"><ele>854.0</ele><time>2026-04-25T10:06:15.775Z</time></trkpt><trkpt lat="39.9177118" lon="16.0336516"><ele>848.5</ele><time>2026-04-25T10:06:16.773Z</time></trkpt><trkpt lat="39.9178234" lon="16.0335138"><ele>843.0</ele><time>2026-04-25T10:06:17.786Z</time></trkpt><trkpt lat="39.9179301" lon="16.0333909"><ele>837.5</ele><time>2026-04-25T10:06:18.771Z</time></trkpt><trkpt lat="39.9180283" lon="16.0332839"><ele>832.0</ele><time>2026-04-25T10:06:19.771Z</time></trkpt><trkpt lat="39.9181169" lon="16.033189"><ele>832.0</ele><time>2026-04-25T10:06:20.77Z</time></trkpt><trkpt lat="39.9181923" lon="16.0330939"><ele>832.0</ele><time>2026-04-25T10:06:21.774Z</time></trkpt><trkpt lat="39.9182485" lon="16.0329926"><ele>832.0</ele><time>2026-04-25T10:06:22.767Z</time></trkpt><trkpt lat="39.9182929" lon="16.0328854"><ele>832.0</ele><time>2026-04-25T10:06:23.772Z</time></trkpt><trkpt lat="39.9183357" lon="16.0327782"><ele>832.0</ele><time>2026-04-25T10:06:24.766Z</time></trkpt><trkpt lat="39.9183857" lon="16.0326698"><ele>830.75</ele><time>2026-04-25T10:06:25.771Z</time></trkpt><trkpt lat="39.9184471" lon="16.0325601"><ele>829.5</ele><time>2026-04-25T10:06:26.772Z</time></trkpt><trkpt lat="39.9185218" lon="16.0324467"><ele>828.25</ele><time>2026-04-25T10:06:27.79Z</time></trkpt><trkpt lat="39.9186118" lon="16.0323349"><ele>827.0</ele><time>2026-04-25T10:06:28.77Z</time></trkpt><trkpt lat="39.918711" lon="16.0322262"><ele>827.0</ele><time>2026-04-25T10:06:29.776Z</time></trkpt><trkpt lat="39.9188058" lon="16.0321061"><ele>827.0</ele><time>2026-04-25T10:06:30.771Z</time></trkpt><trkpt lat="39.9188883" lon="16.0319506"><ele>827.0</ele><time>2026-04-25T10:06:31.778Z</time></trkpt><trkpt lat="39.9189586" lon="16.0317604"><ele>827.0</ele><time>2026-04-25T10:06:32.781Z</time></trkpt><trkpt lat="39.9190233" lon="16.0315447"><ele>828.3333333333334</ele><time>2026-04-25T10:06:33.77Z</time></trkpt><trkpt lat="39.919081" lon="16.0313217"><ele>829.6666666666667</ele><time>2026-04-25T10:06:34.77Z</time></trkpt><trkpt lat="39.9191396" lon="16.0310997"><ele>831.0</ele><time>2026-04-25T10:06:35.783Z</time></trkpt><trkpt lat="39.9192092" lon="16.030885"><ele>826.6666666666667</ele><time>2026-04-25T10:06:36.786Z</time></trkpt><trkpt lat="39.9192825" lon="16.0306728"><ele>822.3333333333334</ele><time>2026-04-25T10:06:37.774Z</time></trkpt><trkpt lat="39.9193519" lon="16.0304616"><ele>818.0</ele><time>2026-04-25T10:06:38.78Z</time></trkpt><trkpt lat="39.919413" lon="16.0302525"><ele>818.0</ele><time>2026-04-25T10:06:39.775Z</time></trkpt><trkpt lat="39.9194631" lon="16.0300536"><ele>818.0</ele><time>2026-04-25T10:06:40.786Z</time></trkpt><trkpt lat="39.9194955" lon="16.0298706"><ele>818.0</ele><time>2026-04-25T10:06:41.778Z</time></trkpt><trkpt lat="39.9195009" lon="16.0297045"><ele>818.0</ele><time>2026-04-25T10:06:42.778Z</time></trkpt><trkpt lat="39.9194711" lon="16.029564"><ele>820.0</ele><time>2026-04-25T10:06:43.781Z</time></trkpt><trkpt lat="39.9194098" lon="16.029456"><ele>822.0</ele><time>2026-04-25T10:06:44.794Z</time></trkpt><trkpt lat="39.9193267" lon="16.0293849"><ele>824.0</ele><time>2026-04-25T10:06:45.788Z</time></trkpt><trkpt lat="39.9192166" lon="16.0293511"><ele>826.0</ele><time>2026-04-25T10:06:46.772Z</time></trkpt><trkpt lat="39.9191285" lon="16.0293867"><ele>828.0</ele><time>2026-04-25T10:06:47.785Z</time></trkpt><trkpt lat="39.9190418" lon="16.0294802"><ele>832.6666666666667</ele><time>2026-04-25T10:06:48.778Z</time></trkpt><trkpt lat="39.9189578" lon="16.0296132"><ele>837.3333333333334</ele><time>2026-04-25T10:06:49.772Z</time></trkpt><trkpt lat="39.9188733" lon="16.0297839"><ele>842.0</ele><time>2026-04-25T10:06:50.771Z</time></trkpt><trkpt lat="39.9187791" lon="16.0299711"><ele>840.6666666666667</ele><time>2026-04-25T10:06:51.781Z</time></trkpt><trkpt lat="39.9186799" lon="16.0301658"><ele>839.3333333333333</ele><time>2026-04-25T10:06:52.769Z</time></trkpt><trkpt lat="39.9185738" lon="16.0303691"><ele>838.0</ele><time>2026-04-25T10:06:53.771Z</time></trkpt><trkpt lat="39.9184651" lon="16.0305853"><ele>842.3333333333333</ele><time>2026-04-25T10:06:54.776Z</time></trkpt><trkpt lat="39.9183477" lon="16.0308038"><ele>846.6666666666667</ele><time>2026-04-25T10:06:55.77Z</time></trkpt><trkpt lat="39.9182263" lon="16.0310059"><ele>851.0</ele><time>2026-04-25T10:06:56.777Z</time></trkpt><trkpt lat="39.9181058" lon="16.0311905"><ele>851.0</ele><time>2026-04-25T10:06:57.784Z</time></trkpt><trkpt lat="39.9179915" lon="16.0313591"><ele>851.0</ele><time>2026-04-25T10:06:58.775Z</time></trkpt><trkpt lat="39.9178847" lon="16.0315083"><ele>851.0</ele><time>2026-04-25T10:06:59.789Z</time></trkpt><trkpt lat="39.9177859" lon="16.031647"><ele>849.0</ele><time>2026-04-25T10:07:00.775Z</time></trkpt><trkpt lat="39.9176954" lon="16.031767"><ele>847.0</ele><time>2026-04-25T10:07:01.767Z</time></trkpt><trkpt lat="39.9176119" lon="16.031857"><ele>845.0</ele><time>2026-04-25T10:07:02.772Z</time></trkpt><trkpt lat="39.9175287" lon="16.0319042"><ele>843.0</ele><time>2026-04-25T10:07:03.781Z</time></trkpt><trkpt lat="39.9174596" lon="16.0318933"><ele>841.0</ele><time>2026-04-25T10:07:04.778Z</time></trkpt><trkpt lat="39.9174038" lon="16.0318405"><ele>847.5</ele><time>2026-04-25T10:07:05.776Z</time></trkpt><trkpt lat="39.9173472" lon="16.0317661"><ele>854.0</ele><time>2026-04-25T10:07:06.766Z</time></trkpt><trkpt lat="39.9173235" lon="16.0316357"><ele>860.5</ele><time>2026-04-25T10:07:07.779Z</time></trkpt><trkpt lat="39.9173301" lon="16.0314621"><ele>867.0</ele><time>2026-04-25T10:07:08.775Z</time></trkpt><trkpt lat="39.9173628" lon="16.0312552"><ele>867.0</ele><time>2026-04-25T10:07:09.766Z</time></trkpt><trkpt lat="39.9173973" lon="16.0310257"><ele>867.0</ele><time>2026-04-25T10:07:10.776Z</time></trkpt><trkpt lat="39.917445" lon="16.0307736"><ele>867.0</ele><time>2026-04-25T10:07:11.777Z</time></trkpt><trkpt lat="39.9174912" lon="16.0304977"><ele>864.0</ele><time>2026-04-25T10:07:12.772Z</time></trkpt><trkpt lat="39.9175351" lon="16.0302065"><ele>861.0</ele><time>2026-04-25T10:07:13.775Z</time></trkpt><trkpt lat="39.9175747" lon="16.0299023"><ele>861.0</ele><time>2026-04-25T10:07:14.785Z</time></trkpt><trkpt lat="39.9176169" lon="16.0295929"><ele>861.0</ele><time>2026-04-25T10:07:15.769Z</time></trkpt><trkpt lat="39.9176619" lon="16.029283"><ele>863.0</ele><time>2026-04-25T10:07:16.771Z</time></trkpt><trkpt lat="39.917704" lon="16.0289836"><ele>865.0</ele><time>2026-04-25T10:07:17.778Z</time></trkpt><trkpt lat="39.9177416" lon="16.0287016"><ele>865.0</ele><time>2026-04-25T10:07:18.784Z</time></trkpt><trkpt lat="39.9177755" lon="16.0284452"><ele>865.0</ele><time>2026-04-25T10:07:19.776Z</time></trkpt><trkpt lat="39.9178026" lon="16.0282106"><ele>865.0</ele><time>2026-04-25T10:07:20.774Z</time></trkpt><trkpt lat="39.917825" lon="16.0279996"><ele>866.0</ele><time>2026-04-25T10:07:21.778Z</time></trkpt><trkpt lat="39.9178431" lon="16.027807"><ele>867.0</ele><time>2026-04-25T10:07:22.776Z</time></trkpt><trkpt lat="39.9178598" lon="16.0276315"><ele>868.0</ele><time>2026-04-25T10:07:23.767Z</time></trkpt><trkpt lat="39.9178755" lon="16.0274714"><ele>869.0</ele><time>2026-04-25T10:07:24.772Z</time></trkpt><trkpt lat="39.9178887" lon="16.0273174"><ele>871.0</ele><time>2026-04-25T10:07:25.776Z</time></trkpt><trkpt lat="39.9179014" lon="16.027168"><ele>873.0</ele><time>2026-04-25T10:07:26.789Z</time></trkpt><trkpt lat="39.9179166" lon="16.0270184"><ele>875.0</ele><time>2026-04-25T10:07:27.798Z</time></trkpt><trkpt lat="39.917932" lon="16.0268649"><ele>877.0</ele><time>2026-04-25T10:07:28.789Z</time></trkpt><trkpt lat="39.9179499" lon="16.0267073"><ele>879.0</ele><time>2026-04-25T10:07:29.798Z</time></trkpt><trkpt lat="39.9179712" lon="16.0265416"><ele>881.0</ele><time>2026-04-25T10:07:30.776Z</time></trkpt><trkpt lat="39.9179928" lon="16.0263703"><ele>883.0</ele><time>2026-04-25T10:07:31.791Z</time></trkpt><trkpt lat="39.9180137" lon="16.02619"><ele>885.0</ele><time>2026-04-25T10:07:32.775Z</time></trkpt><trkpt lat="39.9180331" lon="16.0260048"><ele>885.0</ele><time>2026-04-25T10:07:33.814Z</time></trkpt><trkpt lat="39.9180518" lon="16.0258139"><ele>885.0</ele><time>2026-04-25T10:07:34.779Z</time></trkpt><trkpt lat="39.9180713" lon="16.0256183"><ele>885.0</ele><time>2026-04-25T10:07:35.778Z</time></trkpt><trkpt lat="39.9180914" lon="16.0254235"><ele>884.75</ele><time>2026-04-25T10:07:36.783Z</time></trkpt><trkpt lat="39.9181107" lon="16.0252311"><ele>884.5</ele><time>2026-04-25T10:07:37.786Z</time></trkpt><trkpt lat="39.9181237" lon="16.0250415"><ele>884.25</ele><time>2026-04-25T10:07:38.783Z</time></trkpt><trkpt lat="39.9181235" lon="16.0248565"><ele>884.0</ele><time>2026-04-25T10:07:39.789Z</time></trkpt><trkpt lat="39.9181081" lon="16.0246749"><ele>884.0</ele><time>2026-04-25T10:07:40.772Z</time></trkpt><trkpt lat="39.9180773" lon="16.024497"><ele>884.0</ele><time>2026-04-25T10:07:41.776Z</time></trkpt><trkpt lat="39.9180243" lon="16.0243266"><ele>884.0</ele><time>2026-04-25T10:07:42.774Z</time></trkpt><trkpt lat="39.9179468" lon="16.0241691"><ele>884.0</ele><time>2026-04-25T10:07:43.783Z</time></trkpt><trkpt lat="39.9178569" lon="16.0240165"><ele>883.3333333333334</ele><time>2026-04-25T10:07:44.775Z</time></trkpt><trkpt lat="39.9177542" lon="16.0238639"><ele>882.6666666666667</ele><time>2026-04-25T10:07:45.775Z</time></trkpt><trkpt lat="39.9176435" lon="16.0237097"><ele>882.0</ele><time>2026-04-25T10:07:46.784Z</time></trkpt><trkpt lat="39.9175292" lon="16.0235516"><ele>882.0</ele><time>2026-04-25T10:07:47.775Z</time></trkpt><trkpt lat="39.9174162" lon="16.0233919"><ele>882.0</ele><time>2026-04-25T10:07:48.768Z</time></trkpt><trkpt lat="39.9173108" lon="16.0232365"><ele>882.0</ele><time>2026-04-25T10:07:49.782Z</time></trkpt><trkpt lat="39.917221" lon="16.0230778"><ele>879.0</ele><time>2026-04-25T10:07:50.768Z</time></trkpt><trkpt lat="39.9171497" lon="16.0229038"><ele>876.0</ele><time>2026-04-25T10:07:51.782Z</time></trkpt><trkpt lat="39.9171012" lon="16.022708"><ele>873.0</ele><time>2026-04-25T10:07:52.772Z</time></trkpt><trkpt lat="39.9170764" lon="16.0224944"><ele>873.6666666666667</ele><time>2026-04-25T10:07:53.77Z</time></trkpt><trkpt lat="39.9170648" lon="16.0222835"><ele>874.3333333333334</ele><time>2026-04-25T10:07:54.779Z</time></trkpt><trkpt lat="39.9170416" lon="16.0220842"><ele>875.0</ele><time>2026-04-25T10:07:55.775Z</time></trkpt><trkpt lat="39.916994" lon="16.0218979"><ele>875.0</ele><time>2026-04-25T10:07:56.772Z</time></trkpt><trkpt lat="39.9169197" lon="16.0217214"><ele>875.0</ele><time>2026-04-25T10:07:57.77Z</time></trkpt><trkpt lat="39.916821" lon="16.0215413"><ele>875.0</ele><time>2026-04-25T10:07:58.778Z</time></trkpt><trkpt lat="39.9167055" lon="16.0213527"><ele>876.6666666666667</ele><time>2026-04-25T10:07:59.784Z</time></trkpt><trkpt lat="39.9165706" lon="16.0211538"><ele>878.3333333333333</ele><time>2026-04-25T10:08:00.766Z</time></trkpt><trkpt lat="39.9164192" lon="16.0209455"><ele>880.0</ele><time>2026-04-25T10:08:01.778Z</time></trkpt><trkpt lat="39.9162604" lon="16.0207281"><ele>872.5</ele><time>2026-04-25T10:08:02.779Z</time></trkpt><trkpt lat="39.9160995" lon="16.0205025"><ele>865.0</ele><time>2026-04-25T10:08:03.775Z</time></trkpt><trkpt lat="39.9159376" lon="16.0202699"><ele>863.5</ele><time>2026-04-25T10:08:04.779Z</time></trkpt><trkpt lat="39.9157744" lon="16.0200331"><ele>862.0</ele><time>2026-04-25T10:08:05.776Z</time></trkpt><trkpt lat="39.9156095" lon="16.0197956"><ele>862.0</ele><time>2026-04-25T10:08:06.771Z</time></trkpt><trkpt lat="39.9154463" lon="16.0195611"><ele>862.0</ele><time>2026-04-25T10:08:07.774Z</time></trkpt><trkpt lat="39.915285" lon="16.0193279"><ele>861.0</ele><time>2026-04-25T10:08:08.791Z</time></trkpt><trkpt lat="39.9151258" lon="16.0190981"><ele>860.0</ele><time>2026-04-25T10:08:09.772Z</time></trkpt><trkpt lat="39.9149717" lon="16.018876"><ele>860.0</ele><time>2026-04-25T10:08:10.774Z</time></trkpt><trkpt lat="39.9148255" lon="16.0186645"><ele>860.0</ele><time>2026-04-25T10:08:11.773Z</time></trkpt><trkpt lat="39.9146868" lon="16.0184639"><ele>860.0</ele><time>2026-04-25T10:08:12.793Z</time></trkpt><trkpt lat="39.9145615" lon="16.0182691"><ele>856.6666666666667</ele><time>2026-04-25T10:08:13.777Z</time></trkpt><trkpt lat="39.9144506" lon="16.0180677"><ele>853.3333333333333</ele><time>2026-04-25T10:08:14.779Z</time></trkpt><trkpt lat="39.914352" lon="16.0178565"><ele>850.0</ele><time>2026-04-25T10:08:15.776Z</time></trkpt><trkpt lat="39.9142616" lon="16.0176409"><ele>854.6666666666666</ele><time>2026-04-25T10:08:16.774Z</time></trkpt><trkpt lat="39.9141758" lon="16.0174248"><ele>859.3333333333333</ele><time>2026-04-25T10:08:17.774Z</time></trkpt><trkpt lat="39.9141009" lon="16.0172139"><ele>864.0</ele><time>2026-04-25T10:08:18.78Z</time></trkpt><trkpt lat="39.9140387" lon="16.0170112"><ele>864.0</ele><time>2026-04-25T10:08:19.782Z</time></trkpt><trkpt lat="39.9139949" lon="16.0168183"><ele>864.0</ele><time>2026-04-25T10:08:20.775Z</time></trkpt><trkpt lat="39.9139824" lon="16.0166301"><ele>864.0</ele><time>2026-04-25T10:08:21.773Z</time></trkpt><trkpt lat="39.9139979" lon="16.0164443"><ele>864.0</ele><time>2026-04-25T10:08:22.787Z</time></trkpt><trkpt lat="39.9140282" lon="16.0162584"><ele>863.75</ele><time>2026-04-25T10:08:23.776Z</time></trkpt><trkpt lat="39.914055" lon="16.0160692"><ele>863.5</ele><time>2026-04-25T10:08:24.787Z</time></trkpt><trkpt lat="39.9140664" lon="16.0158781"><ele>863.25</ele><time>2026-04-25T10:08:25.771Z</time></trkpt><trkpt lat="39.9140528" lon="16.0156957"><ele>863.0</ele><time>2026-04-25T10:08:26.775Z</time></trkpt><trkpt lat="39.9140042" lon="16.0155328"><ele>861.5</ele><time>2026-04-25T10:08:27.77Z</time></trkpt><trkpt lat="39.9139223" lon="16.0153964"><ele>860.0</ele><time>2026-04-25T10:08:28.783Z</time></trkpt><trkpt lat="39.9138141" lon="16.015286"><ele>858.5</ele><time>2026-04-25T10:08:29.779Z</time></trkpt><trkpt lat="39.9136885" lon="16.0151948"><ele>857.0</ele><time>2026-04-25T10:08:30.777Z</time></trkpt><trkpt lat="39.9135588" lon="16.0151024"><ele>857.0</ele><time>2026-04-25T10:08:31.784Z</time></trkpt><trkpt lat="39.9134339" lon="16.0150181"><ele>857.0</ele><time>2026-04-25T10:08:32.778Z</time></trkpt><trkpt lat="39.9133297" lon="16.0149044"><ele>857.0</ele><time>2026-04-25T10:08:33.768Z</time></trkpt><trkpt lat="39.9132374" lon="16.0147774"><ele>857.0</ele><time>2026-04-25T10:08:34.779Z</time></trkpt><trkpt lat="39.9131561" lon="16.0146491"><ele>852.75</ele><time>2026-04-25T10:08:35.787Z</time></trkpt><trkpt lat="39.9130776" lon="16.0145164"><ele>848.5</ele><time>2026-04-25T10:08:36.797Z</time></trkpt><trkpt lat="39.9130026" lon="16.0143812"><ele>844.25</ele><time>2026-04-25T10:08:37.77Z</time></trkpt><trkpt lat="39.9129308" lon="16.0142484"><ele>840.0</ele><time>2026-04-25T10:08:38.795Z</time></trkpt><trkpt lat="39.9128589" lon="16.0141197"><ele>836.0</ele><time>2026-04-25T10:08:39.771Z</time></trkpt><trkpt lat="39.912786" lon="16.0139985"><ele>832.0</ele><time>2026-04-25T10:08:40.774Z</time></trkpt><trkpt lat="39.9127143" lon="16.0138803"><ele>828.0</ele><time>2026-04-25T10:08:41.811Z</time></trkpt><trkpt lat="39.9126446" lon="16.0137643"><ele>824.0</ele><time>2026-04-25T10:08:42.776Z</time></trkpt><trkpt lat="39.9125741" lon="16.013651"><ele>823.2</ele><time>2026-04-25T10:08:43.78Z</time></trkpt><trkpt lat="39.9125022" lon="16.0135384"><ele>822.4000000000001</ele><time>2026-04-25T10:08:44.784Z</time></trkpt><trkpt lat="39.9124285" lon="16.0134294"><ele>821.6</ele><time>2026-04-25T10:08:45.795Z</time></trkpt><trkpt lat="39.9123565" lon="16.0133183"><ele>820.8</ele><time>2026-04-25T10:08:46.79Z</time></trkpt><trkpt lat="39.9122878" lon="16.0132034"><ele>820.0</ele><time>2026-04-25T10:08:47.779Z</time></trkpt><trkpt lat="39.9122214" lon="16.0130918"><ele>820.0</ele><time>2026-04-25T10:08:48.79Z</time></trkpt><trkpt lat="39.9121568" lon="16.012983"><ele>820.0</ele><time>2026-04-25T10:08:49.776Z</time></trkpt><trkpt lat="39.9120959" lon="16.0128771"><ele>820.0</ele><time>2026-04-25T10:08:50.774Z</time></trkpt><trkpt lat="39.9120367" lon="16.0127829"><ele>820.0</ele><time>2026-04-25T10:08:51.781Z</time></trkpt><trkpt lat="39.9119854" lon="16.0127062"><ele>820.0</ele><time>2026-04-25T10:08:52.782Z</time></trkpt><trkpt lat="39.9119145" lon="16.0126132"><ele>820.0</ele><time>2026-04-25T10:08:54.765Z</time></trkpt><trkpt lat="39.9118074" lon="16.0124838"><ele>820.0</ele><time>2026-04-25T10:09:15.784Z</time></trkpt><trkpt lat="39.9118664" lon="16.0126241"><ele>820.0</ele><time>2026-04-25T10:09:27.795Z</time></trkpt><trkpt lat="39.9119373" lon="16.0127164"><ele>820.0</ele><time>2026-04-25T10:09:28.778Z</time></trkpt><trkpt lat="39.9120148" lon="16.0128259"><ele>820.0</ele><time>2026-04-25T10:09:29.767Z</time></trkpt><trkpt lat="39.912103" lon="16.0129603"><ele>820.0</ele><time>2026-04-25T10:09:30.774Z</time></trkpt><trkpt lat="39.9122008" lon="16.0131156"><ele>820.0</ele><time>2026-04-25T10:09:31.772Z</time></trkpt><trkpt lat="39.912305" lon="16.0132815"><ele>821.3333333333333</ele><time>2026-04-25T10:09:32.778Z</time></trkpt><trkpt lat="39.9124237" lon="16.0134677"><ele>822.6666666666667</ele><time>2026-04-25T10:09:33.774Z</time></trkpt><trkpt lat="39.9125498" lon="16.0136729"><ele>824.0</ele><time>2026-04-25T10:09:34.773Z</time></trkpt><trkpt lat="39.9126752" lon="16.0138796"><ele>824.0</ele><time>2026-04-25T10:09:35.777Z</time></trkpt><trkpt lat="39.9127977" lon="16.0140828"><ele>824.0</ele><time>2026-04-25T10:09:36.782Z</time></trkpt><trkpt lat="39.9129164" lon="16.0142792"><ele>824.0</ele><time>2026-04-25T10:09:37.774Z</time></trkpt><trkpt lat="39.9130287" lon="16.0144706"><ele>829.3333333333334</ele><time>2026-04-25T10:09:38.779Z</time></trkpt><trkpt lat="39.9131366" lon="16.0146546"><ele>834.6666666666667</ele><time>2026-04-25T10:09:39.773Z</time></trkpt><trkpt lat="39.9132457" lon="16.0148232"><ele>840.0</ele><time>2026-04-25T10:09:40.768Z</time></trkpt><trkpt lat="39.9133569" lon="16.0149718"><ele>844.25</ele><time>2026-04-25T10:09:41.776Z</time></trkpt><trkpt lat="39.9134742" lon="16.0150943"><ele>848.5</ele><time>2026-04-25T10:09:42.777Z</time></trkpt><trkpt lat="39.9135961" lon="16.0151892"><ele>852.75</ele><time>2026-04-25T10:09:43.778Z</time></trkpt><trkpt lat="39.913717" lon="16.015276"><ele>857.0</ele><time>2026-04-25T10:09:44.781Z</time></trkpt><trkpt lat="39.9138315" lon="16.0153737"><ele>857.0</ele><time>2026-04-25T10:09:45.769Z</time></trkpt><trkpt lat="39.9139233" lon="16.015494"><ele>857.0</ele><time>2026-04-25T10:09:46.774Z</time></trkpt><trkpt lat="39.9139867" lon="16.0156301"><ele>857.0</ele><time>2026-04-25T10:09:47.771Z</time></trkpt><trkpt lat="39.9140224" lon="16.0157794"><ele>857.0</ele><time>2026-04-25T10:09:48.788Z</time></trkpt><trkpt lat="39.9140335" lon="16.0159363"><ele>858.5</ele><time>2026-04-25T10:09:49.774Z</time></trkpt><trkpt lat="39.9140244" lon="16.0161074"><ele>860.0</ele><time>2026-04-25T10:09:50.784Z</time></trkpt><trkpt lat="39.9140023" lon="16.0162906"><ele>861.5</ele><time>2026-04-25T10:09:51.788Z</time></trkpt><trkpt lat="39.9139802" lon="16.0164721"><ele>863.0</ele><time>2026-04-25T10:09:52.77Z</time></trkpt><trkpt lat="39.9139646" lon="16.0166433"><ele>863.25</ele><time>2026-04-25T10:09:53.772Z</time></trkpt><trkpt lat="39.9139611" lon="16.0168055"><ele>863.5</ele><time>2026-04-25T10:09:54.781Z</time></trkpt><trkpt lat="39.9139838" lon="16.0169664"><ele>863.75</ele><time>2026-04-25T10:09:55.773Z</time></trkpt><trkpt lat="39.9140312" lon="16.0171289"><ele>864.0</ele><time>2026-04-25T10:09:56.775Z</time></trkpt><trkpt lat="39.9140935" lon="16.0172971"><ele>864.0</ele><time>2026-04-25T10:09:57.772Z</time></trkpt><trkpt lat="39.9141621" lon="16.0174731"><ele>864.0</ele><time>2026-04-25T10:09:58.772Z</time></trkpt><trkpt lat="39.9142336" lon="16.0176569"><ele>864.0</ele><time>2026-04-25T10:09:59.767Z</time></trkpt><trkpt lat="39.9143055" lon="16.0178452"><ele>862.6666666666667</ele><time>2026-04-25T10:10:00.775Z</time></trkpt><trkpt lat="39.9143841" lon="16.0180254"><ele>861.3333333333334</ele><time>2026-04-25T10:10:01.774Z</time></trkpt><trkpt lat="39.914471" lon="16.0181922"><ele>860.0</ele><time>2026-04-25T10:10:02.771Z</time></trkpt><trkpt lat="39.9145646" lon="16.0183434"><ele>860.0</ele><time>2026-04-25T10:10:03.769Z</time></trkpt><trkpt lat="39.9146599" lon="16.0184858"><ele>860.0</ele><time>2026-04-25T10:10:04.776Z</time></trkpt><trkpt lat="39.9147515" lon="16.0186255"><ele>860.0</ele><time>2026-04-25T10:10:05.77Z</time></trkpt><trkpt lat="39.9148406" lon="16.0187556"><ele>860.0</ele><time>2026-04-25T10:10:06.773Z</time></trkpt><trkpt lat="39.9149213" lon="16.0188723"><ele>860.0</ele><time>2026-04-25T10:10:07.771Z</time></trkpt><trkpt lat="39.9149873" lon="16.0189714"><ele>860.0</ele><time>2026-04-25T10:10:08.772Z</time></trkpt><trkpt lat="39.9150413" lon="16.0190433"><ele>860.0</ele><time>2026-04-25T10:10:09.766Z</time></trkpt><trkpt lat="39.9151462" lon="16.0190969"><ele>860.0</ele><time>2026-04-25T10:10:11.78Z</time></trkpt><trkpt lat="39.9152563" lon="16.0190247"><ele>860.0</ele><time>2026-04-25T10:10:13.775Z</time></trkpt><trkpt lat="39.9153293" lon="16.0189758"><ele>858.8</ele><time>2026-04-25T10:10:14.775Z</time></trkpt><trkpt lat="39.9154164" lon="16.0189417"><ele>857.6</ele><time>2026-04-25T10:10:15.774Z</time></trkpt><trkpt lat="39.9155125" lon="16.018931"><ele>856.4000000000001</ele><time>2026-04-25T10:10:16.777Z</time></trkpt><trkpt lat="39.9156103" lon="16.0189558"><ele>855.2</ele><time>2026-04-25T10:10:17.777Z</time></trkpt><trkpt lat="39.9157083" lon="16.0190158"><ele>854.0</ele><time>2026-04-25T10:10:18.776Z</time></trkpt><trkpt lat="39.9158038" lon="16.0191023"><ele>852.5</ele><time>2026-04-25T10:10:19.781Z</time></trkpt><trkpt lat="39.9158986" lon="16.0192008"><ele>851.0</ele><time>2026-04-25T10:10:20.774Z</time></trkpt><trkpt lat="39.9159923" lon="16.0192973"><ele>849.5</ele><time>2026-04-25T10:10:21.766Z</time></trkpt><trkpt lat="39.9160829" lon="16.0193894"><ele>848.0</ele><time>2026-04-25T10:10:22.776Z</time></trkpt><trkpt lat="39.9161696" lon="16.0194707"><ele>848.0</ele><time>2026-04-25T10:10:23.771Z</time></trkpt><trkpt lat="39.9162556" lon="16.0195496"><ele>848.0</ele><time>2026-04-25T10:10:24.773Z</time></trkpt><trkpt lat="39.9163543" lon="16.0195987"><ele>848.0</ele><time>2026-04-25T10:10:25.768Z</time></trkpt><trkpt lat="39.9164554" lon="16.0196348"><ele>848.0</ele><time>2026-04-25T10:10:26.776Z</time></trkpt><trkpt lat="39.9165573" lon="16.0196427"><ele>848.0</ele><time>2026-04-25T10:10:27.767Z</time></trkpt><trkpt lat="39.9166573" lon="16.0196213"><ele>847.8</ele><time>2026-04-25T10:10:28.783Z</time></trkpt><trkpt lat="39.9167509" lon="16.0195868"><ele>847.5999999999999</ele><time>2026-04-25T10:10:29.778Z</time></trkpt><trkpt lat="39.9168433" lon="16.019547"><ele>847.4000000000001</ele><time>2026-04-25T10:10:30.771Z</time></trkpt><trkpt lat="39.9169335" lon="16.0195061"><ele>847.2</ele><time>2026-04-25T10:10:31.78Z</time></trkpt><trkpt lat="39.9170206" lon="16.0194671"><ele>847.0</ele><time>2026-04-25T10:10:32.775Z</time></trkpt><trkpt lat="39.9171014" lon="16.0194246"><ele>846.9999999999999</ele><time>2026-04-25T10:10:33.768Z</time></trkpt><trkpt lat="39.9171759" lon="16.0193793"><ele>847.0</ele><time>2026-04-25T10:10:34.781Z</time></trkpt><trkpt lat="39.9172476" lon="16.019337"><ele>847.0</ele><time>2026-04-25T10:10:35.777Z</time></trkpt><trkpt lat="39.9173169" lon="16.0192944"><ele>847.0</ele><time>2026-04-25T10:10:36.771Z</time></trkpt><trkpt lat="39.9173891" lon="16.0192547"><ele>846.9999999999999</ele><time>2026-04-25T10:10:37.776Z</time></trkpt><trkpt lat="39.9174601" lon="16.0192025"><ele>847.0</ele><time>2026-04-25T10:10:38.777Z</time></trkpt><trkpt lat="39.9175297" lon="16.0191562"><ele>844.7142857142857</ele><time>2026-04-25T10:10:39.772Z</time></trkpt><trkpt lat="39.9175974" lon="16.0191193"><ele>842.4285714285714</ele><time>2026-04-25T10:10:40.772Z</time></trkpt><trkpt lat="39.917663" lon="16.0190847"><ele>840.1428571428571</ele><time>2026-04-25T10:10:41.782Z</time></trkpt><trkpt lat="39.9177244" lon="16.0190547"><ele>837.8571428571429</ele><time>2026-04-25T10:10:42.778Z</time></trkpt><trkpt lat="39.9177849" lon="16.0190244"><ele>835.5714285714286</ele><time>2026-04-25T10:10:43.77Z</time></trkpt><trkpt lat="39.9178476" lon="16.0189983"><ele>833.2857142857142</ele><time>2026-04-25T10:10:44.777Z</time></trkpt><trkpt lat="39.9179173" lon="16.0189806"><ele>831.0</ele><time>2026-04-25T10:10:45.773Z</time></trkpt><trkpt lat="39.9179873" lon="16.0189739"><ele>831.0</ele><time>2026-04-25T10:10:46.773Z</time></trkpt><trkpt lat="39.9180559" lon="16.0189679"><ele>831.0</ele><time>2026-04-25T10:10:47.771Z</time></trkpt><trkpt lat="39.9181234" lon="16.0189612"><ele>831.0</ele><time>2026-04-25T10:10:48.773Z</time></trkpt><trkpt lat="39.9181912" lon="16.0189491"><ele>831.0</ele><time>2026-04-25T10:10:49.772Z</time></trkpt><trkpt lat="39.9183085" lon="16.0189199"><ele>831.0</ele><time>2026-04-25T10:10:51.774Z</time></trkpt><trkpt lat="39.918403" lon="16.018839"><ele>831.0</ele><time>2026-04-25T10:10:53.772Z</time></trkpt><trkpt lat="39.9184384" lon="16.0187525"><ele>828.4</ele><time>2026-04-25T10:10:54.775Z</time></trkpt><trkpt lat="39.9184607" lon="16.0186433"><ele>825.8</ele><time>2026-04-25T10:10:55.779Z</time></trkpt><trkpt lat="39.9184737" lon="16.0185215"><ele>823.1999999999999</ele><time>2026-04-25T10:10:56.785Z</time></trkpt><trkpt lat="39.9184862" lon="16.0183858"><ele>820.5999999999999</ele><time>2026-04-25T10:10:57.776Z</time></trkpt><trkpt lat="39.918503" lon="16.0182429"><ele>818.0</ele><time>2026-04-25T10:10:58.768Z</time></trkpt><trkpt lat="39.918525" lon="16.0181018"><ele>816.2</ele><time>2026-04-25T10:10:59.783Z</time></trkpt><trkpt lat="39.9185511" lon="16.0179618"><ele>814.4</ele><time>2026-04-25T10:11:00.774Z</time></trkpt><trkpt lat="39.9185691" lon="16.0178218"><ele>812.6</ele><time>2026-04-25T10:11:01.783Z</time></trkpt><trkpt lat="39.918574" lon="16.0176864"><ele>810.8000000000001</ele><time>2026-04-25T10:11:02.774Z</time></trkpt><trkpt lat="39.918572" lon="16.0175578"><ele>809.0</ele><time>2026-04-25T10:11:03.791Z</time></trkpt><trkpt lat="39.9185822" lon="16.0174399"><ele>806.6</ele><time>2026-04-25T10:11:04.775Z</time></trkpt><trkpt lat="39.918622" lon="16.0173387"><ele>804.2</ele><time>2026-04-25T10:11:05.783Z</time></trkpt><trkpt lat="39.918688" lon="16.0172617"><ele>801.8000000000001</ele><time>2026-04-25T10:11:06.772Z</time></trkpt><trkpt lat="39.9187695" lon="16.0172113"><ele>799.4000000000001</ele><time>2026-04-25T10:11:07.78Z</time></trkpt><trkpt lat="39.9188608" lon="16.017183"><ele>797.0</ele><time>2026-04-25T10:11:08.789Z</time></trkpt><trkpt lat="39.9189606" lon="16.0171717"><ele>797.0</ele><time>2026-04-25T10:11:09.78Z</time></trkpt><trkpt lat="39.9190659" lon="16.017171"><ele>797.0</ele><time>2026-04-25T10:11:10.778Z</time></trkpt><trkpt lat="39.9191696" lon="16.0171625"><ele>797.0</ele><time>2026-04-25T10:11:11.779Z</time></trkpt><trkpt lat="39.9192685" lon="16.0171277"><ele>797.0</ele><time>2026-04-25T10:11:12.777Z</time></trkpt><trkpt lat="39.9193562" lon="16.017064"><ele>797.0</ele><time>2026-04-25T10:11:13.786Z</time></trkpt><trkpt lat="39.91943" lon="16.0169743"><ele>796.0</ele><time>2026-04-25T10:11:14.78Z</time></trkpt><trkpt lat="39.9194929" lon="16.0168712"><ele>795.0</ele><time>2026-04-25T10:11:15.787Z</time></trkpt><trkpt lat="39.9195588" lon="16.0167703"><ele>794.0</ele><time>2026-04-25T10:11:16.771Z</time></trkpt><trkpt lat="39.9196345" lon="16.0166772"><ele>793.0</ele><time>2026-04-25T10:11:17.782Z</time></trkpt><trkpt lat="39.9197169" lon="16.0165912"><ele>792.0</ele><time>2026-04-25T10:11:18.778Z</time></trkpt><trkpt lat="39.9198051" lon="16.01651"><ele>790.4000000000001</ele><time>2026-04-25T10:11:19.782Z</time></trkpt><trkpt lat="39.9198989" lon="16.0164327"><ele>788.8000000000001</ele><time>2026-04-25T10:11:20.773Z</time></trkpt><trkpt lat="39.9199935" lon="16.0163561"><ele>787.2</ele><time>2026-04-25T10:11:21.78Z</time></trkpt><trkpt lat="39.9200832" lon="16.016268"><ele>785.6</ele><time>2026-04-25T10:11:22.778Z</time></trkpt><trkpt lat="39.9201595" lon="16.0161598"><ele>784.0</ele><time>2026-04-25T10:11:23.779Z</time></trkpt><trkpt lat="39.9202193" lon="16.0160352"><ele>781.0</ele><time>2026-04-25T10:11:24.779Z</time></trkpt><trkpt lat="39.920262" lon="16.0159044"><ele>778.0</ele><time>2026-04-25T10:11:25.787Z</time></trkpt><trkpt lat="39.920287" lon="16.0157651"><ele>775.0</ele><time>2026-04-25T10:11:26.774Z</time></trkpt><trkpt lat="39.9203052" lon="16.0156141"><ele>772.0</ele><time>2026-04-25T10:11:27.771Z</time></trkpt><trkpt lat="39.9203237" lon="16.015454"><ele>771.5</ele><time>2026-04-25T10:11:28.772Z</time></trkpt><trkpt lat="39.9203437" lon="16.0152909"><ele>771.0</ele><time>2026-04-25T10:11:29.781Z</time></trkpt><trkpt lat="39.9203656" lon="16.0151312"><ele>770.5</ele><time>2026-04-25T10:11:30.775Z</time></trkpt><trkpt lat="39.9203921" lon="16.0149764"><ele>770.0</ele><time>2026-04-25T10:11:31.784Z</time></trkpt><trkpt lat="39.9204271" lon="16.0148235"><ele>770.0</ele><time>2026-04-25T10:11:32.774Z</time></trkpt><trkpt lat="39.9204773" lon="16.014674"><ele>770.0</ele><time>2026-04-25T10:11:33.78Z</time></trkpt><trkpt lat="39.9205401" lon="16.0145283"><ele>770.0</ele><time>2026-04-25T10:11:34.786Z</time></trkpt><trkpt lat="39.9206083" lon="16.0143802"><ele>770.0</ele><time>2026-04-25T10:11:35.775Z</time></trkpt><trkpt lat="39.9206766" lon="16.0142273"><ele>769.75</ele><time>2026-04-25T10:11:36.773Z</time></trkpt><trkpt lat="39.9207434" lon="16.0140714"><ele>769.5</ele><time>2026-04-25T10:11:37.775Z</time></trkpt><trkpt lat="39.9208072" lon="16.0139143"><ele>769.25</ele><time>2026-04-25T10:11:38.783Z</time></trkpt><trkpt lat="39.9208682" lon="16.0137566"><ele>769.0</ele><time>2026-04-25T10:11:39.784Z</time></trkpt><trkpt lat="39.9209295" lon="16.0136007"><ele>767.75</ele><time>2026-04-25T10:11:40.789Z</time></trkpt><trkpt lat="39.92099" lon="16.013447"><ele>766.5</ele><time>2026-04-25T10:11:41.781Z</time></trkpt><trkpt lat="39.9210495" lon="16.0132931"><ele>765.25</ele><time>2026-04-25T10:11:42.773Z</time></trkpt><trkpt lat="39.9211071" lon="16.0131387"><ele>764.0</ele><time>2026-04-25T10:11:43.78Z</time></trkpt><trkpt lat="39.9211606" lon="16.0129829"><ele>764.0</ele><time>2026-04-25T10:11:44.773Z</time></trkpt><trkpt lat="39.92121" lon="16.0128257"><ele>764.0</ele><time>2026-04-25T10:11:45.776Z</time></trkpt><trkpt lat="39.9212582" lon="16.0126674"><ele>764.0</ele><time>2026-04-25T10:11:46.774Z</time></trkpt><trkpt lat="39.9213056" lon="16.012506"><ele>764.0</ele><time>2026-04-25T10:11:47.781Z</time></trkpt><trkpt lat="39.9213514" lon="16.0123413"><ele>764.25</ele><time>2026-04-25T10:11:48.778Z</time></trkpt><trkpt lat="39.9213968" lon="16.0121753"><ele>764.5</ele><time>2026-04-25T10:11:49.804Z</time></trkpt><trkpt lat="39.9214405" lon="16.0120104"><ele>764.75</ele><time>2026-04-25T10:11:50.794Z</time></trkpt><trkpt lat="39.9214838" lon="16.0118498"><ele>765.0</ele><time>2026-04-25T10:11:51.784Z</time></trkpt><trkpt lat="39.9215236" lon="16.0116943"><ele>765.0</ele><time>2026-04-25T10:11:52.778Z</time></trkpt><trkpt lat="39.921561" lon="16.011549"><ele>765.0</ele><time>2026-04-25T10:11:53.782Z</time></trkpt><trkpt lat="39.9215898" lon="16.0114077"><ele>765.0</ele><time>2026-04-25T10:11:54.77Z</time></trkpt><trkpt lat="39.9216126" lon="16.0112664"><ele>765.0</ele><time>2026-04-25T10:11:55.777Z</time></trkpt><trkpt lat="39.9216401" lon="16.0111273"><ele>765.0</ele><time>2026-04-25T10:11:56.791Z</time></trkpt><trkpt lat="39.9216718" lon="16.0109953"><ele>765.0</ele><time>2026-04-25T10:11:57.779Z</time></trkpt><trkpt lat="39.9217042" lon="16.0108686"><ele>765.0</ele><time>2026-04-25T10:11:58.776Z</time></trkpt><trkpt lat="39.9217347" lon="16.0107502"><ele>765.0</ele><time>2026-04-25T10:11:59.774Z</time></trkpt><trkpt lat="39.9217714" lon="16.0106362"><ele>765.0</ele><time>2026-04-25T10:12:00.775Z</time></trkpt><trkpt lat="39.9218109" lon="16.010525"><ele>762.8</ele><time>2026-04-25T10:12:01.787Z</time></trkpt><trkpt lat="39.92185" lon="16.0104128"><ele>760.6</ele><time>2026-04-25T10:12:02.783Z</time></trkpt><trkpt lat="39.9218882" lon="16.0102928"><ele>758.4000000000001</ele><time>2026-04-25T10:12:03.788Z</time></trkpt><trkpt lat="39.9219277" lon="16.0101653"><ele>756.2</ele><time>2026-04-25T10:12:04.773Z</time></trkpt><trkpt lat="39.921966" lon="16.0100347"><ele>754.0</ele><time>2026-04-25T10:12:05.778Z</time></trkpt><trkpt lat="39.9220029" lon="16.0099028"><ele>753.6</ele><time>2026-04-25T10:12:06.775Z</time></trkpt><trkpt lat="39.9220389" lon="16.0097711"><ele>753.2</ele><time>2026-04-25T10:12:07.79Z</time></trkpt><trkpt lat="39.9220778" lon="16.0096384"><ele>752.8000000000001</ele><time>2026-04-25T10:12:08.77Z</time></trkpt><trkpt lat="39.9221201" lon="16.0095012"><ele>752.4000000000001</ele><time>2026-04-25T10:12:09.774Z</time></trkpt><trkpt lat="39.9221644" lon="16.0093636"><ele>752.0</ele><time>2026-04-25T10:12:10.772Z</time></trkpt><trkpt lat="39.9222077" lon="16.0092283"><ele>751.0</ele><time>2026-04-25T10:12:11.773Z</time></trkpt><trkpt lat="39.9222487" lon="16.0090919"><ele>750.0</ele><time>2026-04-25T10:12:12.794Z</time></trkpt><trkpt lat="39.9222816" lon="16.0089528"><ele>749.0</ele><time>2026-04-25T10:12:13.781Z</time></trkpt><trkpt lat="39.9223042" lon="16.0088093"><ele>748.0</ele><time>2026-04-25T10:12:14.772Z</time></trkpt><trkpt lat="39.9223263" lon="16.0086656"><ele>747.0</ele><time>2026-04-25T10:12:15.775Z</time></trkpt><trkpt lat="39.9223385" lon="16.0085151"><ele>747.0</ele><time>2026-04-25T10:12:16.77Z</time></trkpt><trkpt lat="39.9223486" lon="16.008365"><ele>747.0</ele><time>2026-04-25T10:12:17.784Z</time></trkpt><trkpt lat="39.9223592" lon="16.0082123"><ele>747.0</ele><time>2026-04-25T10:12:18.775Z</time></trkpt><trkpt lat="39.9223659" lon="16.0080606"><ele>747.0</ele><time>2026-04-25T10:12:19.773Z</time></trkpt><trkpt lat="39.922368" lon="16.0079151"><ele>746.0</ele><time>2026-04-25T10:12:20.777Z</time></trkpt><trkpt lat="39.9223681" lon="16.0077785"><ele>745.0</ele><time>2026-04-25T10:12:21.791Z</time></trkpt><trkpt lat="39.9223704" lon="16.0076625"><ele>744.0</ele><time>2026-04-25T10:12:22.773Z</time></trkpt><trkpt lat="39.9223826" lon="16.0075659"><ele>743.0</ele><time>2026-04-25T10:12:23.782Z</time></trkpt><trkpt lat="39.9224121" lon="16.007492"><ele>742.0</ele><time>2026-04-25T10:12:24.776Z</time></trkpt><trkpt lat="39.9224622" lon="16.0074406"><ele>741.0</ele><time>2026-04-25T10:12:25.785Z</time></trkpt><trkpt lat="39.9225303" lon="16.0074058"><ele>739.1666666666666</ele><time>2026-04-25T10:12:26.777Z</time></trkpt><trkpt lat="39.9226013" lon="16.0073694"><ele>737.3333333333334</ele><time>2026-04-25T10:12:27.773Z</time></trkpt><trkpt lat="39.9226614" lon="16.0073123"><ele>735.5</ele><time>2026-04-25T10:12:28.781Z</time></trkpt><trkpt lat="39.9227052" lon="16.0072307"><ele>733.6666666666667</ele><time>2026-04-25T10:12:29.775Z</time></trkpt><trkpt lat="39.9227351" lon="16.0071283"><ele>731.8333333333334</ele><time>2026-04-25T10:12:30.775Z</time></trkpt><trkpt lat="39.9227586" lon="16.0070065"><ele>730.0</ele><time>2026-04-25T10:12:31.775Z</time></trkpt><trkpt lat="39.9227817" lon="16.006872"><ele>730.0</ele><time>2026-04-25T10:12:32.769Z</time></trkpt><trkpt lat="39.9228054" lon="16.0067262"><ele>730.0</ele><time>2026-04-25T10:12:33.787Z</time></trkpt><trkpt lat="39.9228307" lon="16.0065788"><ele>730.0</ele><time>2026-04-25T10:12:34.79Z</time></trkpt><trkpt lat="39.9228594" lon="16.0064332"><ele>730.0</ele><time>2026-04-25T10:12:35.787Z</time></trkpt><trkpt lat="39.9228924" lon="16.0062965"><ele>727.6</ele><time>2026-04-25T10:12:36.777Z</time></trkpt><trkpt lat="39.9229311" lon="16.0061711"><ele>725.2</ele><time>2026-04-25T10:12:37.78Z</time></trkpt><trkpt lat="39.9229825" lon="16.0060567"><ele>722.8</ele><time>2026-04-25T10:12:38.774Z</time></trkpt><trkpt lat="39.9230503" lon="16.0059548"><ele>720.4</ele><time>2026-04-25T10:12:39.773Z</time></trkpt><trkpt lat="39.9231305" lon="16.005868"><ele>718.0</ele><time>2026-04-25T10:12:40.774Z</time></trkpt><trkpt lat="39.9232202" lon="16.0057906"><ele>716.0</ele><time>2026-04-25T10:12:41.775Z</time></trkpt><trkpt lat="39.9233178" lon="16.0057238"><ele>714.0</ele><time>2026-04-25T10:12:42.773Z</time></trkpt><trkpt lat="39.923421" lon="16.0056663"><ele>712.0</ele><time>2026-04-25T10:12:43.778Z</time></trkpt><trkpt lat="39.9235263" lon="16.0056159"><ele>710.0</ele><time>2026-04-25T10:12:44.777Z</time></trkpt><trkpt lat="39.9236295" lon="16.0055665"><ele>708.0</ele><time>2026-04-25T10:12:45.784Z</time></trkpt><trkpt lat="39.9237267" lon="16.0055086"><ele>708.0</ele><time>2026-04-25T10:12:46.787Z</time></trkpt><trkpt lat="39.9238221" lon="16.0054516"><ele>708.0</ele><time>2026-04-25T10:12:47.795Z</time></trkpt><trkpt lat="39.9239094" lon="16.0053751"><ele>708.0</ele><time>2026-04-25T10:12:48.767Z</time></trkpt><trkpt lat="39.9239918" lon="16.0052858"><ele>708.0</ele><time>2026-04-25T10:12:49.788Z</time></trkpt><trkpt lat="39.9240666" lon="16.0051944"><ele>708.0</ele><time>2026-04-25T10:12:50.778Z</time></trkpt><trkpt lat="39.9241429" lon="16.0051025"><ele>708.0</ele><time>2026-04-25T10:12:51.773Z</time></trkpt><trkpt lat="39.9242253" lon="16.0050136"><ele>708.0</ele><time>2026-04-25T10:12:52.775Z</time></trkpt><trkpt lat="39.9243132" lon="16.0049276"><ele>708.0</ele><time>2026-04-25T10:12:53.776Z</time></trkpt><trkpt lat="39.9243992" lon="16.0048425"><ele>708.0</ele><time>2026-04-25T10:12:54.775Z</time></trkpt><trkpt lat="39.9244856" lon="16.0047633"><ele>708.0</ele><time>2026-04-25T10:12:55.776Z</time></trkpt><trkpt lat="39.92457" lon="16.0046871"><ele>706.2</ele><time>2026-04-25T10:12:56.779Z</time></trkpt><trkpt lat="39.924664" lon="16.0046255"><ele>704.4</ele><time>2026-04-25T10:12:57.773Z</time></trkpt><trkpt lat="39.9247588" lon="16.0045766"><ele>702.6</ele><time>2026-04-25T10:12:58.777Z</time></trkpt><trkpt lat="39.9248522" lon="16.0045352"><ele>700.8000000000001</ele><time>2026-04-25T10:12:59.78Z</time></trkpt><trkpt lat="39.9249439" lon="16.0044916"><ele>699.0</ele><time>2026-04-25T10:13:00.792Z</time></trkpt><trkpt lat="39.9250313" lon="16.0044464"><ele>698.0</ele><time>2026-04-25T10:13:01.783Z</time></trkpt><trkpt lat="39.9251131" lon="16.0044017"><ele>697.0</ele><time>2026-04-25T10:13:02.778Z</time></trkpt><trkpt lat="39.9251878" lon="16.0043519"><ele>696.0</ele><time>2026-04-25T10:13:03.775Z</time></trkpt><trkpt lat="39.9252514" lon="16.0043037"><ele>695.0</ele><time>2026-04-25T10:13:04.777Z</time></trkpt><trkpt lat="39.925308" lon="16.0042611"><ele>694.0</ele><time>2026-04-25T10:13:05.781Z</time></trkpt><trkpt lat="39.9253264" lon="16.0041351"><ele>693.0</ele><time>2026-04-25T10:13:07.779Z</time></trkpt><trkpt lat="39.9252531" lon="16.0040195"><ele>692.4</ele><time>2026-04-25T10:13:09.778Z</time></trkpt><trkpt lat="39.9251944" lon="16.0039517"><ele>691.8</ele><time>2026-04-25T10:13:10.777Z</time></trkpt><trkpt lat="39.9251282" lon="16.0038708"><ele>691.2</ele><time>2026-04-25T10:13:11.766Z</time></trkpt><trkpt lat="39.9250653" lon="16.0037702"><ele>690.6</ele><time>2026-04-25T10:13:12.777Z</time></trkpt><trkpt lat="39.9250099" lon="16.0036567"><ele>690.0</ele><time>2026-04-25T10:13:13.775Z</time></trkpt><trkpt lat="39.9249615" lon="16.0035355"><ele>690.0</ele><time>2026-04-25T10:13:14.775Z</time></trkpt><trkpt lat="39.924918" lon="16.0034205"><ele>690.0</ele><time>2026-04-25T10:13:15.772Z</time></trkpt><trkpt lat="39.924869" lon="16.0033171"><ele>690.0</ele><time>2026-04-25T10:13:16.778Z</time></trkpt><trkpt lat="39.9248026" lon="16.0032411"><ele>690.0</ele><time>2026-04-25T10:13:17.778Z</time></trkpt><trkpt lat="39.924727" lon="16.0031878"><ele>690.0</ele><time>2026-04-25T10:13:18.78Z</time></trkpt><trkpt lat="39.9246545" lon="16.0031381"><ele>690.0</ele><time>2026-04-25T10:13:19.764Z</time></trkpt><trkpt lat="39.9245894" lon="16.0030965"><ele>688.5</ele><time>2026-04-25T10:13:20.781Z</time></trkpt><trkpt lat="39.9245453" lon="16.0030354"><ele>687.0</ele><time>2026-04-25T10:13:21.767Z</time></trkpt><trkpt lat="39.9245349" lon="16.0028683"><ele>685.5</ele><time>2026-04-25T10:13:23.776Z</time></trkpt><trkpt lat="39.9245448" lon="16.0027784"><ele>684.0</ele><time>2026-04-25T10:13:24.778Z</time></trkpt><trkpt lat="39.924577" lon="16.0026736"><ele>682.5</ele><time>2026-04-25T10:13:25.77Z</time></trkpt><trkpt lat="39.9246063" lon="16.0025643"><ele>681.0</ele><time>2026-04-25T10:13:26.797Z</time></trkpt><trkpt lat="39.9246239" lon="16.0024527"><ele>680.5</ele><time>2026-04-25T10:13:27.776Z</time></trkpt><trkpt lat="39.9246248" lon="16.0023381"><ele>680.0</ele><time>2026-04-25T10:13:28.768Z</time></trkpt><trkpt lat="39.9246192" lon="16.0022274"><ele>679.5</ele><time>2026-04-25T10:13:29.777Z</time></trkpt><trkpt lat="39.9246196" lon="16.0021203"><ele>679.0</ele><time>2026-04-25T10:13:30.768Z</time></trkpt><trkpt lat="39.9246338" lon="16.0020157"><ele>678.5</ele><time>2026-04-25T10:13:31.766Z</time></trkpt><trkpt lat="39.9246656" lon="16.0019177"><ele>678.0</ele><time>2026-04-25T10:13:32.774Z</time></trkpt><trkpt lat="39.9247127" lon="16.0018298"><ele>678.0</ele><time>2026-04-25T10:13:33.785Z</time></trkpt><trkpt lat="39.9247548" lon="16.0017376"><ele>678.0</ele><time>2026-04-25T10:13:34.766Z</time></trkpt><trkpt lat="39.9247862" lon="16.0016419"><ele>678.0</ele><time>2026-04-25T10:13:35.762Z</time></trkpt><trkpt lat="39.9248135" lon="16.001545"><ele>678.0</ele><time>2026-04-25T10:13:36.796Z</time></trkpt><trkpt lat="39.9248166" lon="16.0014366"><ele>678.0</ele><time>2026-04-25T10:13:37.768Z</time></trkpt><trkpt lat="39.9248129" lon="16.0013241"><ele>678.0</ele><time>2026-04-25T10:13:38.767Z</time></trkpt><trkpt lat="39.9248001" lon="16.0012102"><ele>678.0</ele><time>2026-04-25T10:13:39.771Z</time></trkpt><trkpt lat="39.9247879" lon="16.001097"><ele>678.0</ele><time>2026-04-25T10:13:40.778Z</time></trkpt><trkpt lat="39.9247848" lon="16.0009827"><ele>678.0</ele><time>2026-04-25T10:13:41.772Z</time></trkpt><trkpt lat="39.9247968" lon="16.0008711"><ele>678.0</ele><time>2026-04-25T10:13:42.766Z</time></trkpt><trkpt lat="39.9248242" lon="16.0007591"><ele>678.0</ele><time>2026-04-25T10:13:43.781Z</time></trkpt><trkpt lat="39.9248614" lon="16.0006492"><ele>678.0</ele><time>2026-04-25T10:13:44.778Z</time></trkpt><trkpt lat="39.9248991" lon="16.0005407"><ele>677.6666666666666</ele><time>2026-04-25T10:13:45.772Z</time></trkpt><trkpt lat="39.9249371" lon="16.0004315"><ele>677.3333333333334</ele><time>2026-04-25T10:13:46.773Z</time></trkpt><trkpt lat="39.9249691" lon="16.0003217"><ele>677.0</ele><time>2026-04-25T10:13:47.774Z</time></trkpt><trkpt lat="39.9249938" lon="16.0002095"><ele>676.6666666666667</ele><time>2026-04-25T10:13:48.773Z</time></trkpt><trkpt lat="39.9250118" lon="16.0001002"><ele>676.3333333333334</ele><time>2026-04-25T10:13:49.774Z</time></trkpt><trkpt lat="39.925027" lon="15.9999973"><ele>676.0</ele><time>2026-04-25T10:13:50.776Z</time></trkpt><trkpt lat="39.9250092" lon="15.9999052"><ele>676.0</ele><time>2026-04-25T10:13:51.778Z</time></trkpt><trkpt lat="39.9249384" lon="15.9997874"><ele>676.0</ele><time>2026-04-25T10:13:53.77Z</time></trkpt><trkpt lat="39.9248072" lon="15.9997982"><ele>676.0</ele><time>2026-04-25T10:13:55.768Z</time></trkpt><trkpt lat="39.9247323" lon="15.9998233"><ele>676.0</ele><time>2026-04-25T10:13:56.769Z</time></trkpt><trkpt lat="39.924631" lon="15.999846"><ele>676.0</ele><time>2026-04-25T10:13:58.778Z</time></trkpt><trkpt lat="39.9246034" lon="15.9997591"><ele>676.0</ele><time>2026-04-25T10:14:00.787Z</time></trkpt><trkpt lat="39.9246656" lon="15.9996086"><ele>676.0</ele><time>2026-04-25T10:14:02.781Z</time></trkpt><trkpt lat="39.9247058" lon="15.9995154"><ele>676.0</ele><time>2026-04-25T10:14:03.774Z</time></trkpt><trkpt lat="39.924752" lon="15.9994094"><ele>676.0</ele><time>2026-04-25T10:14:04.767Z</time></trkpt><trkpt lat="39.9248029" lon="15.9992981"><ele>676.0</ele><time>2026-04-25T10:14:05.767Z</time></trkpt><trkpt lat="39.9248553" lon="15.9991839"><ele>674.8</ele><time>2026-04-25T10:14:06.773Z</time></trkpt><trkpt lat="39.9249085" lon="15.9990671"><ele>673.5999999999999</ele><time>2026-04-25T10:14:07.777Z</time></trkpt><trkpt lat="39.9249658" lon="15.9989458"><ele>672.4</ele><time>2026-04-25T10:14:08.774Z</time></trkpt><trkpt lat="39.9250204" lon="15.9988422"><ele>671.2</ele><time>2026-04-25T10:14:09.773Z</time></trkpt><trkpt lat="39.9250685" lon="15.998738"><ele>670.0</ele><time>2026-04-25T10:14:10.783Z</time></trkpt><trkpt lat="39.9251167" lon="15.9986571"><ele>668.0</ele><time>2026-04-25T10:14:11.783Z</time></trkpt><trkpt lat="39.9251752" lon="15.9986018"><ele>666.0</ele><time>2026-04-25T10:14:12.776Z</time></trkpt><trkpt lat="39.9252368" lon="15.9985732"><ele>664.0</ele><time>2026-04-25T10:14:13.785Z</time></trkpt><trkpt lat="39.9253398" lon="15.9985006"><ele>662.0</ele><time>2026-04-25T10:14:15.773Z</time></trkpt><trkpt lat="39.9253852" lon="15.9983711"><ele>660.0</ele><time>2026-04-25T10:14:17.766Z</time></trkpt><trkpt lat="39.9253583" lon="15.9982562"><ele>659.6</ele><time>2026-04-25T10:14:19.776Z</time></trkpt><trkpt lat="39.9252584" lon="15.99817"><ele>659.2</ele><time>2026-04-25T10:14:21.774Z</time></trkpt><trkpt lat="39.9251493" lon="15.998097"><ele>658.8</ele><time>2026-04-25T10:14:23.781Z</time></trkpt><trkpt lat="39.9250372" lon="15.9980659"><ele>658.4</ele><time>2026-04-25T10:14:25.774Z</time></trkpt><trkpt lat="39.9249757" lon="15.9980852"><ele>658.0</ele><time>2026-04-25T10:14:26.772Z</time></trkpt><trkpt lat="39.9249127" lon="15.9981095"><ele>658.0</ele><time>2026-04-25T10:14:27.779Z</time></trkpt><trkpt lat="39.9248483" lon="15.9981539"><ele>658.0</ele><time>2026-04-25T10:14:28.771Z</time></trkpt><trkpt lat="39.9247771" lon="15.9982097"><ele>658.0</ele><time>2026-04-25T10:14:29.785Z</time></trkpt><trkpt lat="39.9246981" lon="15.9982605"><ele>658.0</ele><time>2026-04-25T10:14:30.777Z</time></trkpt><trkpt lat="39.9246116" lon="15.9983135"><ele>658.0</ele><time>2026-04-25T10:14:31.781Z</time></trkpt><trkpt lat="39.9245234" lon="15.9983631"><ele>658.0</ele><time>2026-04-25T10:14:32.779Z</time></trkpt><trkpt lat="39.9244534" lon="15.9983747"><ele>658.0</ele><time>2026-04-25T10:14:33.768Z</time></trkpt><trkpt lat="39.9243783" lon="15.9983515"><ele>658.0</ele><time>2026-04-25T10:14:34.759Z</time></trkpt><trkpt lat="39.9243169" lon="15.9983222"><ele>658.0</ele><time>2026-04-25T10:14:35.775Z</time></trkpt><trkpt lat="39.9242848" lon="15.9982382"><ele>658.0</ele><time>2026-04-25T10:14:36.775Z</time></trkpt><trkpt lat="39.9242705" lon="15.9981377"><ele>658.0</ele><time>2026-04-25T10:14:37.772Z</time></trkpt><trkpt lat="39.9242668" lon="15.9980211"><ele>658.0</ele><time>2026-04-25T10:14:38.774Z</time></trkpt><trkpt lat="39.9242638" lon="15.9978983"><ele>658.0</ele><time>2026-04-25T10:14:39.777Z</time></trkpt><trkpt lat="39.924264" lon="15.997768"><ele>658.0</ele><time>2026-04-25T10:14:40.771Z</time></trkpt><trkpt lat="39.9242588" lon="15.9976404"><ele>658.0</ele><time>2026-04-25T10:14:41.775Z</time></trkpt><trkpt lat="39.9242498" lon="15.9975148"><ele>658.0</ele><time>2026-04-25T10:14:42.774Z</time></trkpt><trkpt lat="39.924237" lon="15.9973928"><ele>658.0</ele><time>2026-04-25T10:14:43.785Z</time></trkpt><trkpt lat="39.9242169" lon="15.9972838"><ele>653.1999999999999</ele><time>2026-04-25T10:14:44.786Z</time></trkpt><trkpt lat="39.9241987" lon="15.9971936"><ele>648.4</ele><time>2026-04-25T10:14:45.766Z</time></trkpt><trkpt lat="39.9240936" lon="15.9971308"><ele>643.5999999999999</ele><time>2026-04-25T10:14:47.796Z</time></trkpt><trkpt lat="39.9240455" lon="15.9972276"><ele>638.8</ele><time>2026-04-25T10:14:49.787Z</time></trkpt><trkpt lat="39.9240781" lon="15.9973715"><ele>634.0</ele><time>2026-04-25T10:14:51.771Z</time></trkpt><trkpt lat="39.9241019" lon="15.9974741"><ele>635.3333333333334</ele><time>2026-04-25T10:14:52.771Z</time></trkpt><trkpt lat="39.9241182" lon="15.9975892"><ele>636.6666666666667</ele><time>2026-04-25T10:14:53.774Z</time></trkpt><trkpt lat="39.9241168" lon="15.9976938"><ele>638.0</ele><time>2026-04-25T10:14:54.777Z</time></trkpt><trkpt lat="39.924114" lon="15.9977818"><ele>639.3333333333334</ele><time>2026-04-25T10:14:55.782Z</time></trkpt><trkpt lat="39.9240531" lon="15.9978301"><ele>640.6666666666666</ele><time>2026-04-25T10:14:57.776Z</time></trkpt><trkpt lat="39.924" lon="15.9977606"><ele>642.0</ele><time>2026-04-25T10:14:59.794Z</time></trkpt><trkpt lat="39.9239845" lon="15.9976016"><ele>640.4</ele><time>2026-04-25T10:15:01.778Z</time></trkpt><trkpt lat="39.9239733" lon="15.9974999"><ele>638.8000000000001</ele><time>2026-04-25T10:15:02.779Z</time></trkpt><trkpt lat="39.9239525" lon="15.9973938"><ele>637.2</ele><time>2026-04-25T10:15:03.776Z</time></trkpt><trkpt lat="39.9239308" lon="15.9972759"><ele>635.6</ele><time>2026-04-25T10:15:04.777Z</time></trkpt><trkpt lat="39.9239222" lon="15.9971486"><ele>634.0</ele><time>2026-04-25T10:15:05.771Z</time></trkpt><trkpt lat="39.9239426" lon="15.9970221"><ele>634.0</ele><time>2026-04-25T10:15:06.777Z</time></trkpt><trkpt lat="39.9239931" lon="15.9969181"><ele>634.0</ele><time>2026-04-25T10:15:07.774Z</time></trkpt><trkpt lat="39.9240619" lon="15.9968573"><ele>634.0</ele><time>2026-04-25T10:15:08.774Z</time></trkpt><trkpt lat="39.9241288" lon="15.9968538"><ele>634.0</ele><time>2026-04-25T10:15:09.772Z</time></trkpt><trkpt lat="39.9241896" lon="15.9968966"><ele>634.0</ele><time>2026-04-25T10:15:10.781Z</time></trkpt><trkpt lat="39.924252" lon="15.9969715"><ele>634.0</ele><time>2026-04-25T10:15:11.773Z</time></trkpt><trkpt lat="39.924323" lon="15.9970599"><ele>635.8</ele><time>2026-04-25T10:15:12.771Z</time></trkpt><trkpt lat="39.9244008" lon="15.9971588"><ele>637.5999999999999</ele><time>2026-04-25T10:15:13.77Z</time></trkpt><trkpt lat="39.9244807" lon="15.9972604"><ele>639.4</ele><time>2026-04-25T10:15:14.778Z</time></trkpt><trkpt lat="39.924567" lon="15.9973457"><ele>641.1999999999999</ele><time>2026-04-25T10:15:15.775Z</time></trkpt><trkpt lat="39.9246705" lon="15.9973995"><ele>643.0</ele><time>2026-04-25T10:15:16.763Z</time></trkpt><trkpt lat="39.9247888" lon="15.9974133"><ele>643.0</ele><time>2026-04-25T10:15:17.784Z</time></trkpt><trkpt lat="39.9249083" lon="15.9973899"><ele>643.0</ele><time>2026-04-25T10:15:18.775Z</time></trkpt><trkpt lat="39.9250221" lon="15.9973306"><ele>643.0</ele><time>2026-04-25T10:15:19.768Z</time></trkpt><trkpt lat="39.9251203" lon="15.9972358"><ele>643.0</ele><time>2026-04-25T10:15:20.78Z</time></trkpt><trkpt lat="39.9252167" lon="15.9971417"><ele>644.0</ele><time>2026-04-25T10:15:21.774Z</time></trkpt><trkpt lat="39.925298" lon="15.9970222"><ele>645.0</ele><time>2026-04-25T10:15:22.772Z</time></trkpt><trkpt lat="39.925392" lon="15.9969245"><ele>646.0</ele><time>2026-04-25T10:15:23.772Z</time></trkpt><trkpt lat="39.9254964" lon="15.9968465"><ele>647.0</ele><time>2026-04-25T10:15:24.78Z</time></trkpt><trkpt lat="39.9256129" lon="15.9967734"><ele>647.0</ele><time>2026-04-25T10:15:25.783Z</time></trkpt><trkpt lat="39.9257356" lon="15.9966976"><ele>647.0</ele><time>2026-04-25T10:15:26.778Z</time></trkpt><trkpt lat="39.9258547" lon="15.9966269"><ele>647.0</ele><time>2026-04-25T10:15:27.777Z</time></trkpt><trkpt lat="39.9259632" lon="15.996563"><ele>647.0</ele><time>2026-04-25T10:15:28.78Z</time></trkpt><trkpt lat="39.9260623" lon="15.9965153"><ele>645.0</ele><time>2026-04-25T10:15:29.768Z</time></trkpt><trkpt lat="39.9261561" lon="15.9964989"><ele>643.0</ele><time>2026-04-25T10:15:30.771Z</time></trkpt><trkpt lat="39.9262497" lon="15.9965219"><ele>641.0</ele><time>2026-04-25T10:15:31.788Z</time></trkpt><trkpt lat="39.9263434" lon="15.9965785"><ele>639.0</ele><time>2026-04-25T10:15:32.772Z</time></trkpt><trkpt lat="39.9264365" lon="15.996645"><ele>637.0</ele><time>2026-04-25T10:15:33.764Z</time></trkpt><trkpt lat="39.9265271" lon="15.9966887"><ele>637.0</ele><time>2026-04-25T10:15:34.773Z</time></trkpt><trkpt lat="39.9266155" lon="15.9966911"><ele>637.0</ele><time>2026-04-25T10:15:35.771Z</time></trkpt><trkpt lat="39.9266888" lon="15.9966505"><ele>637.0</ele><time>2026-04-25T10:15:36.772Z</time></trkpt><trkpt lat="39.9267498" lon="15.9965792"><ele>637.0</ele><time>2026-04-25T10:15:37.77Z</time></trkpt><trkpt lat="39.9268021" lon="15.9964834"><ele>637.0</ele><time>2026-04-25T10:15:38.781Z</time></trkpt><trkpt lat="39.9268508" lon="15.9963692"><ele>637.0</ele><time>2026-04-25T10:15:39.785Z</time></trkpt><trkpt lat="39.9269062" lon="15.9962506"><ele>633.75</ele><time>2026-04-25T10:15:40.778Z</time></trkpt><trkpt lat="39.9269795" lon="15.9961423"><ele>630.5</ele><time>2026-04-25T10:15:41.77Z</time></trkpt><trkpt lat="39.9270727" lon="15.9960551"><ele>627.25</ele><time>2026-04-25T10:15:42.775Z</time></trkpt><trkpt lat="39.9271799" lon="15.9959854"><ele>624.0</ele><time>2026-04-25T10:15:43.784Z</time></trkpt><trkpt lat="39.9273042" lon="15.9959362"><ele>624.0</ele><time>2026-04-25T10:15:44.773Z</time></trkpt><trkpt lat="39.9274323" lon="15.9958996"><ele>624.0</ele><time>2026-04-25T10:15:45.785Z</time></trkpt><trkpt lat="39.9275603" lon="15.9958659"><ele>624.0</ele><time>2026-04-25T10:15:46.769Z</time></trkpt><trkpt lat="39.9276845" lon="15.9958189"><ele>624.0</ele><time>2026-04-25T10:15:47.782Z</time></trkpt><trkpt lat="39.9278016" lon="15.995748"><ele>619.75</ele><time>2026-04-25T10:15:48.764Z</time></trkpt><trkpt lat="39.9279097" lon="15.9956558"><ele>615.5</ele><time>2026-04-25T10:15:49.767Z</time></trkpt><trkpt lat="39.9280111" lon="15.9955547"><ele>611.25</ele><time>2026-04-25T10:15:50.788Z</time></trkpt><trkpt lat="39.9281065" lon="15.9954481"><ele>607.0</ele><time>2026-04-25T10:15:51.781Z</time></trkpt><trkpt lat="39.9281941" lon="15.9953466"><ele>607.0</ele><time>2026-04-25T10:15:52.771Z</time></trkpt><trkpt lat="39.9282718" lon="15.995249"><ele>607.0</ele><time>2026-04-25T10:15:53.77Z</time></trkpt><trkpt lat="39.9283435" lon="15.9951696"><ele>607.0</ele><time>2026-04-25T10:15:54.779Z</time></trkpt><trkpt lat="39.9284139" lon="15.9951246"><ele>607.0</ele><time>2026-04-25T10:15:55.783Z</time></trkpt><trkpt lat="39.9284793" lon="15.9951271"><ele>607.0</ele><time>2026-04-25T10:15:56.786Z</time></trkpt><trkpt lat="39.9285557" lon="15.9952156"><ele>607.0</ele><time>2026-04-25T10:15:58.776Z</time></trkpt><trkpt lat="39.9285426" lon="15.9953169"><ele>606.0</ele><time>2026-04-25T10:15:59.766Z</time></trkpt><trkpt lat="39.9285091" lon="15.995433"><ele>605.0</ele><time>2026-04-25T10:16:00.775Z</time></trkpt><trkpt lat="39.9284716" lon="15.9955645"><ele>604.0</ele><time>2026-04-25T10:16:01.779Z</time></trkpt><trkpt lat="39.9284338" lon="15.9957126"><ele>603.0</ele><time>2026-04-25T10:16:02.777Z</time></trkpt><trkpt lat="39.928397" lon="15.9958753"><ele>603.75</ele><time>2026-04-25T10:16:03.769Z</time></trkpt><trkpt lat="39.9283601" lon="15.9960469"><ele>604.5</ele><time>2026-04-25T10:16:04.784Z</time></trkpt><trkpt lat="39.9283194" lon="15.9962251"><ele>605.25</ele><time>2026-04-25T10:16:05.767Z</time></trkpt><trkpt lat="39.9282817" lon="15.9964057"><ele>606.0</ele><time>2026-04-25T10:16:06.775Z</time></trkpt><trkpt lat="39.9282458" lon="15.9965802"><ele>607.6</ele><time>2026-04-25T10:16:07.766Z</time></trkpt><trkpt lat="39.928212" lon="15.9967494"><ele>609.2</ele><time>2026-04-25T10:16:08.77Z</time></trkpt><trkpt lat="39.9281878" lon="15.9969"><ele>610.8</ele><time>2026-04-25T10:16:09.777Z</time></trkpt><trkpt lat="39.9281717" lon="15.9970248"><ele>612.4</ele><time>2026-04-25T10:16:10.8Z</time></trkpt><trkpt lat="39.9281526" lon="15.9971427"><ele>614.0</ele><time>2026-04-25T10:16:11.782Z</time></trkpt><trkpt lat="39.9281573" lon="15.9972506"><ele>614.0</ele><time>2026-04-25T10:16:12.777Z</time></trkpt><trkpt lat="39.9282079" lon="15.9973313"><ele>614.0</ele><time>2026-04-25T10:16:13.791Z</time></trkpt><trkpt lat="39.9282669" lon="15.9973709"><ele>614.0</ele><time>2026-04-25T10:16:14.777Z</time></trkpt><trkpt lat="39.9283322" lon="15.9973655"><ele>614.0</ele><time>2026-04-25T10:16:15.769Z</time></trkpt><trkpt lat="39.9283956" lon="15.9973136"><ele>614.0</ele><time>2026-04-25T10:16:16.786Z</time></trkpt><trkpt lat="39.9284577" lon="15.9972202"><ele>614.0</ele><time>2026-04-25T10:16:17.782Z</time></trkpt><trkpt lat="39.9285248" lon="15.9970954"><ele>616.25</ele><time>2026-04-25T10:16:18.772Z</time></trkpt><trkpt lat="39.9286029" lon="15.9969587"><ele>618.5</ele><time>2026-04-25T10:16:19.768Z</time></trkpt><trkpt lat="39.9286974" lon="15.9968202"><ele>620.75</ele><time>2026-04-25T10:16:20.8Z</time></trkpt><trkpt lat="39.9288004" lon="15.9966827"><ele>623.0</ele><time>2026-04-25T10:16:21.786Z</time></trkpt><trkpt lat="39.9289112" lon="15.9965453"><ele>618.3333333333333</ele><time>2026-04-25T10:16:22.77Z</time></trkpt><trkpt lat="39.9290287" lon="15.9964146"><ele>613.6666666666666</ele><time>2026-04-25T10:16:23.786Z</time></trkpt><trkpt lat="39.9291586" lon="15.9962939"><ele>609.0</ele><time>2026-04-25T10:16:24.775Z</time></trkpt><trkpt lat="39.9292976" lon="15.9961897"><ele>609.0</ele><time>2026-04-25T10:16:25.764Z</time></trkpt><trkpt lat="39.9294448" lon="15.9960989"><ele>609.0</ele><time>2026-04-25T10:16:26.776Z</time></trkpt><trkpt lat="39.9295944" lon="15.9960127"><ele>609.0</ele><time>2026-04-25T10:16:27.808Z</time></trkpt><trkpt lat="39.9297447" lon="15.9959301"><ele>609.0</ele><time>2026-04-25T10:16:28.779Z</time></trkpt><trkpt lat="39.9298893" lon="15.9958473"><ele>609.0</ele><time>2026-04-25T10:16:29.779Z</time></trkpt><trkpt lat="39.9300264" lon="15.9957658"><ele>609.0</ele><time>2026-04-25T10:16:30.783Z</time></trkpt><trkpt lat="39.9301631" lon="15.9957045"><ele>603.75</ele><time>2026-04-25T10:16:31.77Z</time></trkpt><trkpt lat="39.9303031" lon="15.9956753"><ele>598.5</ele><time>2026-04-25T10:16:32.772Z</time></trkpt><trkpt lat="39.9304475" lon="15.9956547"><ele>593.25</ele><time>2026-04-25T10:16:33.769Z</time></trkpt><trkpt lat="39.9305913" lon="15.9956528"><ele>588.0</ele><time>2026-04-25T10:16:34.783Z</time></trkpt><trkpt lat="39.9307438" lon="15.9956226"><ele>588.0</ele><time>2026-04-25T10:16:35.773Z</time></trkpt><trkpt lat="39.930892" lon="15.9955767"><ele>588.0</ele><time>2026-04-25T10:16:36.771Z</time></trkpt><trkpt lat="39.9310449" lon="15.9955264"><ele>588.0</ele><time>2026-04-25T10:16:37.766Z</time></trkpt><trkpt lat="39.9311999" lon="15.9954702"><ele>588.0</ele><time>2026-04-25T10:16:38.766Z</time></trkpt><trkpt lat="39.9313551" lon="15.9954135"><ele>588.0</ele><time>2026-04-25T10:16:39.767Z</time></trkpt><trkpt lat="39.9315066" lon="15.995355"><ele>588.0</ele><time>2026-04-25T10:16:40.77Z</time></trkpt><trkpt lat="39.9316518" lon="15.9952859"><ele>585.75</ele><time>2026-04-25T10:16:41.772Z</time></trkpt><trkpt lat="39.9317871" lon="15.9951997"><ele>583.5</ele><time>2026-04-25T10:16:42.778Z</time></trkpt><trkpt lat="39.9319076" lon="15.9951087"><ele>581.25</ele><time>2026-04-25T10:16:43.772Z</time></trkpt><trkpt lat="39.9320165" lon="15.9950271"><ele>579.0</ele><time>2026-04-25T10:16:44.772Z</time></trkpt><trkpt lat="39.932123" lon="15.9949808"><ele>579.0</ele><time>2026-04-25T10:16:45.775Z</time></trkpt><trkpt lat="39.9322281" lon="15.994984"><ele>579.0</ele><time>2026-04-25T10:16:46.766Z</time></trkpt><trkpt lat="39.9323261" lon="15.9950398"><ele>579.0</ele><time>2026-04-25T10:16:47.783Z</time></trkpt><trkpt lat="39.9324115" lon="15.9951379"><ele>579.0</ele><time>2026-04-25T10:16:48.77Z</time></trkpt><trkpt lat="39.932481" lon="15.9952621"><ele>579.0</ele><time>2026-04-25T10:16:49.78Z</time></trkpt><trkpt lat="39.9325392" lon="15.9953881"><ele>578.0</ele><time>2026-04-25T10:16:50.78Z</time></trkpt><trkpt lat="39.9325977" lon="15.9955172"><ele>577.0</ele><time>2026-04-25T10:16:51.775Z</time></trkpt><trkpt lat="39.9326853" lon="15.9955804"><ele>576.0</ele><time>2026-04-25T10:16:52.772Z</time></trkpt><trkpt lat="39.9327833" lon="15.9956257"><ele>575.0</ele><time>2026-04-25T10:16:53.772Z</time></trkpt><trkpt lat="39.9328776" lon="15.9956597"><ele>574.0</ele><time>2026-04-25T10:16:54.769Z</time></trkpt><trkpt lat="39.9329656" lon="15.995694"><ele>574.0</ele><time>2026-04-25T10:16:55.782Z</time></trkpt><trkpt lat="39.9330323" lon="15.9956495"><ele>574.0</ele><time>2026-04-25T10:16:56.767Z</time></trkpt><trkpt lat="39.9330698" lon="15.9955743"><ele>574.0</ele><time>2026-04-25T10:16:57.775Z</time></trkpt><trkpt lat="39.9330971" lon="15.9954818"><ele>574.0</ele><time>2026-04-25T10:16:58.781Z</time></trkpt><trkpt lat="39.9331204" lon="15.9953634"><ele>574.0</ele><time>2026-04-25T10:16:59.775Z</time></trkpt><trkpt lat="39.9331426" lon="15.9952293"><ele>574.0</ele><time>2026-04-25T10:17:00.775Z</time></trkpt><trkpt lat="39.9331648" lon="15.9950764"><ele>571.5</ele><time>2026-04-25T10:17:01.775Z</time></trkpt><trkpt lat="39.9331953" lon="15.9949189"><ele>569.0</ele><time>2026-04-25T10:17:02.778Z</time></trkpt><trkpt lat="39.9332287" lon="15.9947558"><ele>566.5</ele><time>2026-04-25T10:17:03.778Z</time></trkpt><trkpt lat="39.9332643" lon="15.994592"><ele>564.0</ele><time>2026-04-25T10:17:04.776Z</time></trkpt><trkpt lat="39.933318" lon="15.994435"><ele>564.0</ele><time>2026-04-25T10:17:05.771Z</time></trkpt><trkpt lat="39.9333864" lon="15.9942828"><ele>564.0</ele><time>2026-04-25T10:17:06.771Z</time></trkpt><trkpt lat="39.9334623" lon="15.9941292"><ele>564.0</ele><time>2026-04-25T10:17:07.778Z</time></trkpt><trkpt lat="39.9335462" lon="15.9939748"><ele>564.0</ele><time>2026-04-25T10:17:08.768Z</time></trkpt><trkpt lat="39.9336448" lon="15.9938315"><ele>563.25</ele><time>2026-04-25T10:17:09.777Z</time></trkpt><trkpt lat="39.9337508" lon="15.9937101"><ele>562.5</ele><time>2026-04-25T10:17:10.79Z</time></trkpt><trkpt lat="39.9338447" lon="15.9935932"><ele>561.75</ele><time>2026-04-25T10:17:11.785Z</time></trkpt><trkpt lat="39.9339084" lon="15.9934631"><ele>561.0</ele><time>2026-04-25T10:17:12.773Z</time></trkpt><trkpt lat="39.933938" lon="15.9933235"><ele>558.0</ele><time>2026-04-25T10:17:13.776Z</time></trkpt><trkpt lat="39.9339588" lon="15.9931956"><ele>555.0</ele><time>2026-04-25T10:17:14.773Z</time></trkpt><trkpt lat="39.9339946" lon="15.9930988"><ele>552.0</ele><time>2026-04-25T10:17:15.778Z</time></trkpt><trkpt lat="39.9340536" lon="15.9930495"><ele>549.0</ele><time>2026-04-25T10:17:16.774Z</time></trkpt><trkpt lat="39.9341172" lon="15.9930594"><ele>546.0</ele><time>2026-04-25T10:17:17.777Z</time></trkpt><trkpt lat="39.934177" lon="15.9931152"><ele>543.0</ele><time>2026-04-25T10:17:18.763Z</time></trkpt><trkpt lat="39.9342343" lon="15.9932034"><ele>542.8</ele><time>2026-04-25T10:17:19.782Z</time></trkpt><trkpt lat="39.9342952" lon="15.99331"><ele>542.5999999999999</ele><time>2026-04-25T10:17:20.777Z</time></trkpt><trkpt lat="39.9343597" lon="15.9934254"><ele>542.4000000000001</ele><time>2026-04-25T10:17:21.783Z</time></trkpt><trkpt lat="39.9344278" lon="15.9935481"><ele>542.2</ele><time>2026-04-25T10:17:22.779Z</time></trkpt><trkpt lat="39.9344963" lon="15.993672"><ele>542.0</ele><time>2026-04-25T10:17:23.771Z</time></trkpt><trkpt lat="39.9345586" lon="15.9937899"><ele>542.0</ele><time>2026-04-25T10:17:24.778Z</time></trkpt><trkpt lat="39.9346213" lon="15.9938931"><ele>542.0</ele><time>2026-04-25T10:17:25.774Z</time></trkpt><trkpt lat="39.9346966" lon="15.993972"><ele>542.0</ele><time>2026-04-25T10:17:26.764Z</time></trkpt><trkpt lat="39.9347884" lon="15.9940183"><ele>542.0</ele><time>2026-04-25T10:17:27.785Z</time></trkpt><trkpt lat="39.9348928" lon="15.994036"><ele>542.0</ele><time>2026-04-25T10:17:28.78Z</time></trkpt><trkpt lat="39.9350003" lon="15.9940441"><ele>541.6</ele><time>2026-04-25T10:17:29.778Z</time></trkpt><trkpt lat="39.9351051" lon="15.9940618"><ele>541.2</ele><time>2026-04-25T10:17:30.775Z</time></trkpt><trkpt lat="39.9351965" lon="15.9941087"><ele>540.8</ele><time>2026-04-25T10:17:31.77Z</time></trkpt><trkpt lat="39.9352784" lon="15.9941827"><ele>540.4</ele><time>2026-04-25T10:17:32.776Z</time></trkpt><trkpt lat="39.9353525" lon="15.9942767"><ele>540.0</ele><time>2026-04-25T10:17:33.777Z</time></trkpt><trkpt lat="39.9354193" lon="15.994377"><ele>540.0</ele><time>2026-04-25T10:17:34.781Z</time></trkpt><trkpt lat="39.9354806" lon="15.9944755"><ele>540.0</ele><time>2026-04-25T10:17:35.792Z</time></trkpt><trkpt lat="39.9355456" lon="15.9945546"><ele>540.0</ele><time>2026-04-25T10:17:36.787Z</time></trkpt><trkpt lat="39.9356135" lon="15.9945976"><ele>540.0</ele><time>2026-04-25T10:17:37.779Z</time></trkpt><trkpt lat="39.9356826" lon="15.9945949"><ele>540.0</ele><time>2026-04-25T10:17:38.772Z</time></trkpt><trkpt lat="39.9357419" lon="15.9945539"><ele>540.0</ele><time>2026-04-25T10:17:39.773Z</time></trkpt><trkpt lat="39.9357941" lon="15.9944862"><ele>540.0</ele><time>2026-04-25T10:17:40.77Z</time></trkpt><trkpt lat="39.9358467" lon="15.9944102"><ele>540.0</ele><time>2026-04-25T10:17:41.771Z</time></trkpt><trkpt lat="39.9359013" lon="15.9943448"><ele>540.0</ele><time>2026-04-25T10:17:42.773Z</time></trkpt><trkpt lat="39.9359614" lon="15.9943145"><ele>540.0</ele><time>2026-04-25T10:17:43.778Z</time></trkpt><trkpt lat="39.9360239" lon="15.9943348"><ele>540.0</ele><time>2026-04-25T10:17:44.768Z</time></trkpt><trkpt lat="39.9360734" lon="15.9944025"><ele>540.0</ele><time>2026-04-25T10:17:45.779Z</time></trkpt><trkpt lat="39.9361038" lon="15.9945013"><ele>540.0</ele><time>2026-04-25T10:17:46.777Z</time></trkpt><trkpt lat="39.9361235" lon="15.9946209"><ele>540.4</ele><time>2026-04-25T10:17:47.776Z</time></trkpt><trkpt lat="39.9361406" lon="15.9947545"><ele>540.8</ele><time>2026-04-25T10:17:48.774Z</time></trkpt><trkpt lat="39.9361557" lon="15.9948957"><ele>541.2</ele><time>2026-04-25T10:17:49.769Z</time></trkpt><trkpt lat="39.9361749" lon="15.9950304"><ele>541.6</ele><time>2026-04-25T10:17:50.769Z</time></trkpt><trkpt lat="39.9361884" lon="15.9951625"><ele>542.0</ele><time>2026-04-25T10:17:51.78Z</time></trkpt><trkpt lat="39.9361957" lon="15.9952954"><ele>542.0</ele><time>2026-04-25T10:17:52.767Z</time></trkpt><trkpt lat="39.9362031" lon="15.9954198"><ele>542.0</ele><time>2026-04-25T10:17:53.777Z</time></trkpt><trkpt lat="39.936217" lon="15.9955329"><ele>542.0</ele><time>2026-04-25T10:17:54.762Z</time></trkpt><trkpt lat="39.9362561" lon="15.9956231"><ele>542.0</ele><time>2026-04-25T10:17:55.774Z</time></trkpt><trkpt lat="39.9363174" lon="15.9956709"><ele>542.0</ele><time>2026-04-25T10:17:56.764Z</time></trkpt><trkpt lat="39.9363831" lon="15.9956676"><ele>542.0</ele><time>2026-04-25T10:17:57.773Z</time></trkpt><trkpt lat="39.936499" lon="15.9955581"><ele>542.0</ele><time>2026-04-25T10:17:59.768Z</time></trkpt><trkpt lat="39.9365676" lon="15.9954801"><ele>542.0</ele><time>2026-04-25T10:18:00.771Z</time></trkpt><trkpt lat="39.9366508" lon="15.9953861"><ele>542.0</ele><time>2026-04-25T10:18:01.778Z</time></trkpt><trkpt lat="39.9367559" lon="15.9953085"><ele>542.0</ele><time>2026-04-25T10:18:02.777Z</time></trkpt><trkpt lat="39.9368682" lon="15.9952442"><ele>542.0</ele><time>2026-04-25T10:18:03.778Z</time></trkpt><trkpt lat="39.9369859" lon="15.9951599"><ele>543.0</ele><time>2026-04-25T10:18:04.769Z</time></trkpt><trkpt lat="39.9370907" lon="15.9950446"><ele>544.0</ele><time>2026-04-25T10:18:05.771Z</time></trkpt><trkpt lat="39.9371851" lon="15.9949081"><ele>545.0</ele><time>2026-04-25T10:18:06.763Z</time></trkpt><trkpt lat="39.9372746" lon="15.9947739"><ele>546.0</ele><time>2026-04-25T10:18:07.767Z</time></trkpt><trkpt lat="39.9373591" lon="15.9946514"><ele>542.0</ele><time>2026-04-25T10:18:08.781Z</time></trkpt><trkpt lat="39.937433" lon="15.9945418"><ele>538.0</ele><time>2026-04-25T10:18:09.765Z</time></trkpt><trkpt lat="39.9374879" lon="15.994445"><ele>534.0</ele><time>2026-04-25T10:18:10.77Z</time></trkpt><trkpt lat="39.9375123" lon="15.9943524"><ele>530.0</ele><time>2026-04-25T10:18:11.766Z</time></trkpt><trkpt lat="39.9374967" lon="15.9942702"><ele>526.0</ele><time>2026-04-25T10:18:12.774Z</time></trkpt><trkpt lat="39.9373908" lon="15.9941957"><ele>526.0</ele><time>2026-04-25T10:18:14.764Z</time></trkpt><trkpt lat="39.9373276" lon="15.9942491"><ele>526.0</ele><time>2026-04-25T10:18:15.764Z</time></trkpt><trkpt lat="39.9372664" lon="15.9943328"><ele>526.0</ele><time>2026-04-25T10:18:16.766Z</time></trkpt><trkpt lat="39.9372061" lon="15.9944276"><ele>526.0</ele><time>2026-04-25T10:18:17.775Z</time></trkpt><trkpt lat="39.9371419" lon="15.9945239"><ele>526.0</ele><time>2026-04-25T10:18:18.77Z</time></trkpt><trkpt lat="39.9370754" lon="15.9946258"><ele>526.0</ele><time>2026-04-25T10:18:19.762Z</time></trkpt><trkpt lat="39.9369994" lon="15.9947206"><ele>526.0</ele><time>2026-04-25T10:18:20.776Z</time></trkpt><trkpt lat="39.9369241" lon="15.9948006"><ele>526.0</ele><time>2026-04-25T10:18:21.768Z</time></trkpt><trkpt lat="39.9368433" lon="15.9948582"><ele>526.0</ele><time>2026-04-25T10:18:22.77Z</time></trkpt><trkpt lat="39.9367608" lon="15.9948807"><ele>526.0</ele><time>2026-04-25T10:18:23.778Z</time></trkpt><trkpt lat="39.9366904" lon="15.9948915"><ele>525.1428571428571</ele><time>2026-04-25T10:18:24.772Z</time></trkpt><trkpt lat="39.9366172" lon="15.9948632"><ele>524.2857142857142</ele><time>2026-04-25T10:18:25.761Z</time></trkpt><trkpt lat="39.9365576" lon="15.9948039"><ele>523.4285714285714</ele><time>2026-04-25T10:18:26.76Z</time></trkpt><trkpt lat="39.9365285" lon="15.9947273"><ele>522.5714285714286</ele><time>2026-04-25T10:18:27.771Z</time></trkpt><trkpt lat="39.9365308" lon="15.9946349"><ele>521.7142857142858</ele><time>2026-04-25T10:18:28.767Z</time></trkpt><trkpt lat="39.9365449" lon="15.9945326"><ele>520.8571428571429</ele><time>2026-04-25T10:18:29.77Z</time></trkpt><trkpt lat="39.9365632" lon="15.9944332"><ele>520.0</ele><time>2026-04-25T10:18:30.77Z</time></trkpt><trkpt lat="39.9365918" lon="15.9943076"><ele>517.5</ele><time>2026-04-25T10:18:31.769Z</time></trkpt><trkpt lat="39.9366162" lon="15.9941681"><ele>515.0</ele><time>2026-04-25T10:18:32.778Z</time></trkpt><trkpt lat="39.9366394" lon="15.9940277"><ele>512.5</ele><time>2026-04-25T10:18:33.767Z</time></trkpt><trkpt lat="39.9366552" lon="15.9938773"><ele>510.0</ele><time>2026-04-25T10:18:34.765Z</time></trkpt><trkpt lat="39.9366641" lon="15.9937145"><ele>510.0</ele><time>2026-04-25T10:18:35.772Z</time></trkpt><trkpt lat="39.9366679" lon="15.9935626"><ele>510.0</ele><time>2026-04-25T10:18:36.774Z</time></trkpt><trkpt lat="39.9366654" lon="15.9934183"><ele>510.0</ele><time>2026-04-25T10:18:37.765Z</time></trkpt><trkpt lat="39.9366586" lon="15.9932868"><ele>510.0</ele><time>2026-04-25T10:18:38.773Z</time></trkpt><trkpt lat="39.9366376" lon="15.9931638"><ele>510.0</ele><time>2026-04-25T10:18:39.781Z</time></trkpt><trkpt lat="39.9365977" lon="15.9930609"><ele>508.0</ele><time>2026-04-25T10:18:40.767Z</time></trkpt><trkpt lat="39.9365299" lon="15.9929934"><ele>506.0</ele><time>2026-04-25T10:18:41.765Z</time></trkpt><trkpt lat="39.9364471" lon="15.9929554"><ele>504.0</ele><time>2026-04-25T10:18:42.77Z</time></trkpt><trkpt lat="39.9363583" lon="15.9929283"><ele>502.0</ele><time>2026-04-25T10:18:43.775Z</time></trkpt><trkpt lat="39.9362657" lon="15.992899"><ele>500.0</ele><time>2026-04-25T10:18:44.775Z</time></trkpt><trkpt lat="39.9361758" lon="15.9928506"><ele>500.0</ele><time>2026-04-25T10:18:45.773Z</time></trkpt><trkpt lat="39.9360945" lon="15.9927748"><ele>500.0</ele><time>2026-04-25T10:18:46.776Z</time></trkpt><trkpt lat="39.9360244" lon="15.9926755"><ele>500.0</ele><time>2026-04-25T10:18:47.764Z</time></trkpt><trkpt lat="39.9359611" lon="15.9925718"><ele>500.0</ele><time>2026-04-25T10:18:48.771Z</time></trkpt><trkpt lat="39.9358854" lon="15.9924849"><ele>500.0</ele><time>2026-04-25T10:18:49.759Z</time></trkpt><trkpt lat="39.935795" lon="15.9924212"><ele>498.0</ele><time>2026-04-25T10:18:50.773Z</time></trkpt><trkpt lat="39.935692" lon="15.9923796"><ele>496.0</ele><time>2026-04-25T10:18:51.768Z</time></trkpt><trkpt lat="39.9355914" lon="15.9923377"><ele>494.0</ele><time>2026-04-25T10:18:52.771Z</time></trkpt><trkpt lat="39.935485" lon="15.9922964"><ele>492.0</ele><time>2026-04-25T10:18:53.77Z</time></trkpt><trkpt lat="39.9353778" lon="15.9922528"><ele>490.0</ele><time>2026-04-25T10:18:54.772Z</time></trkpt><trkpt lat="39.9352731" lon="15.9922053"><ele>490.0</ele><time>2026-04-25T10:18:55.78Z</time></trkpt><trkpt lat="39.9351726" lon="15.9921475"><ele>490.0</ele><time>2026-04-25T10:18:56.773Z</time></trkpt><trkpt lat="39.935072" lon="15.9920781"><ele>490.0</ele><time>2026-04-25T10:18:57.766Z</time></trkpt><trkpt lat="39.9349723" lon="15.9920045"><ele>490.0</ele><time>2026-04-25T10:18:58.772Z</time></trkpt><trkpt lat="39.9348763" lon="15.9919324"><ele>490.0</ele><time>2026-04-25T10:18:59.772Z</time></trkpt><trkpt lat="39.9347861" lon="15.9918568"><ele>489.0</ele><time>2026-04-25T10:19:00.781Z</time></trkpt><trkpt lat="39.9347053" lon="15.9917694"><ele>488.0</ele><time>2026-04-25T10:19:01.769Z</time></trkpt><trkpt lat="39.9346428" lon="15.9916665"><ele>487.0</ele><time>2026-04-25T10:19:02.773Z</time></trkpt><trkpt lat="39.9346017" lon="15.991548"><ele>486.0</ele><time>2026-04-25T10:19:03.768Z</time></trkpt><trkpt lat="39.9345873" lon="15.9914192"><ele>485.0</ele><time>2026-04-25T10:19:04.77Z</time></trkpt><trkpt lat="39.9346033" lon="15.9912937"><ele>485.0</ele><time>2026-04-25T10:19:05.781Z</time></trkpt><trkpt lat="39.9346412" lon="15.991175"><ele>485.0</ele><time>2026-04-25T10:19:06.775Z</time></trkpt><trkpt lat="39.9346954" lon="15.9910839"><ele>485.0</ele><time>2026-04-25T10:19:07.781Z</time></trkpt><trkpt lat="39.9347491" lon="15.9910225"><ele>485.0</ele><time>2026-04-25T10:19:08.774Z</time></trkpt><trkpt lat="39.9348405" lon="15.9909518"><ele>485.0</ele><time>2026-04-25T10:19:10.78Z</time></trkpt><trkpt lat="39.93493" lon="15.9908943"><ele>483.99999999999994</ele><time>2026-04-25T10:19:12.776Z</time></trkpt><trkpt lat="39.9350299" lon="15.9908408"><ele>483.0</ele><time>2026-04-25T10:19:14.783Z</time></trkpt><trkpt lat="39.9350879" lon="15.9908026"><ele>482.0</ele><time>2026-04-25T10:19:15.787Z</time></trkpt><trkpt lat="39.9351539" lon="15.9907581"><ele>481.0</ele><time>2026-04-25T10:19:16.767Z</time></trkpt><trkpt lat="39.9352274" lon="15.990708"><ele>479.99999999999994</ele><time>2026-04-25T10:19:17.785Z</time></trkpt><trkpt lat="39.9353103" lon="15.9906577"><ele>479.0</ele><time>2026-04-25T10:19:18.768Z</time></trkpt><trkpt lat="39.9354029" lon="15.9906173"><ele>479.2</ele><time>2026-04-25T10:19:19.766Z</time></trkpt><trkpt lat="39.9355007" lon="15.9905959"><ele>479.4</ele><time>2026-04-25T10:19:20.763Z</time></trkpt><trkpt lat="39.9355995" lon="15.9905994"><ele>479.6</ele><time>2026-04-25T10:19:21.778Z</time></trkpt><trkpt lat="39.9356954" lon="15.9906217"><ele>479.8</ele><time>2026-04-25T10:19:22.765Z</time></trkpt><trkpt lat="39.9357912" lon="15.9906382"><ele>480.0</ele><time>2026-04-25T10:19:23.778Z</time></trkpt><trkpt lat="39.9358914" lon="15.990633"><ele>480.0</ele><time>2026-04-25T10:19:24.777Z</time></trkpt><trkpt lat="39.9359933" lon="15.9905987"><ele>480.0</ele><time>2026-04-25T10:19:25.769Z</time></trkpt><trkpt lat="39.9360966" lon="15.9905449"><ele>480.0</ele><time>2026-04-25T10:19:26.768Z</time></trkpt><trkpt lat="39.9362039" lon="15.9904868"><ele>480.0</ele><time>2026-04-25T10:19:27.778Z</time></trkpt><trkpt lat="39.9363146" lon="15.9904272"><ele>480.0</ele><time>2026-04-25T10:19:28.762Z</time></trkpt><trkpt lat="39.9364232" lon="15.9903652"><ele>480.0</ele><time>2026-04-25T10:19:29.768Z</time></trkpt><trkpt lat="39.9365263" lon="15.9902966"><ele>480.0</ele><time>2026-04-25T10:19:30.771Z</time></trkpt><trkpt lat="39.9366155" lon="15.9902067"><ele>480.0</ele><time>2026-04-25T10:19:31.774Z</time></trkpt><trkpt lat="39.9366841" lon="15.9900927"><ele>487.0</ele><time>2026-04-25T10:19:32.769Z</time></trkpt><trkpt lat="39.936732" lon="15.9899612"><ele>494.0</ele><time>2026-04-25T10:19:33.767Z</time></trkpt><trkpt lat="39.9367594" lon="15.9898146"><ele>501.0</ele><time>2026-04-25T10:19:34.765Z</time></trkpt><trkpt lat="39.9367755" lon="15.9896564"><ele>508.0</ele><time>2026-04-25T10:19:35.776Z</time></trkpt><trkpt lat="39.9367851" lon="15.98949"><ele>508.0</ele><time>2026-04-25T10:19:36.773Z</time></trkpt><trkpt lat="39.9367812" lon="15.9893186"><ele>508.0</ele><time>2026-04-25T10:19:37.775Z</time></trkpt><trkpt lat="39.9367523" lon="15.9891438"><ele>508.0</ele><time>2026-04-25T10:19:38.767Z</time></trkpt><trkpt lat="39.9367007" lon="15.9889689"><ele>508.0</ele><time>2026-04-25T10:19:39.775Z</time></trkpt><trkpt lat="39.9366386" lon="15.9887916"><ele>496.33333333333337</ele><time>2026-04-25T10:19:40.774Z</time></trkpt><trkpt lat="39.936578" lon="15.9886097"><ele>484.66666666666663</ele><time>2026-04-25T10:19:41.771Z</time></trkpt><trkpt lat="39.9365271" lon="15.9884171"><ele>473.0</ele><time>2026-04-25T10:19:42.768Z</time></trkpt><trkpt lat="39.9364897" lon="15.9882161"><ele>473.0</ele><time>2026-04-25T10:19:43.776Z</time></trkpt><trkpt lat="39.9364594" lon="15.9880101"><ele>473.0</ele><time>2026-04-25T10:19:44.768Z</time></trkpt><trkpt lat="39.9364288" lon="15.9878032"><ele>473.0</ele><time>2026-04-25T10:19:45.77Z</time></trkpt><trkpt lat="39.9363962" lon="15.9876027"><ele>474.25</ele><time>2026-04-25T10:19:46.778Z</time></trkpt><trkpt lat="39.9363733" lon="15.9874087"><ele>475.5</ele><time>2026-04-25T10:19:47.772Z</time></trkpt><trkpt lat="39.9363698" lon="15.9872174"><ele>476.75</ele><time>2026-04-25T10:19:48.763Z</time></trkpt><trkpt lat="39.9363889" lon="15.9870291"><ele>478.0</ele><time>2026-04-25T10:19:49.773Z</time></trkpt><trkpt lat="39.9364255" lon="15.9868453"><ele>478.25</ele><time>2026-04-25T10:19:50.773Z</time></trkpt><trkpt lat="39.9364703" lon="15.9866744"><ele>478.5</ele><time>2026-04-25T10:19:51.782Z</time></trkpt><trkpt lat="39.9365302" lon="15.9865269"><ele>478.75</ele><time>2026-04-25T10:19:52.779Z</time></trkpt><trkpt lat="39.9366158" lon="15.9864093"><ele>479.0</ele><time>2026-04-25T10:19:53.784Z</time></trkpt><trkpt lat="39.936726" lon="15.9863162"><ele>479.0</ele><time>2026-04-25T10:19:54.775Z</time></trkpt><trkpt lat="39.9368579" lon="15.9862444"><ele>479.0</ele><time>2026-04-25T10:19:55.781Z</time></trkpt><trkpt lat="39.9370039" lon="15.9861918"><ele>479.0</ele><time>2026-04-25T10:19:56.768Z</time></trkpt><trkpt lat="39.937154" lon="15.9861503"><ele>479.0</ele><time>2026-04-25T10:19:57.775Z</time></trkpt><trkpt lat="39.9373022" lon="15.9861289"><ele>479.0</ele><time>2026-04-25T10:19:58.769Z</time></trkpt><trkpt lat="39.9374443" lon="15.9861444"><ele>479.0</ele><time>2026-04-25T10:19:59.779Z</time></trkpt><trkpt lat="39.9375852" lon="15.9861937"><ele>479.0</ele><time>2026-04-25T10:20:00.78Z</time></trkpt><trkpt lat="39.9377278" lon="15.9862554"><ele>479.0</ele><time>2026-04-25T10:20:01.778Z</time></trkpt><trkpt lat="39.9378782" lon="15.9862989"><ele>474.66666666666663</ele><time>2026-04-25T10:20:02.784Z</time></trkpt><trkpt lat="39.9380369" lon="15.986315"><ele>470.33333333333337</ele><time>2026-04-25T10:20:03.786Z</time></trkpt><trkpt lat="39.9381996" lon="15.9863258"><ele>466.0</ele><time>2026-04-25T10:20:04.773Z</time></trkpt><trkpt lat="39.938364" lon="15.9863455"><ele>462.6666666666667</ele><time>2026-04-25T10:20:05.777Z</time></trkpt><trkpt lat="39.9385273" lon="15.9863796"><ele>459.33333333333337</ele><time>2026-04-25T10:20:06.771Z</time></trkpt><trkpt lat="39.9386853" lon="15.9864151"><ele>456.0</ele><time>2026-04-25T10:20:07.768Z</time></trkpt><trkpt lat="39.9388432" lon="15.9864275"><ele>456.0</ele><time>2026-04-25T10:20:08.776Z</time></trkpt><trkpt lat="39.939002" lon="15.9864218"><ele>456.0</ele><time>2026-04-25T10:20:09.77Z</time></trkpt><trkpt lat="39.939162" lon="15.9864158"><ele>456.0</ele><time>2026-04-25T10:20:10.767Z</time></trkpt><trkpt lat="39.93932" lon="15.9864326"><ele>454.5</ele><time>2026-04-25T10:20:11.767Z</time></trkpt><trkpt lat="39.939469" lon="15.9864737"><ele>453.0</ele><time>2026-04-25T10:20:12.776Z</time></trkpt><trkpt lat="39.9396041" lon="15.9865206"><ele>451.5</ele><time>2026-04-25T10:20:13.768Z</time></trkpt><trkpt lat="39.939729" lon="15.9865425"><ele>450.0</ele><time>2026-04-25T10:20:14.769Z</time></trkpt><trkpt lat="39.9398398" lon="15.9865207"><ele>450.0</ele><time>2026-04-25T10:20:15.781Z</time></trkpt><trkpt lat="39.9399267" lon="15.9864534"><ele>450.0</ele><time>2026-04-25T10:20:16.773Z</time></trkpt><trkpt lat="39.9399885" lon="15.9863539"><ele>450.0</ele><time>2026-04-25T10:20:17.773Z</time></trkpt><trkpt lat="39.9400397" lon="15.9862635"><ele>450.0</ele><time>2026-04-25T10:20:18.771Z</time></trkpt><trkpt lat="39.9401035" lon="15.9861534"><ele>450.0</ele><time>2026-04-25T10:20:19.773Z</time></trkpt><trkpt lat="39.9401748" lon="15.9860845"><ele>449.2</ele><time>2026-04-25T10:20:20.782Z</time></trkpt><trkpt lat="39.9402545" lon="15.9860649"><ele>448.4</ele><time>2026-04-25T10:20:21.773Z</time></trkpt><trkpt lat="39.9403445" lon="15.9860974"><ele>447.6</ele><time>2026-04-25T10:20:22.772Z</time></trkpt><trkpt lat="39.9404426" lon="15.986157"><ele>446.8</ele><time>2026-04-25T10:20:23.789Z</time></trkpt><trkpt lat="39.9405512" lon="15.986218"><ele>446.0</ele><time>2026-04-25T10:20:24.774Z</time></trkpt><trkpt lat="39.9406686" lon="15.9862758"><ele>446.0</ele><time>2026-04-25T10:20:25.777Z</time></trkpt><trkpt lat="39.9407966" lon="15.9863288"><ele>446.0</ele><time>2026-04-25T10:20:26.773Z</time></trkpt><trkpt lat="39.9409272" lon="15.9863756"><ele>446.0</ele><time>2026-04-25T10:20:27.772Z</time></trkpt><trkpt lat="39.9410466" lon="15.9864164"><ele>446.0</ele><time>2026-04-25T10:20:28.771Z</time></trkpt><trkpt lat="39.9411523" lon="15.9864409"><ele>447.66666666666663</ele><time>2026-04-25T10:20:29.777Z</time></trkpt><trkpt lat="39.9412415" lon="15.9864348"><ele>449.3333333333333</ele><time>2026-04-25T10:20:30.772Z</time></trkpt><trkpt lat="39.9413076" lon="15.9863861"><ele>451.0</ele><time>2026-04-25T10:20:31.773Z</time></trkpt><trkpt lat="39.9413425" lon="15.9863019"><ele>452.66666666666663</ele><time>2026-04-25T10:20:32.766Z</time></trkpt><trkpt lat="39.9413491" lon="15.9861907"><ele>454.3333333333333</ele><time>2026-04-25T10:20:33.775Z</time></trkpt><trkpt lat="39.9413439" lon="15.9860641"><ele>456.0</ele><time>2026-04-25T10:20:34.773Z</time></trkpt><trkpt lat="39.9413326" lon="15.985923"><ele>454.25</ele><time>2026-04-25T10:20:35.767Z</time></trkpt><trkpt lat="39.9413158" lon="15.9857722"><ele>452.5</ele><time>2026-04-25T10:20:36.765Z</time></trkpt><trkpt lat="39.9412901" lon="15.985612"><ele>450.75</ele><time>2026-04-25T10:20:37.782Z</time></trkpt><trkpt lat="39.941257" lon="15.9854489"><ele>449.0</ele><time>2026-04-25T10:20:38.772Z</time></trkpt><trkpt lat="39.9412242" lon="15.9852831"><ele>449.0</ele><time>2026-04-25T10:20:39.779Z</time></trkpt><trkpt lat="39.941201" lon="15.9851106"><ele>449.0</ele><time>2026-04-25T10:20:40.775Z</time></trkpt><trkpt lat="39.9411875" lon="15.9849349"><ele>449.0</ele><time>2026-04-25T10:20:41.778Z</time></trkpt><trkpt lat="39.9411775" lon="15.9847661"><ele>449.0</ele><time>2026-04-25T10:20:42.771Z</time></trkpt><trkpt lat="39.9411644" lon="15.9846048"><ele>445.6</ele><time>2026-04-25T10:20:43.782Z</time></trkpt><trkpt lat="39.9411449" lon="15.9844521"><ele>442.2</ele><time>2026-04-25T10:20:44.778Z</time></trkpt><trkpt lat="39.9411253" lon="15.9843135"><ele>438.80000000000007</ele><time>2026-04-25T10:20:45.771Z</time></trkpt><trkpt lat="39.9411209" lon="15.9841912"><ele>435.40000000000003</ele><time>2026-04-25T10:20:46.768Z</time></trkpt><trkpt lat="39.9411416" lon="15.9840908"><ele>432.0</ele><time>2026-04-25T10:20:47.776Z</time></trkpt><trkpt lat="39.9411917" lon="15.984032"><ele>432.0</ele><time>2026-04-25T10:20:48.771Z</time></trkpt><trkpt lat="39.9412617" lon="15.9840173"><ele>432.00000000000006</ele><time>2026-04-25T10:20:49.779Z</time></trkpt><trkpt lat="39.9413451" lon="15.9840288"><ele>432.00000000000006</ele><time>2026-04-25T10:20:50.783Z</time></trkpt><trkpt lat="39.9414367" lon="15.9840578"><ele>432.0</ele><time>2026-04-25T10:20:51.785Z</time></trkpt><trkpt lat="39.9415274" lon="15.9841124"><ele>432.0</ele><time>2026-04-25T10:20:52.775Z</time></trkpt><trkpt lat="39.9416078" lon="15.9841996"><ele>432.0</ele><time>2026-04-25T10:20:53.778Z</time></trkpt><trkpt lat="39.9416756" lon="15.9843075"><ele>432.00000000000006</ele><time>2026-04-25T10:20:54.78Z</time></trkpt><trkpt lat="39.941737" lon="15.9844161"><ele>432.00000000000006</ele><time>2026-04-25T10:20:55.78Z</time></trkpt><trkpt lat="39.941801" lon="15.9845104"><ele>432.0</ele><time>2026-04-25T10:20:56.786Z</time></trkpt><trkpt lat="39.9418757" lon="15.9845754"><ele>432.0</ele><time>2026-04-25T10:20:57.774Z</time></trkpt><trkpt lat="39.9419616" lon="15.9846075"><ele>431.6</ele><time>2026-04-25T10:20:58.772Z</time></trkpt><trkpt lat="39.9420554" lon="15.9846036"><ele>431.20000000000005</ele><time>2026-04-25T10:20:59.771Z</time></trkpt><trkpt lat="39.9421501" lon="15.9845741"><ele>430.8</ele><time>2026-04-25T10:21:00.775Z</time></trkpt><trkpt lat="39.9422464" lon="15.9845376"><ele>430.4</ele><time>2026-04-25T10:21:01.771Z</time></trkpt><trkpt lat="39.9423482" lon="15.9845128"><ele>430.0</ele><time>2026-04-25T10:21:02.771Z</time></trkpt><trkpt lat="39.9424544" lon="15.9845122"><ele>429.8</ele><time>2026-04-25T10:21:03.772Z</time></trkpt><trkpt lat="39.9425618" lon="15.9845392"><ele>429.6</ele><time>2026-04-25T10:21:04.765Z</time></trkpt><trkpt lat="39.9426688" lon="15.9845821"><ele>429.4</ele><time>2026-04-25T10:21:05.78Z</time></trkpt><trkpt lat="39.9427779" lon="15.9846152"><ele>429.2</ele><time>2026-04-25T10:21:06.777Z</time></trkpt><trkpt lat="39.9428924" lon="15.9846157"><ele>429.0</ele><time>2026-04-25T10:21:07.772Z</time></trkpt><trkpt lat="39.9430103" lon="15.9845869"><ele>429.0</ele><time>2026-04-25T10:21:08.774Z</time></trkpt><trkpt lat="39.9431284" lon="15.9845433"><ele>429.0</ele><time>2026-04-25T10:21:09.768Z</time></trkpt><trkpt lat="39.9432453" lon="15.9844953"><ele>429.0</ele><time>2026-04-25T10:21:10.777Z</time></trkpt><trkpt lat="39.943358" lon="15.9844356"><ele>429.0</ele><time>2026-04-25T10:21:11.776Z</time></trkpt><trkpt lat="39.9434595" lon="15.9843501"><ele>426.25</ele><time>2026-04-25T10:21:12.773Z</time></trkpt><trkpt lat="39.9435501" lon="15.9842461"><ele>423.5</ele><time>2026-04-25T10:21:13.769Z</time></trkpt><trkpt lat="39.9436377" lon="15.9841389"><ele>420.75</ele><time>2026-04-25T10:21:14.775Z</time></trkpt><trkpt lat="39.9437252" lon="15.9840382"><ele>418.0</ele><time>2026-04-25T10:21:15.773Z</time></trkpt><trkpt lat="39.9438114" lon="15.9839537"><ele>418.00000000000006</ele><time>2026-04-25T10:21:16.784Z</time></trkpt><trkpt lat="39.9438965" lon="15.9839026"><ele>418.0</ele><time>2026-04-25T10:21:17.771Z</time></trkpt><trkpt lat="39.9439768" lon="15.9839006"><ele>418.0</ele><time>2026-04-25T10:21:18.774Z</time></trkpt><trkpt lat="39.9440461" lon="15.9839491"><ele>418.0</ele><time>2026-04-25T10:21:19.782Z</time></trkpt><trkpt lat="39.944098" lon="15.984038"><ele>418.00000000000006</ele><time>2026-04-25T10:21:20.768Z</time></trkpt><trkpt lat="39.9441372" lon="15.9841523"><ele>418.0</ele><time>2026-04-25T10:21:21.766Z</time></trkpt><trkpt lat="39.9441762" lon="15.9842787"><ele>418.0</ele><time>2026-04-25T10:21:22.772Z</time></trkpt><trkpt lat="39.9442294" lon="15.9844015"><ele>418.0</ele><time>2026-04-25T10:21:23.785Z</time></trkpt><trkpt lat="39.9442878" lon="15.9845219"><ele>418.0</ele><time>2026-04-25T10:21:24.778Z</time></trkpt><trkpt lat="39.9443875" lon="15.9845939"><ele>418.0</ele><time>2026-04-25T10:21:25.784Z</time></trkpt><trkpt lat="39.9444923" lon="15.9846282"><ele>418.0</ele><time>2026-04-25T10:21:26.775Z</time></trkpt><trkpt lat="39.9445848" lon="15.984611"><ele>418.0</ele><time>2026-04-25T10:21:27.772Z</time></trkpt><trkpt lat="39.9446656" lon="15.9845666"><ele>418.0</ele><time>2026-04-25T10:21:28.774Z</time></trkpt><trkpt lat="39.9446952" lon="15.9844526"><ele>418.0</ele><time>2026-04-25T10:21:29.776Z</time></trkpt><trkpt lat="39.9447108" lon="15.9843185"><ele>418.0</ele><time>2026-04-25T10:21:30.777Z</time></trkpt><trkpt lat="39.9447339" lon="15.9841768"><ele>418.0</ele><time>2026-04-25T10:21:31.783Z</time></trkpt><trkpt lat="39.9447626" lon="15.984029"><ele>414.59999999999997</ele><time>2026-04-25T10:21:32.786Z</time></trkpt><trkpt lat="39.9447918" lon="15.9838885"><ele>411.2</ele><time>2026-04-25T10:21:33.777Z</time></trkpt><trkpt lat="39.944825" lon="15.9837583"><ele>407.8</ele><time>2026-04-25T10:21:34.777Z</time></trkpt><trkpt lat="39.9448747" lon="15.9836558"><ele>404.4</ele><time>2026-04-25T10:21:35.781Z</time></trkpt><trkpt lat="39.9449441" lon="15.9835959"><ele>401.0</ele><time>2026-04-25T10:21:36.772Z</time></trkpt><trkpt lat="39.9450305" lon="15.9835739"><ele>402.0</ele><time>2026-04-25T10:21:37.771Z</time></trkpt><trkpt lat="39.9451277" lon="15.9835774"><ele>403.0</ele><time>2026-04-25T10:21:38.777Z</time></trkpt><trkpt lat="39.9452383" lon="15.9835907"><ele>404.0</ele><time>2026-04-25T10:21:39.771Z</time></trkpt><trkpt lat="39.9453584" lon="15.983608"><ele>405.0</ele><time>2026-04-25T10:21:40.777Z</time></trkpt><trkpt lat="39.9454946" lon="15.9836417"><ele>405.0</ele><time>2026-04-25T10:21:41.777Z</time></trkpt><trkpt lat="39.9456453" lon="15.9836887"><ele>405.0</ele><time>2026-04-25T10:21:42.771Z</time></trkpt><trkpt lat="39.9458069" lon="15.9837367"><ele>405.0</ele><time>2026-04-25T10:21:43.779Z</time></trkpt><trkpt lat="39.9459808" lon="15.9837836"><ele>403.0</ele><time>2026-04-25T10:21:44.779Z</time></trkpt><trkpt lat="39.9461573" lon="15.9838222"><ele>401.0</ele><time>2026-04-25T10:21:45.773Z</time></trkpt><trkpt lat="39.946329" lon="15.9838514"><ele>399.0</ele><time>2026-04-25T10:21:46.782Z</time></trkpt><trkpt lat="39.9464943" lon="15.9838677"><ele>399.0</ele><time>2026-04-25T10:21:47.771Z</time></trkpt><trkpt lat="39.9466528" lon="15.9838686"><ele>399.0</ele><time>2026-04-25T10:21:48.774Z</time></trkpt><trkpt lat="39.946804" lon="15.9838628"><ele>399.0</ele><time>2026-04-25T10:21:49.773Z</time></trkpt><trkpt lat="39.9469442" lon="15.9838576"><ele>394.4</ele><time>2026-04-25T10:21:50.78Z</time></trkpt><trkpt lat="39.9470706" lon="15.9838583"><ele>389.79999999999995</ele><time>2026-04-25T10:21:51.77Z</time></trkpt><trkpt lat="39.9471818" lon="15.9838718"><ele>385.20000000000005</ele><time>2026-04-25T10:21:52.78Z</time></trkpt><trkpt lat="39.9472697" lon="15.9839213"><ele>380.6</ele><time>2026-04-25T10:21:53.783Z</time></trkpt><trkpt lat="39.947345" lon="15.9839866"><ele>376.0</ele><time>2026-04-25T10:21:54.791Z</time></trkpt><trkpt lat="39.9473862" lon="15.9841105"><ele>378.0</ele><time>2026-04-25T10:21:55.769Z</time></trkpt><trkpt lat="39.9474274" lon="15.98425"><ele>380.0</ele><time>2026-04-25T10:21:56.774Z</time></trkpt><trkpt lat="39.9474731" lon="15.9843875"><ele>382.0</ele><time>2026-04-25T10:21:57.776Z</time></trkpt><trkpt lat="39.9475143" lon="15.9845277"><ele>384.0</ele><time>2026-04-25T10:21:58.777Z</time></trkpt><trkpt lat="39.9475255" lon="15.9846618"><ele>386.0</ele><time>2026-04-25T10:21:59.773Z</time></trkpt><trkpt lat="39.9475314" lon="15.9847891"><ele>385.99999999999994</ele><time>2026-04-25T10:22:00.778Z</time></trkpt><trkpt lat="39.9474906" lon="15.9848897"><ele>386.0</ele><time>2026-04-25T10:22:01.773Z</time></trkpt><trkpt lat="39.9474361" lon="15.9849826"><ele>386.0</ele><time>2026-04-25T10:22:02.777Z</time></trkpt><trkpt lat="39.9473858" lon="15.9850655"><ele>386.0</ele><time>2026-04-25T10:22:03.779Z</time></trkpt><trkpt lat="39.9473476" lon="15.9851476"><ele>385.99999999999994</ele><time>2026-04-25T10:22:04.772Z</time></trkpt><trkpt lat="39.9473324" lon="15.9852338"><ele>386.0</ele><time>2026-04-25T10:22:05.778Z</time></trkpt><trkpt lat="39.9473391" lon="15.9853265"><ele>390.0</ele><time>2026-04-25T10:22:06.775Z</time></trkpt><trkpt lat="39.947405" lon="15.985363"><ele>394.0</ele><time>2026-04-25T10:22:07.778Z</time></trkpt><trkpt lat="39.9474955" lon="15.9853497"><ele>398.0</ele><time>2026-04-25T10:22:08.779Z</time></trkpt><trkpt lat="39.9475985" lon="15.9853059"><ele>402.0</ele><time>2026-04-25T10:22:09.773Z</time></trkpt><trkpt lat="39.9477085" lon="15.9852457"><ele>406.0</ele><time>2026-04-25T10:22:10.773Z</time></trkpt><trkpt lat="39.9478273" lon="15.9851771"><ele>407.25</ele><time>2026-04-25T10:22:11.771Z</time></trkpt><trkpt lat="39.9479468" lon="15.9850993"><ele>408.5</ele><time>2026-04-25T10:22:12.775Z</time></trkpt><trkpt lat="39.9480606" lon="15.9850044"><ele>409.75</ele><time>2026-04-25T10:22:13.781Z</time></trkpt><trkpt lat="39.9481631" lon="15.9849007"><ele>411.0</ele><time>2026-04-25T10:22:14.772Z</time></trkpt><trkpt lat="39.9482533" lon="15.9847916"><ele>404.6</ele><time>2026-04-25T10:22:15.777Z</time></trkpt><trkpt lat="39.9483335" lon="15.9846856"><ele>398.20000000000005</ele><time>2026-04-25T10:22:16.776Z</time></trkpt><trkpt lat="39.9484119" lon="15.9846003"><ele>391.79999999999995</ele><time>2026-04-25T10:22:17.777Z</time></trkpt><trkpt lat="39.9484942" lon="15.9845411"><ele>385.4</ele><time>2026-04-25T10:22:18.77Z</time></trkpt><trkpt lat="39.9485883" lon="15.9845263"><ele>379.0</ele><time>2026-04-25T10:22:19.778Z</time></trkpt><trkpt lat="39.948691" lon="15.9845449"><ele>377.25</ele><time>2026-04-25T10:22:20.776Z</time></trkpt><trkpt lat="39.9487992" lon="15.9845857"><ele>375.5</ele><time>2026-04-25T10:22:21.772Z</time></trkpt><trkpt lat="39.9489157" lon="15.9846363"><ele>373.75</ele><time>2026-04-25T10:22:22.773Z</time></trkpt><trkpt lat="39.9490393" lon="15.9846978"><ele>372.0</ele><time>2026-04-25T10:22:23.777Z</time></trkpt><trkpt lat="39.9491668" lon="15.9847648"><ele>370.5</ele><time>2026-04-25T10:22:24.777Z</time></trkpt><trkpt lat="39.9493001" lon="15.9848356"><ele>369.0</ele><time>2026-04-25T10:22:25.767Z</time></trkpt><trkpt lat="39.9494381" lon="15.984913"><ele>367.5</ele><time>2026-04-25T10:22:26.778Z</time></trkpt><trkpt lat="39.949579" lon="15.9849969"><ele>366.0</ele><time>2026-04-25T10:22:27.782Z</time></trkpt><trkpt lat="39.9497187" lon="15.9850866"><ele>366.0</ele><time>2026-04-25T10:22:28.777Z</time></trkpt><trkpt lat="39.9498517" lon="15.9851813"><ele>366.0</ele><time>2026-04-25T10:22:29.778Z</time></trkpt><trkpt lat="39.9499768" lon="15.9852811"><ele>366.0</ele><time>2026-04-25T10:22:30.777Z</time></trkpt><trkpt lat="39.9500909" lon="15.9853794"><ele>366.0</ele><time>2026-04-25T10:22:31.781Z</time></trkpt><trkpt lat="39.9501826" lon="15.9854742"><ele>365.8333333333333</ele><time>2026-04-25T10:22:32.777Z</time></trkpt><trkpt lat="39.950239" lon="15.9855759"><ele>365.6666666666667</ele><time>2026-04-25T10:22:33.779Z</time></trkpt><trkpt lat="39.9502573" lon="15.9856879"><ele>365.5</ele><time>2026-04-25T10:22:34.775Z</time></trkpt><trkpt lat="39.9502405" lon="15.9858013"><ele>365.33333333333337</ele><time>2026-04-25T10:22:35.78Z</time></trkpt><trkpt lat="39.9502163" lon="15.9859074"><ele>365.1666666666667</ele><time>2026-04-25T10:22:36.766Z</time></trkpt><trkpt lat="39.9501801" lon="15.9860171"><ele>365.0</ele><time>2026-04-25T10:22:37.779Z</time></trkpt><trkpt lat="39.9501469" lon="15.9861204"><ele>365.0</ele><time>2026-04-25T10:22:38.768Z</time></trkpt><trkpt lat="39.9501576" lon="15.9862213"><ele>365.0</ele><time>2026-04-25T10:22:39.782Z</time></trkpt><trkpt lat="39.9502495" lon="15.9862933"><ele>365.0</ele><time>2026-04-25T10:22:41.769Z</time></trkpt><trkpt lat="39.9503211" lon="15.9863003"><ele>365.0</ele><time>2026-04-25T10:22:42.777Z</time></trkpt><trkpt lat="39.9503908" lon="15.986251"><ele>365.0</ele><time>2026-04-25T10:22:43.777Z</time></trkpt><trkpt lat="39.9504732" lon="15.9861865"><ele>365.0</ele><time>2026-04-25T10:22:44.778Z</time></trkpt><trkpt lat="39.9505626" lon="15.9861219"><ele>365.0</ele><time>2026-04-25T10:22:45.777Z</time></trkpt><trkpt lat="39.9506549" lon="15.9860554"><ele>365.0</ele><time>2026-04-25T10:22:46.776Z</time></trkpt><trkpt lat="39.950756" lon="15.9860117"><ele>365.0</ele><time>2026-04-25T10:22:47.768Z</time></trkpt><trkpt lat="39.9508661" lon="15.9860082"><ele>365.0</ele><time>2026-04-25T10:22:48.777Z</time></trkpt><trkpt lat="39.9509795" lon="15.9860301"><ele>365.0</ele><time>2026-04-25T10:22:49.779Z</time></trkpt><trkpt lat="39.951097" lon="15.98607"><ele>362.5</ele><time>2026-04-25T10:22:50.77Z</time></trkpt><trkpt lat="39.9512177" lon="15.9861221"><ele>360.0</ele><time>2026-04-25T10:22:51.79Z</time></trkpt><trkpt lat="39.9513397" lon="15.9861844"><ele>357.5</ele><time>2026-04-25T10:22:52.775Z</time></trkpt><trkpt lat="39.9514682" lon="15.9862563"><ele>355.0</ele><time>2026-04-25T10:22:53.771Z</time></trkpt><trkpt lat="39.9516016" lon="15.9863339"><ele>349.0</ele><time>2026-04-25T10:22:54.772Z</time></trkpt><trkpt lat="39.9517371" lon="15.9864182"><ele>343.0</ele><time>2026-04-25T10:22:55.775Z</time></trkpt><trkpt lat="39.9518748" lon="15.9864993"><ele>337.0</ele><time>2026-04-25T10:22:56.77Z</time></trkpt><trkpt lat="39.9520101" lon="15.9865979"><ele>341.25</ele><time>2026-04-25T10:22:57.769Z</time></trkpt><trkpt lat="39.9521372" lon="15.9867037"><ele>345.5</ele><time>2026-04-25T10:22:58.783Z</time></trkpt><trkpt lat="39.9522639" lon="15.9867977"><ele>349.75</ele><time>2026-04-25T10:22:59.784Z</time></trkpt><trkpt lat="39.9523913" lon="15.9868759"><ele>354.0</ele><time>2026-04-25T10:23:00.775Z</time></trkpt><trkpt lat="39.9525137" lon="15.9869416"><ele>354.75</ele><time>2026-04-25T10:23:01.783Z</time></trkpt><trkpt lat="39.9526364" lon="15.9869865"><ele>355.5</ele><time>2026-04-25T10:23:02.77Z</time></trkpt><trkpt lat="39.9527581" lon="15.9870081"><ele>356.25</ele><time>2026-04-25T10:23:03.776Z</time></trkpt><trkpt lat="39.952881" lon="15.9870044"><ele>357.0</ele><time>2026-04-25T10:23:04.77Z</time></trkpt><trkpt lat="39.9530061" lon="15.9869901"><ele>357.0</ele><time>2026-04-25T10:23:05.781Z</time></trkpt><trkpt lat="39.9531343" lon="15.9869819"><ele>357.0</ele><time>2026-04-25T10:23:06.779Z</time></trkpt><trkpt lat="39.9532636" lon="15.9869802"><ele>357.0</ele><time>2026-04-25T10:23:07.777Z</time></trkpt><trkpt lat="39.9533929" lon="15.9869856"><ele>357.0</ele><time>2026-04-25T10:23:08.776Z</time></trkpt><trkpt lat="39.9535242" lon="15.9869885"><ele>354.75</ele><time>2026-04-25T10:23:09.786Z</time></trkpt><trkpt lat="39.9536581" lon="15.9869841"><ele>352.5</ele><time>2026-04-25T10:23:10.768Z</time></trkpt><trkpt lat="39.9537923" lon="15.9869695"><ele>350.25</ele><time>2026-04-25T10:23:11.783Z</time></trkpt><trkpt lat="39.9539275" lon="15.9869545"><ele>348.0</ele><time>2026-04-25T10:23:12.775Z</time></trkpt><trkpt lat="39.954068" lon="15.9869526"><ele>344.3333333333333</ele><time>2026-04-25T10:23:13.776Z</time></trkpt><trkpt lat="39.9542154" lon="15.9869752"><ele>340.66666666666663</ele><time>2026-04-25T10:23:14.771Z</time></trkpt><trkpt lat="39.9543691" lon="15.9870136"><ele>337.0</ele><time>2026-04-25T10:23:15.779Z</time></trkpt><trkpt lat="39.9545309" lon="15.9870658"><ele>337.0</ele><time>2026-04-25T10:23:16.777Z</time></trkpt><trkpt lat="39.9546985" lon="15.9871334"><ele>337.0</ele><time>2026-04-25T10:23:17.781Z</time></trkpt><trkpt lat="39.9548687" lon="15.9872166"><ele>337.0</ele><time>2026-04-25T10:23:18.788Z</time></trkpt><trkpt lat="39.9550393" lon="15.9873094"><ele>339.0</ele><time>2026-04-25T10:23:19.787Z</time></trkpt><trkpt lat="39.955211" lon="15.9874077"><ele>341.0</ele><time>2026-04-25T10:23:20.775Z</time></trkpt><trkpt lat="39.9553808" lon="15.9875152"><ele>343.0</ele><time>2026-04-25T10:23:21.776Z</time></trkpt><trkpt lat="39.955545" lon="15.9876365"><ele>343.0</ele><time>2026-04-25T10:23:22.774Z</time></trkpt><trkpt lat="39.9557045" lon="15.9877677"><ele>343.0</ele><time>2026-04-25T10:23:23.77Z</time></trkpt><trkpt lat="39.955861" lon="15.9879049"><ele>343.0</ele><time>2026-04-25T10:23:24.769Z</time></trkpt><trkpt lat="39.9560167" lon="15.9880415"><ele>337.0</ele><time>2026-04-25T10:23:25.775Z</time></trkpt><trkpt lat="39.9561779" lon="15.9881622"><ele>331.0</ele><time>2026-04-25T10:23:26.779Z</time></trkpt><trkpt lat="39.9563473" lon="15.9882563"><ele>325.0</ele><time>2026-04-25T10:23:27.78Z</time></trkpt><trkpt lat="39.9565223" lon="15.9883279"><ele>329.0</ele><time>2026-04-25T10:23:28.767Z</time></trkpt><trkpt lat="39.9566997" lon="15.9883909"><ele>333.0</ele><time>2026-04-25T10:23:29.767Z</time></trkpt><trkpt lat="39.9568746" lon="15.9884591"><ele>337.0</ele><time>2026-04-25T10:23:30.766Z</time></trkpt><trkpt lat="39.9570444" lon="15.9885367"><ele>337.0</ele><time>2026-04-25T10:23:31.78Z</time></trkpt><trkpt lat="39.9572079" lon="15.9886291"><ele>337.0</ele><time>2026-04-25T10:23:32.768Z</time></trkpt><trkpt lat="39.9573663" lon="15.9887402"><ele>337.0</ele><time>2026-04-25T10:23:33.769Z</time></trkpt><trkpt lat="39.9575232" lon="15.9888651"><ele>338.66666666666663</ele><time>2026-04-25T10:23:34.774Z</time></trkpt><trkpt lat="39.9576825" lon="15.9889938"><ele>340.3333333333333</ele><time>2026-04-25T10:23:35.773Z</time></trkpt><trkpt lat="39.9578489" lon="15.9891169"><ele>342.0</ele><time>2026-04-25T10:23:36.765Z</time></trkpt><trkpt lat="39.9580234" lon="15.9892305"><ele>342.0</ele><time>2026-04-25T10:23:37.775Z</time></trkpt><trkpt lat="39.9582031" lon="15.989338"><ele>342.0</ele><time>2026-04-25T10:23:38.776Z</time></trkpt><trkpt lat="39.9583834" lon="15.9894468"><ele>342.0</ele><time>2026-04-25T10:23:39.774Z</time></trkpt><trkpt lat="39.9585601" lon="15.9895509"><ele>336.0</ele><time>2026-04-25T10:23:40.774Z</time></trkpt><trkpt lat="39.9587349" lon="15.989647"><ele>330.0</ele><time>2026-04-25T10:23:41.774Z</time></trkpt><trkpt lat="39.9589101" lon="15.9897214"><ele>324.0</ele><time>2026-04-25T10:23:42.775Z</time></trkpt><trkpt lat="39.9590836" lon="15.9897669"><ele>318.6666666666667</ele><time>2026-04-25T10:23:43.777Z</time></trkpt><trkpt lat="39.9592513" lon="15.9897952"><ele>313.33333333333337</ele><time>2026-04-25T10:23:44.767Z</time></trkpt><trkpt lat="39.9594142" lon="15.989818"><ele>308.0</ele><time>2026-04-25T10:23:45.778Z</time></trkpt><trkpt lat="39.959566" lon="15.9898526"><ele>308.0</ele><time>2026-04-25T10:23:46.765Z</time></trkpt><trkpt lat="39.9596991" lon="15.9899138"><ele>308.0</ele><time>2026-04-25T10:23:47.786Z</time></trkpt><trkpt lat="39.959817" lon="15.9900069"><ele>308.0</ele><time>2026-04-25T10:23:48.775Z</time></trkpt><trkpt lat="39.9599208" lon="15.9901264"><ele>308.0</ele><time>2026-04-25T10:23:49.778Z</time></trkpt><trkpt lat="39.9600125" lon="15.9902661"><ele>309.25</ele><time>2026-04-25T10:23:50.776Z</time></trkpt><trkpt lat="39.9601014" lon="15.9904043"><ele>310.5</ele><time>2026-04-25T10:23:51.775Z</time></trkpt><trkpt lat="39.9601889" lon="15.9905376"><ele>311.75</ele><time>2026-04-25T10:23:52.777Z</time></trkpt><trkpt lat="39.9602702" lon="15.990656"><ele>313.0</ele><time>2026-04-25T10:23:53.778Z</time></trkpt><trkpt lat="39.9603473" lon="15.9907442"><ele>313.0</ele><time>2026-04-25T10:23:54.77Z</time></trkpt><trkpt lat="39.9604344" lon="15.9907963"><ele>313.0</ele><time>2026-04-25T10:23:55.769Z</time></trkpt><trkpt lat="39.9605341" lon="15.9908084"><ele>313.0</ele><time>2026-04-25T10:23:56.769Z</time></trkpt><trkpt lat="39.9606418" lon="15.9908092"><ele>313.0</ele><time>2026-04-25T10:23:57.777Z</time></trkpt><trkpt lat="39.9607567" lon="15.9908141"><ele>313.0</ele><time>2026-04-25T10:23:58.777Z</time></trkpt><trkpt lat="39.9608804" lon="15.9908414"><ele>316.25</ele><time>2026-04-25T10:23:59.772Z</time></trkpt><trkpt lat="39.9610053" lon="15.9908725"><ele>319.5</ele><time>2026-04-25T10:24:00.78Z</time></trkpt><trkpt lat="39.9611396" lon="15.9909015"><ele>322.75</ele><time>2026-04-25T10:24:01.779Z</time></trkpt><trkpt lat="39.9612839" lon="15.9909197"><ele>326.0</ele><time>2026-04-25T10:24:02.768Z</time></trkpt><trkpt lat="39.9614358" lon="15.9908873"><ele>326.0</ele><time>2026-04-25T10:24:03.772Z</time></trkpt><trkpt lat="39.9615894" lon="15.9908478"><ele>326.0</ele><time>2026-04-25T10:24:04.781Z</time></trkpt><trkpt lat="39.9617535" lon="15.9908067"><ele>326.0</ele><time>2026-04-25T10:24:05.775Z</time></trkpt><trkpt lat="39.9619313" lon="15.9907551"><ele>321.6666666666667</ele><time>2026-04-25T10:24:06.772Z</time></trkpt><trkpt lat="39.9621136" lon="15.9907056"><ele>317.3333333333333</ele><time>2026-04-25T10:24:07.778Z</time></trkpt><trkpt lat="39.962304" lon="15.9906532"><ele>313.0</ele><time>2026-04-25T10:24:08.782Z</time></trkpt><trkpt lat="39.9625014" lon="15.9906046"><ele>313.0</ele><time>2026-04-25T10:24:09.787Z</time></trkpt><trkpt lat="39.9626935" lon="15.9905584"><ele>313.0</ele><time>2026-04-25T10:24:10.778Z</time></trkpt><trkpt lat="39.9628806" lon="15.9905094"><ele>313.0</ele><time>2026-04-25T10:24:11.775Z</time></trkpt><trkpt lat="39.9630607" lon="15.9904506"><ele>313.0</ele><time>2026-04-25T10:24:12.776Z</time></trkpt><trkpt lat="39.9632233" lon="15.9903735"><ele>313.0</ele><time>2026-04-25T10:24:13.781Z</time></trkpt><trkpt lat="39.9633738" lon="15.9902784"><ele>313.0</ele><time>2026-04-25T10:24:14.779Z</time></trkpt><trkpt lat="39.9635084" lon="15.9901489"><ele>314.0</ele><time>2026-04-25T10:24:15.769Z</time></trkpt><trkpt lat="39.9636469" lon="15.9900122"><ele>315.0</ele><time>2026-04-25T10:24:16.774Z</time></trkpt><trkpt lat="39.9637885" lon="15.9898855"><ele>316.0</ele><time>2026-04-25T10:24:17.783Z</time></trkpt><trkpt lat="39.9639384" lon="15.9897679"><ele>313.66666666666663</ele><time>2026-04-25T10:24:18.771Z</time></trkpt><trkpt lat="39.9640908" lon="15.9896499"><ele>311.3333333333333</ele><time>2026-04-25T10:24:19.775Z</time></trkpt><trkpt lat="39.9642434" lon="15.9895326"><ele>309.0</ele><time>2026-04-25T10:24:20.774Z</time></trkpt><trkpt lat="39.9643962" lon="15.9894114"><ele>309.0</ele><time>2026-04-25T10:24:21.782Z</time></trkpt><trkpt lat="39.964553" lon="15.9892879"><ele>309.0</ele><time>2026-04-25T10:24:22.778Z</time></trkpt><trkpt lat="39.9647093" lon="15.9891636"><ele>309.0</ele><time>2026-04-25T10:24:23.786Z</time></trkpt><trkpt lat="39.9648676" lon="15.9890407"><ele>307.3333333333333</ele><time>2026-04-25T10:24:24.776Z</time></trkpt><trkpt lat="39.9650272" lon="15.9889207"><ele>305.66666666666663</ele><time>2026-04-25T10:24:25.78Z</time></trkpt><trkpt lat="39.965186" lon="15.9887983"><ele>304.0</ele><time>2026-04-25T10:24:26.773Z</time></trkpt><trkpt lat="39.9653448" lon="15.9886765"><ele>304.0</ele><time>2026-04-25T10:24:27.786Z</time></trkpt><trkpt lat="39.965504" lon="15.9885531"><ele>304.0</ele><time>2026-04-25T10:24:28.771Z</time></trkpt><trkpt lat="39.9656586" lon="15.9884257"><ele>304.0</ele><time>2026-04-25T10:24:29.775Z</time></trkpt><trkpt lat="39.965812" lon="15.9883032"><ele>302.3333333333333</ele><time>2026-04-25T10:24:30.768Z</time></trkpt><trkpt lat="39.9659535" lon="15.9881776"><ele>300.6666666666667</ele><time>2026-04-25T10:24:31.781Z</time></trkpt><trkpt lat="39.9660805" lon="15.9880454"><ele>299.0</ele><time>2026-04-25T10:24:32.778Z</time></trkpt><trkpt lat="39.9661885" lon="15.9879288"><ele>299.0</ele><time>2026-04-25T10:24:33.777Z</time></trkpt><trkpt lat="39.966281" lon="15.9878351"><ele>299.0</ele><time>2026-04-25T10:24:34.773Z</time></trkpt><trkpt lat="39.9663736" lon="15.9877955"><ele>299.0</ele><time>2026-04-25T10:24:35.781Z</time></trkpt><trkpt lat="39.966464" lon="15.987814"><ele>299.0</ele><time>2026-04-25T10:24:36.772Z</time></trkpt><trkpt lat="39.9665573" lon="15.987886"><ele>299.0</ele><time>2026-04-25T10:24:37.777Z</time></trkpt><trkpt lat="39.9666621" lon="15.9879991"><ele>298.33333333333337</ele><time>2026-04-25T10:24:38.78Z</time></trkpt><trkpt lat="39.9667796" lon="15.9881264"><ele>297.6666666666667</ele><time>2026-04-25T10:24:39.778Z</time></trkpt><trkpt lat="39.9669125" lon="15.9882669"><ele>297.0</ele><time>2026-04-25T10:24:40.783Z</time></trkpt><trkpt lat="39.9670421" lon="15.9884048"><ele>297.0</ele><time>2026-04-25T10:24:41.781Z</time></trkpt><trkpt lat="39.9671674" lon="15.988545"><ele>297.0</ele><time>2026-04-25T10:24:42.778Z</time></trkpt><trkpt lat="39.9672806" lon="15.9886715"><ele>297.0</ele><time>2026-04-25T10:24:43.781Z</time></trkpt><trkpt lat="39.9673819" lon="15.9887762"><ele>297.0</ele><time>2026-04-25T10:24:44.775Z</time></trkpt><trkpt lat="39.9674769" lon="15.9888544"><ele>295.4</ele><time>2026-04-25T10:24:45.778Z</time></trkpt><trkpt lat="39.9675799" lon="15.9888801"><ele>293.79999999999995</ele><time>2026-04-25T10:24:46.781Z</time></trkpt><trkpt lat="39.9676865" lon="15.9888508"><ele>292.2</ele><time>2026-04-25T10:24:47.781Z</time></trkpt><trkpt lat="39.9677771" lon="15.988774"><ele>290.59999999999997</ele><time>2026-04-25T10:24:48.775Z</time></trkpt><trkpt lat="39.9678483" lon="15.9886627"><ele>289.0</ele><time>2026-04-25T10:24:49.779Z</time></trkpt><trkpt lat="39.9679073" lon="15.9885331"><ele>289.0</ele><time>2026-04-25T10:24:50.789Z</time></trkpt><trkpt lat="39.9679644" lon="15.9883992"><ele>289.0</ele><time>2026-04-25T10:24:51.777Z</time></trkpt><trkpt lat="39.9680236" lon="15.988268"><ele>289.0</ele><time>2026-04-25T10:24:52.78Z</time></trkpt><trkpt lat="39.9680842" lon="15.9881422"><ele>289.0</ele><time>2026-04-25T10:24:53.776Z</time></trkpt><trkpt lat="39.9681452" lon="15.9880302"><ele>288.8</ele><time>2026-04-25T10:24:54.773Z</time></trkpt><trkpt lat="39.9682066" lon="15.9879356"><ele>288.59999999999997</ele><time>2026-04-25T10:24:55.788Z</time></trkpt><trkpt lat="39.9683012" lon="15.9878984"><ele>288.4</ele><time>2026-04-25T10:24:56.778Z</time></trkpt><trkpt lat="39.9683916" lon="15.9878671"><ele>288.2</ele><time>2026-04-25T10:24:57.774Z</time></trkpt><trkpt lat="39.9685027" lon="15.9878938"><ele>288.0</ele><time>2026-04-25T10:24:58.777Z</time></trkpt><trkpt lat="39.9686098" lon="15.9879159"><ele>289.0</ele><time>2026-04-25T10:24:59.774Z</time></trkpt><trkpt lat="39.9687239" lon="15.9879353"><ele>290.0</ele><time>2026-04-25T10:25:00.772Z</time></trkpt><trkpt lat="39.968842" lon="15.9879507"><ele>291.0</ele><time>2026-04-25T10:25:01.77Z</time></trkpt><trkpt lat="39.9689552" lon="15.9879704"><ele>292.0</ele><time>2026-04-25T10:25:02.776Z</time></trkpt><trkpt lat="39.9690485" lon="15.9879977"><ele>293.0</ele><time>2026-04-25T10:25:03.78Z</time></trkpt><trkpt lat="39.9691162" lon="15.9880303"><ele>293.0</ele><time>2026-04-25T10:25:04.782Z</time></trkpt><trkpt lat="39.9692056" lon="15.9880751"><ele>293.0</ele><time>2026-04-25T10:25:06.779Z</time></trkpt><trkpt lat="39.9693189" lon="15.9881285"><ele>293.0</ele><time>2026-04-25T10:25:11.767Z</time></trkpt><trkpt lat="39.9694142" lon="15.9881717"><ele>293.0</ele><time>2026-04-25T10:25:13.778Z</time></trkpt><trkpt lat="39.9694801" lon="15.9882093"><ele>293.0</ele><time>2026-04-25T10:25:14.77Z</time></trkpt><trkpt lat="39.9695557" lon="15.9882565"><ele>293.0</ele><time>2026-04-25T10:25:15.774Z</time></trkpt><trkpt lat="39.9696386" lon="15.9883128"><ele>293.0</ele><time>2026-04-25T10:25:16.766Z</time></trkpt><trkpt lat="39.9697308" lon="15.9883735"><ele>293.0</ele><time>2026-04-25T10:25:17.774Z</time></trkpt><trkpt lat="39.9698345" lon="15.9884387"><ele>293.0</ele><time>2026-04-25T10:25:18.769Z</time></trkpt><trkpt lat="39.9699491" lon="15.98851"><ele>293.0</ele><time>2026-04-25T10:25:19.78Z</time></trkpt><trkpt lat="39.9700693" lon="15.9885886"><ele>291.75</ele><time>2026-04-25T10:25:20.772Z</time></trkpt><trkpt lat="39.9701941" lon="15.9886725"><ele>290.5</ele><time>2026-04-25T10:25:21.784Z</time></trkpt><trkpt lat="39.9703219" lon="15.9887608"><ele>289.25</ele><time>2026-04-25T10:25:22.771Z</time></trkpt><trkpt lat="39.970452" lon="15.98885"><ele>288.0</ele><time>2026-04-25T10:25:23.771Z</time></trkpt><trkpt lat="39.9705801" lon="15.9889324"><ele>288.0</ele><time>2026-04-25T10:25:24.775Z</time></trkpt><trkpt lat="39.9707038" lon="15.9890078"><ele>288.0</ele><time>2026-04-25T10:25:25.771Z</time></trkpt><trkpt lat="39.9708242" lon="15.9890768"><ele>288.0</ele><time>2026-04-25T10:25:26.783Z</time></trkpt><trkpt lat="39.9709423" lon="15.9891356"><ele>288.0</ele><time>2026-04-25T10:25:27.775Z</time></trkpt><trkpt lat="39.9710569" lon="15.9891836"><ele>288.8333333333333</ele><time>2026-04-25T10:25:28.772Z</time></trkpt><trkpt lat="39.9711614" lon="15.9892269"><ele>289.6666666666667</ele><time>2026-04-25T10:25:29.785Z</time></trkpt><trkpt lat="39.9712508" lon="15.9892765"><ele>290.5</ele><time>2026-04-25T10:25:30.781Z</time></trkpt><trkpt lat="39.9713192" lon="15.9893383"><ele>291.33333333333337</ele><time>2026-04-25T10:25:31.796Z</time></trkpt><trkpt lat="39.971381" lon="15.9894027"><ele>292.1666666666667</ele><time>2026-04-25T10:25:32.782Z</time></trkpt><trkpt lat="39.9714106" lon="15.9894759"><ele>293.0</ele><time>2026-04-25T10:25:33.775Z</time></trkpt><trkpt lat="39.9714592" lon="15.9896151"><ele>293.0</ele><time>2026-04-25T10:25:35.788Z</time></trkpt><trkpt lat="39.9715202" lon="15.9897601"><ele>293.0</ele><time>2026-04-25T10:25:37.777Z</time></trkpt><trkpt lat="39.9715572" lon="15.9898585"><ele>293.0</ele><time>2026-04-25T10:25:38.78Z</time></trkpt><trkpt lat="39.9715957" lon="15.9899765"><ele>293.0</ele><time>2026-04-25T10:25:39.776Z</time></trkpt><trkpt lat="39.9716353" lon="15.9901102"><ele>293.0</ele><time>2026-04-25T10:25:40.773Z</time></trkpt><trkpt lat="39.9716776" lon="15.9902545"><ele>294.0</ele><time>2026-04-25T10:25:41.779Z</time></trkpt><trkpt lat="39.9717193" lon="15.9904079"><ele>295.0</ele><time>2026-04-25T10:25:42.772Z</time></trkpt><trkpt lat="39.9717612" lon="15.9905687"><ele>296.0</ele><time>2026-04-25T10:25:43.779Z</time></trkpt><trkpt lat="39.9718062" lon="15.9907304"><ele>297.0</ele><time>2026-04-25T10:25:44.775Z</time></trkpt><trkpt lat="39.9718644" lon="15.9908822"><ele>297.0</ele><time>2026-04-25T10:25:45.771Z</time></trkpt><trkpt lat="39.9719397" lon="15.9910143"><ele>297.0</ele><time>2026-04-25T10:25:46.773Z</time></trkpt><trkpt lat="39.9720312" lon="15.991122"><ele>297.0</ele><time>2026-04-25T10:25:47.777Z</time></trkpt><trkpt lat="39.9721309" lon="15.9912089"><ele>297.0</ele><time>2026-04-25T10:25:48.775Z</time></trkpt><trkpt lat="39.9722303" lon="15.9912718"><ele>297.0</ele><time>2026-04-25T10:25:49.779Z</time></trkpt><trkpt lat="39.9723265" lon="15.991323"><ele>297.0</ele><time>2026-04-25T10:25:50.773Z</time></trkpt><trkpt lat="39.97242" lon="15.9913759"><ele>297.0</ele><time>2026-04-25T10:25:51.77Z</time></trkpt><trkpt lat="39.9725108" lon="15.9914261"><ele>297.0</ele><time>2026-04-25T10:25:52.771Z</time></trkpt><trkpt lat="39.9726017" lon="15.9914728"><ele>297.0</ele><time>2026-04-25T10:25:53.776Z</time></trkpt><trkpt lat="39.9726917" lon="15.9915248"><ele>297.2</ele><time>2026-04-25T10:25:54.77Z</time></trkpt><trkpt lat="39.9727817" lon="15.9915826"><ele>297.4</ele><time>2026-04-25T10:25:55.78Z</time></trkpt><trkpt lat="39.9728733" lon="15.991643"><ele>297.6</ele><time>2026-04-25T10:25:56.771Z</time></trkpt><trkpt lat="39.9729613" lon="15.9917137"><ele>297.8</ele><time>2026-04-25T10:25:57.778Z</time></trkpt><trkpt lat="39.9730422" lon="15.9917939"><ele>298.0</ele><time>2026-04-25T10:25:58.776Z</time></trkpt><trkpt lat="39.9731175" lon="15.9918773"><ele>297.6</ele><time>2026-04-25T10:25:59.782Z</time></trkpt><trkpt lat="39.9731901" lon="15.9919588"><ele>297.20000000000005</ele><time>2026-04-25T10:26:00.768Z</time></trkpt><trkpt lat="39.973261" lon="15.992039"><ele>296.8</ele><time>2026-04-25T10:26:01.78Z</time></trkpt><trkpt lat="39.9733342" lon="15.9921177"><ele>296.40000000000003</ele><time>2026-04-25T10:26:02.778Z</time></trkpt><trkpt lat="39.9734121" lon="15.9921914"><ele>296.0</ele><time>2026-04-25T10:26:03.774Z</time></trkpt><trkpt lat="39.9734851" lon="15.9922514"><ele>296.0</ele><time>2026-04-25T10:26:04.769Z</time></trkpt><trkpt lat="39.9735459" lon="15.9922934"><ele>296.0</ele><time>2026-04-25T10:26:05.772Z</time></trkpt><trkpt lat="39.9736145" lon="15.9923504"><ele>296.0</ele><time>2026-04-25T10:26:07.775Z</time></trkpt><trkpt lat="39.9735889" lon="15.9922694"><ele>296.0</ele><time>2026-04-25T10:26:14.775Z</time></trkpt><trkpt lat="39.9734675" lon="15.992191"><ele>296.0</ele><time>2026-04-25T10:26:16.78Z</time></trkpt><trkpt lat="39.9733916" lon="15.9921231"><ele>296.0</ele><time>2026-04-25T10:26:17.772Z</time></trkpt><trkpt lat="39.9733066" lon="15.9920357"><ele>296.5</ele><time>2026-04-25T10:26:18.775Z</time></trkpt><trkpt lat="39.9732135" lon="15.9919332"><ele>297.0</ele><time>2026-04-25T10:26:19.783Z</time></trkpt><trkpt lat="39.9731107" lon="15.9918182"><ele>297.5</ele><time>2026-04-25T10:26:20.784Z</time></trkpt><trkpt lat="39.9729923" lon="15.9916992"><ele>298.0</ele><time>2026-04-25T10:26:21.776Z</time></trkpt><trkpt lat="39.9728569" lon="15.991588"><ele>298.0</ele><time>2026-04-25T10:26:22.774Z</time></trkpt><trkpt lat="39.9727055" lon="15.9914853"><ele>298.0</ele><time>2026-04-25T10:26:23.771Z</time></trkpt><trkpt lat="39.9725505" lon="15.9913935"><ele>298.0</ele><time>2026-04-25T10:26:24.779Z</time></trkpt><trkpt lat="39.9723993" lon="15.9913104"><ele>297.66666666666663</ele><time>2026-04-25T10:26:25.77Z</time></trkpt><trkpt lat="39.9722537" lon="15.9912291"><ele>297.3333333333333</ele><time>2026-04-25T10:26:26.773Z</time></trkpt><trkpt lat="39.9721174" lon="15.991141"><ele>297.0</ele><time>2026-04-25T10:26:27.772Z</time></trkpt><trkpt lat="39.9719997" lon="15.9910309"><ele>297.0</ele><time>2026-04-25T10:26:28.773Z</time></trkpt><trkpt lat="39.9719083" lon="15.9908944"><ele>297.0</ele><time>2026-04-25T10:26:29.77Z</time></trkpt><trkpt lat="39.9718436" lon="15.9907347"><ele>297.0</ele><time>2026-04-25T10:26:30.779Z</time></trkpt><trkpt lat="39.9717461" lon="15.9903862"><ele>296.0</ele><time>2026-04-25T10:26:32.773Z</time></trkpt><trkpt lat="39.9716985" lon="15.9902193"><ele>295.0</ele><time>2026-04-25T10:26:33.778Z</time></trkpt><trkpt lat="39.9716511" lon="15.9900653"><ele>294.0</ele><time>2026-04-25T10:26:34.77Z</time></trkpt><trkpt lat="39.9716038" lon="15.9899275"><ele>293.0</ele><time>2026-04-25T10:26:35.768Z</time></trkpt><trkpt lat="39.9715591" lon="15.9898049"><ele>293.0</ele><time>2026-04-25T10:26:36.781Z</time></trkpt><trkpt lat="39.9715294" lon="15.9897"><ele>293.0</ele><time>2026-04-25T10:26:37.767Z</time></trkpt><trkpt lat="39.9715271" lon="15.9896065"><ele>293.0</ele><time>2026-04-25T10:26:38.778Z</time></trkpt><trkpt lat="39.9715529" lon="15.9895312"><ele>293.0</ele><time>2026-04-25T10:26:39.782Z</time></trkpt><trkpt lat="39.9716419" lon="15.9894661"><ele>293.0</ele><time>2026-04-25T10:26:41.779Z</time></trkpt><trkpt lat="39.9717463" lon="15.9895996"><ele>296.0</ele><time>2026-04-25T10:26:43.776Z</time></trkpt><trkpt lat="39.9717883" lon="15.9897366"><ele>299.0</ele><time>2026-04-25T10:26:44.78Z</time></trkpt><trkpt lat="39.9718046" lon="15.9899"><ele>302.0</ele><time>2026-04-25T10:26:45.772Z</time></trkpt><trkpt lat="39.9718369" lon="15.990093"><ele>305.0</ele><time>2026-04-25T10:26:46.776Z</time></trkpt><trkpt lat="39.9718637" lon="15.9902931"><ele>305.0</ele><time>2026-04-25T10:26:47.778Z</time></trkpt><trkpt lat="39.9719053" lon="15.9904741"><ele>305.0</ele><time>2026-04-25T10:26:48.775Z</time></trkpt><trkpt lat="39.971977" lon="15.990626"><ele>305.0</ele><time>2026-04-25T10:26:49.774Z</time></trkpt><trkpt lat="39.9720867" lon="15.9907563"><ele>305.0</ele><time>2026-04-25T10:26:50.777Z</time></trkpt><trkpt lat="39.97223" lon="15.9908676"><ele>302.6666666666667</ele><time>2026-04-25T10:26:51.785Z</time></trkpt><trkpt lat="39.9723872" lon="15.9909644"><ele>300.3333333333333</ele><time>2026-04-25T10:26:52.781Z</time></trkpt><trkpt lat="39.9725394" lon="15.9910558"><ele>298.0</ele><time>2026-04-25T10:26:53.785Z</time></trkpt><trkpt lat="39.9726871" lon="15.9911219"><ele>298.0</ele><time>2026-04-25T10:26:54.767Z</time></trkpt><trkpt lat="39.9728281" lon="15.9911383"><ele>298.0</ele><time>2026-04-25T10:26:55.771Z</time></trkpt><trkpt lat="39.9729669" lon="15.9911126"><ele>298.0</ele><time>2026-04-25T10:26:56.775Z</time></trkpt><trkpt lat="39.9730936" lon="15.9910523"><ele>298.0</ele><time>2026-04-25T10:26:57.775Z</time></trkpt><trkpt lat="39.9731902" lon="15.9909718"><ele>298.0</ele><time>2026-04-25T10:26:58.772Z</time></trkpt><trkpt lat="39.9732494" lon="15.9908698"><ele>298.0</ele><time>2026-04-25T10:26:59.783Z</time></trkpt><trkpt lat="39.973257" lon="15.9907592"><ele>298.0</ele><time>2026-04-25T10:27:00.769Z</time></trkpt><trkpt lat="39.9732227" lon="15.9906541"><ele>298.0</ele><time>2026-04-25T10:27:01.77Z</time></trkpt><trkpt lat="39.9731509" lon="15.9905687"><ele>298.0</ele><time>2026-04-25T10:27:02.773Z</time></trkpt><trkpt lat="39.9730523" lon="15.9904933"><ele>301.25</ele><time>2026-04-25T10:27:03.774Z</time></trkpt><trkpt lat="39.9729503" lon="15.9904144"><ele>304.5</ele><time>2026-04-25T10:27:04.776Z</time></trkpt><trkpt lat="39.9728566" lon="15.9903271"><ele>307.75</ele><time>2026-04-25T10:27:05.769Z</time></trkpt><trkpt lat="39.9727792" lon="15.9902227"><ele>311.0</ele><time>2026-04-25T10:27:06.771Z</time></trkpt><trkpt lat="39.9727144" lon="15.9900954"><ele>311.75</ele><time>2026-04-25T10:27:07.777Z</time></trkpt><trkpt lat="39.9726537" lon="15.9899485"><ele>312.5</ele><time>2026-04-25T10:27:08.768Z</time></trkpt><trkpt lat="39.9725934" lon="15.989784"><ele>313.25</ele><time>2026-04-25T10:27:09.774Z</time></trkpt><trkpt lat="39.9725376" lon="15.9896079"><ele>314.0</ele><time>2026-04-25T10:27:10.784Z</time></trkpt><trkpt lat="39.9724888" lon="15.9894295"><ele>314.0</ele><time>2026-04-25T10:27:11.77Z</time></trkpt><trkpt lat="39.9724552" lon="15.9892541"><ele>314.0</ele><time>2026-04-25T10:27:12.785Z</time></trkpt><trkpt lat="39.9724491" lon="15.9890837"><ele>314.0</ele><time>2026-04-25T10:27:13.77Z</time></trkpt><trkpt lat="39.9724763" lon="15.9889143"><ele>314.0</ele><time>2026-04-25T10:27:14.772Z</time></trkpt><trkpt lat="39.972535" lon="15.9887466"><ele>318.0</ele><time>2026-04-25T10:27:15.783Z</time></trkpt><trkpt lat="39.9726211" lon="15.9885828"><ele>322.0</ele><time>2026-04-25T10:27:16.776Z</time></trkpt><trkpt lat="39.9727237" lon="15.9884315"><ele>326.0</ele><time>2026-04-25T10:27:17.773Z</time></trkpt><trkpt lat="39.9728418" lon="15.9883093"><ele>326.0</ele><time>2026-04-25T10:27:18.782Z</time></trkpt><trkpt lat="39.9729747" lon="15.9882332"><ele>326.0</ele><time>2026-04-25T10:27:19.78Z</time></trkpt><trkpt lat="39.9731189" lon="15.9881985"><ele>326.0</ele><time>2026-04-25T10:27:20.786Z</time></trkpt><trkpt lat="39.9732639" lon="15.9881896"><ele>326.0</ele><time>2026-04-25T10:27:21.782Z</time></trkpt><trkpt lat="39.9734022" lon="15.9881803"><ele>329.0</ele><time>2026-04-25T10:27:22.789Z</time></trkpt><trkpt lat="39.9735217" lon="15.9881434"><ele>332.0</ele><time>2026-04-25T10:27:23.776Z</time></trkpt><trkpt lat="39.9736099" lon="15.9880652"><ele>335.0</ele><time>2026-04-25T10:27:24.773Z</time></trkpt><trkpt lat="39.9736674" lon="15.9879507"><ele>338.0</ele><time>2026-04-25T10:27:25.786Z</time></trkpt><trkpt lat="39.9737026" lon="15.9878183"><ele>341.0</ele><time>2026-04-25T10:27:26.787Z</time></trkpt><trkpt lat="39.9737391" lon="15.9876865"><ele>341.0</ele><time>2026-04-25T10:27:27.776Z</time></trkpt><trkpt lat="39.9738011" lon="15.9875874"><ele>341.0</ele><time>2026-04-25T10:27:28.772Z</time></trkpt><trkpt lat="39.9738863" lon="15.9875427"><ele>341.0</ele><time>2026-04-25T10:27:29.779Z</time></trkpt><trkpt lat="39.9739818" lon="15.9875272"><ele>341.0</ele><time>2026-04-25T10:27:30.771Z</time></trkpt><trkpt lat="39.9740781" lon="15.9875961"><ele>341.0</ele><time>2026-04-25T10:27:31.764Z</time></trkpt><trkpt lat="39.9741774" lon="15.9876907"><ele>343.75</ele><time>2026-04-25T10:27:32.79Z</time></trkpt><trkpt lat="39.9742789" lon="15.9877761"><ele>346.5</ele><time>2026-04-25T10:27:33.781Z</time></trkpt><trkpt lat="39.974396" lon="15.9878325"><ele>349.25</ele><time>2026-04-25T10:27:34.774Z</time></trkpt><trkpt lat="39.9745391" lon="15.98786"><ele>352.0</ele><time>2026-04-25T10:27:35.771Z</time></trkpt><trkpt lat="39.9746988" lon="15.9878566"><ele>352.0</ele><time>2026-04-25T10:27:36.778Z</time></trkpt><trkpt lat="39.9748584" lon="15.9878084"><ele>352.0</ele><time>2026-04-25T10:27:37.764Z</time></trkpt><trkpt lat="39.9750118" lon="15.9877188"><ele>352.0</ele><time>2026-04-25T10:27:38.773Z</time></trkpt><trkpt lat="39.975169" lon="15.9876083"><ele>353.66666666666663</ele><time>2026-04-25T10:27:39.769Z</time></trkpt><trkpt lat="39.9753242" lon="15.9874877"><ele>355.3333333333333</ele><time>2026-04-25T10:27:40.772Z</time></trkpt><trkpt lat="39.9754726" lon="15.9873595"><ele>357.0</ele><time>2026-04-25T10:27:41.767Z</time></trkpt><trkpt lat="39.9756049" lon="15.987208"><ele>357.0</ele><time>2026-04-25T10:27:42.771Z</time></trkpt><trkpt lat="39.975719" lon="15.9870341"><ele>357.0</ele><time>2026-04-25T10:27:43.784Z</time></trkpt><trkpt lat="39.9758216" lon="15.9868385"><ele>357.0</ele><time>2026-04-25T10:27:44.776Z</time></trkpt><trkpt lat="39.9759251" lon="15.9866298"><ele>361.6666666666667</ele><time>2026-04-25T10:27:45.771Z</time></trkpt><trkpt lat="39.9760265" lon="15.9864201"><ele>366.33333333333337</ele><time>2026-04-25T10:27:46.772Z</time></trkpt><trkpt lat="39.9761206" lon="15.9862134"><ele>371.0</ele><time>2026-04-25T10:27:47.768Z</time></trkpt><trkpt lat="39.9762043" lon="15.985997"><ele>370.0</ele><time>2026-04-25T10:27:48.77Z</time></trkpt><trkpt lat="39.9762519" lon="15.9857836"><ele>369.0</ele><time>2026-04-25T10:27:49.775Z</time></trkpt><trkpt lat="39.9762669" lon="15.9855647"><ele>368.0</ele><time>2026-04-25T10:27:50.768Z</time></trkpt><trkpt lat="39.9762745" lon="15.9853568"><ele>368.0</ele><time>2026-04-25T10:27:51.774Z</time></trkpt><trkpt lat="39.9762821" lon="15.9851656"><ele>368.0</ele><time>2026-04-25T10:27:52.782Z</time></trkpt><trkpt lat="39.9762948" lon="15.9849921"><ele>368.0</ele><time>2026-04-25T10:27:53.775Z</time></trkpt><trkpt lat="39.9763214" lon="15.9848492"><ele>368.0</ele><time>2026-04-25T10:27:54.772Z</time></trkpt><trkpt lat="39.9763724" lon="15.9847476"><ele>368.4</ele><time>2026-04-25T10:27:55.804Z</time></trkpt><trkpt lat="39.9764426" lon="15.9846947"><ele>368.79999999999995</ele><time>2026-04-25T10:27:56.777Z</time></trkpt><trkpt lat="39.9765227" lon="15.9846944"><ele>369.2</ele><time>2026-04-25T10:27:57.779Z</time></trkpt><trkpt lat="39.976607" lon="15.9847374"><ele>369.6</ele><time>2026-04-25T10:27:58.768Z</time></trkpt><trkpt lat="39.9766903" lon="15.9848112"><ele>370.0</ele><time>2026-04-25T10:27:59.784Z</time></trkpt><trkpt lat="39.9767745" lon="15.984894"><ele>370.0</ele><time>2026-04-25T10:28:00.771Z</time></trkpt><trkpt lat="39.9768561" lon="15.9849507"><ele>370.0</ele><time>2026-04-25T10:28:01.786Z</time></trkpt><trkpt lat="39.9769387" lon="15.9849613"><ele>370.0</ele><time>2026-04-25T10:28:02.774Z</time></trkpt><trkpt lat="39.9770132" lon="15.9849253"><ele>370.0</ele><time>2026-04-25T10:28:03.777Z</time></trkpt><trkpt lat="39.9770618" lon="15.9848427"><ele>370.0</ele><time>2026-04-25T10:28:04.775Z</time></trkpt><trkpt lat="39.9770763" lon="15.984733"><ele>370.0</ele><time>2026-04-25T10:28:05.789Z</time></trkpt><trkpt lat="39.9770689" lon="15.9846101"><ele>370.0</ele><time>2026-04-25T10:28:06.773Z</time></trkpt><trkpt lat="39.9770659" lon="15.9844844"><ele>370.0</ele><time>2026-04-25T10:28:07.784Z</time></trkpt><trkpt lat="39.9770902" lon="15.9843677"><ele>370.0</ele><time>2026-04-25T10:28:08.779Z</time></trkpt><trkpt lat="39.9771487" lon="15.9842784"><ele>370.0</ele><time>2026-04-25T10:28:09.785Z</time></trkpt><trkpt lat="39.9772356" lon="15.9842251"><ele>370.0</ele><time>2026-04-25T10:28:10.778Z</time></trkpt><trkpt lat="39.9773459" lon="15.9841958"><ele>368.25</ele><time>2026-04-25T10:28:11.788Z</time></trkpt><trkpt lat="39.977467" lon="15.9841612"><ele>366.5</ele><time>2026-04-25T10:28:12.773Z</time></trkpt><trkpt lat="39.9775958" lon="15.984089"><ele>364.75</ele><time>2026-04-25T10:28:13.775Z</time></trkpt><trkpt lat="39.9777184" lon="15.9839661"><ele>363.0</ele><time>2026-04-25T10:28:14.771Z</time></trkpt><trkpt lat="39.9778219" lon="15.9838155"><ele>367.25</ele><time>2026-04-25T10:28:15.788Z</time></trkpt><trkpt lat="39.9779042" lon="15.9836626"><ele>371.5</ele><time>2026-04-25T10:28:16.769Z</time></trkpt><trkpt lat="39.9779797" lon="15.9835274"><ele>375.75</ele><time>2026-04-25T10:28:17.779Z</time></trkpt><trkpt lat="39.9780674" lon="15.9834289"><ele>380.0</ele><time>2026-04-25T10:28:18.767Z</time></trkpt><trkpt lat="39.978172" lon="15.9833771"><ele>380.0</ele><time>2026-04-25T10:28:19.774Z</time></trkpt><trkpt lat="39.9782901" lon="15.9833669"><ele>380.0</ele><time>2026-04-25T10:28:20.782Z</time></trkpt><trkpt lat="39.9784198" lon="15.9833784"><ele>380.0</ele><time>2026-04-25T10:28:21.781Z</time></trkpt><trkpt lat="39.9785626" lon="15.983395"><ele>380.0</ele><time>2026-04-25T10:28:22.773Z</time></trkpt><trkpt lat="39.9787098" lon="15.9834081"><ele>380.0</ele><time>2026-04-25T10:28:23.77Z</time></trkpt><trkpt lat="39.9788569" lon="15.983407"><ele>380.0</ele><time>2026-04-25T10:28:24.775Z</time></trkpt><trkpt lat="39.9789984" lon="15.983378"><ele>380.0</ele><time>2026-04-25T10:28:25.775Z</time></trkpt><trkpt lat="39.9791265" lon="15.983312"><ele>380.0</ele><time>2026-04-25T10:28:26.768Z</time></trkpt><trkpt lat="39.9792336" lon="15.9832085"><ele>384.25</ele><time>2026-04-25T10:28:27.779Z</time></trkpt><trkpt lat="39.979306" lon="15.9830768"><ele>388.5</ele><time>2026-04-25T10:28:28.765Z</time></trkpt><trkpt lat="39.9793321" lon="15.9829314"><ele>392.75</ele><time>2026-04-25T10:28:29.772Z</time></trkpt><trkpt lat="39.9793121" lon="15.982786"><ele>397.0</ele><time>2026-04-25T10:28:30.772Z</time></trkpt><trkpt lat="39.9792585" lon="15.982655"><ele>397.0</ele><time>2026-04-25T10:28:31.772Z</time></trkpt><trkpt lat="39.9791926" lon="15.982535"><ele>397.0</ele><time>2026-04-25T10:28:32.773Z</time></trkpt><trkpt lat="39.9791441" lon="15.9824159"><ele>397.0</ele><time>2026-04-25T10:28:33.772Z</time></trkpt><trkpt lat="39.9791343" lon="15.9823019"><ele>397.0</ele><time>2026-04-25T10:28:34.775Z</time></trkpt><trkpt lat="39.9791671" lon="15.9822101"><ele>397.0</ele><time>2026-04-25T10:28:35.775Z</time></trkpt><trkpt lat="39.9792366" lon="15.9821453"><ele>395.75</ele><time>2026-04-25T10:28:36.772Z</time></trkpt><trkpt lat="39.979337" lon="15.9821011"><ele>394.5</ele><time>2026-04-25T10:28:37.777Z</time></trkpt><trkpt lat="39.9794583" lon="15.9820644"><ele>393.25</ele><time>2026-04-25T10:28:38.775Z</time></trkpt><trkpt lat="39.9795876" lon="15.9820149"><ele>392.0</ele><time>2026-04-25T10:28:39.78Z</time></trkpt><trkpt lat="39.9797172" lon="15.9819455"><ele>392.0</ele><time>2026-04-25T10:28:40.779Z</time></trkpt><trkpt lat="39.9798513" lon="15.9818666"><ele>392.0</ele><time>2026-04-25T10:28:41.788Z</time></trkpt><trkpt lat="39.9799954" lon="15.9818011"><ele>392.0</ele><time>2026-04-25T10:28:42.775Z</time></trkpt><trkpt lat="39.9801413" lon="15.9817473"><ele>393.25</ele><time>2026-04-25T10:28:43.777Z</time></trkpt><trkpt lat="39.9802834" lon="15.981727"><ele>394.5</ele><time>2026-04-25T10:28:44.781Z</time></trkpt><trkpt lat="39.9804196" lon="15.9817247"><ele>395.75</ele><time>2026-04-25T10:28:45.78Z</time></trkpt><trkpt lat="39.9805444" lon="15.9817414"><ele>397.0</ele><time>2026-04-25T10:28:46.772Z</time></trkpt><trkpt lat="39.9806524" lon="15.9817889"><ele>397.0</ele><time>2026-04-25T10:28:47.786Z</time></trkpt><trkpt lat="39.9807486" lon="15.9818831"><ele>397.0</ele><time>2026-04-25T10:28:48.77Z</time></trkpt><trkpt lat="39.9808316" lon="15.9820036"><ele>397.0</ele><time>2026-04-25T10:28:49.778Z</time></trkpt><trkpt lat="39.9809144" lon="15.9821311"><ele>397.0</ele><time>2026-04-25T10:28:50.785Z</time></trkpt><trkpt lat="39.9810013" lon="15.9822514"><ele>393.75</ele><time>2026-04-25T10:28:51.778Z</time></trkpt><trkpt lat="39.9810933" lon="15.9823625"><ele>390.5</ele><time>2026-04-25T10:28:52.766Z</time></trkpt><trkpt lat="39.9811779" lon="15.9824757"><ele>387.25</ele><time>2026-04-25T10:28:53.774Z</time></trkpt><trkpt lat="39.9812356" lon="15.9825939"><ele>384.0</ele><time>2026-04-25T10:28:54.786Z</time></trkpt><trkpt lat="39.9812644" lon="15.9827223"><ele>384.0</ele><time>2026-04-25T10:28:55.78Z</time></trkpt><trkpt lat="39.9812626" lon="15.9828571"><ele>384.0</ele><time>2026-04-25T10:28:56.782Z</time></trkpt><trkpt lat="39.9812432" lon="15.9829929"><ele>384.0</ele><time>2026-04-25T10:28:57.776Z</time></trkpt><trkpt lat="39.9812311" lon="15.9831346"><ele>384.0</ele><time>2026-04-25T10:28:58.774Z</time></trkpt><trkpt lat="39.9812362" lon="15.9832852"><ele>384.0</ele><time>2026-04-25T10:28:59.776Z</time></trkpt><trkpt lat="39.9812569" lon="15.9834349"><ele>387.5</ele><time>2026-04-25T10:29:00.779Z</time></trkpt><trkpt lat="39.9812918" lon="15.9835839"><ele>391.0</ele><time>2026-04-25T10:29:01.777Z</time></trkpt><trkpt lat="39.9813391" lon="15.9837276"><ele>394.5</ele><time>2026-04-25T10:29:02.776Z</time></trkpt><trkpt lat="39.9814085" lon="15.9838574"><ele>398.0</ele><time>2026-04-25T10:29:03.777Z</time></trkpt><trkpt lat="39.9814996" lon="15.9839708"><ele>398.0</ele><time>2026-04-25T10:29:04.777Z</time></trkpt><trkpt lat="39.9816038" lon="15.9840697"><ele>398.0</ele><time>2026-04-25T10:29:05.774Z</time></trkpt><trkpt lat="39.9817191" lon="15.9841525"><ele>398.0</ele><time>2026-04-25T10:29:06.779Z</time></trkpt><trkpt lat="39.9818399" lon="15.9842209"><ele>398.0</ele><time>2026-04-25T10:29:07.771Z</time></trkpt><trkpt lat="39.9819623" lon="15.984272"><ele>399.5</ele><time>2026-04-25T10:29:08.773Z</time></trkpt><trkpt lat="39.9820826" lon="15.9843083"><ele>401.0</ele><time>2026-04-25T10:29:09.781Z</time></trkpt><trkpt lat="39.9822013" lon="15.9843366"><ele>402.5</ele><time>2026-04-25T10:29:10.784Z</time></trkpt><trkpt lat="39.9823167" lon="15.9843625"><ele>404.0</ele><time>2026-04-25T10:29:11.781Z</time></trkpt><trkpt lat="39.9824315" lon="15.9843992"><ele>400.75</ele><time>2026-04-25T10:29:12.78Z</time></trkpt><trkpt lat="39.9825528" lon="15.9844591"><ele>397.5</ele><time>2026-04-25T10:29:13.795Z</time></trkpt><trkpt lat="39.9826687" lon="15.9845525"><ele>394.25</ele><time>2026-04-25T10:29:14.771Z</time></trkpt><trkpt lat="39.9827756" lon="15.9846731"><ele>391.0</ele><time>2026-04-25T10:29:15.778Z</time></trkpt><trkpt lat="39.9828791" lon="15.9848056"><ele>391.0</ele><time>2026-04-25T10:29:16.77Z</time></trkpt><trkpt lat="39.9829857" lon="15.9849353"><ele>391.0</ele><time>2026-04-25T10:29:17.771Z</time></trkpt><trkpt lat="39.9831021" lon="15.9850501"><ele>391.0</ele><time>2026-04-25T10:29:18.772Z</time></trkpt><trkpt lat="39.9832329" lon="15.9851433"><ele>391.0</ele><time>2026-04-25T10:29:19.782Z</time></trkpt><trkpt lat="39.9833639" lon="15.9852326"><ele>394.0</ele><time>2026-04-25T10:29:20.767Z</time></trkpt><trkpt lat="39.9835215" lon="15.9852708"><ele>397.0</ele><time>2026-04-25T10:29:21.776Z</time></trkpt><trkpt lat="39.9836816" lon="15.9852983"><ele>400.0</ele><time>2026-04-25T10:29:22.767Z</time></trkpt><trkpt lat="39.9838333" lon="15.9853515"><ele>400.0</ele><time>2026-04-25T10:29:23.767Z</time></trkpt><trkpt lat="39.983975" lon="15.9854136"><ele>400.0</ele><time>2026-04-25T10:29:24.769Z</time></trkpt><trkpt lat="39.9841123" lon="15.9854791"><ele>400.0</ele><time>2026-04-25T10:29:25.775Z</time></trkpt><trkpt lat="39.9842412" lon="15.9855315"><ele>400.0</ele><time>2026-04-25T10:29:26.776Z</time></trkpt><trkpt lat="39.9843616" lon="15.9855637"><ele>396.8</ele><time>2026-04-25T10:29:27.785Z</time></trkpt><trkpt lat="39.984471" lon="15.9855997"><ele>393.6</ele><time>2026-04-25T10:29:28.777Z</time></trkpt><trkpt lat="39.9845737" lon="15.98565"><ele>390.4</ele><time>2026-04-25T10:29:29.777Z</time></trkpt><trkpt lat="39.9846752" lon="15.9857104"><ele>387.2</ele><time>2026-04-25T10:29:30.775Z</time></trkpt><trkpt lat="39.9847413" lon="15.9858228"><ele>384.0</ele><time>2026-04-25T10:29:31.769Z</time></trkpt><trkpt lat="39.9847793" lon="15.9859603"><ele>384.0</ele><time>2026-04-25T10:29:32.775Z</time></trkpt><trkpt lat="39.9847878" lon="15.9861247"><ele>384.0</ele><time>2026-04-25T10:29:33.778Z</time></trkpt><trkpt lat="39.9847897" lon="15.9862753"><ele>384.0</ele><time>2026-04-25T10:29:34.779Z</time></trkpt><trkpt lat="39.9847654" lon="15.9864387"><ele>384.0</ele><time>2026-04-25T10:29:35.769Z</time></trkpt><trkpt lat="39.9847289" lon="15.9865891"><ele>384.4</ele><time>2026-04-25T10:29:36.773Z</time></trkpt><trkpt lat="39.9846956" lon="15.9867431"><ele>384.79999999999995</ele><time>2026-04-25T10:29:37.773Z</time></trkpt><trkpt lat="39.9846759" lon="15.9868875"><ele>385.20000000000005</ele><time>2026-04-25T10:29:38.78Z</time></trkpt><trkpt lat="39.9846712" lon="15.987017"><ele>385.6</ele><time>2026-04-25T10:29:39.774Z</time></trkpt><trkpt lat="39.9846945" lon="15.9871419"><ele>386.0</ele><time>2026-04-25T10:29:40.767Z</time></trkpt><trkpt lat="39.984742" lon="15.9872508"><ele>386.0</ele><time>2026-04-25T10:29:41.784Z</time></trkpt><trkpt lat="39.9848093" lon="15.9873349"><ele>386.0</ele><time>2026-04-25T10:29:42.776Z</time></trkpt><trkpt lat="39.9849038" lon="15.9873974"><ele>386.0</ele><time>2026-04-25T10:29:43.773Z</time></trkpt><trkpt lat="39.9850164" lon="15.9874435"><ele>386.0</ele><time>2026-04-25T10:29:44.78Z</time></trkpt><trkpt lat="39.9851442" lon="15.987477"><ele>386.0</ele><time>2026-04-25T10:29:45.784Z</time></trkpt><trkpt lat="39.9852855" lon="15.9874893"><ele>385.0</ele><time>2026-04-25T10:29:46.775Z</time></trkpt><trkpt lat="39.9854306" lon="15.9874727"><ele>384.0</ele><time>2026-04-25T10:29:47.782Z</time></trkpt><trkpt lat="39.9855728" lon="15.9874344"><ele>383.0</ele><time>2026-04-25T10:29:48.776Z</time></trkpt><trkpt lat="39.9857145" lon="15.9873929"><ele>382.0</ele><time>2026-04-25T10:29:49.782Z</time></trkpt><trkpt lat="39.9858561" lon="15.9873573"><ele>382.0</ele><time>2026-04-25T10:29:50.768Z</time></trkpt><trkpt lat="39.9859895" lon="15.9873308"><ele>382.0</ele><time>2026-04-25T10:29:51.777Z</time></trkpt><trkpt lat="39.9861302" lon="15.9873352"><ele>382.0</ele><time>2026-04-25T10:29:52.778Z</time></trkpt><trkpt lat="39.9862708" lon="15.9873841"><ele>382.0</ele><time>2026-04-25T10:29:53.777Z</time></trkpt><trkpt lat="39.9864024" lon="15.987492"><ele>383.5</ele><time>2026-04-25T10:29:54.776Z</time></trkpt><trkpt lat="39.9865231" lon="15.9876033"><ele>385.0</ele><time>2026-04-25T10:29:55.772Z</time></trkpt><trkpt lat="39.9866354" lon="15.9877254"><ele>386.5</ele><time>2026-04-25T10:29:56.769Z</time></trkpt><trkpt lat="39.9867453" lon="15.9878495"><ele>388.0</ele><time>2026-04-25T10:29:57.779Z</time></trkpt><trkpt lat="39.9868521" lon="15.9879643"><ele>390.0</ele><time>2026-04-25T10:29:58.766Z</time></trkpt><trkpt lat="39.9869514" lon="15.9880586"><ele>392.0</ele><time>2026-04-25T10:29:59.781Z</time></trkpt><trkpt lat="39.987047" lon="15.9881359"><ele>394.0</ele><time>2026-04-25T10:30:00.781Z</time></trkpt><trkpt lat="39.9871485" lon="15.9881912"><ele>396.0</ele><time>2026-04-25T10:30:01.774Z</time></trkpt><trkpt lat="39.9872518" lon="15.9882231"><ele>396.0</ele><time>2026-04-25T10:30:02.771Z</time></trkpt><trkpt lat="39.9873556" lon="15.9882242"><ele>396.0</ele><time>2026-04-25T10:30:03.774Z</time></trkpt><trkpt lat="39.9874526" lon="15.9881953"><ele>396.0</ele><time>2026-04-25T10:30:04.775Z</time></trkpt><trkpt lat="39.9875358" lon="15.9881334"><ele>396.0</ele><time>2026-04-25T10:30:05.781Z</time></trkpt><trkpt lat="39.9876102" lon="15.9880584"><ele>396.0</ele><time>2026-04-25T10:30:06.777Z</time></trkpt><trkpt lat="39.987658" lon="15.987953"><ele>395.20000000000005</ele><time>2026-04-25T10:30:07.778Z</time></trkpt><trkpt lat="39.987693" lon="15.9878199"><ele>394.40000000000003</ele><time>2026-04-25T10:30:08.787Z</time></trkpt><trkpt lat="39.9877276" lon="15.9876896"><ele>393.6</ele><time>2026-04-25T10:30:09.785Z</time></trkpt><trkpt lat="39.9877655" lon="15.9875652"><ele>392.8</ele><time>2026-04-25T10:30:10.785Z</time></trkpt><trkpt lat="39.987805" lon="15.9874534"><ele>392.0</ele><time>2026-04-25T10:30:11.771Z</time></trkpt><trkpt lat="39.9878528" lon="15.9873624"><ele>391.99999999999994</ele><time>2026-04-25T10:30:12.782Z</time></trkpt><trkpt lat="39.9878967" lon="15.9872844"><ele>392.0</ele><time>2026-04-25T10:30:13.773Z</time></trkpt><trkpt lat="39.9879785" lon="15.9872718"><ele>392.0</ele><time>2026-04-25T10:30:14.768Z</time></trkpt><trkpt lat="39.9880609" lon="15.9873119"><ele>392.0</ele><time>2026-04-25T10:30:15.774Z</time></trkpt><trkpt lat="39.9881445" lon="15.98737"><ele>391.99999999999994</ele><time>2026-04-25T10:30:16.768Z</time></trkpt><trkpt lat="39.9882083" lon="15.9874756"><ele>392.0</ele><time>2026-04-25T10:30:17.771Z</time></trkpt><trkpt lat="39.988276" lon="15.9875887"><ele>393.0</ele><time>2026-04-25T10:30:18.777Z</time></trkpt><trkpt lat="39.9883347" lon="15.9876981"><ele>394.0</ele><time>2026-04-25T10:30:19.772Z</time></trkpt><trkpt lat="39.9883994" lon="15.9878156"><ele>395.0</ele><time>2026-04-25T10:30:20.767Z</time></trkpt><trkpt lat="39.9884655" lon="15.9879286"><ele>396.0</ele><time>2026-04-25T10:30:21.767Z</time></trkpt><trkpt lat="39.9885355" lon="15.9880295"><ele>397.0</ele><time>2026-04-25T10:30:22.78Z</time></trkpt><trkpt lat="39.9886121" lon="15.9881303"><ele>397.0</ele><time>2026-04-25T10:30:23.782Z</time></trkpt><trkpt lat="39.9887008" lon="15.9882262"><ele>397.0</ele><time>2026-04-25T10:30:24.769Z</time></trkpt><trkpt lat="39.9888055" lon="15.9883091"><ele>397.0</ele><time>2026-04-25T10:30:25.776Z</time></trkpt><trkpt lat="39.9889419" lon="15.98839"><ele>397.0</ele><time>2026-04-25T10:30:26.78Z</time></trkpt><trkpt lat="39.9891153" lon="15.9884767"><ele>401.0</ele><time>2026-04-25T10:30:27.77Z</time></trkpt><trkpt lat="39.9893148" lon="15.9885728"><ele>405.0</ele><time>2026-04-25T10:30:28.77Z</time></trkpt><trkpt lat="39.9895357" lon="15.9886633"><ele>409.0</ele><time>2026-04-25T10:30:29.782Z</time></trkpt><trkpt lat="39.9897415" lon="15.9887607"><ele>409.0</ele><time>2026-04-25T10:30:30.767Z</time></trkpt><trkpt lat="39.989942" lon="15.9888546"><ele>409.0</ele><time>2026-04-25T10:30:31.782Z</time></trkpt><trkpt lat="39.9901228" lon="15.9889593"><ele>409.0</ele><time>2026-04-25T10:30:32.769Z</time></trkpt><trkpt lat="39.9903011" lon="15.9890409"><ele>409.6666666666667</ele><time>2026-04-25T10:30:33.767Z</time></trkpt><trkpt lat="39.9904672" lon="15.9891093"><ele>410.33333333333337</ele><time>2026-04-25T10:30:34.782Z</time></trkpt><trkpt lat="39.9906227" lon="15.9891917"><ele>411.0</ele><time>2026-04-25T10:30:35.778Z</time></trkpt><trkpt lat="39.9907722" lon="15.9892689"><ele>411.0</ele><time>2026-04-25T10:30:36.769Z</time></trkpt><trkpt lat="39.9909029" lon="15.989356"><ele>411.0</ele><time>2026-04-25T10:30:37.775Z</time></trkpt><trkpt lat="39.9910349" lon="15.9894719"><ele>411.0</ele><time>2026-04-25T10:30:38.768Z</time></trkpt><trkpt lat="39.9911477" lon="15.989563"><ele>411.0</ele><time>2026-04-25T10:30:39.777Z</time></trkpt><trkpt lat="39.9912916" lon="15.9896879"><ele>411.0</ele><time>2026-04-25T10:30:40.77Z</time></trkpt><trkpt lat="39.9914368" lon="15.9897851"><ele>411.0</ele><time>2026-04-25T10:30:41.779Z</time></trkpt><trkpt lat="39.9915872" lon="15.9898761"><ele>411.0</ele><time>2026-04-25T10:30:42.78Z</time></trkpt><trkpt lat="39.991737" lon="15.9899499"><ele>412.0</ele><time>2026-04-25T10:30:43.775Z</time></trkpt><trkpt lat="39.9918863" lon="15.9900201"><ele>413.0</ele><time>2026-04-25T10:30:44.773Z</time></trkpt><trkpt lat="39.9920321" lon="15.9900786"><ele>414.0</ele><time>2026-04-25T10:30:45.778Z</time></trkpt><trkpt lat="39.9921779" lon="15.9901059"><ele>414.0</ele><time>2026-04-25T10:30:46.763Z</time></trkpt><trkpt lat="39.9923218" lon="15.9900963"><ele>414.0</ele><time>2026-04-25T10:30:47.778Z</time></trkpt><trkpt lat="39.9924649" lon="15.9900564"><ele>414.0</ele><time>2026-04-25T10:30:48.781Z</time></trkpt><trkpt lat="39.9926069" lon="15.989993"><ele>414.0</ele><time>2026-04-25T10:30:49.775Z</time></trkpt><trkpt lat="39.9927511" lon="15.9899122"><ele>417.0</ele><time>2026-04-25T10:30:50.779Z</time></trkpt><trkpt lat="39.9928885" lon="15.9898191"><ele>420.0</ele><time>2026-04-25T10:30:51.783Z</time></trkpt><trkpt lat="39.9930214" lon="15.9897139"><ele>423.0</ele><time>2026-04-25T10:30:52.781Z</time></trkpt><trkpt lat="39.9931492" lon="15.9896007"><ele>423.0</ele><time>2026-04-25T10:30:53.787Z</time></trkpt><trkpt lat="39.9932742" lon="15.9894827"><ele>423.0</ele><time>2026-04-25T10:30:54.77Z</time></trkpt><trkpt lat="39.993396" lon="15.9893666"><ele>423.0</ele><time>2026-04-25T10:30:55.768Z</time></trkpt><trkpt lat="39.9935108" lon="15.9892569"><ele>423.0</ele><time>2026-04-25T10:30:56.777Z</time></trkpt><trkpt lat="39.9936236" lon="15.9891542"><ele>423.0</ele><time>2026-04-25T10:30:57.787Z</time></trkpt><trkpt lat="39.9937385" lon="15.9890573"><ele>423.0</ele><time>2026-04-25T10:30:58.783Z</time></trkpt><trkpt lat="39.9938521" lon="15.9889709"><ele>423.0</ele><time>2026-04-25T10:30:59.779Z</time></trkpt><trkpt lat="39.9939607" lon="15.9888997"><ele>423.0</ele><time>2026-04-25T10:31:00.775Z</time></trkpt><trkpt lat="39.9940833" lon="15.9888746"><ele>421.0</ele><time>2026-04-25T10:31:01.79Z</time></trkpt><trkpt lat="39.9942093" lon="15.9888935"><ele>419.0</ele><time>2026-04-25T10:31:02.774Z</time></trkpt><trkpt lat="39.9943459" lon="15.988932"><ele>417.0</ele><time>2026-04-25T10:31:03.771Z</time></trkpt><trkpt lat="39.994483" lon="15.9889747"><ele>415.0</ele><time>2026-04-25T10:31:04.771Z</time></trkpt><trkpt lat="39.9946256" lon="15.9890125"><ele>415.0</ele><time>2026-04-25T10:31:05.776Z</time></trkpt><trkpt lat="39.9947728" lon="15.9890567"><ele>415.0</ele><time>2026-04-25T10:31:06.784Z</time></trkpt><trkpt lat="39.9949282" lon="15.9891032"><ele>415.0</ele><time>2026-04-25T10:31:07.77Z</time></trkpt><trkpt lat="39.9950822" lon="15.9891417"><ele>416.6666666666667</ele><time>2026-04-25T10:31:08.782Z</time></trkpt><trkpt lat="39.9952304" lon="15.9891533"><ele>418.33333333333337</ele><time>2026-04-25T10:31:09.769Z</time></trkpt><trkpt lat="39.9953787" lon="15.9891231"><ele>420.0</ele><time>2026-04-25T10:31:10.775Z</time></trkpt><trkpt lat="39.9955233" lon="15.9890659"><ele>420.0</ele><time>2026-04-25T10:31:11.771Z</time></trkpt><trkpt lat="39.9956627" lon="15.989008"><ele>420.0</ele><time>2026-04-25T10:31:12.771Z</time></trkpt><trkpt lat="39.9957949" lon="15.9889344"><ele>420.0</ele><time>2026-04-25T10:31:13.786Z</time></trkpt><trkpt lat="39.9959256" lon="15.9888623"><ele>420.0</ele><time>2026-04-25T10:31:14.779Z</time></trkpt><trkpt lat="39.996053" lon="15.9888115"><ele>422.5</ele><time>2026-04-25T10:31:15.771Z</time></trkpt><trkpt lat="39.9961788" lon="15.9887919"><ele>425.0</ele><time>2026-04-25T10:31:16.775Z</time></trkpt><trkpt lat="39.9962968" lon="15.9888155"><ele>427.5</ele><time>2026-04-25T10:31:17.774Z</time></trkpt><trkpt lat="39.9963998" lon="15.9888786"><ele>430.0</ele><time>2026-04-25T10:31:18.772Z</time></trkpt><trkpt lat="39.9964841" lon="15.9889799"><ele>430.0</ele><time>2026-04-25T10:31:19.783Z</time></trkpt><trkpt lat="39.9965607" lon="15.9891019"><ele>430.0</ele><time>2026-04-25T10:31:20.786Z</time></trkpt><trkpt lat="39.9966387" lon="15.9892211"><ele>430.0</ele><time>2026-04-25T10:31:21.784Z</time></trkpt><trkpt lat="39.9967233" lon="15.9893416"><ele>430.0</ele><time>2026-04-25T10:31:22.793Z</time></trkpt><trkpt lat="39.9968123" lon="15.9894654"><ele>432.0</ele><time>2026-04-25T10:31:23.768Z</time></trkpt><trkpt lat="39.9969033" lon="15.9895934"><ele>434.0</ele><time>2026-04-25T10:31:24.78Z</time></trkpt><trkpt lat="39.9969912" lon="15.9897226"><ele>436.0</ele><time>2026-04-25T10:31:25.785Z</time></trkpt><trkpt lat="39.9970724" lon="15.9898479"><ele>438.0</ele><time>2026-04-25T10:31:26.77Z</time></trkpt><trkpt lat="39.9971432" lon="15.9899589"><ele>439.0</ele><time>2026-04-25T10:31:27.781Z</time></trkpt><trkpt lat="39.9971973" lon="15.9900506"><ele>439.99999999999994</ele><time>2026-04-25T10:31:28.789Z</time></trkpt><trkpt lat="39.9972317" lon="15.9901257"><ele>440.99999999999994</ele><time>2026-04-25T10:31:29.777Z</time></trkpt><trkpt lat="39.9972618" lon="15.9902677"><ele>442.0</ele><time>2026-04-25T10:31:31.782Z</time></trkpt><trkpt lat="39.9973275" lon="15.9903841"><ele>443.0</ele><time>2026-04-25T10:31:33.773Z</time></trkpt><trkpt lat="39.997427" lon="15.9903965"><ele>443.0</ele><time>2026-04-25T10:31:35.781Z</time></trkpt><trkpt lat="39.9975148" lon="15.9902976"><ele>442.99999999999994</ele><time>2026-04-25T10:31:37.774Z</time></trkpt><trkpt lat="39.9975516" lon="15.9902155"><ele>442.99999999999994</ele><time>2026-04-25T10:31:38.775Z</time></trkpt><trkpt lat="39.9976008" lon="15.9901251"><ele>443.0</ele><time>2026-04-25T10:31:39.783Z</time></trkpt><trkpt lat="39.9976765" lon="15.9900341"><ele>443.0</ele><time>2026-04-25T10:31:40.783Z</time></trkpt><trkpt lat="39.9977784" lon="15.9899492"><ele>443.0</ele><time>2026-04-25T10:31:41.784Z</time></trkpt><trkpt lat="39.9978917" lon="15.989874"><ele>443.0</ele><time>2026-04-25T10:31:42.774Z</time></trkpt><trkpt lat="39.9980112" lon="15.9897996"><ele>443.0</ele><time>2026-04-25T10:31:43.779Z</time></trkpt><trkpt lat="39.9981336" lon="15.9897256"><ele>443.0</ele><time>2026-04-25T10:31:44.782Z</time></trkpt><trkpt lat="39.9982556" lon="15.989652"><ele>445.0</ele><time>2026-04-25T10:31:45.783Z</time></trkpt><trkpt lat="39.9983801" lon="15.9895773"><ele>447.0</ele><time>2026-04-25T10:31:46.774Z</time></trkpt><trkpt lat="39.9985073" lon="15.9895001"><ele>449.0</ele><time>2026-04-25T10:31:47.774Z</time></trkpt><trkpt lat="39.9986359" lon="15.9894203"><ele>451.0</ele><time>2026-04-25T10:31:48.775Z</time></trkpt><trkpt lat="39.9987642" lon="15.9893361"><ele>451.0</ele><time>2026-04-25T10:31:49.774Z</time></trkpt><trkpt lat="39.9988854" lon="15.9892442"><ele>451.0</ele><time>2026-04-25T10:31:50.772Z</time></trkpt><trkpt lat="39.9989942" lon="15.989138"><ele>451.0</ele><time>2026-04-25T10:31:51.774Z</time></trkpt><trkpt lat="39.9990889" lon="15.9890185"><ele>451.0</ele><time>2026-04-25T10:31:52.783Z</time></trkpt><trkpt lat="39.9991691" lon="15.9888871"><ele>451.25</ele><time>2026-04-25T10:31:53.779Z</time></trkpt><trkpt lat="39.9992374" lon="15.9887426"><ele>451.5</ele><time>2026-04-25T10:31:54.777Z</time></trkpt><trkpt lat="39.9992951" lon="15.9885825"><ele>451.75</ele><time>2026-04-25T10:31:55.774Z</time></trkpt><trkpt lat="39.9993461" lon="15.9884112"><ele>452.0</ele><time>2026-04-25T10:31:56.777Z</time></trkpt><trkpt lat="39.9993953" lon="15.988231"><ele>452.0</ele><time>2026-04-25T10:31:57.793Z</time></trkpt><trkpt lat="39.9994441" lon="15.9880419"><ele>452.0</ele><time>2026-04-25T10:31:58.771Z</time></trkpt><trkpt lat="39.9994979" lon="15.9878454"><ele>452.0</ele><time>2026-04-25T10:31:59.783Z</time></trkpt><trkpt lat="39.9995631" lon="15.9876462"><ele>452.0</ele><time>2026-04-25T10:32:00.778Z</time></trkpt><trkpt lat="39.9996413" lon="15.9874462"><ele>452.0</ele><time>2026-04-25T10:32:01.778Z</time></trkpt><trkpt lat="39.9997349" lon="15.9872514"><ele>452.0</ele><time>2026-04-25T10:32:02.786Z</time></trkpt><trkpt lat="39.9998413" lon="15.9870664"><ele>452.0</ele><time>2026-04-25T10:32:03.775Z</time></trkpt><trkpt lat="39.9999535" lon="15.9868934"><ele>452.0</ele><time>2026-04-25T10:32:04.771Z</time></trkpt><trkpt lat="40.0000645" lon="15.9867198"><ele>452.0</ele><time>2026-04-25T10:32:05.779Z</time></trkpt><trkpt lat="40.0001661" lon="15.9865388"><ele>450.3333333333333</ele><time>2026-04-25T10:32:06.775Z</time></trkpt><trkpt lat="40.0002473" lon="15.9863413"><ele>448.66666666666663</ele><time>2026-04-25T10:32:07.772Z</time></trkpt><trkpt lat="40.000306" lon="15.986128"><ele>447.0</ele><time>2026-04-25T10:32:08.781Z</time></trkpt><trkpt lat="40.0003389" lon="15.9859029"><ele>445.33333333333337</ele><time>2026-04-25T10:32:09.783Z</time></trkpt><trkpt lat="40.0003478" lon="15.9856736"><ele>443.6666666666667</ele><time>2026-04-25T10:32:10.777Z</time></trkpt><trkpt lat="40.0003396" lon="15.9854472"><ele>442.0</ele><time>2026-04-25T10:32:11.781Z</time></trkpt><trkpt lat="40.0003259" lon="15.9852254"><ele>442.6666666666667</ele><time>2026-04-25T10:32:12.774Z</time></trkpt><trkpt lat="40.0003136" lon="15.9850089"><ele>443.33333333333337</ele><time>2026-04-25T10:32:13.787Z</time></trkpt><trkpt lat="40.0003045" lon="15.9847954"><ele>444.0</ele><time>2026-04-25T10:32:14.775Z</time></trkpt><trkpt lat="40.0002959" lon="15.984582"><ele>444.0</ele><time>2026-04-25T10:32:15.776Z</time></trkpt><trkpt lat="40.0002913" lon="15.9843649"><ele>444.0</ele><time>2026-04-25T10:32:16.775Z</time></trkpt><trkpt lat="40.0002987" lon="15.984142"><ele>444.0</ele><time>2026-04-25T10:32:17.777Z</time></trkpt><trkpt lat="40.0003198" lon="15.9839169"><ele>444.33333333333337</ele><time>2026-04-25T10:32:18.777Z</time></trkpt><trkpt lat="40.0003562" lon="15.983691"><ele>444.6666666666667</ele><time>2026-04-25T10:32:19.779Z</time></trkpt><trkpt lat="40.0004046" lon="15.983465"><ele>445.0</ele><time>2026-04-25T10:32:20.77Z</time></trkpt><trkpt lat="40.0004569" lon="15.9832392"><ele>444.33333333333337</ele><time>2026-04-25T10:32:21.776Z</time></trkpt><trkpt lat="40.0005264" lon="15.9830138"><ele>443.66666666666663</ele><time>2026-04-25T10:32:22.775Z</time></trkpt><trkpt lat="40.0005949" lon="15.982795"><ele>443.0</ele><time>2026-04-25T10:32:23.774Z</time></trkpt><trkpt lat="40.0006656" lon="15.9825876"><ele>442.0</ele><time>2026-04-25T10:32:24.766Z</time></trkpt><trkpt lat="40.0007345" lon="15.9823874"><ele>441.0</ele><time>2026-04-25T10:32:25.768Z</time></trkpt><trkpt lat="40.0008059" lon="15.9821845"><ele>440.0</ele><time>2026-04-25T10:32:26.775Z</time></trkpt><trkpt lat="40.0008763" lon="15.9819854"><ele>443.66666666666663</ele><time>2026-04-25T10:32:27.775Z</time></trkpt><trkpt lat="40.0009424" lon="15.9817932"><ele>447.33333333333337</ele><time>2026-04-25T10:32:28.774Z</time></trkpt><trkpt lat="40.0010045" lon="15.9816149"><ele>451.0</ele><time>2026-04-25T10:32:29.778Z</time></trkpt><trkpt lat="40.0010634" lon="15.9814473"><ele>451.0</ele><time>2026-04-25T10:32:30.774Z</time></trkpt><trkpt lat="40.0011245" lon="15.9812856"><ele>451.0</ele><time>2026-04-25T10:32:31.778Z</time></trkpt><trkpt lat="40.0011886" lon="15.9811261"><ele>451.0</ele><time>2026-04-25T10:32:32.776Z</time></trkpt><trkpt lat="40.0012546" lon="15.9809647"><ele>451.0</ele><time>2026-04-25T10:32:33.774Z</time></trkpt><trkpt lat="40.0013243" lon="15.9807983"><ele>450.33333333333337</ele><time>2026-04-25T10:32:34.778Z</time></trkpt><trkpt lat="40.0013976" lon="15.9806262"><ele>449.66666666666663</ele><time>2026-04-25T10:32:35.775Z</time></trkpt><trkpt lat="40.0014761" lon="15.9804451"><ele>449.0</ele><time>2026-04-25T10:32:36.78Z</time></trkpt><trkpt lat="40.0015585" lon="15.9802568"><ele>449.0</ele><time>2026-04-25T10:32:37.784Z</time></trkpt><trkpt lat="40.0016402" lon="15.9800572"><ele>449.0</ele><time>2026-04-25T10:32:38.771Z</time></trkpt><trkpt lat="40.0017121" lon="15.9798499"><ele>449.0</ele><time>2026-04-25T10:32:39.775Z</time></trkpt><trkpt lat="40.0017629" lon="15.97963"><ele>448.0</ele><time>2026-04-25T10:32:40.778Z</time></trkpt><trkpt lat="40.0017893" lon="15.9794032"><ele>447.0</ele><time>2026-04-25T10:32:41.774Z</time></trkpt><trkpt lat="40.0018167" lon="15.9791848"><ele>446.0</ele><time>2026-04-25T10:32:42.775Z</time></trkpt><trkpt lat="40.0017839" lon="15.9789621"><ele>446.0</ele><time>2026-04-25T10:32:43.777Z</time></trkpt><trkpt lat="40.0017382" lon="15.9787358"><ele>446.0</ele><time>2026-04-25T10:32:44.776Z</time></trkpt><trkpt lat="40.001674" lon="15.9785195"><ele>446.0</ele><time>2026-04-25T10:32:45.77Z</time></trkpt><trkpt lat="40.0015888" lon="15.9782754"><ele>443.0</ele><time>2026-04-25T10:32:46.773Z</time></trkpt><trkpt lat="40.0014943" lon="15.9780094"><ele>440.0</ele><time>2026-04-25T10:32:47.769Z</time></trkpt><trkpt lat="40.0014145" lon="15.9777378"><ele>437.0</ele><time>2026-04-25T10:32:48.775Z</time></trkpt><trkpt lat="40.0013392" lon="15.9774849"><ele>437.0</ele><time>2026-04-25T10:32:49.774Z</time></trkpt><trkpt lat="40.0012666" lon="15.9772585"><ele>437.0</ele><time>2026-04-25T10:32:50.777Z</time></trkpt><trkpt lat="40.0012004" lon="15.977057"><ele>437.0</ele><time>2026-04-25T10:32:51.783Z</time></trkpt><trkpt lat="40.0011432" lon="15.9768792"><ele>437.0</ele><time>2026-04-25T10:32:52.781Z</time></trkpt><trkpt lat="40.001096" lon="15.9767224"><ele>437.00000000000006</ele><time>2026-04-25T10:32:53.773Z</time></trkpt><trkpt lat="40.0010566" lon="15.9765918"><ele>437.00000000000006</ele><time>2026-04-25T10:32:54.775Z</time></trkpt><trkpt lat="40.0010278" lon="15.9764851"><ele>437.0</ele><time>2026-04-25T10:32:55.771Z</time></trkpt><trkpt lat="40.0010085" lon="15.9764041"><ele>437.0</ele><time>2026-04-25T10:32:56.778Z</time></trkpt><trkpt lat="40.0009868" lon="15.9763015"><ele>438.49999999999994</ele><time>2026-04-25T10:32:58.777Z</time></trkpt><trkpt lat="40.0009634" lon="15.9761983"><ele>440.0</ele><time>2026-04-25T10:33:08.788Z</time></trkpt><trkpt lat="40.0009718" lon="15.9761134"><ele>441.5</ele><time>2026-04-25T10:33:24.777Z</time></trkpt><trkpt lat="40.0009692" lon="15.9759639"><ele>443.0</ele><time>2026-04-25T10:33:26.779Z</time></trkpt><trkpt lat="40.0009735" lon="15.9758612"><ele>444.49999999999994</ele><time>2026-04-25T10:33:27.776Z</time></trkpt><trkpt lat="40.0009934" lon="15.9757427"><ele>446.0</ele><time>2026-04-25T10:33:28.774Z</time></trkpt><trkpt lat="40.0010311" lon="15.9756095"><ele>446.5</ele><time>2026-04-25T10:33:29.776Z</time></trkpt><trkpt lat="40.0010858" lon="15.9754646"><ele>447.0</ele><time>2026-04-25T10:33:30.78Z</time></trkpt><trkpt lat="40.0011563" lon="15.975318"><ele>447.5</ele><time>2026-04-25T10:33:31.779Z</time></trkpt><trkpt lat="40.0012493" lon="15.9751641"><ele>448.0</ele><time>2026-04-25T10:33:32.77Z</time></trkpt><trkpt lat="40.0013589" lon="15.9750064"><ele>446.6666666666667</ele><time>2026-04-25T10:33:33.781Z</time></trkpt><trkpt lat="40.0014725" lon="15.9748471"><ele>445.33333333333337</ele><time>2026-04-25T10:33:34.782Z</time></trkpt><trkpt lat="40.0015898" lon="15.9746847"><ele>444.0</ele><time>2026-04-25T10:33:35.778Z</time></trkpt><trkpt lat="40.0017107" lon="15.9745217"><ele>445.33333333333337</ele><time>2026-04-25T10:33:36.776Z</time></trkpt><trkpt lat="40.0018352" lon="15.9743558"><ele>446.6666666666667</ele><time>2026-04-25T10:33:37.774Z</time></trkpt><trkpt lat="40.0019622" lon="15.9741876"><ele>448.0</ele><time>2026-04-25T10:33:38.777Z</time></trkpt><trkpt lat="40.0020915" lon="15.9740191"><ele>448.0</ele><time>2026-04-25T10:33:39.785Z</time></trkpt><trkpt lat="40.0022222" lon="15.9738516"><ele>448.0</ele><time>2026-04-25T10:33:40.788Z</time></trkpt><trkpt lat="40.0023538" lon="15.9736857"><ele>448.0</ele><time>2026-04-25T10:33:41.777Z</time></trkpt><trkpt lat="40.0024824" lon="15.9735189"><ele>451.6666666666667</ele><time>2026-04-25T10:33:42.786Z</time></trkpt><trkpt lat="40.0026009" lon="15.973341"><ele>455.33333333333337</ele><time>2026-04-25T10:33:43.778Z</time></trkpt><trkpt lat="40.0027036" lon="15.9731448"><ele>459.0</ele><time>2026-04-25T10:33:44.778Z</time></trkpt><trkpt lat="40.0027884" lon="15.9729308"><ele>459.0</ele><time>2026-04-25T10:33:45.771Z</time></trkpt><trkpt lat="40.0028518" lon="15.972707"><ele>459.0</ele><time>2026-04-25T10:33:46.776Z</time></trkpt><trkpt lat="40.0028916" lon="15.972478"><ele>459.0</ele><time>2026-04-25T10:33:47.783Z</time></trkpt><trkpt lat="40.0029227" lon="15.9722518"><ele>458.66666666666663</ele><time>2026-04-25T10:33:48.781Z</time></trkpt><trkpt lat="40.0029102" lon="15.9720194"><ele>458.3333333333333</ele><time>2026-04-25T10:33:49.781Z</time></trkpt><trkpt lat="40.0028752" lon="15.9717865"><ele>458.0</ele><time>2026-04-25T10:33:50.768Z</time></trkpt><trkpt lat="40.0028265" lon="15.9715565"><ele>459.3333333333333</ele><time>2026-04-25T10:33:51.777Z</time></trkpt><trkpt lat="40.0027752" lon="15.9713252"><ele>460.66666666666663</ele><time>2026-04-25T10:33:52.769Z</time></trkpt><trkpt lat="40.0027263" lon="15.9710903"><ele>462.0</ele><time>2026-04-25T10:33:53.768Z</time></trkpt><trkpt lat="40.0026739" lon="15.9708531"><ele>464.66666666666663</ele><time>2026-04-25T10:33:54.775Z</time></trkpt><trkpt lat="40.0026233" lon="15.9706194"><ele>467.3333333333333</ele><time>2026-04-25T10:33:55.775Z</time></trkpt><trkpt lat="40.0025752" lon="15.9703922"><ele>470.0</ele><time>2026-04-25T10:33:56.777Z</time></trkpt><trkpt lat="40.0025244" lon="15.9701715"><ele>470.66666666666663</ele><time>2026-04-25T10:33:57.792Z</time></trkpt><trkpt lat="40.0024856" lon="15.9699535"><ele>471.33333333333337</ele><time>2026-04-25T10:33:58.771Z</time></trkpt><trkpt lat="40.0024659" lon="15.9697282"><ele>472.0</ele><time>2026-04-25T10:33:59.787Z</time></trkpt><trkpt lat="40.0024738" lon="15.9694973"><ele>474.6666666666667</ele><time>2026-04-25T10:34:00.776Z</time></trkpt><trkpt lat="40.0025071" lon="15.9692579"><ele>477.33333333333337</ele><time>2026-04-25T10:34:01.775Z</time></trkpt><trkpt lat="40.002567" lon="15.9690161"><ele>480.0</ele><time>2026-04-25T10:34:02.782Z</time></trkpt><trkpt lat="40.0026471" lon="15.9687693"><ele>481.66666666666663</ele><time>2026-04-25T10:34:03.782Z</time></trkpt><trkpt lat="40.0027344" lon="15.9685226"><ele>483.3333333333333</ele><time>2026-04-25T10:34:04.78Z</time></trkpt><trkpt lat="40.00282" lon="15.968276"><ele>485.0</ele><time>2026-04-25T10:34:05.773Z</time></trkpt><trkpt lat="40.0029033" lon="15.9680348"><ele>485.0</ele><time>2026-04-25T10:34:06.775Z</time></trkpt><trkpt lat="40.0029916" lon="15.9678058"><ele>485.0</ele><time>2026-04-25T10:34:07.779Z</time></trkpt><trkpt lat="40.003102" lon="15.9675937"><ele>485.0</ele><time>2026-04-25T10:34:08.775Z</time></trkpt><trkpt lat="40.0032338" lon="15.9674023"><ele>488.0</ele><time>2026-04-25T10:34:09.768Z</time></trkpt><trkpt lat="40.0033915" lon="15.9672277"><ele>491.0</ele><time>2026-04-25T10:34:10.776Z</time></trkpt><trkpt lat="40.0035768" lon="15.9670679"><ele>494.0</ele><time>2026-04-25T10:34:11.781Z</time></trkpt><trkpt lat="40.0037746" lon="15.9669361"><ele>494.0</ele><time>2026-04-25T10:34:12.777Z</time></trkpt><trkpt lat="40.0039768" lon="15.9668215"><ele>494.0</ele><time>2026-04-25T10:34:13.772Z</time></trkpt><trkpt lat="40.0041776" lon="15.9667026"><ele>494.0</ele><time>2026-04-25T10:34:14.77Z</time></trkpt><trkpt lat="40.0043685" lon="15.9665583"><ele>498.5</ele><time>2026-04-25T10:34:15.778Z</time></trkpt><trkpt lat="40.0045534" lon="15.9663818"><ele>503.0</ele><time>2026-04-25T10:34:16.777Z</time></trkpt><trkpt lat="40.0047362" lon="15.9661684"><ele>503.0</ele><time>2026-04-25T10:34:17.781Z</time></trkpt><trkpt lat="40.0049094" lon="15.96593"><ele>503.0</ele><time>2026-04-25T10:34:18.775Z</time></trkpt><trkpt lat="40.0050706" lon="15.9656907"><ele>508.66666666666663</ele><time>2026-04-25T10:34:19.775Z</time></trkpt><trkpt lat="40.0052233" lon="15.965462"><ele>514.3333333333334</ele><time>2026-04-25T10:34:20.773Z</time></trkpt><trkpt lat="40.0053664" lon="15.9652515"><ele>520.0</ele><time>2026-04-25T10:34:21.777Z</time></trkpt><trkpt lat="40.0055032" lon="15.9650603"><ele>519.3333333333334</ele><time>2026-04-25T10:34:22.767Z</time></trkpt><trkpt lat="40.00563" lon="15.9648793"><ele>518.6666666666666</ele><time>2026-04-25T10:34:23.774Z</time></trkpt><trkpt lat="40.005773" lon="15.9647608"><ele>518.0</ele><time>2026-04-25T10:34:24.778Z</time></trkpt><trkpt lat="40.0059237" lon="15.9646814"><ele>524.6666666666666</ele><time>2026-04-25T10:34:25.77Z</time></trkpt><trkpt lat="40.0060795" lon="15.9646252"><ele>531.3333333333334</ele><time>2026-04-25T10:34:26.775Z</time></trkpt><trkpt lat="40.0062395" lon="15.9645923"><ele>538.0</ele><time>2026-04-25T10:34:27.77Z</time></trkpt><trkpt lat="40.0063851" lon="15.9645662"><ele>538.0</ele><time>2026-04-25T10:34:28.768Z</time></trkpt><trkpt lat="40.006509" lon="15.9645092"><ele>538.0</ele><time>2026-04-25T10:34:29.768Z</time></trkpt><trkpt lat="40.0066095" lon="15.9644148"><ele>538.0</ele><time>2026-04-25T10:34:30.772Z</time></trkpt><trkpt lat="40.0066797" lon="15.9642955"><ele>538.0</ele><time>2026-04-25T10:34:31.776Z</time></trkpt><trkpt lat="40.0067197" lon="15.9641575"><ele>539.25</ele><time>2026-04-25T10:34:32.779Z</time></trkpt><trkpt lat="40.0067348" lon="15.9640076"><ele>540.5</ele><time>2026-04-25T10:34:33.764Z</time></trkpt><trkpt lat="40.0067371" lon="15.9638578"><ele>541.75</ele><time>2026-04-25T10:34:34.784Z</time></trkpt><trkpt lat="40.0067336" lon="15.9637042"><ele>543.0</ele><time>2026-04-25T10:34:35.778Z</time></trkpt><trkpt lat="40.0067003" lon="15.9635485"><ele>542.0</ele><time>2026-04-25T10:34:36.767Z</time></trkpt><trkpt lat="40.0066589" lon="15.9633846"><ele>541.0</ele><time>2026-04-25T10:34:37.769Z</time></trkpt><trkpt lat="40.0066068" lon="15.9632205"><ele>540.0</ele><time>2026-04-25T10:34:38.774Z</time></trkpt><trkpt lat="40.0065403" lon="15.963054"><ele>539.0</ele><time>2026-04-25T10:34:39.777Z</time></trkpt><trkpt lat="40.0064555" lon="15.9628919"><ele>539.0</ele><time>2026-04-25T10:34:40.773Z</time></trkpt><trkpt lat="40.006366" lon="15.9627341"><ele>539.0</ele><time>2026-04-25T10:34:41.777Z</time></trkpt><trkpt lat="40.006273" lon="15.9625717"><ele>539.0</ele><time>2026-04-25T10:34:42.773Z</time></trkpt><trkpt lat="40.006176" lon="15.9624005"><ele>543.3333333333333</ele><time>2026-04-25T10:34:43.767Z</time></trkpt><trkpt lat="40.0060765" lon="15.9622258"><ele>547.6666666666666</ele><time>2026-04-25T10:34:44.77Z</time></trkpt><trkpt lat="40.0059821" lon="15.9620441"><ele>552.0</ele><time>2026-04-25T10:34:45.78Z</time></trkpt><trkpt lat="40.0059106" lon="15.9618592"><ele>555.0</ele><time>2026-04-25T10:34:46.772Z</time></trkpt><trkpt lat="40.0058741" lon="15.9616623"><ele>558.0</ele><time>2026-04-25T10:34:47.788Z</time></trkpt><trkpt lat="40.0058735" lon="15.9614699"><ele>561.0</ele><time>2026-04-25T10:34:48.768Z</time></trkpt><trkpt lat="40.0058935" lon="15.9612955"><ele>564.0</ele><time>2026-04-25T10:34:49.783Z</time></trkpt><trkpt lat="40.0059087" lon="15.9611414"><ele>564.0</ele><time>2026-04-25T10:34:50.778Z</time></trkpt><trkpt lat="40.005891" lon="15.9610103"><ele>564.0</ele><time>2026-04-25T10:34:51.769Z</time></trkpt><trkpt lat="40.0058518" lon="15.9608989"><ele>564.0</ele><time>2026-04-25T10:34:52.779Z</time></trkpt><trkpt lat="40.0057526" lon="15.9608511"><ele>564.0</ele><time>2026-04-25T10:34:53.776Z</time></trkpt><trkpt lat="40.0056523" lon="15.960861"><ele>564.0</ele><time>2026-04-25T10:34:54.766Z</time></trkpt><trkpt lat="40.0055514" lon="15.9608976"><ele>562.8</ele><time>2026-04-25T10:34:55.786Z</time></trkpt><trkpt lat="40.0054465" lon="15.9609166"><ele>561.5999999999999</ele><time>2026-04-25T10:34:56.784Z</time></trkpt><trkpt lat="40.0053454" lon="15.9608819"><ele>560.4</ele><time>2026-04-25T10:34:57.771Z</time></trkpt><trkpt lat="40.0052644" lon="15.960805"><ele>559.1999999999999</ele><time>2026-04-25T10:34:58.769Z</time></trkpt><trkpt lat="40.0052102" lon="15.9606863"><ele>558.0</ele><time>2026-04-25T10:34:59.777Z</time></trkpt><trkpt lat="40.0051945" lon="15.9605566"><ele>558.0</ele><time>2026-04-25T10:35:00.773Z</time></trkpt><trkpt lat="40.0052279" lon="15.9604419"><ele>558.0</ele><time>2026-04-25T10:35:01.776Z</time></trkpt><trkpt lat="40.0052981" lon="15.9603356"><ele>558.0</ele><time>2026-04-25T10:35:02.777Z</time></trkpt><trkpt lat="40.0053814" lon="15.9602192"><ele>558.0</ele><time>2026-04-25T10:35:03.78Z</time></trkpt><trkpt lat="40.0054522" lon="15.9600764"><ele>556.75</ele><time>2026-04-25T10:35:04.77Z</time></trkpt><trkpt lat="40.0055122" lon="15.959911"><ele>555.5</ele><time>2026-04-25T10:35:05.779Z</time></trkpt><trkpt lat="40.0055716" lon="15.9597369"><ele>554.25</ele><time>2026-04-25T10:35:06.774Z</time></trkpt><trkpt lat="40.0056625" lon="15.9595836"><ele>553.0</ele><time>2026-04-25T10:35:07.771Z</time></trkpt><trkpt lat="40.0057805" lon="15.959454"><ele>557.0</ele><time>2026-04-25T10:35:08.776Z</time></trkpt><trkpt lat="40.0059218" lon="15.9593534"><ele>561.0</ele><time>2026-04-25T10:35:09.776Z</time></trkpt><trkpt lat="40.0060725" lon="15.9592738"><ele>565.0</ele><time>2026-04-25T10:35:10.778Z</time></trkpt><trkpt lat="40.0062327" lon="15.959194"><ele>565.0</ele><time>2026-04-25T10:35:11.778Z</time></trkpt><trkpt lat="40.0063916" lon="15.9591115"><ele>565.0</ele><time>2026-04-25T10:35:12.776Z</time></trkpt><trkpt lat="40.0065431" lon="15.9590387"><ele>565.0</ele><time>2026-04-25T10:35:13.786Z</time></trkpt><trkpt lat="40.0066768" lon="15.9589651"><ele>570.5</ele><time>2026-04-25T10:35:14.774Z</time></trkpt><trkpt lat="40.0067941" lon="15.9588735"><ele>576.0</ele><time>2026-04-25T10:35:15.767Z</time></trkpt><trkpt lat="40.0068808" lon="15.9587502"><ele>581.5</ele><time>2026-04-25T10:35:16.774Z</time></trkpt><trkpt lat="40.0069473" lon="15.9586094"><ele>587.0</ele><time>2026-04-25T10:35:17.771Z</time></trkpt><trkpt lat="40.0070139" lon="15.9584639"><ele>582.25</ele><time>2026-04-25T10:35:18.774Z</time></trkpt><trkpt lat="40.0070857" lon="15.9583241"><ele>577.5</ele><time>2026-04-25T10:35:19.774Z</time></trkpt><trkpt lat="40.007203" lon="15.9582365"><ele>572.75</ele><time>2026-04-25T10:35:20.779Z</time></trkpt><trkpt lat="40.0073269" lon="15.9581903"><ele>568.0</ele><time>2026-04-25T10:35:21.782Z</time></trkpt><trkpt lat="40.0074476" lon="15.9581845"><ele>573.1999999999999</ele><time>2026-04-25T10:35:22.775Z</time></trkpt><trkpt lat="40.0075622" lon="15.958205"><ele>578.4</ele><time>2026-04-25T10:35:23.774Z</time></trkpt><trkpt lat="40.0076706" lon="15.9582004"><ele>583.5999999999999</ele><time>2026-04-25T10:35:24.771Z</time></trkpt><trkpt lat="40.0077628" lon="15.9581549"><ele>588.8</ele><time>2026-04-25T10:35:25.775Z</time></trkpt><trkpt lat="40.0078281" lon="15.9580621"><ele>594.0</ele><time>2026-04-25T10:35:26.772Z</time></trkpt><trkpt lat="40.0078705" lon="15.957933"><ele>594.0</ele><time>2026-04-25T10:35:27.77Z</time></trkpt><trkpt lat="40.0079135" lon="15.9577969"><ele>594.0</ele><time>2026-04-25T10:35:28.777Z</time></trkpt><trkpt lat="40.0079453" lon="15.9576361"><ele>594.0</ele><time>2026-04-25T10:35:29.775Z</time></trkpt><trkpt lat="40.0079894" lon="15.9574657"><ele>594.0</ele><time>2026-04-25T10:35:30.776Z</time></trkpt><trkpt lat="40.008013" lon="15.9573006"><ele>590.5</ele><time>2026-04-25T10:35:31.774Z</time></trkpt><trkpt lat="40.0080077" lon="15.9571223"><ele>587.0</ele><time>2026-04-25T10:35:32.766Z</time></trkpt><trkpt lat="40.0079837" lon="15.956954"><ele>583.5</ele><time>2026-04-25T10:35:33.773Z</time></trkpt><trkpt lat="40.0079765" lon="15.9567869"><ele>580.0</ele><time>2026-04-25T10:35:34.771Z</time></trkpt><trkpt lat="40.0079861" lon="15.9566182"><ele>578.75</ele><time>2026-04-25T10:35:35.784Z</time></trkpt><trkpt lat="40.0080489" lon="15.9564595"><ele>577.5</ele><time>2026-04-25T10:35:36.772Z</time></trkpt><trkpt lat="40.0081281" lon="15.9563246"><ele>576.25</ele><time>2026-04-25T10:35:37.771Z</time></trkpt><trkpt lat="40.008228" lon="15.9561776"><ele>575.0</ele><time>2026-04-25T10:35:38.777Z</time></trkpt><trkpt lat="40.0083603" lon="15.9560339"><ele>582.3333333333333</ele><time>2026-04-25T10:35:39.785Z</time></trkpt><trkpt lat="40.0085063" lon="15.9558914"><ele>589.6666666666666</ele><time>2026-04-25T10:35:40.769Z</time></trkpt><trkpt lat="40.0086521" lon="15.9557544"><ele>597.0</ele><time>2026-04-25T10:35:41.78Z</time></trkpt><trkpt lat="40.0087983" lon="15.9556152"><ele>597.0</ele><time>2026-04-25T10:35:42.781Z</time></trkpt><trkpt lat="40.0089458" lon="15.955484"><ele>597.0</ele><time>2026-04-25T10:35:43.776Z</time></trkpt><trkpt lat="40.009099" lon="15.9553873"><ele>597.0</ele><time>2026-04-25T10:35:44.772Z</time></trkpt><trkpt lat="40.0092574" lon="15.9553218"><ele>602.0</ele><time>2026-04-25T10:35:45.78Z</time></trkpt><trkpt lat="40.0094074" lon="15.9552892"><ele>607.0</ele><time>2026-04-25T10:35:46.777Z</time></trkpt><trkpt lat="40.0095455" lon="15.9552714"><ele>612.0</ele><time>2026-04-25T10:35:47.768Z</time></trkpt><trkpt lat="40.0096796" lon="15.9552673"><ele>617.0</ele><time>2026-04-25T10:35:48.775Z</time></trkpt><trkpt lat="40.0098141" lon="15.9552641"><ele>617.0</ele><time>2026-04-25T10:35:49.786Z</time></trkpt><trkpt lat="40.0099503" lon="15.9552637"><ele>617.0</ele><time>2026-04-25T10:35:50.765Z</time></trkpt><trkpt lat="40.0100908" lon="15.9552594"><ele>617.0</ele><time>2026-04-25T10:35:51.784Z</time></trkpt><trkpt lat="40.0102329" lon="15.9552568"><ele>617.0</ele><time>2026-04-25T10:35:52.773Z</time></trkpt><trkpt lat="40.0103653" lon="15.9552468"><ele>615.0</ele><time>2026-04-25T10:35:53.771Z</time></trkpt><trkpt lat="40.0104887" lon="15.9551715"><ele>613.0</ele><time>2026-04-25T10:35:54.772Z</time></trkpt><trkpt lat="40.0105749" lon="15.9550366"><ele>611.0</ele><time>2026-04-25T10:35:55.778Z</time></trkpt><trkpt lat="40.0106523" lon="15.9548888"><ele>609.0</ele><time>2026-04-25T10:35:56.774Z</time></trkpt><trkpt lat="40.0107204" lon="15.9547202"><ele>609.0</ele><time>2026-04-25T10:35:57.775Z</time></trkpt><trkpt lat="40.0108072" lon="15.9545575"><ele>609.0</ele><time>2026-04-25T10:35:58.779Z</time></trkpt><trkpt lat="40.0109004" lon="15.9544149"><ele>609.0</ele><time>2026-04-25T10:35:59.77Z</time></trkpt><trkpt lat="40.0109895" lon="15.9542848"><ele>609.0</ele><time>2026-04-25T10:36:00.766Z</time></trkpt><trkpt lat="40.011066" lon="15.9541592"><ele>611.75</ele><time>2026-04-25T10:36:01.775Z</time></trkpt><trkpt lat="40.0111176" lon="15.9540221"><ele>614.5</ele><time>2026-04-25T10:36:02.779Z</time></trkpt><trkpt lat="40.0111351" lon="15.9538711"><ele>617.25</ele><time>2026-04-25T10:36:03.773Z</time></trkpt><trkpt lat="40.0111136" lon="15.9537137"><ele>620.0</ele><time>2026-04-25T10:36:04.774Z</time></trkpt><trkpt lat="40.0110678" lon="15.9535565"><ele>620.0</ele><time>2026-04-25T10:36:05.778Z</time></trkpt><trkpt lat="40.0109549" lon="15.9534424"><ele>620.0</ele><time>2026-04-25T10:36:06.779Z</time></trkpt><trkpt lat="40.0108111" lon="15.9533209"><ele>620.0</ele><time>2026-04-25T10:36:07.783Z</time></trkpt><trkpt lat="40.0106686" lon="15.9531596"><ele>620.6666666666666</ele><time>2026-04-25T10:36:08.772Z</time></trkpt><trkpt lat="40.0105483" lon="15.9529977"><ele>621.3333333333334</ele><time>2026-04-25T10:36:09.781Z</time></trkpt><trkpt lat="40.0104217" lon="15.9528741"><ele>622.0</ele><time>2026-04-25T10:36:10.776Z</time></trkpt><trkpt lat="40.0102782" lon="15.9528083"><ele>622.0</ele><time>2026-04-25T10:36:11.777Z</time></trkpt><trkpt lat="40.0101412" lon="15.9527657"><ele>622.0</ele><time>2026-04-25T10:36:12.775Z</time></trkpt><trkpt lat="40.010004" lon="15.9528191"><ele>622.0</ele><time>2026-04-25T10:36:13.815Z</time></trkpt><trkpt lat="40.0098756" lon="15.9529205"><ele>622.0</ele><time>2026-04-25T10:36:14.782Z</time></trkpt><trkpt lat="40.0097512" lon="15.9530361"><ele>623.75</ele><time>2026-04-25T10:36:15.79Z</time></trkpt><trkpt lat="40.0096197" lon="15.9531174"><ele>625.5</ele><time>2026-04-25T10:36:16.771Z</time></trkpt><trkpt lat="40.0094794" lon="15.953152"><ele>627.25</ele><time>2026-04-25T10:36:17.787Z</time></trkpt><trkpt lat="40.0093349" lon="15.9531471"><ele>629.0</ele><time>2026-04-25T10:36:18.774Z</time></trkpt><trkpt lat="40.009187" lon="15.9531079"><ele>629.3333333333333</ele><time>2026-04-25T10:36:19.777Z</time></trkpt><trkpt lat="40.0090348" lon="15.9530436"><ele>629.6666666666666</ele><time>2026-04-25T10:36:20.778Z</time></trkpt><trkpt lat="40.0088769" lon="15.9529659"><ele>630.0</ele><time>2026-04-25T10:36:21.771Z</time></trkpt><trkpt lat="40.0087226" lon="15.9528713"><ele>630.0</ele><time>2026-04-25T10:36:22.78Z</time></trkpt><trkpt lat="40.0085955" lon="15.9527563"><ele>630.0</ele><time>2026-04-25T10:36:23.78Z</time></trkpt><trkpt lat="40.0085075" lon="15.9526209"><ele>630.0</ele><time>2026-04-25T10:36:24.78Z</time></trkpt><trkpt lat="40.0084557" lon="15.9524679"><ele>630.0</ele><time>2026-04-25T10:36:25.779Z</time></trkpt><trkpt lat="40.0084169" lon="15.9523106"><ele>632.6666666666666</ele><time>2026-04-25T10:36:26.774Z</time></trkpt><trkpt lat="40.0084252" lon="15.9521053"><ele>635.3333333333333</ele><time>2026-04-25T10:36:27.769Z</time></trkpt><trkpt lat="40.0084447" lon="15.9518642"><ele>638.0</ele><time>2026-04-25T10:36:28.769Z</time></trkpt><trkpt lat="40.0084647" lon="15.9516022"><ele>639.3333333333333</ele><time>2026-04-25T10:36:29.777Z</time></trkpt><trkpt lat="40.0084837" lon="15.9513356"><ele>640.6666666666666</ele><time>2026-04-25T10:36:30.787Z</time></trkpt><trkpt lat="40.0085052" lon="15.9510601"><ele>642.0</ele><time>2026-04-25T10:36:31.776Z</time></trkpt><trkpt lat="40.0085253" lon="15.950787"><ele>643.3333333333334</ele><time>2026-04-25T10:36:32.774Z</time></trkpt><trkpt lat="40.0085465" lon="15.9505175"><ele>644.6666666666667</ele><time>2026-04-25T10:36:33.774Z</time></trkpt><trkpt lat="40.0085685" lon="15.9502735"><ele>646.0</ele><time>2026-04-25T10:36:34.788Z</time></trkpt><trkpt lat="40.0085871" lon="15.95004"><ele>646.3333333333334</ele><time>2026-04-25T10:36:35.785Z</time></trkpt><trkpt lat="40.0085861" lon="15.9498238"><ele>646.6666666666666</ele><time>2026-04-25T10:36:36.775Z</time></trkpt><trkpt lat="40.0085697" lon="15.9496149"><ele>647.0</ele><time>2026-04-25T10:36:37.783Z</time></trkpt><trkpt lat="40.0085337" lon="15.9494147"><ele>647.0</ele><time>2026-04-25T10:36:38.783Z</time></trkpt><trkpt lat="40.0084721" lon="15.9492303"><ele>647.0</ele><time>2026-04-25T10:36:39.775Z</time></trkpt><trkpt lat="40.008402" lon="15.9490564"><ele>647.0</ele><time>2026-04-25T10:36:40.78Z</time></trkpt><trkpt lat="40.0083287" lon="15.9488911"><ele>646.5</ele><time>2026-04-25T10:36:41.776Z</time></trkpt><trkpt lat="40.0082625" lon="15.9487256"><ele>646.0</ele><time>2026-04-25T10:36:42.77Z</time></trkpt><trkpt lat="40.0082122" lon="15.94856"><ele>645.5</ele><time>2026-04-25T10:36:43.781Z</time></trkpt><trkpt lat="40.0081839" lon="15.9483806"><ele>645.0</ele><time>2026-04-25T10:36:44.786Z</time></trkpt><trkpt lat="40.0081865" lon="15.948196"><ele>646.3333333333334</ele><time>2026-04-25T10:36:45.777Z</time></trkpt><trkpt lat="40.0082237" lon="15.9480098"><ele>647.6666666666667</ele><time>2026-04-25T10:36:46.785Z</time></trkpt><trkpt lat="40.0082957" lon="15.9478303"><ele>649.0</ele><time>2026-04-25T10:36:47.777Z</time></trkpt><trkpt lat="40.008372" lon="15.9476562"><ele>651.6666666666667</ele><time>2026-04-25T10:36:48.773Z</time></trkpt><trkpt lat="40.0084804" lon="15.9474882"><ele>654.3333333333334</ele><time>2026-04-25T10:36:49.772Z</time></trkpt><trkpt lat="40.0085896" lon="15.947328"><ele>657.0</ele><time>2026-04-25T10:36:50.783Z</time></trkpt><trkpt lat="40.0086895" lon="15.9472121"><ele>657.0</ele><time>2026-04-25T10:36:51.774Z</time></trkpt><trkpt lat="40.0087955" lon="15.9471509"><ele>657.0</ele><time>2026-04-25T10:36:52.778Z</time></trkpt><trkpt lat="40.0089031" lon="15.9471396"><ele>657.0</ele><time>2026-04-25T10:36:53.774Z</time></trkpt><trkpt lat="40.009008" lon="15.9471741"><ele>657.0</ele><time>2026-04-25T10:36:54.781Z</time></trkpt><trkpt lat="40.0091025" lon="15.9472565"><ele>657.0</ele><time>2026-04-25T10:36:55.782Z</time></trkpt><trkpt lat="40.0091898" lon="15.9473752"><ele>660.3333333333334</ele><time>2026-04-25T10:36:56.771Z</time></trkpt><trkpt lat="40.0092824" lon="15.9475135"><ele>663.6666666666667</ele><time>2026-04-25T10:36:57.777Z</time></trkpt><trkpt lat="40.0093824" lon="15.9476635"><ele>667.0</ele><time>2026-04-25T10:36:58.781Z</time></trkpt><trkpt lat="40.0094908" lon="15.9478181"><ele>667.0</ele><time>2026-04-25T10:36:59.767Z</time></trkpt><trkpt lat="40.0096111" lon="15.9479717"><ele>667.0</ele><time>2026-04-25T10:37:00.786Z</time></trkpt><trkpt lat="40.0097628" lon="15.9481169"><ele>667.0</ele><time>2026-04-25T10:37:01.774Z</time></trkpt><trkpt lat="40.0099232" lon="15.9482532"><ele>668.3333333333334</ele><time>2026-04-25T10:37:02.782Z</time></trkpt><trkpt lat="40.010088" lon="15.9483921"><ele>669.6666666666666</ele><time>2026-04-25T10:37:03.78Z</time></trkpt><trkpt lat="40.0102551" lon="15.9485515"><ele>671.0</ele><time>2026-04-25T10:37:04.777Z</time></trkpt><trkpt lat="40.0104251" lon="15.9487112"><ele>671.0</ele><time>2026-04-25T10:37:05.778Z</time></trkpt><trkpt lat="40.010602" lon="15.9488681"><ele>671.0</ele><time>2026-04-25T10:37:06.785Z</time></trkpt><trkpt lat="40.0107874" lon="15.9490174"><ele>671.0</ele><time>2026-04-25T10:37:07.781Z</time></trkpt><trkpt lat="40.0109669" lon="15.9491797"><ele>672.0</ele><time>2026-04-25T10:37:08.775Z</time></trkpt><trkpt lat="40.0111492" lon="15.9493191"><ele>673.0</ele><time>2026-04-25T10:37:09.766Z</time></trkpt><trkpt lat="40.011326" lon="15.9494707"><ele>674.0</ele><time>2026-04-25T10:37:10.769Z</time></trkpt><trkpt lat="40.0115035" lon="15.9496272"><ele>677.0</ele><time>2026-04-25T10:37:11.771Z</time></trkpt><trkpt lat="40.0116682" lon="15.9497968"><ele>680.0</ele><time>2026-04-25T10:37:12.771Z</time></trkpt><trkpt lat="40.0118303" lon="15.9499503"><ele>683.0</ele><time>2026-04-25T10:37:13.767Z</time></trkpt><trkpt lat="40.0119875" lon="15.9500978"><ele>683.0</ele><time>2026-04-25T10:37:14.776Z</time></trkpt><trkpt lat="40.0121478" lon="15.9502372"><ele>683.0</ele><time>2026-04-25T10:37:15.775Z</time></trkpt><trkpt lat="40.0122987" lon="15.9503887"><ele>683.0</ele><time>2026-04-25T10:37:16.768Z</time></trkpt><trkpt lat="40.0124394" lon="15.9505437"><ele>685.3333333333333</ele><time>2026-04-25T10:37:17.784Z</time></trkpt><trkpt lat="40.0125762" lon="15.9506999"><ele>687.6666666666666</ele><time>2026-04-25T10:37:18.774Z</time></trkpt><trkpt lat="40.0126536" lon="15.9508943"><ele>690.0</ele><time>2026-04-25T10:37:19.768Z</time></trkpt><trkpt lat="40.0127188" lon="15.9510988"><ele>690.0</ele><time>2026-04-25T10:37:20.773Z</time></trkpt><trkpt lat="40.0127826" lon="15.9512917"><ele>690.0</ele><time>2026-04-25T10:37:21.775Z</time></trkpt><trkpt lat="40.012835" lon="15.9514667"><ele>690.0</ele><time>2026-04-25T10:37:22.772Z</time></trkpt><trkpt lat="40.0128889" lon="15.9516203"><ele>690.0</ele><time>2026-04-25T10:37:23.773Z</time></trkpt><trkpt lat="40.012952" lon="15.9517349"><ele>690.0</ele><time>2026-04-25T10:37:24.773Z</time></trkpt><trkpt lat="40.013004" lon="15.9518313"><ele>690.0</ele><time>2026-04-25T10:37:25.779Z</time></trkpt><trkpt lat="40.013086" lon="15.9518544"><ele>690.0</ele><time>2026-04-25T10:37:26.778Z</time></trkpt><trkpt lat="40.0131569" lon="15.9518244"><ele>690.0</ele><time>2026-04-25T10:37:27.78Z</time></trkpt><trkpt lat="40.0132079" lon="15.9517736"><ele>690.0</ele><time>2026-04-25T10:37:28.773Z</time></trkpt><trkpt lat="40.0132723" lon="15.9516272"><ele>690.0</ele><time>2026-04-25T10:37:30.773Z</time></trkpt><trkpt lat="40.0132801" lon="15.9514261"><ele>690.0</ele><time>2026-04-25T10:37:32.781Z</time></trkpt><trkpt lat="40.0132583" lon="15.9512845"><ele>690.0</ele><time>2026-04-25T10:37:33.785Z</time></trkpt><trkpt lat="40.0132316" lon="15.9511118"><ele>690.0</ele><time>2026-04-25T10:37:34.774Z</time></trkpt><trkpt lat="40.0131969" lon="15.9509256"><ele>690.0</ele><time>2026-04-25T10:37:35.777Z</time></trkpt><trkpt lat="40.0131648" lon="15.9507222"><ele>691.3333333333334</ele><time>2026-04-25T10:37:36.784Z</time></trkpt><trkpt lat="40.013133" lon="15.950504"><ele>692.6666666666667</ele><time>2026-04-25T10:37:37.782Z</time></trkpt><trkpt lat="40.0131133" lon="15.9502719"><ele>694.0</ele><time>2026-04-25T10:37:38.781Z</time></trkpt><trkpt lat="40.0130885" lon="15.9500332"><ele>695.3333333333334</ele><time>2026-04-25T10:37:39.776Z</time></trkpt><trkpt lat="40.0130748" lon="15.9498068"><ele>696.6666666666666</ele><time>2026-04-25T10:37:40.777Z</time></trkpt><trkpt lat="40.0130726" lon="15.9495735"><ele>698.0</ele><time>2026-04-25T10:37:41.771Z</time></trkpt><trkpt lat="40.0130789" lon="15.949331"><ele>699.6666666666666</ele><time>2026-04-25T10:37:42.774Z</time></trkpt><trkpt lat="40.0130918" lon="15.9490827"><ele>701.3333333333334</ele><time>2026-04-25T10:37:43.778Z</time></trkpt><trkpt lat="40.0131064" lon="15.9488231"><ele>703.0</ele><time>2026-04-25T10:37:44.777Z</time></trkpt><trkpt lat="40.0131233" lon="15.9485518"><ele>703.0</ele><time>2026-04-25T10:37:45.771Z</time></trkpt><trkpt lat="40.013142" lon="15.9482695"><ele>703.0</ele><time>2026-04-25T10:37:46.775Z</time></trkpt><trkpt lat="40.0131598" lon="15.9479817"><ele>703.0</ele><time>2026-04-25T10:37:47.782Z</time></trkpt><trkpt lat="40.0131774" lon="15.9476831"><ele>703.5</ele><time>2026-04-25T10:37:48.774Z</time></trkpt><trkpt lat="40.0131984" lon="15.9473779"><ele>704.0</ele><time>2026-04-25T10:37:49.774Z</time></trkpt><trkpt lat="40.0132197" lon="15.9470727"><ele>704.0</ele><time>2026-04-25T10:37:50.766Z</time></trkpt><trkpt lat="40.0132391" lon="15.9467725"><ele>704.0</ele><time>2026-04-25T10:37:51.776Z</time></trkpt><trkpt lat="40.0132513" lon="15.9464693"><ele>705.0</ele><time>2026-04-25T10:37:52.774Z</time></trkpt><trkpt lat="40.0132545" lon="15.9461671"><ele>706.0</ele><time>2026-04-25T10:37:53.782Z</time></trkpt><trkpt lat="40.0132511" lon="15.9458667"><ele>707.3333333333334</ele><time>2026-04-25T10:37:54.783Z</time></trkpt><trkpt lat="40.0132489" lon="15.9455733"><ele>708.6666666666666</ele><time>2026-04-25T10:37:55.772Z</time></trkpt><trkpt lat="40.0132524" lon="15.9452885"><ele>710.0</ele><time>2026-04-25T10:37:56.773Z</time></trkpt><trkpt lat="40.0132612" lon="15.9450133"><ele>710.3333333333333</ele><time>2026-04-25T10:37:57.78Z</time></trkpt><trkpt lat="40.0132697" lon="15.9447596"><ele>710.6666666666666</ele><time>2026-04-25T10:37:58.777Z</time></trkpt><trkpt lat="40.0132803" lon="15.9445357"><ele>711.0</ele><time>2026-04-25T10:37:59.774Z</time></trkpt><trkpt lat="40.0133041" lon="15.9443495"><ele>714.0</ele><time>2026-04-25T10:38:00.769Z</time></trkpt><trkpt lat="40.0133566" lon="15.9441931"><ele>717.0</ele><time>2026-04-25T10:38:01.785Z</time></trkpt><trkpt lat="40.0134463" lon="15.9440667"><ele>720.0</ele><time>2026-04-25T10:38:02.767Z</time></trkpt><trkpt lat="40.0135662" lon="15.9439734"><ele>723.0</ele><time>2026-04-25T10:38:03.778Z</time></trkpt><trkpt lat="40.0137066" lon="15.9439008"><ele>723.0</ele><time>2026-04-25T10:38:04.774Z</time></trkpt><trkpt lat="40.0138578" lon="15.9438335"><ele>723.0</ele><time>2026-04-25T10:38:05.774Z</time></trkpt><trkpt lat="40.0140166" lon="15.9437299"><ele>723.0</ele><time>2026-04-25T10:38:06.78Z</time></trkpt><trkpt lat="40.0141736" lon="15.9435827"><ele>724.3333333333334</ele><time>2026-04-25T10:38:07.777Z</time></trkpt><trkpt lat="40.0143176" lon="15.9434166"><ele>725.6666666666667</ele><time>2026-04-25T10:38:08.77Z</time></trkpt><trkpt lat="40.0144522" lon="15.9432468"><ele>727.0</ele><time>2026-04-25T10:38:09.786Z</time></trkpt><trkpt lat="40.0145756" lon="15.9430904"><ele>727.0</ele><time>2026-04-25T10:38:10.776Z</time></trkpt><trkpt lat="40.0146918" lon="15.9429542"><ele>727.0</ele><time>2026-04-25T10:38:11.773Z</time></trkpt><trkpt lat="40.0148111" lon="15.9428503"><ele>727.0</ele><time>2026-04-25T10:38:12.785Z</time></trkpt><trkpt lat="40.0149243" lon="15.9427837"><ele>727.0</ele><time>2026-04-25T10:38:13.78Z</time></trkpt><trkpt lat="40.0150368" lon="15.9427417"><ele>733.25</ele><time>2026-04-25T10:38:14.773Z</time></trkpt><trkpt lat="40.0151623" lon="15.9427154"><ele>739.5</ele><time>2026-04-25T10:38:15.786Z</time></trkpt><trkpt lat="40.0152984" lon="15.9426925"><ele>745.75</ele><time>2026-04-25T10:38:16.785Z</time></trkpt><trkpt lat="40.0154641" lon="15.9427026"><ele>752.0</ele><time>2026-04-25T10:38:17.779Z</time></trkpt><trkpt lat="40.0156246" lon="15.9426997"><ele>752.0</ele><time>2026-04-25T10:38:18.777Z</time></trkpt><trkpt lat="40.0157761" lon="15.9426906"><ele>752.0</ele><time>2026-04-25T10:38:19.774Z</time></trkpt><trkpt lat="40.0159138" lon="15.9426761"><ele>752.0</ele><time>2026-04-25T10:38:20.768Z</time></trkpt><trkpt lat="40.0160149" lon="15.9426261"><ele>752.0</ele><time>2026-04-25T10:38:21.779Z</time></trkpt><trkpt lat="40.0160698" lon="15.9425349"><ele>752.2</ele><time>2026-04-25T10:38:22.776Z</time></trkpt><trkpt lat="40.0160884" lon="15.9424192"><ele>752.4000000000001</ele><time>2026-04-25T10:38:23.786Z</time></trkpt><trkpt lat="40.0160739" lon="15.942297"><ele>752.5999999999999</ele><time>2026-04-25T10:38:24.782Z</time></trkpt><trkpt lat="40.0160306" lon="15.9421825"><ele>752.8</ele><time>2026-04-25T10:38:25.777Z</time></trkpt><trkpt lat="40.015969" lon="15.9420602"><ele>753.0</ele><time>2026-04-25T10:38:26.793Z</time></trkpt><trkpt lat="40.0159166" lon="15.9419174"><ele>753.0</ele><time>2026-04-25T10:38:27.79Z</time></trkpt><trkpt lat="40.0158969" lon="15.9417577"><ele>753.0</ele><time>2026-04-25T10:38:28.774Z</time></trkpt><trkpt lat="40.0159126" lon="15.9415925"><ele>753.0</ele><time>2026-04-25T10:38:29.788Z</time></trkpt><trkpt lat="40.0159568" lon="15.9414219"><ele>753.0</ele><time>2026-04-25T10:38:30.77Z</time></trkpt><trkpt lat="40.0160135" lon="15.9412416"><ele>752.0</ele><time>2026-04-25T10:38:31.778Z</time></trkpt><trkpt lat="40.0160763" lon="15.9410494"><ele>751.0</ele><time>2026-04-25T10:38:32.781Z</time></trkpt><trkpt lat="40.0161414" lon="15.9408399"><ele>750.0</ele><time>2026-04-25T10:38:33.77Z</time></trkpt><trkpt lat="40.0162127" lon="15.940628"><ele>747.3333333333334</ele><time>2026-04-25T10:38:34.776Z</time></trkpt><trkpt lat="40.0162862" lon="15.9404145"><ele>744.6666666666667</ele><time>2026-04-25T10:38:35.78Z</time></trkpt><trkpt lat="40.0163597" lon="15.940203"><ele>742.0</ele><time>2026-04-25T10:38:36.78Z</time></trkpt><trkpt lat="40.0164376" lon="15.9399828"><ele>740.6666666666667</ele><time>2026-04-25T10:38:37.816Z</time></trkpt><trkpt lat="40.0165356" lon="15.9397847"><ele>739.3333333333334</ele><time>2026-04-25T10:38:38.774Z</time></trkpt><trkpt lat="40.0166481" lon="15.9396071"><ele>738.0</ele><time>2026-04-25T10:38:39.78Z</time></trkpt><trkpt lat="40.0167838" lon="15.939451"><ele>743.3333333333334</ele><time>2026-04-25T10:38:40.78Z</time></trkpt><trkpt lat="40.0169387" lon="15.9393184"><ele>748.6666666666667</ele><time>2026-04-25T10:38:41.774Z</time></trkpt><trkpt lat="40.0171015" lon="15.9391909"><ele>754.0</ele><time>2026-04-25T10:38:42.772Z</time></trkpt><trkpt lat="40.0172623" lon="15.9390584"><ele>754.0</ele><time>2026-04-25T10:38:43.774Z</time></trkpt><trkpt lat="40.0174181" lon="15.9389"><ele>754.0</ele><time>2026-04-25T10:38:44.772Z</time></trkpt><trkpt lat="40.0175678" lon="15.9387115"><ele>754.0</ele><time>2026-04-25T10:38:45.776Z</time></trkpt><trkpt lat="40.0177172" lon="15.9385019"><ele>758.0</ele><time>2026-04-25T10:38:46.777Z</time></trkpt><trkpt lat="40.0178705" lon="15.938283"><ele>762.0</ele><time>2026-04-25T10:38:47.772Z</time></trkpt><trkpt lat="40.0180253" lon="15.9380598"><ele>762.0</ele><time>2026-04-25T10:38:48.778Z</time></trkpt><trkpt lat="40.0181808" lon="15.9378296"><ele>762.0</ele><time>2026-04-25T10:38:49.776Z</time></trkpt><trkpt lat="40.0183347" lon="15.9376102"><ele>773.0</ele><time>2026-04-25T10:38:50.773Z</time></trkpt><trkpt lat="40.0184888" lon="15.9373825"><ele>784.0</ele><time>2026-04-25T10:38:51.783Z</time></trkpt><trkpt lat="40.0186326" lon="15.9371535"><ele>784.0</ele><time>2026-04-25T10:38:52.77Z</time></trkpt><trkpt lat="40.0187681" lon="15.9369327"><ele>784.0</ele><time>2026-04-25T10:38:53.774Z</time></trkpt><trkpt lat="40.0189028" lon="15.9367275"><ele>784.0</ele><time>2026-04-25T10:38:54.782Z</time></trkpt><trkpt lat="40.0190152" lon="15.9365294"><ele>781.6666666666666</ele><time>2026-04-25T10:38:55.785Z</time></trkpt><trkpt lat="40.0190986" lon="15.9363389"><ele>779.3333333333333</ele><time>2026-04-25T10:38:56.767Z</time></trkpt><trkpt lat="40.0191499" lon="15.9361578"><ele>777.0</ele><time>2026-04-25T10:38:57.776Z</time></trkpt><trkpt lat="40.0191618" lon="15.9359809"><ele>779.75</ele><time>2026-04-25T10:38:58.769Z</time></trkpt><trkpt lat="40.0191376" lon="15.9358152"><ele>782.5</ele><time>2026-04-25T10:38:59.772Z</time></trkpt><trkpt lat="40.019073" lon="15.9356686"><ele>785.25</ele><time>2026-04-25T10:39:00.777Z</time></trkpt><trkpt lat="40.0189753" lon="15.9355569"><ele>788.0</ele><time>2026-04-25T10:39:01.776Z</time></trkpt><trkpt lat="40.0188507" lon="15.9354906"><ele>788.0</ele><time>2026-04-25T10:39:02.773Z</time></trkpt><trkpt lat="40.0187098" lon="15.9354746"><ele>788.0</ele><time>2026-04-25T10:39:03.779Z</time></trkpt><trkpt lat="40.0185548" lon="15.9354785"><ele>788.0</ele><time>2026-04-25T10:39:04.779Z</time></trkpt><trkpt lat="40.0183926" lon="15.9355889"><ele>786.0</ele><time>2026-04-25T10:39:05.778Z</time></trkpt><trkpt lat="40.0182168" lon="15.9357255"><ele>784.0</ele><time>2026-04-25T10:39:06.774Z</time></trkpt><trkpt lat="40.0180347" lon="15.9358774"><ele>782.0</ele><time>2026-04-25T10:39:07.783Z</time></trkpt><trkpt lat="40.0178387" lon="15.9360383"><ele>782.0</ele><time>2026-04-25T10:39:08.773Z</time></trkpt><trkpt lat="40.0176375" lon="15.9362069"><ele>782.0</ele><time>2026-04-25T10:39:09.785Z</time></trkpt><trkpt lat="40.0174384" lon="15.936374"><ele>779.6666666666667</ele><time>2026-04-25T10:39:10.773Z</time></trkpt><trkpt lat="40.0172445" lon="15.9365382"><ele>777.3333333333333</ele><time>2026-04-25T10:39:11.779Z</time></trkpt><trkpt lat="40.0170626" lon="15.9366928"><ele>775.0</ele><time>2026-04-25T10:39:12.769Z</time></trkpt><trkpt lat="40.0168931" lon="15.936835"><ele>775.0</ele><time>2026-04-25T10:39:13.778Z</time></trkpt><trkpt lat="40.0167327" lon="15.9369588"><ele>775.0</ele><time>2026-04-25T10:39:14.773Z</time></trkpt><trkpt lat="40.0165776" lon="15.937051"><ele>775.0</ele><time>2026-04-25T10:39:15.774Z</time></trkpt><trkpt lat="40.0164223" lon="15.9371257"><ele>777.0</ele><time>2026-04-25T10:39:16.769Z</time></trkpt><trkpt lat="40.0162708" lon="15.9371211"><ele>779.0</ele><time>2026-04-25T10:39:17.775Z</time></trkpt><trkpt lat="40.0161289" lon="15.9371305"><ele>781.0</ele><time>2026-04-25T10:39:18.782Z</time></trkpt><trkpt lat="40.016033" lon="15.9370308"><ele>783.0</ele><time>2026-04-25T10:39:19.769Z</time></trkpt><trkpt lat="40.0159625" lon="15.9368954"><ele>783.0</ele><time>2026-04-25T10:39:20.78Z</time></trkpt><trkpt lat="40.0159059" lon="15.9367434"><ele>783.0</ele><time>2026-04-25T10:39:21.779Z</time></trkpt><trkpt lat="40.0158871" lon="15.9365703"><ele>783.0</ele><time>2026-04-25T10:39:22.766Z</time></trkpt><trkpt lat="40.015904" lon="15.9363855"><ele>783.0</ele><time>2026-04-25T10:39:23.773Z</time></trkpt><trkpt lat="40.0159489" lon="15.936188"><ele>786.3333333333333</ele><time>2026-04-25T10:39:24.776Z</time></trkpt><trkpt lat="40.0160151" lon="15.9359772"><ele>789.6666666666666</ele><time>2026-04-25T10:39:25.768Z</time></trkpt><trkpt lat="40.016088" lon="15.9357573"><ele>793.0</ele><time>2026-04-25T10:39:26.77Z</time></trkpt><trkpt lat="40.0161617" lon="15.9355318"><ele>793.3333333333333</ele><time>2026-04-25T10:39:27.777Z</time></trkpt><trkpt lat="40.0162316" lon="15.9353138"><ele>793.6666666666667</ele><time>2026-04-25T10:39:28.769Z</time></trkpt><trkpt lat="40.0162882" lon="15.9350968"><ele>794.0</ele><time>2026-04-25T10:39:29.767Z</time></trkpt><trkpt lat="40.0163241" lon="15.9348821"><ele>793.0</ele><time>2026-04-25T10:39:30.774Z</time></trkpt><trkpt lat="40.0163431" lon="15.9346723"><ele>792.0</ele><time>2026-04-25T10:39:31.778Z</time></trkpt><trkpt lat="40.0163631" lon="15.9344876"><ele>791.0</ele><time>2026-04-25T10:39:32.787Z</time></trkpt><trkpt lat="40.016402" lon="15.9343285"><ele>790.0</ele><time>2026-04-25T10:39:33.78Z</time></trkpt><trkpt lat="40.0164682" lon="15.9342083"><ele>789.0</ele><time>2026-04-25T10:39:34.774Z</time></trkpt><trkpt lat="40.0165588" lon="15.9341412"><ele>788.0</ele><time>2026-04-25T10:39:35.777Z</time></trkpt><trkpt lat="40.0166626" lon="15.9341282"><ele>787.0</ele><time>2026-04-25T10:39:36.768Z</time></trkpt><trkpt lat="40.0167651" lon="15.9341655"><ele>786.0</ele><time>2026-04-25T10:39:37.778Z</time></trkpt><trkpt lat="40.0168692" lon="15.9342114"><ele>785.0</ele><time>2026-04-25T10:39:38.772Z</time></trkpt><trkpt lat="40.0169853" lon="15.934229"><ele>789.75</ele><time>2026-04-25T10:39:39.776Z</time></trkpt><trkpt lat="40.0171122" lon="15.9342022"><ele>794.5</ele><time>2026-04-25T10:39:40.777Z</time></trkpt><trkpt lat="40.0172471" lon="15.9341484"><ele>799.25</ele><time>2026-04-25T10:39:41.774Z</time></trkpt><trkpt lat="40.017376" lon="15.9340774"><ele>804.0</ele><time>2026-04-25T10:39:42.775Z</time></trkpt><trkpt lat="40.017493" lon="15.933984"><ele>807.0</ele><time>2026-04-25T10:39:43.779Z</time></trkpt><trkpt lat="40.0175813" lon="15.9338628"><ele>810.0</ele><time>2026-04-25T10:39:44.775Z</time></trkpt><trkpt lat="40.0176321" lon="15.9337146"><ele>813.0</ele><time>2026-04-25T10:39:45.782Z</time></trkpt><trkpt lat="40.0176564" lon="15.9335525"><ele>816.0</ele><time>2026-04-25T10:39:46.779Z</time></trkpt><trkpt lat="40.0176752" lon="15.93339"><ele>813.75</ele><time>2026-04-25T10:39:47.781Z</time></trkpt><trkpt lat="40.0177108" lon="15.9332371"><ele>811.5</ele><time>2026-04-25T10:39:48.777Z</time></trkpt><trkpt lat="40.0177736" lon="15.9331115"><ele>809.25</ele><time>2026-04-25T10:39:49.777Z</time></trkpt><trkpt lat="40.0178642" lon="15.9330205"><ele>807.0</ele><time>2026-04-25T10:39:50.77Z</time></trkpt><trkpt lat="40.0179666" lon="15.9329476"><ele>807.0</ele><time>2026-04-25T10:39:51.783Z</time></trkpt><trkpt lat="40.0180748" lon="15.9328787"><ele>807.0</ele><time>2026-04-25T10:39:52.776Z</time></trkpt><trkpt lat="40.0181828" lon="15.9328038"><ele>807.0</ele><time>2026-04-25T10:39:53.778Z</time></trkpt><trkpt lat="40.0182879" lon="15.9327255"><ele>807.0</ele><time>2026-04-25T10:39:54.77Z</time></trkpt><trkpt lat="40.0183814" lon="15.9326374"><ele>809.5</ele><time>2026-04-25T10:39:55.769Z</time></trkpt><trkpt lat="40.0184552" lon="15.9325264"><ele>812.0</ele><time>2026-04-25T10:39:56.773Z</time></trkpt><trkpt lat="40.0185078" lon="15.9323969"><ele>814.5</ele><time>2026-04-25T10:39:57.784Z</time></trkpt><trkpt lat="40.0185392" lon="15.9322533"><ele>817.0</ele><time>2026-04-25T10:39:58.77Z</time></trkpt><trkpt lat="40.0185523" lon="15.932101"><ele>817.0</ele><time>2026-04-25T10:39:59.78Z</time></trkpt><trkpt lat="40.0185494" lon="15.9319438"><ele>817.0</ele><time>2026-04-25T10:40:00.776Z</time></trkpt><trkpt lat="40.018529" lon="15.9317854"><ele>817.0</ele><time>2026-04-25T10:40:01.773Z</time></trkpt><trkpt lat="40.018489" lon="15.9316302"><ele>817.0</ele><time>2026-04-25T10:40:02.771Z</time></trkpt><trkpt lat="40.018434" lon="15.9314803"><ele>817.0</ele><time>2026-04-25T10:40:03.775Z</time></trkpt><trkpt lat="40.0183721" lon="15.9313382"><ele>817.0</ele><time>2026-04-25T10:40:04.788Z</time></trkpt><trkpt lat="40.0183064" lon="15.9312032"><ele>817.0</ele><time>2026-04-25T10:40:05.795Z</time></trkpt><trkpt lat="40.018238" lon="15.931072"><ele>817.0</ele><time>2026-04-25T10:40:06.775Z</time></trkpt><trkpt lat="40.0181659" lon="15.9309429"><ele>813.5</ele><time>2026-04-25T10:40:07.774Z</time></trkpt><trkpt lat="40.0180973" lon="15.9308083"><ele>810.0</ele><time>2026-04-25T10:40:08.774Z</time></trkpt><trkpt lat="40.0180413" lon="15.9306633"><ele>806.5</ele><time>2026-04-25T10:40:09.777Z</time></trkpt><trkpt lat="40.0180044" lon="15.9305067"><ele>803.0</ele><time>2026-04-25T10:40:10.767Z</time></trkpt><trkpt lat="40.0179975" lon="15.9303456"><ele>803.0</ele><time>2026-04-25T10:40:11.782Z</time></trkpt><trkpt lat="40.0180001" lon="15.9301769"><ele>803.0</ele><time>2026-04-25T10:40:12.777Z</time></trkpt><trkpt lat="40.01807" lon="15.9300432"><ele>803.0</ele><time>2026-04-25T10:40:13.77Z</time></trkpt><trkpt lat="40.0181472" lon="15.9299138"><ele>803.0</ele><time>2026-04-25T10:40:14.777Z</time></trkpt><trkpt lat="40.0182361" lon="15.9297883"><ele>811.0</ele><time>2026-04-25T10:40:15.779Z</time></trkpt><trkpt lat="40.0183248" lon="15.9296608"><ele>819.0</ele><time>2026-04-25T10:40:16.783Z</time></trkpt><trkpt lat="40.0184145" lon="15.9295346"><ele>827.0</ele><time>2026-04-25T10:40:17.767Z</time></trkpt><trkpt lat="40.0185017" lon="15.9294133"><ele>835.0</ele><time>2026-04-25T10:40:18.785Z</time></trkpt><trkpt lat="40.0185754" lon="15.9292932"><ele>834.0</ele><time>2026-04-25T10:40:19.777Z</time></trkpt><trkpt lat="40.0186279" lon="15.9291731"><ele>833.0</ele><time>2026-04-25T10:40:20.776Z</time></trkpt><trkpt lat="40.0186417" lon="15.9290497"><ele>832.0</ele><time>2026-04-25T10:40:21.772Z</time></trkpt><trkpt lat="40.0186165" lon="15.9289351"><ele>831.0</ele><time>2026-04-25T10:40:22.781Z</time></trkpt><trkpt lat="40.0185672" lon="15.9288362"><ele>830.0</ele><time>2026-04-25T10:40:23.779Z</time></trkpt><trkpt lat="40.0184869" lon="15.9287686"><ele>830.0</ele><time>2026-04-25T10:40:24.784Z</time></trkpt><trkpt lat="40.0183854" lon="15.9287367"><ele>830.0</ele><time>2026-04-25T10:40:25.792Z</time></trkpt><trkpt lat="40.0182773" lon="15.9287204"><ele>830.0</ele><time>2026-04-25T10:40:26.771Z</time></trkpt><trkpt lat="40.0181705" lon="15.9286919"><ele>830.0</ele><time>2026-04-25T10:40:27.781Z</time></trkpt><trkpt lat="40.0180759" lon="15.9286268"><ele>830.0</ele><time>2026-04-25T10:40:28.791Z</time></trkpt><trkpt lat="40.0180024" lon="15.9285239"><ele>829.25</ele><time>2026-04-25T10:40:29.784Z</time></trkpt><trkpt lat="40.0179597" lon="15.928391"><ele>828.5</ele><time>2026-04-25T10:40:30.782Z</time></trkpt><trkpt lat="40.017956" lon="15.9282446"><ele>827.75</ele><time>2026-04-25T10:40:31.785Z</time></trkpt><trkpt lat="40.0179906" lon="15.9280904"><ele>827.0</ele><time>2026-04-25T10:40:32.776Z</time></trkpt><trkpt lat="40.0180557" lon="15.9279287"><ele>827.0</ele><time>2026-04-25T10:40:33.777Z</time></trkpt><trkpt lat="40.0181351" lon="15.927756"><ele>827.0</ele><time>2026-04-25T10:40:34.778Z</time></trkpt><trkpt lat="40.0182175" lon="15.927571"><ele>827.0</ele><time>2026-04-25T10:40:35.785Z</time></trkpt><trkpt lat="40.0182918" lon="15.9273728"><ele>829.3333333333334</ele><time>2026-04-25T10:40:36.769Z</time></trkpt><trkpt lat="40.0183487" lon="15.927167"><ele>831.6666666666667</ele><time>2026-04-25T10:40:37.777Z</time></trkpt><trkpt lat="40.0183832" lon="15.926948"><ele>834.0</ele><time>2026-04-25T10:40:38.776Z</time></trkpt><trkpt lat="40.0183966" lon="15.92671"><ele>834.0</ele><time>2026-04-25T10:40:39.776Z</time></trkpt><trkpt lat="40.0184017" lon="15.9264616"><ele>834.0</ele><time>2026-04-25T10:40:40.779Z</time></trkpt><trkpt lat="40.0184046" lon="15.9262018"><ele>834.0</ele><time>2026-04-25T10:40:41.777Z</time></trkpt><trkpt lat="40.0184042" lon="15.9259416"><ele>835.0</ele><time>2026-04-25T10:40:42.781Z</time></trkpt><trkpt lat="40.0184049" lon="15.9256802"><ele>836.0</ele><time>2026-04-25T10:40:43.777Z</time></trkpt><trkpt lat="40.018408" lon="15.9254175"><ele>837.0</ele><time>2026-04-25T10:40:44.781Z</time></trkpt><trkpt lat="40.0184096" lon="15.9251555"><ele>837.6666666666667</ele><time>2026-04-25T10:40:45.781Z</time></trkpt><trkpt lat="40.0184018" lon="15.9249183"><ele>838.3333333333334</ele><time>2026-04-25T10:40:46.785Z</time></trkpt><trkpt lat="40.0183994" lon="15.9246998"><ele>839.0</ele><time>2026-04-25T10:40:47.787Z</time></trkpt><trkpt lat="40.0184048" lon="15.9244928"><ele>839.0</ele><time>2026-04-25T10:40:48.776Z</time></trkpt><trkpt lat="40.0184039" lon="15.9242891"><ele>839.0</ele><time>2026-04-25T10:40:49.779Z</time></trkpt><trkpt lat="40.0184008" lon="15.9240865"><ele>839.0</ele><time>2026-04-25T10:40:50.781Z</time></trkpt><trkpt lat="40.0184032" lon="15.9238934"><ele>839.5</ele><time>2026-04-25T10:40:51.786Z</time></trkpt><trkpt lat="40.0184105" lon="15.9237139"><ele>840.0</ele><time>2026-04-25T10:40:52.774Z</time></trkpt><trkpt lat="40.0184234" lon="15.9235455"><ele>840.5</ele><time>2026-04-25T10:40:53.78Z</time></trkpt><trkpt lat="40.0184405" lon="15.9233829"><ele>841.0</ele><time>2026-04-25T10:40:54.787Z</time></trkpt><trkpt lat="40.0184685" lon="15.9232371"><ele>841.4</ele><time>2026-04-25T10:40:55.785Z</time></trkpt><trkpt lat="40.0184995" lon="15.9230964"><ele>841.8</ele><time>2026-04-25T10:40:56.784Z</time></trkpt><trkpt lat="40.0185464" lon="15.9229652"><ele>842.1999999999999</ele><time>2026-04-25T10:40:57.786Z</time></trkpt><trkpt lat="40.0186035" lon="15.9228461"><ele>842.5999999999999</ele><time>2026-04-25T10:40:58.782Z</time></trkpt><trkpt lat="40.0186624" lon="15.9227354"><ele>843.0</ele><time>2026-04-25T10:40:59.774Z</time></trkpt><trkpt lat="40.0187233" lon="15.9226296"><ele>842.5999999999999</ele><time>2026-04-25T10:41:00.783Z</time></trkpt><trkpt lat="40.0187818" lon="15.9225315"><ele>842.1999999999999</ele><time>2026-04-25T10:41:01.782Z</time></trkpt><trkpt lat="40.0188399" lon="15.9224314"><ele>841.8</ele><time>2026-04-25T10:41:02.778Z</time></trkpt><trkpt lat="40.018897" lon="15.9223276"><ele>841.4</ele><time>2026-04-25T10:41:03.77Z</time></trkpt><trkpt lat="40.0189566" lon="15.9222224"><ele>841.0</ele><time>2026-04-25T10:41:04.787Z</time></trkpt><trkpt lat="40.0190166" lon="15.9221133"><ele>841.0</ele><time>2026-04-25T10:41:05.774Z</time></trkpt><trkpt lat="40.019073" lon="15.9219968"><ele>841.0</ele><time>2026-04-25T10:41:06.777Z</time></trkpt><trkpt lat="40.019119" lon="15.9218716"><ele>841.0</ele><time>2026-04-25T10:41:07.771Z</time></trkpt><trkpt lat="40.0191474" lon="15.9217364"><ele>841.0</ele><time>2026-04-25T10:41:08.775Z</time></trkpt><trkpt lat="40.0191533" lon="15.9215909"><ele>841.0</ele><time>2026-04-25T10:41:09.791Z</time></trkpt><trkpt lat="40.0191358" lon="15.921446"><ele>839.25</ele><time>2026-04-25T10:41:10.777Z</time></trkpt><trkpt lat="40.0190949" lon="15.921305"><ele>837.5</ele><time>2026-04-25T10:41:11.79Z</time></trkpt><trkpt lat="40.019047" lon="15.9211658"><ele>835.75</ele><time>2026-04-25T10:41:12.785Z</time></trkpt><trkpt lat="40.0190049" lon="15.9210201"><ele>834.0</ele><time>2026-04-25T10:41:13.788Z</time></trkpt><trkpt lat="40.0189821" lon="15.9208666"><ele>834.75</ele><time>2026-04-25T10:41:14.778Z</time></trkpt><trkpt lat="40.0189881" lon="15.9207134"><ele>835.5</ele><time>2026-04-25T10:41:15.775Z</time></trkpt><trkpt lat="40.0190253" lon="15.9205633"><ele>836.25</ele><time>2026-04-25T10:41:16.78Z</time></trkpt><trkpt lat="40.0190922" lon="15.9204258"><ele>837.0</ele><time>2026-04-25T10:41:17.773Z</time></trkpt><trkpt lat="40.019179" lon="15.9202975"><ele>837.0</ele><time>2026-04-25T10:41:18.78Z</time></trkpt><trkpt lat="40.0192753" lon="15.9201719"><ele>837.0</ele><time>2026-04-25T10:41:19.786Z</time></trkpt><trkpt lat="40.0193736" lon="15.9200398"><ele>837.0</ele><time>2026-04-25T10:41:20.771Z</time></trkpt><trkpt lat="40.0194721" lon="15.9198991"><ele>837.0</ele><time>2026-04-25T10:41:21.785Z</time></trkpt><trkpt lat="40.019571" lon="15.9197525"><ele>835.25</ele><time>2026-04-25T10:41:22.771Z</time></trkpt><trkpt lat="40.0196638" lon="15.9195968"><ele>833.5</ele><time>2026-04-25T10:41:23.774Z</time></trkpt><trkpt lat="40.0197348" lon="15.9194231"><ele>831.75</ele><time>2026-04-25T10:41:24.781Z</time></trkpt><trkpt lat="40.019766" lon="15.9192407"><ele>830.0</ele><time>2026-04-25T10:41:25.78Z</time></trkpt><trkpt lat="40.019756" lon="15.9190631"><ele>828.5</ele><time>2026-04-25T10:41:26.773Z</time></trkpt><trkpt lat="40.0197099" lon="15.9188956"><ele>827.0</ele><time>2026-04-25T10:41:27.79Z</time></trkpt><trkpt lat="40.019636" lon="15.9187417"><ele>825.5</ele><time>2026-04-25T10:41:28.775Z</time></trkpt><trkpt lat="40.019547" lon="15.9185952"><ele>824.0</ele><time>2026-04-25T10:41:29.778Z</time></trkpt><trkpt lat="40.0194514" lon="15.9184476"><ele>825.0</ele><time>2026-04-25T10:41:30.777Z</time></trkpt><trkpt lat="40.0193526" lon="15.9182941"><ele>826.0</ele><time>2026-04-25T10:41:31.77Z</time></trkpt><trkpt lat="40.0192537" lon="15.9181337"><ele>827.0</ele><time>2026-04-25T10:41:32.782Z</time></trkpt><trkpt lat="40.0191618" lon="15.9179568"><ele>824.0</ele><time>2026-04-25T10:41:33.79Z</time></trkpt><trkpt lat="40.0190868" lon="15.9177615"><ele>821.0</ele><time>2026-04-25T10:41:34.778Z</time></trkpt><trkpt lat="40.019029" lon="15.9175504"><ele>818.0</ele><time>2026-04-25T10:41:35.78Z</time></trkpt><trkpt lat="40.0189847" lon="15.9173248"><ele>818.0</ele><time>2026-04-25T10:41:36.783Z</time></trkpt><trkpt lat="40.0189425" lon="15.9170818"><ele>818.0</ele><time>2026-04-25T10:41:37.783Z</time></trkpt><trkpt lat="40.0188974" lon="15.9168233"><ele>818.0</ele><time>2026-04-25T10:41:38.788Z</time></trkpt><trkpt lat="40.0188491" lon="15.9165654"><ele>818.0</ele><time>2026-04-25T10:41:39.779Z</time></trkpt><trkpt lat="40.0188009" lon="15.9163093"><ele>818.0</ele><time>2026-04-25T10:41:40.783Z</time></trkpt><trkpt lat="40.0187551" lon="15.9160549"><ele>818.0</ele><time>2026-04-25T10:41:41.787Z</time></trkpt><trkpt lat="40.0187115" lon="15.9158025"><ele>817.6666666666667</ele><time>2026-04-25T10:41:42.783Z</time></trkpt><trkpt lat="40.0186753" lon="15.9155502"><ele>817.3333333333333</ele><time>2026-04-25T10:41:43.782Z</time></trkpt><trkpt lat="40.018651" lon="15.9152978"><ele>817.0</ele><time>2026-04-25T10:41:44.775Z</time></trkpt><trkpt lat="40.0186407" lon="15.9150456"><ele>816.0</ele><time>2026-04-25T10:41:45.776Z</time></trkpt><trkpt lat="40.0186394" lon="15.914794"><ele>815.0</ele><time>2026-04-25T10:41:46.774Z</time></trkpt><trkpt lat="40.0186432" lon="15.9145421"><ele>814.0</ele><time>2026-04-25T10:41:47.771Z</time></trkpt><trkpt lat="40.0186497" lon="15.9142891"><ele>813.3333333333333</ele><time>2026-04-25T10:41:48.781Z</time></trkpt><trkpt lat="40.0186563" lon="15.9140342"><ele>812.6666666666667</ele><time>2026-04-25T10:41:49.788Z</time></trkpt><trkpt lat="40.0186619" lon="15.9137792"><ele>812.0</ele><time>2026-04-25T10:41:50.775Z</time></trkpt><trkpt lat="40.018668" lon="15.9135233"><ele>810.3333333333334</ele><time>2026-04-25T10:41:51.771Z</time></trkpt><trkpt lat="40.0186737" lon="15.9132674"><ele>808.6666666666667</ele><time>2026-04-25T10:41:52.78Z</time></trkpt><trkpt lat="40.018678" lon="15.9130115"><ele>807.0</ele><time>2026-04-25T10:41:53.782Z</time></trkpt><trkpt lat="40.0186825" lon="15.9127569"><ele>806.0</ele><time>2026-04-25T10:41:54.776Z</time></trkpt><trkpt lat="40.0186891" lon="15.9125036"><ele>805.0</ele><time>2026-04-25T10:41:55.78Z</time></trkpt><trkpt lat="40.0186974" lon="15.9122519"><ele>804.0</ele><time>2026-04-25T10:41:56.779Z</time></trkpt><trkpt lat="40.0187056" lon="15.9119994"><ele>804.0</ele><time>2026-04-25T10:41:57.775Z</time></trkpt><trkpt lat="40.0187137" lon="15.9117448"><ele>804.0</ele><time>2026-04-25T10:41:58.77Z</time></trkpt><trkpt lat="40.0187239" lon="15.9114868"><ele>804.0</ele><time>2026-04-25T10:41:59.78Z</time></trkpt><trkpt lat="40.0187352" lon="15.9112252"><ele>802.6666666666667</ele><time>2026-04-25T10:42:00.778Z</time></trkpt><trkpt lat="40.018746" lon="15.9109602"><ele>801.3333333333334</ele><time>2026-04-25T10:42:01.776Z</time></trkpt><trkpt lat="40.0187567" lon="15.9106927"><ele>800.0</ele><time>2026-04-25T10:42:02.775Z</time></trkpt><trkpt lat="40.0187671" lon="15.9104222"><ele>798.3333333333334</ele><time>2026-04-25T10:42:03.783Z</time></trkpt><trkpt lat="40.0187799" lon="15.9101502"><ele>796.6666666666667</ele><time>2026-04-25T10:42:04.775Z</time></trkpt><trkpt lat="40.0187954" lon="15.9098771"><ele>795.0</ele><time>2026-04-25T10:42:05.788Z</time></trkpt><trkpt lat="40.0188117" lon="15.9096051"><ele>793.6666666666667</ele><time>2026-04-25T10:42:06.77Z</time></trkpt><trkpt lat="40.0188258" lon="15.9093333"><ele>792.3333333333334</ele><time>2026-04-25T10:42:07.78Z</time></trkpt><trkpt lat="40.0188387" lon="15.9090637"><ele>791.0</ele><time>2026-04-25T10:42:08.775Z</time></trkpt><trkpt lat="40.0188556" lon="15.9087985"><ele>789.6666666666667</ele><time>2026-04-25T10:42:09.779Z</time></trkpt><trkpt lat="40.0188733" lon="15.9085374"><ele>788.3333333333333</ele><time>2026-04-25T10:42:10.781Z</time></trkpt><trkpt lat="40.0188928" lon="15.9082784"><ele>787.0</ele><time>2026-04-25T10:42:11.779Z</time></trkpt><trkpt lat="40.0189184" lon="15.9080234"><ele>785.3333333333333</ele><time>2026-04-25T10:42:12.779Z</time></trkpt><trkpt lat="40.0189493" lon="15.9077676"><ele>783.6666666666667</ele><time>2026-04-25T10:42:13.784Z</time></trkpt><trkpt lat="40.0189853" lon="15.907511"><ele>782.0</ele><time>2026-04-25T10:42:14.786Z</time></trkpt><trkpt lat="40.0190295" lon="15.907253"><ele>782.3333333333334</ele><time>2026-04-25T10:42:15.788Z</time></trkpt><trkpt lat="40.0190795" lon="15.9069954"><ele>782.6666666666667</ele><time>2026-04-25T10:42:16.782Z</time></trkpt><trkpt lat="40.0191325" lon="15.9067393"><ele>783.0</ele><time>2026-04-25T10:42:17.773Z</time></trkpt><trkpt lat="40.0191872" lon="15.9064855"><ele>783.0</ele><time>2026-04-25T10:42:18.783Z</time></trkpt><trkpt lat="40.0192424" lon="15.9062322"><ele>783.0</ele><time>2026-04-25T10:42:19.786Z</time></trkpt><trkpt lat="40.019297" lon="15.9059792"><ele>783.0</ele><time>2026-04-25T10:42:20.781Z</time></trkpt><trkpt lat="40.0193512" lon="15.905726"><ele>781.3333333333333</ele><time>2026-04-25T10:42:21.779Z</time></trkpt><trkpt lat="40.0194042" lon="15.9054728"><ele>779.6666666666666</ele><time>2026-04-25T10:42:22.778Z</time></trkpt><trkpt lat="40.0194531" lon="15.9052177"><ele>778.0</ele><time>2026-04-25T10:42:23.79Z</time></trkpt><trkpt lat="40.0194985" lon="15.9049604"><ele>777.3333333333333</ele><time>2026-04-25T10:42:24.778Z</time></trkpt><trkpt lat="40.0195418" lon="15.9047019"><ele>776.6666666666667</ele><time>2026-04-25T10:42:25.78Z</time></trkpt><trkpt lat="40.0195846" lon="15.9044432"><ele>776.0</ele><time>2026-04-25T10:42:26.77Z</time></trkpt><trkpt lat="40.0196272" lon="15.9041841"><ele>775.0</ele><time>2026-04-25T10:42:27.783Z</time></trkpt><trkpt lat="40.019669" lon="15.9039242"><ele>774.0</ele><time>2026-04-25T10:42:28.779Z</time></trkpt><trkpt lat="40.0197096" lon="15.9036639"><ele>773.0</ele><time>2026-04-25T10:42:29.778Z</time></trkpt><trkpt lat="40.0197505" lon="15.903405"><ele>771.6666666666667</ele><time>2026-04-25T10:42:30.779Z</time></trkpt><trkpt lat="40.0197925" lon="15.9031467"><ele>770.3333333333333</ele><time>2026-04-25T10:42:31.784Z</time></trkpt><trkpt lat="40.0198338" lon="15.9028881"><ele>769.0</ele><time>2026-04-25T10:42:32.786Z</time></trkpt><trkpt lat="40.0198732" lon="15.902629"><ele>768.3333333333333</ele><time>2026-04-25T10:42:33.782Z</time></trkpt><trkpt lat="40.0199121" lon="15.9023709"><ele>767.6666666666666</ele><time>2026-04-25T10:42:34.774Z</time></trkpt><trkpt lat="40.0199512" lon="15.9021142"><ele>767.0</ele><time>2026-04-25T10:42:35.782Z</time></trkpt><trkpt lat="40.0199912" lon="15.9018598"><ele>765.3333333333333</ele><time>2026-04-25T10:42:36.775Z</time></trkpt><trkpt lat="40.0200319" lon="15.901621"><ele>763.6666666666666</ele><time>2026-04-25T10:42:37.784Z</time></trkpt><trkpt lat="40.020071" lon="15.9013772"><ele>762.0</ele><time>2026-04-25T10:42:38.777Z</time></trkpt><trkpt lat="40.0201154" lon="15.901132"><ele>760.6666666666666</ele><time>2026-04-25T10:42:39.787Z</time></trkpt><trkpt lat="40.0201589" lon="15.9008817"><ele>759.3333333333333</ele><time>2026-04-25T10:42:40.786Z</time></trkpt><trkpt lat="40.0202009" lon="15.9006324"><ele>758.0</ele><time>2026-04-25T10:42:41.775Z</time></trkpt><trkpt lat="40.0202428" lon="15.9003881"><ele>758.0</ele><time>2026-04-25T10:42:42.776Z</time></trkpt><trkpt lat="40.0202856" lon="15.900149"><ele>758.0</ele><time>2026-04-25T10:42:43.778Z</time></trkpt><trkpt lat="40.0203239" lon="15.8999083"><ele>758.0</ele><time>2026-04-25T10:42:44.783Z</time></trkpt><trkpt lat="40.0203598" lon="15.8996673"><ele>756.3333333333333</ele><time>2026-04-25T10:42:45.777Z</time></trkpt><trkpt lat="40.0203994" lon="15.8994271"><ele>754.6666666666666</ele><time>2026-04-25T10:42:46.771Z</time></trkpt><trkpt lat="40.0204422" lon="15.8991918"><ele>753.0</ele><time>2026-04-25T10:42:47.782Z</time></trkpt><trkpt lat="40.0204852" lon="15.8989589"><ele>751.3333333333334</ele><time>2026-04-25T10:42:48.784Z</time></trkpt><trkpt lat="40.0205252" lon="15.8987292"><ele>749.6666666666667</ele><time>2026-04-25T10:42:49.78Z</time></trkpt><trkpt lat="40.0205651" lon="15.8985041"><ele>748.0</ele><time>2026-04-25T10:42:50.79Z</time></trkpt><trkpt lat="40.0206066" lon="15.8982886"><ele>747.0</ele><time>2026-04-25T10:42:51.782Z</time></trkpt><trkpt lat="40.0206465" lon="15.8980807"><ele>746.0</ele><time>2026-04-25T10:42:52.781Z</time></trkpt><trkpt lat="40.0206848" lon="15.8978831"><ele>745.0</ele><time>2026-04-25T10:42:53.782Z</time></trkpt><trkpt lat="40.0207179" lon="15.8977016"><ele>744.6</ele><time>2026-04-25T10:42:54.781Z</time></trkpt><trkpt lat="40.020748" lon="15.897536"><ele>744.2</ele><time>2026-04-25T10:42:55.774Z</time></trkpt><trkpt lat="40.0207773" lon="15.8973849"><ele>743.8</ele><time>2026-04-25T10:42:56.771Z</time></trkpt><trkpt lat="40.0208119" lon="15.897255"><ele>743.4</ele><time>2026-04-25T10:42:57.778Z</time></trkpt><trkpt lat="40.020858" lon="15.8971517"><ele>743.0</ele><time>2026-04-25T10:42:58.781Z</time></trkpt><trkpt lat="40.0209052" lon="15.8970733"><ele>743.0</ele><time>2026-04-25T10:42:59.769Z</time></trkpt><trkpt lat="40.0209435" lon="15.8970055"><ele>743.0</ele><time>2026-04-25T10:43:00.785Z</time></trkpt><trkpt lat="40.0209672" lon="15.8968478"><ele>743.0</ele><time>2026-04-25T10:43:02.777Z</time></trkpt><trkpt lat="40.020951" lon="15.8967576"><ele>743.0</ele><time>2026-04-25T10:43:03.781Z</time></trkpt><trkpt lat="40.0209327" lon="15.8966589"><ele>743.0</ele><time>2026-04-25T10:43:04.774Z</time></trkpt><trkpt lat="40.0209283" lon="15.8965488"><ele>743.0</ele><time>2026-04-25T10:43:05.804Z</time></trkpt><trkpt lat="40.02094" lon="15.8964243"><ele>742.5</ele><time>2026-04-25T10:43:06.778Z</time></trkpt><trkpt lat="40.0209619" lon="15.8962844"><ele>742.0</ele><time>2026-04-25T10:43:07.773Z</time></trkpt><trkpt lat="40.0209884" lon="15.8961252"><ele>741.5</ele><time>2026-04-25T10:43:08.784Z</time></trkpt><trkpt lat="40.0210162" lon="15.8959468"><ele>741.0</ele><time>2026-04-25T10:43:09.784Z</time></trkpt><trkpt lat="40.0210428" lon="15.8957577"><ele>740.0</ele><time>2026-04-25T10:43:10.79Z</time></trkpt><trkpt lat="40.021067" lon="15.8955655"><ele>739.0</ele><time>2026-04-25T10:43:11.794Z</time></trkpt><trkpt lat="40.0210892" lon="15.8953689"><ele>738.0</ele><time>2026-04-25T10:43:12.787Z</time></trkpt><trkpt lat="40.0211091" lon="15.8951663"><ele>737.3333333333334</ele><time>2026-04-25T10:43:13.796Z</time></trkpt><trkpt lat="40.021128" lon="15.89496"><ele>736.6666666666667</ele><time>2026-04-25T10:43:14.787Z</time></trkpt><trkpt lat="40.0211465" lon="15.894752"><ele>736.0</ele><time>2026-04-25T10:43:15.772Z</time></trkpt><trkpt lat="40.0211638" lon="15.8945437"><ele>736.0</ele><time>2026-04-25T10:43:16.776Z</time></trkpt><trkpt lat="40.0211803" lon="15.8943373"><ele>736.0</ele><time>2026-04-25T10:43:17.784Z</time></trkpt><trkpt lat="40.0211961" lon="15.8941343"><ele>736.0</ele><time>2026-04-25T10:43:18.796Z</time></trkpt><trkpt lat="40.0212125" lon="15.8939356"><ele>735.25</ele><time>2026-04-25T10:43:19.778Z</time></trkpt><trkpt lat="40.0212287" lon="15.8937401"><ele>734.5</ele><time>2026-04-25T10:43:20.774Z</time></trkpt><trkpt lat="40.0212438" lon="15.893548"><ele>733.75</ele><time>2026-04-25T10:43:21.779Z</time></trkpt><trkpt lat="40.0212571" lon="15.8933587"><ele>733.0</ele><time>2026-04-25T10:43:22.771Z</time></trkpt><trkpt lat="40.0212733" lon="15.8931742"><ele>732.5</ele><time>2026-04-25T10:43:23.778Z</time></trkpt><trkpt lat="40.0212947" lon="15.8929935"><ele>732.0</ele><time>2026-04-25T10:43:24.774Z</time></trkpt><trkpt lat="40.0213219" lon="15.8928157"><ele>731.5</ele><time>2026-04-25T10:43:25.772Z</time></trkpt><trkpt lat="40.0213535" lon="15.8926375"><ele>731.0</ele><time>2026-04-25T10:43:26.776Z</time></trkpt><trkpt lat="40.0213873" lon="15.8924554"><ele>731.0</ele><time>2026-04-25T10:43:27.778Z</time></trkpt><trkpt lat="40.0214192" lon="15.8922674"><ele>731.0</ele><time>2026-04-25T10:43:28.773Z</time></trkpt><trkpt lat="40.0214481" lon="15.8920742"><ele>731.0</ele><time>2026-04-25T10:43:29.772Z</time></trkpt><trkpt lat="40.0214784" lon="15.8918781"><ele>730.0</ele><time>2026-04-25T10:43:30.777Z</time></trkpt><trkpt lat="40.0215097" lon="15.8916793"><ele>729.0</ele><time>2026-04-25T10:43:31.779Z</time></trkpt><trkpt lat="40.0215355" lon="15.8914777"><ele>728.0</ele><time>2026-04-25T10:43:32.782Z</time></trkpt><trkpt lat="40.0215473" lon="15.8912726"><ele>728.0</ele><time>2026-04-25T10:43:33.781Z</time></trkpt><trkpt lat="40.0215424" lon="15.8910631"><ele>728.0</ele><time>2026-04-25T10:43:34.781Z</time></trkpt><trkpt lat="40.0215239" lon="15.8908499"><ele>728.0</ele><time>2026-04-25T10:43:35.778Z</time></trkpt><trkpt lat="40.0214996" lon="15.8906322"><ele>728.0</ele><time>2026-04-25T10:43:36.776Z</time></trkpt><trkpt lat="40.0214739" lon="15.8904113"><ele>728.0</ele><time>2026-04-25T10:43:37.783Z</time></trkpt><trkpt lat="40.021448" lon="15.8901886"><ele>728.0</ele><time>2026-04-25T10:43:38.781Z</time></trkpt><trkpt lat="40.0214201" lon="15.8899658"><ele>728.0</ele><time>2026-04-25T10:43:39.795Z</time></trkpt><trkpt lat="40.021392" lon="15.8897451"><ele>728.0</ele><time>2026-04-25T10:43:40.777Z</time></trkpt><trkpt lat="40.0213652" lon="15.8895263"><ele>728.0</ele><time>2026-04-25T10:43:41.775Z</time></trkpt><trkpt lat="40.0213367" lon="15.8893106"><ele>727.6666666666666</ele><time>2026-04-25T10:43:42.779Z</time></trkpt><trkpt lat="40.0213037" lon="15.8890968"><ele>727.3333333333334</ele><time>2026-04-25T10:43:43.774Z</time></trkpt><trkpt lat="40.0212615" lon="15.8888839"><ele>727.0</ele><time>2026-04-25T10:43:44.782Z</time></trkpt><trkpt lat="40.0212082" lon="15.8886738"><ele>727.0</ele><time>2026-04-25T10:43:45.783Z</time></trkpt><trkpt lat="40.021145" lon="15.8884697"><ele>727.0</ele><time>2026-04-25T10:43:46.774Z</time></trkpt><trkpt lat="40.021078" lon="15.8882678"><ele>727.0</ele><time>2026-04-25T10:43:47.785Z</time></trkpt><trkpt lat="40.021013" lon="15.888076"><ele>727.3333333333334</ele><time>2026-04-25T10:43:48.776Z</time></trkpt><trkpt lat="40.0209355" lon="15.8878895"><ele>727.6666666666666</ele><time>2026-04-25T10:43:49.777Z</time></trkpt><trkpt lat="40.0208707" lon="15.8877023"><ele>728.0</ele><time>2026-04-25T10:43:50.781Z</time></trkpt><trkpt lat="40.0208034" lon="15.8875184"><ele>728.0</ele><time>2026-04-25T10:43:51.781Z</time></trkpt><trkpt lat="40.0207373" lon="15.8873342"><ele>728.0</ele><time>2026-04-25T10:43:52.778Z</time></trkpt><trkpt lat="40.0206735" lon="15.8871528"><ele>728.0</ele><time>2026-04-25T10:43:53.785Z</time></trkpt><trkpt lat="40.0206102" lon="15.8869743"><ele>728.0</ele><time>2026-04-25T10:43:54.779Z</time></trkpt><trkpt lat="40.020545" lon="15.8867933"><ele>728.0</ele><time>2026-04-25T10:43:55.778Z</time></trkpt><trkpt lat="40.0204819" lon="15.8866165"><ele>728.0</ele><time>2026-04-25T10:43:56.779Z</time></trkpt><trkpt lat="40.020424" lon="15.8864401"><ele>728.0</ele><time>2026-04-25T10:43:57.783Z</time></trkpt><trkpt lat="40.0203659" lon="15.886271"><ele>728.0</ele><time>2026-04-25T10:43:58.774Z</time></trkpt><trkpt lat="40.020307" lon="15.8861058"><ele>728.0</ele><time>2026-04-25T10:43:59.777Z</time></trkpt><trkpt lat="40.0202533" lon="15.8859384"><ele>728.0</ele><time>2026-04-25T10:44:00.772Z</time></trkpt><trkpt lat="40.0202044" lon="15.8857657"><ele>728.5</ele><time>2026-04-25T10:44:01.78Z</time></trkpt><trkpt lat="40.0201563" lon="15.8855868"><ele>729.0</ele><time>2026-04-25T10:44:02.78Z</time></trkpt><trkpt lat="40.0201157" lon="15.8854024"><ele>729.5</ele><time>2026-04-25T10:44:03.773Z</time></trkpt><trkpt lat="40.0200827" lon="15.8852124"><ele>730.0</ele><time>2026-04-25T10:44:04.78Z</time></trkpt><trkpt lat="40.0200597" lon="15.8850148"><ele>731.3333333333334</ele><time>2026-04-25T10:44:05.773Z</time></trkpt><trkpt lat="40.0200419" lon="15.884809"><ele>732.6666666666666</ele><time>2026-04-25T10:44:06.777Z</time></trkpt><trkpt lat="40.0200285" lon="15.8845952"><ele>734.0</ele><time>2026-04-25T10:44:07.792Z</time></trkpt><trkpt lat="40.0200163" lon="15.8843713"><ele>734.6666666666666</ele><time>2026-04-25T10:44:08.777Z</time></trkpt><trkpt lat="40.02" lon="15.8841392"><ele>735.3333333333334</ele><time>2026-04-25T10:44:09.782Z</time></trkpt><trkpt lat="40.0199816" lon="15.8838996"><ele>736.0</ele><time>2026-04-25T10:44:10.788Z</time></trkpt><trkpt lat="40.0199641" lon="15.8836542"><ele>734.6666666666667</ele><time>2026-04-25T10:44:11.796Z</time></trkpt><trkpt lat="40.0199469" lon="15.8834045"><ele>733.3333333333334</ele><time>2026-04-25T10:44:12.777Z</time></trkpt><trkpt lat="40.0199324" lon="15.8831613"><ele>732.0</ele><time>2026-04-25T10:44:13.788Z</time></trkpt><trkpt lat="40.0199055" lon="15.882934"><ele>732.0</ele><time>2026-04-25T10:44:14.781Z</time></trkpt><trkpt lat="40.0198987" lon="15.8826982"><ele>732.0</ele><time>2026-04-25T10:44:15.784Z</time></trkpt><trkpt lat="40.0198941" lon="15.8825047"><ele>732.0</ele><time>2026-04-25T10:44:16.784Z</time></trkpt><trkpt lat="40.0198805" lon="15.8823018"><ele>734.3333333333334</ele><time>2026-04-25T10:44:17.778Z</time></trkpt><trkpt lat="40.0198777" lon="15.8821006"><ele>736.6666666666667</ele><time>2026-04-25T10:44:18.774Z</time></trkpt><trkpt lat="40.0199096" lon="15.881899"><ele>739.0</ele><time>2026-04-25T10:44:19.781Z</time></trkpt><trkpt lat="40.0199736" lon="15.8816985"><ele>737.6666666666667</ele><time>2026-04-25T10:44:20.777Z</time></trkpt><trkpt lat="40.0200562" lon="15.8815047"><ele>736.3333333333334</ele><time>2026-04-25T10:44:21.775Z</time></trkpt><trkpt lat="40.0201466" lon="15.8813123"><ele>735.0</ele><time>2026-04-25T10:44:22.78Z</time></trkpt><trkpt lat="40.0202377" lon="15.8811185"><ele>735.3333333333334</ele><time>2026-04-25T10:44:23.776Z</time></trkpt><trkpt lat="40.0203327" lon="15.8809235"><ele>735.6666666666667</ele><time>2026-04-25T10:44:24.786Z</time></trkpt><trkpt lat="40.0204317" lon="15.8807188"><ele>736.0</ele><time>2026-04-25T10:44:25.779Z</time></trkpt><trkpt lat="40.0205305" lon="15.8805129"><ele>736.0</ele><time>2026-04-25T10:44:26.788Z</time></trkpt><trkpt lat="40.020625" lon="15.8803117"><ele>736.0</ele><time>2026-04-25T10:44:27.784Z</time></trkpt><trkpt lat="40.0207184" lon="15.8801126"><ele>736.0</ele><time>2026-04-25T10:44:28.784Z</time></trkpt><trkpt lat="40.0208125" lon="15.879915"><ele>737.6666666666667</ele><time>2026-04-25T10:44:29.774Z</time></trkpt><trkpt lat="40.020905" lon="15.8797225"><ele>739.3333333333334</ele><time>2026-04-25T10:44:30.78Z</time></trkpt><trkpt lat="40.0209963" lon="15.8795306"><ele>741.0</ele><time>2026-04-25T10:44:31.769Z</time></trkpt><trkpt lat="40.0210865" lon="15.8793369"><ele>743.6666666666666</ele><time>2026-04-25T10:44:32.773Z</time></trkpt><trkpt lat="40.0211781" lon="15.8791435"><ele>746.3333333333333</ele><time>2026-04-25T10:44:33.786Z</time></trkpt><trkpt lat="40.0212709" lon="15.8789502"><ele>749.0</ele><time>2026-04-25T10:44:34.777Z</time></trkpt><trkpt lat="40.021362" lon="15.8787594"><ele>749.0</ele><time>2026-04-25T10:44:35.785Z</time></trkpt><trkpt lat="40.0214517" lon="15.8785697"><ele>749.0</ele><time>2026-04-25T10:44:36.788Z</time></trkpt><trkpt lat="40.0215408" lon="15.8783868"><ele>749.0</ele><time>2026-04-25T10:44:37.77Z</time></trkpt><trkpt lat="40.0216297" lon="15.8782111"><ele>753.3333333333333</ele><time>2026-04-25T10:44:38.775Z</time></trkpt><trkpt lat="40.0217199" lon="15.8780383"><ele>757.6666666666666</ele><time>2026-04-25T10:44:39.785Z</time></trkpt><trkpt lat="40.0218155" lon="15.8778703"><ele>762.0</ele><time>2026-04-25T10:44:40.777Z</time></trkpt><trkpt lat="40.0219183" lon="15.8777121"><ele>765.3333333333333</ele><time>2026-04-25T10:44:41.78Z</time></trkpt><trkpt lat="40.0220231" lon="15.8775592"><ele>768.6666666666666</ele><time>2026-04-25T10:44:42.78Z</time></trkpt><trkpt lat="40.0221216" lon="15.8774005"><ele>772.0</ele><time>2026-04-25T10:44:43.777Z</time></trkpt><trkpt lat="40.0222135" lon="15.8772337"><ele>772.0</ele><time>2026-04-25T10:44:44.777Z</time></trkpt><trkpt lat="40.0223019" lon="15.8770624"><ele>772.0</ele><time>2026-04-25T10:44:45.775Z</time></trkpt><trkpt lat="40.0223874" lon="15.876888"><ele>772.0</ele><time>2026-04-25T10:44:46.778Z</time></trkpt><trkpt lat="40.0224719" lon="15.8767094"><ele>765.3333333333333</ele><time>2026-04-25T10:44:47.772Z</time></trkpt><trkpt lat="40.0225534" lon="15.8765253"><ele>758.6666666666666</ele><time>2026-04-25T10:44:48.781Z</time></trkpt><trkpt lat="40.0226295" lon="15.8763337"><ele>752.0</ele><time>2026-04-25T10:44:49.773Z</time></trkpt><trkpt lat="40.0226947" lon="15.8761308"><ele>756.0</ele><time>2026-04-25T10:44:50.78Z</time></trkpt><trkpt lat="40.0227514" lon="15.8759204"><ele>760.0</ele><time>2026-04-25T10:44:51.774Z</time></trkpt><trkpt lat="40.0228012" lon="15.8756993"><ele>764.0</ele><time>2026-04-25T10:44:52.767Z</time></trkpt><trkpt lat="40.0228387" lon="15.8754705"><ele>764.0</ele><time>2026-04-25T10:44:53.771Z</time></trkpt><trkpt lat="40.0228657" lon="15.8752376"><ele>764.0</ele><time>2026-04-25T10:44:54.766Z</time></trkpt><trkpt lat="40.0228843" lon="15.8750018"><ele>764.0</ele><time>2026-04-25T10:44:55.771Z</time></trkpt><trkpt lat="40.0228983" lon="15.8747647"><ele>765.3333333333333</ele><time>2026-04-25T10:44:56.779Z</time></trkpt><trkpt lat="40.0229125" lon="15.8745265"><ele>766.6666666666666</ele><time>2026-04-25T10:44:57.786Z</time></trkpt><trkpt lat="40.0229272" lon="15.8742879"><ele>768.0</ele><time>2026-04-25T10:44:58.771Z</time></trkpt><trkpt lat="40.0229453" lon="15.8740503"><ele>769.0</ele><time>2026-04-25T10:44:59.774Z</time></trkpt><trkpt lat="40.0229653" lon="15.8738165"><ele>770.0</ele><time>2026-04-25T10:45:00.779Z</time></trkpt><trkpt lat="40.0229761" lon="15.8735796"><ele>771.0</ele><time>2026-04-25T10:45:01.775Z</time></trkpt><trkpt lat="40.0229891" lon="15.8733533"><ele>776.3333333333333</ele><time>2026-04-25T10:45:02.769Z</time></trkpt><trkpt lat="40.0230117" lon="15.8731315"><ele>781.6666666666666</ele><time>2026-04-25T10:45:03.777Z</time></trkpt><trkpt lat="40.0230533" lon="15.8729146"><ele>787.0</ele><time>2026-04-25T10:45:04.766Z</time></trkpt><trkpt lat="40.0231188" lon="15.8727074"><ele>791.6666666666666</ele><time>2026-04-25T10:45:05.774Z</time></trkpt><trkpt lat="40.0232003" lon="15.8725173"><ele>796.3333333333333</ele><time>2026-04-25T10:45:06.781Z</time></trkpt><trkpt lat="40.023285" lon="15.8723437"><ele>801.0</ele><time>2026-04-25T10:45:07.775Z</time></trkpt><trkpt lat="40.0233662" lon="15.8721782"><ele>789.5</ele><time>2026-04-25T10:45:08.774Z</time></trkpt><trkpt lat="40.0234418" lon="15.8720189"><ele>778.0</ele><time>2026-04-25T10:45:09.782Z</time></trkpt><trkpt lat="40.0235125" lon="15.8718672"><ele>766.5</ele><time>2026-04-25T10:45:10.77Z</time></trkpt><trkpt lat="40.0235813" lon="15.8717194"><ele>755.0</ele><time>2026-04-25T10:45:11.778Z</time></trkpt><trkpt lat="40.0236456" lon="15.8715722"><ele>755.0</ele><time>2026-04-25T10:45:12.764Z</time></trkpt><trkpt lat="40.0237057" lon="15.8714241"><ele>755.0</ele><time>2026-04-25T10:45:13.779Z</time></trkpt><trkpt lat="40.0237615" lon="15.8712649"><ele>755.0</ele><time>2026-04-25T10:45:14.775Z</time></trkpt><trkpt lat="40.0238169" lon="15.8710942"><ele>755.0</ele><time>2026-04-25T10:45:15.785Z</time></trkpt><trkpt lat="40.0238721" lon="15.8709115"><ele>759.0</ele><time>2026-04-25T10:45:16.778Z</time></trkpt><trkpt lat="40.0239249" lon="15.8707217"><ele>763.0</ele><time>2026-04-25T10:45:17.773Z</time></trkpt><trkpt lat="40.0239824" lon="15.8705346"><ele>767.0</ele><time>2026-04-25T10:45:18.773Z</time></trkpt><trkpt lat="40.0240605" lon="15.8703642"><ele>759.75</ele><time>2026-04-25T10:45:19.77Z</time></trkpt><trkpt lat="40.0241599" lon="15.8702213"><ele>752.5</ele><time>2026-04-25T10:45:20.767Z</time></trkpt><trkpt lat="40.0242755" lon="15.8700978"><ele>745.25</ele><time>2026-04-25T10:45:21.775Z</time></trkpt><trkpt lat="40.0243868" lon="15.869969"><ele>738.0</ele><time>2026-04-25T10:45:22.772Z</time></trkpt><trkpt lat="40.0244937" lon="15.8698255"><ele>738.0</ele><time>2026-04-25T10:45:23.771Z</time></trkpt><trkpt lat="40.0246003" lon="15.8696787"><ele>738.0</ele><time>2026-04-25T10:45:24.773Z</time></trkpt><trkpt lat="40.0247098" lon="15.8695293"><ele>738.0</ele><time>2026-04-25T10:45:25.78Z</time></trkpt><trkpt lat="40.0248212" lon="15.8693766"><ele>734.6666666666666</ele><time>2026-04-25T10:45:26.775Z</time></trkpt><trkpt lat="40.0249322" lon="15.8692245"><ele>731.3333333333333</ele><time>2026-04-25T10:45:27.781Z</time></trkpt><trkpt lat="40.0250421" lon="15.8690736"><ele>728.0</ele><time>2026-04-25T10:45:28.776Z</time></trkpt><trkpt lat="40.0251482" lon="15.8689149"><ele>728.0</ele><time>2026-04-25T10:45:29.771Z</time></trkpt><trkpt lat="40.0252431" lon="15.8687425"><ele>728.0</ele><time>2026-04-25T10:45:30.767Z</time></trkpt><trkpt lat="40.025323" lon="15.8685532"><ele>728.0</ele><time>2026-04-25T10:45:31.784Z</time></trkpt><trkpt lat="40.0253893" lon="15.8683526"><ele>730.6666666666666</ele><time>2026-04-25T10:45:32.772Z</time></trkpt><trkpt lat="40.0254518" lon="15.8681515"><ele>733.3333333333334</ele><time>2026-04-25T10:45:33.791Z</time></trkpt><trkpt lat="40.0255191" lon="15.8679716"><ele>736.0</ele><time>2026-04-25T10:45:34.775Z</time></trkpt><trkpt lat="40.0256019" lon="15.8678059"><ele>736.0</ele><time>2026-04-25T10:45:35.782Z</time></trkpt><trkpt lat="40.0257032" lon="15.8676578"><ele>736.0</ele><time>2026-04-25T10:45:36.776Z</time></trkpt><trkpt lat="40.0258286" lon="15.8675361"><ele>736.0</ele><time>2026-04-25T10:45:37.783Z</time></trkpt><trkpt lat="40.0259641" lon="15.8674283"><ele>733.0</ele><time>2026-04-25T10:45:38.779Z</time></trkpt><trkpt lat="40.0261068" lon="15.8673137"><ele>730.0</ele><time>2026-04-25T10:45:39.783Z</time></trkpt><trkpt lat="40.0262561" lon="15.8671901"><ele>727.0</ele><time>2026-04-25T10:45:40.772Z</time></trkpt><trkpt lat="40.0264084" lon="15.8670692"><ele>727.0</ele><time>2026-04-25T10:45:41.781Z</time></trkpt><trkpt lat="40.0265572" lon="15.8669519"><ele>727.0</ele><time>2026-04-25T10:45:42.774Z</time></trkpt><trkpt lat="40.0266981" lon="15.8668415"><ele>727.0</ele><time>2026-04-25T10:45:43.778Z</time></trkpt><trkpt lat="40.0268302" lon="15.8667403"><ele>726.25</ele><time>2026-04-25T10:45:44.776Z</time></trkpt><trkpt lat="40.0269599" lon="15.8666594"><ele>725.5</ele><time>2026-04-25T10:45:45.787Z</time></trkpt><trkpt lat="40.0270854" lon="15.8666065"><ele>724.75</ele><time>2026-04-25T10:45:46.78Z</time></trkpt><trkpt lat="40.0272088" lon="15.8665854"><ele>724.0</ele><time>2026-04-25T10:45:47.778Z</time></trkpt><trkpt lat="40.0273271" lon="15.8665776"><ele>724.0</ele><time>2026-04-25T10:45:48.773Z</time></trkpt><trkpt lat="40.0274354" lon="15.8665642"><ele>724.0</ele><time>2026-04-25T10:45:49.782Z</time></trkpt><trkpt lat="40.0275386" lon="15.866534"><ele>724.0</ele><time>2026-04-25T10:45:50.783Z</time></trkpt><trkpt lat="40.027636" lon="15.866486"><ele>724.0</ele><time>2026-04-25T10:45:51.775Z</time></trkpt><trkpt lat="40.0277285" lon="15.866407"><ele>724.0</ele><time>2026-04-25T10:45:52.775Z</time></trkpt><trkpt lat="40.0278125" lon="15.8662901"><ele>723.5</ele><time>2026-04-25T10:45:53.775Z</time></trkpt><trkpt lat="40.0278835" lon="15.8661415"><ele>723.0</ele><time>2026-04-25T10:45:54.774Z</time></trkpt><trkpt lat="40.0279412" lon="15.8659689"><ele>722.5</ele><time>2026-04-25T10:45:55.774Z</time></trkpt><trkpt lat="40.0279939" lon="15.865785"><ele>722.0</ele><time>2026-04-25T10:45:56.77Z</time></trkpt><trkpt lat="40.028048" lon="15.8655968"><ele>722.0</ele><time>2026-04-25T10:45:57.786Z</time></trkpt><trkpt lat="40.0281041" lon="15.8654066"><ele>722.0</ele><time>2026-04-25T10:45:58.777Z</time></trkpt><trkpt lat="40.0281613" lon="15.8652185"><ele>722.0</ele><time>2026-04-25T10:45:59.783Z</time></trkpt><trkpt lat="40.0282243" lon="15.8650438"><ele>723.0</ele><time>2026-04-25T10:46:00.775Z</time></trkpt><trkpt lat="40.0283017" lon="15.8648926"><ele>724.0</ele><time>2026-04-25T10:46:01.778Z</time></trkpt><trkpt lat="40.0283948" lon="15.8647738"><ele>725.0</ele><time>2026-04-25T10:46:02.783Z</time></trkpt><trkpt lat="40.028501" lon="15.8646946"><ele>726.0</ele><time>2026-04-25T10:46:03.784Z</time></trkpt><trkpt lat="40.0286128" lon="15.8646346"><ele>722.0</ele><time>2026-04-25T10:46:04.777Z</time></trkpt><trkpt lat="40.0287342" lon="15.8645811"><ele>718.0</ele><time>2026-04-25T10:46:05.784Z</time></trkpt><trkpt lat="40.0288634" lon="15.8645306"><ele>714.0</ele><time>2026-04-25T10:46:06.804Z</time></trkpt><trkpt lat="40.0289986" lon="15.8644774"><ele>710.0</ele><time>2026-04-25T10:46:07.787Z</time></trkpt><trkpt lat="40.0291384" lon="15.8644223"><ele>709.5</ele><time>2026-04-25T10:46:08.777Z</time></trkpt><trkpt lat="40.0292795" lon="15.8643641"><ele>709.0</ele><time>2026-04-25T10:46:09.775Z</time></trkpt><trkpt lat="40.0294129" lon="15.8643054"><ele>708.5</ele><time>2026-04-25T10:46:10.772Z</time></trkpt><trkpt lat="40.0295403" lon="15.8642412"><ele>708.0</ele><time>2026-04-25T10:46:11.774Z</time></trkpt><trkpt lat="40.0296645" lon="15.8641692"><ele>708.0</ele><time>2026-04-25T10:46:12.773Z</time></trkpt><trkpt lat="40.0297891" lon="15.8640895"><ele>708.0</ele><time>2026-04-25T10:46:13.788Z</time></trkpt><trkpt lat="40.0299154" lon="15.8640003"><ele>708.0</ele><time>2026-04-25T10:46:14.77Z</time></trkpt><trkpt lat="40.0300464" lon="15.8639079"><ele>708.0</ele><time>2026-04-25T10:46:15.787Z</time></trkpt><trkpt lat="40.0301856" lon="15.863823"><ele>705.0</ele><time>2026-04-25T10:46:16.776Z</time></trkpt><trkpt lat="40.030332" lon="15.8637489"><ele>702.0</ele><time>2026-04-25T10:46:17.767Z</time></trkpt><trkpt lat="40.0304831" lon="15.863684"><ele>699.0</ele><time>2026-04-25T10:46:18.78Z</time></trkpt><trkpt lat="40.0306289" lon="15.8636281"><ele>699.0</ele><time>2026-04-25T10:46:19.779Z</time></trkpt><trkpt lat="40.0307565" lon="15.8635685"><ele>699.0</ele><time>2026-04-25T10:46:20.773Z</time></trkpt><trkpt lat="40.0308553" lon="15.8634872"><ele>699.0</ele><time>2026-04-25T10:46:21.774Z</time></trkpt><trkpt lat="40.0309137" lon="15.8633794"><ele>699.0</ele><time>2026-04-25T10:46:22.781Z</time></trkpt><trkpt lat="40.0309534" lon="15.8632856"><ele>699.0</ele><time>2026-04-25T10:46:23.767Z</time></trkpt><trkpt lat="40.0309192" lon="15.8631747"><ele>699.0</ele><time>2026-04-25T10:46:24.773Z</time></trkpt><trkpt lat="40.0308507" lon="15.863058"><ele>699.0</ele><time>2026-04-25T10:46:25.794Z</time></trkpt><trkpt lat="40.0307386" lon="15.8629436"><ele>699.0</ele><time>2026-04-25T10:46:26.773Z</time></trkpt><trkpt lat="40.0306152" lon="15.8628387"><ele>699.0</ele><time>2026-04-25T10:46:27.778Z</time></trkpt><trkpt lat="40.0304932" lon="15.8627337"><ele>699.75</ele><time>2026-04-25T10:46:28.777Z</time></trkpt><trkpt lat="40.0303837" lon="15.8626193"><ele>700.5</ele><time>2026-04-25T10:46:29.772Z</time></trkpt><trkpt lat="40.0302914" lon="15.8625019"><ele>701.25</ele><time>2026-04-25T10:46:30.784Z</time></trkpt><trkpt lat="40.0302249" lon="15.8623795"><ele>702.0</ele><time>2026-04-25T10:46:31.781Z</time></trkpt><trkpt lat="40.0301974" lon="15.8622502"><ele>700.4000000000001</ele><time>2026-04-25T10:46:32.776Z</time></trkpt><trkpt lat="40.0301812" lon="15.8621217"><ele>698.8000000000001</ele><time>2026-04-25T10:46:33.792Z</time></trkpt><trkpt lat="40.0302291" lon="15.8620028"><ele>697.2</ele><time>2026-04-25T10:46:34.772Z</time></trkpt><trkpt lat="40.0302981" lon="15.8619332"><ele>695.6</ele><time>2026-04-25T10:46:35.777Z</time></trkpt><trkpt lat="40.0303837" lon="15.8619137"><ele>694.0</ele><time>2026-04-25T10:46:36.78Z</time></trkpt><trkpt lat="40.030473" lon="15.8619327"><ele>694.0</ele><time>2026-04-25T10:46:37.779Z</time></trkpt><trkpt lat="40.0305656" lon="15.8619967"><ele>694.0</ele><time>2026-04-25T10:46:38.777Z</time></trkpt><trkpt lat="40.0306601" lon="15.8620952"><ele>694.0</ele><time>2026-04-25T10:46:39.779Z</time></trkpt><trkpt lat="40.0307524" lon="15.8622112"><ele>694.0</ele><time>2026-04-25T10:46:40.769Z</time></trkpt><trkpt lat="40.0308424" lon="15.8623345"><ele>693.4000000000001</ele><time>2026-04-25T10:46:41.769Z</time></trkpt><trkpt lat="40.0309294" lon="15.862449"><ele>692.8</ele><time>2026-04-25T10:46:42.77Z</time></trkpt><trkpt lat="40.031015" lon="15.8625485"><ele>692.2</ele><time>2026-04-25T10:46:43.774Z</time></trkpt><trkpt lat="40.0311017" lon="15.8626282"><ele>691.5999999999999</ele><time>2026-04-25T10:46:44.784Z</time></trkpt><trkpt lat="40.0312004" lon="15.8626753"><ele>691.0</ele><time>2026-04-25T10:46:45.778Z</time></trkpt><trkpt lat="40.0313077" lon="15.8626794"><ele>691.0</ele><time>2026-04-25T10:46:46.772Z</time></trkpt><trkpt lat="40.0314149" lon="15.8626454"><ele>691.0</ele><time>2026-04-25T10:46:47.772Z</time></trkpt><trkpt lat="40.0315234" lon="15.8625832"><ele>691.0</ele><time>2026-04-25T10:46:48.771Z</time></trkpt><trkpt lat="40.0316375" lon="15.8625126"><ele>691.0</ele><time>2026-04-25T10:46:49.78Z</time></trkpt><trkpt lat="40.0317546" lon="15.862435"><ele>690.25</ele><time>2026-04-25T10:46:50.78Z</time></trkpt><trkpt lat="40.0318758" lon="15.8623488"><ele>689.5</ele><time>2026-04-25T10:46:51.778Z</time></trkpt><trkpt lat="40.0319958" lon="15.8622499"><ele>688.75</ele><time>2026-04-25T10:46:52.786Z</time></trkpt><trkpt lat="40.0321094" lon="15.8621331"><ele>688.0</ele><time>2026-04-25T10:46:53.776Z</time></trkpt><trkpt lat="40.0322144" lon="15.8619997"><ele>688.0</ele><time>2026-04-25T10:46:54.773Z</time></trkpt><trkpt lat="40.0323143" lon="15.8618507"><ele>688.0</ele><time>2026-04-25T10:46:55.777Z</time></trkpt><trkpt lat="40.0324137" lon="15.8616936"><ele>688.0</ele><time>2026-04-25T10:46:56.769Z</time></trkpt><trkpt lat="40.0325148" lon="15.8615344"><ele>684.3333333333334</ele><time>2026-04-25T10:46:57.779Z</time></trkpt><trkpt lat="40.0326188" lon="15.8613754"><ele>680.6666666666666</ele><time>2026-04-25T10:46:58.778Z</time></trkpt><trkpt lat="40.0327259" lon="15.8612203"><ele>677.0</ele><time>2026-04-25T10:46:59.788Z</time></trkpt><trkpt lat="40.0328383" lon="15.8610711"><ele>673.0</ele><time>2026-04-25T10:47:00.774Z</time></trkpt><trkpt lat="40.0329559" lon="15.8609268"><ele>669.0</ele><time>2026-04-25T10:47:01.79Z</time></trkpt><trkpt lat="40.0330797" lon="15.8607903"><ele>665.0</ele><time>2026-04-25T10:47:02.776Z</time></trkpt><trkpt lat="40.0332115" lon="15.8606656"><ele>667.6666666666666</ele><time>2026-04-25T10:47:03.769Z</time></trkpt><trkpt lat="40.0333484" lon="15.8605513"><ele>670.3333333333334</ele><time>2026-04-25T10:47:04.774Z</time></trkpt><trkpt lat="40.0334869" lon="15.860444"><ele>673.0</ele><time>2026-04-25T10:47:05.782Z</time></trkpt><trkpt lat="40.0336257" lon="15.8603405"><ele>673.0</ele><time>2026-04-25T10:47:06.778Z</time></trkpt><trkpt lat="40.0337629" lon="15.860236"><ele>673.0</ele><time>2026-04-25T10:47:07.78Z</time></trkpt><trkpt lat="40.0338924" lon="15.8601274"><ele>673.0</ele><time>2026-04-25T10:47:08.778Z</time></trkpt><trkpt lat="40.034013" lon="15.8600127"><ele>670.75</ele><time>2026-04-25T10:47:09.778Z</time></trkpt><trkpt lat="40.0341258" lon="15.8598894"><ele>668.5</ele><time>2026-04-25T10:47:10.772Z</time></trkpt><trkpt lat="40.0342319" lon="15.8597567"><ele>666.25</ele><time>2026-04-25T10:47:11.778Z</time></trkpt><trkpt lat="40.0343327" lon="15.8596153"><ele>664.0</ele><time>2026-04-25T10:47:12.774Z</time></trkpt><trkpt lat="40.0344296" lon="15.8594666"><ele>664.0</ele><time>2026-04-25T10:47:13.775Z</time></trkpt><trkpt lat="40.0345239" lon="15.8593141"><ele>664.0</ele><time>2026-04-25T10:47:14.774Z</time></trkpt><trkpt lat="40.0346103" lon="15.8591546"><ele>664.0</ele><time>2026-04-25T10:47:15.774Z</time></trkpt><trkpt lat="40.0346788" lon="15.8589781"><ele>661.0</ele><time>2026-04-25T10:47:16.779Z</time></trkpt><trkpt lat="40.0347337" lon="15.8587953"><ele>658.0</ele><time>2026-04-25T10:47:17.781Z</time></trkpt><trkpt lat="40.0347859" lon="15.858609"><ele>655.0</ele><time>2026-04-25T10:47:18.783Z</time></trkpt><trkpt lat="40.0348359" lon="15.8584189"><ele>654.0</ele><time>2026-04-25T10:47:19.783Z</time></trkpt><trkpt lat="40.0348888" lon="15.8582345"><ele>653.0</ele><time>2026-04-25T10:47:20.776Z</time></trkpt><trkpt lat="40.0349387" lon="15.8580396"><ele>652.0</ele><time>2026-04-25T10:47:21.781Z</time></trkpt><trkpt lat="40.034994" lon="15.8578457"><ele>652.0</ele><time>2026-04-25T10:47:22.784Z</time></trkpt><trkpt lat="40.035049" lon="15.8576411"><ele>652.0</ele><time>2026-04-25T10:47:23.774Z</time></trkpt><trkpt lat="40.0351075" lon="15.8574287"><ele>652.0</ele><time>2026-04-25T10:47:24.778Z</time></trkpt><trkpt lat="40.0351678" lon="15.8572084"><ele>652.0</ele><time>2026-04-25T10:47:25.781Z</time></trkpt><trkpt lat="40.0352219" lon="15.8569924"><ele>652.0</ele><time>2026-04-25T10:47:26.775Z</time></trkpt><trkpt lat="40.0352572" lon="15.8567848"><ele>652.0</ele><time>2026-04-25T10:47:27.781Z</time></trkpt><trkpt lat="40.0352772" lon="15.8565856"><ele>652.0</ele><time>2026-04-25T10:47:28.773Z</time></trkpt><trkpt lat="40.035307" lon="15.8564126"><ele>652.0</ele><time>2026-04-25T10:47:29.791Z</time></trkpt><trkpt lat="40.0353622" lon="15.8562671"><ele>652.0</ele><time>2026-04-25T10:47:30.788Z</time></trkpt><trkpt lat="40.0354378" lon="15.8561405"><ele>652.0</ele><time>2026-04-25T10:47:31.778Z</time></trkpt><trkpt lat="40.0355232" lon="15.8560262"><ele>650.5</ele><time>2026-04-25T10:47:32.783Z</time></trkpt><trkpt lat="40.0356186" lon="15.855924"><ele>649.0</ele><time>2026-04-25T10:47:33.783Z</time></trkpt><trkpt lat="40.0357252" lon="15.8558457"><ele>647.5</ele><time>2026-04-25T10:47:34.777Z</time></trkpt><trkpt lat="40.0358327" lon="15.8557817"><ele>646.0</ele><time>2026-04-25T10:47:35.778Z</time></trkpt><trkpt lat="40.035957" lon="15.8557683"><ele>646.0</ele><time>2026-04-25T10:47:36.778Z</time></trkpt><trkpt lat="40.0360875" lon="15.8557744"><ele>646.0</ele><time>2026-04-25T10:47:37.782Z</time></trkpt><trkpt lat="40.0362226" lon="15.8557916"><ele>646.0</ele><time>2026-04-25T10:47:38.772Z</time></trkpt><trkpt lat="40.0363702" lon="15.8558162"><ele>646.0</ele><time>2026-04-25T10:47:39.77Z</time></trkpt><trkpt lat="40.0365198" lon="15.8558438"><ele>646.3333333333334</ele><time>2026-04-25T10:47:40.781Z</time></trkpt><trkpt lat="40.0366746" lon="15.8558786"><ele>646.6666666666666</ele><time>2026-04-25T10:47:41.782Z</time></trkpt><trkpt lat="40.0368341" lon="15.855924"><ele>647.0</ele><time>2026-04-25T10:47:42.777Z</time></trkpt><trkpt lat="40.0369977" lon="15.8559759"><ele>645.3333333333333</ele><time>2026-04-25T10:47:43.79Z</time></trkpt><trkpt lat="40.0371598" lon="15.8560239"><ele>643.6666666666666</ele><time>2026-04-25T10:47:44.78Z</time></trkpt><trkpt lat="40.0373234" lon="15.8560629"><ele>642.0</ele><time>2026-04-25T10:47:45.771Z</time></trkpt><trkpt lat="40.0374894" lon="15.8561054"><ele>638.6666666666666</ele><time>2026-04-25T10:47:46.783Z</time></trkpt><trkpt lat="40.0376428" lon="15.8561386"><ele>635.3333333333333</ele><time>2026-04-25T10:47:47.778Z</time></trkpt><trkpt lat="40.0377967" lon="15.8561628"><ele>632.0</ele><time>2026-04-25T10:47:48.773Z</time></trkpt><trkpt lat="40.0379465" lon="15.856181"><ele>632.0</ele><time>2026-04-25T10:47:49.781Z</time></trkpt><trkpt lat="40.0380883" lon="15.8561786"><ele>632.0</ele><time>2026-04-25T10:47:50.786Z</time></trkpt><trkpt lat="40.0382234" lon="15.8561469"><ele>632.0</ele><time>2026-04-25T10:47:51.771Z</time></trkpt><trkpt lat="40.0383429" lon="15.856083"><ele>632.0</ele><time>2026-04-25T10:47:52.779Z</time></trkpt><trkpt lat="40.0384425" lon="15.8559803"><ele>633.75</ele><time>2026-04-25T10:47:53.783Z</time></trkpt><trkpt lat="40.0385165" lon="15.8558461"><ele>635.5</ele><time>2026-04-25T10:47:54.777Z</time></trkpt><trkpt lat="40.0385729" lon="15.8556883"><ele>637.25</ele><time>2026-04-25T10:47:55.781Z</time></trkpt><trkpt lat="40.0386155" lon="15.8555087"><ele>639.0</ele><time>2026-04-25T10:47:56.778Z</time></trkpt><trkpt lat="40.0386562" lon="15.8553165"><ele>639.0</ele><time>2026-04-25T10:47:57.776Z</time></trkpt><trkpt lat="40.0387016" lon="15.8551211"><ele>639.0</ele><time>2026-04-25T10:47:58.781Z</time></trkpt><trkpt lat="40.0387561" lon="15.854939"><ele>639.0</ele><time>2026-04-25T10:47:59.782Z</time></trkpt><trkpt lat="40.0388297" lon="15.8547805"><ele>639.0</ele><time>2026-04-25T10:48:00.777Z</time></trkpt><trkpt lat="40.038921" lon="15.8546525"><ele>639.5</ele><time>2026-04-25T10:48:01.79Z</time></trkpt><trkpt lat="40.0390252" lon="15.8545548"><ele>640.0</ele><time>2026-04-25T10:48:02.778Z</time></trkpt><trkpt lat="40.0391427" lon="15.8544922"><ele>640.5</ele><time>2026-04-25T10:48:03.772Z</time></trkpt><trkpt lat="40.0392674" lon="15.8544723"><ele>641.0</ele><time>2026-04-25T10:48:04.777Z</time></trkpt><trkpt lat="40.0393963" lon="15.8544869"><ele>637.75</ele><time>2026-04-25T10:48:05.782Z</time></trkpt><trkpt lat="40.0395263" lon="15.8545165"><ele>634.5</ele><time>2026-04-25T10:48:06.78Z</time></trkpt><trkpt lat="40.039658" lon="15.8545438"><ele>631.25</ele><time>2026-04-25T10:48:07.788Z</time></trkpt><trkpt lat="40.0397924" lon="15.8545695"><ele>628.0</ele><time>2026-04-25T10:48:08.778Z</time></trkpt><trkpt lat="40.0399289" lon="15.8545855"><ele>626.75</ele><time>2026-04-25T10:48:09.781Z</time></trkpt><trkpt lat="40.0400622" lon="15.8545754"><ele>625.5</ele><time>2026-04-25T10:48:10.79Z</time></trkpt><trkpt lat="40.0401908" lon="15.8545349"><ele>624.25</ele><time>2026-04-25T10:48:11.779Z</time></trkpt><trkpt lat="40.0403157" lon="15.8544703"><ele>623.0</ele><time>2026-04-25T10:48:12.779Z</time></trkpt><trkpt lat="40.0404323" lon="15.8543975"><ele>623.0</ele><time>2026-04-25T10:48:13.787Z</time></trkpt><trkpt lat="40.0405453" lon="15.8543335"><ele>623.0</ele><time>2026-04-25T10:48:14.776Z</time></trkpt><trkpt lat="40.0406568" lon="15.8543023"><ele>623.0</ele><time>2026-04-25T10:48:15.775Z</time></trkpt><trkpt lat="40.0407615" lon="15.8543195"><ele>623.0</ele><time>2026-04-25T10:48:16.79Z</time></trkpt><trkpt lat="40.0408512" lon="15.8543862"><ele>623.0</ele><time>2026-04-25T10:48:17.785Z</time></trkpt><trkpt lat="40.040921" lon="15.8544919"><ele>622.25</ele><time>2026-04-25T10:48:18.782Z</time></trkpt><trkpt lat="40.0409757" lon="15.8546206"><ele>621.5</ele><time>2026-04-25T10:48:19.772Z</time></trkpt><trkpt lat="40.0410284" lon="15.8547571"><ele>620.75</ele><time>2026-04-25T10:48:20.782Z</time></trkpt><trkpt lat="40.0410933" lon="15.8548824"><ele>620.0</ele><time>2026-04-25T10:48:21.778Z</time></trkpt><trkpt lat="40.041181" lon="15.854979"><ele>620.0</ele><time>2026-04-25T10:48:22.774Z</time></trkpt><trkpt lat="40.0412884" lon="15.8550413"><ele>620.0</ele><time>2026-04-25T10:48:23.781Z</time></trkpt><trkpt lat="40.0414105" lon="15.8550824"><ele>620.0</ele><time>2026-04-25T10:48:24.784Z</time></trkpt><trkpt lat="40.0415389" lon="15.8551169"><ele>620.0</ele><time>2026-04-25T10:48:25.774Z</time></trkpt><trkpt lat="40.041671" lon="15.8551437"><ele>620.5</ele><time>2026-04-25T10:48:26.774Z</time></trkpt><trkpt lat="40.0418055" lon="15.8551419"><ele>621.0</ele><time>2026-04-25T10:48:27.782Z</time></trkpt><trkpt lat="40.0419367" lon="15.8551001"><ele>621.5</ele><time>2026-04-25T10:48:28.778Z</time></trkpt><trkpt lat="40.0420574" lon="15.8550178"><ele>622.0</ele><time>2026-04-25T10:48:29.781Z</time></trkpt><trkpt lat="40.0421596" lon="15.8548981"><ele>622.0</ele><time>2026-04-25T10:48:30.782Z</time></trkpt><trkpt lat="40.0422344" lon="15.8547477"><ele>622.0</ele><time>2026-04-25T10:48:31.787Z</time></trkpt><trkpt lat="40.0422722" lon="15.8545747"><ele>622.0</ele><time>2026-04-25T10:48:32.775Z</time></trkpt><trkpt lat="40.042279" lon="15.8543858"><ele>622.0</ele><time>2026-04-25T10:48:33.788Z</time></trkpt><trkpt lat="40.042267" lon="15.8541867"><ele>627.6666666666667</ele><time>2026-04-25T10:48:34.783Z</time></trkpt><trkpt lat="40.0422523" lon="15.8539773"><ele>633.3333333333334</ele><time>2026-04-25T10:48:35.775Z</time></trkpt><trkpt lat="40.0422408" lon="15.8537638"><ele>639.0</ele><time>2026-04-25T10:48:36.774Z</time></trkpt><trkpt lat="40.0422307" lon="15.8535405"><ele>637.6666666666666</ele><time>2026-04-25T10:48:37.787Z</time></trkpt><trkpt lat="40.0422245" lon="15.853315"><ele>636.3333333333333</ele><time>2026-04-25T10:48:38.779Z</time></trkpt><trkpt lat="40.0422195" lon="15.853093"><ele>635.0</ele><time>2026-04-25T10:48:39.782Z</time></trkpt><trkpt lat="40.0422171" lon="15.8528813"><ele>635.0</ele><time>2026-04-25T10:48:40.776Z</time></trkpt><trkpt lat="40.0422193" lon="15.8526857"><ele>635.0</ele><time>2026-04-25T10:48:41.78Z</time></trkpt><trkpt lat="40.0422441" lon="15.8525171"><ele>635.0</ele><time>2026-04-25T10:48:42.775Z</time></trkpt><trkpt lat="40.042298" lon="15.8523879"><ele>635.0</ele><time>2026-04-25T10:48:43.777Z</time></trkpt><trkpt lat="40.0423725" lon="15.8523073"><ele>633.8</ele><time>2026-04-25T10:48:44.777Z</time></trkpt><trkpt lat="40.0424612" lon="15.8522534"><ele>632.6</ele><time>2026-04-25T10:48:45.782Z</time></trkpt><trkpt lat="40.0425561" lon="15.8522067"><ele>631.4</ele><time>2026-04-25T10:48:46.775Z</time></trkpt><trkpt lat="40.0426486" lon="15.8521344"><ele>630.2</ele><time>2026-04-25T10:48:47.778Z</time></trkpt><trkpt lat="40.0427424" lon="15.8520481"><ele>629.0</ele><time>2026-04-25T10:48:48.778Z</time></trkpt><trkpt lat="40.0428199" lon="15.8519218"><ele>628.0</ele><time>2026-04-25T10:48:49.792Z</time></trkpt><trkpt lat="40.042886" lon="15.8517745"><ele>627.0</ele><time>2026-04-25T10:48:50.771Z</time></trkpt><trkpt lat="40.0429466" lon="15.8516155"><ele>626.0</ele><time>2026-04-25T10:48:51.773Z</time></trkpt><trkpt lat="40.0429986" lon="15.8514368"><ele>625.0</ele><time>2026-04-25T10:48:52.775Z</time></trkpt><trkpt lat="40.0430333" lon="15.8512418"><ele>625.0</ele><time>2026-04-25T10:48:53.776Z</time></trkpt><trkpt lat="40.0430437" lon="15.8510368"><ele>625.0</ele><time>2026-04-25T10:48:54.777Z</time></trkpt><trkpt lat="40.0430333" lon="15.8508262"><ele>625.0</ele><time>2026-04-25T10:48:55.774Z</time></trkpt><trkpt lat="40.0430044" lon="15.8506117"><ele>628.0</ele><time>2026-04-25T10:48:56.772Z</time></trkpt><trkpt lat="40.0429603" lon="15.8503914"><ele>631.0</ele><time>2026-04-25T10:48:57.782Z</time></trkpt><trkpt lat="40.0429062" lon="15.8501667"><ele>634.0</ele><time>2026-04-25T10:48:58.774Z</time></trkpt><trkpt lat="40.0428466" lon="15.8499373"><ele>627.6666666666667</ele><time>2026-04-25T10:48:59.778Z</time></trkpt><trkpt lat="40.0427807" lon="15.8497073"><ele>621.3333333333334</ele><time>2026-04-25T10:49:00.775Z</time></trkpt><trkpt lat="40.0427144" lon="15.8494757"><ele>615.0</ele><time>2026-04-25T10:49:01.775Z</time></trkpt><trkpt lat="40.0426556" lon="15.8492427"><ele>612.3333333333334</ele><time>2026-04-25T10:49:02.774Z</time></trkpt><trkpt lat="40.0426071" lon="15.8490106"><ele>609.6666666666667</ele><time>2026-04-25T10:49:03.782Z</time></trkpt><trkpt lat="40.0425688" lon="15.8487823"><ele>607.0</ele><time>2026-04-25T10:49:04.772Z</time></trkpt><trkpt lat="40.0425491" lon="15.8485645"><ele>605.25</ele><time>2026-04-25T10:49:05.774Z</time></trkpt><trkpt lat="40.0425549" lon="15.848366"><ele>603.5</ele><time>2026-04-25T10:49:06.775Z</time></trkpt><trkpt lat="40.0425905" lon="15.8481914"><ele>601.75</ele><time>2026-04-25T10:49:07.78Z</time></trkpt><trkpt lat="40.042636" lon="15.8480187"><ele>600.0</ele><time>2026-04-25T10:49:08.775Z</time></trkpt><trkpt lat="40.0426825" lon="15.8478435"><ele>600.0</ele><time>2026-04-25T10:49:09.774Z</time></trkpt><trkpt lat="40.0427354" lon="15.84767"><ele>600.0</ele><time>2026-04-25T10:49:10.769Z</time></trkpt><trkpt lat="40.0427935" lon="15.8474875"><ele>600.0</ele><time>2026-04-25T10:49:11.781Z</time></trkpt><trkpt lat="40.042862" lon="15.8473009"><ele>601.0</ele><time>2026-04-25T10:49:12.767Z</time></trkpt><trkpt lat="40.0429266" lon="15.847113"><ele>602.0</ele><time>2026-04-25T10:49:13.77Z</time></trkpt><trkpt lat="40.0429855" lon="15.8469068"><ele>603.0</ele><time>2026-04-25T10:49:14.771Z</time></trkpt><trkpt lat="40.0430346" lon="15.8467025"><ele>605.3333333333334</ele><time>2026-04-25T10:49:15.767Z</time></trkpt><trkpt lat="40.0430716" lon="15.8464932"><ele>607.6666666666667</ele><time>2026-04-25T10:49:16.767Z</time></trkpt><trkpt lat="40.0431107" lon="15.8462833"><ele>610.0</ele><time>2026-04-25T10:49:17.771Z</time></trkpt><trkpt lat="40.043154" lon="15.8460841"><ele>609.75</ele><time>2026-04-25T10:49:18.769Z</time></trkpt><trkpt lat="40.0432183" lon="15.8459112"><ele>609.5</ele><time>2026-04-25T10:49:19.765Z</time></trkpt><trkpt lat="40.043311" lon="15.8457725"><ele>609.25</ele><time>2026-04-25T10:49:20.773Z</time></trkpt><trkpt lat="40.0434031" lon="15.845655"><ele>609.0</ele><time>2026-04-25T10:49:21.772Z</time></trkpt><trkpt lat="40.0434843" lon="15.8455425"><ele>599.5</ele><time>2026-04-25T10:49:22.77Z</time></trkpt><trkpt lat="40.0435085" lon="15.8453948"><ele>590.0</ele><time>2026-04-25T10:49:23.775Z</time></trkpt><trkpt lat="40.043508" lon="15.8452592"><ele>580.5</ele><time>2026-04-25T10:49:24.776Z</time></trkpt><trkpt lat="40.0434465" lon="15.845135"><ele>571.0</ele><time>2026-04-25T10:49:25.764Z</time></trkpt><trkpt lat="40.0433644" lon="15.8450126"><ele>570.2</ele><time>2026-04-25T10:49:26.768Z</time></trkpt><trkpt lat="40.043292" lon="15.8448834"><ele>569.4000000000001</ele><time>2026-04-25T10:49:27.782Z</time></trkpt><trkpt lat="40.0432533" lon="15.8447491"><ele>568.6</ele><time>2026-04-25T10:49:28.772Z</time></trkpt><trkpt lat="40.0432513" lon="15.8446173"><ele>567.8000000000001</ele><time>2026-04-25T10:49:29.768Z</time></trkpt><trkpt lat="40.0432878" lon="15.8444846"><ele>567.0</ele><time>2026-04-25T10:49:30.774Z</time></trkpt><trkpt lat="40.0433507" lon="15.8443493"><ele>564.0</ele><time>2026-04-25T10:49:31.787Z</time></trkpt><trkpt lat="40.0434282" lon="15.8442055"><ele>561.0</ele><time>2026-04-25T10:49:32.77Z</time></trkpt><trkpt lat="40.0435117" lon="15.8440454"><ele>558.0</ele><time>2026-04-25T10:49:33.772Z</time></trkpt><trkpt lat="40.0436015" lon="15.8438652"><ele>555.0</ele><time>2026-04-25T10:49:34.77Z</time></trkpt><trkpt lat="40.0436974" lon="15.8436678"><ele>559.6666666666666</ele><time>2026-04-25T10:49:35.769Z</time></trkpt><trkpt lat="40.0438014" lon="15.8434579"><ele>564.3333333333333</ele><time>2026-04-25T10:49:36.764Z</time></trkpt><trkpt lat="40.04391" lon="15.8432365"><ele>569.0</ele><time>2026-04-25T10:49:37.774Z</time></trkpt><trkpt lat="40.0440198" lon="15.8430085"><ele>566.3333333333333</ele><time>2026-04-25T10:49:38.781Z</time></trkpt><trkpt lat="40.0441302" lon="15.8427806"><ele>563.6666666666666</ele><time>2026-04-25T10:49:39.772Z</time></trkpt><trkpt lat="40.0442368" lon="15.8425586"><ele>561.0</ele><time>2026-04-25T10:49:40.777Z</time></trkpt><trkpt lat="40.0443345" lon="15.842346"><ele>561.0</ele><time>2026-04-25T10:49:41.772Z</time></trkpt><trkpt lat="40.044422" lon="15.8421413"><ele>561.0</ele><time>2026-04-25T10:49:42.774Z</time></trkpt><trkpt lat="40.0445063" lon="15.8419527"><ele>561.0</ele><time>2026-04-25T10:49:43.771Z</time></trkpt><trkpt lat="40.0446052" lon="15.8417912"><ele>556.75</ele><time>2026-04-25T10:49:44.776Z</time></trkpt><trkpt lat="40.0447153" lon="15.8416588"><ele>552.5</ele><time>2026-04-25T10:49:45.774Z</time></trkpt><trkpt lat="40.0448304" lon="15.8415492"><ele>548.25</ele><time>2026-04-25T10:49:46.784Z</time></trkpt><trkpt lat="40.0449513" lon="15.8414617"><ele>544.0</ele><time>2026-04-25T10:49:47.767Z</time></trkpt><trkpt lat="40.0450718" lon="15.8413824"><ele>544.0</ele><time>2026-04-25T10:49:48.773Z</time></trkpt><trkpt lat="40.0451853" lon="15.8412967"><ele>544.0</ele><time>2026-04-25T10:49:49.766Z</time></trkpt><trkpt lat="40.0452794" lon="15.8411566"><ele>544.0</ele><time>2026-04-25T10:49:50.77Z</time></trkpt><trkpt lat="40.045371" lon="15.8410081"><ele>544.0</ele><time>2026-04-25T10:49:51.784Z</time></trkpt><trkpt lat="40.0454578" lon="15.8408516"><ele>545.0</ele><time>2026-04-25T10:49:52.784Z</time></trkpt><trkpt lat="40.04553" lon="15.8406835"><ele>546.0</ele><time>2026-04-25T10:49:53.776Z</time></trkpt><trkpt lat="40.045591" lon="15.8405016"><ele>547.0</ele><time>2026-04-25T10:49:54.777Z</time></trkpt><trkpt lat="40.0456452" lon="15.8403088"><ele>545.0</ele><time>2026-04-25T10:49:55.773Z</time></trkpt><trkpt lat="40.0457015" lon="15.8401205"><ele>543.0</ele><time>2026-04-25T10:49:56.783Z</time></trkpt><trkpt lat="40.0457569" lon="15.8399361"><ele>541.0</ele><time>2026-04-25T10:49:57.78Z</time></trkpt><trkpt lat="40.04581" lon="15.8397624"><ele>541.0</ele><time>2026-04-25T10:49:58.775Z</time></trkpt><trkpt lat="40.0458627" lon="15.839599"><ele>541.0</ele><time>2026-04-25T10:49:59.779Z</time></trkpt><trkpt lat="40.0459247" lon="15.8394558"><ele>541.0</ele><time>2026-04-25T10:50:00.767Z</time></trkpt><trkpt lat="40.0459965" lon="15.8393416"><ele>541.0</ele><time>2026-04-25T10:50:01.769Z</time></trkpt><trkpt lat="40.046066" lon="15.8392491"><ele>541.0</ele><time>2026-04-25T10:50:02.771Z</time></trkpt><trkpt lat="40.0461546" lon="15.8392443"><ele>541.0</ele><time>2026-04-25T10:50:03.773Z</time></trkpt><trkpt lat="40.0462319" lon="15.8392559"><ele>541.0</ele><time>2026-04-25T10:50:04.775Z</time></trkpt><trkpt lat="40.0462908" lon="15.8393461"><ele>541.0</ele><time>2026-04-25T10:50:05.784Z</time></trkpt><trkpt lat="40.0463541" lon="15.8394425"><ele>541.0</ele><time>2026-04-25T10:50:06.775Z</time></trkpt><trkpt lat="40.0464263" lon="15.8395482"><ele>541.0</ele><time>2026-04-25T10:50:07.772Z</time></trkpt><trkpt lat="40.046495" lon="15.839651"><ele>541.0</ele><time>2026-04-25T10:50:08.776Z</time></trkpt><trkpt lat="40.0465752" lon="15.8397492"><ele>541.0</ele><time>2026-04-25T10:50:09.785Z</time></trkpt><trkpt lat="40.0466621" lon="15.8398481"><ele>541.0</ele><time>2026-04-25T10:50:10.769Z</time></trkpt><trkpt lat="40.046757" lon="15.8399477"><ele>543.25</ele><time>2026-04-25T10:50:11.779Z</time></trkpt><trkpt lat="40.0468568" lon="15.8400587"><ele>545.5</ele><time>2026-04-25T10:50:12.773Z</time></trkpt><trkpt lat="40.0469569" lon="15.8401885"><ele>547.75</ele><time>2026-04-25T10:50:13.766Z</time></trkpt><trkpt lat="40.0470598" lon="15.840345"><ele>550.0</ele><time>2026-04-25T10:50:14.773Z</time></trkpt><trkpt lat="40.0471616" lon="15.8405101"><ele>562.3333333333334</ele><time>2026-04-25T10:50:15.774Z</time></trkpt><trkpt lat="40.0472715" lon="15.8406761"><ele>574.6666666666666</ele><time>2026-04-25T10:50:16.774Z</time></trkpt><trkpt lat="40.0473865" lon="15.8408471"><ele>587.0</ele><time>2026-04-25T10:50:17.771Z</time></trkpt><trkpt lat="40.0475041" lon="15.8410248"><ele>595.0</ele><time>2026-04-25T10:50:18.777Z</time></trkpt><trkpt lat="40.0476243" lon="15.841208"><ele>603.0</ele><time>2026-04-25T10:50:19.788Z</time></trkpt><trkpt lat="40.0477463" lon="15.8413997"><ele>611.0</ele><time>2026-04-25T10:50:20.774Z</time></trkpt><trkpt lat="40.0478683" lon="15.8415892"><ele>611.0</ele><time>2026-04-25T10:50:21.781Z</time></trkpt><trkpt lat="40.0479837" lon="15.8417698"><ele>611.0</ele><time>2026-04-25T10:50:22.769Z</time></trkpt><trkpt lat="40.0480911" lon="15.8419379"><ele>611.0</ele><time>2026-04-25T10:50:23.779Z</time></trkpt><trkpt lat="40.0481906" lon="15.8420922"><ele>618.5</ele><time>2026-04-25T10:50:24.77Z</time></trkpt><trkpt lat="40.0482876" lon="15.8422341"><ele>626.0</ele><time>2026-04-25T10:50:25.771Z</time></trkpt><trkpt lat="40.0483798" lon="15.8423646"><ele>633.5</ele><time>2026-04-25T10:50:26.767Z</time></trkpt><trkpt lat="40.0484665" lon="15.8424903"><ele>641.0</ele><time>2026-04-25T10:50:27.773Z</time></trkpt><trkpt lat="40.048549" lon="15.8426104"><ele>635.1999999999999</ele><time>2026-04-25T10:50:28.77Z</time></trkpt><trkpt lat="40.048625" lon="15.842728"><ele>629.4</ele><time>2026-04-25T10:50:29.768Z</time></trkpt><trkpt lat="40.0486945" lon="15.8428381"><ele>623.6</ele><time>2026-04-25T10:50:30.77Z</time></trkpt><trkpt lat="40.0487551" lon="15.8429328"><ele>617.8</ele><time>2026-04-25T10:50:31.777Z</time></trkpt><trkpt lat="40.0488002" lon="15.8430007"><ele>612.0</ele><time>2026-04-25T10:50:32.772Z</time></trkpt><trkpt lat="40.0488493" lon="15.8430574"><ele>612.0</ele><time>2026-04-25T10:50:34.77Z</time></trkpt><trkpt lat="40.0489129" lon="15.8431078"><ele>612.0</ele><time>2026-04-25T10:50:45.783Z</time></trkpt><trkpt lat="40.049028" lon="15.8430879"><ele>612.0</ele><time>2026-04-25T10:50:47.793Z</time></trkpt><trkpt lat="40.0490889" lon="15.8430328"><ele>612.0</ele><time>2026-04-25T10:50:48.764Z</time></trkpt><trkpt lat="40.0491562" lon="15.8429703"><ele>612.0</ele><time>2026-04-25T10:50:49.777Z</time></trkpt><trkpt lat="40.0492255" lon="15.8429062"><ele>612.0</ele><time>2026-04-25T10:50:50.773Z</time></trkpt><trkpt lat="40.0492985" lon="15.8428431"><ele>605.1666666666666</ele><time>2026-04-25T10:50:51.769Z</time></trkpt><trkpt lat="40.0493691" lon="15.84278"><ele>598.3333333333334</ele><time>2026-04-25T10:50:52.776Z</time></trkpt><trkpt lat="40.0494422" lon="15.8427154"><ele>591.5</ele><time>2026-04-25T10:50:53.773Z</time></trkpt><trkpt lat="40.0495157" lon="15.8426492"><ele>584.6666666666667</ele><time>2026-04-25T10:50:54.767Z</time></trkpt><trkpt lat="40.0495927" lon="15.8425968"><ele>577.8333333333334</ele><time>2026-04-25T10:50:55.786Z</time></trkpt><trkpt lat="40.0496725" lon="15.8425596"><ele>571.0</ele><time>2026-04-25T10:50:56.776Z</time></trkpt><trkpt lat="40.049752" lon="15.842554"><ele>574.2</ele><time>2026-04-25T10:50:57.768Z</time></trkpt><trkpt lat="40.0498289" lon="15.8425749"><ele>577.4000000000001</ele><time>2026-04-25T10:50:58.773Z</time></trkpt><trkpt lat="40.0499048" lon="15.8426203"><ele>580.6</ele><time>2026-04-25T10:50:59.776Z</time></trkpt><trkpt lat="40.0499777" lon="15.8426955"><ele>583.8000000000001</ele><time>2026-04-25T10:51:00.783Z</time></trkpt><trkpt lat="40.050054" lon="15.8427925"><ele>587.0</ele><time>2026-04-25T10:51:01.804Z</time></trkpt><trkpt lat="40.0501413" lon="15.8429177"><ele>587.0</ele><time>2026-04-25T10:51:02.781Z</time></trkpt><trkpt lat="40.0502443" lon="15.8430506"><ele>587.0</ele><time>2026-04-25T10:51:03.818Z</time></trkpt><trkpt lat="40.0503548" lon="15.8431851"><ele>587.0</ele><time>2026-04-25T10:51:04.795Z</time></trkpt><trkpt lat="40.0504727" lon="15.8433129"><ele>587.0</ele><time>2026-04-25T10:51:05.803Z</time></trkpt><trkpt lat="40.0505904" lon="15.8434384"><ele>588.5</ele><time>2026-04-25T10:51:06.775Z</time></trkpt><trkpt lat="40.0507149" lon="15.8435531"><ele>590.0</ele><time>2026-04-25T10:51:07.784Z</time></trkpt><trkpt lat="40.0508345" lon="15.8436529"><ele>591.5</ele><time>2026-04-25T10:51:08.772Z</time></trkpt><trkpt lat="40.0509454" lon="15.8437416"><ele>593.0</ele><time>2026-04-25T10:51:09.784Z</time></trkpt><trkpt lat="40.0510163" lon="15.8438692"><ele>593.0</ele><time>2026-04-25T10:51:10.786Z</time></trkpt><trkpt lat="40.0510833" lon="15.8440202"><ele>593.0</ele><time>2026-04-25T10:51:11.79Z</time></trkpt><trkpt lat="40.0511614" lon="15.8441814"><ele>593.0</ele><time>2026-04-25T10:51:12.768Z</time></trkpt><trkpt lat="40.0512549" lon="15.8443658"><ele>593.0</ele><time>2026-04-25T10:51:13.787Z</time></trkpt><trkpt lat="40.0513489" lon="15.8445553"><ele>602.0</ele><time>2026-04-25T10:51:14.775Z</time></trkpt><trkpt lat="40.0514368" lon="15.8447488"><ele>611.0</ele><time>2026-04-25T10:51:15.785Z</time></trkpt><trkpt lat="40.0515279" lon="15.844949"><ele>620.0</ele><time>2026-04-25T10:51:16.78Z</time></trkpt><trkpt lat="40.0516228" lon="15.8451531"><ele>613.3333333333333</ele><time>2026-04-25T10:51:17.789Z</time></trkpt><trkpt lat="40.0517235" lon="15.8453562"><ele>606.6666666666666</ele><time>2026-04-25T10:51:18.784Z</time></trkpt><trkpt lat="40.0518243" lon="15.8455499"><ele>600.0</ele><time>2026-04-25T10:51:19.801Z</time></trkpt><trkpt lat="40.0519193" lon="15.8457275"><ele>600.0</ele><time>2026-04-25T10:51:20.775Z</time></trkpt><trkpt lat="40.0520077" lon="15.8458835"><ele>600.0</ele><time>2026-04-25T10:51:21.794Z</time></trkpt><trkpt lat="40.0520961" lon="15.8460192"><ele>600.0</ele><time>2026-04-25T10:51:22.798Z</time></trkpt><trkpt lat="40.0521823" lon="15.8461441"><ele>600.0</ele><time>2026-04-25T10:51:23.816Z</time></trkpt><trkpt lat="40.0522605" lon="15.8462647"><ele>605.0</ele><time>2026-04-25T10:51:24.788Z</time></trkpt><trkpt lat="40.0523353" lon="15.8463795"><ele>610.0</ele><time>2026-04-25T10:51:25.784Z</time></trkpt><trkpt lat="40.0523701" lon="15.8465247"><ele>615.0</ele><time>2026-04-25T10:51:26.778Z</time></trkpt><trkpt lat="40.0523973" lon="15.8466664"><ele>620.0</ele><time>2026-04-25T10:51:27.778Z</time></trkpt><trkpt lat="40.0524111" lon="15.8468123"><ele>620.0</ele><time>2026-04-25T10:51:28.805Z</time></trkpt><trkpt lat="40.0524295" lon="15.8469496"><ele>620.0</ele><time>2026-04-25T10:51:29.789Z</time></trkpt><trkpt lat="40.0524506" lon="15.8470859"><ele>620.0</ele><time>2026-04-25T10:51:30.769Z</time></trkpt><trkpt lat="40.052496" lon="15.8471908"><ele>620.0</ele><time>2026-04-25T10:51:31.796Z</time></trkpt><trkpt lat="40.0525769" lon="15.8472695"><ele>620.0</ele><time>2026-04-25T10:51:32.788Z</time></trkpt><trkpt lat="40.0526718" lon="15.847339"><ele>620.0</ele><time>2026-04-25T10:51:33.785Z</time></trkpt><trkpt lat="40.0527573" lon="15.8474094"><ele>620.0</ele><time>2026-04-25T10:51:34.78Z</time></trkpt><trkpt lat="40.0528364" lon="15.8474922"><ele>620.0</ele><time>2026-04-25T10:51:35.778Z</time></trkpt><trkpt lat="40.0529071" lon="15.8475875"><ele>620.0</ele><time>2026-04-25T10:51:36.771Z</time></trkpt><trkpt lat="40.052974" lon="15.8477016"><ele>620.0</ele><time>2026-04-25T10:51:37.773Z</time></trkpt><trkpt lat="40.0530355" lon="15.8478312"><ele>620.0</ele><time>2026-04-25T10:51:38.771Z</time></trkpt><trkpt lat="40.05308" lon="15.847946"><ele>620.0</ele><time>2026-04-25T10:51:39.779Z</time></trkpt><trkpt lat="40.0531197" lon="15.8480494"><ele>620.0</ele><time>2026-04-25T10:51:40.771Z</time></trkpt><trkpt lat="40.0531561" lon="15.8481674"><ele>620.0</ele><time>2026-04-25T10:51:41.778Z</time></trkpt><trkpt lat="40.0531898" lon="15.8483057"><ele>620.0</ele><time>2026-04-25T10:51:42.774Z</time></trkpt><trkpt lat="40.0532256" lon="15.8484637"><ele>619.6666666666666</ele><time>2026-04-25T10:51:43.782Z</time></trkpt><trkpt lat="40.0532639" lon="15.8486415"><ele>619.3333333333334</ele><time>2026-04-25T10:51:44.773Z</time></trkpt><trkpt lat="40.0533085" lon="15.8488368"><ele>619.0</ele><time>2026-04-25T10:51:45.767Z</time></trkpt><trkpt lat="40.053363" lon="15.8490433"><ele>619.0</ele><time>2026-04-25T10:51:46.773Z</time></trkpt><trkpt lat="40.0534254" lon="15.8492502"><ele>619.0</ele><time>2026-04-25T10:51:47.777Z</time></trkpt><trkpt lat="40.0534913" lon="15.8494561"><ele>619.0</ele><time>2026-04-25T10:51:48.77Z</time></trkpt><trkpt lat="40.0535635" lon="15.8496593"><ele>624.6666666666667</ele><time>2026-04-25T10:51:49.782Z</time></trkpt><trkpt lat="40.0536529" lon="15.8498494"><ele>630.3333333333334</ele><time>2026-04-25T10:51:50.77Z</time></trkpt><trkpt lat="40.0537629" lon="15.8500158"><ele>636.0</ele><time>2026-04-25T10:51:51.773Z</time></trkpt><trkpt lat="40.0538869" lon="15.8501542"><ele>633.6666666666666</ele><time>2026-04-25T10:51:52.787Z</time></trkpt><trkpt lat="40.054051" lon="15.8502433"><ele>631.3333333333333</ele><time>2026-04-25T10:51:53.78Z</time></trkpt><trkpt lat="40.0542216" lon="15.850285"><ele>629.0</ele><time>2026-04-25T10:51:54.778Z</time></trkpt><trkpt lat="40.054385" lon="15.8502887"><ele>629.0</ele><time>2026-04-25T10:51:55.771Z</time></trkpt><trkpt lat="40.0545371" lon="15.8503057"><ele>629.0</ele><time>2026-04-25T10:51:56.781Z</time></trkpt><trkpt lat="40.0546565" lon="15.8503367"><ele>629.0</ele><time>2026-04-25T10:51:57.778Z</time></trkpt><trkpt lat="40.054744" lon="15.8503873"><ele>629.0</ele><time>2026-04-25T10:51:58.775Z</time></trkpt><trkpt lat="40.0547949" lon="15.850461"><ele>629.0</ele><time>2026-04-25T10:51:59.791Z</time></trkpt><trkpt lat="40.0548328" lon="15.8505349"><ele>629.0</ele><time>2026-04-25T10:52:00.786Z</time></trkpt><trkpt lat="40.0548004" lon="15.8506266"><ele>629.0</ele><time>2026-04-25T10:52:01.773Z</time></trkpt><trkpt lat="40.0547586" lon="15.8507244"><ele>629.0</ele><time>2026-04-25T10:52:02.77Z</time></trkpt><trkpt lat="40.0547013" lon="15.8508409"><ele>629.0</ele><time>2026-04-25T10:52:03.78Z</time></trkpt><trkpt lat="40.0546335" lon="15.8509601"><ele>629.0</ele><time>2026-04-25T10:52:04.773Z</time></trkpt><trkpt lat="40.0545461" lon="15.8510732"><ele>630.2</ele><time>2026-04-25T10:52:05.785Z</time></trkpt><trkpt lat="40.0544615" lon="15.8511738"><ele>631.4</ele><time>2026-04-25T10:52:06.776Z</time></trkpt><trkpt lat="40.0543785" lon="15.8512579"><ele>632.6</ele><time>2026-04-25T10:52:07.772Z</time></trkpt><trkpt lat="40.0543347" lon="15.851352"><ele>633.8</ele><time>2026-04-25T10:52:08.777Z</time></trkpt><trkpt lat="40.0543376" lon="15.8514461"><ele>635.0</ele><time>2026-04-25T10:52:09.771Z</time></trkpt><trkpt lat="40.054411" lon="15.8515878"><ele>635.0</ele><time>2026-04-25T10:52:11.78Z</time></trkpt><trkpt lat="40.0544976" lon="15.8516281"><ele>635.0</ele><time>2026-04-25T10:52:12.773Z</time></trkpt><trkpt lat="40.054606" lon="15.8515974"><ele>635.0</ele><time>2026-04-25T10:52:13.779Z</time></trkpt><trkpt lat="40.0547214" lon="15.8515501"><ele>635.0</ele><time>2026-04-25T10:52:14.777Z</time></trkpt><trkpt lat="40.0548437" lon="15.8514414"><ele>637.6666666666666</ele><time>2026-04-25T10:52:15.768Z</time></trkpt><trkpt lat="40.0549986" lon="15.8513599"><ele>640.3333333333334</ele><time>2026-04-25T10:52:16.782Z</time></trkpt><trkpt lat="40.0551573" lon="15.8512875"><ele>643.0</ele><time>2026-04-25T10:52:17.777Z</time></trkpt><trkpt lat="40.0553233" lon="15.8512163"><ele>643.0</ele><time>2026-04-25T10:52:18.776Z</time></trkpt><trkpt lat="40.0554791" lon="15.8511663"><ele>643.0</ele><time>2026-04-25T10:52:19.78Z</time></trkpt><trkpt lat="40.0556138" lon="15.8511305"><ele>643.0</ele><time>2026-04-25T10:52:20.779Z</time></trkpt><trkpt lat="40.0557234" lon="15.8511257"><ele>643.0</ele><time>2026-04-25T10:52:21.778Z</time></trkpt><trkpt lat="40.0558188" lon="15.8512146"><ele>644.0</ele><time>2026-04-25T10:52:22.772Z</time></trkpt><trkpt lat="40.0559028" lon="15.8513151"><ele>645.0</ele><time>2026-04-25T10:52:23.783Z</time></trkpt><trkpt lat="40.0559824" lon="15.8514375"><ele>646.0</ele><time>2026-04-25T10:52:24.775Z</time></trkpt><trkpt lat="40.0560671" lon="15.8515642"><ele>647.0</ele><time>2026-04-25T10:52:25.771Z</time></trkpt><trkpt lat="40.0561663" lon="15.851679"><ele>647.0</ele><time>2026-04-25T10:52:26.773Z</time></trkpt><trkpt lat="40.0562566" lon="15.8517883"><ele>647.0</ele><time>2026-04-25T10:52:27.779Z</time></trkpt><trkpt lat="40.0563816" lon="15.8518394"><ele>647.0</ele><time>2026-04-25T10:52:28.768Z</time></trkpt><trkpt lat="40.0565121" lon="15.8518356"><ele>647.0</ele><time>2026-04-25T10:52:29.776Z</time></trkpt><trkpt lat="40.0566512" lon="15.8518004"><ele>646.5</ele><time>2026-04-25T10:52:30.777Z</time></trkpt><trkpt lat="40.0567937" lon="15.8517591"><ele>646.0</ele><time>2026-04-25T10:52:31.767Z</time></trkpt><trkpt lat="40.0569408" lon="15.8517079"><ele>645.5</ele><time>2026-04-25T10:52:32.781Z</time></trkpt><trkpt lat="40.0570773" lon="15.8516295"><ele>645.0</ele><time>2026-04-25T10:52:33.77Z</time></trkpt><trkpt lat="40.0572016" lon="15.851514"><ele>645.0</ele><time>2026-04-25T10:52:34.778Z</time></trkpt><trkpt lat="40.0573096" lon="15.851371"><ele>645.0</ele><time>2026-04-25T10:52:35.774Z</time></trkpt><trkpt lat="40.0574068" lon="15.8512327"><ele>645.0</ele><time>2026-04-25T10:52:36.777Z</time></trkpt><trkpt lat="40.0574785" lon="15.8511016"><ele>645.0</ele><time>2026-04-25T10:52:37.773Z</time></trkpt><trkpt lat="40.0575018" lon="15.8509809"><ele>646.3333333333334</ele><time>2026-04-25T10:52:38.776Z</time></trkpt><trkpt lat="40.057478" lon="15.8508791"><ele>647.6666666666666</ele><time>2026-04-25T10:52:39.769Z</time></trkpt><trkpt lat="40.0574209" lon="15.8508081"><ele>649.0</ele><time>2026-04-25T10:52:40.785Z</time></trkpt><trkpt lat="40.0573423" lon="15.8507756"><ele>650.3333333333333</ele><time>2026-04-25T10:52:41.775Z</time></trkpt><trkpt lat="40.0572509" lon="15.8507627"><ele>651.6666666666666</ele><time>2026-04-25T10:52:42.771Z</time></trkpt><trkpt lat="40.0571634" lon="15.8507458"><ele>653.0</ele><time>2026-04-25T10:52:43.781Z</time></trkpt><trkpt lat="40.0570867" lon="15.8507069"><ele>649.6666666666666</ele><time>2026-04-25T10:52:44.777Z</time></trkpt><trkpt lat="40.0570307" lon="15.8506339"><ele>646.3333333333333</ele><time>2026-04-25T10:52:45.774Z</time></trkpt><trkpt lat="40.0570034" lon="15.850537"><ele>643.0</ele><time>2026-04-25T10:52:46.768Z</time></trkpt><trkpt lat="40.0570101" lon="15.8504315"><ele>639.6666666666666</ele><time>2026-04-25T10:52:47.787Z</time></trkpt><trkpt lat="40.0570241" lon="15.8503265"><ele>636.3333333333334</ele><time>2026-04-25T10:52:48.775Z</time></trkpt><trkpt lat="40.0570858" lon="15.8502479"><ele>633.0</ele><time>2026-04-25T10:52:49.8Z</time></trkpt><trkpt lat="40.0571638" lon="15.8501661"><ele>632.0</ele><time>2026-04-25T10:52:50.773Z</time></trkpt><trkpt lat="40.0572387" lon="15.8500634"><ele>631.0</ele><time>2026-04-25T10:52:51.78Z</time></trkpt><trkpt lat="40.0572986" lon="15.8499446"><ele>630.0</ele><time>2026-04-25T10:52:52.776Z</time></trkpt><trkpt lat="40.0573559" lon="15.8498263"><ele>629.0</ele><time>2026-04-25T10:52:53.778Z</time></trkpt><trkpt lat="40.0574241" lon="15.8497277"><ele>628.0</ele><time>2026-04-25T10:52:54.775Z</time></trkpt><trkpt lat="40.0575042" lon="15.8496661"><ele>633.4</ele><time>2026-04-25T10:52:55.769Z</time></trkpt><trkpt lat="40.0575865" lon="15.8496552"><ele>638.8</ele><time>2026-04-25T10:52:56.775Z</time></trkpt><trkpt lat="40.0576635" lon="15.8496927"><ele>644.2</ele><time>2026-04-25T10:52:57.778Z</time></trkpt><trkpt lat="40.0577403" lon="15.8497736"><ele>649.6</ele><time>2026-04-25T10:52:58.774Z</time></trkpt><trkpt lat="40.0578147" lon="15.8498918"><ele>655.0</ele><time>2026-04-25T10:52:59.783Z</time></trkpt><trkpt lat="40.0578921" lon="15.8500208"><ele>654.5</ele><time>2026-04-25T10:53:00.776Z</time></trkpt><trkpt lat="40.057972" lon="15.8501518"><ele>654.0</ele><time>2026-04-25T10:53:01.779Z</time></trkpt><trkpt lat="40.0580684" lon="15.8502804"><ele>653.5</ele><time>2026-04-25T10:53:02.776Z</time></trkpt><trkpt lat="40.0581765" lon="15.850392"><ele>653.0</ele><time>2026-04-25T10:53:03.768Z</time></trkpt><trkpt lat="40.0582989" lon="15.8504807"><ele>656.0</ele><time>2026-04-25T10:53:04.78Z</time></trkpt><trkpt lat="40.0584297" lon="15.8505401"><ele>659.0</ele><time>2026-04-25T10:53:05.768Z</time></trkpt><trkpt lat="40.0585691" lon="15.8505814"><ele>662.0</ele><time>2026-04-25T10:53:06.767Z</time></trkpt><trkpt lat="40.0587127" lon="15.8506073"><ele>665.0</ele><time>2026-04-25T10:53:07.777Z</time></trkpt><trkpt lat="40.0588677" lon="15.8506298"><ele>665.0</ele><time>2026-04-25T10:53:08.774Z</time></trkpt><trkpt lat="40.0590277" lon="15.8506335"><ele>665.0</ele><time>2026-04-25T10:53:09.771Z</time></trkpt><trkpt lat="40.0591921" lon="15.8506215"><ele>665.0</ele><time>2026-04-25T10:53:10.787Z</time></trkpt><trkpt lat="40.0593627" lon="15.8505873"><ele>665.6666666666666</ele><time>2026-04-25T10:53:11.78Z</time></trkpt><trkpt lat="40.0595315" lon="15.8505371"><ele>666.3333333333334</ele><time>2026-04-25T10:53:12.772Z</time></trkpt><trkpt lat="40.0596966" lon="15.8504792"><ele>667.0</ele><time>2026-04-25T10:53:13.779Z</time></trkpt><trkpt lat="40.0598588" lon="15.8504296"><ele>672.3333333333334</ele><time>2026-04-25T10:53:14.777Z</time></trkpt><trkpt lat="40.0600204" lon="15.8503891"><ele>677.6666666666666</ele><time>2026-04-25T10:53:15.767Z</time></trkpt><trkpt lat="40.0601784" lon="15.8503587"><ele>683.0</ele><time>2026-04-25T10:53:16.769Z</time></trkpt><trkpt lat="40.0603357" lon="15.8503376"><ele>683.0</ele><time>2026-04-25T10:53:17.78Z</time></trkpt><trkpt lat="40.0604917" lon="15.8503386"><ele>683.0</ele><time>2026-04-25T10:53:18.778Z</time></trkpt><trkpt lat="40.0606394" lon="15.8503619"><ele>683.0</ele><time>2026-04-25T10:53:19.773Z</time></trkpt><trkpt lat="40.0607696" lon="15.8503973"><ele>683.0</ele><time>2026-04-25T10:53:20.769Z</time></trkpt><trkpt lat="40.0608732" lon="15.85045"><ele>684.4</ele><time>2026-04-25T10:53:21.777Z</time></trkpt><trkpt lat="40.0609557" lon="15.8505045"><ele>685.8</ele><time>2026-04-25T10:53:22.781Z</time></trkpt><trkpt lat="40.060998" lon="15.850614"><ele>687.2</ele><time>2026-04-25T10:53:23.786Z</time></trkpt><trkpt lat="40.0610531" lon="15.8507378"><ele>688.6</ele><time>2026-04-25T10:53:24.765Z</time></trkpt><trkpt lat="40.0611173" lon="15.8508774"><ele>690.0</ele><time>2026-04-25T10:53:25.775Z</time></trkpt><trkpt lat="40.0611864" lon="15.8510379"><ele>696.25</ele><time>2026-04-25T10:53:26.776Z</time></trkpt><trkpt lat="40.0612567" lon="15.8512028"><ele>702.5</ele><time>2026-04-25T10:53:27.771Z</time></trkpt><trkpt lat="40.0613237" lon="15.8513734"><ele>708.75</ele><time>2026-04-25T10:53:28.775Z</time></trkpt><trkpt lat="40.0613781" lon="15.8515508"><ele>715.0</ele><time>2026-04-25T10:53:29.771Z</time></trkpt><trkpt lat="40.0614303" lon="15.8517258"><ele>716.5</ele><time>2026-04-25T10:53:30.774Z</time></trkpt><trkpt lat="40.0614913" lon="15.8518937"><ele>718.0</ele><time>2026-04-25T10:53:31.786Z</time></trkpt><trkpt lat="40.0615601" lon="15.8520556"><ele>719.5</ele><time>2026-04-25T10:53:32.777Z</time></trkpt><trkpt lat="40.0616266" lon="15.8522232"><ele>721.0</ele><time>2026-04-25T10:53:33.772Z</time></trkpt><trkpt lat="40.0616825" lon="15.8523953"><ele>723.0</ele><time>2026-04-25T10:53:34.777Z</time></trkpt><trkpt lat="40.0617417" lon="15.8525653"><ele>725.0</ele><time>2026-04-25T10:53:35.782Z</time></trkpt><trkpt lat="40.0618219" lon="15.8527189"><ele>727.0</ele><time>2026-04-25T10:53:36.775Z</time></trkpt><trkpt lat="40.0619215" lon="15.8528516"><ele>729.0</ele><time>2026-04-25T10:53:37.77Z</time></trkpt><trkpt lat="40.0620344" lon="15.8529705"><ele>729.0</ele><time>2026-04-25T10:53:38.772Z</time></trkpt><trkpt lat="40.062154" lon="15.8530857"><ele>729.0</ele><time>2026-04-25T10:53:39.785Z</time></trkpt><trkpt lat="40.062268" lon="15.8532073"><ele>729.0</ele><time>2026-04-25T10:53:40.779Z</time></trkpt><trkpt lat="40.0623755" lon="15.8533375"><ele>729.0</ele><time>2026-04-25T10:53:41.779Z</time></trkpt><trkpt lat="40.0624812" lon="15.8534728"><ele>725.25</ele><time>2026-04-25T10:53:42.781Z</time></trkpt><trkpt lat="40.0625766" lon="15.8536231"><ele>721.5</ele><time>2026-04-25T10:53:43.77Z</time></trkpt><trkpt lat="40.0626616" lon="15.8537816"><ele>717.75</ele><time>2026-04-25T10:53:44.778Z</time></trkpt><trkpt lat="40.0627358" lon="15.8539423"><ele>714.0</ele><time>2026-04-25T10:53:45.777Z</time></trkpt><trkpt lat="40.0627924" lon="15.854105"><ele>714.0</ele><time>2026-04-25T10:53:46.773Z</time></trkpt><trkpt lat="40.0628259" lon="15.8542691"><ele>714.0</ele><time>2026-04-25T10:53:47.771Z</time></trkpt><trkpt lat="40.0628364" lon="15.8544327"><ele>714.0</ele><time>2026-04-25T10:53:48.78Z</time></trkpt><trkpt lat="40.062833" lon="15.8545918"><ele>714.0</ele><time>2026-04-25T10:53:49.775Z</time></trkpt><trkpt lat="40.0628315" lon="15.8547423"><ele>715.2</ele><time>2026-04-25T10:53:50.778Z</time></trkpt><trkpt lat="40.0628495" lon="15.8548814"><ele>716.4000000000001</ele><time>2026-04-25T10:53:51.782Z</time></trkpt><trkpt lat="40.0628995" lon="15.8549908"><ele>717.6</ele><time>2026-04-25T10:53:52.769Z</time></trkpt><trkpt lat="40.0629758" lon="15.8550576"><ele>718.8</ele><time>2026-04-25T10:53:53.773Z</time></trkpt><trkpt lat="40.063075" lon="15.8550939"><ele>720.0</ele><time>2026-04-25T10:53:54.772Z</time></trkpt><trkpt lat="40.0631889" lon="15.8550763"><ele>714.0</ele><time>2026-04-25T10:53:55.776Z</time></trkpt><trkpt lat="40.063319" lon="15.8550597"><ele>708.0</ele><time>2026-04-25T10:53:56.776Z</time></trkpt><trkpt lat="40.0634609" lon="15.855054"><ele>702.0</ele><time>2026-04-25T10:53:57.779Z</time></trkpt><trkpt lat="40.0636093" lon="15.855045"><ele>696.0</ele><time>2026-04-25T10:53:58.777Z</time></trkpt><trkpt lat="40.0637586" lon="15.8550316"><ele>696.0</ele><time>2026-04-25T10:53:59.779Z</time></trkpt><trkpt lat="40.0639098" lon="15.8550167"><ele>696.0</ele><time>2026-04-25T10:54:00.776Z</time></trkpt><trkpt lat="40.0640627" lon="15.85501"><ele>696.0</ele><time>2026-04-25T10:54:01.787Z</time></trkpt><trkpt lat="40.0642118" lon="15.8550057"><ele>697.75</ele><time>2026-04-25T10:54:02.781Z</time></trkpt><trkpt lat="40.0643577" lon="15.8549946"><ele>699.5</ele><time>2026-04-25T10:54:03.777Z</time></trkpt><trkpt lat="40.0644965" lon="15.854984"><ele>701.25</ele><time>2026-04-25T10:54:04.771Z</time></trkpt><trkpt lat="40.0646298" lon="15.8549865"><ele>703.0</ele><time>2026-04-25T10:54:05.781Z</time></trkpt><trkpt lat="40.0647547" lon="15.8550133"><ele>703.0</ele><time>2026-04-25T10:54:06.779Z</time></trkpt><trkpt lat="40.0648724" lon="15.8550716"><ele>703.0</ele><time>2026-04-25T10:54:07.781Z</time></trkpt><trkpt lat="40.0649904" lon="15.8551375"><ele>703.0</ele><time>2026-04-25T10:54:08.777Z</time></trkpt><trkpt lat="40.065105" lon="15.8552492"><ele>703.0</ele><time>2026-04-25T10:54:09.785Z</time></trkpt><trkpt lat="40.0652208" lon="15.8553679"><ele>709.0</ele><time>2026-04-25T10:54:10.786Z</time></trkpt><trkpt lat="40.065346" lon="15.8554986"><ele>715.0</ele><time>2026-04-25T10:54:11.777Z</time></trkpt><trkpt lat="40.0654779" lon="15.8556419"><ele>721.0</ele><time>2026-04-25T10:54:12.806Z</time></trkpt><trkpt lat="40.0656162" lon="15.8557922"><ele>721.0</ele><time>2026-04-25T10:54:13.781Z</time></trkpt><trkpt lat="40.0657549" lon="15.8559476"><ele>721.0</ele><time>2026-04-25T10:54:14.783Z</time></trkpt><trkpt lat="40.0658888" lon="15.8561011"><ele>721.0</ele><time>2026-04-25T10:54:15.805Z</time></trkpt><trkpt lat="40.0660191" lon="15.8562562"><ele>723.3333333333334</ele><time>2026-04-25T10:54:16.79Z</time></trkpt><trkpt lat="40.0661497" lon="15.8564071"><ele>725.6666666666666</ele><time>2026-04-25T10:54:17.774Z</time></trkpt><trkpt lat="40.0662772" lon="15.8565531"><ele>728.0</ele><time>2026-04-25T10:54:18.776Z</time></trkpt><trkpt lat="40.0664026" lon="15.8566892"><ele>732.3333333333333</ele><time>2026-04-25T10:54:19.788Z</time></trkpt><trkpt lat="40.066528" lon="15.856814"><ele>736.6666666666666</ele><time>2026-04-25T10:54:20.778Z</time></trkpt><trkpt lat="40.0666561" lon="15.8569257"><ele>741.0</ele><time>2026-04-25T10:54:21.781Z</time></trkpt><trkpt lat="40.0668077" lon="15.8570154"><ele>741.0</ele><time>2026-04-25T10:54:22.79Z</time></trkpt><trkpt lat="40.0669709" lon="15.8570877"><ele>741.0</ele><time>2026-04-25T10:54:23.784Z</time></trkpt><trkpt lat="40.0671333" lon="15.8571533"><ele>741.0</ele><time>2026-04-25T10:54:24.778Z</time></trkpt><trkpt lat="40.067295" lon="15.8572144"><ele>739.3333333333334</ele><time>2026-04-25T10:54:25.815Z</time></trkpt><trkpt lat="40.0674496" lon="15.8572645"><ele>737.6666666666667</ele><time>2026-04-25T10:54:26.788Z</time></trkpt><trkpt lat="40.0676029" lon="15.8573191"><ele>736.0</ele><time>2026-04-25T10:54:27.788Z</time></trkpt><trkpt lat="40.0677514" lon="15.8573607"><ele>736.0</ele><time>2026-04-25T10:54:28.775Z</time></trkpt><trkpt lat="40.0678971" lon="15.8573699"><ele>736.0</ele><time>2026-04-25T10:54:29.78Z</time></trkpt><trkpt lat="40.068035" lon="15.8573731"><ele>736.0</ele><time>2026-04-25T10:54:30.783Z</time></trkpt><trkpt lat="40.0681776" lon="15.8573825"><ele>736.0</ele><time>2026-04-25T10:54:31.801Z</time></trkpt><trkpt lat="40.0683239" lon="15.8574091"><ele>735.0</ele><time>2026-04-25T10:54:32.78Z</time></trkpt><trkpt lat="40.0684598" lon="15.857466"><ele>734.0</ele><time>2026-04-25T10:54:33.781Z</time></trkpt><trkpt lat="40.0685939" lon="15.8575337"><ele>733.0</ele><time>2026-04-25T10:54:34.774Z</time></trkpt><trkpt lat="40.0687281" lon="15.8576022"><ele>732.0</ele><time>2026-04-25T10:54:35.775Z</time></trkpt><trkpt lat="40.0688624" lon="15.8576672"><ele>734.75</ele><time>2026-04-25T10:54:36.778Z</time></trkpt><trkpt lat="40.0689972" lon="15.8577327"><ele>737.5</ele><time>2026-04-25T10:54:37.812Z</time></trkpt><trkpt lat="40.0691216" lon="15.8578091"><ele>740.25</ele><time>2026-04-25T10:54:38.778Z</time></trkpt><trkpt lat="40.06922" lon="15.8579025"><ele>743.0</ele><time>2026-04-25T10:54:39.816Z</time></trkpt><trkpt lat="40.0692969" lon="15.85801"><ele>743.0</ele><time>2026-04-25T10:54:40.81Z</time></trkpt><trkpt lat="40.0693595" lon="15.8581181"><ele>743.0</ele><time>2026-04-25T10:54:41.776Z</time></trkpt><trkpt lat="40.0694174" lon="15.8582175"><ele>743.0</ele><time>2026-04-25T10:54:42.783Z</time></trkpt><trkpt lat="40.0694921" lon="15.8582641"><ele>743.0</ele><time>2026-04-25T10:54:43.792Z</time></trkpt><trkpt lat="40.0695794" lon="15.8582592"><ele>743.0</ele><time>2026-04-25T10:54:44.799Z</time></trkpt><trkpt lat="40.0696552" lon="15.8582082"><ele>743.0</ele><time>2026-04-25T10:54:45.782Z</time></trkpt><trkpt lat="40.0697066" lon="15.8581205"><ele>743.0</ele><time>2026-04-25T10:54:46.818Z</time></trkpt><trkpt lat="40.0697337" lon="15.8580053"><ele>743.0</ele><time>2026-04-25T10:54:47.823Z</time></trkpt><trkpt lat="40.0697434" lon="15.8578706"><ele>743.0</ele><time>2026-04-25T10:54:48.775Z</time></trkpt><trkpt lat="40.0697504" lon="15.8577186"><ele>743.0</ele><time>2026-04-25T10:54:49.797Z</time></trkpt><trkpt lat="40.069754" lon="15.8575553"><ele>739.5</ele><time>2026-04-25T10:54:50.779Z</time></trkpt><trkpt lat="40.0697601" lon="15.8573845"><ele>736.0</ele><time>2026-04-25T10:54:51.771Z</time></trkpt><trkpt lat="40.069772" lon="15.8572087"><ele>732.5</ele><time>2026-04-25T10:54:52.772Z</time></trkpt><trkpt lat="40.0697894" lon="15.857032"><ele>729.0</ele><time>2026-04-25T10:54:53.781Z</time></trkpt><trkpt lat="40.0698143" lon="15.856855"><ele>726.75</ele><time>2026-04-25T10:54:54.775Z</time></trkpt><trkpt lat="40.0698372" lon="15.856675"><ele>724.5</ele><time>2026-04-25T10:54:55.787Z</time></trkpt><trkpt lat="40.0698756" lon="15.8564963"><ele>722.25</ele><time>2026-04-25T10:54:56.774Z</time></trkpt><trkpt lat="40.0699041" lon="15.8563132"><ele>720.0</ele><time>2026-04-25T10:54:57.776Z</time></trkpt><trkpt lat="40.069941" lon="15.8561249"><ele>726.6666666666666</ele><time>2026-04-25T10:54:58.776Z</time></trkpt><trkpt lat="40.0699724" lon="15.8559334"><ele>733.3333333333333</ele><time>2026-04-25T10:54:59.794Z</time></trkpt><trkpt lat="40.0700006" lon="15.8557363"><ele>740.0</ele><time>2026-04-25T10:55:00.773Z</time></trkpt><trkpt lat="40.0700213" lon="15.8555321"><ele>740.0</ele><time>2026-04-25T10:55:01.772Z</time></trkpt><trkpt lat="40.0700394" lon="15.8553234"><ele>740.0</ele><time>2026-04-25T10:55:02.774Z</time></trkpt><trkpt lat="40.0700617" lon="15.8551079"><ele>740.0</ele><time>2026-04-25T10:55:03.775Z</time></trkpt><trkpt lat="40.0700837" lon="15.8548856"><ele>740.3333333333333</ele><time>2026-04-25T10:55:04.789Z</time></trkpt><trkpt lat="40.070106" lon="15.8546662"><ele>740.6666666666666</ele><time>2026-04-25T10:55:05.784Z</time></trkpt><trkpt lat="40.0701301" lon="15.8544477"><ele>741.0</ele><time>2026-04-25T10:55:06.775Z</time></trkpt><trkpt lat="40.0701554" lon="15.8542326"><ele>741.0</ele><time>2026-04-25T10:55:07.772Z</time></trkpt><trkpt lat="40.0701821" lon="15.854021"><ele>741.0</ele><time>2026-04-25T10:55:08.774Z</time></trkpt><trkpt lat="40.0702028" lon="15.8538179"><ele>741.0</ele><time>2026-04-25T10:55:09.769Z</time></trkpt><trkpt lat="40.0702075" lon="15.8536193"><ele>741.5</ele><time>2026-04-25T10:55:10.77Z</time></trkpt><trkpt lat="40.0701927" lon="15.8534328"><ele>742.0</ele><time>2026-04-25T10:55:11.775Z</time></trkpt><trkpt lat="40.0701462" lon="15.8532711"><ele>742.5</ele><time>2026-04-25T10:55:12.777Z</time></trkpt><trkpt lat="40.070071" lon="15.8531443"><ele>743.0</ele><time>2026-04-25T10:55:13.776Z</time></trkpt><trkpt lat="40.069988" lon="15.8530471"><ele>743.0</ele><time>2026-04-25T10:55:14.786Z</time></trkpt><trkpt lat="40.0699166" lon="15.8529599"><ele>743.0</ele><time>2026-04-25T10:55:15.791Z</time></trkpt><trkpt lat="40.0698775" lon="15.8528666"><ele>743.0</ele><time>2026-04-25T10:55:16.79Z</time></trkpt><trkpt lat="40.0698817" lon="15.8527782"><ele>743.0</ele><time>2026-04-25T10:55:17.779Z</time></trkpt><trkpt lat="40.0699719" lon="15.8527057"><ele>743.0</ele><time>2026-04-25T10:55:19.785Z</time></trkpt><trkpt lat="40.0700905" lon="15.8527824"><ele>743.0</ele><time>2026-04-25T10:55:21.778Z</time></trkpt><trkpt lat="40.0701554" lon="15.852859"><ele>743.0</ele><time>2026-04-25T10:55:22.77Z</time></trkpt><trkpt lat="40.0702283" lon="15.8529517"><ele>743.0</ele><time>2026-04-25T10:55:23.771Z</time></trkpt><trkpt lat="40.070301" lon="15.8530441"><ele>743.0</ele><time>2026-04-25T10:55:24.786Z</time></trkpt><trkpt lat="40.0703846" lon="15.8531454"><ele>743.0</ele><time>2026-04-25T10:55:25.778Z</time></trkpt><trkpt lat="40.0704693" lon="15.8532474"><ele>743.0</ele><time>2026-04-25T10:55:26.776Z</time></trkpt><trkpt lat="40.0705239" lon="15.8533611"><ele>743.0</ele><time>2026-04-25T10:55:27.778Z</time></trkpt><trkpt lat="40.0705489" lon="15.8534786"><ele>743.0</ele><time>2026-04-25T10:55:28.782Z</time></trkpt><trkpt lat="40.0705568" lon="15.8535996"><ele>743.0</ele><time>2026-04-25T10:55:29.788Z</time></trkpt><trkpt lat="40.070556" lon="15.8537325"><ele>743.0</ele><time>2026-04-25T10:55:30.78Z</time></trkpt><trkpt lat="40.070568" lon="15.853876"><ele>742.5</ele><time>2026-04-25T10:55:31.787Z</time></trkpt><trkpt lat="40.0706116" lon="15.8540241"><ele>742.0</ele><time>2026-04-25T10:55:32.78Z</time></trkpt><trkpt lat="40.0706609" lon="15.8541845"><ele>741.5</ele><time>2026-04-25T10:55:33.782Z</time></trkpt><trkpt lat="40.0706916" lon="15.8543671"><ele>741.0</ele><time>2026-04-25T10:55:34.783Z</time></trkpt><trkpt lat="40.0706998" lon="15.8545728"><ele>740.6666666666666</ele><time>2026-04-25T10:55:35.776Z</time></trkpt><trkpt lat="40.0706974" lon="15.8547904"><ele>740.3333333333333</ele><time>2026-04-25T10:55:36.78Z</time></trkpt><trkpt lat="40.0706907" lon="15.8550089"><ele>740.0</ele><time>2026-04-25T10:55:37.78Z</time></trkpt><trkpt lat="40.0706731" lon="15.8552246"><ele>740.0</ele><time>2026-04-25T10:55:38.786Z</time></trkpt><trkpt lat="40.0706449" lon="15.8554338"><ele>740.0</ele><time>2026-04-25T10:55:39.779Z</time></trkpt><trkpt lat="40.070612" lon="15.8556327"><ele>740.0</ele><time>2026-04-25T10:55:40.782Z</time></trkpt><trkpt lat="40.0705817" lon="15.8558132"><ele>740.2</ele><time>2026-04-25T10:55:41.78Z</time></trkpt><trkpt lat="40.0705599" lon="15.8559724"><ele>740.4</ele><time>2026-04-25T10:55:42.776Z</time></trkpt><trkpt lat="40.0705551" lon="15.8561056"><ele>740.5999999999999</ele><time>2026-04-25T10:55:43.785Z</time></trkpt><trkpt lat="40.0705535" lon="15.8562157"><ele>740.8</ele><time>2026-04-25T10:55:44.785Z</time></trkpt><trkpt lat="40.0705808" lon="15.8562922"><ele>741.0</ele><time>2026-04-25T10:55:45.78Z</time></trkpt><trkpt lat="40.0706995" lon="15.8562733"><ele>741.0</ele><time>2026-04-25T10:55:47.771Z</time></trkpt><trkpt lat="40.070746" lon="15.8561978"><ele>741.0</ele><time>2026-04-25T10:55:48.776Z</time></trkpt><trkpt lat="40.0707689" lon="15.8560945"><ele>741.0</ele><time>2026-04-25T10:55:49.78Z</time></trkpt><trkpt lat="40.0707848" lon="15.8559739"><ele>741.0</ele><time>2026-04-25T10:55:50.774Z</time></trkpt><trkpt lat="40.0708181" lon="15.8558527"><ele>741.0</ele><time>2026-04-25T10:55:51.78Z</time></trkpt><trkpt lat="40.0708731" lon="15.855746"><ele>741.0</ele><time>2026-04-25T10:55:52.793Z</time></trkpt><trkpt lat="40.0709527" lon="15.8556738"><ele>746.0</ele><time>2026-04-25T10:55:53.783Z</time></trkpt><trkpt lat="40.0710456" lon="15.8556406"><ele>751.0</ele><time>2026-04-25T10:55:54.79Z</time></trkpt><trkpt lat="40.0711459" lon="15.8556332"><ele>756.0</ele><time>2026-04-25T10:55:55.778Z</time></trkpt><trkpt lat="40.0712519" lon="15.8556286"><ele>761.0</ele><time>2026-04-25T10:55:56.776Z</time></trkpt><trkpt lat="40.0713605" lon="15.8556083"><ele>766.0</ele><time>2026-04-25T10:55:57.795Z</time></trkpt><trkpt lat="40.0714658" lon="15.8555633"><ele>766.0</ele><time>2026-04-25T10:55:58.783Z</time></trkpt><trkpt lat="40.0715611" lon="15.8554942"><ele>766.0</ele><time>2026-04-25T10:55:59.779Z</time></trkpt><trkpt lat="40.0716556" lon="15.8554053"><ele>766.0</ele><time>2026-04-25T10:56:00.792Z</time></trkpt><trkpt lat="40.071749" lon="15.8553001"><ele>766.0</ele><time>2026-04-25T10:56:01.784Z</time></trkpt><trkpt lat="40.0718431" lon="15.8551855"><ele>769.5</ele><time>2026-04-25T10:56:02.788Z</time></trkpt><trkpt lat="40.0719359" lon="15.8550732"><ele>773.0</ele><time>2026-04-25T10:56:03.791Z</time></trkpt><trkpt lat="40.0720293" lon="15.8549639"><ele>776.5</ele><time>2026-04-25T10:56:04.78Z</time></trkpt><trkpt lat="40.0721228" lon="15.8548582"><ele>780.0</ele><time>2026-04-25T10:56:05.789Z</time></trkpt><trkpt lat="40.07222" lon="15.8547623"><ele>780.0</ele><time>2026-04-25T10:56:06.779Z</time></trkpt><trkpt lat="40.0723022" lon="15.8546744"><ele>780.0</ele><time>2026-04-25T10:56:07.779Z</time></trkpt><trkpt lat="40.072374" lon="15.8546075"><ele>780.0</ele><time>2026-04-25T10:56:08.786Z</time></trkpt><trkpt lat="40.0724513" lon="15.8545651"><ele>780.0</ele><time>2026-04-25T10:56:09.785Z</time></trkpt><trkpt lat="40.07252" lon="15.8545215"><ele>780.0</ele><time>2026-04-25T10:56:10.783Z</time></trkpt><trkpt lat="40.0725827" lon="15.8544581"><ele>780.0</ele><time>2026-04-25T10:56:11.796Z</time></trkpt><trkpt lat="40.0726334" lon="15.8543724"><ele>780.75</ele><time>2026-04-25T10:56:12.78Z</time></trkpt><trkpt lat="40.0726906" lon="15.8542759"><ele>781.5</ele><time>2026-04-25T10:56:13.777Z</time></trkpt><trkpt lat="40.072762" lon="15.8541749"><ele>782.25</ele><time>2026-04-25T10:56:14.773Z</time></trkpt><trkpt lat="40.0728485" lon="15.8540636"><ele>783.0</ele><time>2026-04-25T10:56:15.781Z</time></trkpt><trkpt lat="40.0729468" lon="15.8539386"><ele>783.0</ele><time>2026-04-25T10:56:16.77Z</time></trkpt><trkpt lat="40.0730486" lon="15.8537984"><ele>783.0</ele><time>2026-04-25T10:56:17.777Z</time></trkpt><trkpt lat="40.073158" lon="15.8536528"><ele>783.0</ele><time>2026-04-25T10:56:18.774Z</time></trkpt><trkpt lat="40.0732694" lon="15.8534983"><ele>784.6666666666667</ele><time>2026-04-25T10:56:19.774Z</time></trkpt><trkpt lat="40.0733836" lon="15.8533359"><ele>786.3333333333334</ele><time>2026-04-25T10:56:20.781Z</time></trkpt><trkpt lat="40.0735062" lon="15.8531706"><ele>788.0</ele><time>2026-04-25T10:56:21.781Z</time></trkpt><trkpt lat="40.0736319" lon="15.853006"><ele>788.0</ele><time>2026-04-25T10:56:22.771Z</time></trkpt><trkpt lat="40.0737622" lon="15.8528498"><ele>788.0</ele><time>2026-04-25T10:56:23.778Z</time></trkpt><trkpt lat="40.073892" lon="15.8526985"><ele>788.0</ele><time>2026-04-25T10:56:24.777Z</time></trkpt><trkpt lat="40.0740169" lon="15.8525497"><ele>788.75</ele><time>2026-04-25T10:56:25.778Z</time></trkpt><trkpt lat="40.0741056" lon="15.852391"><ele>789.5</ele><time>2026-04-25T10:56:26.777Z</time></trkpt><trkpt lat="40.074178" lon="15.8522199"><ele>790.25</ele><time>2026-04-25T10:56:27.772Z</time></trkpt><trkpt lat="40.0742239" lon="15.852039"><ele>791.0</ele><time>2026-04-25T10:56:28.77Z</time></trkpt><trkpt lat="40.0742539" lon="15.8518587"><ele>790.5</ele><time>2026-04-25T10:56:29.774Z</time></trkpt><trkpt lat="40.0742847" lon="15.851685"><ele>790.0</ele><time>2026-04-25T10:56:30.782Z</time></trkpt><trkpt lat="40.0743194" lon="15.8515129"><ele>789.5</ele><time>2026-04-25T10:56:31.772Z</time></trkpt><trkpt lat="40.0743847" lon="15.8513574"><ele>789.0</ele><time>2026-04-25T10:56:32.772Z</time></trkpt><trkpt lat="40.0744628" lon="15.8512087"><ele>789.0</ele><time>2026-04-25T10:56:33.775Z</time></trkpt><trkpt lat="40.0745337" lon="15.8510584"><ele>789.0</ele><time>2026-04-25T10:56:34.777Z</time></trkpt><trkpt lat="40.0745843" lon="15.8508888"><ele>789.0</ele><time>2026-04-25T10:56:35.769Z</time></trkpt><trkpt lat="40.0746178" lon="15.8507"><ele>789.0</ele><time>2026-04-25T10:56:36.776Z</time></trkpt><trkpt lat="40.0746449" lon="15.8505027"><ele>788.5</ele><time>2026-04-25T10:56:37.781Z</time></trkpt><trkpt lat="40.0746775" lon="15.8503073"><ele>788.0</ele><time>2026-04-25T10:56:38.777Z</time></trkpt><trkpt lat="40.0747081" lon="15.8501182"><ele>787.5</ele><time>2026-04-25T10:56:39.774Z</time></trkpt><trkpt lat="40.0747319" lon="15.8499427"><ele>787.0</ele><time>2026-04-25T10:56:40.779Z</time></trkpt><trkpt lat="40.0747367" lon="15.8497652"><ele>787.0</ele><time>2026-04-25T10:56:41.776Z</time></trkpt><trkpt lat="40.0747289" lon="15.8495844"><ele>787.0</ele><time>2026-04-25T10:56:42.782Z</time></trkpt><trkpt lat="40.0746772" lon="15.8494163"><ele>787.0</ele><time>2026-04-25T10:56:43.775Z</time></trkpt><trkpt lat="40.0746146" lon="15.8492592"><ele>787.0</ele><time>2026-04-25T10:56:44.788Z</time></trkpt><trkpt lat="40.0745474" lon="15.8491133"><ele>786.2</ele><time>2026-04-25T10:56:45.783Z</time></trkpt><trkpt lat="40.0744998" lon="15.8489673"><ele>785.4000000000001</ele><time>2026-04-25T10:56:46.775Z</time></trkpt><trkpt lat="40.0744842" lon="15.8488348"><ele>784.5999999999999</ele><time>2026-04-25T10:56:47.775Z</time></trkpt><trkpt lat="40.0745059" lon="15.8487225"><ele>783.8</ele><time>2026-04-25T10:56:48.772Z</time></trkpt><trkpt lat="40.0745585" lon="15.8486303"><ele>783.0</ele><time>2026-04-25T10:56:49.768Z</time></trkpt><trkpt lat="40.0746328" lon="15.84858"><ele>783.0</ele><time>2026-04-25T10:56:50.786Z</time></trkpt><trkpt lat="40.0747168" lon="15.8485816"><ele>783.0</ele><time>2026-04-25T10:56:51.774Z</time></trkpt><trkpt lat="40.0747911" lon="15.8486331"><ele>783.0</ele><time>2026-04-25T10:56:52.775Z</time></trkpt><trkpt lat="40.0748462" lon="15.8487219"><ele>783.0</ele><time>2026-04-25T10:56:53.774Z</time></trkpt><trkpt lat="40.0748862" lon="15.8488353"><ele>783.0</ele><time>2026-04-25T10:56:54.773Z</time></trkpt><trkpt lat="40.0749283" lon="15.8489487"><ele>783.0</ele><time>2026-04-25T10:56:55.774Z</time></trkpt><trkpt lat="40.0749683" lon="15.8490601"><ele>785.75</ele><time>2026-04-25T10:56:56.767Z</time></trkpt><trkpt lat="40.075069" lon="15.8491308"><ele>788.5</ele><time>2026-04-25T10:56:57.778Z</time></trkpt><trkpt lat="40.0751896" lon="15.8491733"><ele>791.25</ele><time>2026-04-25T10:56:58.77Z</time></trkpt><trkpt lat="40.0753092" lon="15.8491955"><ele>794.0</ele><time>2026-04-25T10:56:59.766Z</time></trkpt><trkpt lat="40.0754406" lon="15.849198"><ele>794.0</ele><time>2026-04-25T10:57:00.776Z</time></trkpt><trkpt lat="40.0755743" lon="15.8491629"><ele>794.0</ele><time>2026-04-25T10:57:01.784Z</time></trkpt><trkpt lat="40.0757033" lon="15.849088"><ele>794.0</ele><time>2026-04-25T10:57:02.77Z</time></trkpt><trkpt lat="40.0758138" lon="15.8489682"><ele>794.0</ele><time>2026-04-25T10:57:03.778Z</time></trkpt><trkpt lat="40.0759145" lon="15.8488106"><ele>792.3333333333334</ele><time>2026-04-25T10:57:04.782Z</time></trkpt><trkpt lat="40.0760087" lon="15.8486358"><ele>790.6666666666667</ele><time>2026-04-25T10:57:05.771Z</time></trkpt><trkpt lat="40.0761054" lon="15.8484467"><ele>789.0</ele><time>2026-04-25T10:57:06.773Z</time></trkpt><trkpt lat="40.0762101" lon="15.8482532"><ele>785.0</ele><time>2026-04-25T10:57:07.789Z</time></trkpt><trkpt lat="40.076322" lon="15.8480584"><ele>781.0</ele><time>2026-04-25T10:57:08.776Z</time></trkpt><trkpt lat="40.0764415" lon="15.847864"><ele>777.0</ele><time>2026-04-25T10:57:09.782Z</time></trkpt><trkpt lat="40.076565" lon="15.8476757"><ele>776.0</ele><time>2026-04-25T10:57:10.771Z</time></trkpt><trkpt lat="40.0766922" lon="15.8474952"><ele>775.0</ele><time>2026-04-25T10:57:11.793Z</time></trkpt><trkpt lat="40.0768142" lon="15.8473216"><ele>774.0</ele><time>2026-04-25T10:57:12.784Z</time></trkpt><trkpt lat="40.0769272" lon="15.8471526"><ele>774.0</ele><time>2026-04-25T10:57:13.786Z</time></trkpt><trkpt lat="40.0770292" lon="15.8469943"><ele>774.0</ele><time>2026-04-25T10:57:14.773Z</time></trkpt><trkpt lat="40.0771158" lon="15.8468544"><ele>774.0</ele><time>2026-04-25T10:57:15.777Z</time></trkpt><trkpt lat="40.0771753" lon="15.8467164"><ele>774.0</ele><time>2026-04-25T10:57:16.77Z</time></trkpt><trkpt lat="40.0771996" lon="15.8465702"><ele>773.25</ele><time>2026-04-25T10:57:17.787Z</time></trkpt><trkpt lat="40.0771829" lon="15.8464164"><ele>772.5</ele><time>2026-04-25T10:57:18.787Z</time></trkpt><trkpt lat="40.0771307" lon="15.846253"><ele>771.75</ele><time>2026-04-25T10:57:19.781Z</time></trkpt><trkpt lat="40.0770604" lon="15.8460795"><ele>771.0</ele><time>2026-04-25T10:57:20.778Z</time></trkpt><trkpt lat="40.0769844" lon="15.8459015"><ele>771.0</ele><time>2026-04-25T10:57:21.784Z</time></trkpt><trkpt lat="40.0769162" lon="15.8457071"><ele>771.0</ele><time>2026-04-25T10:57:22.775Z</time></trkpt><trkpt lat="40.0768353" lon="15.8455264"><ele>771.0</ele><time>2026-04-25T10:57:23.784Z</time></trkpt><trkpt lat="40.076736" lon="15.845381"><ele>771.0</ele><time>2026-04-25T10:57:24.771Z</time></trkpt><trkpt lat="40.0766176" lon="15.8452643"><ele>771.0</ele><time>2026-04-25T10:57:25.771Z</time></trkpt><trkpt lat="40.0764976" lon="15.845172"><ele>771.0</ele><time>2026-04-25T10:57:26.782Z</time></trkpt><trkpt lat="40.0763893" lon="15.8450873"><ele>771.0</ele><time>2026-04-25T10:57:27.777Z</time></trkpt><trkpt lat="40.0763237" lon="15.844967"><ele>767.75</ele><time>2026-04-25T10:57:28.773Z</time></trkpt><trkpt lat="40.0762964" lon="15.8448242"><ele>764.5</ele><time>2026-04-25T10:57:29.779Z</time></trkpt><trkpt lat="40.0762803" lon="15.8446763"><ele>761.25</ele><time>2026-04-25T10:57:30.775Z</time></trkpt><trkpt lat="40.0763179" lon="15.8445011"><ele>758.0</ele><time>2026-04-25T10:57:31.776Z</time></trkpt><trkpt lat="40.0763845" lon="15.8443209"><ele>759.5</ele><time>2026-04-25T10:57:32.781Z</time></trkpt><trkpt lat="40.0764584" lon="15.8441712"><ele>761.0</ele><time>2026-04-25T10:57:33.78Z</time></trkpt><trkpt lat="40.0765224" lon="15.8440308"><ele>762.5</ele><time>2026-04-25T10:57:34.774Z</time></trkpt><trkpt lat="40.0765547" lon="15.843905"><ele>764.0</ele><time>2026-04-25T10:57:35.787Z</time></trkpt><trkpt lat="40.0765534" lon="15.8437787"><ele>764.0</ele><time>2026-04-25T10:57:36.777Z</time></trkpt><trkpt lat="40.076514" lon="15.8436563"><ele>764.0</ele><time>2026-04-25T10:57:37.783Z</time></trkpt><trkpt lat="40.076449" lon="15.8435567"><ele>764.0</ele><time>2026-04-25T10:57:38.777Z</time></trkpt><trkpt lat="40.0763595" lon="15.8434923"><ele>764.0</ele><time>2026-04-25T10:57:39.778Z</time></trkpt><trkpt lat="40.0762625" lon="15.8434366"><ele>764.0</ele><time>2026-04-25T10:57:40.779Z</time></trkpt><trkpt lat="40.0761406" lon="15.8434284"><ele>763.5</ele><time>2026-04-25T10:57:41.778Z</time></trkpt><trkpt lat="40.0760229" lon="15.8434184"><ele>763.0</ele><time>2026-04-25T10:57:42.772Z</time></trkpt><trkpt lat="40.0759118" lon="15.843421"><ele>762.5</ele><time>2026-04-25T10:57:43.781Z</time></trkpt><trkpt lat="40.0758186" lon="15.843335"><ele>762.0</ele><time>2026-04-25T10:57:44.78Z</time></trkpt><trkpt lat="40.0757341" lon="15.8432401"><ele>762.0</ele><time>2026-04-25T10:57:45.778Z</time></trkpt><trkpt lat="40.0756945" lon="15.8430886"><ele>762.0</ele><time>2026-04-25T10:57:46.782Z</time></trkpt><trkpt lat="40.0756795" lon="15.8429286"><ele>762.0</ele><time>2026-04-25T10:57:47.779Z</time></trkpt><trkpt lat="40.0756722" lon="15.842743"><ele>762.0</ele><time>2026-04-25T10:57:48.775Z</time></trkpt><trkpt lat="40.0756188" lon="15.8425828"><ele>765.0</ele><time>2026-04-25T10:57:49.78Z</time></trkpt><trkpt lat="40.0755307" lon="15.842429"><ele>768.0</ele><time>2026-04-25T10:57:50.772Z</time></trkpt><trkpt lat="40.0754131" lon="15.8422844"><ele>771.0</ele><time>2026-04-25T10:57:51.782Z</time></trkpt><trkpt lat="40.0752767" lon="15.8421455"><ele>771.0</ele><time>2026-04-25T10:57:52.796Z</time></trkpt><trkpt lat="40.075132" lon="15.8420005"><ele>771.0</ele><time>2026-04-25T10:57:53.777Z</time></trkpt><trkpt lat="40.0749854" lon="15.8418558"><ele>771.0</ele><time>2026-04-25T10:57:54.772Z</time></trkpt><trkpt lat="40.0748479" lon="15.8417034"><ele>770.0</ele><time>2026-04-25T10:57:55.776Z</time></trkpt><trkpt lat="40.0747459" lon="15.8415469"><ele>769.0</ele><time>2026-04-25T10:57:56.775Z</time></trkpt><trkpt lat="40.0746678" lon="15.8413856"><ele>768.0</ele><time>2026-04-25T10:57:57.786Z</time></trkpt><trkpt lat="40.0746218" lon="15.8412333"><ele>767.0</ele><time>2026-04-25T10:57:58.775Z</time></trkpt><trkpt lat="40.0746077" lon="15.8410812"><ele>769.75</ele><time>2026-04-25T10:57:59.777Z</time></trkpt><trkpt lat="40.0746121" lon="15.8409279"><ele>772.5</ele><time>2026-04-25T10:58:00.777Z</time></trkpt><trkpt lat="40.0746299" lon="15.8407713"><ele>775.25</ele><time>2026-04-25T10:58:01.774Z</time></trkpt><trkpt lat="40.0746598" lon="15.8406188"><ele>778.0</ele><time>2026-04-25T10:58:02.784Z</time></trkpt><trkpt lat="40.0747011" lon="15.8404688"><ele>778.0</ele><time>2026-04-25T10:58:03.784Z</time></trkpt><trkpt lat="40.0747541" lon="15.840326"><ele>778.0</ele><time>2026-04-25T10:58:04.783Z</time></trkpt><trkpt lat="40.0748227" lon="15.8401905"><ele>778.0</ele><time>2026-04-25T10:58:05.779Z</time></trkpt><trkpt lat="40.0748985" lon="15.8400589"><ele>778.0</ele><time>2026-04-25T10:58:06.781Z</time></trkpt><trkpt lat="40.0749887" lon="15.8399323"><ele>781.75</ele><time>2026-04-25T10:58:07.785Z</time></trkpt><trkpt lat="40.0750782" lon="15.8398114"><ele>785.5</ele><time>2026-04-25T10:58:08.782Z</time></trkpt><trkpt lat="40.0751749" lon="15.8397143"><ele>789.25</ele><time>2026-04-25T10:58:09.781Z</time></trkpt><trkpt lat="40.0752826" lon="15.839647"><ele>793.0</ele><time>2026-04-25T10:58:10.778Z</time></trkpt><trkpt lat="40.0753993" lon="15.8396014"><ele>793.0</ele><time>2026-04-25T10:58:11.784Z</time></trkpt><trkpt lat="40.0755242" lon="15.8395632"><ele>793.0</ele><time>2026-04-25T10:58:12.786Z</time></trkpt><trkpt lat="40.075657" lon="15.8395176"><ele>793.0</ele><time>2026-04-25T10:58:13.787Z</time></trkpt><trkpt lat="40.0757958" lon="15.8394677"><ele>793.0</ele><time>2026-04-25T10:58:14.774Z</time></trkpt><trkpt lat="40.0759377" lon="15.8394185"><ele>792.3333333333333</ele><time>2026-04-25T10:58:15.779Z</time></trkpt><trkpt lat="40.076085" lon="15.8393683"><ele>791.6666666666667</ele><time>2026-04-25T10:58:16.773Z</time></trkpt><trkpt lat="40.0762354" lon="15.8393199"><ele>791.0</ele><time>2026-04-25T10:58:17.785Z</time></trkpt><trkpt lat="40.0763776" lon="15.839288"><ele>791.0</ele><time>2026-04-25T10:58:18.777Z</time></trkpt><trkpt lat="40.0765111" lon="15.8392763"><ele>791.0</ele><time>2026-04-25T10:58:19.78Z</time></trkpt><trkpt lat="40.0766358" lon="15.8392945"><ele>791.0</ele><time>2026-04-25T10:58:20.783Z</time></trkpt><trkpt lat="40.0767523" lon="15.8393288"><ele>791.0</ele><time>2026-04-25T10:58:21.78Z</time></trkpt><trkpt lat="40.0768744" lon="15.8393904"><ele>797.25</ele><time>2026-04-25T10:58:22.782Z</time></trkpt><trkpt lat="40.0769913" lon="15.8394712"><ele>803.5</ele><time>2026-04-25T10:58:23.782Z</time></trkpt><trkpt lat="40.0771153" lon="15.8395609"><ele>809.75</ele><time>2026-04-25T10:58:24.773Z</time></trkpt><trkpt lat="40.0772452" lon="15.8396589"><ele>816.0</ele><time>2026-04-25T10:58:25.773Z</time></trkpt><trkpt lat="40.0773834" lon="15.8397591"><ele>811.6666666666667</ele><time>2026-04-25T10:58:26.777Z</time></trkpt><trkpt lat="40.077526" lon="15.8398622"><ele>807.3333333333334</ele><time>2026-04-25T10:58:27.776Z</time></trkpt><trkpt lat="40.077671" lon="15.8399717"><ele>803.0</ele><time>2026-04-25T10:58:28.774Z</time></trkpt><trkpt lat="40.077808" lon="15.8400832"><ele>804.5</ele><time>2026-04-25T10:58:29.773Z</time></trkpt><trkpt lat="40.0779442" lon="15.8401975"><ele>806.0</ele><time>2026-04-25T10:58:30.778Z</time></trkpt><trkpt lat="40.0780756" lon="15.8402919"><ele>807.5</ele><time>2026-04-25T10:58:31.782Z</time></trkpt><trkpt lat="40.0782023" lon="15.8403558"><ele>809.0</ele><time>2026-04-25T10:58:32.781Z</time></trkpt><trkpt lat="40.0783335" lon="15.8403803"><ele>809.0</ele><time>2026-04-25T10:58:33.783Z</time></trkpt><trkpt lat="40.0784717" lon="15.8403566"><ele>809.0</ele><time>2026-04-25T10:58:34.773Z</time></trkpt><trkpt lat="40.0786209" lon="15.8402793"><ele>809.0</ele><time>2026-04-25T10:58:35.773Z</time></trkpt><trkpt lat="40.0787805" lon="15.8401851"><ele>803.0</ele><time>2026-04-25T10:58:36.782Z</time></trkpt><trkpt lat="40.0789448" lon="15.8400852"><ele>797.0</ele><time>2026-04-25T10:58:37.771Z</time></trkpt><trkpt lat="40.0791038" lon="15.8399999"><ele>791.0</ele><time>2026-04-25T10:58:38.779Z</time></trkpt><trkpt lat="40.0792581" lon="15.8399406"><ele>791.0</ele><time>2026-04-25T10:58:39.772Z</time></trkpt><trkpt lat="40.0794029" lon="15.8399082"><ele>791.0</ele><time>2026-04-25T10:58:40.778Z</time></trkpt><trkpt lat="40.0795431" lon="15.8399164"><ele>791.0</ele><time>2026-04-25T10:58:41.765Z</time></trkpt><trkpt lat="40.079681" lon="15.8399357"><ele>791.0</ele><time>2026-04-25T10:58:42.777Z</time></trkpt><trkpt lat="40.0798045" lon="15.8400213"><ele>791.0</ele><time>2026-04-25T10:58:43.785Z</time></trkpt><trkpt lat="40.0799326" lon="15.8401094"><ele>791.0</ele><time>2026-04-25T10:58:44.776Z</time></trkpt><trkpt lat="40.0800611" lon="15.840196"><ele>791.0</ele><time>2026-04-25T10:58:45.771Z</time></trkpt><trkpt lat="40.0801848" lon="15.8402787"><ele>791.0</ele><time>2026-04-25T10:58:46.782Z</time></trkpt><trkpt lat="40.0803023" lon="15.8403594"><ele>795.0</ele><time>2026-04-25T10:58:47.772Z</time></trkpt><trkpt lat="40.0804141" lon="15.8404241"><ele>799.0</ele><time>2026-04-25T10:58:48.775Z</time></trkpt><trkpt lat="40.0805271" lon="15.840445"><ele>803.0</ele><time>2026-04-25T10:58:49.777Z</time></trkpt><trkpt lat="40.0806169" lon="15.8404076"><ele>807.0</ele><time>2026-04-25T10:58:50.776Z</time></trkpt><trkpt lat="40.0806895" lon="15.8403284"><ele>811.0</ele><time>2026-04-25T10:58:51.776Z</time></trkpt><trkpt lat="40.0807625" lon="15.8402212"><ele>805.0</ele><time>2026-04-25T10:58:52.769Z</time></trkpt><trkpt lat="40.0808453" lon="15.8400978"><ele>799.0</ele><time>2026-04-25T10:58:53.777Z</time></trkpt><trkpt lat="40.0809409" lon="15.8399622"><ele>793.0</ele><time>2026-04-25T10:58:54.77Z</time></trkpt><trkpt lat="40.081045" lon="15.8398189"><ele>787.0</ele><time>2026-04-25T10:58:55.777Z</time></trkpt><trkpt lat="40.0811487" lon="15.8396676"><ele>787.0</ele><time>2026-04-25T10:58:56.782Z</time></trkpt><trkpt lat="40.0812324" lon="15.8395168"><ele>787.0</ele><time>2026-04-25T10:58:57.781Z</time></trkpt><trkpt lat="40.0812918" lon="15.8393515"><ele>787.0</ele><time>2026-04-25T10:58:58.771Z</time></trkpt><trkpt lat="40.0813452" lon="15.839181"><ele>787.0</ele><time>2026-04-25T10:58:59.778Z</time></trkpt><trkpt lat="40.0813665" lon="15.839004"><ele>785.75</ele><time>2026-04-25T10:59:00.775Z</time></trkpt><trkpt lat="40.0813388" lon="15.8388189"><ele>784.5</ele><time>2026-04-25T10:59:01.766Z</time></trkpt><trkpt lat="40.0813267" lon="15.8386211"><ele>783.25</ele><time>2026-04-25T10:59:02.768Z</time></trkpt><trkpt lat="40.0813404" lon="15.8384382"><ele>782.0</ele><time>2026-04-25T10:59:03.774Z</time></trkpt><trkpt lat="40.0813759" lon="15.8382721"><ele>781.25</ele><time>2026-04-25T10:59:04.782Z</time></trkpt><trkpt lat="40.0814373" lon="15.8381209"><ele>780.5</ele><time>2026-04-25T10:59:05.778Z</time></trkpt><trkpt lat="40.0815163" lon="15.8379864"><ele>779.75</ele><time>2026-04-25T10:59:06.783Z</time></trkpt><trkpt lat="40.0816109" lon="15.8378679"><ele>779.0</ele><time>2026-04-25T10:59:07.766Z</time></trkpt><trkpt lat="40.0817035" lon="15.8377527"><ele>780.75</ele><time>2026-04-25T10:59:08.771Z</time></trkpt><trkpt lat="40.0817835" lon="15.8376195"><ele>782.5</ele><time>2026-04-25T10:59:09.778Z</time></trkpt><trkpt lat="40.0818466" lon="15.837471"><ele>784.25</ele><time>2026-04-25T10:59:10.778Z</time></trkpt><trkpt lat="40.0818874" lon="15.8373096"><ele>786.0</ele><time>2026-04-25T10:59:11.783Z</time></trkpt><trkpt lat="40.081916" lon="15.8371494"><ele>786.0</ele><time>2026-04-25T10:59:12.778Z</time></trkpt><trkpt lat="40.0819475" lon="15.8369899"><ele>786.0</ele><time>2026-04-25T10:59:13.781Z</time></trkpt><trkpt lat="40.0819772" lon="15.836836"><ele>786.0</ele><time>2026-04-25T10:59:14.783Z</time></trkpt><trkpt lat="40.0820088" lon="15.8366921"><ele>786.0</ele><time>2026-04-25T10:59:15.775Z</time></trkpt><trkpt lat="40.0820446" lon="15.8365544"><ele>785.0</ele><time>2026-04-25T10:59:16.785Z</time></trkpt><trkpt lat="40.0820858" lon="15.8364142"><ele>784.0</ele><time>2026-04-25T10:59:17.787Z</time></trkpt><trkpt lat="40.0821351" lon="15.8362705"><ele>783.0</ele><time>2026-04-25T10:59:18.774Z</time></trkpt><trkpt lat="40.0821865" lon="15.836125"><ele>782.0</ele><time>2026-04-25T10:59:19.789Z</time></trkpt><trkpt lat="40.0822383" lon="15.8359803"><ele>780.0</ele><time>2026-04-25T10:59:20.773Z</time></trkpt><trkpt lat="40.0822856" lon="15.8358351"><ele>778.0</ele><time>2026-04-25T10:59:21.778Z</time></trkpt><trkpt lat="40.0823284" lon="15.8356857"><ele>776.0</ele><time>2026-04-25T10:59:22.779Z</time></trkpt><trkpt lat="40.0823632" lon="15.8355272"><ele>774.0</ele><time>2026-04-25T10:59:23.793Z</time></trkpt><trkpt lat="40.0823926" lon="15.8353634"><ele>774.0</ele><time>2026-04-25T10:59:24.779Z</time></trkpt><trkpt lat="40.0823957" lon="15.8351857"><ele>774.0</ele><time>2026-04-25T10:59:25.778Z</time></trkpt><trkpt lat="40.0823786" lon="15.8350036"><ele>774.0</ele><time>2026-04-25T10:59:26.779Z</time></trkpt><trkpt lat="40.0823478" lon="15.8348143"><ele>774.0</ele><time>2026-04-25T10:59:27.777Z</time></trkpt><trkpt lat="40.0823072" lon="15.8346289"><ele>771.6666666666666</ele><time>2026-04-25T10:59:28.77Z</time></trkpt><trkpt lat="40.0822662" lon="15.8344402"><ele>769.3333333333333</ele><time>2026-04-25T10:59:29.772Z</time></trkpt><trkpt lat="40.0822256" lon="15.8342507"><ele>767.0</ele><time>2026-04-25T10:59:30.786Z</time></trkpt><trkpt lat="40.0821913" lon="15.8340588"><ele>767.0</ele><time>2026-04-25T10:59:31.781Z</time></trkpt><trkpt lat="40.0821678" lon="15.8338626"><ele>767.0</ele><time>2026-04-25T10:59:32.768Z</time></trkpt><trkpt lat="40.0821627" lon="15.8336607"><ele>767.0</ele><time>2026-04-25T10:59:33.794Z</time></trkpt><trkpt lat="40.0821813" lon="15.8334574"><ele>767.6666666666666</ele><time>2026-04-25T10:59:34.78Z</time></trkpt><trkpt lat="40.0822288" lon="15.8332601"><ele>768.3333333333333</ele><time>2026-04-25T10:59:35.777Z</time></trkpt><trkpt lat="40.0823017" lon="15.833076"><ele>769.0</ele><time>2026-04-25T10:59:36.772Z</time></trkpt><trkpt lat="40.0823931" lon="15.832901"><ele>776.0</ele><time>2026-04-25T10:59:37.777Z</time></trkpt><trkpt lat="40.0824867" lon="15.8327266"><ele>783.0</ele><time>2026-04-25T10:59:38.775Z</time></trkpt><trkpt lat="40.0825769" lon="15.8325503"><ele>790.0</ele><time>2026-04-25T10:59:39.775Z</time></trkpt><trkpt lat="40.0826623" lon="15.8323826"><ele>790.0</ele><time>2026-04-25T10:59:40.776Z</time></trkpt><trkpt lat="40.0827495" lon="15.8322309"><ele>790.0</ele><time>2026-04-25T10:59:41.779Z</time></trkpt><trkpt lat="40.0828512" lon="15.8321024"><ele>790.0</ele><time>2026-04-25T10:59:42.779Z</time></trkpt><trkpt lat="40.0829684" lon="15.8320036"><ele>790.0</ele><time>2026-04-25T10:59:43.778Z</time></trkpt><trkpt lat="40.0830957" lon="15.831949"><ele>790.0</ele><time>2026-04-25T10:59:44.772Z</time></trkpt><trkpt lat="40.0832221" lon="15.8319264"><ele>790.0</ele><time>2026-04-25T10:59:45.772Z</time></trkpt><trkpt lat="40.0833449" lon="15.8319189"><ele>790.0</ele><time>2026-04-25T10:59:46.781Z</time></trkpt><trkpt lat="40.0834514" lon="15.8318958"><ele>790.0</ele><time>2026-04-25T10:59:47.78Z</time></trkpt><trkpt lat="40.0835435" lon="15.8318599"><ele>789.8</ele><time>2026-04-25T10:59:48.776Z</time></trkpt><trkpt lat="40.0836222" lon="15.8317951"><ele>789.6</ele><time>2026-04-25T10:59:49.783Z</time></trkpt><trkpt lat="40.083693" lon="15.8317006"><ele>789.4000000000001</ele><time>2026-04-25T10:59:50.774Z</time></trkpt><trkpt lat="40.0837482" lon="15.8315777"><ele>789.2</ele><time>2026-04-25T10:59:51.771Z</time></trkpt><trkpt lat="40.0837873" lon="15.8314466"><ele>789.0</ele><time>2026-04-25T10:59:52.777Z</time></trkpt><trkpt lat="40.083802" lon="15.8312834"><ele>789.0</ele><time>2026-04-25T10:59:53.787Z</time></trkpt><trkpt lat="40.0838023" lon="15.8311027"><ele>789.0</ele><time>2026-04-25T10:59:54.772Z</time></trkpt><trkpt lat="40.0837955" lon="15.8309045"><ele>789.0</ele><time>2026-04-25T10:59:55.777Z</time></trkpt><trkpt lat="40.0837859" lon="15.8306964"><ele>785.6666666666667</ele><time>2026-04-25T10:59:56.784Z</time></trkpt><trkpt lat="40.0837744" lon="15.8304854"><ele>782.3333333333334</ele><time>2026-04-25T10:59:57.777Z</time></trkpt><trkpt lat="40.0837636" lon="15.8302719"><ele>779.0</ele><time>2026-04-25T10:59:58.778Z</time></trkpt><trkpt lat="40.0837555" lon="15.8300611"><ele>778.5</ele><time>2026-04-25T10:59:59.783Z</time></trkpt><trkpt lat="40.083752" lon="15.8298561"><ele>778.0</ele><time>2026-04-25T11:00:00.783Z</time></trkpt><trkpt lat="40.0837609" lon="15.8296678"><ele>777.5</ele><time>2026-04-25T11:00:01.775Z</time></trkpt><trkpt lat="40.0837844" lon="15.8295053"><ele>777.0</ele><time>2026-04-25T11:00:02.778Z</time></trkpt><trkpt lat="40.0838276" lon="15.8293761"><ele>779.0</ele><time>2026-04-25T11:00:03.777Z</time></trkpt><trkpt lat="40.0838904" lon="15.8292811"><ele>781.0</ele><time>2026-04-25T11:00:04.777Z</time></trkpt><trkpt lat="40.0839723" lon="15.8292358"><ele>783.0</ele><time>2026-04-25T11:00:05.779Z</time></trkpt><trkpt lat="40.0840641" lon="15.8292274"><ele>785.0</ele><time>2026-04-25T11:00:06.781Z</time></trkpt><trkpt lat="40.0841652" lon="15.8292265"><ele>787.0</ele><time>2026-04-25T11:00:07.79Z</time></trkpt><trkpt lat="40.0842773" lon="15.8292147"><ele>787.0</ele><time>2026-04-25T11:00:08.79Z</time></trkpt><trkpt lat="40.0843963" lon="15.829183"><ele>787.0</ele><time>2026-04-25T11:00:09.773Z</time></trkpt><trkpt lat="40.0845194" lon="15.8291304"><ele>787.0</ele><time>2026-04-25T11:00:10.774Z</time></trkpt><trkpt lat="40.0846457" lon="15.8290629"><ele>787.0</ele><time>2026-04-25T11:00:11.78Z</time></trkpt><trkpt lat="40.0847682" lon="15.8289731"><ele>787.0</ele><time>2026-04-25T11:00:12.777Z</time></trkpt><trkpt lat="40.0848773" lon="15.8288593"><ele>787.0</ele><time>2026-04-25T11:00:13.779Z</time></trkpt><trkpt lat="40.0849767" lon="15.828735"><ele>787.0</ele><time>2026-04-25T11:00:14.769Z</time></trkpt><trkpt lat="40.0850704" lon="15.8286136"><ele>787.0</ele><time>2026-04-25T11:00:15.778Z</time></trkpt><trkpt lat="40.085162" lon="15.828512"><ele>785.8</ele><time>2026-04-25T11:00:16.775Z</time></trkpt><trkpt lat="40.0852575" lon="15.828444"><ele>784.6</ele><time>2026-04-25T11:00:17.773Z</time></trkpt><trkpt lat="40.0853513" lon="15.8284314"><ele>783.4</ele><time>2026-04-25T11:00:18.783Z</time></trkpt><trkpt lat="40.0854425" lon="15.8284365"><ele>782.1999999999999</ele><time>2026-04-25T11:00:19.787Z</time></trkpt><trkpt lat="40.0855197" lon="15.828542"><ele>781.0</ele><time>2026-04-25T11:00:20.776Z</time></trkpt><trkpt lat="40.0855758" lon="15.8286752"><ele>786.25</ele><time>2026-04-25T11:00:21.771Z</time></trkpt><trkpt lat="40.0856263" lon="15.8288319"><ele>791.5</ele><time>2026-04-25T11:00:22.773Z</time></trkpt><trkpt lat="40.085674" lon="15.8289983"><ele>796.75</ele><time>2026-04-25T11:00:23.779Z</time></trkpt><trkpt lat="40.0857509" lon="15.829153"><ele>802.0</ele><time>2026-04-25T11:00:24.775Z</time></trkpt><trkpt lat="40.0858176" lon="15.829311"><ele>805.25</ele><time>2026-04-25T11:00:25.785Z</time></trkpt><trkpt lat="40.0859354" lon="15.8294351"><ele>808.5</ele><time>2026-04-25T11:00:26.777Z</time></trkpt><trkpt lat="40.086047" lon="15.8295538"><ele>811.75</ele><time>2026-04-25T11:00:27.775Z</time></trkpt><trkpt lat="40.0861469" lon="15.8296746"><ele>815.0</ele><time>2026-04-25T11:00:28.782Z</time></trkpt><trkpt lat="40.0862376" lon="15.8297998"><ele>815.0</ele><time>2026-04-25T11:00:29.785Z</time></trkpt><trkpt lat="40.0863272" lon="15.8299095"><ele>815.0</ele><time>2026-04-25T11:00:30.77Z</time></trkpt><trkpt lat="40.0864149" lon="15.8299848"><ele>815.0</ele><time>2026-04-25T11:00:31.771Z</time></trkpt><trkpt lat="40.0864999" lon="15.8300385"><ele>815.0</ele><time>2026-04-25T11:00:32.768Z</time></trkpt><trkpt lat="40.0865984" lon="15.8300217"><ele>815.0</ele><time>2026-04-25T11:00:33.779Z</time></trkpt><trkpt lat="40.0866729" lon="15.8299501"><ele>813.0</ele><time>2026-04-25T11:00:34.766Z</time></trkpt><trkpt lat="40.0867299" lon="15.8298805"><ele>811.0</ele><time>2026-04-25T11:00:35.774Z</time></trkpt><trkpt lat="40.0867435" lon="15.8297313"><ele>809.0</ele><time>2026-04-25T11:00:36.768Z</time></trkpt><trkpt lat="40.0867296" lon="15.8295911"><ele>807.0</ele><time>2026-04-25T11:00:37.771Z</time></trkpt><trkpt lat="40.0866594" lon="15.8294505"><ele>805.0</ele><time>2026-04-25T11:00:38.769Z</time></trkpt><trkpt lat="40.0865875" lon="15.8292965"><ele>803.0</ele><time>2026-04-25T11:00:39.772Z</time></trkpt><trkpt lat="40.0865144" lon="15.829144"><ele>801.0</ele><time>2026-04-25T11:00:40.774Z</time></trkpt><trkpt lat="40.0864618" lon="15.8289758"><ele>799.0</ele><time>2026-04-25T11:00:41.771Z</time></trkpt><trkpt lat="40.0864282" lon="15.8287898"><ele>797.0</ele><time>2026-04-25T11:00:42.778Z</time></trkpt><trkpt lat="40.0864191" lon="15.8286003"><ele>797.0</ele><time>2026-04-25T11:00:43.782Z</time></trkpt><trkpt lat="40.0864362" lon="15.8284237"><ele>797.0</ele><time>2026-04-25T11:00:44.77Z</time></trkpt><trkpt lat="40.0864562" lon="15.8282488"><ele>797.0</ele><time>2026-04-25T11:00:45.784Z</time></trkpt><trkpt lat="40.0865381" lon="15.8281088"><ele>797.0</ele><time>2026-04-25T11:00:46.768Z</time></trkpt><trkpt lat="40.086634" lon="15.8279786"><ele>797.0</ele><time>2026-04-25T11:00:47.781Z</time></trkpt><trkpt lat="40.0867121" lon="15.8278374"><ele>797.0</ele><time>2026-04-25T11:00:48.766Z</time></trkpt><trkpt lat="40.0867842" lon="15.8276862"><ele>797.0</ele><time>2026-04-25T11:00:49.776Z</time></trkpt><trkpt lat="40.0868131" lon="15.8275083"><ele>797.0</ele><time>2026-04-25T11:00:50.773Z</time></trkpt><trkpt lat="40.0867974" lon="15.8272933"><ele>795.6666666666667</ele><time>2026-04-25T11:00:51.782Z</time></trkpt><trkpt lat="40.0867791" lon="15.8270981"><ele>794.3333333333333</ele><time>2026-04-25T11:00:52.776Z</time></trkpt><trkpt lat="40.086761" lon="15.8268978"><ele>793.0</ele><time>2026-04-25T11:00:53.775Z</time></trkpt><trkpt lat="40.0867475" lon="15.8266971"><ele>793.0</ele><time>2026-04-25T11:00:54.771Z</time></trkpt><trkpt lat="40.0867365" lon="15.8264875"><ele>793.0</ele><time>2026-04-25T11:00:55.77Z</time></trkpt><trkpt lat="40.0867515" lon="15.8262677"><ele>793.0</ele><time>2026-04-25T11:00:56.78Z</time></trkpt><trkpt lat="40.0867783" lon="15.8260422"><ele>793.3333333333333</ele><time>2026-04-25T11:00:57.772Z</time></trkpt><trkpt lat="40.0868174" lon="15.8258269"><ele>793.6666666666667</ele><time>2026-04-25T11:00:58.771Z</time></trkpt><trkpt lat="40.0868592" lon="15.8256149"><ele>794.0</ele><time>2026-04-25T11:00:59.776Z</time></trkpt><trkpt lat="40.0868894" lon="15.825421"><ele>794.0</ele><time>2026-04-25T11:01:00.77Z</time></trkpt><trkpt lat="40.0869269" lon="15.8252251"><ele>794.0</ele><time>2026-04-25T11:01:01.777Z</time></trkpt><trkpt lat="40.0869711" lon="15.8250465"><ele>794.0</ele><time>2026-04-25T11:01:02.77Z</time></trkpt><trkpt lat="40.0870385" lon="15.8248901"><ele>794.0</ele><time>2026-04-25T11:01:03.776Z</time></trkpt><trkpt lat="40.0871236" lon="15.8247583"><ele>791.5</ele><time>2026-04-25T11:01:04.773Z</time></trkpt><trkpt lat="40.0872334" lon="15.8246679"><ele>789.0</ele><time>2026-04-25T11:01:05.774Z</time></trkpt><trkpt lat="40.0873603" lon="15.8246047"><ele>786.5</ele><time>2026-04-25T11:01:06.779Z</time></trkpt><trkpt lat="40.0874903" lon="15.8245285"><ele>784.0</ele><time>2026-04-25T11:01:07.781Z</time></trkpt><trkpt lat="40.0876075" lon="15.8244256"><ele>783.5</ele><time>2026-04-25T11:01:08.778Z</time></trkpt><trkpt lat="40.0877159" lon="15.8242987"><ele>783.0</ele><time>2026-04-25T11:01:09.783Z</time></trkpt><trkpt lat="40.087811" lon="15.8241585"><ele>782.5</ele><time>2026-04-25T11:01:10.773Z</time></trkpt><trkpt lat="40.0879046" lon="15.8240265"><ele>782.0</ele><time>2026-04-25T11:01:11.772Z</time></trkpt><trkpt lat="40.0880038" lon="15.8239339"><ele>782.0</ele><time>2026-04-25T11:01:12.767Z</time></trkpt><trkpt lat="40.0880939" lon="15.8238577"><ele>782.0</ele><time>2026-04-25T11:01:13.771Z</time></trkpt><trkpt lat="40.0881829" lon="15.8238515"><ele>782.0</ele><time>2026-04-25T11:01:14.77Z</time></trkpt><trkpt lat="40.0882711" lon="15.823932"><ele>782.0</ele><time>2026-04-25T11:01:15.774Z</time></trkpt><trkpt lat="40.0883373" lon="15.8240683"><ele>782.0</ele><time>2026-04-25T11:01:16.767Z</time></trkpt><trkpt lat="40.0883942" lon="15.824192"><ele>786.75</ele><time>2026-04-25T11:01:17.781Z</time></trkpt><trkpt lat="40.0884445" lon="15.824329"><ele>791.5</ele><time>2026-04-25T11:01:18.771Z</time></trkpt><trkpt lat="40.0884915" lon="15.8244745"><ele>796.25</ele><time>2026-04-25T11:01:19.771Z</time></trkpt><trkpt lat="40.0885227" lon="15.8246175"><ele>801.0</ele><time>2026-04-25T11:01:20.774Z</time></trkpt><trkpt lat="40.0885525" lon="15.824742"><ele>801.0</ele><time>2026-04-25T11:01:21.782Z</time></trkpt><trkpt lat="40.0885963" lon="15.8248508"><ele>801.0</ele><time>2026-04-25T11:01:22.782Z</time></trkpt><trkpt lat="40.0886426" lon="15.8249432"><ele>801.0</ele><time>2026-04-25T11:01:23.769Z</time></trkpt><trkpt lat="40.0887287" lon="15.8249847"><ele>801.0</ele><time>2026-04-25T11:01:24.771Z</time></trkpt><trkpt lat="40.0888405" lon="15.8249895"><ele>801.0</ele><time>2026-04-25T11:01:25.77Z</time></trkpt><trkpt lat="40.0889655" lon="15.8249553"><ele>801.0</ele><time>2026-04-25T11:01:26.771Z</time></trkpt><trkpt lat="40.0890839" lon="15.824874"><ele>801.0</ele><time>2026-04-25T11:01:27.772Z</time></trkpt><trkpt lat="40.0892024" lon="15.8247892"><ele>801.0</ele><time>2026-04-25T11:01:28.773Z</time></trkpt><trkpt lat="40.0893119" lon="15.8246832"><ele>801.0</ele><time>2026-04-25T11:01:29.782Z</time></trkpt><trkpt lat="40.0894043" lon="15.8245645"><ele>800.0</ele><time>2026-04-25T11:01:30.778Z</time></trkpt><trkpt lat="40.0894416" lon="15.8244275"><ele>799.0</ele><time>2026-04-25T11:01:31.779Z</time></trkpt><trkpt lat="40.0894317" lon="15.824295"><ele>798.0</ele><time>2026-04-25T11:01:32.773Z</time></trkpt><trkpt lat="40.0893863" lon="15.8241745"><ele>797.0</ele><time>2026-04-25T11:01:33.767Z</time></trkpt><trkpt lat="40.0893235" lon="15.8240627"><ele>796.0</ele><time>2026-04-25T11:01:34.772Z</time></trkpt><trkpt lat="40.089264" lon="15.8239384"><ele>794.25</ele><time>2026-04-25T11:01:35.77Z</time></trkpt><trkpt lat="40.0892121" lon="15.8237997"><ele>792.5</ele><time>2026-04-25T11:01:36.776Z</time></trkpt><trkpt lat="40.0892052" lon="15.8236278"><ele>790.75</ele><time>2026-04-25T11:01:37.772Z</time></trkpt><trkpt lat="40.0892137" lon="15.8234607"><ele>789.0</ele><time>2026-04-25T11:01:38.772Z</time></trkpt><trkpt lat="40.0892398" lon="15.8232769"><ele>789.0</ele><time>2026-04-25T11:01:39.777Z</time></trkpt><trkpt lat="40.0892829" lon="15.8230854"><ele>789.0</ele><time>2026-04-25T11:01:40.775Z</time></trkpt><trkpt lat="40.0893384" lon="15.8228964"><ele>789.0</ele><time>2026-04-25T11:01:41.787Z</time></trkpt><trkpt lat="40.0893938" lon="15.8227009"><ele>787.75</ele><time>2026-04-25T11:01:42.769Z</time></trkpt><trkpt lat="40.0894515" lon="15.8225231"><ele>786.5</ele><time>2026-04-25T11:01:43.775Z</time></trkpt><trkpt lat="40.089508" lon="15.8223455"><ele>785.25</ele><time>2026-04-25T11:01:44.772Z</time></trkpt><trkpt lat="40.0895553" lon="15.8221741"><ele>784.0</ele><time>2026-04-25T11:01:45.787Z</time></trkpt><trkpt lat="40.0895896" lon="15.8220056"><ele>784.0</ele><time>2026-04-25T11:01:46.78Z</time></trkpt><trkpt lat="40.0896208" lon="15.8218471"><ele>784.0</ele><time>2026-04-25T11:01:47.78Z</time></trkpt><trkpt lat="40.0896597" lon="15.8217022"><ele>784.0</ele><time>2026-04-25T11:01:48.784Z</time></trkpt><trkpt lat="40.0897051" lon="15.8215632"><ele>784.0</ele><time>2026-04-25T11:01:49.782Z</time></trkpt><trkpt lat="40.0897715" lon="15.8214579"><ele>782.2</ele><time>2026-04-25T11:01:50.781Z</time></trkpt><trkpt lat="40.0898569" lon="15.8213798"><ele>780.4000000000001</ele><time>2026-04-25T11:01:51.781Z</time></trkpt><trkpt lat="40.0899525" lon="15.8213222"><ele>778.6</ele><time>2026-04-25T11:01:52.774Z</time></trkpt><trkpt lat="40.0900571" lon="15.8212902"><ele>776.8</ele><time>2026-04-25T11:01:53.783Z</time></trkpt><trkpt lat="40.0901654" lon="15.8212617"><ele>775.0</ele><time>2026-04-25T11:01:54.772Z</time></trkpt><trkpt lat="40.0902659" lon="15.8212208"><ele>778.3333333333333</ele><time>2026-04-25T11:01:55.784Z</time></trkpt><trkpt lat="40.0903552" lon="15.821165"><ele>781.6666666666666</ele><time>2026-04-25T11:01:56.778Z</time></trkpt><trkpt lat="40.09043" lon="15.8210965"><ele>785.0</ele><time>2026-04-25T11:01:57.777Z</time></trkpt><trkpt lat="40.0904935" lon="15.8210228"><ele>788.3333333333333</ele><time>2026-04-25T11:01:58.772Z</time></trkpt><trkpt lat="40.0905534" lon="15.8209473"><ele>791.6666666666666</ele><time>2026-04-25T11:01:59.785Z</time></trkpt><trkpt lat="40.0906109" lon="15.8208712"><ele>795.0</ele><time>2026-04-25T11:02:00.783Z</time></trkpt><trkpt lat="40.0906659" lon="15.8207941"><ele>795.0</ele><time>2026-04-25T11:02:01.784Z</time></trkpt><trkpt lat="40.0907186" lon="15.8207123"><ele>795.0</ele><time>2026-04-25T11:02:02.783Z</time></trkpt><trkpt lat="40.0907749" lon="15.820626"><ele>795.0</ele><time>2026-04-25T11:02:03.785Z</time></trkpt><trkpt lat="40.0908345" lon="15.8205312"><ele>795.0</ele><time>2026-04-25T11:02:04.771Z</time></trkpt><trkpt lat="40.0909003" lon="15.8204301"><ele>795.0</ele><time>2026-04-25T11:02:05.785Z</time></trkpt><trkpt lat="40.0909699" lon="15.8203263"><ele>795.0</ele><time>2026-04-25T11:02:06.786Z</time></trkpt><trkpt lat="40.0910341" lon="15.8202098"><ele>795.0</ele><time>2026-04-25T11:02:07.772Z</time></trkpt><trkpt lat="40.0910832" lon="15.8200706"><ele>795.0</ele><time>2026-04-25T11:02:08.786Z</time></trkpt><trkpt lat="40.0911096" lon="15.8199075"><ele>795.0</ele><time>2026-04-25T11:02:09.776Z</time></trkpt><trkpt lat="40.0911193" lon="15.8197287"><ele>795.0</ele><time>2026-04-25T11:02:10.775Z</time></trkpt><trkpt lat="40.0911272" lon="15.8195451"><ele>795.0</ele><time>2026-04-25T11:02:11.782Z</time></trkpt><trkpt lat="40.091138" lon="15.8193568"><ele>795.0</ele><time>2026-04-25T11:02:12.779Z</time></trkpt><trkpt lat="40.0911545" lon="15.8191652"><ele>795.0</ele><time>2026-04-25T11:02:13.772Z</time></trkpt><trkpt lat="40.0911824" lon="15.8189721"><ele>794.3333333333333</ele><time>2026-04-25T11:02:14.778Z</time></trkpt><trkpt lat="40.0912247" lon="15.8187777"><ele>793.6666666666666</ele><time>2026-04-25T11:02:15.771Z</time></trkpt><trkpt lat="40.091273" lon="15.8185822"><ele>793.0</ele><time>2026-04-25T11:02:16.768Z</time></trkpt><trkpt lat="40.0913336" lon="15.8183823"><ele>791.6666666666666</ele><time>2026-04-25T11:02:17.769Z</time></trkpt><trkpt lat="40.091383" lon="15.8181705"><ele>790.3333333333333</ele><time>2026-04-25T11:02:18.781Z</time></trkpt><trkpt lat="40.0914282" lon="15.8179622"><ele>789.0</ele><time>2026-04-25T11:02:19.775Z</time></trkpt><trkpt lat="40.0914704" lon="15.8177542"><ele>787.3333333333333</ele><time>2026-04-25T11:02:20.772Z</time></trkpt><trkpt lat="40.0915144" lon="15.8175496"><ele>785.6666666666666</ele><time>2026-04-25T11:02:21.781Z</time></trkpt><trkpt lat="40.0915576" lon="15.8173454"><ele>784.0</ele><time>2026-04-25T11:02:22.771Z</time></trkpt><trkpt lat="40.0916016" lon="15.8171438"><ele>789.0</ele><time>2026-04-25T11:02:23.774Z</time></trkpt><trkpt lat="40.091649" lon="15.8169429"><ele>794.0</ele><time>2026-04-25T11:02:24.779Z</time></trkpt><trkpt lat="40.0916933" lon="15.8167405"><ele>799.0</ele><time>2026-04-25T11:02:25.812Z</time></trkpt><trkpt lat="40.0917342" lon="15.8165375"><ele>799.0</ele><time>2026-04-25T11:02:26.789Z</time></trkpt><trkpt lat="40.0917751" lon="15.8163359"><ele>799.0</ele><time>2026-04-25T11:02:27.798Z</time></trkpt><trkpt lat="40.0918191" lon="15.8161364"><ele>799.0</ele><time>2026-04-25T11:02:28.786Z</time></trkpt><trkpt lat="40.0918616" lon="15.8159363"><ele>798.25</ele><time>2026-04-25T11:02:29.781Z</time></trkpt><trkpt lat="40.0918982" lon="15.815745"><ele>797.5</ele><time>2026-04-25T11:02:30.783Z</time></trkpt><trkpt lat="40.0919077" lon="15.815563"><ele>796.75</ele><time>2026-04-25T11:02:31.779Z</time></trkpt><trkpt lat="40.0918748" lon="15.8153902"><ele>796.0</ele><time>2026-04-25T11:02:32.772Z</time></trkpt><trkpt lat="40.091807" lon="15.8152368"><ele>797.5</ele><time>2026-04-25T11:02:33.783Z</time></trkpt><trkpt lat="40.0917225" lon="15.8150948"><ele>799.0</ele><time>2026-04-25T11:02:34.779Z</time></trkpt><trkpt lat="40.0916417" lon="15.8149505"><ele>800.5</ele><time>2026-04-25T11:02:35.78Z</time></trkpt><trkpt lat="40.0915731" lon="15.8147946"><ele>802.0</ele><time>2026-04-25T11:02:36.775Z</time></trkpt><trkpt lat="40.0915286" lon="15.8146277"><ele>796.75</ele><time>2026-04-25T11:02:37.775Z</time></trkpt><trkpt lat="40.091513" lon="15.8144539"><ele>791.5</ele><time>2026-04-25T11:02:38.776Z</time></trkpt><trkpt lat="40.091526" lon="15.8142828"><ele>786.25</ele><time>2026-04-25T11:02:39.778Z</time></trkpt><trkpt lat="40.091543" lon="15.8141155"><ele>781.0</ele><time>2026-04-25T11:02:40.777Z</time></trkpt><trkpt lat="40.091546" lon="15.8139416"><ele>780.0</ele><time>2026-04-25T11:02:41.776Z</time></trkpt><trkpt lat="40.0915385" lon="15.81376"><ele>779.0</ele><time>2026-04-25T11:02:42.775Z</time></trkpt><trkpt lat="40.0914983" lon="15.8135843"><ele>778.0</ele><time>2026-04-25T11:02:43.774Z</time></trkpt><trkpt lat="40.0914506" lon="15.8134011"><ele>777.0</ele><time>2026-04-25T11:02:44.778Z</time></trkpt><trkpt lat="40.0913896" lon="15.8132252"><ele>776.6666666666667</ele><time>2026-04-25T11:02:45.786Z</time></trkpt><trkpt lat="40.0913249" lon="15.8130467"><ele>776.3333333333334</ele><time>2026-04-25T11:02:46.793Z</time></trkpt><trkpt lat="40.091258" lon="15.8128672"><ele>776.0</ele><time>2026-04-25T11:02:47.784Z</time></trkpt><trkpt lat="40.0911936" lon="15.8126922"><ele>777.75</ele><time>2026-04-25T11:02:48.785Z</time></trkpt><trkpt lat="40.0911307" lon="15.8125266"><ele>779.5</ele><time>2026-04-25T11:02:49.787Z</time></trkpt><trkpt lat="40.091075" lon="15.8123728"><ele>781.25</ele><time>2026-04-25T11:02:50.771Z</time></trkpt><trkpt lat="40.0910224" lon="15.8122185"><ele>783.0</ele><time>2026-04-25T11:02:51.777Z</time></trkpt><trkpt lat="40.0909716" lon="15.8120615"><ele>783.0</ele><time>2026-04-25T11:02:52.774Z</time></trkpt><trkpt lat="40.0909227" lon="15.811904"><ele>783.0</ele><time>2026-04-25T11:02:53.786Z</time></trkpt><trkpt lat="40.0908853" lon="15.8117422"><ele>783.0</ele><time>2026-04-25T11:02:54.776Z</time></trkpt><trkpt lat="40.0908675" lon="15.8115774"><ele>783.0</ele><time>2026-04-25T11:02:55.77Z</time></trkpt><trkpt lat="40.0908665" lon="15.8114127"><ele>783.4</ele><time>2026-04-25T11:02:56.782Z</time></trkpt><trkpt lat="40.0908781" lon="15.8112587"><ele>783.8</ele><time>2026-04-25T11:02:57.786Z</time></trkpt><trkpt lat="40.0909077" lon="15.8111233"><ele>784.2</ele><time>2026-04-25T11:02:58.78Z</time></trkpt><trkpt lat="40.0909654" lon="15.8110142"><ele>784.6</ele><time>2026-04-25T11:02:59.788Z</time></trkpt><trkpt lat="40.0910431" lon="15.8109296"><ele>785.0</ele><time>2026-04-25T11:03:00.783Z</time></trkpt><trkpt lat="40.0911284" lon="15.8108571"><ele>783.6666666666667</ele><time>2026-04-25T11:03:01.776Z</time></trkpt><trkpt lat="40.0912121" lon="15.8107875"><ele>782.3333333333334</ele><time>2026-04-25T11:03:02.774Z</time></trkpt><trkpt lat="40.0912907" lon="15.8107173"><ele>781.0</ele><time>2026-04-25T11:03:03.782Z</time></trkpt><trkpt lat="40.0913635" lon="15.8106503"><ele>779.6666666666667</ele><time>2026-04-25T11:03:04.774Z</time></trkpt><trkpt lat="40.0914268" lon="15.8105817"><ele>778.3333333333334</ele><time>2026-04-25T11:03:05.775Z</time></trkpt><trkpt lat="40.0914788" lon="15.8105123"><ele>777.0</ele><time>2026-04-25T11:03:06.786Z</time></trkpt><trkpt lat="40.0915143" lon="15.8104407"><ele>777.0</ele><time>2026-04-25T11:03:07.779Z</time></trkpt><trkpt lat="40.0915485" lon="15.810306"><ele>777.0</ele><time>2026-04-25T11:03:09.777Z</time></trkpt><trkpt lat="40.0915426" lon="15.8101836"><ele>777.0</ele><time>2026-04-25T11:03:11.775Z</time></trkpt><trkpt lat="40.0915266" lon="15.8100922"><ele>777.0</ele><time>2026-04-25T11:03:13.8Z</time></trkpt><trkpt lat="40.0914274" lon="15.8099579"><ele>777.0</ele><time>2026-04-25T11:03:40.783Z</time></trkpt><trkpt lat="40.0914645" lon="15.8100788"><ele>777.8</ele><time>2026-04-25T11:03:43.771Z</time></trkpt><trkpt lat="40.0915656" lon="15.810108"><ele>778.6</ele><time>2026-04-25T11:03:45.777Z</time></trkpt><trkpt lat="40.0916792" lon="15.8101136"><ele>779.4</ele><time>2026-04-25T11:03:47.774Z</time></trkpt><trkpt lat="40.0917713" lon="15.8101295"><ele>780.1999999999999</ele><time>2026-04-25T11:03:49.771Z</time></trkpt><trkpt lat="40.0918369" lon="15.8101578"><ele>781.0</ele><time>2026-04-25T11:03:51.784Z</time></trkpt><trkpt lat="40.09192" lon="15.8101776"><ele>781.6666666666666</ele><time>2026-04-25T11:14:00.762Z</time></trkpt><trkpt lat="40.0920058" lon="15.8102279"><ele>782.3333333333333</ele><time>2026-04-25T11:14:03.79Z</time></trkpt><trkpt lat="40.0920962" lon="15.8102425"><ele>783.0</ele><time>2026-04-25T11:14:05.793Z</time></trkpt><trkpt lat="40.0921762" lon="15.810244"><ele>783.6666666666667</ele><time>2026-04-25T11:14:07.787Z</time></trkpt><trkpt lat="40.0922409" lon="15.8102235"><ele>784.3333333333334</ele><time>2026-04-25T11:14:18.787Z</time></trkpt><trkpt lat="40.0923103" lon="15.8101541"><ele>785.0</ele><time>2026-04-25T11:14:21.786Z</time></trkpt><trkpt lat="40.0923736" lon="15.8101315"><ele>784.5000000000001</ele><time>2026-04-25T11:14:23.78Z</time></trkpt><trkpt lat="40.092461" lon="15.8101086"><ele>784.0</ele><time>2026-04-25T11:14:25.767Z</time></trkpt><trkpt lat="40.0925432" lon="15.8100888"><ele>783.5</ele><time>2026-04-25T11:14:27.788Z</time></trkpt><trkpt lat="40.0926221" lon="15.8100683"><ele>783.0</ele><time>2026-04-25T11:14:30.787Z</time></trkpt><trkpt lat="40.0926916" lon="15.8100486"><ele>782.5000000000001</ele><time>2026-04-25T11:14:32.782Z</time></trkpt><trkpt lat="40.0927737" lon="15.8100396"><ele>782.0</ele><time>2026-04-25T11:14:34.786Z</time></trkpt><trkpt lat="40.0928441" lon="15.8100248"><ele>781.9999999999999</ele><time>2026-04-25T11:14:36.784Z</time></trkpt><trkpt lat="40.09292" lon="15.8099899"><ele>782.0</ele><time>2026-04-25T11:14:41.792Z</time></trkpt><trkpt lat="40.0929833" lon="15.8099915"><ele>782.0</ele><time>2026-04-25T11:14:52.788Z</time></trkpt><trkpt lat="40.0930615" lon="15.8099793"><ele>782.0</ele><time>2026-04-25T11:14:55.776Z</time></trkpt><trkpt lat="40.0931087" lon="15.8099122"><ele>782.0</ele><time>2026-04-25T12:35:34.289Z</time></trkpt><trkpt lat="40.0930588" lon="15.8099624"><ele>781.9999999999999</ele><time>2026-04-25T12:36:19.458Z</time></trkpt><trkpt lat="40.0929874" lon="15.8099619"><ele>782.0</ele><time>2026-04-25T12:37:03.465Z</time></trkpt><trkpt lat="40.0928885" lon="15.8100047"><ele>782.0000000000001</ele><time>2026-04-25T12:37:05.482Z</time></trkpt><trkpt lat="40.0928251" lon="15.810019"><ele>782.0</ele><time>2026-04-25T12:37:06.469Z</time></trkpt><trkpt lat="40.092761" lon="15.8100327"><ele>782.0</ele><time>2026-04-25T12:37:07.484Z</time></trkpt><trkpt lat="40.0926394" lon="15.8100561"><ele>782.0</ele><time>2026-04-25T12:37:09.461Z</time></trkpt><trkpt lat="40.0925462" lon="15.8100785"><ele>782.0000000000001</ele><time>2026-04-25T12:37:11.489Z</time></trkpt><trkpt lat="40.0924619" lon="15.810107"><ele>782.0</ele><time>2026-04-25T12:37:13.485Z</time></trkpt><trkpt lat="40.0923498" lon="15.8101606"><ele>783.6666666666667</ele><time>2026-04-25T12:37:15.483Z</time></trkpt><trkpt lat="40.0922851" lon="15.8101847"><ele>785.3333333333334</ele><time>2026-04-25T12:37:16.492Z</time></trkpt><trkpt lat="40.0922191" lon="15.8102097"><ele>787.0</ele><time>2026-04-25T12:37:17.478Z</time></trkpt><trkpt lat="40.0921559" lon="15.8102335"><ele>788.6666666666667</ele><time>2026-04-25T12:37:18.461Z</time></trkpt><trkpt lat="40.0920398" lon="15.8102624"><ele>790.3333333333334</ele><time>2026-04-25T12:37:20.477Z</time></trkpt><trkpt lat="40.0919431" lon="15.8102324"><ele>792.0</ele><time>2026-04-25T12:37:22.469Z</time></trkpt><trkpt lat="40.0918818" lon="15.8101919"><ele>790.6</ele><time>2026-04-25T12:37:24.456Z</time></trkpt><trkpt lat="40.0918176" lon="15.8101567"><ele>789.2</ele><time>2026-04-25T12:37:26.468Z</time></trkpt><trkpt lat="40.091709" lon="15.8101261"><ele>787.8</ele><time>2026-04-25T12:37:28.459Z</time></trkpt><trkpt lat="40.0915956" lon="15.8101119"><ele>786.4</ele><time>2026-04-25T12:37:30.459Z</time></trkpt><trkpt lat="40.0915077" lon="15.8100693"><ele>785.0</ele><time>2026-04-25T12:37:32.454Z</time></trkpt><trkpt lat="40.0914538" lon="15.8100043"><ele>784.0</ele><time>2026-04-25T12:37:33.456Z</time></trkpt><trkpt lat="40.0913981" lon="15.8099363"><ele>783.0</ele><time>2026-04-25T12:37:34.467Z</time></trkpt><trkpt lat="40.0913455" lon="15.8098308"><ele>782.0</ele><time>2026-04-25T12:37:35.465Z</time></trkpt><trkpt lat="40.0912789" lon="15.8096507"><ele>781.0</ele><time>2026-04-25T12:37:36.461Z</time></trkpt><trkpt lat="40.0912317" lon="15.8094739"><ele>784.75</ele><time>2026-04-25T12:37:37.469Z</time></trkpt><trkpt lat="40.0912006" lon="15.8093071"><ele>788.5</ele><time>2026-04-25T12:37:38.461Z</time></trkpt><trkpt lat="40.0911691" lon="15.8091385"><ele>792.25</ele><time>2026-04-25T12:37:39.464Z</time></trkpt><trkpt lat="40.0911525" lon="15.8089751"><ele>796.0</ele><time>2026-04-25T12:37:40.461Z</time></trkpt><trkpt lat="40.0911454" lon="15.8088092"><ele>795.9999999999999</ele><time>2026-04-25T12:37:41.466Z</time></trkpt><trkpt lat="40.0911525" lon="15.808657"><ele>796.0</ele><time>2026-04-25T12:37:42.461Z</time></trkpt><trkpt lat="40.0911699" lon="15.8085444"><ele>796.0</ele><time>2026-04-25T12:37:43.451Z</time></trkpt><trkpt lat="40.0911944" lon="15.8084543"><ele>796.0</ele><time>2026-04-25T12:37:44.458Z</time></trkpt><trkpt lat="40.091236" lon="15.8083696"><ele>795.9999999999999</ele><time>2026-04-25T12:37:46.461Z</time></trkpt><trkpt lat="40.0912758" lon="15.8082876"><ele>796.0</ele><time>2026-04-25T12:37:48.473Z</time></trkpt><trkpt lat="40.0913272" lon="15.8081977"><ele>796.4999999999999</ele><time>2026-04-25T12:37:50.46Z</time></trkpt><trkpt lat="40.0913726" lon="15.808132"><ele>797.0</ele><time>2026-04-25T12:37:52.462Z</time></trkpt><trkpt lat="40.0914158" lon="15.8080685"><ele>797.5</ele><time>2026-04-25T12:37:54.47Z</time></trkpt><trkpt lat="40.0914985" lon="15.8079813"><ele>798.0</ele><time>2026-04-25T12:37:57.458Z</time></trkpt><trkpt lat="40.0915951" lon="15.8078928"><ele>798.4999999999999</ele><time>2026-04-25T12:37:59.469Z</time></trkpt><trkpt lat="40.0916603" lon="15.8078524"><ele>799.0</ele><time>2026-04-25T12:38:00.456Z</time></trkpt><trkpt lat="40.091729" lon="15.8078193"><ele>798.0</ele><time>2026-04-25T12:38:01.462Z</time></trkpt><trkpt lat="40.0917981" lon="15.8077902"><ele>797.0</ele><time>2026-04-25T12:38:02.465Z</time></trkpt><trkpt lat="40.0918651" lon="15.8077611"><ele>796.0</ele><time>2026-04-25T12:38:03.469Z</time></trkpt><trkpt lat="40.0919287" lon="15.8077245"><ele>795.0</ele><time>2026-04-25T12:38:04.466Z</time></trkpt><trkpt lat="40.0919863" lon="15.8076791"><ele>794.0</ele><time>2026-04-25T12:38:05.454Z</time></trkpt><trkpt lat="40.0920369" lon="15.8076219"><ele>793.0</ele><time>2026-04-25T12:38:06.452Z</time></trkpt><trkpt lat="40.0920779" lon="15.8075541"><ele>792.0</ele><time>2026-04-25T12:38:07.465Z</time></trkpt><trkpt lat="40.0921101" lon="15.8074769"><ele>791.8571428571429</ele><time>2026-04-25T12:38:08.464Z</time></trkpt><trkpt lat="40.0921301" lon="15.8073927"><ele>791.7142857142857</ele><time>2026-04-25T12:38:09.455Z</time></trkpt><trkpt lat="40.0921393" lon="15.8073015"><ele>791.5714285714286</ele><time>2026-04-25T12:38:10.457Z</time></trkpt><trkpt lat="40.0921428" lon="15.8072057"><ele>791.4285714285714</ele><time>2026-04-25T12:38:11.463Z</time></trkpt><trkpt lat="40.0921453" lon="15.8071059"><ele>791.2857142857142</ele><time>2026-04-25T12:38:12.459Z</time></trkpt><trkpt lat="40.0921361" lon="15.8070055"><ele>791.1428571428571</ele><time>2026-04-25T12:38:13.451Z</time></trkpt><trkpt lat="40.0921375" lon="15.8069009"><ele>791.0</ele><time>2026-04-25T12:38:14.457Z</time></trkpt><trkpt lat="40.0921407" lon="15.8067944"><ele>789.8333333333334</ele><time>2026-04-25T12:38:15.461Z</time></trkpt><trkpt lat="40.0921498" lon="15.8066868"><ele>788.6666666666667</ele><time>2026-04-25T12:38:16.465Z</time></trkpt><trkpt lat="40.0921708" lon="15.8065818"><ele>787.5</ele><time>2026-04-25T12:38:17.449Z</time></trkpt><trkpt lat="40.0921925" lon="15.8064796"><ele>786.3333333333333</ele><time>2026-04-25T12:38:18.465Z</time></trkpt><trkpt lat="40.0922422" lon="15.8063931"><ele>785.1666666666666</ele><time>2026-04-25T12:38:19.46Z</time></trkpt><trkpt lat="40.0923027" lon="15.8063261"><ele>784.0</ele><time>2026-04-25T12:38:20.452Z</time></trkpt><trkpt lat="40.0923649" lon="15.8062751"><ele>784.6666666666666</ele><time>2026-04-25T12:38:21.457Z</time></trkpt><trkpt lat="40.0924284" lon="15.8062378"><ele>785.3333333333333</ele><time>2026-04-25T12:38:22.47Z</time></trkpt><trkpt lat="40.0924956" lon="15.8061975"><ele>786.0</ele><time>2026-04-25T12:38:23.465Z</time></trkpt><trkpt lat="40.0925638" lon="15.806168"><ele>786.6666666666667</ele><time>2026-04-25T12:38:24.475Z</time></trkpt><trkpt lat="40.0926331" lon="15.8061353"><ele>787.3333333333334</ele><time>2026-04-25T12:38:25.47Z</time></trkpt><trkpt lat="40.0927086" lon="15.8061017"><ele>788.0</ele><time>2026-04-25T12:38:26.459Z</time></trkpt><trkpt lat="40.0927879" lon="15.8060665"><ele>788.0</ele><time>2026-04-25T12:38:27.456Z</time></trkpt><trkpt lat="40.0928717" lon="15.8060205"><ele>788.0</ele><time>2026-04-25T12:38:28.464Z</time></trkpt><trkpt lat="40.0929603" lon="15.8059633"><ele>788.0</ele><time>2026-04-25T12:38:29.453Z</time></trkpt><trkpt lat="40.0930591" lon="15.805887"><ele>788.0</ele><time>2026-04-25T12:38:30.462Z</time></trkpt><trkpt lat="40.0931718" lon="15.8057934"><ele>788.0</ele><time>2026-04-25T12:38:31.466Z</time></trkpt><trkpt lat="40.0932929" lon="15.8056968"><ele>789.0</ele><time>2026-04-25T12:38:32.458Z</time></trkpt><trkpt lat="40.0934132" lon="15.8056006"><ele>790.0</ele><time>2026-04-25T12:38:33.453Z</time></trkpt><trkpt lat="40.0935232" lon="15.8054889"><ele>791.0</ele><time>2026-04-25T12:38:34.471Z</time></trkpt><trkpt lat="40.0936239" lon="15.8053639"><ele>792.0</ele><time>2026-04-25T12:38:35.464Z</time></trkpt><trkpt lat="40.0937256" lon="15.8052456"><ele>791.25</ele><time>2026-04-25T12:38:36.468Z</time></trkpt><trkpt lat="40.0938355" lon="15.8051471"><ele>790.5</ele><time>2026-04-25T12:38:37.463Z</time></trkpt><trkpt lat="40.0939503" lon="15.8050717"><ele>789.75</ele><time>2026-04-25T12:38:38.455Z</time></trkpt><trkpt lat="40.0940688" lon="15.8050236"><ele>789.0</ele><time>2026-04-25T12:38:39.462Z</time></trkpt><trkpt lat="40.0941971" lon="15.8050029"><ele>793.0</ele><time>2026-04-25T12:38:40.462Z</time></trkpt><trkpt lat="40.0943397" lon="15.8050001"><ele>797.0</ele><time>2026-04-25T12:38:41.461Z</time></trkpt><trkpt lat="40.0944962" lon="15.8050026"><ele>801.0</ele><time>2026-04-25T12:38:42.461Z</time></trkpt><trkpt lat="40.0946609" lon="15.805004"><ele>801.0</ele><time>2026-04-25T12:38:43.474Z</time></trkpt><trkpt lat="40.0948296" lon="15.8050032"><ele>801.0</ele><time>2026-04-25T12:38:44.464Z</time></trkpt><trkpt lat="40.0949963" lon="15.8050011"><ele>801.0</ele><time>2026-04-25T12:38:45.459Z</time></trkpt><trkpt lat="40.0951617" lon="15.8049986"><ele>801.0</ele><time>2026-04-25T12:38:46.46Z</time></trkpt><trkpt lat="40.09533" lon="15.8049932"><ele>801.0</ele><time>2026-04-25T12:38:47.463Z</time></trkpt><trkpt lat="40.0954762" lon="15.8049722"><ele>801.0</ele><time>2026-04-25T12:38:48.47Z</time></trkpt><trkpt lat="40.0956158" lon="15.8049209"><ele>801.0</ele><time>2026-04-25T12:38:49.471Z</time></trkpt><trkpt lat="40.0957494" lon="15.8048446"><ele>801.0</ele><time>2026-04-25T12:38:50.472Z</time></trkpt><trkpt lat="40.0958753" lon="15.8047576"><ele>801.0</ele><time>2026-04-25T12:38:51.466Z</time></trkpt><trkpt lat="40.0960051" lon="15.8046658"><ele>801.0</ele><time>2026-04-25T12:38:52.458Z</time></trkpt><trkpt lat="40.0961375" lon="15.8045709"><ele>803.3333333333333</ele><time>2026-04-25T12:38:53.462Z</time></trkpt><trkpt lat="40.0962696" lon="15.8044713"><ele>805.6666666666666</ele><time>2026-04-25T12:38:54.458Z</time></trkpt><trkpt lat="40.0964001" lon="15.8043747"><ele>808.0</ele><time>2026-04-25T12:38:55.464Z</time></trkpt><trkpt lat="40.0965289" lon="15.8042774"><ele>812.75</ele><time>2026-04-25T12:38:56.456Z</time></trkpt><trkpt lat="40.0966394" lon="15.8041695"><ele>817.5</ele><time>2026-04-25T12:38:57.47Z</time></trkpt><trkpt lat="40.0967363" lon="15.8040473"><ele>822.25</ele><time>2026-04-25T12:38:58.448Z</time></trkpt><trkpt lat="40.0968233" lon="15.8039154"><ele>827.0</ele><time>2026-04-25T12:38:59.461Z</time></trkpt><trkpt lat="40.09689" lon="15.8037814"><ele>827.0</ele><time>2026-04-25T12:39:00.454Z</time></trkpt><trkpt lat="40.0969223" lon="15.8036493"><ele>827.0</ele><time>2026-04-25T12:39:01.45Z</time></trkpt><trkpt lat="40.0969146" lon="15.8035234"><ele>827.0</ele><time>2026-04-25T12:39:02.459Z</time></trkpt><trkpt lat="40.0968694" lon="15.8034055"><ele>827.0</ele><time>2026-04-25T12:39:03.458Z</time></trkpt><trkpt lat="40.0968029" lon="15.8033008"><ele>827.0</ele><time>2026-04-25T12:39:04.454Z</time></trkpt><trkpt lat="40.0929603" lon="15.8059633"><ele>818.25</ele><time>2026-04-25T12:38:29.453Z</time></trkpt><trkpt lat="40.0930591" lon="15.805887"><ele>809.5</ele><time>2026-04-25T12:38:30.462Z</time></trkpt><trkpt lat="40.0931718" lon="15.8057934"><ele>800.75</ele><time>2026-04-25T12:38:31.466Z</time></trkpt><trkpt lat="40.0932929" lon="15.8056968"><ele>792.0</ele><time>2026-04-25T12:38:32.458Z</time></trkpt><trkpt lat="40.0934132" lon="15.8056006"><ele>792.0</ele><time>2026-04-25T12:38:33.453Z</time></trkpt><trkpt lat="40.0935232" lon="15.8054889"><ele>792.0</ele><time>2026-04-25T12:38:34.471Z</time></trkpt><trkpt lat="40.0936239" lon="15.8053639"><ele>792.0</ele><time>2026-04-25T12:38:35.464Z</time></trkpt><trkpt lat="40.0937256" lon="15.8052456"><ele>792.0</ele><time>2026-04-25T12:38:36.468Z</time></trkpt><trkpt lat="40.0938355" lon="15.8051471"><ele>791.25</ele><time>2026-04-25T12:38:37.463Z</time></trkpt><trkpt lat="40.0939503" lon="15.8050717"><ele>790.5</ele><time>2026-04-25T12:38:38.455Z</time></trkpt><trkpt lat="40.0940688" lon="15.8050236"><ele>789.75</ele><time>2026-04-25T12:38:39.462Z</time></trkpt><trkpt lat="40.0941971" lon="15.8050029"><ele>789.0</ele><time>2026-04-25T12:38:40.462Z</time></trkpt><trkpt lat="40.0943397" lon="15.8050001"><ele>793.0</ele><time>2026-04-25T12:38:41.461Z</time></trkpt><trkpt lat="40.0944962" lon="15.8050026"><ele>797.0</ele><time>2026-04-25T12:38:42.461Z</time></trkpt><trkpt lat="40.0946609" lon="15.805004"><ele>801.0</ele><time>2026-04-25T12:38:43.474Z</time></trkpt><trkpt lat="40.0948296" lon="15.8050032"><ele>801.0</ele><time>2026-04-25T12:38:44.464Z</time></trkpt><trkpt lat="40.0949963" lon="15.8050011"><ele>801.0</ele><time>2026-04-25T12:38:45.459Z</time></trkpt><trkpt lat="40.0951617" lon="15.8049986"><ele>801.0</ele><time>2026-04-25T12:38:46.46Z</time></trkpt><trkpt lat="40.09533" lon="15.8049932"><ele>801.0</ele><time>2026-04-25T12:38:47.463Z</time></trkpt><trkpt lat="40.0954762" lon="15.8049722"><ele>801.0</ele><time>2026-04-25T12:38:48.47Z</time></trkpt><trkpt lat="40.0956158" lon="15.8049209"><ele>801.0</ele><time>2026-04-25T12:38:49.471Z</time></trkpt><trkpt lat="40.0957494" lon="15.8048446"><ele>801.0</ele><time>2026-04-25T12:38:50.472Z</time></trkpt><trkpt lat="40.0958753" lon="15.8047576"><ele>803.3333333333333</ele><time>2026-04-25T12:38:51.466Z</time></trkpt><trkpt lat="40.0960051" lon="15.8046658"><ele>805.6666666666666</ele><time>2026-04-25T12:38:52.458Z</time></trkpt><trkpt lat="40.0961375" lon="15.8045709"><ele>808.0</ele><time>2026-04-25T12:38:53.462Z</time></trkpt><trkpt lat="40.0962696" lon="15.8044713"><ele>808.0</ele><time>2026-04-25T12:38:54.458Z</time></trkpt><trkpt lat="40.0964001" lon="15.8043747"><ele>808.0</ele><time>2026-04-25T12:38:55.464Z</time></trkpt><trkpt lat="40.0965289" lon="15.8042774"><ele>808.0</ele><time>2026-04-25T12:38:56.456Z</time></trkpt><trkpt lat="40.0966394" lon="15.8041695"><ele>808.0</ele><time>2026-04-25T12:38:57.47Z</time></trkpt><trkpt lat="40.0967363" lon="15.8040473"><ele>812.75</ele><time>2026-04-25T12:38:58.448Z</time></trkpt><trkpt lat="40.0968233" lon="15.8039154"><ele>817.5</ele><time>2026-04-25T12:38:59.461Z</time></trkpt><trkpt lat="40.09689" lon="15.8037814"><ele>822.25</ele><time>2026-04-25T12:39:00.454Z</time></trkpt><trkpt lat="40.0969223" lon="15.8036493"><ele>827.0</ele><time>2026-04-25T12:39:01.45Z</time></trkpt><trkpt lat="40.0969146" lon="15.8035234"><ele>826.4000000000001</ele><time>2026-04-25T12:39:02.459Z</time></trkpt><trkpt lat="40.0968694" lon="15.8034055"><ele>825.8000000000001</ele><time>2026-04-25T12:39:03.458Z</time></trkpt><trkpt lat="40.0968029" lon="15.8033008"><ele>825.2</ele><time>2026-04-25T12:39:04.454Z</time></trkpt><trkpt lat="40.0967229" lon="15.8031929"><ele>824.6</ele><time>2026-04-25T12:39:05.464Z</time></trkpt><trkpt lat="40.0966383" lon="15.8030828"><ele>824.0</ele><time>2026-04-25T12:39:06.461Z</time></trkpt><trkpt lat="40.0965557" lon="15.8029627"><ele>821.75</ele><time>2026-04-25T12:39:07.457Z</time></trkpt><trkpt lat="40.0964976" lon="15.8028174"><ele>819.5</ele><time>2026-04-25T12:39:08.452Z</time></trkpt><trkpt lat="40.0964573" lon="15.8026442"><ele>817.25</ele><time>2026-04-25T12:39:09.455Z</time></trkpt><trkpt lat="40.0964332" lon="15.8024434"><ele>815.0</ele><time>2026-04-25T12:39:10.455Z</time></trkpt><trkpt lat="40.0964138" lon="15.8022276"><ele>815.0</ele><time>2026-04-25T12:39:11.456Z</time></trkpt><trkpt lat="40.0964016" lon="15.802009"><ele>815.0</ele><time>2026-04-25T12:39:12.456Z</time></trkpt><trkpt lat="40.0963893" lon="15.8017829"><ele>815.0</ele><time>2026-04-25T12:39:13.458Z</time></trkpt><trkpt lat="40.0963778" lon="15.8015544"><ele>815.0</ele><time>2026-04-25T12:39:14.456Z</time></trkpt><trkpt lat="40.0963641" lon="15.8013315"><ele>815.0</ele><time>2026-04-25T12:39:15.45Z</time></trkpt><trkpt lat="40.0963675" lon="15.8011074"><ele>815.0</ele><time>2026-04-25T12:39:16.461Z</time></trkpt><trkpt lat="40.0963994" lon="15.8008943"><ele>814.5</ele><time>2026-04-25T12:39:17.472Z</time></trkpt><trkpt lat="40.0964463" lon="15.8006992"><ele>814.0</ele><time>2026-04-25T12:39:18.452Z</time></trkpt><trkpt lat="40.0964982" lon="15.8005288"><ele>813.5</ele><time>2026-04-25T12:39:19.454Z</time></trkpt><trkpt lat="40.0965538" lon="15.8003772"><ele>813.0</ele><time>2026-04-25T12:39:20.455Z</time></trkpt><trkpt lat="40.0966143" lon="15.8002393"><ele>817.2</ele><time>2026-04-25T12:39:21.46Z</time></trkpt><trkpt lat="40.0966913" lon="15.8001237"><ele>821.4</ele><time>2026-04-25T12:39:22.465Z</time></trkpt><trkpt lat="40.0967789" lon="15.8000361"><ele>825.6</ele><time>2026-04-25T12:39:23.461Z</time></trkpt><trkpt lat="40.0968722" lon="15.7999686"><ele>829.8000000000001</ele><time>2026-04-25T12:39:24.461Z</time></trkpt><trkpt lat="40.0969855" lon="15.7999574"><ele>834.0</ele><time>2026-04-25T12:39:25.456Z</time></trkpt><trkpt lat="40.0971192" lon="15.7999593"><ele>834.0</ele><time>2026-04-25T12:39:26.454Z</time></trkpt><trkpt lat="40.0972575" lon="15.7999714"><ele>834.0</ele><time>2026-04-25T12:39:27.47Z</time></trkpt><trkpt lat="40.0973908" lon="15.7999728"><ele>834.0</ele><time>2026-04-25T12:39:28.455Z</time></trkpt><trkpt lat="40.0975224" lon="15.799944"><ele>834.0</ele><time>2026-04-25T12:39:29.455Z</time></trkpt><trkpt lat="40.0976434" lon="15.7998874"><ele>835.75</ele><time>2026-04-25T12:39:30.459Z</time></trkpt><trkpt lat="40.0977448" lon="15.799797"><ele>837.5</ele><time>2026-04-25T12:39:31.467Z</time></trkpt><trkpt lat="40.0978288" lon="15.7996603"><ele>839.25</ele><time>2026-04-25T12:39:32.454Z</time></trkpt><trkpt lat="40.0979047" lon="15.7994953"><ele>841.0</ele><time>2026-04-25T12:39:33.461Z</time></trkpt><trkpt lat="40.0979817" lon="15.7993179"><ele>841.0</ele><time>2026-04-25T12:39:34.45Z</time></trkpt><trkpt lat="40.0980648" lon="15.7991464"><ele>841.0</ele><time>2026-04-25T12:39:35.471Z</time></trkpt><trkpt lat="40.0981514" lon="15.7989863"><ele>841.0</ele><time>2026-04-25T12:39:36.449Z</time></trkpt><trkpt lat="40.0982341" lon="15.7988424"><ele>841.0</ele><time>2026-04-25T12:39:37.455Z</time></trkpt><trkpt lat="40.0983198" lon="15.7986948"><ele>844.6666666666666</ele><time>2026-04-25T12:39:38.451Z</time></trkpt><trkpt lat="40.0984224" lon="15.7985427"><ele>848.3333333333333</ele><time>2026-04-25T12:39:39.457Z</time></trkpt><trkpt lat="40.0985333" lon="15.7983921"><ele>852.0</ele><time>2026-04-25T12:39:40.466Z</time></trkpt><trkpt lat="40.0986424" lon="15.7982419"><ele>852.0</ele><time>2026-04-25T12:39:41.455Z</time></trkpt><trkpt lat="40.098731" lon="15.7980884"><ele>852.0</ele><time>2026-04-25T12:39:42.451Z</time></trkpt><trkpt lat="40.0987961" lon="15.7979408"><ele>852.0</ele><time>2026-04-25T12:39:43.461Z</time></trkpt><trkpt lat="40.0988333" lon="15.7978037"><ele>852.0</ele><time>2026-04-25T12:39:44.449Z</time></trkpt><trkpt lat="40.0988571" lon="15.7976719"><ele>852.8</ele><time>2026-04-25T12:39:45.449Z</time></trkpt><trkpt lat="40.0988421" lon="15.7975467"><ele>853.6</ele><time>2026-04-25T12:39:46.453Z</time></trkpt><trkpt lat="40.0988161" lon="15.7974161"><ele>854.3999999999999</ele><time>2026-04-25T12:39:47.456Z</time></trkpt><trkpt lat="40.0988288" lon="15.7972781"><ele>855.1999999999999</ele><time>2026-04-25T12:39:48.466Z</time></trkpt><trkpt lat="40.09888" lon="15.7971575"><ele>856.0</ele><time>2026-04-25T12:39:49.463Z</time></trkpt><trkpt lat="40.0989474" lon="15.7970658"><ele>856.0</ele><time>2026-04-25T12:39:50.456Z</time></trkpt><trkpt lat="40.0990399" lon="15.7969944"><ele>856.0</ele><time>2026-04-25T12:39:51.459Z</time></trkpt><trkpt lat="40.0991437" lon="15.7969294"><ele>856.0</ele><time>2026-04-25T12:39:52.459Z</time></trkpt><trkpt lat="40.0992558" lon="15.7968832"><ele>856.0</ele><time>2026-04-25T12:39:53.46Z</time></trkpt><trkpt lat="40.0993658" lon="15.7968719"><ele>858.0</ele><time>2026-04-25T12:39:54.457Z</time></trkpt><trkpt lat="40.0994654" lon="15.7969147"><ele>859.9999999999999</ele><time>2026-04-25T12:39:55.459Z</time></trkpt><trkpt lat="40.0995619" lon="15.7969913"><ele>861.9999999999999</ele><time>2026-04-25T12:39:56.458Z</time></trkpt><trkpt lat="40.0996559" lon="15.7970754"><ele>864.0</ele><time>2026-04-25T12:39:57.461Z</time></trkpt><trkpt lat="40.0997539" lon="15.7971482"><ele>866.0</ele><time>2026-04-25T12:39:58.46Z</time></trkpt><trkpt lat="40.0998603" lon="15.7971963"><ele>867.0</ele><time>2026-04-25T12:39:59.45Z</time></trkpt><trkpt lat="40.0999724" lon="15.7972145"><ele>868.0</ele><time>2026-04-25T12:40:00.461Z</time></trkpt><trkpt lat="40.1000809" lon="15.7971875"><ele>869.0</ele><time>2026-04-25T12:40:01.463Z</time></trkpt><trkpt lat="40.1001824" lon="15.7971188"><ele>870.0</ele><time>2026-04-25T12:40:02.446Z</time></trkpt><trkpt lat="40.1002723" lon="15.7970195"><ele>870.0</ele><time>2026-04-25T12:40:03.467Z</time></trkpt><trkpt lat="40.1003583" lon="15.7969058"><ele>870.0</ele><time>2026-04-25T12:40:04.457Z</time></trkpt><trkpt lat="40.1004477" lon="15.7967997"><ele>870.0</ele><time>2026-04-25T12:40:05.464Z</time></trkpt><trkpt lat="40.1005544" lon="15.7967205"><ele>870.0</ele><time>2026-04-25T12:40:06.457Z</time></trkpt><trkpt lat="40.1006808" lon="15.7966705"><ele>868.3333333333333</ele><time>2026-04-25T12:40:07.45Z</time></trkpt><trkpt lat="40.1008219" lon="15.7966448"><ele>866.6666666666666</ele><time>2026-04-25T12:40:08.459Z</time></trkpt><trkpt lat="40.1009788" lon="15.7966405"><ele>865.0</ele><time>2026-04-25T12:40:09.47Z</time></trkpt><trkpt lat="40.1011435" lon="15.7966401"><ele>865.0</ele><time>2026-04-25T12:40:10.455Z</time></trkpt><trkpt lat="40.1013107" lon="15.7966209"><ele>865.0</ele><time>2026-04-25T12:40:11.458Z</time></trkpt><trkpt lat="40.1014782" lon="15.7965814"><ele>865.0</ele><time>2026-04-25T12:40:12.469Z</time></trkpt><trkpt lat="40.1016498" lon="15.7965371"><ele>864.6666666666666</ele><time>2026-04-25T12:40:13.461Z</time></trkpt><trkpt lat="40.1018214" lon="15.7964923"><ele>864.3333333333333</ele><time>2026-04-25T12:40:14.459Z</time></trkpt><trkpt lat="40.1019896" lon="15.7964455"><ele>864.0</ele><time>2026-04-25T12:40:15.448Z</time></trkpt><trkpt lat="40.1021494" lon="15.7963747"><ele>864.0</ele><time>2026-04-25T12:40:16.456Z</time></trkpt><trkpt lat="40.1023048" lon="15.7962685"><ele>864.0</ele><time>2026-04-25T12:40:17.452Z</time></trkpt><trkpt lat="40.1024551" lon="15.7961659"><ele>864.0</ele><time>2026-04-25T12:40:18.454Z</time></trkpt><trkpt lat="40.1026027" lon="15.7960588"><ele>862.0</ele><time>2026-04-25T12:40:19.462Z</time></trkpt><trkpt lat="40.1027518" lon="15.7959582"><ele>860.0</ele><time>2026-04-25T12:40:20.462Z</time></trkpt><trkpt lat="40.1028947" lon="15.7958559"><ele>858.0</ele><time>2026-04-25T12:40:21.45Z</time></trkpt><trkpt lat="40.1030331" lon="15.7957489"><ele>858.0</ele><time>2026-04-25T12:40:22.448Z</time></trkpt><trkpt lat="40.1031626" lon="15.795632"><ele>858.0</ele><time>2026-04-25T12:40:23.451Z</time></trkpt><trkpt lat="40.1032798" lon="15.7954961"><ele>858.0</ele><time>2026-04-25T12:40:24.453Z</time></trkpt><trkpt lat="40.1033878" lon="15.795342"><ele>860.0</ele><time>2026-04-25T12:40:25.461Z</time></trkpt><trkpt lat="40.1034907" lon="15.7951767"><ele>862.0</ele><time>2026-04-25T12:40:26.457Z</time></trkpt><trkpt lat="40.103594" lon="15.795007"><ele>864.0</ele><time>2026-04-25T12:40:27.447Z</time></trkpt><trkpt lat="40.1036992" lon="15.7948422"><ele>859.6666666666667</ele><time>2026-04-25T12:40:28.46Z</time></trkpt><trkpt lat="40.1038125" lon="15.7946875"><ele>855.3333333333334</ele><time>2026-04-25T12:40:29.457Z</time></trkpt><trkpt lat="40.1039253" lon="15.7945392"><ele>851.0</ele><time>2026-04-25T12:40:30.456Z</time></trkpt><trkpt lat="40.1040599" lon="15.7944297"><ele>850.0</ele><time>2026-04-25T12:40:31.46Z</time></trkpt><trkpt lat="40.1042026" lon="15.7943213"><ele>849.0</ele><time>2026-04-25T12:40:32.446Z</time></trkpt><trkpt lat="40.1043575" lon="15.7942816"><ele>848.0</ele><time>2026-04-25T12:40:33.451Z</time></trkpt><trkpt lat="40.104512" lon="15.7942466"><ele>848.0</ele><time>2026-04-25T12:40:34.455Z</time></trkpt><trkpt lat="40.1046606" lon="15.7942009"><ele>848.0</ele><time>2026-04-25T12:40:35.465Z</time></trkpt><trkpt lat="40.1047879" lon="15.7941242"><ele>848.0</ele><time>2026-04-25T12:40:36.449Z</time></trkpt><trkpt lat="40.1049145" lon="15.7940154"><ele>848.0</ele><time>2026-04-25T12:40:37.465Z</time></trkpt><trkpt lat="40.1050256" lon="15.7938936"><ele>849.25</ele><time>2026-04-25T12:40:38.446Z</time></trkpt><trkpt lat="40.1051341" lon="15.7937718"><ele>850.5</ele><time>2026-04-25T12:40:39.451Z</time></trkpt><trkpt lat="40.105248" lon="15.7936618"><ele>851.75</ele><time>2026-04-25T12:40:40.45Z</time></trkpt><trkpt lat="40.1053832" lon="15.7935871"><ele>853.0</ele><time>2026-04-25T12:40:41.444Z</time></trkpt><trkpt lat="40.1055297" lon="15.7935497"><ele>853.0</ele><time>2026-04-25T12:40:42.442Z</time></trkpt><trkpt lat="40.1056725" lon="15.7935403"><ele>853.0</ele><time>2026-04-25T12:40:43.453Z</time></trkpt><trkpt lat="40.1058203" lon="15.7935575"><ele>853.0</ele><time>2026-04-25T12:40:44.457Z</time></trkpt><trkpt lat="40.1059672" lon="15.7935848"><ele>853.0</ele><time>2026-04-25T12:40:45.456Z</time></trkpt><trkpt lat="40.106116" lon="15.7936207"><ele>855.6666666666666</ele><time>2026-04-25T12:40:46.445Z</time></trkpt><trkpt lat="40.1062664" lon="15.7936545"><ele>858.3333333333333</ele><time>2026-04-25T12:40:47.452Z</time></trkpt><trkpt lat="40.1064111" lon="15.7936871"><ele>861.0</ele><time>2026-04-25T12:40:48.442Z</time></trkpt><trkpt lat="40.1065632" lon="15.7937221"><ele>859.5</ele><time>2026-04-25T12:40:49.451Z</time></trkpt><trkpt lat="40.1067079" lon="15.7937362"><ele>858.0</ele><time>2026-04-25T12:40:50.46Z</time></trkpt><trkpt lat="40.1068512" lon="15.793718"><ele>856.5</ele><time>2026-04-25T12:40:51.46Z</time></trkpt><trkpt lat="40.1069821" lon="15.7936635"><ele>855.0</ele><time>2026-04-25T12:40:52.458Z</time></trkpt><trkpt lat="40.1071134" lon="15.7935964"><ele>850.75</ele><time>2026-04-25T12:40:53.461Z</time></trkpt><trkpt lat="40.1072123" lon="15.7934677"><ele>846.5</ele><time>2026-04-25T12:40:54.458Z</time></trkpt><trkpt lat="40.1072926" lon="15.7933114"><ele>842.25</ele><time>2026-04-25T12:40:55.463Z</time></trkpt><trkpt lat="40.107353" lon="15.7931445"><ele>838.0</ele><time>2026-04-25T12:40:56.451Z</time></trkpt><trkpt lat="40.1073946" lon="15.7929761"><ele>837.0</ele><time>2026-04-25T12:40:57.462Z</time></trkpt><trkpt lat="40.1074283" lon="15.7928159"><ele>836.0</ele><time>2026-04-25T12:40:58.453Z</time></trkpt><trkpt lat="40.1074816" lon="15.7926716"><ele>835.0</ele><time>2026-04-25T12:40:59.463Z</time></trkpt><trkpt lat="40.1075597" lon="15.7925618"><ele>834.0</ele><time>2026-04-25T12:41:00.459Z</time></trkpt><trkpt lat="40.1076591" lon="15.7924827"><ele>834.0</ele><time>2026-04-25T12:41:01.459Z</time></trkpt><trkpt lat="40.1077732" lon="15.7924377"><ele>834.0</ele><time>2026-04-25T12:41:02.453Z</time></trkpt><trkpt lat="40.1078988" lon="15.7924337"><ele>834.0</ele><time>2026-04-25T12:41:03.468Z</time></trkpt><trkpt lat="40.1080212" lon="15.7924598"><ele>834.0</ele><time>2026-04-25T12:41:04.456Z</time></trkpt><trkpt lat="40.1081438" lon="15.7924845"><ele>834.75</ele><time>2026-04-25T12:41:05.454Z</time></trkpt><trkpt lat="40.1082574" lon="15.7924644"><ele>835.5</ele><time>2026-04-25T12:41:06.455Z</time></trkpt><trkpt lat="40.1083643" lon="15.7923942"><ele>836.25</ele><time>2026-04-25T12:41:07.453Z</time></trkpt><trkpt lat="40.1084569" lon="15.7922847"><ele>837.0</ele><time>2026-04-25T12:41:08.456Z</time></trkpt><trkpt lat="40.108527" lon="15.7921469"><ele>837.0</ele><time>2026-04-25T12:41:09.456Z</time></trkpt><trkpt lat="40.1085906" lon="15.7919964"><ele>837.0</ele><time>2026-04-25T12:41:10.458Z</time></trkpt><trkpt lat="40.1086249" lon="15.791817"><ele>837.0</ele><time>2026-04-25T12:41:11.45Z</time></trkpt><trkpt lat="40.1086609" lon="15.7916389"><ele>837.0</ele><time>2026-04-25T12:41:12.453Z</time></trkpt><trkpt lat="40.1087137" lon="15.7914748"><ele>835.5</ele><time>2026-04-25T12:41:13.466Z</time></trkpt><trkpt lat="40.1087917" lon="15.7913314"><ele>834.0</ele><time>2026-04-25T12:41:14.452Z</time></trkpt><trkpt lat="40.1088928" lon="15.7912174"><ele>832.5</ele><time>2026-04-25T12:41:15.467Z</time></trkpt><trkpt lat="40.108999" lon="15.7911078"><ele>831.0</ele><time>2026-04-25T12:41:16.456Z</time></trkpt><trkpt lat="40.1091109" lon="15.7910176"><ele>829.75</ele><time>2026-04-25T12:41:17.46Z</time></trkpt><trkpt lat="40.1092364" lon="15.7909615"><ele>828.5</ele><time>2026-04-25T12:41:18.456Z</time></trkpt><trkpt lat="40.1093648" lon="15.7909368"><ele>827.25</ele><time>2026-04-25T12:41:19.454Z</time></trkpt><trkpt lat="40.109494" lon="15.7909249"><ele>826.0</ele><time>2026-04-25T12:41:20.456Z</time></trkpt><trkpt lat="40.1096129" lon="15.7908952"><ele>826.0</ele><time>2026-04-25T12:41:21.449Z</time></trkpt><trkpt lat="40.1097216" lon="15.7908241"><ele>826.0</ele><time>2026-04-25T12:41:22.454Z</time></trkpt><trkpt lat="40.1098259" lon="15.7907379"><ele>826.0</ele><time>2026-04-25T12:41:23.456Z</time></trkpt><trkpt lat="40.1098998" lon="15.7905858"><ele>826.0</ele><time>2026-04-25T12:41:24.455Z</time></trkpt><trkpt lat="40.1099598" lon="15.790405"><ele>827.3333333333333</ele><time>2026-04-25T12:41:25.45Z</time></trkpt><trkpt lat="40.1100041" lon="15.7902082"><ele>828.6666666666667</ele><time>2026-04-25T12:41:26.446Z</time></trkpt><trkpt lat="40.1100312" lon="15.7900099"><ele>830.0</ele><time>2026-04-25T12:41:27.451Z</time></trkpt><trkpt lat="40.1100362" lon="15.7898138"><ele>830.0</ele><time>2026-04-25T12:41:28.452Z</time></trkpt><trkpt lat="40.1100247" lon="15.789635"><ele>830.0</ele><time>2026-04-25T12:41:29.456Z</time></trkpt><trkpt lat="40.1099908" lon="15.7894826"><ele>830.0</ele><time>2026-04-25T12:41:30.456Z</time></trkpt><trkpt lat="40.1099326" lon="15.7893695"><ele>830.0</ele><time>2026-04-25T12:41:31.465Z</time></trkpt><trkpt lat="40.1098506" lon="15.7893068"><ele>826.0</ele><time>2026-04-25T12:41:32.452Z</time></trkpt><trkpt lat="40.1097548" lon="15.7892837"><ele>822.0</ele><time>2026-04-25T12:41:33.452Z</time></trkpt><trkpt lat="40.1096543" lon="15.7892558"><ele>818.0</ele><time>2026-04-25T12:41:34.459Z</time></trkpt><trkpt lat="40.1095687" lon="15.7892165"><ele>814.0</ele><time>2026-04-25T12:41:35.452Z</time></trkpt><trkpt lat="40.1094969" lon="15.7891515"><ele>810.0</ele><time>2026-04-25T12:41:36.459Z</time></trkpt><trkpt lat="40.1094853" lon="15.7890424"><ele>810.0</ele><time>2026-04-25T12:41:37.464Z</time></trkpt><trkpt lat="40.1095065" lon="15.7889095"><ele>810.0</ele><time>2026-04-25T12:41:38.457Z</time></trkpt><trkpt lat="40.1095718" lon="15.7888212"><ele>810.0</ele><time>2026-04-25T12:41:39.452Z</time></trkpt><trkpt lat="40.1096759" lon="15.788746"><ele>810.0</ele><time>2026-04-25T12:41:40.458Z</time></trkpt><trkpt lat="40.1097841" lon="15.7886621"><ele>810.0</ele><time>2026-04-25T12:41:41.458Z</time></trkpt><trkpt lat="40.1098947" lon="15.7885711"><ele>812.75</ele><time>2026-04-25T12:41:42.458Z</time></trkpt><trkpt lat="40.1100009" lon="15.7884741"><ele>815.5</ele><time>2026-04-25T12:41:43.456Z</time></trkpt><trkpt lat="40.1100824" lon="15.7883582"><ele>818.25</ele><time>2026-04-25T12:41:44.46Z</time></trkpt><trkpt lat="40.1101262" lon="15.7882225"><ele>821.0</ele><time>2026-04-25T12:41:45.464Z</time></trkpt><trkpt lat="40.1101348" lon="15.7880734"><ele>821.0</ele><time>2026-04-25T12:41:46.457Z</time></trkpt><trkpt lat="40.1100819" lon="15.7879235"><ele>821.0</ele><time>2026-04-25T12:41:47.46Z</time></trkpt><trkpt lat="40.1100177" lon="15.7877852"><ele>821.0</ele><time>2026-04-25T12:41:48.454Z</time></trkpt><trkpt lat="40.1099309" lon="15.7876581"><ele>821.0</ele><time>2026-04-25T12:41:49.455Z</time></trkpt><trkpt lat="40.1098554" lon="15.7875173"><ele>817.75</ele><time>2026-04-25T12:41:50.459Z</time></trkpt><trkpt lat="40.1097982" lon="15.7873515"><ele>814.5</ele><time>2026-04-25T12:41:51.442Z</time></trkpt><trkpt lat="40.1097542" lon="15.787175"><ele>811.25</ele><time>2026-04-25T12:41:52.449Z</time></trkpt><trkpt lat="40.1097205" lon="15.7869996"><ele>808.0</ele><time>2026-04-25T12:41:53.465Z</time></trkpt><trkpt lat="40.1096854" lon="15.7868266"><ele>808.0</ele><time>2026-04-25T12:41:54.48Z</time></trkpt><trkpt lat="40.1096605" lon="15.7866594"><ele>808.0</ele><time>2026-04-25T12:41:55.458Z</time></trkpt><trkpt lat="40.109644" lon="15.78651"><ele>808.0</ele><time>2026-04-25T12:41:56.48Z</time></trkpt><trkpt lat="40.1096575" lon="15.7863554"><ele>808.0</ele><time>2026-04-25T12:41:57.518Z</time></trkpt><trkpt lat="40.1097166" lon="15.7861903"><ele>808.0</ele><time>2026-04-25T12:41:58.471Z</time></trkpt><trkpt lat="40.109818" lon="15.7860204"><ele>808.0</ele><time>2026-04-25T12:41:59.469Z</time></trkpt><trkpt lat="40.1099141" lon="15.7858407"><ele>808.0</ele><time>2026-04-25T12:42:00.458Z</time></trkpt><trkpt lat="40.1100251" lon="15.7856568"><ele>807.3333333333333</ele><time>2026-04-25T12:42:01.489Z</time></trkpt><trkpt lat="40.1101232" lon="15.7854763"><ele>806.6666666666667</ele><time>2026-04-25T12:42:02.459Z</time></trkpt><trkpt lat="40.1102052" lon="15.7852953"><ele>806.0</ele><time>2026-04-25T12:42:03.484Z</time></trkpt><trkpt lat="40.1102677" lon="15.7851058"><ele>806.0</ele><time>2026-04-25T12:42:04.459Z</time></trkpt><trkpt lat="40.1103179" lon="15.7849119"><ele>806.0</ele><time>2026-04-25T12:42:05.478Z</time></trkpt><trkpt lat="40.1103446" lon="15.7847296"><ele>806.0</ele><time>2026-04-25T12:42:06.477Z</time></trkpt><trkpt lat="40.1103307" lon="15.7845638"><ele>806.0</ele><time>2026-04-25T12:42:07.461Z</time></trkpt><trkpt lat="40.1102735" lon="15.7844159"><ele>806.25</ele><time>2026-04-25T12:42:08.454Z</time></trkpt><trkpt lat="40.1101907" lon="15.7842783"><ele>806.5</ele><time>2026-04-25T12:42:09.476Z</time></trkpt><trkpt lat="40.1100997" lon="15.7841471"><ele>806.75</ele><time>2026-04-25T12:42:10.48Z</time></trkpt><trkpt lat="40.1100161" lon="15.7840245"><ele>807.0</ele><time>2026-04-25T12:42:11.478Z</time></trkpt><trkpt lat="40.1099475" lon="15.7839097"><ele>807.0</ele><time>2026-04-25T12:42:12.477Z</time></trkpt><trkpt lat="40.1099072" lon="15.7837914"><ele>807.0</ele><time>2026-04-25T12:42:13.499Z</time></trkpt><trkpt lat="40.1099027" lon="15.783673"><ele>807.0</ele><time>2026-04-25T12:42:14.463Z</time></trkpt><trkpt lat="40.1099319" lon="15.7835654"><ele>807.0</ele><time>2026-04-25T12:42:15.473Z</time></trkpt><trkpt lat="40.1099899" lon="15.7834855"><ele>807.0</ele><time>2026-04-25T12:42:16.483Z</time></trkpt><trkpt lat="40.1100687" lon="15.783437"><ele>807.0</ele><time>2026-04-25T12:42:17.491Z</time></trkpt><trkpt lat="40.1101563" lon="15.7834169"><ele>806.8</ele><time>2026-04-25T12:42:18.457Z</time></trkpt><trkpt lat="40.1102518" lon="15.7834063"><ele>806.6</ele><time>2026-04-25T12:42:19.459Z</time></trkpt><trkpt lat="40.1103513" lon="15.7833956"><ele>806.4</ele><time>2026-04-25T12:42:20.453Z</time></trkpt><trkpt lat="40.1104592" lon="15.7833822"><ele>806.1999999999999</ele><time>2026-04-25T12:42:21.484Z</time></trkpt><trkpt lat="40.1105748" lon="15.7833668"><ele>806.0</ele><time>2026-04-25T12:42:22.461Z</time></trkpt><trkpt lat="40.1106986" lon="15.7833521"><ele>804.75</ele><time>2026-04-25T12:42:23.455Z</time></trkpt><trkpt lat="40.1108283" lon="15.7833351"><ele>803.5</ele><time>2026-04-25T12:42:24.456Z</time></trkpt><trkpt lat="40.1109631" lon="15.7833154"><ele>802.25</ele><time>2026-04-25T12:42:25.459Z</time></trkpt><trkpt lat="40.1111036" lon="15.783299"><ele>801.0</ele><time>2026-04-25T12:42:26.454Z</time></trkpt><trkpt lat="40.1112505" lon="15.7832848"><ele>801.0</ele><time>2026-04-25T12:42:27.463Z</time></trkpt><trkpt lat="40.1114014" lon="15.7832671"><ele>801.0</ele><time>2026-04-25T12:42:28.45Z</time></trkpt><trkpt lat="40.111556" lon="15.7832467"><ele>801.0</ele><time>2026-04-25T12:42:29.451Z</time></trkpt><trkpt lat="40.1117149" lon="15.7832315"><ele>799.3333333333333</ele><time>2026-04-25T12:42:30.453Z</time></trkpt><trkpt lat="40.1118746" lon="15.7832269"><ele>797.6666666666666</ele><time>2026-04-25T12:42:31.452Z</time></trkpt><trkpt lat="40.1120327" lon="15.7832342"><ele>796.0</ele><time>2026-04-25T12:42:32.457Z</time></trkpt><trkpt lat="40.1121903" lon="15.7832534"><ele>796.0</ele><time>2026-04-25T12:42:33.482Z</time></trkpt><trkpt lat="40.1123458" lon="15.7832742"><ele>796.0</ele><time>2026-04-25T12:42:34.457Z</time></trkpt><trkpt lat="40.1125024" lon="15.7832919"><ele>796.0</ele><time>2026-04-25T12:42:35.454Z</time></trkpt><trkpt lat="40.1126568" lon="15.7833086"><ele>796.6666666666666</ele><time>2026-04-25T12:42:36.45Z</time></trkpt><trkpt lat="40.1128079" lon="15.7833291"><ele>797.3333333333333</ele><time>2026-04-25T12:42:37.457Z</time></trkpt><trkpt lat="40.1129575" lon="15.7833568"><ele>798.0</ele><time>2026-04-25T12:42:38.458Z</time></trkpt><trkpt lat="40.1131052" lon="15.7833917"><ele>797.25</ele><time>2026-04-25T12:42:39.45Z</time></trkpt><trkpt lat="40.113241" lon="15.7834445"><ele>796.5</ele><time>2026-04-25T12:42:40.453Z</time></trkpt><trkpt lat="40.1133719" lon="15.7834994"><ele>795.75</ele><time>2026-04-25T12:42:41.458Z</time></trkpt><trkpt lat="40.1134859" lon="15.7835757"><ele>795.0</ele><time>2026-04-25T12:42:42.467Z</time></trkpt><trkpt lat="40.1135873" lon="15.7836617"><ele>797.0</ele><time>2026-04-25T12:42:43.457Z</time></trkpt><trkpt lat="40.1136686" lon="15.7837737"><ele>799.0</ele><time>2026-04-25T12:42:44.453Z</time></trkpt><trkpt lat="40.113733" lon="15.783908"><ele>801.0</ele><time>2026-04-25T12:42:45.457Z</time></trkpt><trkpt lat="40.113784" lon="15.7840518"><ele>803.0</ele><time>2026-04-25T12:42:46.457Z</time></trkpt><trkpt lat="40.1138422" lon="15.7841901"><ele>803.0</ele><time>2026-04-25T12:42:47.454Z</time></trkpt><trkpt lat="40.1139252" lon="15.784299"><ele>803.0</ele><time>2026-04-25T12:42:48.456Z</time></trkpt><trkpt lat="40.1140281" lon="15.7843717"><ele>803.0</ele><time>2026-04-25T12:42:49.465Z</time></trkpt><trkpt lat="40.1141393" lon="15.7844042"><ele>803.0</ele><time>2026-04-25T12:42:50.454Z</time></trkpt><trkpt lat="40.1142578" lon="15.7843932"><ele>802.25</ele><time>2026-04-25T12:42:51.454Z</time></trkpt><trkpt lat="40.114372" lon="15.78434"><ele>801.5</ele><time>2026-04-25T12:42:52.454Z</time></trkpt><trkpt lat="40.1144699" lon="15.7842524"><ele>800.75</ele><time>2026-04-25T12:42:53.454Z</time></trkpt><trkpt lat="40.1145463" lon="15.7841344"><ele>800.0</ele><time>2026-04-25T12:42:54.454Z</time></trkpt><trkpt lat="40.1145954" lon="15.783991"><ele>800.0</ele><time>2026-04-25T12:42:55.446Z</time></trkpt><trkpt lat="40.1146295" lon="15.7838329"><ele>800.0</ele><time>2026-04-25T12:42:56.454Z</time></trkpt><trkpt lat="40.1146696" lon="15.7836753"><ele>800.0</ele><time>2026-04-25T12:42:57.46Z</time></trkpt><trkpt lat="40.1147305" lon="15.7835317"><ele>800.0</ele><time>2026-04-25T12:42:58.467Z</time></trkpt><trkpt lat="40.1148148" lon="15.7834131"><ele>799.0</ele><time>2026-04-25T12:42:59.456Z</time></trkpt><trkpt lat="40.114924" lon="15.7833168"><ele>798.0</ele><time>2026-04-25T12:43:00.446Z</time></trkpt><trkpt lat="40.1150514" lon="15.7832328"><ele>797.0</ele><time>2026-04-25T12:43:01.454Z</time></trkpt><trkpt lat="40.1151877" lon="15.7831486"><ele>796.0</ele><time>2026-04-25T12:43:02.457Z</time></trkpt><trkpt lat="40.1153399" lon="15.7830633"><ele>796.0</ele><time>2026-04-25T12:43:03.458Z</time></trkpt><trkpt lat="40.1154952" lon="15.7829611"><ele>796.0</ele><time>2026-04-25T12:43:04.452Z</time></trkpt><trkpt lat="40.1156379" lon="15.782851"><ele>796.0</ele><time>2026-04-25T12:43:05.453Z</time></trkpt><trkpt lat="40.115773" lon="15.7827474"><ele>792.75</ele><time>2026-04-25T12:43:06.451Z</time></trkpt><trkpt lat="40.1158958" lon="15.7826501"><ele>789.5</ele><time>2026-04-25T12:43:07.456Z</time></trkpt><trkpt lat="40.1160072" lon="15.7825581"><ele>786.25</ele><time>2026-04-25T12:43:08.458Z</time></trkpt><trkpt lat="40.1161194" lon="15.7825045"><ele>783.0</ele><time>2026-04-25T12:43:09.455Z</time></trkpt><trkpt lat="40.1162349" lon="15.7824974"><ele>783.0</ele><time>2026-04-25T12:43:10.45Z</time></trkpt><trkpt lat="40.1163474" lon="15.7825372"><ele>783.0</ele><time>2026-04-25T12:43:11.464Z</time></trkpt><trkpt lat="40.1164646" lon="15.7825986"><ele>783.0</ele><time>2026-04-25T12:43:12.456Z</time></trkpt><trkpt lat="40.1165769" lon="15.7826866"><ele>783.0</ele><time>2026-04-25T12:43:13.447Z</time></trkpt><trkpt lat="40.1166944" lon="15.7827752"><ele>790.0</ele><time>2026-04-25T12:43:14.466Z</time></trkpt><trkpt lat="40.1168153" lon="15.7828525"><ele>797.0</ele><time>2026-04-25T12:43:15.467Z</time></trkpt><trkpt lat="40.1169335" lon="15.7829093"><ele>804.0</ele><time>2026-04-25T12:43:16.461Z</time></trkpt><trkpt lat="40.1170476" lon="15.7829231"><ele>811.0</ele><time>2026-04-25T12:43:17.451Z</time></trkpt><trkpt lat="40.1171672" lon="15.7829033"><ele>811.0</ele><time>2026-04-25T12:43:18.455Z</time></trkpt><trkpt lat="40.1172829" lon="15.7828341"><ele>811.0</ele><time>2026-04-25T12:43:19.452Z</time></trkpt><trkpt lat="40.1173859" lon="15.7827591"><ele>811.0</ele><time>2026-04-25T12:43:20.463Z</time></trkpt><trkpt lat="40.1174622" lon="15.7826282"><ele>811.0</ele><time>2026-04-25T12:43:21.455Z</time></trkpt><trkpt lat="40.1175301" lon="15.7824916"><ele>806.5</ele><time>2026-04-25T12:43:22.459Z</time></trkpt><trkpt lat="40.1176188" lon="15.7823623"><ele>802.0</ele><time>2026-04-25T12:43:23.452Z</time></trkpt><trkpt lat="40.1177193" lon="15.7822492"><ele>797.5</ele><time>2026-04-25T12:43:24.454Z</time></trkpt><trkpt lat="40.1178359" lon="15.7821454"><ele>793.0</ele><time>2026-04-25T12:43:25.458Z</time></trkpt><trkpt lat="40.1179528" lon="15.7820465"><ele>793.0</ele><time>2026-04-25T12:43:26.458Z</time></trkpt><trkpt lat="40.118068" lon="15.7819625"><ele>793.0</ele><time>2026-04-25T12:43:27.45Z</time></trkpt><trkpt lat="40.1181805" lon="15.7819058"><ele>793.0</ele><time>2026-04-25T12:43:28.452Z</time></trkpt><trkpt lat="40.1182894" lon="15.7818932"><ele>793.0</ele><time>2026-04-25T12:43:29.457Z</time></trkpt><trkpt lat="40.1184033" lon="15.7819223"><ele>795.0</ele><time>2026-04-25T12:43:30.457Z</time></trkpt><trkpt lat="40.1185133" lon="15.7819808"><ele>797.0</ele><time>2026-04-25T12:43:31.466Z</time></trkpt><trkpt lat="40.1186165" lon="15.782075"><ele>799.0</ele><time>2026-04-25T12:43:32.455Z</time></trkpt><trkpt lat="40.1186983" lon="15.7821979"><ele>801.0</ele><time>2026-04-25T12:43:33.457Z</time></trkpt><trkpt lat="40.1187612" lon="15.7823495"><ele>801.0</ele><time>2026-04-25T12:43:34.456Z</time></trkpt><trkpt lat="40.1188158" lon="15.7825221"><ele>801.0</ele><time>2026-04-25T12:43:35.459Z</time></trkpt><trkpt lat="40.1188702" lon="15.7826941"><ele>801.0</ele><time>2026-04-25T12:43:36.453Z</time></trkpt><trkpt lat="40.1189257" lon="15.7828782"><ele>801.0</ele><time>2026-04-25T12:43:37.453Z</time></trkpt><trkpt lat="40.1189918" lon="15.7830579"><ele>800.25</ele><time>2026-04-25T12:43:38.458Z</time></trkpt><trkpt lat="40.11906" lon="15.7832319"><ele>799.5</ele><time>2026-04-25T12:43:39.456Z</time></trkpt><trkpt lat="40.119127" lon="15.7833924"><ele>798.75</ele><time>2026-04-25T12:43:40.456Z</time></trkpt><trkpt lat="40.1191964" lon="15.7835352"><ele>798.0</ele><time>2026-04-25T12:43:41.45Z</time></trkpt><trkpt lat="40.1192586" lon="15.78366"><ele>801.5</ele><time>2026-04-25T12:43:42.46Z</time></trkpt><trkpt lat="40.1193476" lon="15.7837323"><ele>805.0</ele><time>2026-04-25T12:43:43.464Z</time></trkpt><trkpt lat="40.1194581" lon="15.783757"><ele>808.5</ele><time>2026-04-25T12:43:44.46Z</time></trkpt><trkpt lat="40.1195694" lon="15.7837377"><ele>812.0</ele><time>2026-04-25T12:43:45.476Z</time></trkpt><trkpt lat="40.1196975" lon="15.7836728"><ele>812.0</ele><time>2026-04-25T12:43:46.452Z</time></trkpt><trkpt lat="40.1198293" lon="15.7835898"><ele>812.0</ele><time>2026-04-25T12:43:47.459Z</time></trkpt><trkpt lat="40.1199678" lon="15.7834955"><ele>812.0</ele><time>2026-04-25T12:43:48.454Z</time></trkpt><trkpt lat="40.1201128" lon="15.7834064"><ele>804.6666666666667</ele><time>2026-04-25T12:43:49.467Z</time></trkpt><trkpt lat="40.1202634" lon="15.7833303"><ele>797.3333333333333</ele><time>2026-04-25T12:43:50.456Z</time></trkpt><trkpt lat="40.1204173" lon="15.7832644"><ele>790.0</ele><time>2026-04-25T12:43:51.465Z</time></trkpt><trkpt lat="40.1205619" lon="15.7832056"><ele>790.0</ele><time>2026-04-25T12:43:52.471Z</time></trkpt><trkpt lat="40.1207005" lon="15.7831332"><ele>790.0</ele><time>2026-04-25T12:43:53.457Z</time></trkpt><trkpt lat="40.1208283" lon="15.7830269"><ele>790.0</ele><time>2026-04-25T12:43:54.468Z</time></trkpt><trkpt lat="40.1209288" lon="15.7828934"><ele>790.0</ele><time>2026-04-25T12:43:55.458Z</time></trkpt><trkpt lat="40.1210175" lon="15.7827455"><ele>787.5</ele><time>2026-04-25T12:43:56.468Z</time></trkpt><trkpt lat="40.1211069" lon="15.7825932"><ele>785.0</ele><time>2026-04-25T12:43:57.465Z</time></trkpt><trkpt lat="40.1211965" lon="15.7824456"><ele>782.5</ele><time>2026-04-25T12:43:58.458Z</time></trkpt><trkpt lat="40.121284" lon="15.782305"><ele>780.0</ele><time>2026-04-25T12:43:59.445Z</time></trkpt><trkpt lat="40.121371" lon="15.7821691"><ele>780.0</ele><time>2026-04-25T12:44:00.457Z</time></trkpt><trkpt lat="40.1214539" lon="15.7820336"><ele>780.0</ele><time>2026-04-25T12:44:01.464Z</time></trkpt><trkpt lat="40.1215254" lon="15.781891"><ele>780.0</ele><time>2026-04-25T12:44:02.456Z</time></trkpt><trkpt lat="40.1215759" lon="15.7817302"><ele>780.0</ele><time>2026-04-25T12:44:03.452Z</time></trkpt><trkpt lat="40.1216223" lon="15.7815648"><ele>779.75</ele><time>2026-04-25T12:44:04.453Z</time></trkpt><trkpt lat="40.1216362" lon="15.7813999"><ele>779.5</ele><time>2026-04-25T12:44:05.457Z</time></trkpt><trkpt lat="40.1216421" lon="15.7812102"><ele>779.25</ele><time>2026-04-25T12:44:06.461Z</time></trkpt><trkpt lat="40.1216463" lon="15.7810216"><ele>779.0</ele><time>2026-04-25T12:44:07.454Z</time></trkpt><trkpt lat="40.1216509" lon="15.7808334"><ele>779.0</ele><time>2026-04-25T12:44:08.451Z</time></trkpt><trkpt lat="40.1216613" lon="15.7806529"><ele>779.0</ele><time>2026-04-25T12:44:09.462Z</time></trkpt><trkpt lat="40.1217164" lon="15.7805062"><ele>779.0</ele><time>2026-04-25T12:44:10.454Z</time></trkpt><trkpt lat="40.1217813" lon="15.7803649"><ele>779.0</ele><time>2026-04-25T12:44:11.456Z</time></trkpt><trkpt lat="40.1218628" lon="15.7802375"><ele>778.0</ele><time>2026-04-25T12:44:12.455Z</time></trkpt><trkpt lat="40.1219574" lon="15.780112"><ele>777.0</ele><time>2026-04-25T12:44:13.458Z</time></trkpt><trkpt lat="40.1220618" lon="15.7799947"><ele>776.0</ele><time>2026-04-25T12:44:14.455Z</time></trkpt><trkpt lat="40.1222009" lon="15.7799174"><ele>775.0</ele><time>2026-04-25T12:44:15.465Z</time></trkpt><trkpt lat="40.1223331" lon="15.779871"><ele>775.0</ele><time>2026-04-25T12:44:16.451Z</time></trkpt><trkpt lat="40.1224568" lon="15.7798472"><ele>775.0</ele><time>2026-04-25T12:44:17.46Z</time></trkpt><trkpt lat="40.1225826" lon="15.7798595"><ele>775.0</ele><time>2026-04-25T12:44:18.451Z</time></trkpt><trkpt lat="40.122699" lon="15.7798829"><ele>775.0</ele><time>2026-04-25T12:44:19.447Z</time></trkpt><trkpt lat="40.1228157" lon="15.7799637"><ele>775.0</ele><time>2026-04-25T12:44:20.461Z</time></trkpt><trkpt lat="40.1229398" lon="15.7800454"><ele>775.0</ele><time>2026-04-25T12:44:21.463Z</time></trkpt><trkpt lat="40.1230662" lon="15.7801084"><ele>775.0</ele><time>2026-04-25T12:44:22.448Z</time></trkpt><trkpt lat="40.1231925" lon="15.780156"><ele>775.0</ele><time>2026-04-25T12:44:23.452Z</time></trkpt><trkpt lat="40.1233245" lon="15.780196"><ele>773.0</ele><time>2026-04-25T12:44:24.452Z</time></trkpt><trkpt lat="40.123457" lon="15.7801741"><ele>771.0</ele><time>2026-04-25T12:44:25.446Z</time></trkpt><trkpt lat="40.123584" lon="15.7801238"><ele>769.0</ele><time>2026-04-25T12:44:26.452Z</time></trkpt><trkpt lat="40.1237047" lon="15.7800573"><ele>767.0</ele><time>2026-04-25T12:44:27.453Z</time></trkpt><trkpt lat="40.1238292" lon="15.7799972"><ele>767.0</ele><time>2026-04-25T12:44:28.449Z</time></trkpt><trkpt lat="40.123956" lon="15.7799428"><ele>767.0</ele><time>2026-04-25T12:44:29.455Z</time></trkpt><trkpt lat="40.1240829" lon="15.7798709"><ele>767.0</ele><time>2026-04-25T12:44:30.449Z</time></trkpt><trkpt lat="40.124203" lon="15.7797971"><ele>767.0</ele><time>2026-04-25T12:44:31.442Z</time></trkpt><trkpt lat="40.1243149" lon="15.7797151"><ele>767.75</ele><time>2026-04-25T12:44:32.445Z</time></trkpt><trkpt lat="40.1244036" lon="15.7796078"><ele>768.5</ele><time>2026-04-25T12:44:33.456Z</time></trkpt><trkpt lat="40.1244598" lon="15.7794718"><ele>769.25</ele><time>2026-04-25T12:44:34.458Z</time></trkpt><trkpt lat="40.1244848" lon="15.7793141"><ele>770.0</ele><time>2026-04-25T12:44:35.451Z</time></trkpt><trkpt lat="40.1244858" lon="15.7791405"><ele>767.0</ele><time>2026-04-25T12:44:36.46Z</time></trkpt><trkpt lat="40.1244747" lon="15.7789571"><ele>764.0</ele><time>2026-04-25T12:44:37.458Z</time></trkpt><trkpt lat="40.1244588" lon="15.7787658"><ele>761.0</ele><time>2026-04-25T12:44:38.465Z</time></trkpt><trkpt lat="40.1244372" lon="15.7785658"><ele>758.0</ele><time>2026-04-25T12:44:39.456Z</time></trkpt><trkpt lat="40.1244085" lon="15.7783621"><ele>756.0</ele><time>2026-04-25T12:44:40.45Z</time></trkpt><trkpt lat="40.1243925" lon="15.7781472"><ele>754.0</ele><time>2026-04-25T12:44:41.453Z</time></trkpt><trkpt lat="40.1243786" lon="15.7779164"><ele>752.0</ele><time>2026-04-25T12:44:42.452Z</time></trkpt><trkpt lat="40.1243842" lon="15.7776804"><ele>749.6666666666666</ele><time>2026-04-25T12:44:43.454Z</time></trkpt><trkpt lat="40.1243943" lon="15.777457"><ele>747.3333333333334</ele><time>2026-04-25T12:44:44.449Z</time></trkpt><trkpt lat="40.1244181" lon="15.7772413"><ele>745.0</ele><time>2026-04-25T12:44:45.459Z</time></trkpt><trkpt lat="40.1244235" lon="15.7770335"><ele>743.0</ele><time>2026-04-25T12:44:46.46Z</time></trkpt><trkpt lat="40.1244073" lon="15.7768216"><ele>741.0</ele><time>2026-04-25T12:44:47.456Z</time></trkpt><trkpt lat="40.1243815" lon="15.7766201"><ele>739.0</ele><time>2026-04-25T12:44:48.451Z</time></trkpt><trkpt lat="40.1243578" lon="15.7764254"><ele>739.0</ele><time>2026-04-25T12:44:49.455Z</time></trkpt><trkpt lat="40.1243441" lon="15.7762306"><ele>739.0</ele><time>2026-04-25T12:44:50.455Z</time></trkpt><trkpt lat="40.1243446" lon="15.7760337"><ele>739.0</ele><time>2026-04-25T12:44:51.464Z</time></trkpt><trkpt lat="40.1243492" lon="15.7758308"><ele>738.0</ele><time>2026-04-25T12:44:52.45Z</time></trkpt><trkpt lat="40.124361" lon="15.7756215"><ele>737.0</ele><time>2026-04-25T12:44:53.459Z</time></trkpt><trkpt lat="40.1243961" lon="15.7754131"><ele>736.0</ele><time>2026-04-25T12:44:54.458Z</time></trkpt><trkpt lat="40.1244293" lon="15.7752009"><ele>733.6666666666667</ele><time>2026-04-25T12:44:55.454Z</time></trkpt><trkpt lat="40.1244616" lon="15.7749947"><ele>731.3333333333334</ele><time>2026-04-25T12:44:56.457Z</time></trkpt><trkpt lat="40.1244859" lon="15.7747677"><ele>729.0</ele><time>2026-04-25T12:44:57.444Z</time></trkpt><trkpt lat="40.1245115" lon="15.7745524"><ele>725.0</ele><time>2026-04-25T12:44:58.451Z</time></trkpt><trkpt lat="40.1245363" lon="15.7743498"><ele>721.0</ele><time>2026-04-25T12:44:59.451Z</time></trkpt><trkpt lat="40.124558" lon="15.7741571"><ele>717.0</ele><time>2026-04-25T12:45:00.447Z</time></trkpt><trkpt lat="40.1245934" lon="15.7739711"><ele>717.0</ele><time>2026-04-25T12:45:01.454Z</time></trkpt><trkpt lat="40.1246532" lon="15.7737948"><ele>717.0</ele><time>2026-04-25T12:45:02.449Z</time></trkpt><trkpt lat="40.1247405" lon="15.773626"><ele>717.0</ele><time>2026-04-25T12:45:03.446Z</time></trkpt><trkpt lat="40.1248426" lon="15.7734535"><ele>722.0</ele><time>2026-04-25T12:45:04.452Z</time></trkpt><trkpt lat="40.1249454" lon="15.7732643"><ele>727.0</ele><time>2026-04-25T12:45:05.458Z</time></trkpt><trkpt lat="40.1250396" lon="15.7730611"><ele>732.0</ele><time>2026-04-25T12:45:06.445Z</time></trkpt><trkpt lat="40.1251258" lon="15.7728545"><ele>726.0</ele><time>2026-04-25T12:45:07.454Z</time></trkpt><trkpt lat="40.1252084" lon="15.7726573"><ele>720.0</ele><time>2026-04-25T12:45:08.456Z</time></trkpt><trkpt lat="40.1252841" lon="15.772477"><ele>714.0</ele><time>2026-04-25T12:45:09.451Z</time></trkpt><trkpt lat="40.1253505" lon="15.7723164"><ele>714.0</ele><time>2026-04-25T12:45:10.456Z</time></trkpt><trkpt lat="40.1253985" lon="15.7721824"><ele>714.0</ele><time>2026-04-25T12:45:11.469Z</time></trkpt><trkpt lat="40.1254161" lon="15.7720633"><ele>714.0</ele><time>2026-04-25T12:45:12.476Z</time></trkpt><trkpt lat="40.1254046" lon="15.7719725"><ele>714.0</ele><time>2026-04-25T12:45:13.453Z</time></trkpt><trkpt lat="40.1253738" lon="15.7718985"><ele>714.0</ele><time>2026-04-25T12:45:14.455Z</time></trkpt><trkpt lat="40.1252986" lon="15.7719116"><ele>714.0</ele><time>2026-04-25T12:45:15.455Z</time></trkpt><trkpt lat="40.125248" lon="15.771969"><ele>714.0</ele><time>2026-04-25T12:45:16.446Z</time></trkpt><trkpt lat="40.1252242" lon="15.7720678"><ele>714.0</ele><time>2026-04-25T12:45:17.457Z</time></trkpt><trkpt lat="40.1251931" lon="15.7721892"><ele>714.0</ele><time>2026-04-25T12:45:18.447Z</time></trkpt><trkpt lat="40.1251538" lon="15.7723493"><ele>714.0</ele><time>2026-04-25T12:45:19.452Z</time></trkpt><trkpt lat="40.1250728" lon="15.7725152"><ele>714.0</ele><time>2026-04-25T12:45:20.454Z</time></trkpt><trkpt lat="40.1249615" lon="15.7726803"><ele>714.0</ele><time>2026-04-25T12:45:21.456Z</time></trkpt><trkpt lat="40.1248346" lon="15.7728553"><ele>714.0</ele><time>2026-04-25T12:45:22.444Z</time></trkpt><trkpt lat="40.1246874" lon="15.773049"><ele>715.0</ele><time>2026-04-25T12:45:23.464Z</time></trkpt><trkpt lat="40.1245336" lon="15.7732415"><ele>716.0</ele><time>2026-04-25T12:45:24.454Z</time></trkpt><trkpt lat="40.1243895" lon="15.7734426"><ele>717.0</ele><time>2026-04-25T12:45:25.458Z</time></trkpt><trkpt lat="40.1242539" lon="15.7736476"><ele>717.0</ele><time>2026-04-25T12:45:26.445Z</time></trkpt><trkpt lat="40.1241274" lon="15.7738516"><ele>717.0</ele><time>2026-04-25T12:45:27.445Z</time></trkpt><trkpt lat="40.1240089" lon="15.7740446"><ele>717.0</ele><time>2026-04-25T12:45:28.462Z</time></trkpt><trkpt lat="40.1238888" lon="15.7742249"><ele>711.0</ele><time>2026-04-25T12:45:29.465Z</time></trkpt><trkpt lat="40.1237748" lon="15.7743982"><ele>705.0</ele><time>2026-04-25T12:45:30.446Z</time></trkpt><trkpt lat="40.1236697" lon="15.7745716"><ele>699.0</ele><time>2026-04-25T12:45:31.455Z</time></trkpt><trkpt lat="40.1236045" lon="15.7747692"><ele>699.0</ele><time>2026-04-25T12:45:32.456Z</time></trkpt><trkpt lat="40.1235625" lon="15.7749696"><ele>699.0</ele><time>2026-04-25T12:45:33.459Z</time></trkpt><trkpt lat="40.1235404" lon="15.7751602"><ele>699.0</ele><time>2026-04-25T12:45:34.454Z</time></trkpt><trkpt lat="40.123541" lon="15.7753385"><ele>699.0</ele><time>2026-04-25T12:45:35.455Z</time></trkpt><trkpt lat="40.1235535" lon="15.7754919"><ele>699.8333333333334</ele><time>2026-04-25T12:45:36.453Z</time></trkpt><trkpt lat="40.1235463" lon="15.7756153"><ele>700.6666666666666</ele><time>2026-04-25T12:45:37.459Z</time></trkpt><trkpt lat="40.1235196" lon="15.7757145"><ele>701.5</ele><time>2026-04-25T12:45:38.455Z</time></trkpt><trkpt lat="40.1234763" lon="15.7757754"><ele>702.3333333333333</ele><time>2026-04-25T12:45:39.449Z</time></trkpt><trkpt lat="40.1233693" lon="15.7757643"><ele>703.1666666666666</ele><time>2026-04-25T12:45:41.449Z</time></trkpt><trkpt lat="40.1233268" lon="15.7756599"><ele>704.0</ele><time>2026-04-25T12:45:42.462Z</time></trkpt><trkpt lat="40.1232928" lon="15.7755272"><ele>704.0</ele><time>2026-04-25T12:45:43.467Z</time></trkpt><trkpt lat="40.1232634" lon="15.7753815"><ele>704.0</ele><time>2026-04-25T12:45:44.461Z</time></trkpt><trkpt lat="40.1232403" lon="15.7752182"><ele>704.0</ele><time>2026-04-25T12:45:45.456Z</time></trkpt><trkpt lat="40.1232281" lon="15.775039"><ele>704.0</ele><time>2026-04-25T12:45:46.448Z</time></trkpt><trkpt lat="40.1232317" lon="15.7748523"><ele>702.3333333333333</ele><time>2026-04-25T12:45:47.458Z</time></trkpt><trkpt lat="40.12324" lon="15.7746472"><ele>700.6666666666666</ele><time>2026-04-25T12:45:48.456Z</time></trkpt><trkpt lat="40.1232648" lon="15.7744456"><ele>699.0</ele><time>2026-04-25T12:45:49.458Z</time></trkpt><trkpt lat="40.1232935" lon="15.7742329"><ele>696.0</ele><time>2026-04-25T12:45:50.451Z</time></trkpt><trkpt lat="40.1233352" lon="15.7740287"><ele>693.0</ele><time>2026-04-25T12:45:51.457Z</time></trkpt><trkpt lat="40.1233942" lon="15.773834"><ele>690.0</ele><time>2026-04-25T12:45:52.446Z</time></trkpt><trkpt lat="40.1234685" lon="15.7736489"><ele>684.6666666666666</ele><time>2026-04-25T12:45:53.458Z</time></trkpt><trkpt lat="40.1235606" lon="15.773476"><ele>679.3333333333333</ele><time>2026-04-25T12:45:54.446Z</time></trkpt><trkpt lat="40.1236625" lon="15.7733111"><ele>674.0</ele><time>2026-04-25T12:45:55.457Z</time></trkpt><trkpt lat="40.1237681" lon="15.7731523"><ele>674.0</ele><time>2026-04-25T12:45:56.462Z</time></trkpt><trkpt lat="40.123871" lon="15.7729975"><ele>674.0</ele><time>2026-04-25T12:45:57.449Z</time></trkpt><trkpt lat="40.1239674" lon="15.7728461"><ele>674.0</ele><time>2026-04-25T12:45:58.447Z</time></trkpt><trkpt lat="40.1240551" lon="15.7726966"><ele>675.5</ele><time>2026-04-25T12:45:59.452Z</time></trkpt><trkpt lat="40.1241311" lon="15.7725495"><ele>677.0</ele><time>2026-04-25T12:46:00.453Z</time></trkpt><trkpt lat="40.1241924" lon="15.772405"><ele>678.5</ele><time>2026-04-25T12:46:01.457Z</time></trkpt><trkpt lat="40.124244" lon="15.7722667"><ele>680.0</ele><time>2026-04-25T12:46:02.452Z</time></trkpt><trkpt lat="40.1242976" lon="15.7721356"><ele>680.0</ele><time>2026-04-25T12:46:03.452Z</time></trkpt><trkpt lat="40.1243487" lon="15.7720135"><ele>680.0</ele><time>2026-04-25T12:46:04.465Z</time></trkpt><trkpt lat="40.1244194" lon="15.7719095"><ele>680.0</ele><time>2026-04-25T12:46:05.442Z</time></trkpt><trkpt lat="40.1244965" lon="15.771811"><ele>680.0</ele><time>2026-04-25T12:46:06.448Z</time></trkpt><trkpt lat="40.1245739" lon="15.7717208"><ele>680.0</ele><time>2026-04-25T12:46:07.46Z</time></trkpt><trkpt lat="40.1246483" lon="15.7716312"><ele>681.2</ele><time>2026-04-25T12:46:08.445Z</time></trkpt><trkpt lat="40.1247186" lon="15.7715435"><ele>682.4</ele><time>2026-04-25T12:46:09.458Z</time></trkpt><trkpt lat="40.1247849" lon="15.7714592"><ele>683.5999999999999</ele><time>2026-04-25T12:46:10.447Z</time></trkpt><trkpt lat="40.1248526" lon="15.7713814"><ele>684.8</ele><time>2026-04-25T12:46:11.449Z</time></trkpt><trkpt lat="40.124919" lon="15.7713073"><ele>686.0</ele><time>2026-04-25T12:46:12.451Z</time></trkpt><trkpt lat="40.1249905" lon="15.7712376"><ele>686.0</ele><time>2026-04-25T12:46:13.455Z</time></trkpt><trkpt lat="40.1250685" lon="15.7711684"><ele>686.0</ele><time>2026-04-25T12:46:14.455Z</time></trkpt><trkpt lat="40.1251526" lon="15.7710988"><ele>686.0</ele><time>2026-04-25T12:46:15.462Z</time></trkpt><trkpt lat="40.1252404" lon="15.7710218"><ele>686.0</ele><time>2026-04-25T12:46:16.45Z</time></trkpt><trkpt lat="40.1253225" lon="15.7709351"><ele>686.0</ele><time>2026-04-25T12:46:17.457Z</time></trkpt><trkpt lat="40.1254032" lon="15.770846"><ele>679.8</ele><time>2026-04-25T12:46:18.462Z</time></trkpt><trkpt lat="40.1254737" lon="15.7707441"><ele>673.5999999999999</ele><time>2026-04-25T12:46:19.455Z</time></trkpt><trkpt lat="40.1255315" lon="15.7706338"><ele>667.4</ele><time>2026-04-25T12:46:20.45Z</time></trkpt><trkpt lat="40.1255671" lon="15.7705141"><ele>661.2</ele><time>2026-04-25T12:46:21.457Z</time></trkpt><trkpt lat="40.1255715" lon="15.7703849"><ele>655.0</ele><time>2026-04-25T12:46:22.455Z</time></trkpt><trkpt lat="40.1255659" lon="15.7702566"><ele>656.25</ele><time>2026-04-25T12:46:23.453Z</time></trkpt><trkpt lat="40.1255199" lon="15.7701173"><ele>657.5</ele><time>2026-04-25T12:46:24.46Z</time></trkpt><trkpt lat="40.1254629" lon="15.7699732"><ele>658.75</ele><time>2026-04-25T12:46:25.457Z</time></trkpt><trkpt lat="40.1253905" lon="15.7698507"><ele>660.0</ele><time>2026-04-25T12:46:26.454Z</time></trkpt><trkpt lat="40.1252999" lon="15.7697482"><ele>660.0</ele><time>2026-04-25T12:46:27.448Z</time></trkpt><trkpt lat="40.125207" lon="15.7696541"><ele>660.0</ele><time>2026-04-25T12:46:28.448Z</time></trkpt><trkpt lat="40.1251145" lon="15.7695641"><ele>660.0</ele><time>2026-04-25T12:46:29.454Z</time></trkpt><trkpt lat="40.1250261" lon="15.7694756"><ele>660.0</ele><time>2026-04-25T12:46:30.463Z</time></trkpt><trkpt lat="40.1249426" lon="15.7693879"><ele>662.5</ele><time>2026-04-25T12:46:31.47Z</time></trkpt><trkpt lat="40.1248606" lon="15.7693066"><ele>665.0</ele><time>2026-04-25T12:46:32.462Z</time></trkpt><trkpt lat="40.1247838" lon="15.769228"><ele>667.5</ele><time>2026-04-25T12:46:33.452Z</time></trkpt><trkpt lat="40.1247141" lon="15.7691527"><ele>670.0</ele><time>2026-04-25T12:46:34.451Z</time></trkpt><trkpt lat="40.124646" lon="15.7690899"><ele>672.5</ele><time>2026-04-25T12:46:35.45Z</time></trkpt><trkpt lat="40.1245913" lon="15.7690266"><ele>675.0</ele><time>2026-04-25T12:46:36.455Z</time></trkpt><trkpt lat="40.1245517" lon="15.768962"><ele>675.0</ele><time>2026-04-25T12:46:37.451Z</time></trkpt><trkpt lat="40.1245391" lon="15.7688801"><ele>675.0</ele><time>2026-04-25T12:46:38.45Z</time></trkpt><trkpt lat="40.1245248" lon="15.7687271"><ele>675.0</ele><time>2026-04-25T12:46:40.456Z</time></trkpt><trkpt lat="40.1245205" lon="15.7686174"><ele>675.0</ele><time>2026-04-25T12:46:42.454Z</time></trkpt><trkpt lat="40.1245394" lon="15.768538"><ele>675.0</ele><time>2026-04-25T12:46:45.476Z</time></trkpt><trkpt lat="40.1246041" lon="15.7684909"><ele>675.0</ele><time>2026-04-25T12:46:47.453Z</time></trkpt><trkpt lat="40.1247008" lon="15.7685253"><ele>675.0</ele><time>2026-04-25T12:46:49.451Z</time></trkpt><trkpt lat="40.1248142" lon="15.7685786"><ele>675.0</ele><time>2026-04-25T12:46:51.446Z</time></trkpt><trkpt lat="40.1249266" lon="15.7685787"><ele>675.0</ele><time>2026-04-25T12:46:53.461Z</time></trkpt><trkpt lat="40.1250256" lon="15.7685462"><ele>675.0</ele><time>2026-04-25T12:46:55.451Z</time></trkpt><trkpt lat="40.1248878" lon="15.7685713"><ele>675.0</ele><time>2026-04-25T12:47:03.447Z</time></trkpt><trkpt lat="40.1248065" lon="15.7685566"><ele>675.0</ele><time>2026-04-25T12:47:04.451Z</time></trkpt><trkpt lat="40.1247247" lon="15.7685298"><ele>675.0</ele><time>2026-04-25T12:47:05.453Z</time></trkpt><trkpt lat="40.1246408" lon="15.7684931"><ele>675.0</ele><time>2026-04-25T12:47:06.457Z</time></trkpt><trkpt lat="40.1245641" lon="15.768462"><ele>675.0</ele><time>2026-04-25T12:47:07.453Z</time></trkpt><trkpt lat="40.1244956" lon="15.7684315"><ele>675.0</ele><time>2026-04-25T12:47:08.459Z</time></trkpt><trkpt lat="40.1244245" lon="15.768391"><ele>675.1666666666666</ele><time>2026-04-25T12:47:09.45Z</time></trkpt><trkpt lat="40.1243529" lon="15.7683328"><ele>675.3333333333334</ele><time>2026-04-25T12:47:10.454Z</time></trkpt><trkpt lat="40.1242783" lon="15.7682621"><ele>675.5</ele><time>2026-04-25T12:47:11.45Z</time></trkpt><trkpt lat="40.1242133" lon="15.7681829"><ele>675.6666666666667</ele><time>2026-04-25T12:47:12.455Z</time></trkpt><trkpt lat="40.1241612" lon="15.7680932"><ele>675.8333333333334</ele><time>2026-04-25T12:47:13.454Z</time></trkpt><trkpt lat="40.1241213" lon="15.7679973"><ele>676.0</ele><time>2026-04-25T12:47:14.45Z</time></trkpt><trkpt lat="40.1240864" lon="15.7678988"><ele>672.8</ele><time>2026-04-25T12:47:15.454Z</time></trkpt><trkpt lat="40.1240525" lon="15.767803"><ele>669.5999999999999</ele><time>2026-04-25T12:47:16.454Z</time></trkpt><trkpt lat="40.1240288" lon="15.767705"><ele>666.4</ele><time>2026-04-25T12:47:17.448Z</time></trkpt><trkpt lat="40.1240047" lon="15.7676216"><ele>663.2</ele><time>2026-04-25T12:47:18.452Z</time></trkpt><trkpt lat="40.1239663" lon="15.767472"><ele>660.0</ele><time>2026-04-25T12:47:20.454Z</time></trkpt><trkpt lat="40.1239345" lon="15.7673275"><ele>660.0</ele><time>2026-04-25T12:47:22.448Z</time></trkpt><trkpt lat="40.1239064" lon="15.7671965"><ele>660.0</ele><time>2026-04-25T12:47:24.46Z</time></trkpt><trkpt lat="40.1239092" lon="15.7670788"><ele>660.0</ele><time>2026-04-25T12:47:26.455Z</time></trkpt><trkpt lat="40.1239905" lon="15.767016"><ele>660.0</ele><time>2026-04-25T12:47:28.46Z</time></trkpt><trkpt lat="40.1240936" lon="15.7669686"><ele>660.0</ele><time>2026-04-25T12:47:30.458Z</time></trkpt><trkpt lat="40.1241976" lon="15.7669127"><ele>659.5</ele><time>2026-04-25T12:47:32.451Z</time></trkpt><trkpt lat="40.1242828" lon="15.7668203"><ele>659.0</ele><time>2026-04-25T12:47:34.449Z</time></trkpt><trkpt lat="40.1243189" lon="15.7666877"><ele>658.5</ele><time>2026-04-25T12:47:36.461Z</time></trkpt><trkpt lat="40.1243131" lon="15.7665313"><ele>658.0</ele><time>2026-04-25T12:47:38.454Z</time></trkpt><trkpt lat="40.1242641" lon="15.7663855"><ele>658.0</ele><time>2026-04-25T12:47:40.449Z</time></trkpt><trkpt lat="40.1242176" lon="15.7663202"><ele>658.0</ele><time>2026-04-25T12:47:41.456Z</time></trkpt><trkpt lat="40.1241635" lon="15.7662569"><ele>658.0</ele><time>2026-04-25T12:47:42.464Z</time></trkpt><trkpt lat="40.1241078" lon="15.7661959"><ele>658.0</ele><time>2026-04-25T12:47:43.45Z</time></trkpt><trkpt lat="40.1240461" lon="15.7661515"><ele>658.0</ele><time>2026-04-25T12:47:44.461Z</time></trkpt><trkpt lat="40.1239861" lon="15.7660788"><ele>658.0</ele><time>2026-04-25T12:47:45.464Z</time></trkpt><trkpt lat="40.123948" lon="15.766004"><ele>658.0</ele><time>2026-04-25T12:47:46.447Z</time></trkpt><trkpt lat="40.1239233" lon="15.7658514"><ele>657.4</ele><time>2026-04-25T12:47:48.455Z</time></trkpt><trkpt lat="40.1239576" lon="15.7657116"><ele>656.8</ele><time>2026-04-25T12:47:50.461Z</time></trkpt><trkpt lat="40.1239847" lon="15.7655959"><ele>656.2</ele><time>2026-04-25T12:47:52.443Z</time></trkpt><trkpt lat="40.1239665" lon="15.7654773"><ele>655.6</ele><time>2026-04-25T12:47:54.45Z</time></trkpt><trkpt lat="40.1238914" lon="15.7654074"><ele>655.0</ele><time>2026-04-25T12:47:56.454Z</time></trkpt><trkpt lat="40.123805" lon="15.7654638"><ele>655.0</ele><time>2026-04-25T12:47:58.464Z</time></trkpt><trkpt lat="40.1237627" lon="15.7655836"><ele>655.0</ele><time>2026-04-25T12:48:00.476Z</time></trkpt><trkpt lat="40.1236985" lon="15.7657057"><ele>655.0</ele><time>2026-04-25T12:48:02.454Z</time></trkpt><trkpt lat="40.1236052" lon="15.7658181"><ele>655.0</ele><time>2026-04-25T12:48:04.458Z</time></trkpt><trkpt lat="40.1235503" lon="15.7658731"><ele>655.0</ele><time>2026-04-25T12:48:05.452Z</time></trkpt><trkpt lat="40.123489" lon="15.7659279"><ele>655.0</ele><time>2026-04-25T12:48:06.458Z</time></trkpt><trkpt lat="40.1234268" lon="15.7659801"><ele>655.0</ele><time>2026-04-25T12:48:07.457Z</time></trkpt><trkpt lat="40.1233653" lon="15.7660285"><ele>655.0</ele><time>2026-04-25T12:48:08.464Z</time></trkpt><trkpt lat="40.1233078" lon="15.7660702"><ele>655.0</ele><time>2026-04-25T12:48:09.453Z</time></trkpt><trkpt lat="40.1232404" lon="15.7661578"><ele>655.0</ele><time>2026-04-25T12:48:11.465Z</time></trkpt><trkpt lat="40.1232641" lon="15.7662357"><ele>655.0</ele><time>2026-04-25T12:48:13.465Z</time></trkpt><trkpt lat="40.1233291" lon="15.7662275"><ele>655.0</ele><time>2026-04-25T12:48:15.46Z</time></trkpt><trkpt lat="40.1234178" lon="15.7661544"><ele>655.0</ele><time>2026-04-25T12:48:17.461Z</time></trkpt><trkpt lat="40.1234625" lon="15.7660962"><ele>655.0</ele><time>2026-04-25T12:48:18.452Z</time></trkpt><trkpt lat="40.123514" lon="15.7660406"><ele>655.0</ele><time>2026-04-25T12:48:19.462Z</time></trkpt><trkpt lat="40.1235679" lon="15.7659863"><ele>655.0</ele><time>2026-04-25T12:48:20.457Z</time></trkpt><trkpt lat="40.1236217" lon="15.7659338"><ele>655.0</ele><time>2026-04-25T12:48:21.45Z</time></trkpt><trkpt lat="40.1236745" lon="15.7658753"><ele>655.0</ele><time>2026-04-25T12:48:22.465Z</time></trkpt><trkpt lat="40.1237236" lon="15.7658208"><ele>655.0</ele><time>2026-04-25T12:48:23.46Z</time></trkpt><trkpt lat="40.1237783" lon="15.7657725"><ele>655.0</ele><time>2026-04-25T12:48:24.462Z</time></trkpt><trkpt lat="40.1238762" lon="15.7656858"><ele>655.0</ele><time>2026-04-25T12:48:26.471Z</time></trkpt><trkpt lat="40.1239548" lon="15.7655941"><ele>655.0</ele><time>2026-04-25T12:48:28.455Z</time></trkpt><trkpt lat="40.1239626" lon="15.7654627"><ele>655.0</ele><time>2026-04-25T12:48:30.449Z</time></trkpt><trkpt lat="40.1239198" lon="15.7653087"><ele>655.0</ele><time>2026-04-25T12:48:32.452Z</time></trkpt><trkpt lat="40.1238828" lon="15.7652227"><ele>655.0</ele><time>2026-04-25T12:48:33.447Z</time></trkpt><trkpt lat="40.1238399" lon="15.7651348"><ele>655.0</ele><time>2026-04-25T12:48:34.459Z</time></trkpt><trkpt lat="40.1237956" lon="15.7650498"><ele>655.0</ele><time>2026-04-25T12:48:35.447Z</time></trkpt><trkpt lat="40.1237533" lon="15.7649638"><ele>655.0</ele><time>2026-04-25T12:48:36.455Z</time></trkpt><trkpt lat="40.123712" lon="15.7648786"><ele>655.0</ele><time>2026-04-25T12:48:37.451Z</time></trkpt><trkpt lat="40.1236711" lon="15.7647915"><ele>655.0</ele><time>2026-04-25T12:48:38.45Z</time></trkpt><trkpt lat="40.1236321" lon="15.7647043"><ele>655.0</ele><time>2026-04-25T12:48:39.447Z</time></trkpt><trkpt lat="40.1235942" lon="15.7646196"><ele>655.0</ele><time>2026-04-25T12:48:40.455Z</time></trkpt><trkpt lat="40.1235551" lon="15.764528"><ele>655.0</ele><time>2026-04-25T12:48:41.457Z</time></trkpt><trkpt lat="40.1235156" lon="15.7644268"><ele>655.0</ele><time>2026-04-25T12:48:42.459Z</time></trkpt><trkpt lat="40.123474" lon="15.7643208"><ele>655.0</ele><time>2026-04-25T12:48:43.464Z</time></trkpt><trkpt lat="40.1234344" lon="15.7641925"><ele>653.75</ele><time>2026-04-25T12:48:44.45Z</time></trkpt><trkpt lat="40.1233945" lon="15.7640478"><ele>652.5</ele><time>2026-04-25T12:48:45.443Z</time></trkpt><trkpt lat="40.1233588" lon="15.7638959"><ele>651.25</ele><time>2026-04-25T12:48:46.45Z</time></trkpt><trkpt lat="40.1233314" lon="15.7637334"><ele>650.0</ele><time>2026-04-25T12:48:47.458Z</time></trkpt><trkpt lat="40.1233114" lon="15.7635623"><ele>650.25</ele><time>2026-04-25T12:48:48.45Z</time></trkpt><trkpt lat="40.123302" lon="15.7633832"><ele>650.5</ele><time>2026-04-25T12:48:49.455Z</time></trkpt><trkpt lat="40.1233003" lon="15.7631999"><ele>650.75</ele><time>2026-04-25T12:48:50.45Z</time></trkpt><trkpt lat="40.1233043" lon="15.7630099"><ele>651.0</ele><time>2026-04-25T12:48:51.45Z</time></trkpt><trkpt lat="40.1233148" lon="15.7628298"><ele>652.25</ele><time>2026-04-25T12:48:52.455Z</time></trkpt><trkpt lat="40.1233297" lon="15.7626651"><ele>653.5</ele><time>2026-04-25T12:48:53.478Z</time></trkpt><trkpt lat="40.1233459" lon="15.7625125"><ele>654.75</ele><time>2026-04-25T12:48:54.468Z</time></trkpt><trkpt lat="40.123365" lon="15.762361"><ele>656.0</ele><time>2026-04-25T12:48:55.454Z</time></trkpt><trkpt lat="40.1233851" lon="15.7622086"><ele>656.0</ele><time>2026-04-25T12:48:56.458Z</time></trkpt><trkpt lat="40.1234057" lon="15.7620557"><ele>656.0</ele><time>2026-04-25T12:48:57.458Z</time></trkpt><trkpt lat="40.123428" lon="15.7619018"><ele>656.0</ele><time>2026-04-25T12:48:58.451Z</time></trkpt><trkpt lat="40.1234505" lon="15.7617465"><ele>656.0</ele><time>2026-04-25T12:48:59.46Z</time></trkpt><trkpt lat="40.1234731" lon="15.761584"><ele>656.25</ele><time>2026-04-25T12:49:00.459Z</time></trkpt><trkpt lat="40.1234985" lon="15.7614074"><ele>656.5</ele><time>2026-04-25T12:49:01.474Z</time></trkpt><trkpt lat="40.1235247" lon="15.7612182"><ele>656.75</ele><time>2026-04-25T12:49:02.473Z</time></trkpt><trkpt lat="40.1235482" lon="15.7610223"><ele>657.0</ele><time>2026-04-25T12:49:03.447Z</time></trkpt><trkpt lat="40.1235702" lon="15.7608222"><ele>655.6666666666666</ele><time>2026-04-25T12:49:04.461Z</time></trkpt><trkpt lat="40.1235889" lon="15.7606198"><ele>654.3333333333333</ele><time>2026-04-25T12:49:05.457Z</time></trkpt><trkpt lat="40.1236008" lon="15.760415"><ele>653.0</ele><time>2026-04-25T12:49:06.473Z</time></trkpt><trkpt lat="40.1236065" lon="15.7602087"><ele>654.3333333333333</ele><time>2026-04-25T12:49:07.46Z</time></trkpt><trkpt lat="40.123608" lon="15.7600019"><ele>655.6666666666666</ele><time>2026-04-25T12:49:08.455Z</time></trkpt><trkpt lat="40.123611" lon="15.759795"><ele>657.0</ele><time>2026-04-25T12:49:09.456Z</time></trkpt><trkpt lat="40.1236151" lon="15.7595901"><ele>657.0</ele><time>2026-04-25T12:49:10.448Z</time></trkpt><trkpt lat="40.1236147" lon="15.759396"><ele>657.0</ele><time>2026-04-25T12:49:11.45Z</time></trkpt><trkpt lat="40.1238971" lon="15.7572909"><ele>657.6666666666666</ele><time>2026-04-25T12:49:20.45Z</time></trkpt><trkpt lat="40.1239877" lon="15.7570821"><ele>658.3333333333333</ele><time>2026-04-25T12:49:21.458Z</time></trkpt><trkpt lat="40.124055" lon="15.7568818"><ele>659.0</ele><time>2026-04-25T12:49:22.454Z</time></trkpt><trkpt lat="40.1241131" lon="15.7566924"><ele>659.0</ele><time>2026-04-25T12:49:23.446Z</time></trkpt><trkpt lat="40.1241486" lon="15.7564905"><ele>659.0</ele><time>2026-04-25T12:49:24.445Z</time></trkpt><trkpt lat="40.1241736" lon="15.7563209"><ele>659.0</ele><time>2026-04-25T12:49:25.454Z</time></trkpt><trkpt lat="40.1242048" lon="15.7561435"><ele>659.0</ele><time>2026-04-25T12:49:26.444Z</time></trkpt><trkpt lat="40.1242248" lon="15.7559342"><ele>654.0</ele><time>2026-04-25T12:49:27.458Z</time></trkpt><trkpt lat="40.1242608" lon="15.7556993"><ele>649.0</ele><time>2026-04-25T12:49:28.452Z</time></trkpt><trkpt lat="40.1242983" lon="15.7554492"><ele>644.0</ele><time>2026-04-25T12:49:29.457Z</time></trkpt><trkpt lat="40.1243402" lon="15.7551918"><ele>641.0</ele><time>2026-04-25T12:49:30.45Z</time></trkpt><trkpt lat="40.1243808" lon="15.7549331"><ele>638.0</ele><time>2026-04-25T12:49:31.46Z</time></trkpt><trkpt lat="40.124421" lon="15.7546725"><ele>635.0</ele><time>2026-04-25T12:49:32.453Z</time></trkpt><trkpt lat="40.1244607" lon="15.7544323"><ele>635.0</ele><time>2026-04-25T12:49:33.468Z</time></trkpt><trkpt lat="40.1244961" lon="15.7542309"><ele>635.0</ele><time>2026-04-25T12:49:34.453Z</time></trkpt><trkpt lat="40.1245316" lon="15.7540492"><ele>635.0</ele><time>2026-04-25T12:49:35.453Z</time></trkpt><trkpt lat="40.1245727" lon="15.7538791"><ele>635.0</ele><time>2026-04-25T12:49:36.455Z</time></trkpt><trkpt lat="40.1246188" lon="15.7537071"><ele>633.0</ele><time>2026-04-25T12:49:37.461Z</time></trkpt><trkpt lat="40.1246718" lon="15.7535336"><ele>631.0</ele><time>2026-04-25T12:49:38.447Z</time></trkpt><trkpt lat="40.1247306" lon="15.7533767"><ele>629.0</ele><time>2026-04-25T12:49:39.456Z</time></trkpt><trkpt lat="40.1247928" lon="15.7532158"><ele>627.0</ele><time>2026-04-25T12:49:40.453Z</time></trkpt><trkpt lat="40.1248595" lon="15.7530736"><ele>630.2</ele><time>2026-04-25T12:49:41.464Z</time></trkpt><trkpt lat="40.1249286" lon="15.7529484"><ele>633.4000000000001</ele><time>2026-04-25T12:49:42.454Z</time></trkpt><trkpt lat="40.1249931" lon="15.7528409"><ele>636.5999999999999</ele><time>2026-04-25T12:49:43.464Z</time></trkpt><trkpt lat="40.1250531" lon="15.7527539"><ele>639.8</ele><time>2026-04-25T12:49:44.458Z</time></trkpt><trkpt lat="40.1251075" lon="15.7526771"><ele>643.0</ele><time>2026-04-25T12:49:45.486Z</time></trkpt><trkpt lat="40.1251423" lon="15.7526058"><ele>643.0</ele><time>2026-04-25T12:49:46.459Z</time></trkpt><trkpt lat="40.1251441" lon="15.7525233"><ele>643.0</ele><time>2026-04-25T12:49:47.451Z</time></trkpt><trkpt lat="40.1251127" lon="15.7524377"><ele>643.0</ele><time>2026-04-25T12:49:48.461Z</time></trkpt><trkpt lat="40.1250473" lon="15.7523588"><ele>643.0</ele><time>2026-04-25T12:49:49.464Z</time></trkpt><trkpt lat="40.12495" lon="15.7522905"><ele>643.0</ele><time>2026-04-25T12:49:50.451Z</time></trkpt><trkpt lat="40.1248242" lon="15.752221"><ele>629.0</ele><time>2026-04-25T12:49:51.449Z</time></trkpt><trkpt lat="40.124668" lon="15.7521242"><ele>615.0</ele><time>2026-04-25T12:49:52.451Z</time></trkpt><trkpt lat="40.124489" lon="15.7519991"><ele>601.0</ele><time>2026-04-25T12:49:53.455Z</time></trkpt><trkpt lat="40.1242847" lon="15.7518368"><ele>592.5</ele><time>2026-04-25T12:49:54.449Z</time></trkpt><trkpt lat="40.1240714" lon="15.7516747"><ele>584.0</ele><time>2026-04-25T12:49:55.459Z</time></trkpt><trkpt lat="40.1238536" lon="15.7515102"><ele>584.0</ele><time>2026-04-25T12:49:56.449Z</time></trkpt><trkpt lat="40.1236253" lon="15.7513441"><ele>584.0</ele><time>2026-04-25T12:49:57.453Z</time></trkpt><trkpt lat="40.1234091" lon="15.7511901"><ele>589.6666666666666</ele><time>2026-04-25T12:49:58.458Z</time></trkpt><trkpt lat="40.1232115" lon="15.7510496"><ele>595.3333333333334</ele><time>2026-04-25T12:49:59.445Z</time></trkpt><trkpt lat="40.1230184" lon="15.7509163"><ele>601.0</ele><time>2026-04-25T12:50:00.453Z</time></trkpt><trkpt lat="40.1228396" lon="15.7507975"><ele>611.0</ele><time>2026-04-25T12:50:01.459Z</time></trkpt><trkpt lat="40.1226701" lon="15.7507009"><ele>621.0</ele><time>2026-04-25T12:50:02.454Z</time></trkpt><trkpt lat="40.122514" lon="15.7506291"><ele>631.0</ele><time>2026-04-25T12:50:03.443Z</time></trkpt><trkpt lat="40.1223664" lon="15.7505798"><ele>631.0</ele><time>2026-04-25T12:50:04.463Z</time></trkpt><trkpt lat="40.1222241" lon="15.7505435"><ele>631.0</ele><time>2026-04-25T12:50:05.456Z</time></trkpt><trkpt lat="40.1220896" lon="15.750514"><ele>631.0</ele><time>2026-04-25T12:50:06.443Z</time></trkpt><trkpt lat="40.1219641" lon="15.750486"><ele>631.0</ele><time>2026-04-25T12:50:07.449Z</time></trkpt><trkpt lat="40.1218508" lon="15.7504584"><ele>631.0</ele><time>2026-04-25T12:50:08.445Z</time></trkpt><trkpt lat="40.1217593" lon="15.7504232"><ele>631.0</ele><time>2026-04-25T12:50:09.447Z</time></trkpt><trkpt lat="40.1216869" lon="15.7503858"><ele>631.0</ele><time>2026-04-25T12:50:10.446Z</time></trkpt><trkpt lat="40.1216356" lon="15.750314"><ele>631.0</ele><time>2026-04-25T12:50:11.442Z</time></trkpt><trkpt lat="40.1215939" lon="15.750252"><ele>631.0</ele><time>2026-04-25T12:50:12.441Z</time></trkpt><trkpt lat="40.1216058" lon="15.7501699"><ele>631.0</ele><time>2026-04-25T12:50:13.456Z</time></trkpt><trkpt lat="40.1216385" lon="15.7500709"><ele>635.25</ele><time>2026-04-25T12:50:14.45Z</time></trkpt><trkpt lat="40.1216921" lon="15.7499653"><ele>639.5</ele><time>2026-04-25T12:50:15.453Z</time></trkpt><trkpt lat="40.1217671" lon="15.749845"><ele>643.75</ele><time>2026-04-25T12:50:16.455Z</time></trkpt><trkpt lat="40.1218478" lon="15.7496944"><ele>648.0</ele><time>2026-04-25T12:50:17.459Z</time></trkpt><trkpt lat="40.1219388" lon="15.7495293"><ele>656.6666666666666</ele><time>2026-04-25T12:50:18.453Z</time></trkpt><trkpt lat="40.1220304" lon="15.7493409"><ele>665.3333333333333</ele><time>2026-04-25T12:50:19.451Z</time></trkpt><trkpt lat="40.1221204" lon="15.7491313"><ele>674.0</ele><time>2026-04-25T12:50:20.445Z</time></trkpt><trkpt lat="40.1222227" lon="15.748915"><ele>674.0</ele><time>2026-04-25T12:50:21.462Z</time></trkpt><trkpt lat="40.1223392" lon="15.7487061"><ele>674.0</ele><time>2026-04-25T12:50:22.457Z</time></trkpt><trkpt lat="40.1224691" lon="15.7485006"><ele>674.0</ele><time>2026-04-25T12:50:23.462Z</time></trkpt><trkpt lat="40.1226183" lon="15.7483122"><ele>670.6666666666666</ele><time>2026-04-25T12:50:24.453Z</time></trkpt><trkpt lat="40.1227812" lon="15.7481379"><ele>667.3333333333334</ele><time>2026-04-25T12:50:25.457Z</time></trkpt><trkpt lat="40.1229546" lon="15.7479804"><ele>664.0</ele><time>2026-04-25T12:50:26.447Z</time></trkpt><trkpt lat="40.1231371" lon="15.7478383"><ele>661.3333333333334</ele><time>2026-04-25T12:50:27.468Z</time></trkpt><trkpt lat="40.1233243" lon="15.747707"><ele>658.6666666666666</ele><time>2026-04-25T12:50:28.45Z</time></trkpt><trkpt lat="40.1235078" lon="15.7475655"><ele>656.0</ele><time>2026-04-25T12:50:29.476Z</time></trkpt><trkpt lat="40.1236781" lon="15.7473998"><ele>656.0</ele><time>2026-04-25T12:50:30.447Z</time></trkpt><trkpt lat="40.123832" lon="15.7472092"><ele>656.0</ele><time>2026-04-25T12:50:31.459Z</time></trkpt><trkpt lat="40.1239756" lon="15.7470074"><ele>656.0</ele><time>2026-04-25T12:50:32.451Z</time></trkpt><trkpt lat="40.1241186" lon="15.7468089"><ele>650.3333333333333</ele><time>2026-04-25T12:50:33.455Z</time></trkpt><trkpt lat="40.1242694" lon="15.7466225"><ele>644.6666666666666</ele><time>2026-04-25T12:50:34.444Z</time></trkpt><trkpt lat="40.1244285" lon="15.7464529"><ele>639.0</ele><time>2026-04-25T12:50:35.455Z</time></trkpt><trkpt lat="40.1245921" lon="15.746297"><ele>639.0</ele><time>2026-04-25T12:50:36.452Z</time></trkpt><trkpt lat="40.1247608" lon="15.7461607"><ele>639.0</ele><time>2026-04-25T12:50:37.453Z</time></trkpt><trkpt lat="40.1249316" lon="15.746038"><ele>639.0</ele><time>2026-04-25T12:50:38.447Z</time></trkpt><trkpt lat="40.1250973" lon="15.7459082"><ele>639.6666666666666</ele><time>2026-04-25T12:50:39.443Z</time></trkpt><trkpt lat="40.1252498" lon="15.7457558"><ele>640.3333333333333</ele><time>2026-04-25T12:50:40.454Z</time></trkpt><trkpt lat="40.1253851" lon="15.7455792"><ele>641.0</ele><time>2026-04-25T12:50:41.455Z</time></trkpt><trkpt lat="40.125501" lon="15.7453818"><ele>637.0</ele><time>2026-04-25T12:50:42.444Z</time></trkpt><trkpt lat="40.125598" lon="15.745169"><ele>633.0</ele><time>2026-04-25T12:50:43.449Z</time></trkpt><trkpt lat="40.1256886" lon="15.7449484"><ele>629.0</ele><time>2026-04-25T12:50:44.458Z</time></trkpt><trkpt lat="40.1257797" lon="15.7447265"><ele>629.0</ele><time>2026-04-25T12:50:45.452Z</time></trkpt><trkpt lat="40.1258713" lon="15.7445022"><ele>629.0</ele><time>2026-04-25T12:50:46.444Z</time></trkpt><trkpt lat="40.1259642" lon="15.7442799"><ele>629.0</ele><time>2026-04-25T12:50:47.449Z</time></trkpt><trkpt lat="40.1260637" lon="15.7440614"><ele>640.6666666666666</ele><time>2026-04-25T12:50:48.447Z</time></trkpt><trkpt lat="40.1261763" lon="15.7438547"><ele>652.3333333333334</ele><time>2026-04-25T12:50:49.455Z</time></trkpt><trkpt lat="40.1263017" lon="15.7436598"><ele>664.0</ele><time>2026-04-25T12:50:50.444Z</time></trkpt><trkpt lat="40.1264383" lon="15.7434783"><ele>653.3333333333334</ele><time>2026-04-25T12:50:51.455Z</time></trkpt><trkpt lat="40.1265856" lon="15.7433121"><ele>642.6666666666666</ele><time>2026-04-25T12:50:52.452Z</time></trkpt><trkpt lat="40.1267422" lon="15.7431599"><ele>632.0</ele><time>2026-04-25T12:50:53.453Z</time></trkpt><trkpt lat="40.1269097" lon="15.7430291"><ele>632.0</ele><time>2026-04-25T12:50:54.457Z</time></trkpt><trkpt lat="40.1270858" lon="15.7429218"><ele>632.0</ele><time>2026-04-25T12:50:55.45Z</time></trkpt><trkpt lat="40.1272692" lon="15.7428331"><ele>632.0</ele><time>2026-04-25T12:50:56.451Z</time></trkpt><trkpt lat="40.1274544" lon="15.7427463"><ele>638.3333333333333</ele><time>2026-04-25T12:50:57.454Z</time></trkpt><trkpt lat="40.1276428" lon="15.7426478"><ele>644.6666666666666</ele><time>2026-04-25T12:50:58.445Z</time></trkpt><trkpt lat="40.1278364" lon="15.7425174"><ele>651.0</ele><time>2026-04-25T12:50:59.45Z</time></trkpt><trkpt lat="40.1280363" lon="15.7423771"><ele>651.0</ele><time>2026-04-25T12:51:00.453Z</time></trkpt><trkpt lat="40.1282086" lon="15.742173"><ele>651.0</ele><time>2026-04-25T12:51:01.449Z</time></trkpt><trkpt lat="40.1283657" lon="15.7419531"><ele>651.6666666666666</ele><time>2026-04-25T12:51:02.449Z</time></trkpt><trkpt lat="40.1285017" lon="15.7417172"><ele>652.3333333333333</ele><time>2026-04-25T12:51:03.449Z</time></trkpt><trkpt lat="40.1286331" lon="15.7414901"><ele>653.0</ele><time>2026-04-25T12:51:04.452Z</time></trkpt><trkpt lat="40.1287724" lon="15.741275"><ele>653.0</ele><time>2026-04-25T12:51:05.451Z</time></trkpt><trkpt lat="40.1289091" lon="15.7410643"><ele>653.0</ele><time>2026-04-25T12:51:06.458Z</time></trkpt><trkpt lat="40.1290807" lon="15.7409019"><ele>653.0</ele><time>2026-04-25T12:51:07.443Z</time></trkpt><trkpt lat="40.1292578" lon="15.7407595"><ele>646.0</ele><time>2026-04-25T12:51:08.452Z</time></trkpt><trkpt lat="40.1294491" lon="15.740639"><ele>639.0</ele><time>2026-04-25T12:51:09.455Z</time></trkpt><trkpt lat="40.1296399" lon="15.7405293"><ele>632.0</ele><time>2026-04-25T12:51:10.447Z</time></trkpt><trkpt lat="40.1298348" lon="15.7404153"><ele>635.0</ele><time>2026-04-25T12:51:11.449Z</time></trkpt><trkpt lat="40.1300264" lon="15.7402931"><ele>638.0</ele><time>2026-04-25T12:51:12.447Z</time></trkpt><trkpt lat="40.1302133" lon="15.7401574"><ele>641.0</ele><time>2026-04-25T12:51:13.448Z</time></trkpt><trkpt lat="40.1303848" lon="15.7399769"><ele>641.0</ele><time>2026-04-25T12:51:14.45Z</time></trkpt><trkpt lat="40.1305449" lon="15.7397866"><ele>641.0</ele><time>2026-04-25T12:51:15.452Z</time></trkpt><trkpt lat="40.1306797" lon="15.7395706"><ele>641.0</ele><time>2026-04-25T12:51:16.447Z</time></trkpt><trkpt lat="40.1308037" lon="15.7393474"><ele>637.6666666666666</ele><time>2026-04-25T12:51:17.453Z</time></trkpt><trkpt lat="40.1309235" lon="15.7391138"><ele>634.3333333333334</ele><time>2026-04-25T12:51:18.466Z</time></trkpt><trkpt lat="40.1310491" lon="15.73889"><ele>631.0</ele><time>2026-04-25T12:51:19.451Z</time></trkpt><trkpt lat="40.1311788" lon="15.7386765"><ele>638.0</ele><time>2026-04-25T12:51:20.449Z</time></trkpt><trkpt lat="40.1313155" lon="15.7384747"><ele>645.0</ele><time>2026-04-25T12:51:21.449Z</time></trkpt><trkpt lat="40.1314578" lon="15.7382885"><ele>652.0</ele><time>2026-04-25T12:51:22.446Z</time></trkpt><trkpt lat="40.1316088" lon="15.7381194"><ele>635.6666666666667</ele><time>2026-04-25T12:51:23.462Z</time></trkpt><trkpt lat="40.1317648" lon="15.7379644"><ele>619.3333333333334</ele><time>2026-04-25T12:51:24.453Z</time></trkpt><trkpt lat="40.1319306" lon="15.7378251"><ele>603.0</ele><time>2026-04-25T12:51:25.462Z</time></trkpt><trkpt lat="40.1321053" lon="15.7377023"><ele>601.6666666666666</ele><time>2026-04-25T12:51:26.45Z</time></trkpt><trkpt lat="40.1322872" lon="15.7375938"><ele>600.3333333333333</ele><time>2026-04-25T12:51:27.461Z</time></trkpt><trkpt lat="40.1324744" lon="15.7375059"><ele>599.0</ele><time>2026-04-25T12:51:28.447Z</time></trkpt><trkpt lat="40.1326659" lon="15.7374396"><ele>596.6666666666666</ele><time>2026-04-25T12:51:29.445Z</time></trkpt><trkpt lat="40.1328609" lon="15.7373957"><ele>594.3333333333334</ele><time>2026-04-25T12:51:30.46Z</time></trkpt><trkpt lat="40.1330558" lon="15.7373691"><ele>592.0</ele><time>2026-04-25T12:51:31.45Z</time></trkpt><trkpt lat="40.1332523" lon="15.7373533"><ele>601.0</ele><time>2026-04-25T12:51:32.453Z</time></trkpt><trkpt lat="40.1334494" lon="15.7373456"><ele>610.0</ele><time>2026-04-25T12:51:33.451Z</time></trkpt><trkpt lat="40.133647" lon="15.7373443"><ele>619.0</ele><time>2026-04-25T12:51:34.452Z</time></trkpt><trkpt lat="40.1338445" lon="15.7373439"><ele>619.0</ele><time>2026-04-25T12:51:35.448Z</time></trkpt><trkpt lat="40.1340428" lon="15.7373472"><ele>619.0</ele><time>2026-04-25T12:51:36.446Z</time></trkpt><trkpt lat="40.1342447" lon="15.7373326"><ele>619.0</ele><time>2026-04-25T12:51:37.46Z</time></trkpt><trkpt lat="40.1344451" lon="15.7373059"><ele>619.3333333333334</ele><time>2026-04-25T12:51:38.455Z</time></trkpt><trkpt lat="40.134643" lon="15.7372628"><ele>619.6666666666666</ele><time>2026-04-25T12:51:39.456Z</time></trkpt><trkpt lat="40.1348366" lon="15.7371995"><ele>620.0</ele><time>2026-04-25T12:51:40.45Z</time></trkpt><trkpt lat="40.1350288" lon="15.7371127"><ele>618.3333333333333</ele><time>2026-04-25T12:51:41.457Z</time></trkpt><trkpt lat="40.1352153" lon="15.7370113"><ele>616.6666666666666</ele><time>2026-04-25T12:51:42.448Z</time></trkpt><trkpt lat="40.1353995" lon="15.7369023"><ele>615.0</ele><time>2026-04-25T12:51:43.454Z</time></trkpt><trkpt lat="40.1355827" lon="15.7367894"><ele>619.0</ele><time>2026-04-25T12:51:44.445Z</time></trkpt><trkpt lat="40.1357641" lon="15.7366774"><ele>623.0</ele><time>2026-04-25T12:51:45.456Z</time></trkpt><trkpt lat="40.1359575" lon="15.7365803"><ele>627.0</ele><time>2026-04-25T12:51:46.446Z</time></trkpt><trkpt lat="40.1361556" lon="15.7365094"><ele>627.0</ele><time>2026-04-25T12:51:47.45Z</time></trkpt><trkpt lat="40.1363496" lon="15.7364519"><ele>627.0</ele><time>2026-04-25T12:51:48.448Z</time></trkpt><trkpt lat="40.1365246" lon="15.7364379"><ele>627.0</ele><time>2026-04-25T12:51:49.461Z</time></trkpt><trkpt lat="40.1366981" lon="15.7364269"><ele>624.0</ele><time>2026-04-25T12:51:50.447Z</time></trkpt><trkpt lat="40.1368607" lon="15.7364143"><ele>621.0</ele><time>2026-04-25T12:51:51.449Z</time></trkpt><trkpt lat="40.1370144" lon="15.736398"><ele>618.0</ele><time>2026-04-25T12:51:52.455Z</time></trkpt><trkpt lat="40.13715" lon="15.7363662"><ele>618.0</ele><time>2026-04-25T12:51:53.452Z</time></trkpt><trkpt lat="40.137275" lon="15.7363253"><ele>618.0</ele><time>2026-04-25T12:51:54.457Z</time></trkpt><trkpt lat="40.1373882" lon="15.7362858"><ele>618.0</ele><time>2026-04-25T12:51:55.447Z</time></trkpt><trkpt lat="40.1374906" lon="15.7362453"><ele>618.0</ele><time>2026-04-25T12:51:56.462Z</time></trkpt><trkpt lat="40.1375809" lon="15.7362032"><ele>618.0</ele><time>2026-04-25T12:51:57.456Z</time></trkpt><trkpt lat="40.1376432" lon="15.7361734"><ele>615.8</ele><time>2026-04-25T12:51:58.446Z</time></trkpt><trkpt lat="40.1377489" lon="15.7361355"><ele>613.5999999999999</ele><time>2026-04-25T12:52:38.458Z</time></trkpt><trkpt lat="40.1378138" lon="15.7360959"><ele>611.4000000000001</ele><time>2026-04-25T12:52:39.467Z</time></trkpt><trkpt lat="40.1379021" lon="15.7360515"><ele>609.2</ele><time>2026-04-25T12:52:40.452Z</time></trkpt><trkpt lat="40.1380096" lon="15.7360081"><ele>607.0</ele><time>2026-04-25T12:52:41.454Z</time></trkpt><trkpt lat="40.1381364" lon="15.7359664"><ele>610.6666666666667</ele><time>2026-04-25T12:52:42.444Z</time></trkpt><trkpt lat="40.1382835" lon="15.7359253"><ele>614.3333333333334</ele><time>2026-04-25T12:52:43.453Z</time></trkpt><trkpt lat="40.1384486" lon="15.7358819"><ele>618.0</ele><time>2026-04-25T12:52:44.448Z</time></trkpt><trkpt lat="40.1386242" lon="15.7358347"><ele>618.0</ele><time>2026-04-25T12:52:45.454Z</time></trkpt><trkpt lat="40.138807" lon="15.7357841"><ele>618.0</ele><time>2026-04-25T12:52:46.457Z</time></trkpt><trkpt lat="40.1389965" lon="15.7357327"><ele>618.0</ele><time>2026-04-25T12:52:47.463Z</time></trkpt><trkpt lat="40.1391899" lon="15.7356798"><ele>607.0</ele><time>2026-04-25T12:52:48.452Z</time></trkpt><trkpt lat="40.1393823" lon="15.7356292"><ele>596.0</ele><time>2026-04-25T12:52:49.457Z</time></trkpt><trkpt lat="40.1395717" lon="15.7355792"><ele>585.0</ele><time>2026-04-25T12:52:50.454Z</time></trkpt><trkpt lat="40.1397581" lon="15.7355316"><ele>587.0</ele><time>2026-04-25T12:52:51.46Z</time></trkpt><trkpt lat="40.1399401" lon="15.7354832"><ele>589.0</ele><time>2026-04-25T12:52:52.449Z</time></trkpt><trkpt lat="40.1401215" lon="15.7354358"><ele>591.0</ele><time>2026-04-25T12:52:53.455Z</time></trkpt><trkpt lat="40.1403071" lon="15.7353942"><ele>591.0</ele><time>2026-04-25T12:52:54.45Z</time></trkpt><trkpt lat="40.1404953" lon="15.7353526"><ele>591.0</ele><time>2026-04-25T12:52:55.456Z</time></trkpt><trkpt lat="40.140689" lon="15.7352957"><ele>591.0</ele><time>2026-04-25T12:52:56.458Z</time></trkpt><trkpt lat="40.1408885" lon="15.7352264"><ele>593.6666666666666</ele><time>2026-04-25T12:52:57.456Z</time></trkpt><trkpt lat="40.1410898" lon="15.7351562"><ele>596.3333333333333</ele><time>2026-04-25T12:52:58.45Z</time></trkpt><trkpt lat="40.1412901" lon="15.7350876"><ele>599.0</ele><time>2026-04-25T12:52:59.462Z</time></trkpt><trkpt lat="40.1414834" lon="15.7350227"><ele>600.0</ele><time>2026-04-25T12:53:00.46Z</time></trkpt><trkpt lat="40.1416628" lon="15.7349633"><ele>601.0</ele><time>2026-04-25T12:53:01.451Z</time></trkpt><trkpt lat="40.1418273" lon="15.7349106"><ele>602.0</ele><time>2026-04-25T12:53:02.456Z</time></trkpt><trkpt lat="40.1419667" lon="15.7348635"><ele>602.0</ele><time>2026-04-25T12:53:03.456Z</time></trkpt><trkpt lat="40.142079" lon="15.7348222"><ele>602.0</ele><time>2026-04-25T12:53:04.449Z</time></trkpt><trkpt lat="40.1421648" lon="15.7347822"><ele>602.0</ele><time>2026-04-25T12:53:05.477Z</time></trkpt><trkpt lat="40.1422187" lon="15.7347241"><ele>602.0</ele><time>2026-04-25T12:53:06.464Z</time></trkpt><trkpt lat="40.1422245" lon="15.7345599"><ele>602.0</ele><time>2026-04-25T12:53:08.457Z</time></trkpt><trkpt lat="40.1421807" lon="15.7344748"><ele>602.0</ele><time>2026-04-25T12:53:09.464Z</time></trkpt><trkpt lat="40.1421349" lon="15.7343945"><ele>602.0</ele><time>2026-04-25T12:53:10.444Z</time></trkpt><trkpt lat="40.1420446" lon="15.7343339"><ele>602.0</ele><time>2026-04-25T12:53:11.467Z</time></trkpt><trkpt lat="40.1419333" lon="15.7342829"><ele>602.0</ele><time>2026-04-25T12:53:12.461Z</time></trkpt><trkpt lat="40.1418064" lon="15.7342211"><ele>602.0</ele><time>2026-04-25T12:53:13.45Z</time></trkpt><trkpt lat="40.1416756" lon="15.7341403"><ele>601.75</ele><time>2026-04-25T12:53:14.46Z</time></trkpt><trkpt lat="40.1415556" lon="15.7340341"><ele>601.5</ele><time>2026-04-25T12:53:15.451Z</time></trkpt><trkpt lat="40.1414591" lon="15.7339038"><ele>601.25</ele><time>2026-04-25T12:53:16.447Z</time></trkpt><trkpt lat="40.1413943" lon="15.7337646"><ele>601.0</ele><time>2026-04-25T12:53:17.452Z</time></trkpt><trkpt lat="40.1413751" lon="15.7336285"><ele>601.1666666666667</ele><time>2026-04-25T12:53:18.454Z</time></trkpt><trkpt lat="40.1414003" lon="15.7335223"><ele>601.3333333333334</ele><time>2026-04-25T12:53:19.473Z</time></trkpt><trkpt lat="40.1414363" lon="15.7334283"><ele>601.5</ele><time>2026-04-25T12:53:20.456Z</time></trkpt><trkpt lat="40.1415014" lon="15.7333483"><ele>601.6666666666666</ele><time>2026-04-25T12:53:21.447Z</time></trkpt><trkpt lat="40.1415617" lon="15.7332649"><ele>601.8333333333333</ele><time>2026-04-25T12:53:22.455Z</time></trkpt><trkpt lat="40.1415573" lon="15.7331404"><ele>602.0</ele><time>2026-04-25T12:53:23.458Z</time></trkpt><trkpt lat="40.1415144" lon="15.7330278"><ele>602.0</ele><time>2026-04-25T12:53:24.457Z</time></trkpt><trkpt lat="40.1414509" lon="15.732932"><ele>602.0</ele><time>2026-04-25T12:53:25.454Z</time></trkpt><trkpt lat="40.1413943" lon="15.7328399"><ele>602.0</ele><time>2026-04-25T12:53:26.453Z</time></trkpt><trkpt lat="40.1413561" lon="15.7327518"><ele>602.0</ele><time>2026-04-25T12:53:27.464Z</time></trkpt><trkpt lat="40.1413826" lon="15.7326516"><ele>602.0</ele><time>2026-04-25T12:53:28.463Z</time></trkpt><trkpt lat="40.1414444" lon="15.7325826"><ele>602.0</ele><time>2026-04-25T12:53:29.464Z</time></trkpt><trkpt lat="40.1415183" lon="15.7325055"><ele>609.0</ele><time>2026-04-25T12:53:30.46Z</time></trkpt><trkpt lat="40.14161" lon="15.7324348"><ele>616.0</ele><time>2026-04-25T12:53:31.463Z</time></trkpt><trkpt lat="40.141712" lon="15.7323576"><ele>623.0</ele><time>2026-04-25T12:53:32.449Z</time></trkpt><trkpt lat="40.141808" lon="15.7322744"><ele>630.0</ele><time>2026-04-25T12:53:33.453Z</time></trkpt><trkpt lat="40.1418799" lon="15.7321702"><ele>637.0</ele><time>2026-04-25T12:53:34.458Z</time></trkpt><trkpt lat="40.141921" lon="15.7320456"><ele>637.0</ele><time>2026-04-25T12:53:35.458Z</time></trkpt><trkpt lat="40.1419491" lon="15.7319185"><ele>637.0</ele><time>2026-04-25T12:53:36.452Z</time></trkpt><trkpt lat="40.1419256" lon="15.7317689"><ele>637.0</ele><time>2026-04-25T12:53:37.454Z</time></trkpt><trkpt lat="40.1419026" lon="15.731617"><ele>637.0</ele><time>2026-04-25T12:53:38.456Z</time></trkpt><trkpt lat="40.1418909" lon="15.731471"><ele>637.0</ele><time>2026-04-25T12:53:39.445Z</time></trkpt><trkpt lat="40.1419109" lon="15.7313083"><ele>636.0</ele><time>2026-04-25T12:53:40.445Z</time></trkpt><trkpt lat="40.1419808" lon="15.7311944"><ele>635.0</ele><time>2026-04-25T12:53:41.465Z</time></trkpt><trkpt lat="40.142033" lon="15.7310662"><ele>634.0</ele><time>2026-04-25T12:53:42.458Z</time></trkpt><trkpt lat="40.1420669" lon="15.7309075"><ele>633.0</ele><time>2026-04-25T12:53:43.469Z</time></trkpt><trkpt lat="40.1420875" lon="15.7307172"><ele>633.0</ele><time>2026-04-25T12:53:44.445Z</time></trkpt><trkpt lat="40.1420593" lon="15.7304775"><ele>633.0</ele><time>2026-04-25T12:53:45.449Z</time></trkpt><trkpt lat="40.1420193" lon="15.7302335"><ele>633.0</ele><time>2026-04-25T12:53:46.458Z</time></trkpt><trkpt lat="40.1419782" lon="15.7299934"><ele>637.0</ele><time>2026-04-25T12:53:47.452Z</time></trkpt><trkpt lat="40.1419303" lon="15.7297786"><ele>641.0</ele><time>2026-04-25T12:53:48.458Z</time></trkpt><trkpt lat="40.1418799" lon="15.7295913"><ele>645.0</ele><time>2026-04-25T12:53:49.447Z</time></trkpt><trkpt lat="40.1418392" lon="15.7294227"><ele>647.75</ele><time>2026-04-25T12:53:50.45Z</time></trkpt><trkpt lat="40.1418203" lon="15.7292608"><ele>650.5</ele><time>2026-04-25T12:53:51.456Z</time></trkpt><trkpt lat="40.141803" lon="15.7290931"><ele>653.25</ele><time>2026-04-25T12:53:52.452Z</time></trkpt><trkpt lat="40.1418332" lon="15.7289155"><ele>656.0</ele><time>2026-04-25T12:53:53.462Z</time></trkpt><trkpt lat="40.1418669" lon="15.7287192"><ele>655.3333333333333</ele><time>2026-04-25T12:53:54.454Z</time></trkpt><trkpt lat="40.1419096" lon="15.7285015"><ele>654.6666666666666</ele><time>2026-04-25T12:53:55.45Z</time></trkpt><trkpt lat="40.1419477" lon="15.7282728"><ele>654.0</ele><time>2026-04-25T12:53:56.456Z</time></trkpt><trkpt lat="40.1419881" lon="15.7280341"><ele>654.0</ele><time>2026-04-25T12:53:57.453Z</time></trkpt><trkpt lat="40.1420271" lon="15.7277964"><ele>654.0</ele><time>2026-04-25T12:53:58.458Z</time></trkpt><trkpt lat="40.1420582" lon="15.7275652"><ele>654.0</ele><time>2026-04-25T12:53:59.45Z</time></trkpt><trkpt lat="40.1420681" lon="15.7273398"><ele>653.6666666666666</ele><time>2026-04-25T12:54:00.461Z</time></trkpt><trkpt lat="40.1420564" lon="15.7271211"><ele>653.3333333333333</ele><time>2026-04-25T12:54:01.453Z</time></trkpt><trkpt lat="40.142039" lon="15.726912"><ele>653.0</ele><time>2026-04-25T12:54:02.446Z</time></trkpt><trkpt lat="40.1420003" lon="15.7267138"><ele>656.25</ele><time>2026-04-25T12:54:03.461Z</time></trkpt><trkpt lat="40.1419743" lon="15.7265316"><ele>659.5</ele><time>2026-04-25T12:54:04.45Z</time></trkpt><trkpt lat="40.1419823" lon="15.726359"><ele>662.75</ele><time>2026-04-25T12:54:05.45Z</time></trkpt><trkpt lat="40.1420153" lon="15.7262052"><ele>666.0</ele><time>2026-04-25T12:54:06.462Z</time></trkpt><trkpt lat="40.1420768" lon="15.7260978"><ele>665.5</ele><time>2026-04-25T12:54:07.468Z</time></trkpt><trkpt lat="40.1421646" lon="15.7260319"><ele>665.0</ele><time>2026-04-25T12:54:08.447Z</time></trkpt><trkpt lat="40.1422601" lon="15.7259778"><ele>664.5</ele><time>2026-04-25T12:54:09.455Z</time></trkpt><trkpt lat="40.1423874" lon="15.7259872"><ele>664.0</ele><time>2026-04-25T12:54:10.463Z</time></trkpt><trkpt lat="40.1425209" lon="15.7260026"><ele>672.3333333333334</ele><time>2026-04-25T12:54:11.458Z</time></trkpt><trkpt lat="40.1426675" lon="15.7260132"><ele>680.6666666666666</ele><time>2026-04-25T12:54:12.454Z</time></trkpt><trkpt lat="40.1428258" lon="15.7260049"><ele>689.0</ele><time>2026-04-25T12:54:13.447Z</time></trkpt><trkpt lat="40.1429873" lon="15.7259395"><ele>689.0</ele><time>2026-04-25T12:54:14.453Z</time></trkpt><trkpt lat="40.1431448" lon="15.7258519"><ele>689.0</ele><time>2026-04-25T12:54:15.453Z</time></trkpt><trkpt lat="40.1432945" lon="15.7257735"><ele>689.0</ele><time>2026-04-25T12:54:16.453Z</time></trkpt><trkpt lat="40.1434451" lon="15.7257107"><ele>692.0</ele><time>2026-04-25T12:54:17.458Z</time></trkpt><trkpt lat="40.143596" lon="15.7256731"><ele>695.0</ele><time>2026-04-25T12:54:18.449Z</time></trkpt><trkpt lat="40.1437394" lon="15.725659"><ele>698.0</ele><time>2026-04-25T12:54:19.453Z</time></trkpt><trkpt lat="40.1438706" lon="15.7256498"><ele>701.0</ele><time>2026-04-25T12:54:20.452Z</time></trkpt><trkpt lat="40.1439884" lon="15.7256197"><ele>702.1999999999999</ele><time>2026-04-25T12:54:21.458Z</time></trkpt><trkpt lat="40.1440931" lon="15.7255694"><ele>703.4</ele><time>2026-04-25T12:54:22.456Z</time></trkpt><trkpt lat="40.1441472" lon="15.7254515"><ele>704.6</ele><time>2026-04-25T12:54:23.453Z</time></trkpt><trkpt lat="40.1441642" lon="15.7253232"><ele>705.8</ele><time>2026-04-25T12:54:24.463Z</time></trkpt><trkpt lat="40.1441465" lon="15.7251745"><ele>707.0</ele><time>2026-04-25T12:54:25.455Z</time></trkpt><trkpt lat="40.1441019" lon="15.7250485"><ele>706.0</ele><time>2026-04-25T12:54:26.461Z</time></trkpt><trkpt lat="40.1440188" lon="15.7249356"><ele>705.0</ele><time>2026-04-25T12:54:27.461Z</time></trkpt><trkpt lat="40.1439277" lon="15.7248241"><ele>704.0</ele><time>2026-04-25T12:54:28.448Z</time></trkpt><trkpt lat="40.1438171" lon="15.7247414"><ele>703.0</ele><time>2026-04-25T12:54:29.459Z</time></trkpt><trkpt lat="40.1437214" lon="15.7246239"><ele>703.0</ele><time>2026-04-25T12:54:30.454Z</time></trkpt><trkpt lat="40.1436319" lon="15.7245045"><ele>703.0</ele><time>2026-04-25T12:54:31.452Z</time></trkpt><trkpt lat="40.1435831" lon="15.7243346"><ele>703.0</ele><time>2026-04-25T12:54:32.461Z</time></trkpt><trkpt lat="40.1435468" lon="15.724155"><ele>703.0</ele><time>2026-04-25T12:54:33.458Z</time></trkpt><trkpt lat="40.1435065" lon="15.7239332"><ele>703.3333333333334</ele><time>2026-04-25T12:54:34.454Z</time></trkpt><trkpt lat="40.1434729" lon="15.7236837"><ele>703.6666666666666</ele><time>2026-04-25T12:54:35.45Z</time></trkpt><trkpt lat="40.1434355" lon="15.7234915"><ele>704.0</ele><time>2026-04-25T12:54:36.457Z</time></trkpt><trkpt lat="40.1434258" lon="15.7233395"><ele>704.0</ele><time>2026-04-25T12:54:37.455Z</time></trkpt><trkpt lat="40.1434478" lon="15.7231768"><ele>704.0</ele><time>2026-04-25T12:54:38.455Z</time></trkpt><trkpt lat="40.1435654" lon="15.723027"><ele>704.0</ele><time>2026-04-25T12:54:39.456Z</time></trkpt><trkpt lat="40.1437016" lon="15.7228415"><ele>700.0</ele><time>2026-04-25T12:54:40.462Z</time></trkpt><trkpt lat="40.1438244" lon="15.7226442"><ele>696.0</ele><time>2026-04-25T12:54:41.454Z</time></trkpt><trkpt lat="40.1439318" lon="15.72246"><ele>692.0</ele><time>2026-04-25T12:54:42.462Z</time></trkpt><trkpt lat="40.1440481" lon="15.7222906"><ele>702.3333333333333</ele><time>2026-04-25T12:54:43.457Z</time></trkpt><trkpt lat="40.1441156" lon="15.722099"><ele>712.6666666666666</ele><time>2026-04-25T12:54:44.45Z</time></trkpt><trkpt lat="40.1441597" lon="15.7218817"><ele>723.0</ele><time>2026-04-25T12:54:45.462Z</time></trkpt><trkpt lat="40.144174" lon="15.7216518"><ele>723.0</ele><time>2026-04-25T12:54:46.451Z</time></trkpt><trkpt lat="40.1441743" lon="15.7214179"><ele>723.0</ele><time>2026-04-25T12:54:47.449Z</time></trkpt><trkpt lat="40.1441852" lon="15.7211903"><ele>723.0</ele><time>2026-04-25T12:54:48.45Z</time></trkpt><trkpt lat="40.1442099" lon="15.7209686"><ele>723.6666666666666</ele><time>2026-04-25T12:54:49.451Z</time></trkpt><trkpt lat="40.1442446" lon="15.720755"><ele>724.3333333333333</ele><time>2026-04-25T12:54:50.457Z</time></trkpt><trkpt lat="40.1443184" lon="15.7205691"><ele>725.0</ele><time>2026-04-25T12:54:51.459Z</time></trkpt><trkpt lat="40.1444172" lon="15.7204149"><ele>725.0</ele><time>2026-04-25T12:54:52.451Z</time></trkpt><trkpt lat="40.1445186" lon="15.7202684"><ele>725.0</ele><time>2026-04-25T12:54:53.45Z</time></trkpt><trkpt lat="40.1446021" lon="15.7201115"><ele>725.0</ele><time>2026-04-25T12:54:54.452Z</time></trkpt><trkpt lat="40.1446523" lon="15.7199349"><ele>725.0</ele><time>2026-04-25T12:54:55.453Z</time></trkpt><trkpt lat="40.1446592" lon="15.7197438"><ele>724.0</ele><time>2026-04-25T12:54:56.448Z</time></trkpt><trkpt lat="40.1446389" lon="15.7195496"><ele>723.0</ele><time>2026-04-25T12:54:57.456Z</time></trkpt><trkpt lat="40.1446071" lon="15.719361"><ele>722.0</ele><time>2026-04-25T12:54:58.459Z</time></trkpt><trkpt lat="40.1445547" lon="15.7191832"><ele>721.0</ele><time>2026-04-25T12:54:59.448Z</time></trkpt><trkpt lat="40.1444681" lon="15.7190243"><ele>724.25</ele><time>2026-04-25T12:55:00.454Z</time></trkpt><trkpt lat="40.1443746" lon="15.7188742"><ele>727.5</ele><time>2026-04-25T12:55:01.451Z</time></trkpt><trkpt lat="40.1442626" lon="15.718751"><ele>730.75</ele><time>2026-04-25T12:55:02.452Z</time></trkpt><trkpt lat="40.1441763" lon="15.7186235"><ele>734.0</ele><time>2026-04-25T12:55:03.476Z</time></trkpt><trkpt lat="40.1441247" lon="15.7184969"><ele>737.25</ele><time>2026-04-25T12:55:04.491Z</time></trkpt><trkpt lat="40.14411" lon="15.7183519"><ele>740.5</ele><time>2026-04-25T12:55:05.47Z</time></trkpt><trkpt lat="40.1441048" lon="15.7181805"><ele>743.75</ele><time>2026-04-25T12:55:06.459Z</time></trkpt><trkpt lat="40.1441485" lon="15.7179853"><ele>747.0</ele><time>2026-04-25T12:55:07.472Z</time></trkpt><trkpt lat="40.1441912" lon="15.7177619"><ele>748.6666666666666</ele><time>2026-04-25T12:55:08.476Z</time></trkpt><trkpt lat="40.1442243" lon="15.7175041"><ele>750.3333333333333</ele><time>2026-04-25T12:55:09.47Z</time></trkpt><trkpt lat="40.1442477" lon="15.7172342"><ele>752.0</ele><time>2026-04-25T12:55:10.463Z</time></trkpt><trkpt lat="40.1442596" lon="15.7169512"><ele>753.5</ele><time>2026-04-25T12:55:11.46Z</time></trkpt><trkpt lat="40.1442682" lon="15.7166531"><ele>755.0</ele><time>2026-04-25T12:55:12.454Z</time></trkpt><trkpt lat="40.1442731" lon="15.716347"><ele>759.0</ele><time>2026-04-25T12:55:13.456Z</time></trkpt><trkpt lat="40.1442609" lon="15.7160222"><ele>763.0</ele><time>2026-04-25T12:55:14.454Z</time></trkpt><trkpt lat="40.1442373" lon="15.7157001"><ele>763.0</ele><time>2026-04-25T12:55:15.452Z</time></trkpt><trkpt lat="40.1442047" lon="15.715403"><ele>763.0</ele><time>2026-04-25T12:55:16.452Z</time></trkpt><trkpt lat="40.1441701" lon="15.7151403"><ele>763.0</ele><time>2026-04-25T12:55:17.454Z</time></trkpt><trkpt lat="40.1441322" lon="15.7149002"><ele>765.3333333333334</ele><time>2026-04-25T12:55:18.45Z</time></trkpt><trkpt lat="40.1441143" lon="15.7146934"><ele>767.6666666666667</ele><time>2026-04-25T12:55:19.456Z</time></trkpt><trkpt lat="40.1441351" lon="15.7145092"><ele>770.0</ele><time>2026-04-25T12:55:20.458Z</time></trkpt><trkpt lat="40.1442365" lon="15.7143661"><ele>771.0</ele><time>2026-04-25T12:55:21.455Z</time></trkpt><trkpt lat="40.1443262" lon="15.714219"><ele>772.0</ele><time>2026-04-25T12:55:22.457Z</time></trkpt><trkpt lat="40.1444186" lon="15.714083"><ele>773.0</ele><time>2026-04-25T12:55:23.448Z</time></trkpt><trkpt lat="40.1445079" lon="15.7139485"><ele>774.0</ele><time>2026-04-25T12:55:24.452Z</time></trkpt><trkpt lat="40.144557" lon="15.7137904"><ele>774.0</ele><time>2026-04-25T12:55:25.464Z</time></trkpt><trkpt lat="40.1445672" lon="15.7136308"><ele>774.0</ele><time>2026-04-25T12:55:26.453Z</time></trkpt><trkpt lat="40.1445242" lon="15.7134627"><ele>774.0</ele><time>2026-04-25T12:55:27.457Z</time></trkpt><trkpt lat="40.1444584" lon="15.7133075"><ele>774.0</ele><time>2026-04-25T12:55:28.45Z</time></trkpt><trkpt lat="40.144375" lon="15.7131561"><ele>775.5</ele><time>2026-04-25T12:55:29.459Z</time></trkpt><trkpt lat="40.1443044" lon="15.7129959"><ele>777.0</ele><time>2026-04-25T12:55:30.452Z</time></trkpt><trkpt lat="40.1442566" lon="15.7128289"><ele>778.5</ele><time>2026-04-25T12:55:31.461Z</time></trkpt><trkpt lat="40.1442358" lon="15.7126514"><ele>780.0</ele><time>2026-04-25T12:55:32.453Z</time></trkpt><trkpt lat="40.1442477" lon="15.7124644"><ele>783.0</ele><time>2026-04-25T12:55:33.451Z</time></trkpt><trkpt lat="40.1442936" lon="15.7122689"><ele>786.0</ele><time>2026-04-25T12:55:34.469Z</time></trkpt><trkpt lat="40.1443778" lon="15.712073"><ele>789.0</ele><time>2026-04-25T12:55:35.451Z</time></trkpt><trkpt lat="40.1444774" lon="15.7118636"><ele>790.0</ele><time>2026-04-25T12:55:36.463Z</time></trkpt><trkpt lat="40.1446126" lon="15.7116494"><ele>791.0</ele><time>2026-04-25T12:55:37.456Z</time></trkpt><trkpt lat="40.1447554" lon="15.7114159"><ele>792.0</ele><time>2026-04-25T12:55:38.46Z</time></trkpt><trkpt lat="40.1449029" lon="15.7111725"><ele>791.0</ele><time>2026-04-25T12:55:39.464Z</time></trkpt><trkpt lat="40.145047" lon="15.7109303"><ele>790.0</ele><time>2026-04-25T12:55:40.455Z</time></trkpt><trkpt lat="40.145183" lon="15.7106983"><ele>790.0</ele><time>2026-04-25T12:55:41.454Z</time></trkpt><trkpt lat="40.1453196" lon="15.7104777"><ele>790.0</ele><time>2026-04-25T12:55:42.454Z</time></trkpt><trkpt lat="40.1454522" lon="15.7102708"><ele>790.0</ele><time>2026-04-25T12:55:43.459Z</time></trkpt><trkpt lat="40.1455845" lon="15.7100741"><ele>789.6666666666666</ele><time>2026-04-25T12:55:44.457Z</time></trkpt><trkpt lat="40.1457232" lon="15.7098791"><ele>789.3333333333333</ele><time>2026-04-25T12:55:45.456Z</time></trkpt><trkpt lat="40.1458761" lon="15.7096824"><ele>789.0</ele><time>2026-04-25T12:55:46.457Z</time></trkpt><trkpt lat="40.1460461" lon="15.7094899"><ele>785.5</ele><time>2026-04-25T12:55:47.454Z</time></trkpt><trkpt lat="40.1462244" lon="15.7092958"><ele>782.0</ele><time>2026-04-25T12:55:48.453Z</time></trkpt><trkpt lat="40.1464042" lon="15.709101"><ele>787.0</ele><time>2026-04-25T12:55:49.466Z</time></trkpt><trkpt lat="40.1465861" lon="15.7089052"><ele>792.0</ele><time>2026-04-25T12:55:50.452Z</time></trkpt><trkpt lat="40.1467688" lon="15.7087067"><ele>785.5</ele><time>2026-04-25T12:55:51.458Z</time></trkpt><trkpt lat="40.1469528" lon="15.7085081"><ele>779.0</ele><time>2026-04-25T12:55:52.451Z</time></trkpt><trkpt lat="40.1471362" lon="15.7083103"><ele>779.0</ele><time>2026-04-25T12:55:53.452Z</time></trkpt><trkpt lat="40.1473218" lon="15.7081174"><ele>779.0</ele><time>2026-04-25T12:55:54.452Z</time></trkpt><trkpt lat="40.14751" lon="15.7079336"><ele>778.5</ele><time>2026-04-25T12:55:55.46Z</time></trkpt><trkpt lat="40.1476999" lon="15.7077575"><ele>778.0</ele><time>2026-04-25T12:55:56.47Z</time></trkpt><trkpt lat="40.1478965" lon="15.7075818"><ele>778.0</ele><time>2026-04-25T12:55:57.471Z</time></trkpt><trkpt lat="40.1480991" lon="15.7074051"><ele>778.0</ele><time>2026-04-25T12:55:58.458Z</time></trkpt><trkpt lat="40.1483066" lon="15.707227"><ele>775.5</ele><time>2026-04-25T12:55:59.451Z</time></trkpt><trkpt lat="40.1485169" lon="15.7070476"><ele>773.0</ele><time>2026-04-25T12:56:00.462Z</time></trkpt><trkpt lat="40.148727" lon="15.7068681"><ele>773.0</ele><time>2026-04-25T12:56:01.455Z</time></trkpt><trkpt lat="40.1489351" lon="15.7066904"><ele>773.0</ele><time>2026-04-25T12:56:02.444Z</time></trkpt><trkpt lat="40.1491434" lon="15.7065159"><ele>781.0</ele><time>2026-04-25T12:56:03.452Z</time></trkpt><trkpt lat="40.1493493" lon="15.7063465"><ele>789.0</ele><time>2026-04-25T12:56:04.452Z</time></trkpt><trkpt lat="40.149546" lon="15.7061845"><ele>788.6666666666667</ele><time>2026-04-25T12:56:05.453Z</time></trkpt><trkpt lat="40.1497328" lon="15.7060299"><ele>788.3333333333334</ele><time>2026-04-25T12:56:06.46Z</time></trkpt><trkpt lat="40.1499102" lon="15.7058811"><ele>788.0</ele><time>2026-04-25T12:56:07.463Z</time></trkpt><trkpt lat="40.1500731" lon="15.7057337"><ele>788.0</ele><time>2026-04-25T12:56:08.457Z</time></trkpt><trkpt lat="40.1502136" lon="15.7055696"><ele>788.0</ele><time>2026-04-25T12:56:09.462Z</time></trkpt><trkpt lat="40.1503469" lon="15.7054032"><ele>788.0</ele><time>2026-04-25T12:56:10.451Z</time></trkpt><trkpt lat="40.1504443" lon="15.7051784"><ele>783.3333333333334</ele><time>2026-04-25T12:56:11.453Z</time></trkpt><trkpt lat="40.1505356" lon="15.7049522"><ele>778.6666666666667</ele><time>2026-04-25T12:56:12.457Z</time></trkpt><trkpt lat="40.1506196" lon="15.7047243"><ele>774.0</ele><time>2026-04-25T12:56:13.464Z</time></trkpt><trkpt lat="40.150706" lon="15.7045087"><ele>776.6666666666667</ele><time>2026-04-25T12:56:14.451Z</time></trkpt><trkpt lat="40.1507857" lon="15.7043061"><ele>779.3333333333334</ele><time>2026-04-25T12:56:15.457Z</time></trkpt><trkpt lat="40.1508707" lon="15.7041338"><ele>782.0</ele><time>2026-04-25T12:56:16.449Z</time></trkpt><trkpt lat="40.1509672" lon="15.7040016"><ele>782.0</ele><time>2026-04-25T12:56:17.448Z</time></trkpt><trkpt lat="40.1510846" lon="15.7039077"><ele>782.0</ele><time>2026-04-25T12:56:18.457Z</time></trkpt><trkpt lat="40.1512284" lon="15.7038293"><ele>782.0</ele><time>2026-04-25T12:56:19.45Z</time></trkpt><trkpt lat="40.1513928" lon="15.7037526"><ele>781.0</ele><time>2026-04-25T12:56:20.452Z</time></trkpt><trkpt lat="40.1515553" lon="15.7036629"><ele>780.0</ele><time>2026-04-25T12:56:21.459Z</time></trkpt><trkpt lat="40.1517007" lon="15.7035518"><ele>779.0</ele><time>2026-04-25T12:56:22.45Z</time></trkpt><trkpt lat="40.1518147" lon="15.703403"><ele>779.0</ele><time>2026-04-25T12:56:23.456Z</time></trkpt><trkpt lat="40.1518997" lon="15.7032243"><ele>779.0</ele><time>2026-04-25T12:56:24.454Z</time></trkpt><trkpt lat="40.1519682" lon="15.7030368"><ele>779.0</ele><time>2026-04-25T12:56:25.462Z</time></trkpt><trkpt lat="40.1520349" lon="15.7028566"><ele>780.75</ele><time>2026-04-25T12:56:26.452Z</time></trkpt><trkpt lat="40.1521094" lon="15.7026971"><ele>782.5</ele><time>2026-04-25T12:56:27.458Z</time></trkpt><trkpt lat="40.1522025" lon="15.7025697"><ele>784.25</ele><time>2026-04-25T12:56:28.45Z</time></trkpt><trkpt lat="40.152311" lon="15.7024648"><ele>786.0</ele><time>2026-04-25T12:56:29.457Z</time></trkpt><trkpt lat="40.1524228" lon="15.7023684"><ele>786.0</ele><time>2026-04-25T12:56:30.46Z</time></trkpt><trkpt lat="40.1525305" lon="15.7022634"><ele>786.0</ele><time>2026-04-25T12:56:31.451Z</time></trkpt><trkpt lat="40.1526293" lon="15.7021418"><ele>786.0</ele><time>2026-04-25T12:56:32.455Z</time></trkpt><trkpt lat="40.1527196" lon="15.7020089"><ele>786.0</ele><time>2026-04-25T12:56:33.459Z</time></trkpt><trkpt lat="40.1527943" lon="15.7018724"><ele>784.0</ele><time>2026-04-25T12:56:34.449Z</time></trkpt><trkpt lat="40.1528699" lon="15.7017513"><ele>782.0</ele><time>2026-04-25T12:56:35.46Z</time></trkpt><trkpt lat="40.1529517" lon="15.7016712"><ele>780.0</ele><time>2026-04-25T12:56:36.456Z</time></trkpt><trkpt lat="40.1530327" lon="15.7016487"><ele>778.0</ele><time>2026-04-25T12:56:37.454Z</time></trkpt><trkpt lat="40.1531106" lon="15.7016796"><ele>776.0</ele><time>2026-04-25T12:56:38.452Z</time></trkpt><trkpt lat="40.1531851" lon="15.7017517"><ele>777.5</ele><time>2026-04-25T12:56:39.461Z</time></trkpt><trkpt lat="40.1532647" lon="15.7018438"><ele>779.0</ele><time>2026-04-25T12:56:40.455Z</time></trkpt><trkpt lat="40.1533639" lon="15.7019459"><ele>780.5</ele><time>2026-04-25T12:56:41.454Z</time></trkpt><trkpt lat="40.1534799" lon="15.7020444"><ele>782.0</ele><time>2026-04-25T12:56:42.462Z</time></trkpt><trkpt lat="40.153609" lon="15.7021336"><ele>783.3333333333334</ele><time>2026-04-25T12:56:43.464Z</time></trkpt><trkpt lat="40.1537443" lon="15.7022182"><ele>784.6666666666667</ele><time>2026-04-25T12:56:44.445Z</time></trkpt><trkpt lat="40.1538994" lon="15.7022534"><ele>786.0</ele><time>2026-04-25T12:56:45.454Z</time></trkpt><trkpt lat="40.1540612" lon="15.7022492"><ele>786.0</ele><time>2026-04-25T12:56:46.456Z</time></trkpt><trkpt lat="40.1542303" lon="15.7022358"><ele>786.0</ele><time>2026-04-25T12:56:47.453Z</time></trkpt><trkpt lat="40.1544021" lon="15.7022207"><ele>786.0</ele><time>2026-04-25T12:56:48.454Z</time></trkpt><trkpt lat="40.1545729" lon="15.7022063"><ele>786.0</ele><time>2026-04-25T12:56:49.454Z</time></trkpt><trkpt lat="40.1547376" lon="15.7021795"><ele>786.0</ele><time>2026-04-25T12:56:50.455Z</time></trkpt><trkpt lat="40.1548911" lon="15.702128"><ele>786.0</ele><time>2026-04-25T12:56:51.459Z</time></trkpt><trkpt lat="40.1550349" lon="15.7020522"><ele>786.75</ele><time>2026-04-25T12:56:52.449Z</time></trkpt><trkpt lat="40.1551686" lon="15.7019604"><ele>787.5</ele><time>2026-04-25T12:56:53.446Z</time></trkpt><trkpt lat="40.1552956" lon="15.7018683"><ele>788.25</ele><time>2026-04-25T12:56:54.454Z</time></trkpt><trkpt lat="40.1554228" lon="15.7018016"><ele>789.0</ele><time>2026-04-25T12:56:55.455Z</time></trkpt><trkpt lat="40.155554" lon="15.7017762"><ele>788.75</ele><time>2026-04-25T12:56:56.446Z</time></trkpt><trkpt lat="40.1556904" lon="15.7017984"><ele>788.5</ele><time>2026-04-25T12:56:57.456Z</time></trkpt><trkpt lat="40.155823" lon="15.701864"><ele>788.25</ele><time>2026-04-25T12:56:58.452Z</time></trkpt><trkpt lat="40.1559528" lon="15.7019555"><ele>788.0</ele><time>2026-04-25T12:56:59.454Z</time></trkpt><trkpt lat="40.1560866" lon="15.7020387"><ele>788.0</ele><time>2026-04-25T12:57:00.452Z</time></trkpt><trkpt lat="40.1562318" lon="15.7021037"><ele>788.0</ele><time>2026-04-25T12:57:01.484Z</time></trkpt><trkpt lat="40.1563971" lon="15.7021392"><ele>788.0</ele><time>2026-04-25T12:57:02.45Z</time></trkpt><trkpt lat="40.1565846" lon="15.7021609"><ele>784.3333333333334</ele><time>2026-04-25T12:57:03.446Z</time></trkpt><trkpt lat="40.1567904" lon="15.7021849"><ele>780.6666666666667</ele><time>2026-04-25T12:57:04.45Z</time></trkpt><trkpt lat="40.1569936" lon="15.7022126"><ele>777.0</ele><time>2026-04-25T12:57:05.454Z</time></trkpt><trkpt lat="40.1572096" lon="15.7022611"><ele>768.5</ele><time>2026-04-25T12:57:06.454Z</time></trkpt><trkpt lat="40.1574394" lon="15.7023162"><ele>760.0</ele><time>2026-04-25T12:57:07.466Z</time></trkpt><trkpt lat="40.1576625" lon="15.7023618"><ele>760.0</ele><time>2026-04-25T12:57:08.464Z</time></trkpt><trkpt lat="40.1578861" lon="15.7024184"><ele>760.0</ele><time>2026-04-25T12:57:09.455Z</time></trkpt><trkpt lat="40.1581134" lon="15.7024683"><ele>757.0</ele><time>2026-04-25T12:57:10.457Z</time></trkpt><trkpt lat="40.1583303" lon="15.7025171"><ele>754.0</ele><time>2026-04-25T12:57:11.458Z</time></trkpt><trkpt lat="40.1585462" lon="15.7025689"><ele>751.0</ele><time>2026-04-25T12:57:12.456Z</time></trkpt><trkpt lat="40.1587629" lon="15.7026204"><ele>751.0</ele><time>2026-04-25T12:57:13.461Z</time></trkpt><trkpt lat="40.1589744" lon="15.7026846"><ele>751.0</ele><time>2026-04-25T12:57:14.447Z</time></trkpt><trkpt lat="40.1591845" lon="15.7027589"><ele>751.0</ele><time>2026-04-25T12:57:15.463Z</time></trkpt><trkpt lat="40.1593924" lon="15.7028326"><ele>751.3333333333334</ele><time>2026-04-25T12:57:16.454Z</time></trkpt><trkpt lat="40.1595908" lon="15.7029206"><ele>751.6666666666666</ele><time>2026-04-25T12:57:17.454Z</time></trkpt><trkpt lat="40.1597792" lon="15.7030077"><ele>752.0</ele><time>2026-04-25T12:57:18.453Z</time></trkpt><trkpt lat="40.1599577" lon="15.70309"><ele>752.0</ele><time>2026-04-25T12:57:19.456Z</time></trkpt><trkpt lat="40.1601188" lon="15.7031851"><ele>752.0</ele><time>2026-04-25T12:57:20.45Z</time></trkpt><trkpt lat="40.1602596" lon="15.7032971"><ele>752.0</ele><time>2026-04-25T12:57:21.45Z</time></trkpt><trkpt lat="40.160377" lon="15.7034426"><ele>749.6666666666666</ele><time>2026-04-25T12:57:22.468Z</time></trkpt><trkpt lat="40.1604789" lon="15.7035922"><ele>747.3333333333334</ele><time>2026-04-25T12:57:23.469Z</time></trkpt><trkpt lat="40.1605905" lon="15.7037219"><ele>745.0</ele><time>2026-04-25T12:57:24.462Z</time></trkpt><trkpt lat="40.1607202" lon="15.703822"><ele>745.0</ele><time>2026-04-25T12:57:25.456Z</time></trkpt><trkpt lat="40.1608559" lon="15.7039111"><ele>745.0</ele><time>2026-04-25T12:57:26.454Z</time></trkpt><trkpt lat="40.1609923" lon="15.7040109"><ele>745.0</ele><time>2026-04-25T12:57:27.464Z</time></trkpt><trkpt lat="40.1611225" lon="15.7041285"><ele>745.0</ele><time>2026-04-25T12:57:28.451Z</time></trkpt><trkpt lat="40.1612425" lon="15.7042697"><ele>745.0</ele><time>2026-04-25T12:57:29.451Z</time></trkpt><trkpt lat="40.1613458" lon="15.7044283"><ele>745.0</ele><time>2026-04-25T12:57:30.458Z</time></trkpt><trkpt lat="40.1614336" lon="15.7045969"><ele>740.5</ele><time>2026-04-25T12:57:31.47Z</time></trkpt><trkpt lat="40.161502" lon="15.7047729"><ele>736.0</ele><time>2026-04-25T12:57:32.455Z</time></trkpt><trkpt lat="40.1615384" lon="15.7049555"><ele>731.5</ele><time>2026-04-25T12:57:33.446Z</time></trkpt><trkpt lat="40.1615502" lon="15.7051463"><ele>727.0</ele><time>2026-04-25T12:57:34.453Z</time></trkpt><trkpt lat="40.1615627" lon="15.7053458"><ele>727.0</ele><time>2026-04-25T12:57:35.45Z</time></trkpt><trkpt lat="40.1616096" lon="15.705553"><ele>727.0</ele><time>2026-04-25T12:57:36.468Z</time></trkpt><trkpt lat="40.1616826" lon="15.7057497"><ele>727.0</ele><time>2026-04-25T12:57:37.451Z</time></trkpt><trkpt lat="40.1617627" lon="15.7059365"><ele>729.3333333333334</ele><time>2026-04-25T12:57:38.463Z</time></trkpt><trkpt lat="40.1618351" lon="15.7061234"><ele>731.6666666666666</ele><time>2026-04-25T12:57:39.451Z</time></trkpt><trkpt lat="40.1618918" lon="15.7063153"><ele>734.0</ele><time>2026-04-25T12:57:40.452Z</time></trkpt><trkpt lat="40.1619299" lon="15.7065215"><ele>734.0</ele><time>2026-04-25T12:57:41.449Z</time></trkpt><trkpt lat="40.1619563" lon="15.7067527"><ele>734.0</ele><time>2026-04-25T12:57:42.446Z</time></trkpt><trkpt lat="40.1619805" lon="15.7070003"><ele>734.0</ele><time>2026-04-25T12:57:43.45Z</time></trkpt><trkpt lat="40.1620069" lon="15.7072591"><ele>735.0</ele><time>2026-04-25T12:57:44.451Z</time></trkpt><trkpt lat="40.1620355" lon="15.7075116"><ele>736.0</ele><time>2026-04-25T12:57:45.453Z</time></trkpt><trkpt lat="40.1620749" lon="15.7077483"><ele>737.0</ele><time>2026-04-25T12:57:46.45Z</time></trkpt><trkpt lat="40.1621354" lon="15.7079666"><ele>740.0</ele><time>2026-04-25T12:57:47.449Z</time></trkpt><trkpt lat="40.1622131" lon="15.7081619"><ele>743.0</ele><time>2026-04-25T12:57:48.455Z</time></trkpt><trkpt lat="40.1623083" lon="15.7083283"><ele>746.0</ele><time>2026-04-25T12:57:49.443Z</time></trkpt><trkpt lat="40.1624253" lon="15.7084526"><ele>739.0</ele><time>2026-04-25T12:57:50.452Z</time></trkpt><trkpt lat="40.1625546" lon="15.7085355"><ele>732.0</ele><time>2026-04-25T12:57:51.454Z</time></trkpt><trkpt lat="40.1626828" lon="15.7086082"><ele>725.0</ele><time>2026-04-25T12:57:52.473Z</time></trkpt><trkpt lat="40.1627881" lon="15.708718"><ele>718.0</ele><time>2026-04-25T12:57:53.451Z</time></trkpt><trkpt lat="40.1628676" lon="15.7088566"><ele>718.0</ele><time>2026-04-25T12:57:54.46Z</time></trkpt><trkpt lat="40.1629284" lon="15.7090093"><ele>718.0</ele><time>2026-04-25T12:57:55.453Z</time></trkpt><trkpt lat="40.1629711" lon="15.709169"><ele>718.0</ele><time>2026-04-25T12:57:56.458Z</time></trkpt><trkpt lat="40.1629806" lon="15.7093152"><ele>718.0</ele><time>2026-04-25T12:57:57.446Z</time></trkpt><trkpt lat="40.1629461" lon="15.7094427"><ele>717.8</ele><time>2026-04-25T12:57:58.455Z</time></trkpt><trkpt lat="40.162892" lon="15.7095508"><ele>717.5999999999999</ele><time>2026-04-25T12:57:59.452Z</time></trkpt><trkpt lat="40.1628331" lon="15.7096682"><ele>717.4000000000001</ele><time>2026-04-25T12:58:00.454Z</time></trkpt><trkpt lat="40.162799" lon="15.7097977"><ele>717.2</ele><time>2026-04-25T12:58:01.451Z</time></trkpt><trkpt lat="40.1628079" lon="15.7099349"><ele>717.0</ele><time>2026-04-25T12:58:02.453Z</time></trkpt><trkpt lat="40.1628597" lon="15.7100636"><ele>717.0</ele><time>2026-04-25T12:58:03.453Z</time></trkpt><trkpt lat="40.1629473" lon="15.7101783"><ele>717.0</ele><time>2026-04-25T12:58:04.446Z</time></trkpt><trkpt lat="40.163058" lon="15.7102959"><ele>717.0</ele><time>2026-04-25T12:58:05.454Z</time></trkpt><trkpt lat="40.1631831" lon="15.7104258"><ele>717.0</ele><time>2026-04-25T12:58:06.459Z</time></trkpt><trkpt lat="40.1633147" lon="15.7105656"><ele>711.0</ele><time>2026-04-25T12:58:07.457Z</time></trkpt><trkpt lat="40.1634419" lon="15.7107138"><ele>705.0</ele><time>2026-04-25T12:58:08.458Z</time></trkpt><trkpt lat="40.1635561" lon="15.7108644"><ele>699.0</ele><time>2026-04-25T12:58:09.461Z</time></trkpt><trkpt lat="40.1636534" lon="15.7110167"><ele>701.0</ele><time>2026-04-25T12:58:10.457Z</time></trkpt><trkpt lat="40.1637386" lon="15.7111615"><ele>703.0</ele><time>2026-04-25T12:58:11.453Z</time></trkpt><trkpt lat="40.1638298" lon="15.7112849"><ele>705.0</ele><time>2026-04-25T12:58:12.454Z</time></trkpt><trkpt lat="40.1639443" lon="15.7113755"><ele>707.0</ele><time>2026-04-25T12:58:13.455Z</time></trkpt><trkpt lat="40.1640804" lon="15.7114227"><ele>701.6666666666666</ele><time>2026-04-25T12:58:14.449Z</time></trkpt><trkpt lat="40.1642353" lon="15.7114407"><ele>696.3333333333334</ele><time>2026-04-25T12:58:15.451Z</time></trkpt><trkpt lat="40.1644116" lon="15.7114504"><ele>691.0</ele><time>2026-04-25T12:58:16.449Z</time></trkpt><trkpt lat="40.1645926" lon="15.7114646"><ele>691.0</ele><time>2026-04-25T12:58:17.453Z</time></trkpt><trkpt lat="40.1647702" lon="15.7114818"><ele>691.0</ele><time>2026-04-25T12:58:18.458Z</time></trkpt><trkpt lat="40.1649398" lon="15.7114935"><ele>691.0</ele><time>2026-04-25T12:58:19.453Z</time></trkpt><trkpt lat="40.1650997" lon="15.7114987"><ele>689.0</ele><time>2026-04-25T12:58:20.452Z</time></trkpt><trkpt lat="40.1652439" lon="15.7114952"><ele>687.0</ele><time>2026-04-25T12:58:21.456Z</time></trkpt><trkpt lat="40.1653705" lon="15.7114687"><ele>685.0</ele><time>2026-04-25T12:58:22.45Z</time></trkpt><trkpt lat="40.1654791" lon="15.7114021"><ele>683.0</ele><time>2026-04-25T12:58:23.45Z</time></trkpt><trkpt lat="40.1655685" lon="15.7112996"><ele>683.0</ele><time>2026-04-25T12:58:24.454Z</time></trkpt><trkpt lat="40.1656519" lon="15.7111875"><ele>683.0</ele><time>2026-04-25T12:58:25.463Z</time></trkpt><trkpt lat="40.1657438" lon="15.7110894"><ele>683.0</ele><time>2026-04-25T12:58:26.449Z</time></trkpt><trkpt lat="40.1658323" lon="15.7110104"><ele>683.0</ele><time>2026-04-25T12:58:27.463Z</time></trkpt><trkpt lat="40.1659542" lon="15.7109749"><ele>681.75</ele><time>2026-04-25T12:58:28.46Z</time></trkpt><trkpt lat="40.166092" lon="15.7109939"><ele>680.5</ele><time>2026-04-25T12:58:29.447Z</time></trkpt><trkpt lat="40.1662298" lon="15.7110544"><ele>679.25</ele><time>2026-04-25T12:58:30.45Z</time></trkpt><trkpt lat="40.1663571" lon="15.7111555"><ele>678.0</ele><time>2026-04-25T12:58:31.454Z</time></trkpt><trkpt lat="40.1664733" lon="15.7112808"><ele>676.5</ele><time>2026-04-25T12:58:32.46Z</time></trkpt><trkpt lat="40.1665603" lon="15.7114212"><ele>675.0</ele><time>2026-04-25T12:58:33.46Z</time></trkpt><trkpt lat="40.1666191" lon="15.711576"><ele>673.5</ele><time>2026-04-25T12:58:34.462Z</time></trkpt><trkpt lat="40.166654" lon="15.7117505"><ele>672.0</ele><time>2026-04-25T12:58:35.442Z</time></trkpt><trkpt lat="40.166678" lon="15.7119133"><ele>672.0</ele><time>2026-04-25T12:58:36.457Z</time></trkpt><trkpt lat="40.166732" lon="15.7120571"><ele>672.0</ele><time>2026-04-25T12:58:37.463Z</time></trkpt><trkpt lat="40.1668243" lon="15.7121654"><ele>672.0</ele><time>2026-04-25T12:58:38.48Z</time></trkpt><trkpt lat="40.1669308" lon="15.7122551"><ele>672.0</ele><time>2026-04-25T12:58:39.458Z</time></trkpt><trkpt lat="40.1670364" lon="15.7123513"><ele>672.0</ele><time>2026-04-25T12:58:40.454Z</time></trkpt><trkpt lat="40.1671228" lon="15.7124778"><ele>672.0</ele><time>2026-04-25T12:58:41.453Z</time></trkpt><trkpt lat="40.1672098" lon="15.7126114"><ele>672.0</ele><time>2026-04-25T12:58:42.456Z</time></trkpt><trkpt lat="40.1672544" lon="15.7127876"><ele>672.0</ele><time>2026-04-25T12:58:43.448Z</time></trkpt><trkpt lat="40.1672727" lon="15.7129881"><ele>673.0</ele><time>2026-04-25T12:58:44.457Z</time></trkpt><trkpt lat="40.1672888" lon="15.7131961"><ele>674.0</ele><time>2026-04-25T12:58:45.454Z</time></trkpt><trkpt lat="40.1672749" lon="15.7134226"><ele>675.0</ele><time>2026-04-25T12:58:46.449Z</time></trkpt><trkpt lat="40.1672399" lon="15.7136609"><ele>670.3333333333334</ele><time>2026-04-25T12:58:47.458Z</time></trkpt><trkpt lat="40.1672075" lon="15.7138922"><ele>665.6666666666667</ele><time>2026-04-25T12:58:48.449Z</time></trkpt><trkpt lat="40.1671789" lon="15.714111"><ele>661.0</ele><time>2026-04-25T12:58:49.467Z</time></trkpt><trkpt lat="40.1671517" lon="15.7143162"><ele>659.5</ele><time>2026-04-25T12:58:50.45Z</time></trkpt><trkpt lat="40.1671345" lon="15.7145003"><ele>658.0</ele><time>2026-04-25T12:58:51.46Z</time></trkpt><trkpt lat="40.1671544" lon="15.7146686"><ele>656.5</ele><time>2026-04-25T12:58:52.452Z</time></trkpt><trkpt lat="40.1672046" lon="15.7148199"><ele>655.0</ele><time>2026-04-25T12:58:53.454Z</time></trkpt><trkpt lat="40.1672913" lon="15.7149652"><ele>650.6666666666667</ele><time>2026-04-25T12:58:54.459Z</time></trkpt><trkpt lat="40.1673946" lon="15.7151088"><ele>646.3333333333334</ele><time>2026-04-25T12:58:55.456Z</time></trkpt><trkpt lat="40.1675165" lon="15.715248"><ele>642.0</ele><time>2026-04-25T12:58:56.453Z</time></trkpt><trkpt lat="40.1676432" lon="15.7153947"><ele>642.0</ele><time>2026-04-25T12:58:57.458Z</time></trkpt><trkpt lat="40.1677729" lon="15.7155497"><ele>642.0</ele><time>2026-04-25T12:58:58.463Z</time></trkpt><trkpt lat="40.1679057" lon="15.7157119"><ele>642.0</ele><time>2026-04-25T12:58:59.452Z</time></trkpt><trkpt lat="40.1680454" lon="15.7158765"><ele>642.0</ele><time>2026-04-25T12:59:00.45Z</time></trkpt><trkpt lat="40.1681866" lon="15.7160409"><ele>642.0</ele><time>2026-04-25T12:59:01.453Z</time></trkpt><trkpt lat="40.1683267" lon="15.7162064"><ele>642.0</ele><time>2026-04-25T12:59:02.457Z</time></trkpt><trkpt lat="40.168469" lon="15.7163735"><ele>640.3333333333334</ele><time>2026-04-25T12:59:03.449Z</time></trkpt><trkpt lat="40.1686104" lon="15.716541"><ele>638.6666666666667</ele><time>2026-04-25T12:59:04.46Z</time></trkpt><trkpt lat="40.1687485" lon="15.7167036"><ele>637.0</ele><time>2026-04-25T12:59:05.455Z</time></trkpt><trkpt lat="40.1688808" lon="15.7168569"><ele>636.0</ele><time>2026-04-25T12:59:06.458Z</time></trkpt><trkpt lat="40.1690111" lon="15.7169964"><ele>635.0</ele><time>2026-04-25T12:59:07.452Z</time></trkpt><trkpt lat="40.1691487" lon="15.7171027"><ele>634.0</ele><time>2026-04-25T12:59:08.449Z</time></trkpt><trkpt lat="40.1692965" lon="15.7171808"><ele>634.0</ele><time>2026-04-25T12:59:09.454Z</time></trkpt><trkpt lat="40.1694697" lon="15.717185"><ele>634.0</ele><time>2026-04-25T12:59:10.449Z</time></trkpt><trkpt lat="40.1696428" lon="15.7171544"><ele>634.0</ele><time>2026-04-25T12:59:11.446Z</time></trkpt><trkpt lat="40.1698222" lon="15.7171164"><ele>633.3333333333334</ele><time>2026-04-25T12:59:12.455Z</time></trkpt><trkpt lat="40.1700036" lon="15.7170647"><ele>632.6666666666666</ele><time>2026-04-25T12:59:13.455Z</time></trkpt><trkpt lat="40.1701951" lon="15.717033"><ele>632.0</ele><time>2026-04-25T12:59:14.452Z</time></trkpt><trkpt lat="40.170386" lon="15.7169893"><ele>632.0</ele><time>2026-04-25T12:59:15.467Z</time></trkpt><trkpt lat="40.170582" lon="15.7169554"><ele>632.0</ele><time>2026-04-25T12:59:16.454Z</time></trkpt><trkpt lat="40.1707767" lon="15.7169085"><ele>632.0</ele><time>2026-04-25T12:59:17.454Z</time></trkpt><trkpt lat="40.1709766" lon="15.716872"><ele>632.0</ele><time>2026-04-25T12:59:18.447Z</time></trkpt><trkpt lat="40.1711719" lon="15.7168358"><ele>632.0</ele><time>2026-04-25T12:59:19.448Z</time></trkpt><trkpt lat="40.1713686" lon="15.716791"><ele>632.0</ele><time>2026-04-25T12:59:20.453Z</time></trkpt><trkpt lat="40.1715643" lon="15.7167476"><ele>632.0</ele><time>2026-04-25T12:59:21.453Z</time></trkpt><trkpt lat="40.1717678" lon="15.7167025"><ele>632.0</ele><time>2026-04-25T12:59:22.451Z</time></trkpt><trkpt lat="40.1719702" lon="15.716662"><ele>632.0</ele><time>2026-04-25T12:59:23.451Z</time></trkpt><trkpt lat="40.1721731" lon="15.7166225"><ele>632.3333333333333</ele><time>2026-04-25T12:59:24.452Z</time></trkpt><trkpt lat="40.1723751" lon="15.7165817"><ele>632.6666666666666</ele><time>2026-04-25T12:59:25.456Z</time></trkpt><trkpt lat="40.1725737" lon="15.7165428"><ele>633.0</ele><time>2026-04-25T12:59:26.454Z</time></trkpt><trkpt lat="40.1727697" lon="15.7165081"><ele>633.0</ele><time>2026-04-25T12:59:27.469Z</time></trkpt><trkpt lat="40.1729643" lon="15.7164682"><ele>633.0</ele><time>2026-04-25T12:59:28.454Z</time></trkpt><trkpt lat="40.1731671" lon="15.7164286"><ele>633.0</ele><time>2026-04-25T12:59:29.458Z</time></trkpt><trkpt lat="40.1733731" lon="15.7164158"><ele>632.5</ele><time>2026-04-25T12:59:30.458Z</time></trkpt><trkpt lat="40.1735903" lon="15.7163509"><ele>632.0</ele><time>2026-04-25T12:59:31.459Z</time></trkpt><trkpt lat="40.1738347" lon="15.7162767"><ele>632.3333333333333</ele><time>2026-04-25T12:59:32.456Z</time></trkpt><trkpt lat="40.1740447" lon="15.7162385"><ele>632.6666666666666</ele><time>2026-04-25T12:59:33.463Z</time></trkpt><trkpt lat="40.174274" lon="15.7161983"><ele>633.0</ele><time>2026-04-25T12:59:34.455Z</time></trkpt><trkpt lat="40.1745297" lon="15.7161605"><ele>633.0</ele><time>2026-04-25T12:59:35.456Z</time></trkpt><trkpt lat="40.1747618" lon="15.7161063"><ele>633.0</ele><time>2026-04-25T12:59:36.453Z</time></trkpt><trkpt lat="40.1750014" lon="15.7160531"><ele>629.5</ele><time>2026-04-25T12:59:37.455Z</time></trkpt><trkpt lat="40.1752427" lon="15.7159982"><ele>626.0</ele><time>2026-04-25T12:59:38.462Z</time></trkpt><trkpt lat="40.1754778" lon="15.7159492"><ele>627.3333333333333</ele><time>2026-04-25T12:59:39.452Z</time></trkpt><trkpt lat="40.1756958" lon="15.7158906"><ele>628.6666666666666</ele><time>2026-04-25T12:59:40.462Z</time></trkpt><trkpt lat="40.1758972" lon="15.7158258"><ele>630.0</ele><time>2026-04-25T12:59:41.46Z</time></trkpt><trkpt lat="40.1760796" lon="15.7157649"><ele>630.0</ele><time>2026-04-25T12:59:42.449Z</time></trkpt><trkpt lat="40.1762315" lon="15.7156953"><ele>630.0</ele><time>2026-04-25T12:59:43.466Z</time></trkpt><trkpt lat="40.1763704" lon="15.7155893"><ele>630.0</ele><time>2026-04-25T12:59:44.442Z</time></trkpt><trkpt lat="40.1764769" lon="15.7154378"><ele>628.6666666666666</ele><time>2026-04-25T12:59:45.449Z</time></trkpt><trkpt lat="40.1765651" lon="15.7152656"><ele>627.3333333333333</ele><time>2026-04-25T12:59:46.452Z</time></trkpt><trkpt lat="40.1766547" lon="15.7150979"><ele>626.0</ele><time>2026-04-25T12:59:47.454Z</time></trkpt><trkpt lat="40.1767651" lon="15.7149629"><ele>626.0</ele><time>2026-04-25T12:59:48.453Z</time></trkpt><trkpt lat="40.1768958" lon="15.7148653"><ele>626.0</ele><time>2026-04-25T12:59:49.447Z</time></trkpt><trkpt lat="40.1770354" lon="15.7147982"><ele>626.0</ele><time>2026-04-25T12:59:50.449Z</time></trkpt><trkpt lat="40.1771776" lon="15.7147361"><ele>626.0</ele><time>2026-04-25T12:59:51.452Z</time></trkpt><trkpt lat="40.1773139" lon="15.7146479"><ele>625.0</ele><time>2026-04-25T12:59:52.447Z</time></trkpt><trkpt lat="40.1774457" lon="15.714521"><ele>624.0</ele><time>2026-04-25T12:59:53.446Z</time></trkpt><trkpt lat="40.1775719" lon="15.7143641"><ele>623.0</ele><time>2026-04-25T12:59:54.447Z</time></trkpt><trkpt lat="40.1776958" lon="15.7141868"><ele>623.0</ele><time>2026-04-25T12:59:55.461Z</time></trkpt><trkpt lat="40.1778221" lon="15.7139988"><ele>623.0</ele><time>2026-04-25T12:59:56.454Z</time></trkpt><trkpt lat="40.1779518" lon="15.7138027"><ele>623.0</ele><time>2026-04-25T12:59:57.46Z</time></trkpt><trkpt lat="40.1780808" lon="15.7136006"><ele>623.0</ele><time>2026-04-25T12:59:58.454Z</time></trkpt><trkpt lat="40.1782092" lon="15.7133964"><ele>623.0</ele><time>2026-04-25T12:59:59.468Z</time></trkpt><trkpt lat="40.1783381" lon="15.7131924"><ele>623.0</ele><time>2026-04-25T13:00:00.457Z</time></trkpt><trkpt lat="40.1784674" lon="15.7129919"><ele>623.0</ele><time>2026-04-25T13:00:01.454Z</time></trkpt><trkpt lat="40.1785966" lon="15.7127954"><ele>623.0</ele><time>2026-04-25T13:00:02.452Z</time></trkpt><trkpt lat="40.1787279" lon="15.712605"><ele>623.0</ele><time>2026-04-25T13:00:03.457Z</time></trkpt><trkpt lat="40.1788673" lon="15.7124256"><ele>623.3333333333333</ele><time>2026-04-25T13:00:04.454Z</time></trkpt><trkpt lat="40.1790248" lon="15.7122587"><ele>623.6666666666666</ele><time>2026-04-25T13:00:05.463Z</time></trkpt><trkpt lat="40.1792067" lon="15.7121039"><ele>624.0</ele><time>2026-04-25T13:00:06.451Z</time></trkpt><trkpt lat="40.1794074" lon="15.7119584"><ele>621.0</ele><time>2026-04-25T13:00:07.459Z</time></trkpt><trkpt lat="40.1796233" lon="15.7118175"><ele>618.0</ele><time>2026-04-25T13:00:08.462Z</time></trkpt><trkpt lat="40.1798458" lon="15.7116759"><ele>620.0</ele><time>2026-04-25T13:00:09.457Z</time></trkpt><trkpt lat="40.1800689" lon="15.7115333"><ele>622.0</ele><time>2026-04-25T13:00:10.452Z</time></trkpt><trkpt lat="40.1802996" lon="15.7113873"><ele>622.0</ele><time>2026-04-25T13:00:11.463Z</time></trkpt><trkpt lat="40.1805405" lon="15.7112344"><ele>622.0</ele><time>2026-04-25T13:00:12.453Z</time></trkpt><trkpt lat="40.1807887" lon="15.7110769"><ele>621.0</ele><time>2026-04-25T13:00:13.458Z</time></trkpt><trkpt lat="40.1810369" lon="15.7109183"><ele>620.0</ele><time>2026-04-25T13:00:14.46Z</time></trkpt><trkpt lat="40.1812808" lon="15.710763"><ele>623.0</ele><time>2026-04-25T13:00:15.45Z</time></trkpt><trkpt lat="40.1815241" lon="15.7106221"><ele>626.0</ele><time>2026-04-25T13:00:16.452Z</time></trkpt><trkpt lat="40.1817457" lon="15.7104863"><ele>626.0</ele><time>2026-04-25T13:00:17.457Z</time></trkpt><trkpt lat="40.1819614" lon="15.7103559"><ele>626.0</ele><time>2026-04-25T13:00:18.448Z</time></trkpt><trkpt lat="40.1821708" lon="15.7102238"><ele>628.0</ele><time>2026-04-25T13:00:19.449Z</time></trkpt><trkpt lat="40.182375" lon="15.7100947"><ele>630.0</ele><time>2026-04-25T13:00:20.446Z</time></trkpt><trkpt lat="40.1825709" lon="15.7099526"><ele>630.0</ele><time>2026-04-25T13:00:21.462Z</time></trkpt><trkpt lat="40.182761" lon="15.7097882"><ele>630.0</ele><time>2026-04-25T13:00:22.453Z</time></trkpt><trkpt lat="40.1829486" lon="15.7095962"><ele>630.5</ele><time>2026-04-25T13:00:23.457Z</time></trkpt><trkpt lat="40.1831288" lon="15.7093808"><ele>631.0</ele><time>2026-04-25T13:00:24.449Z</time></trkpt><trkpt lat="40.1833022" lon="15.7091512"><ele>631.0</ele><time>2026-04-25T13:00:25.456Z</time></trkpt><trkpt lat="40.1834661" lon="15.7089149"><ele>631.0</ele><time>2026-04-25T13:00:26.449Z</time></trkpt><trkpt lat="40.1836227" lon="15.7086788"><ele>629.3333333333334</ele><time>2026-04-25T13:00:27.455Z</time></trkpt><trkpt lat="40.1837714" lon="15.7084572"><ele>627.6666666666666</ele><time>2026-04-25T13:00:28.451Z</time></trkpt><trkpt lat="40.1839232" lon="15.7082635"><ele>626.0</ele><time>2026-04-25T13:00:29.454Z</time></trkpt><trkpt lat="40.1840821" lon="15.7081088"><ele>630.3333333333333</ele><time>2026-04-25T13:00:30.449Z</time></trkpt><trkpt lat="40.1842484" lon="15.7079996"><ele>634.6666666666666</ele><time>2026-04-25T13:00:31.462Z</time></trkpt><trkpt lat="40.1844176" lon="15.7079359"><ele>639.0</ele><time>2026-04-25T13:00:32.444Z</time></trkpt><trkpt lat="40.1845922" lon="15.7079133"><ele>639.0</ele><time>2026-04-25T13:00:33.442Z</time></trkpt><trkpt lat="40.1847698" lon="15.7079228"><ele>639.0</ele><time>2026-04-25T13:00:34.446Z</time></trkpt><trkpt lat="40.1849554" lon="15.7079472"><ele>639.0</ele><time>2026-04-25T13:00:35.453Z</time></trkpt><trkpt lat="40.1851462" lon="15.7079716"><ele>638.6666666666666</ele><time>2026-04-25T13:00:36.463Z</time></trkpt><trkpt lat="40.1853363" lon="15.70798"><ele>638.3333333333333</ele><time>2026-04-25T13:00:37.454Z</time></trkpt><trkpt lat="40.1855237" lon="15.7079583"><ele>638.0</ele><time>2026-04-25T13:00:38.452Z</time></trkpt><trkpt lat="40.1857037" lon="15.7078907"><ele>638.0</ele><time>2026-04-25T13:00:39.453Z</time></trkpt><trkpt lat="40.1858783" lon="15.7077728"><ele>638.0</ele><time>2026-04-25T13:00:40.448Z</time></trkpt><trkpt lat="40.1860519" lon="15.7076112"><ele>638.0</ele><time>2026-04-25T13:00:41.443Z</time></trkpt><trkpt lat="40.1862283" lon="15.707422"><ele>636.5</ele><time>2026-04-25T13:00:42.448Z</time></trkpt><trkpt lat="40.1864086" lon="15.7072149"><ele>635.0</ele><time>2026-04-25T13:00:43.451Z</time></trkpt><trkpt lat="40.1865992" lon="15.7070125"><ele>630.5</ele><time>2026-04-25T13:00:44.445Z</time></trkpt><trkpt lat="40.1867988" lon="15.7068105"><ele>626.0</ele><time>2026-04-25T13:00:45.453Z</time></trkpt><trkpt lat="40.1869973" lon="15.7065947"><ele>626.0</ele><time>2026-04-25T13:00:46.454Z</time></trkpt><trkpt lat="40.1871825" lon="15.7063551"><ele>626.0</ele><time>2026-04-25T13:00:47.454Z</time></trkpt><trkpt lat="40.1873528" lon="15.7061015"><ele>625.0</ele><time>2026-04-25T13:00:48.455Z</time></trkpt><trkpt lat="40.1875161" lon="15.7058435"><ele>624.0</ele><time>2026-04-25T13:00:49.448Z</time></trkpt><trkpt lat="40.1876789" lon="15.7055872"><ele>624.0</ele><time>2026-04-25T13:00:50.455Z</time></trkpt><trkpt lat="40.1878394" lon="15.7053367"><ele>624.0</ele><time>2026-04-25T13:00:51.453Z</time></trkpt><trkpt lat="40.1879924" lon="15.7050963"><ele>626.6666666666666</ele><time>2026-04-25T13:00:52.446Z</time></trkpt><trkpt lat="40.1881384" lon="15.7048686"><ele>629.3333333333333</ele><time>2026-04-25T13:00:53.448Z</time></trkpt><trkpt lat="40.1882785" lon="15.7046483"><ele>632.0</ele><time>2026-04-25T13:00:54.449Z</time></trkpt><trkpt lat="40.1884115" lon="15.7044368"><ele>629.0</ele><time>2026-04-25T13:00:55.448Z</time></trkpt><trkpt lat="40.1885357" lon="15.7042374"><ele>626.0</ele><time>2026-04-25T13:00:56.453Z</time></trkpt><trkpt lat="40.1886512" lon="15.704055"><ele>623.0</ele><time>2026-04-25T13:00:57.448Z</time></trkpt><trkpt lat="40.1887521" lon="15.7038766"><ele>623.0</ele><time>2026-04-25T13:00:58.453Z</time></trkpt><trkpt lat="40.1888285" lon="15.7036936"><ele>623.0</ele><time>2026-04-25T13:00:59.456Z</time></trkpt><trkpt lat="40.1888786" lon="15.7034958"><ele>623.0</ele><time>2026-04-25T13:01:00.452Z</time></trkpt><trkpt lat="40.1889056" lon="15.7032894"><ele>619.3333333333333</ele><time>2026-04-25T13:01:01.453Z</time></trkpt><trkpt lat="40.1889151" lon="15.7030767"><ele>615.6666666666666</ele><time>2026-04-25T13:01:02.452Z</time></trkpt><trkpt lat="40.1889212" lon="15.7028642"><ele>612.0</ele><time>2026-04-25T13:01:03.453Z</time></trkpt><trkpt lat="40.1889297" lon="15.702655"><ele>609.6666666666666</ele><time>2026-04-25T13:01:04.449Z</time></trkpt><trkpt lat="40.1889468" lon="15.7024506"><ele>607.3333333333333</ele><time>2026-04-25T13:01:05.453Z</time></trkpt><trkpt lat="40.1889733" lon="15.7022538"><ele>605.0</ele><time>2026-04-25T13:01:06.451Z</time></trkpt><trkpt lat="40.1890132" lon="15.7020704"><ele>607.75</ele><time>2026-04-25T13:01:07.451Z</time></trkpt><trkpt lat="40.1890711" lon="15.701906"><ele>610.5</ele><time>2026-04-25T13:01:08.454Z</time></trkpt><trkpt lat="40.189155" lon="15.7017737"><ele>613.25</ele><time>2026-04-25T13:01:09.452Z</time></trkpt><trkpt lat="40.1892628" lon="15.7016658"><ele>616.0</ele><time>2026-04-25T13:01:10.462Z</time></trkpt><trkpt lat="40.1893933" lon="15.7015734"><ele>616.0</ele><time>2026-04-25T13:01:11.467Z</time></trkpt><trkpt lat="40.1895414" lon="15.7014909"><ele>616.0</ele><time>2026-04-25T13:01:12.45Z</time></trkpt><trkpt lat="40.1896985" lon="15.7014139"><ele>616.0</ele><time>2026-04-25T13:01:13.462Z</time></trkpt><trkpt lat="40.189858" lon="15.7013389"><ele>622.3333333333334</ele><time>2026-04-25T13:01:14.448Z</time></trkpt><trkpt lat="40.1900148" lon="15.7012694"><ele>628.6666666666666</ele><time>2026-04-25T13:01:15.446Z</time></trkpt><trkpt lat="40.190162" lon="15.7012148"><ele>635.0</ele><time>2026-04-25T13:01:16.445Z</time></trkpt><trkpt lat="40.1903013" lon="15.7011926"><ele>635.0</ele><time>2026-04-25T13:01:17.451Z</time></trkpt><trkpt lat="40.1904404" lon="15.7011873"><ele>635.0</ele><time>2026-04-25T13:01:18.457Z</time></trkpt><trkpt lat="40.190575" lon="15.7012542"><ele>635.0</ele><time>2026-04-25T13:01:19.446Z</time></trkpt><trkpt lat="40.1907042" lon="15.701345"><ele>635.0</ele><time>2026-04-25T13:01:20.452Z</time></trkpt><trkpt lat="40.1908403" lon="15.7014527"><ele>632.0</ele><time>2026-04-25T13:01:21.447Z</time></trkpt><trkpt lat="40.1909869" lon="15.7015459"><ele>629.0</ele><time>2026-04-25T13:01:22.444Z</time></trkpt><trkpt lat="40.1911428" lon="15.7016298"><ele>626.0</ele><time>2026-04-25T13:01:23.44Z</time></trkpt><trkpt lat="40.1913035" lon="15.7017002"><ele>626.0</ele><time>2026-04-25T13:01:24.446Z</time></trkpt><trkpt lat="40.1914692" lon="15.701758"><ele>626.0</ele><time>2026-04-25T13:01:25.452Z</time></trkpt><trkpt lat="40.1916299" lon="15.7018033"><ele>626.0</ele><time>2026-04-25T13:01:26.44Z</time></trkpt><trkpt lat="40.1917838" lon="15.7018422"><ele>622.75</ele><time>2026-04-25T13:01:27.449Z</time></trkpt><trkpt lat="40.1919303" lon="15.7018575"><ele>619.5</ele><time>2026-04-25T13:01:28.45Z</time></trkpt><trkpt lat="40.1920611" lon="15.7018121"><ele>616.25</ele><time>2026-04-25T13:01:29.448Z</time></trkpt><trkpt lat="40.1921801" lon="15.7017178"><ele>613.0</ele><time>2026-04-25T13:01:30.448Z</time></trkpt><trkpt lat="40.1922979" lon="15.701601"><ele>615.0</ele><time>2026-04-25T13:01:31.443Z</time></trkpt><trkpt lat="40.1923733" lon="15.7014291"><ele>617.0</ele><time>2026-04-25T13:01:32.449Z</time></trkpt><trkpt lat="40.192456" lon="15.7012518"><ele>619.0</ele><time>2026-04-25T13:01:33.452Z</time></trkpt><trkpt lat="40.1925567" lon="15.7010835"><ele>614.3333333333334</ele><time>2026-04-25T13:01:34.444Z</time></trkpt><trkpt lat="40.1926758" lon="15.7009211"><ele>609.6666666666666</ele><time>2026-04-25T13:01:35.46Z</time></trkpt><trkpt lat="40.1928057" lon="15.7007695"><ele>605.0</ele><time>2026-04-25T13:01:36.456Z</time></trkpt><trkpt lat="40.1929446" lon="15.7006436"><ele>605.0</ele><time>2026-04-25T13:01:37.445Z</time></trkpt><trkpt lat="40.1930859" lon="15.7005572"><ele>605.0</ele><time>2026-04-25T13:01:38.451Z</time></trkpt><trkpt lat="40.1932194" lon="15.7005254"><ele>605.0</ele><time>2026-04-25T13:01:39.462Z</time></trkpt><trkpt lat="40.193342" lon="15.7005508"><ele>605.0</ele><time>2026-04-25T13:01:40.449Z</time></trkpt><trkpt lat="40.193449" lon="15.7006276"><ele>606.75</ele><time>2026-04-25T13:01:41.449Z</time></trkpt><trkpt lat="40.1935517" lon="15.700736"><ele>608.5</ele><time>2026-04-25T13:01:42.459Z</time></trkpt><trkpt lat="40.1936632" lon="15.7008522"><ele>610.25</ele><time>2026-04-25T13:01:43.454Z</time></trkpt><trkpt lat="40.1937803" lon="15.7009957"><ele>612.0</ele><time>2026-04-25T13:01:44.453Z</time></trkpt><trkpt lat="40.1939049" lon="15.7011456"><ele>612.0</ele><time>2026-04-25T13:01:45.469Z</time></trkpt><trkpt lat="40.1940227" lon="15.701288"><ele>612.0</ele><time>2026-04-25T13:01:46.458Z</time></trkpt><trkpt lat="40.1941381" lon="15.701433"><ele>612.0</ele><time>2026-04-25T13:01:47.457Z</time></trkpt><trkpt lat="40.194252" lon="15.701632"><ele>612.0</ele><time>2026-04-25T13:01:48.454Z</time></trkpt><trkpt lat="40.194348" lon="15.7017994"><ele>612.0</ele><time>2026-04-25T13:01:49.459Z</time></trkpt><trkpt lat="40.1944049" lon="15.7019834"><ele>612.0</ele><time>2026-04-25T13:01:50.454Z</time></trkpt><trkpt lat="40.1944532" lon="15.7021705"><ele>612.5</ele><time>2026-04-25T13:01:51.462Z</time></trkpt><trkpt lat="40.1944989" lon="15.7023394"><ele>613.0</ele><time>2026-04-25T13:01:52.459Z</time></trkpt><trkpt lat="40.1945397" lon="15.7025089"><ele>613.5</ele><time>2026-04-25T13:01:53.451Z</time></trkpt><trkpt lat="40.1945767" lon="15.7026778"><ele>614.0</ele><time>2026-04-25T13:01:54.449Z</time></trkpt><trkpt lat="40.1946285" lon="15.7028283"><ele>614.2</ele><time>2026-04-25T13:01:55.458Z</time></trkpt><trkpt lat="40.1946831" lon="15.702965"><ele>614.4</ele><time>2026-04-25T13:01:56.462Z</time></trkpt><trkpt lat="40.1947368" lon="15.7030913"><ele>614.6</ele><time>2026-04-25T13:01:57.458Z</time></trkpt><trkpt lat="40.1947854" lon="15.7031988"><ele>614.8</ele><time>2026-04-25T13:01:58.452Z</time></trkpt><trkpt lat="40.1948327" lon="15.7032931"><ele>615.0</ele><time>2026-04-25T13:01:59.456Z</time></trkpt><trkpt lat="40.1948736" lon="15.7033718"><ele>612.5</ele><time>2026-04-25T13:02:00.461Z</time></trkpt><trkpt lat="40.1949078" lon="15.7034417"><ele>610.0</ele><time>2026-04-25T13:02:01.473Z</time></trkpt><trkpt lat="40.1949544" lon="15.7035098"><ele>607.5</ele><time>2026-04-25T13:02:03.454Z</time></trkpt><trkpt lat="40.1950213" lon="15.7036037"><ele>605.0</ele><time>2026-04-25T13:02:50.454Z</time></trkpt><trkpt lat="40.1950721" lon="15.7036561"><ele>602.5</ele><time>2026-04-25T13:02:51.452Z</time></trkpt><trkpt lat="40.1951347" lon="15.703716"><ele>600.0</ele><time>2026-04-25T13:02:52.458Z</time></trkpt><trkpt lat="40.1952071" lon="15.7037865"><ele>600.0</ele><time>2026-04-25T13:02:53.459Z</time></trkpt><trkpt lat="40.1952763" lon="15.703856"><ele>600.0</ele><time>2026-04-25T13:02:54.465Z</time></trkpt><trkpt lat="40.1953659" lon="15.7039369"><ele>600.0</ele><time>2026-04-25T13:02:55.462Z</time></trkpt><trkpt lat="40.1954614" lon="15.7040129"><ele>600.0</ele><time>2026-04-25T13:02:56.455Z</time></trkpt><trkpt lat="40.1955648" lon="15.7040954"><ele>600.0</ele><time>2026-04-25T13:02:57.462Z</time></trkpt><trkpt lat="40.1956792" lon="15.7041624"><ele>597.0</ele><time>2026-04-25T13:02:58.453Z</time></trkpt><trkpt lat="40.1957951" lon="15.7042122"><ele>594.0</ele><time>2026-04-25T13:02:59.448Z</time></trkpt><trkpt lat="40.1959183" lon="15.7042496"><ele>591.0</ele><time>2026-04-25T13:03:00.45Z</time></trkpt><trkpt lat="40.1960458" lon="15.7042734"><ele>588.0</ele><time>2026-04-25T13:03:01.477Z</time></trkpt><trkpt lat="40.1961682" lon="15.7042908"><ele>588.0</ele><time>2026-04-25T13:03:02.447Z</time></trkpt><trkpt lat="40.1963141" lon="15.7043028"><ele>588.0</ele><time>2026-04-25T13:03:03.457Z</time></trkpt><trkpt lat="40.1964715" lon="15.7042883"><ele>588.0</ele><time>2026-04-25T13:03:04.454Z</time></trkpt><trkpt lat="40.1966435" lon="15.7042527"><ele>588.0</ele><time>2026-04-25T13:03:05.456Z</time></trkpt><trkpt lat="40.196816" lon="15.7042017"><ele>588.0</ele><time>2026-04-25T13:03:06.454Z</time></trkpt><trkpt lat="40.1969968" lon="15.7041504"><ele>588.0</ele><time>2026-04-25T13:03:07.461Z</time></trkpt><trkpt lat="40.1971828" lon="15.7041009"><ele>588.0</ele><time>2026-04-25T13:03:08.454Z</time></trkpt><trkpt lat="40.1973694" lon="15.7040545"><ele>588.0</ele><time>2026-04-25T13:03:09.449Z</time></trkpt><trkpt lat="40.1975538" lon="15.7040108"><ele>588.0</ele><time>2026-04-25T13:03:10.449Z</time></trkpt><trkpt lat="40.1977289" lon="15.7039524"><ele>588.0</ele><time>2026-04-25T13:03:11.463Z</time></trkpt><trkpt lat="40.1978904" lon="15.7038722"><ele>588.0</ele><time>2026-04-25T13:03:12.456Z</time></trkpt><trkpt lat="40.1980358" lon="15.7037685"><ele>588.0</ele><time>2026-04-25T13:03:13.451Z</time></trkpt><trkpt lat="40.1981622" lon="15.7036414"><ele>587.6666666666666</ele><time>2026-04-25T13:03:14.454Z</time></trkpt><trkpt lat="40.1982697" lon="15.7034893"><ele>587.3333333333333</ele><time>2026-04-25T13:03:15.456Z</time></trkpt><trkpt lat="40.1983576" lon="15.7033123"><ele>587.0</ele><time>2026-04-25T13:03:16.454Z</time></trkpt><trkpt lat="40.1984281" lon="15.7031191"><ele>587.0</ele><time>2026-04-25T13:03:17.445Z</time></trkpt><trkpt lat="40.1984988" lon="15.7029214"><ele>587.0</ele><time>2026-04-25T13:03:18.445Z</time></trkpt><trkpt lat="40.1985727" lon="15.702725"><ele>587.0</ele><time>2026-04-25T13:03:19.451Z</time></trkpt><trkpt lat="40.1986348" lon="15.7025224"><ele>585.3333333333333</ele><time>2026-04-25T13:03:20.449Z</time></trkpt><trkpt lat="40.1986703" lon="15.7023101"><ele>583.6666666666666</ele><time>2026-04-25T13:03:21.452Z</time></trkpt><trkpt lat="40.1986804" lon="15.7020972"><ele>582.0</ele><time>2026-04-25T13:03:22.449Z</time></trkpt><trkpt lat="40.1986731" lon="15.7018894"><ele>582.0</ele><time>2026-04-25T13:03:23.451Z</time></trkpt><trkpt lat="40.1986677" lon="15.7016923"><ele>582.0</ele><time>2026-04-25T13:03:24.459Z</time></trkpt><trkpt lat="40.198678" lon="15.7015082"><ele>582.0</ele><time>2026-04-25T13:03:25.46Z</time></trkpt><trkpt lat="40.1987142" lon="15.7013356"><ele>582.0</ele><time>2026-04-25T13:03:26.449Z</time></trkpt><trkpt lat="40.1987809" lon="15.7011672"><ele>581.3333333333334</ele><time>2026-04-25T13:03:27.45Z</time></trkpt><trkpt lat="40.1988716" lon="15.7009925"><ele>580.6666666666667</ele><time>2026-04-25T13:03:28.462Z</time></trkpt><trkpt lat="40.1989817" lon="15.7008063"><ele>580.0</ele><time>2026-04-25T13:03:29.454Z</time></trkpt><trkpt lat="40.199105" lon="15.7006051"><ele>580.6666666666667</ele><time>2026-04-25T13:03:30.461Z</time></trkpt><trkpt lat="40.1992347" lon="15.7003941"><ele>581.3333333333334</ele><time>2026-04-25T13:03:31.45Z</time></trkpt><trkpt lat="40.1993697" lon="15.7001801"><ele>582.0</ele><time>2026-04-25T13:03:32.45Z</time></trkpt><trkpt lat="40.1995017" lon="15.6999569"><ele>582.0</ele><time>2026-04-25T13:03:33.453Z</time></trkpt><trkpt lat="40.1996306" lon="15.6997377"><ele>582.0</ele><time>2026-04-25T13:03:34.449Z</time></trkpt><trkpt lat="40.1997572" lon="15.6995242"><ele>582.0</ele><time>2026-04-25T13:03:35.461Z</time></trkpt><trkpt lat="40.1998774" lon="15.6993362"><ele>582.6666666666666</ele><time>2026-04-25T13:03:36.452Z</time></trkpt><trkpt lat="40.2000089" lon="15.6991846"><ele>583.3333333333333</ele><time>2026-04-25T13:03:37.447Z</time></trkpt><trkpt lat="40.2001507" lon="15.6990758"><ele>584.0</ele><time>2026-04-25T13:03:38.45Z</time></trkpt><trkpt lat="40.2003091" lon="15.6989885"><ele>584.0</ele><time>2026-04-25T13:03:39.462Z</time></trkpt><trkpt lat="40.2004686" lon="15.6988946"><ele>584.0</ele><time>2026-04-25T13:03:40.443Z</time></trkpt><trkpt lat="40.2006307" lon="15.6987567"><ele>584.0</ele><time>2026-04-25T13:03:41.454Z</time></trkpt><trkpt lat="40.2007899" lon="15.6985819"><ele>583.0</ele><time>2026-04-25T13:03:42.446Z</time></trkpt><trkpt lat="40.2009462" lon="15.6983888"><ele>582.0</ele><time>2026-04-25T13:03:43.465Z</time></trkpt><trkpt lat="40.2011047" lon="15.6981963"><ele>581.0</ele><time>2026-04-25T13:03:44.446Z</time></trkpt><trkpt lat="40.2012677" lon="15.6980066"><ele>581.0</ele><time>2026-04-25T13:03:45.456Z</time></trkpt><trkpt lat="40.2014266" lon="15.6978324"><ele>581.0</ele><time>2026-04-25T13:03:46.445Z</time></trkpt><trkpt lat="40.2015858" lon="15.6976875"><ele>581.0</ele><time>2026-04-25T13:03:47.458Z</time></trkpt><trkpt lat="40.2017491" lon="15.6975911"><ele>579.6666666666666</ele><time>2026-04-25T13:03:48.451Z</time></trkpt><trkpt lat="40.2019217" lon="15.6975485"><ele>578.3333333333334</ele><time>2026-04-25T13:03:49.45Z</time></trkpt><trkpt lat="40.2021111" lon="15.69754"><ele>577.0</ele><time>2026-04-25T13:03:50.45Z</time></trkpt><trkpt lat="40.2023199" lon="15.6975337"><ele>580.5</ele><time>2026-04-25T13:03:51.456Z</time></trkpt><trkpt lat="40.2025452" lon="15.697515"><ele>584.0</ele><time>2026-04-25T13:03:52.441Z</time></trkpt><trkpt lat="40.2027808" lon="15.69749"><ele>584.0</ele><time>2026-04-25T13:03:53.461Z</time></trkpt><trkpt lat="40.2030105" lon="15.6974706"><ele>584.0</ele><time>2026-04-25T13:03:54.441Z</time></trkpt><trkpt lat="40.203235" lon="15.6974194"><ele>584.0</ele><time>2026-04-25T13:03:55.454Z</time></trkpt><trkpt lat="40.2034539" lon="15.6973653"><ele>584.0</ele><time>2026-04-25T13:03:56.441Z</time></trkpt><trkpt lat="40.203654" lon="15.6972797"><ele>584.0</ele><time>2026-04-25T13:03:57.45Z</time></trkpt><trkpt lat="40.2038464" lon="15.6971587"><ele>583.5</ele><time>2026-04-25T13:03:58.458Z</time></trkpt><trkpt lat="40.2040384" lon="15.696999"><ele>583.0</ele><time>2026-04-25T13:03:59.451Z</time></trkpt><trkpt lat="40.2042294" lon="15.6968239"><ele>580.0</ele><time>2026-04-25T13:04:00.456Z</time></trkpt><trkpt lat="40.2044257" lon="15.6966342"><ele>577.0</ele><time>2026-04-25T13:04:01.451Z</time></trkpt><trkpt lat="40.2046293" lon="15.6964379"><ele>576.0</ele><time>2026-04-25T13:04:02.449Z</time></trkpt><trkpt lat="40.2048388" lon="15.6962391"><ele>575.0</ele><time>2026-04-25T13:04:03.452Z</time></trkpt><trkpt lat="40.2050451" lon="15.6960417"><ele>575.0</ele><time>2026-04-25T13:04:04.45Z</time></trkpt><trkpt lat="40.2052432" lon="15.6958548"><ele>575.0</ele><time>2026-04-25T13:04:05.447Z</time></trkpt><trkpt lat="40.2054273" lon="15.6956829"><ele>575.0</ele><time>2026-04-25T13:04:06.453Z</time></trkpt><trkpt lat="40.2055926" lon="15.6955332"><ele>575.0</ele><time>2026-04-25T13:04:07.461Z</time></trkpt><trkpt lat="40.2057526" lon="15.6954149"><ele>575.0</ele><time>2026-04-25T13:04:08.453Z</time></trkpt><trkpt lat="40.2059165" lon="15.6953396"><ele>579.3333333333333</ele><time>2026-04-25T13:04:09.458Z</time></trkpt><trkpt lat="40.2060831" lon="15.6952987"><ele>583.6666666666666</ele><time>2026-04-25T13:04:10.46Z</time></trkpt><trkpt lat="40.2062486" lon="15.6952809"><ele>588.0</ele><time>2026-04-25T13:04:11.453Z</time></trkpt><trkpt lat="40.2064153" lon="15.6953229"><ele>588.6666666666666</ele><time>2026-04-25T13:04:12.453Z</time></trkpt><trkpt lat="40.2065568" lon="15.695426"><ele>589.3333333333333</ele><time>2026-04-25T13:04:13.451Z</time></trkpt><trkpt lat="40.2066957" lon="15.6955573"><ele>590.0</ele><time>2026-04-25T13:04:14.448Z</time></trkpt><trkpt lat="40.2068487" lon="15.6956793"><ele>590.0</ele><time>2026-04-25T13:04:15.453Z</time></trkpt><trkpt lat="40.2070222" lon="15.6957822"><ele>590.0</ele><time>2026-04-25T13:04:16.449Z</time></trkpt><trkpt lat="40.2072076" lon="15.6958724"><ele>590.0</ele><time>2026-04-25T13:04:17.447Z</time></trkpt><trkpt lat="40.2073924" lon="15.6959615"><ele>589.0</ele><time>2026-04-25T13:04:18.446Z</time></trkpt><trkpt lat="40.2075706" lon="15.6960571"><ele>588.0</ele><time>2026-04-25T13:04:19.447Z</time></trkpt><trkpt lat="40.2077418" lon="15.6961397"><ele>587.0</ele><time>2026-04-25T13:04:20.449Z</time></trkpt><trkpt lat="40.2079087" lon="15.6961788"><ele>587.3333333333333</ele><time>2026-04-25T13:04:21.449Z</time></trkpt><trkpt lat="40.2080763" lon="15.6961684"><ele>587.6666666666666</ele><time>2026-04-25T13:04:22.448Z</time></trkpt><trkpt lat="40.2082466" lon="15.6961471"><ele>588.0</ele><time>2026-04-25T13:04:23.445Z</time></trkpt><trkpt lat="40.2084222" lon="15.6960655"><ele>588.0</ele><time>2026-04-25T13:04:24.45Z</time></trkpt><trkpt lat="40.2086086" lon="15.6959902"><ele>588.0</ele><time>2026-04-25T13:04:25.455Z</time></trkpt><trkpt lat="40.2088037" lon="15.6959076"><ele>588.0</ele><time>2026-04-25T13:04:26.454Z</time></trkpt><trkpt lat="40.2089949" lon="15.6958129"><ele>590.0</ele><time>2026-04-25T13:04:27.454Z</time></trkpt><trkpt lat="40.2091937" lon="15.6957098"><ele>592.0</ele><time>2026-04-25T13:04:28.449Z</time></trkpt><trkpt lat="40.2094026" lon="15.6956051"><ele>594.0</ele><time>2026-04-25T13:04:29.463Z</time></trkpt><trkpt lat="40.209626" lon="15.6955194"><ele>598.5</ele><time>2026-04-25T13:04:30.46Z</time></trkpt><trkpt lat="40.2098611" lon="15.6954451"><ele>603.0</ele><time>2026-04-25T13:04:31.457Z</time></trkpt><trkpt lat="40.2101083" lon="15.6953754"><ele>603.0</ele><time>2026-04-25T13:04:32.455Z</time></trkpt><trkpt lat="40.2103659" lon="15.6952985"><ele>603.0</ele><time>2026-04-25T13:04:33.453Z</time></trkpt><trkpt lat="40.2106251" lon="15.6952167"><ele>599.0</ele><time>2026-04-25T13:04:34.45Z</time></trkpt><trkpt lat="40.2108938" lon="15.6951293"><ele>595.0</ele><time>2026-04-25T13:04:35.461Z</time></trkpt><trkpt lat="40.2111775" lon="15.6950505"><ele>595.0</ele><time>2026-04-25T13:04:36.45Z</time></trkpt><trkpt lat="40.2114602" lon="15.694991"><ele>595.0</ele><time>2026-04-25T13:04:37.454Z</time></trkpt><trkpt lat="40.2117427" lon="15.6949527"><ele>600.5</ele><time>2026-04-25T13:04:38.449Z</time></trkpt><trkpt lat="40.2120171" lon="15.6949294"><ele>606.0</ele><time>2026-04-25T13:04:39.453Z</time></trkpt><trkpt lat="40.2122803" lon="15.6949195"><ele>606.5</ele><time>2026-04-25T13:04:40.456Z</time></trkpt><trkpt lat="40.2125302" lon="15.6949141"><ele>607.0</ele><time>2026-04-25T13:04:41.452Z</time></trkpt><trkpt lat="40.2127642" lon="15.6948965"><ele>607.0</ele><time>2026-04-25T13:04:42.452Z</time></trkpt><trkpt lat="40.2129898" lon="15.694854"><ele>607.0</ele><time>2026-04-25T13:04:43.461Z</time></trkpt><trkpt lat="40.2132047" lon="15.6947795"><ele>606.0</ele><time>2026-04-25T13:04:44.453Z</time></trkpt><trkpt lat="40.21341" lon="15.6946679"><ele>605.0</ele><time>2026-04-25T13:04:45.45Z</time></trkpt><trkpt lat="40.2136113" lon="15.694516"><ele>605.5</ele><time>2026-04-25T13:04:46.45Z</time></trkpt><trkpt lat="40.2138112" lon="15.6943236"><ele>606.0</ele><time>2026-04-25T13:04:47.455Z</time></trkpt><trkpt lat="40.2139983" lon="15.6940956"><ele>606.0</ele><time>2026-04-25T13:04:48.451Z</time></trkpt><trkpt lat="40.2141691" lon="15.6938349"><ele>606.0</ele><time>2026-04-25T13:04:49.446Z</time></trkpt><trkpt lat="40.2143207" lon="15.6935498"><ele>603.0</ele><time>2026-04-25T13:04:50.446Z</time></trkpt><trkpt lat="40.2144626" lon="15.6932616"><ele>600.0</ele><time>2026-04-25T13:04:51.456Z</time></trkpt><trkpt lat="40.2145985" lon="15.6929867"><ele>597.0</ele><time>2026-04-25T13:04:52.446Z</time></trkpt><trkpt lat="40.2147229" lon="15.6927247"><ele>594.0</ele><time>2026-04-25T13:04:53.457Z</time></trkpt><trkpt lat="40.2148258" lon="15.6924633"><ele>598.0</ele><time>2026-04-25T13:04:54.446Z</time></trkpt><trkpt lat="40.2149042" lon="15.6921981"><ele>602.0</ele><time>2026-04-25T13:04:55.45Z</time></trkpt><trkpt lat="40.2149684" lon="15.6919342"><ele>606.0</ele><time>2026-04-25T13:04:56.457Z</time></trkpt><trkpt lat="40.2150292" lon="15.691678"><ele>606.0</ele><time>2026-04-25T13:04:57.46Z</time></trkpt><trkpt lat="40.2150889" lon="15.6914308"><ele>606.0</ele><time>2026-04-25T13:04:58.45Z</time></trkpt><trkpt lat="40.2151483" lon="15.6911942"><ele>606.0</ele><time>2026-04-25T13:04:59.449Z</time></trkpt><trkpt lat="40.2152154" lon="15.6909701"><ele>604.3333333333334</ele><time>2026-04-25T13:05:00.446Z</time></trkpt><trkpt lat="40.2153006" lon="15.6907567"><ele>602.6666666666667</ele><time>2026-04-25T13:05:01.45Z</time></trkpt><trkpt lat="40.2154034" lon="15.6905525"><ele>601.0</ele><time>2026-04-25T13:05:02.446Z</time></trkpt><trkpt lat="40.2155279" lon="15.6903521"><ele>602.3333333333334</ele><time>2026-04-25T13:05:03.452Z</time></trkpt><trkpt lat="40.2156757" lon="15.6901574"><ele>603.6666666666666</ele><time>2026-04-25T13:05:04.452Z</time></trkpt><trkpt lat="40.215836" lon="15.6899591"><ele>605.0</ele><time>2026-04-25T13:05:05.451Z</time></trkpt><trkpt lat="40.215992" lon="15.6897461"><ele>605.0</ele><time>2026-04-25T13:05:06.454Z</time></trkpt><trkpt lat="40.2161343" lon="15.6895228"><ele>605.0</ele><time>2026-04-25T13:05:07.448Z</time></trkpt><trkpt lat="40.2162591" lon="15.6893011"><ele>605.0</ele><time>2026-04-25T13:05:08.446Z</time></trkpt><trkpt lat="40.2163674" lon="15.6890904"><ele>603.0</ele><time>2026-04-25T13:05:09.443Z</time></trkpt><trkpt lat="40.2164692" lon="15.6888937"><ele>601.0</ele><time>2026-04-25T13:05:10.444Z</time></trkpt><trkpt lat="40.2165198" lon="15.6886913"><ele>599.0</ele><time>2026-04-25T13:05:11.44Z</time></trkpt><trkpt lat="40.2165408" lon="15.6884858"><ele>597.6666666666666</ele><time>2026-04-25T13:05:12.447Z</time></trkpt><trkpt lat="40.216531" lon="15.6882789"><ele>596.3333333333334</ele><time>2026-04-25T13:05:13.449Z</time></trkpt><trkpt lat="40.216503" lon="15.6880728"><ele>595.0</ele><time>2026-04-25T13:05:14.453Z</time></trkpt><trkpt lat="40.2164712" lon="15.6878667"><ele>596.3333333333334</ele><time>2026-04-25T13:05:15.45Z</time></trkpt><trkpt lat="40.2164414" lon="15.687658"><ele>597.6666666666666</ele><time>2026-04-25T13:05:16.444Z</time></trkpt><trkpt lat="40.2164144" lon="15.6874523"><ele>599.0</ele><time>2026-04-25T13:05:17.448Z</time></trkpt><trkpt lat="40.2163862" lon="15.6872525"><ele>599.0</ele><time>2026-04-25T13:05:18.45Z</time></trkpt><trkpt lat="40.2163566" lon="15.6870501"><ele>599.0</ele><time>2026-04-25T13:05:19.455Z</time></trkpt><trkpt lat="40.216324" lon="15.6868462"><ele>599.0</ele><time>2026-04-25T13:05:20.448Z</time></trkpt><trkpt lat="40.2162894" lon="15.686645"><ele>598.6666666666666</ele><time>2026-04-25T13:05:21.452Z</time></trkpt><trkpt lat="40.2162513" lon="15.6864487"><ele>598.3333333333334</ele><time>2026-04-25T13:05:22.452Z</time></trkpt><trkpt lat="40.2162132" lon="15.6862543"><ele>598.0</ele><time>2026-04-25T13:05:23.449Z</time></trkpt><trkpt lat="40.2161715" lon="15.6860694"><ele>598.75</ele><time>2026-04-25T13:05:24.448Z</time></trkpt><trkpt lat="40.2161323" lon="15.6859007"><ele>599.5</ele><time>2026-04-25T13:05:25.45Z</time></trkpt><trkpt lat="40.216104" lon="15.6857387"><ele>600.25</ele><time>2026-04-25T13:05:26.451Z</time></trkpt><trkpt lat="40.2160946" lon="15.6855806"><ele>601.0</ele><time>2026-04-25T13:05:27.448Z</time></trkpt><trkpt lat="40.2160876" lon="15.685431"><ele>601.0</ele><time>2026-04-25T13:05:28.446Z</time></trkpt><trkpt lat="40.2161405" lon="15.6852833"><ele>601.0</ele><time>2026-04-25T13:05:29.461Z</time></trkpt><trkpt lat="40.2162004" lon="15.6851467"><ele>601.0</ele><time>2026-04-25T13:05:30.453Z</time></trkpt><trkpt lat="40.2162662" lon="15.6850014"><ele>601.0</ele><time>2026-04-25T13:05:31.443Z</time></trkpt><trkpt lat="40.2163351" lon="15.6848576"><ele>600.75</ele><time>2026-04-25T13:05:32.463Z</time></trkpt><trkpt lat="40.2164071" lon="15.684713"><ele>600.5</ele><time>2026-04-25T13:05:33.457Z</time></trkpt><trkpt lat="40.2164784" lon="15.6845753"><ele>600.25</ele><time>2026-04-25T13:05:34.45Z</time></trkpt><trkpt lat="40.2165483" lon="15.6844563"><ele>600.0</ele><time>2026-04-25T13:05:35.465Z</time></trkpt><trkpt lat="40.2166314" lon="15.6843714"><ele>601.0</ele><time>2026-04-25T13:05:36.454Z</time></trkpt><trkpt lat="40.2167214" lon="15.6843187"><ele>602.0</ele><time>2026-04-25T13:05:37.448Z</time></trkpt><trkpt lat="40.2168138" lon="15.6842775"><ele>603.0</ele><time>2026-04-25T13:05:38.465Z</time></trkpt><trkpt lat="40.2169015" lon="15.6842191"><ele>604.0</ele><time>2026-04-25T13:05:39.468Z</time></trkpt><trkpt lat="40.216969" lon="15.6841279"><ele>605.0</ele><time>2026-04-25T13:05:40.443Z</time></trkpt><trkpt lat="40.2170106" lon="15.6840124"><ele>605.0</ele><time>2026-04-25T13:05:41.456Z</time></trkpt><trkpt lat="40.2170448" lon="15.6839067"><ele>605.0</ele><time>2026-04-25T13:05:42.449Z</time></trkpt><trkpt lat="40.2170133" lon="15.6837805"><ele>605.0</ele><time>2026-04-25T13:05:43.448Z</time></trkpt><trkpt lat="40.2169596" lon="15.6836596"><ele>605.0</ele><time>2026-04-25T13:05:44.443Z</time></trkpt><trkpt lat="40.2169098" lon="15.6835367"><ele>605.0</ele><time>2026-04-25T13:05:45.455Z</time></trkpt><trkpt lat="40.2168626" lon="15.6834048"><ele>603.75</ele><time>2026-04-25T13:05:46.454Z</time></trkpt><trkpt lat="40.2168277" lon="15.6832627"><ele>602.5</ele><time>2026-04-25T13:05:47.456Z</time></trkpt><trkpt lat="40.2167967" lon="15.6831125"><ele>601.25</ele><time>2026-04-25T13:05:48.45Z</time></trkpt><trkpt lat="40.2167754" lon="15.6829603"><ele>600.0</ele><time>2026-04-25T13:05:49.453Z</time></trkpt><trkpt lat="40.216765" lon="15.6828069"><ele>601.25</ele><time>2026-04-25T13:05:50.448Z</time></trkpt><trkpt lat="40.2167602" lon="15.6826461"><ele>602.5</ele><time>2026-04-25T13:05:51.446Z</time></trkpt><trkpt lat="40.2167579" lon="15.6824883"><ele>603.75</ele><time>2026-04-25T13:05:52.449Z</time></trkpt><trkpt lat="40.2167547" lon="15.6823294"><ele>605.0</ele><time>2026-04-25T13:05:53.449Z</time></trkpt><trkpt lat="40.2167504" lon="15.6821679"><ele>605.0</ele><time>2026-04-25T13:05:54.456Z</time></trkpt><trkpt lat="40.2167493" lon="15.6820075"><ele>605.0</ele><time>2026-04-25T13:05:55.451Z</time></trkpt><trkpt lat="40.2167479" lon="15.6818495"><ele>605.0</ele><time>2026-04-25T13:05:56.456Z</time></trkpt><trkpt lat="40.2167447" lon="15.681696"><ele>605.0</ele><time>2026-04-25T13:05:57.454Z</time></trkpt><trkpt lat="40.2167415" lon="15.6815464"><ele>605.5</ele><time>2026-04-25T13:05:58.453Z</time></trkpt><trkpt lat="40.2167384" lon="15.6814066"><ele>606.0</ele><time>2026-04-25T13:05:59.455Z</time></trkpt><trkpt lat="40.2167363" lon="15.6812809"><ele>606.5</ele><time>2026-04-25T13:06:00.45Z</time></trkpt><trkpt lat="40.2167396" lon="15.6811673"><ele>607.0</ele><time>2026-04-25T13:06:01.449Z</time></trkpt><trkpt lat="40.216754" lon="15.6810665"><ele>607.5</ele><time>2026-04-25T13:06:02.455Z</time></trkpt><trkpt lat="40.2167742" lon="15.6809739"><ele>608.0</ele><time>2026-04-25T13:06:03.451Z</time></trkpt><trkpt lat="40.2167979" lon="15.6808895"><ele>609.1666666666666</ele><time>2026-04-25T13:06:04.453Z</time></trkpt><trkpt lat="40.2168228" lon="15.6808084"><ele>610.3333333333333</ele><time>2026-04-25T13:06:05.459Z</time></trkpt><trkpt lat="40.216846" lon="15.6807205"><ele>611.5</ele><time>2026-04-25T13:06:06.452Z</time></trkpt><trkpt lat="40.2168723" lon="15.680616"><ele>612.6666666666666</ele><time>2026-04-25T13:06:07.445Z</time></trkpt><trkpt lat="40.216894" lon="15.6805113"><ele>613.8333333333334</ele><time>2026-04-25T13:06:08.449Z</time></trkpt><trkpt lat="40.216914" lon="15.6804155"><ele>615.0</ele><time>2026-04-25T13:06:09.462Z</time></trkpt><trkpt lat="40.216935" lon="15.6803251"><ele>614.8</ele><time>2026-04-25T13:06:10.454Z</time></trkpt><trkpt lat="40.2169684" lon="15.6802369"><ele>614.6</ele><time>2026-04-25T13:06:11.453Z</time></trkpt><trkpt lat="40.2170171" lon="15.6801543"><ele>614.4</ele><time>2026-04-25T13:06:12.443Z</time></trkpt><trkpt lat="40.2170812" lon="15.6800708"><ele>614.2</ele><time>2026-04-25T13:06:13.448Z</time></trkpt><trkpt lat="40.2171639" lon="15.6799864"><ele>614.0</ele><time>2026-04-25T13:06:14.446Z</time></trkpt><trkpt lat="40.2172617" lon="15.6799043"><ele>614.5</ele><time>2026-04-25T13:06:15.454Z</time></trkpt><trkpt lat="40.2173756" lon="15.6798254"><ele>615.0</ele><time>2026-04-25T13:06:16.453Z</time></trkpt><trkpt lat="40.217497" lon="15.6797384"><ele>615.5</ele><time>2026-04-25T13:06:17.448Z</time></trkpt><trkpt lat="40.2176274" lon="15.6796415"><ele>616.0</ele><time>2026-04-25T13:06:18.444Z</time></trkpt><trkpt lat="40.2177639" lon="15.6795383"><ele>610.0</ele><time>2026-04-25T13:06:19.447Z</time></trkpt><trkpt lat="40.2179004" lon="15.6794278"><ele>604.0</ele><time>2026-04-25T13:06:20.446Z</time></trkpt><trkpt lat="40.2180339" lon="15.6793065"><ele>598.0</ele><time>2026-04-25T13:06:21.453Z</time></trkpt><trkpt lat="40.2181645" lon="15.6791705"><ele>598.0</ele><time>2026-04-25T13:06:22.449Z</time></trkpt><trkpt lat="40.2182899" lon="15.6790337"><ele>598.0</ele><time>2026-04-25T13:06:23.45Z</time></trkpt><trkpt lat="40.2184086" lon="15.6789044"><ele>598.0</ele><time>2026-04-25T13:06:24.449Z</time></trkpt><trkpt lat="40.2185206" lon="15.6787895"><ele>598.0</ele><time>2026-04-25T13:06:25.456Z</time></trkpt><trkpt lat="40.2186336" lon="15.6787009"><ele>598.0</ele><time>2026-04-25T13:06:26.45Z</time></trkpt><trkpt lat="40.2187384" lon="15.6786257"><ele>598.0</ele><time>2026-04-25T13:06:27.446Z</time></trkpt><trkpt lat="40.2188384" lon="15.6786357"><ele>598.0</ele><time>2026-04-25T13:06:28.445Z</time></trkpt><trkpt lat="40.2189544" lon="15.6787359"><ele>598.75</ele><time>2026-04-25T13:06:29.453Z</time></trkpt><trkpt lat="40.2190492" lon="15.6788482"><ele>599.5</ele><time>2026-04-25T13:06:30.45Z</time></trkpt><trkpt lat="40.2191496" lon="15.6789712"><ele>600.25</ele><time>2026-04-25T13:06:31.461Z</time></trkpt><trkpt lat="40.219268" lon="15.6790844"><ele>601.0</ele><time>2026-04-25T13:06:32.447Z</time></trkpt><trkpt lat="40.2194123" lon="15.6791807"><ele>601.0</ele><time>2026-04-25T13:06:33.45Z</time></trkpt><trkpt lat="40.2195793" lon="15.6792542"><ele>601.0</ele><time>2026-04-25T13:06:34.446Z</time></trkpt><trkpt lat="40.2197645" lon="15.6793197"><ele>601.0</ele><time>2026-04-25T13:06:35.471Z</time></trkpt><trkpt lat="40.2199527" lon="15.6793981"><ele>608.0</ele><time>2026-04-25T13:06:36.45Z</time></trkpt><trkpt lat="40.2201413" lon="15.6794837"><ele>615.0</ele><time>2026-04-25T13:06:37.45Z</time></trkpt><trkpt lat="40.2203321" lon="15.6795609"><ele>622.0</ele><time>2026-04-25T13:06:38.447Z</time></trkpt><trkpt lat="40.2205305" lon="15.6796198"><ele>617.0</ele><time>2026-04-25T13:06:39.452Z</time></trkpt><trkpt lat="40.220737" lon="15.6796523"><ele>612.0</ele><time>2026-04-25T13:06:40.451Z</time></trkpt><trkpt lat="40.2209547" lon="15.6796598"><ele>607.0</ele><time>2026-04-25T13:06:41.448Z</time></trkpt><trkpt lat="40.221178" lon="15.6796417"><ele>607.0</ele><time>2026-04-25T13:06:42.443Z</time></trkpt><trkpt lat="40.221406" lon="15.6796063"><ele>607.0</ele><time>2026-04-25T13:06:43.45Z</time></trkpt><trkpt lat="40.2216332" lon="15.6795615"><ele>605.0</ele><time>2026-04-25T13:06:44.442Z</time></trkpt><trkpt lat="40.2218556" lon="15.6795192"><ele>603.0</ele><time>2026-04-25T13:06:45.447Z</time></trkpt><trkpt lat="40.2220676" lon="15.679435"><ele>601.0</ele><time>2026-04-25T13:06:46.449Z</time></trkpt><trkpt lat="40.2222869" lon="15.6793389"><ele>596.5</ele><time>2026-04-25T13:06:47.448Z</time></trkpt><trkpt lat="40.222497" lon="15.67921"><ele>592.0</ele><time>2026-04-25T13:06:48.451Z</time></trkpt><trkpt lat="40.2226964" lon="15.6790277"><ele>592.0</ele><time>2026-04-25T13:06:49.445Z</time></trkpt><trkpt lat="40.2228806" lon="15.6788302"><ele>592.0</ele><time>2026-04-25T13:06:50.449Z</time></trkpt><trkpt lat="40.2230191" lon="15.678585"><ele>589.6666666666667</ele><time>2026-04-25T13:06:51.446Z</time></trkpt><trkpt lat="40.2231333" lon="15.6783282"><ele>587.3333333333334</ele><time>2026-04-25T13:06:52.444Z</time></trkpt><trkpt lat="40.2232384" lon="15.6780756"><ele>585.0</ele><time>2026-04-25T13:06:53.447Z</time></trkpt><trkpt lat="40.2233496" lon="15.6778395"><ele>587.0</ele><time>2026-04-25T13:06:54.445Z</time></trkpt><trkpt lat="40.2234678" lon="15.6776316"><ele>589.0</ele><time>2026-04-25T13:06:55.442Z</time></trkpt><trkpt lat="40.2236114" lon="15.6774595"><ele>591.0</ele><time>2026-04-25T13:06:56.45Z</time></trkpt><trkpt lat="40.2237721" lon="15.6773248"><ele>591.0</ele><time>2026-04-25T13:06:57.46Z</time></trkpt><trkpt lat="40.2239462" lon="15.6772221"><ele>591.0</ele><time>2026-04-25T13:06:58.452Z</time></trkpt><trkpt lat="40.2241343" lon="15.6771511"><ele>591.0</ele><time>2026-04-25T13:06:59.449Z</time></trkpt><trkpt lat="40.2243297" lon="15.6771142"><ele>593.3333333333334</ele><time>2026-04-25T13:07:00.45Z</time></trkpt><trkpt lat="40.224533" lon="15.677097"><ele>595.6666666666667</ele><time>2026-04-25T13:07:01.452Z</time></trkpt><trkpt lat="40.2247412" lon="15.6770704"><ele>598.0</ele><time>2026-04-25T13:07:02.451Z</time></trkpt><trkpt lat="40.2249474" lon="15.6770132"><ele>589.6666666666667</ele><time>2026-04-25T13:07:03.453Z</time></trkpt><trkpt lat="40.2251549" lon="15.67693"><ele>581.3333333333334</ele><time>2026-04-25T13:07:04.453Z</time></trkpt><trkpt lat="40.225365" lon="15.6768404"><ele>573.0</ele><time>2026-04-25T13:07:05.452Z</time></trkpt><trkpt lat="40.22558" lon="15.6767518"><ele>575.5</ele><time>2026-04-25T13:07:06.454Z</time></trkpt><trkpt lat="40.2257991" lon="15.676667"><ele>578.0</ele><time>2026-04-25T13:07:07.458Z</time></trkpt><trkpt lat="40.2260151" lon="15.6765958"><ele>578.0</ele><time>2026-04-25T13:07:08.456Z</time></trkpt><trkpt lat="40.2262392" lon="15.6765316"><ele>578.0</ele><time>2026-04-25T13:07:09.451Z</time></trkpt><trkpt lat="40.2264661" lon="15.6764751"><ele>579.5</ele><time>2026-04-25T13:07:10.449Z</time></trkpt><trkpt lat="40.2266966" lon="15.676423"><ele>581.0</ele><time>2026-04-25T13:07:11.449Z</time></trkpt><trkpt lat="40.2269248" lon="15.6763645"><ele>581.0</ele><time>2026-04-25T13:07:12.445Z</time></trkpt><trkpt lat="40.2271475" lon="15.6762892"><ele>581.0</ele><time>2026-04-25T13:07:13.442Z</time></trkpt><trkpt lat="40.2273627" lon="15.6761875"><ele>572.0</ele><time>2026-04-25T13:07:14.446Z</time></trkpt><trkpt lat="40.2275702" lon="15.6760638"><ele>563.0</ele><time>2026-04-25T13:07:15.455Z</time></trkpt><trkpt lat="40.2277686" lon="15.6759236"><ele>563.0</ele><time>2026-04-25T13:07:16.456Z</time></trkpt><trkpt lat="40.2279577" lon="15.6757698"><ele>563.0</ele><time>2026-04-25T13:07:17.446Z</time></trkpt><trkpt lat="40.2281362" lon="15.6756041"><ele>563.0</ele><time>2026-04-25T13:07:18.449Z</time></trkpt><trkpt lat="40.2283075" lon="15.6754391"><ele>565.6666666666666</ele><time>2026-04-25T13:07:19.447Z</time></trkpt><trkpt lat="40.2284784" lon="15.6752911"><ele>568.3333333333334</ele><time>2026-04-25T13:07:20.45Z</time></trkpt><trkpt lat="40.2286564" lon="15.6751744"><ele>571.0</ele><time>2026-04-25T13:07:21.443Z</time></trkpt><trkpt lat="40.228842" lon="15.6750875"><ele>567.0</ele><time>2026-04-25T13:07:22.448Z</time></trkpt><trkpt lat="40.2290383" lon="15.6750166"><ele>563.0</ele><time>2026-04-25T13:07:23.458Z</time></trkpt><trkpt lat="40.2292401" lon="15.6749497"><ele>559.0</ele><time>2026-04-25T13:07:24.448Z</time></trkpt><trkpt lat="40.2294631" lon="15.6748756"><ele>559.0</ele><time>2026-04-25T13:07:25.461Z</time></trkpt><trkpt lat="40.229693" lon="15.6748057"><ele>559.0</ele><time>2026-04-25T13:07:26.443Z</time></trkpt><trkpt lat="40.2299233" lon="15.6747387"><ele>557.0</ele><time>2026-04-25T13:07:27.452Z</time></trkpt><trkpt lat="40.2301608" lon="15.6746896"><ele>555.0</ele><time>2026-04-25T13:07:28.452Z</time></trkpt><trkpt lat="40.2304025" lon="15.6746644"><ele>555.0</ele><time>2026-04-25T13:07:29.471Z</time></trkpt><trkpt lat="40.230639" lon="15.67466"><ele>555.0</ele><time>2026-04-25T13:07:30.453Z</time></trkpt><trkpt lat="40.230874" lon="15.6746643"><ele>552.3333333333334</ele><time>2026-04-25T13:07:31.446Z</time></trkpt><trkpt lat="40.2311003" lon="15.6746452"><ele>549.6666666666667</ele><time>2026-04-25T13:07:32.45Z</time></trkpt><trkpt lat="40.2313165" lon="15.6745948"><ele>547.0</ele><time>2026-04-25T13:07:33.486Z</time></trkpt><trkpt lat="40.2315159" lon="15.6744986"><ele>545.3333333333334</ele><time>2026-04-25T13:07:34.497Z</time></trkpt><trkpt lat="40.2317016" lon="15.6743645"><ele>543.6666666666666</ele><time>2026-04-25T13:07:35.461Z</time></trkpt><trkpt lat="40.2318612" lon="15.6741943"><ele>542.0</ele><time>2026-04-25T13:07:36.462Z</time></trkpt><trkpt lat="40.2319973" lon="15.6739938"><ele>542.0</ele><time>2026-04-25T13:07:37.462Z</time></trkpt><trkpt lat="40.2321229" lon="15.6737793"><ele>542.0</ele><time>2026-04-25T13:07:38.442Z</time></trkpt><trkpt lat="40.2322548" lon="15.6735701"><ele>542.0</ele><time>2026-04-25T13:07:39.457Z</time></trkpt><trkpt lat="40.2324047" lon="15.6733844"><ele>543.6666666666666</ele><time>2026-04-25T13:07:40.445Z</time></trkpt><trkpt lat="40.232573" lon="15.673227"><ele>545.3333333333334</ele><time>2026-04-25T13:07:41.452Z</time></trkpt><trkpt lat="40.232758" lon="15.6731056"><ele>547.0</ele><time>2026-04-25T13:07:42.461Z</time></trkpt><trkpt lat="40.2329552" lon="15.6730257"><ele>550.6666666666667</ele><time>2026-04-25T13:07:43.458Z</time></trkpt><trkpt lat="40.2331581" lon="15.6729857"><ele>554.3333333333334</ele><time>2026-04-25T13:07:44.457Z</time></trkpt><trkpt lat="40.2333533" lon="15.6729801"><ele>558.0</ele><time>2026-04-25T13:07:45.465Z</time></trkpt><trkpt lat="40.2335359" lon="15.6729946"><ele>558.0</ele><time>2026-04-25T13:07:46.455Z</time></trkpt><trkpt lat="40.2337022" lon="15.6730115"><ele>558.0</ele><time>2026-04-25T13:07:47.458Z</time></trkpt><trkpt lat="40.2338553" lon="15.6730248"><ele>558.0</ele><time>2026-04-25T13:07:48.455Z</time></trkpt><trkpt lat="40.233981" lon="15.6730424"><ele>558.0</ele><time>2026-04-25T13:07:49.475Z</time></trkpt><trkpt lat="40.2340886" lon="15.6730454"><ele>557.0</ele><time>2026-04-25T13:07:50.449Z</time></trkpt><trkpt lat="40.2341724" lon="15.6730459"><ele>556.0</ele><time>2026-04-25T13:07:51.455Z</time></trkpt><trkpt lat="40.2342632" lon="15.6730288"><ele>555.0</ele><time>2026-04-25T13:07:53.463Z</time></trkpt><trkpt lat="40.2343809" lon="15.673013"><ele>554.0</ele><time>2026-04-25T13:08:45.459Z</time></trkpt><trkpt lat="40.2344661" lon="15.6729868"><ele>553.0</ele><time>2026-04-25T13:08:46.458Z</time></trkpt><trkpt lat="40.2345711" lon="15.6729517"><ele>553.0</ele><time>2026-04-25T13:08:47.446Z</time></trkpt><trkpt lat="40.2346982" lon="15.6729103"><ele>553.0</ele><time>2026-04-25T13:08:48.46Z</time></trkpt><trkpt lat="40.2348427" lon="15.6728593"><ele>553.0</ele><time>2026-04-25T13:08:49.458Z</time></trkpt><trkpt lat="40.2350083" lon="15.6727945"><ele>546.0</ele><time>2026-04-25T13:08:50.46Z</time></trkpt><trkpt lat="40.2351936" lon="15.6727156"><ele>539.0</ele><time>2026-04-25T13:08:51.463Z</time></trkpt><trkpt lat="40.2353919" lon="15.6726292"><ele>532.0</ele><time>2026-04-25T13:08:52.461Z</time></trkpt><trkpt lat="40.2356049" lon="15.6725374"><ele>534.5</ele><time>2026-04-25T13:08:53.456Z</time></trkpt><trkpt lat="40.2358301" lon="15.672443"><ele>537.0</ele><time>2026-04-25T13:08:54.465Z</time></trkpt><trkpt lat="40.2360675" lon="15.6723429"><ele>537.0</ele><time>2026-04-25T13:08:55.459Z</time></trkpt><trkpt lat="40.2363187" lon="15.6722376"><ele>537.0</ele><time>2026-04-25T13:08:56.456Z</time></trkpt><trkpt lat="40.2365811" lon="15.672129"><ele>534.5</ele><time>2026-04-25T13:08:57.442Z</time></trkpt><trkpt lat="40.2368554" lon="15.6720168"><ele>532.0</ele><time>2026-04-25T13:08:58.451Z</time></trkpt><trkpt lat="40.2371294" lon="15.6719046"><ele>534.0</ele><time>2026-04-25T13:08:59.453Z</time></trkpt><trkpt lat="40.2373843" lon="15.6717987"><ele>536.0</ele><time>2026-04-25T13:09:00.447Z</time></trkpt><trkpt lat="40.2376116" lon="15.6716999"><ele>536.0</ele><time>2026-04-25T13:09:01.448Z</time></trkpt><trkpt lat="40.2378119" lon="15.6716012"><ele>536.0</ele><time>2026-04-25T13:09:02.458Z</time></trkpt><trkpt lat="40.2379871" lon="15.6714896"><ele>536.0</ele><time>2026-04-25T13:09:03.447Z</time></trkpt><trkpt lat="40.2381382" lon="15.6713529"><ele>536.6666666666666</ele><time>2026-04-25T13:09:04.447Z</time></trkpt><trkpt lat="40.2382649" lon="15.6711816"><ele>537.3333333333334</ele><time>2026-04-25T13:09:05.458Z</time></trkpt><trkpt lat="40.2383764" lon="15.6709707"><ele>538.0</ele><time>2026-04-25T13:09:06.448Z</time></trkpt><trkpt lat="40.2384858" lon="15.6707339"><ele>535.0</ele><time>2026-04-25T13:09:07.444Z</time></trkpt><trkpt lat="40.2386024" lon="15.6704886"><ele>532.0</ele><time>2026-04-25T13:09:08.446Z</time></trkpt><trkpt lat="40.2387275" lon="15.6702421"><ele>529.0</ele><time>2026-04-25T13:09:09.46Z</time></trkpt><trkpt lat="40.2388522" lon="15.6699954"><ele>529.3333333333334</ele><time>2026-04-25T13:09:10.447Z</time></trkpt><trkpt lat="40.238972" lon="15.6697511"><ele>529.6666666666666</ele><time>2026-04-25T13:09:11.45Z</time></trkpt><trkpt lat="40.2390879" lon="15.6695224"><ele>530.0</ele><time>2026-04-25T13:09:12.445Z</time></trkpt><trkpt lat="40.2391962" lon="15.6693045"><ele>528.3333333333333</ele><time>2026-04-25T13:09:13.444Z</time></trkpt><trkpt lat="40.2392975" lon="15.6691035"><ele>526.6666666666666</ele><time>2026-04-25T13:09:14.454Z</time></trkpt><trkpt lat="40.2394142" lon="15.668926"><ele>525.0</ele><time>2026-04-25T13:09:15.454Z</time></trkpt><trkpt lat="40.239542" lon="15.6687714"><ele>525.0</ele><time>2026-04-25T13:09:16.448Z</time></trkpt><trkpt lat="40.2396875" lon="15.6686503"><ele>525.0</ele><time>2026-04-25T13:09:17.45Z</time></trkpt><trkpt lat="40.239849" lon="15.6685492"><ele>525.0</ele><time>2026-04-25T13:09:18.455Z</time></trkpt><trkpt lat="40.2400282" lon="15.6684625"><ele>525.3333333333334</ele><time>2026-04-25T13:09:19.448Z</time></trkpt><trkpt lat="40.2402225" lon="15.6683862"><ele>525.6666666666667</ele><time>2026-04-25T13:09:20.449Z</time></trkpt><trkpt lat="40.2404266" lon="15.6683052"><ele>526.0</ele><time>2026-04-25T13:09:21.45Z</time></trkpt><trkpt lat="40.2406404" lon="15.6682179"><ele>526.0</ele><time>2026-04-25T13:09:22.449Z</time></trkpt><trkpt lat="40.2408644" lon="15.6681264"><ele>526.0</ele><time>2026-04-25T13:09:23.45Z</time></trkpt><trkpt lat="40.2410943" lon="15.6680306"><ele>526.0</ele><time>2026-04-25T13:09:24.449Z</time></trkpt><trkpt lat="40.2413289" lon="15.6679333"><ele>526.0</ele><time>2026-04-25T13:09:25.444Z</time></trkpt><trkpt lat="40.2415677" lon="15.667834"><ele>523.5</ele><time>2026-04-25T13:09:26.452Z</time></trkpt><trkpt lat="40.241809" lon="15.6677353"><ele>521.0</ele><time>2026-04-25T13:09:27.449Z</time></trkpt><trkpt lat="40.2420502" lon="15.667638"><ele>521.0</ele><time>2026-04-25T13:09:28.447Z</time></trkpt><trkpt lat="40.2422895" lon="15.6675439"><ele>521.0</ele><time>2026-04-25T13:09:29.451Z</time></trkpt><trkpt lat="40.2425274" lon="15.6674506"><ele>521.5</ele><time>2026-04-25T13:09:30.452Z</time></trkpt><trkpt lat="40.242765" lon="15.6673611"><ele>522.0</ele><time>2026-04-25T13:09:31.449Z</time></trkpt><trkpt lat="40.2430035" lon="15.6672817"><ele>522.0</ele><time>2026-04-25T13:09:32.455Z</time></trkpt><trkpt lat="40.2432435" lon="15.6672157"><ele>522.0</ele><time>2026-04-25T13:09:33.454Z</time></trkpt><trkpt lat="40.2434832" lon="15.6671636"><ele>522.0</ele><time>2026-04-25T13:09:34.448Z</time></trkpt><trkpt lat="40.2437219" lon="15.6671224"><ele>522.0</ele><time>2026-04-25T13:09:35.451Z</time></trkpt><trkpt lat="40.2439595" lon="15.6670934"><ele>523.0</ele><time>2026-04-25T13:09:36.445Z</time></trkpt><trkpt lat="40.2441956" lon="15.6670715"><ele>524.0</ele><time>2026-04-25T13:09:37.457Z</time></trkpt><trkpt lat="40.2444308" lon="15.6670557"><ele>524.0</ele><time>2026-04-25T13:09:38.448Z</time></trkpt><trkpt lat="40.2446652" lon="15.6670456"><ele>524.0</ele><time>2026-04-25T13:09:39.458Z</time></trkpt><trkpt lat="40.2448996" lon="15.6670407"><ele>523.0</ele><time>2026-04-25T13:09:40.452Z</time></trkpt><trkpt lat="40.2451336" lon="15.6670365"><ele>522.0</ele><time>2026-04-25T13:09:41.467Z</time></trkpt><trkpt lat="40.2453667" lon="15.6670288"><ele>522.0</ele><time>2026-04-25T13:09:42.449Z</time></trkpt><trkpt lat="40.2456008" lon="15.6670194"><ele>522.0</ele><time>2026-04-25T13:09:43.452Z</time></trkpt><trkpt lat="40.2458356" lon="15.6670044"><ele>521.0</ele><time>2026-04-25T13:09:44.455Z</time></trkpt><trkpt lat="40.2460712" lon="15.6669772"><ele>520.0</ele><time>2026-04-25T13:09:45.455Z</time></trkpt><trkpt lat="40.2463072" lon="15.6669381"><ele>518.5</ele><time>2026-04-25T13:09:46.462Z</time></trkpt><trkpt lat="40.2465424" lon="15.6668857"><ele>517.0</ele><time>2026-04-25T13:09:47.452Z</time></trkpt><trkpt lat="40.2467767" lon="15.6668188"><ele>517.0</ele><time>2026-04-25T13:09:48.457Z</time></trkpt><trkpt lat="40.2470116" lon="15.666739"><ele>517.0</ele><time>2026-04-25T13:09:49.445Z</time></trkpt><trkpt lat="40.2472451" lon="15.6666473"><ele>517.5</ele><time>2026-04-25T13:09:50.457Z</time></trkpt><trkpt lat="40.2474792" lon="15.6665507"><ele>518.0</ele><time>2026-04-25T13:09:51.459Z</time></trkpt><trkpt lat="40.2477137" lon="15.6664516"><ele>518.0</ele><time>2026-04-25T13:09:52.443Z</time></trkpt><trkpt lat="40.2479497" lon="15.6663497"><ele>518.0</ele><time>2026-04-25T13:09:53.446Z</time></trkpt><trkpt lat="40.2481873" lon="15.6662467"><ele>518.0</ele><time>2026-04-25T13:09:54.452Z</time></trkpt><trkpt lat="40.2484256" lon="15.6661429"><ele>518.0</ele><time>2026-04-25T13:09:55.457Z</time></trkpt><trkpt lat="40.2486641" lon="15.6660381"><ele>518.0</ele><time>2026-04-25T13:09:56.444Z</time></trkpt><trkpt lat="40.2489014" lon="15.6659333"><ele>518.0</ele><time>2026-04-25T13:09:57.453Z</time></trkpt><trkpt lat="40.2491358" lon="15.665831"><ele>520.0</ele><time>2026-04-25T13:09:58.447Z</time></trkpt><trkpt lat="40.2493653" lon="15.6657339"><ele>522.0</ele><time>2026-04-25T13:09:59.451Z</time></trkpt><trkpt lat="40.2495928" lon="15.6656502"><ele>526.0</ele><time>2026-04-25T13:10:00.448Z</time></trkpt><trkpt lat="40.249818" lon="15.6655868"><ele>530.0</ele><time>2026-04-25T13:10:01.445Z</time></trkpt><trkpt lat="40.2500416" lon="15.665546"><ele>530.0</ele><time>2026-04-25T13:10:02.45Z</time></trkpt><trkpt lat="40.2502624" lon="15.6655275"><ele>530.0</ele><time>2026-04-25T13:10:03.449Z</time></trkpt><trkpt lat="40.2504808" lon="15.6655303"><ele>530.0</ele><time>2026-04-25T13:10:04.452Z</time></trkpt><trkpt lat="40.2506973" lon="15.6655544"><ele>531.3333333333333</ele><time>2026-04-25T13:10:05.446Z</time></trkpt><trkpt lat="40.2509142" lon="15.6656005"><ele>532.6666666666666</ele><time>2026-04-25T13:10:06.458Z</time></trkpt><trkpt lat="40.2511301" lon="15.6656698"><ele>534.0</ele><time>2026-04-25T13:10:07.455Z</time></trkpt><trkpt lat="40.2513456" lon="15.6657611"><ele>529.0</ele><time>2026-04-25T13:10:08.453Z</time></trkpt><trkpt lat="40.2515624" lon="15.6658601"><ele>524.0</ele><time>2026-04-25T13:10:09.477Z</time></trkpt><trkpt lat="40.2517818" lon="15.6659907"><ele>529.0</ele><time>2026-04-25T13:10:10.45Z</time></trkpt><trkpt lat="40.2520063" lon="15.6661203"><ele>534.0</ele><time>2026-04-25T13:10:11.446Z</time></trkpt><trkpt lat="40.252236" lon="15.666257"><ele>526.5</ele><time>2026-04-25T13:10:12.456Z</time></trkpt><trkpt lat="40.2524658" lon="15.666396"><ele>519.0</ele><time>2026-04-25T13:10:13.475Z</time></trkpt><trkpt lat="40.2526961" lon="15.6665338"><ele>519.0</ele><time>2026-04-25T13:10:14.448Z</time></trkpt><trkpt lat="40.2529285" lon="15.6666769"><ele>519.0</ele><time>2026-04-25T13:10:15.447Z</time></trkpt><trkpt lat="40.2531586" lon="15.6668166"><ele>520.0</ele><time>2026-04-25T13:10:16.446Z</time></trkpt><trkpt lat="40.2533889" lon="15.6669569"><ele>521.0</ele><time>2026-04-25T13:10:17.454Z</time></trkpt><trkpt lat="40.2536218" lon="15.6670884"><ele>521.0</ele><time>2026-04-25T13:10:18.443Z</time></trkpt><trkpt lat="40.2538524" lon="15.667221"><ele>521.0</ele><time>2026-04-25T13:10:19.448Z</time></trkpt><trkpt lat="40.2540776" lon="15.6673503"><ele>519.5</ele><time>2026-04-25T13:10:20.451Z</time></trkpt><trkpt lat="40.2542999" lon="15.6674805"><ele>518.0</ele><time>2026-04-25T13:10:21.445Z</time></trkpt><trkpt lat="40.254522" lon="15.6676128"><ele>518.0</ele><time>2026-04-25T13:10:22.447Z</time></trkpt><trkpt lat="40.2547438" lon="15.6677372"><ele>518.0</ele><time>2026-04-25T13:10:23.45Z</time></trkpt><trkpt lat="40.2549682" lon="15.6678527"><ele>517.0</ele><time>2026-04-25T13:10:24.452Z</time></trkpt><trkpt lat="40.2551955" lon="15.6679539"><ele>516.0</ele><time>2026-04-25T13:10:25.456Z</time></trkpt><trkpt lat="40.2554252" lon="15.6680425"><ele>515.0</ele><time>2026-04-25T13:10:26.448Z</time></trkpt><trkpt lat="40.2556599" lon="15.6681186"><ele>514.0</ele><time>2026-04-25T13:10:27.45Z</time></trkpt><trkpt lat="40.2559003" lon="15.6681847"><ele>514.0</ele><time>2026-04-25T13:10:28.449Z</time></trkpt><trkpt lat="40.2561414" lon="15.6682405"><ele>514.0</ele><time>2026-04-25T13:10:29.455Z</time></trkpt><trkpt lat="40.2563843" lon="15.6682874"><ele>514.0</ele><time>2026-04-25T13:10:30.452Z</time></trkpt><trkpt lat="40.2566302" lon="15.6683257"><ele>514.0</ele><time>2026-04-25T13:10:31.448Z</time></trkpt><trkpt lat="40.2568785" lon="15.6683551"><ele>514.0</ele><time>2026-04-25T13:10:32.449Z</time></trkpt><trkpt lat="40.257129" lon="15.6683748"><ele>514.0</ele><time>2026-04-25T13:10:33.452Z</time></trkpt><trkpt lat="40.2573802" lon="15.6683892"><ele>513.5</ele><time>2026-04-25T13:10:34.449Z</time></trkpt><trkpt lat="40.2576328" lon="15.6683997"><ele>513.0</ele><time>2026-04-25T13:10:35.45Z</time></trkpt><trkpt lat="40.2578866" lon="15.6684101"><ele>510.0</ele><time>2026-04-25T13:10:36.457Z</time></trkpt><trkpt lat="40.2581413" lon="15.668419"><ele>507.0</ele><time>2026-04-25T13:10:37.46Z</time></trkpt><trkpt lat="40.2583974" lon="15.6684247"><ele>507.0</ele><time>2026-04-25T13:10:38.449Z</time></trkpt><trkpt lat="40.258653" lon="15.6684241"><ele>507.0</ele><time>2026-04-25T13:10:39.457Z</time></trkpt><trkpt lat="40.258909" lon="15.6684165"><ele>507.0</ele><time>2026-04-25T13:10:40.447Z</time></trkpt><trkpt lat="40.2591619" lon="15.6684033"><ele>507.0</ele><time>2026-04-25T13:10:41.441Z</time></trkpt><trkpt lat="40.2594117" lon="15.6683837"><ele>507.0</ele><time>2026-04-25T13:10:42.454Z</time></trkpt><trkpt lat="40.2596586" lon="15.6683553"><ele>507.0</ele><time>2026-04-25T13:10:43.452Z</time></trkpt><trkpt lat="40.259902" lon="15.6683206"><ele>507.5</ele><time>2026-04-25T13:10:44.445Z</time></trkpt><trkpt lat="40.2601427" lon="15.6682821"><ele>508.0</ele><time>2026-04-25T13:10:45.453Z</time></trkpt><trkpt lat="40.2603802" lon="15.668241"><ele>508.5</ele><time>2026-04-25T13:10:46.454Z</time></trkpt><trkpt lat="40.2606162" lon="15.6681972"><ele>509.0</ele><time>2026-04-25T13:10:47.442Z</time></trkpt><trkpt lat="40.2608512" lon="15.6681526"><ele>509.0</ele><time>2026-04-25T13:10:48.457Z</time></trkpt><trkpt lat="40.2610858" lon="15.6681093"><ele>509.0</ele><time>2026-04-25T13:10:49.454Z</time></trkpt><trkpt lat="40.261319" lon="15.6680642"><ele>509.5</ele><time>2026-04-25T13:10:50.455Z</time></trkpt><trkpt lat="40.2615506" lon="15.6680116"><ele>510.0</ele><time>2026-04-25T13:10:51.452Z</time></trkpt><trkpt lat="40.2617788" lon="15.6679463"><ele>510.0</ele><time>2026-04-25T13:10:52.451Z</time></trkpt><trkpt lat="40.2620038" lon="15.6678656"><ele>510.0</ele><time>2026-04-25T13:10:53.453Z</time></trkpt><trkpt lat="40.2622245" lon="15.6677706"><ele>510.5</ele><time>2026-04-25T13:10:54.451Z</time></trkpt><trkpt lat="40.2624415" lon="15.6676621"><ele>511.0</ele><time>2026-04-25T13:10:55.439Z</time></trkpt><trkpt lat="40.2626556" lon="15.6675374"><ele>511.0</ele><time>2026-04-25T13:10:56.445Z</time></trkpt><trkpt lat="40.2628706" lon="15.6673947"><ele>511.0</ele><time>2026-04-25T13:10:57.444Z</time></trkpt><trkpt lat="40.2630913" lon="15.667229"><ele>511.0</ele><time>2026-04-25T13:10:58.462Z</time></trkpt><trkpt lat="40.2633196" lon="15.6670344"><ele>511.0</ele><time>2026-04-25T13:10:59.455Z</time></trkpt><trkpt lat="40.2635525" lon="15.6668096"><ele>510.0</ele><time>2026-04-25T13:11:00.443Z</time></trkpt><trkpt lat="40.2637807" lon="15.66657"><ele>509.0</ele><time>2026-04-25T13:11:01.451Z</time></trkpt><trkpt lat="40.2640006" lon="15.6663341"><ele>509.0</ele><time>2026-04-25T13:11:02.456Z</time></trkpt><trkpt lat="40.2642111" lon="15.666111"><ele>509.0</ele><time>2026-04-25T13:11:03.451Z</time></trkpt><trkpt lat="40.2644157" lon="15.6659002"><ele>509.0</ele><time>2026-04-25T13:11:04.451Z</time></trkpt><trkpt lat="40.2646188" lon="15.6657015"><ele>509.0</ele><time>2026-04-25T13:11:05.455Z</time></trkpt><trkpt lat="40.2648261" lon="15.665519"><ele>508.0</ele><time>2026-04-25T13:11:06.448Z</time></trkpt><trkpt lat="40.2650377" lon="15.6653467"><ele>507.0</ele><time>2026-04-25T13:11:07.457Z</time></trkpt><trkpt lat="40.2652551" lon="15.665179"><ele>506.0</ele><time>2026-04-25T13:11:08.45Z</time></trkpt><trkpt lat="40.265482" lon="15.6650115"><ele>505.0</ele><time>2026-04-25T13:11:09.45Z</time></trkpt><trkpt lat="40.2657057" lon="15.6648456"><ele>505.0</ele><time>2026-04-25T13:11:10.459Z</time></trkpt><trkpt lat="40.2659326" lon="15.6646793"><ele>505.0</ele><time>2026-04-25T13:11:11.453Z</time></trkpt><trkpt lat="40.2661579" lon="15.6645104"><ele>505.0</ele><time>2026-04-25T13:11:12.44Z</time></trkpt><trkpt lat="40.2663846" lon="15.6643399"><ele>505.0</ele><time>2026-04-25T13:11:13.447Z</time></trkpt><trkpt lat="40.2666069" lon="15.6641717"><ele>505.0</ele><time>2026-04-25T13:11:14.46Z</time></trkpt><trkpt lat="40.2668276" lon="15.6640084"><ele>505.0</ele><time>2026-04-25T13:11:15.444Z</time></trkpt><trkpt lat="40.2670483" lon="15.6638467"><ele>505.0</ele><time>2026-04-25T13:11:16.449Z</time></trkpt><trkpt lat="40.2672675" lon="15.6636856"><ele>505.0</ele><time>2026-04-25T13:11:17.454Z</time></trkpt><trkpt lat="40.267483" lon="15.6635242"><ele>503.0</ele><time>2026-04-25T13:11:18.448Z</time></trkpt><trkpt lat="40.2676987" lon="15.663365"><ele>501.0</ele><time>2026-04-25T13:11:19.447Z</time></trkpt><trkpt lat="40.2679143" lon="15.6632083"><ele>501.5</ele><time>2026-04-25T13:11:20.45Z</time></trkpt><trkpt lat="40.2681252" lon="15.6630499"><ele>502.0</ele><time>2026-04-25T13:11:21.445Z</time></trkpt><trkpt lat="40.2683326" lon="15.6628868"><ele>501.5</ele><time>2026-04-25T13:11:22.452Z</time></trkpt><trkpt lat="40.2685363" lon="15.6627182"><ele>501.0</ele><time>2026-04-25T13:11:23.449Z</time></trkpt><trkpt lat="40.2687314" lon="15.6625389"><ele>501.0</ele><time>2026-04-25T13:11:24.44Z</time></trkpt><trkpt lat="40.2689188" lon="15.6623428"><ele>501.0</ele><time>2026-04-25T13:11:25.447Z</time></trkpt><trkpt lat="40.2691009" lon="15.6621315"><ele>500.5</ele><time>2026-04-25T13:11:26.45Z</time></trkpt><trkpt lat="40.2692775" lon="15.6619095"><ele>500.0</ele><time>2026-04-25T13:11:27.454Z</time></trkpt><trkpt lat="40.2694501" lon="15.6616766"><ele>500.0</ele><time>2026-04-25T13:11:28.442Z</time></trkpt><trkpt lat="40.2696202" lon="15.6614493"><ele>500.0</ele><time>2026-04-25T13:11:29.457Z</time></trkpt><trkpt lat="40.2697664" lon="15.6612269"><ele>501.0</ele><time>2026-04-25T13:11:30.441Z</time></trkpt><trkpt lat="40.269911" lon="15.6610125"><ele>502.0</ele><time>2026-04-25T13:11:31.449Z</time></trkpt><trkpt lat="40.270055" lon="15.6608029"><ele>503.0</ele><time>2026-04-25T13:11:32.442Z</time></trkpt><trkpt lat="40.2702015" lon="15.6605953"><ele>503.0</ele><time>2026-04-25T13:11:33.45Z</time></trkpt><trkpt lat="40.2703474" lon="15.6603964"><ele>503.0</ele><time>2026-04-25T13:11:34.452Z</time></trkpt><trkpt lat="40.2704954" lon="15.6602112"><ele>503.0</ele><time>2026-04-25T13:11:35.454Z</time></trkpt><trkpt lat="40.2706504" lon="15.6600367"><ele>504.0</ele><time>2026-04-25T13:11:36.449Z</time></trkpt><trkpt lat="40.2708103" lon="15.6598727"><ele>505.0</ele><time>2026-04-25T13:11:37.457Z</time></trkpt><trkpt lat="40.2709806" lon="15.6597173"><ele>506.0</ele><time>2026-04-25T13:11:38.45Z</time></trkpt><trkpt lat="40.2711597" lon="15.6595715"><ele>505.66666666666663</ele><time>2026-04-25T13:11:39.453Z</time></trkpt><trkpt lat="40.2713519" lon="15.659435"><ele>505.33333333333337</ele><time>2026-04-25T13:11:40.451Z</time></trkpt><trkpt lat="40.271555" lon="15.6593114"><ele>505.0</ele><time>2026-04-25T13:11:41.448Z</time></trkpt><trkpt lat="40.271768" lon="15.6591941"><ele>505.0</ele><time>2026-04-25T13:11:42.451Z</time></trkpt><trkpt lat="40.2719882" lon="15.6590802"><ele>505.0</ele><time>2026-04-25T13:11:43.456Z</time></trkpt><trkpt lat="40.2722152" lon="15.6589653"><ele>506.0</ele><time>2026-04-25T13:11:44.45Z</time></trkpt><trkpt lat="40.2724483" lon="15.6588489"><ele>507.0</ele><time>2026-04-25T13:11:45.444Z</time></trkpt><trkpt lat="40.2726871" lon="15.6587318"><ele>507.0</ele><time>2026-04-25T13:11:46.45Z</time></trkpt><trkpt lat="40.2729293" lon="15.6586132"><ele>507.0</ele><time>2026-04-25T13:11:47.445Z</time></trkpt><trkpt lat="40.2731749" lon="15.65849"><ele>506.5</ele><time>2026-04-25T13:11:48.45Z</time></trkpt><trkpt lat="40.2734188" lon="15.6583661"><ele>506.0</ele><time>2026-04-25T13:11:49.441Z</time></trkpt><trkpt lat="40.2736596" lon="15.6582427"><ele>506.0</ele><time>2026-04-25T13:11:50.464Z</time></trkpt><trkpt lat="40.2738996" lon="15.6581189"><ele>506.0</ele><time>2026-04-25T13:11:51.452Z</time></trkpt><trkpt lat="40.2741375" lon="15.657999"><ele>504.0</ele><time>2026-04-25T13:11:52.458Z</time></trkpt><trkpt lat="40.2743738" lon="15.6578794"><ele>502.0</ele><time>2026-04-25T13:11:53.447Z</time></trkpt><trkpt lat="40.2746075" lon="15.6577589"><ele>501.0</ele><time>2026-04-25T13:11:54.445Z</time></trkpt><trkpt lat="40.2748408" lon="15.6576402"><ele>500.0</ele><time>2026-04-25T13:11:55.447Z</time></trkpt><trkpt lat="40.2750729" lon="15.6575247"><ele>500.0</ele><time>2026-04-25T13:11:56.45Z</time></trkpt><trkpt lat="40.2753042" lon="15.6574104"><ele>500.0</ele><time>2026-04-25T13:11:57.446Z</time></trkpt><trkpt lat="40.2755336" lon="15.6572939"><ele>500.5</ele><time>2026-04-25T13:11:58.451Z</time></trkpt><trkpt lat="40.275763" lon="15.657178"><ele>501.0</ele><time>2026-04-25T13:11:59.454Z</time></trkpt><trkpt lat="40.2759906" lon="15.6570636"><ele>502.0</ele><time>2026-04-25T13:12:00.462Z</time></trkpt><trkpt lat="40.2762159" lon="15.656951"><ele>503.0</ele><time>2026-04-25T13:12:01.456Z</time></trkpt><trkpt lat="40.2764397" lon="15.6568398"><ele>503.0</ele><time>2026-04-25T13:12:02.45Z</time></trkpt><trkpt lat="40.2766628" lon="15.6567308"><ele>503.0</ele><time>2026-04-25T13:12:03.447Z</time></trkpt><trkpt lat="40.2768838" lon="15.6566226"><ele>503.0</ele><time>2026-04-25T13:12:04.46Z</time></trkpt><trkpt lat="40.2771032" lon="15.6565154"><ele>503.0</ele><time>2026-04-25T13:12:05.454Z</time></trkpt><trkpt lat="40.2773213" lon="15.6564073"><ele>504.0</ele><time>2026-04-25T13:12:06.461Z</time></trkpt><trkpt lat="40.2775376" lon="15.656298"><ele>505.0</ele><time>2026-04-25T13:12:07.456Z</time></trkpt><trkpt lat="40.2777526" lon="15.6561882"><ele>505.5</ele><time>2026-04-25T13:12:08.453Z</time></trkpt><trkpt lat="40.2779665" lon="15.6560798"><ele>506.0</ele><time>2026-04-25T13:12:09.45Z</time></trkpt><trkpt lat="40.2781808" lon="15.6559718"><ele>506.5</ele><time>2026-04-25T13:12:10.45Z</time></trkpt><trkpt lat="40.278394" lon="15.6558639"><ele>507.0</ele><time>2026-04-25T13:12:11.454Z</time></trkpt><trkpt lat="40.2786052" lon="15.6557556"><ele>507.0</ele><time>2026-04-25T13:12:12.453Z</time></trkpt><trkpt lat="40.2788141" lon="15.6556514"><ele>507.0</ele><time>2026-04-25T13:12:13.46Z</time></trkpt><trkpt lat="40.279019" lon="15.6555513"><ele>507.0</ele><time>2026-04-25T13:12:14.451Z</time></trkpt><trkpt lat="40.2792187" lon="15.6554545"><ele>506.0</ele><time>2026-04-25T13:12:15.446Z</time></trkpt><trkpt lat="40.2794108" lon="15.6553597"><ele>505.0</ele><time>2026-04-25T13:12:16.453Z</time></trkpt><trkpt lat="40.2795962" lon="15.6552676"><ele>504.0</ele><time>2026-04-25T13:12:17.455Z</time></trkpt><trkpt lat="40.2797768" lon="15.6551759"><ele>503.0</ele><time>2026-04-25T13:12:18.452Z</time></trkpt><trkpt lat="40.2799542" lon="15.6550848"><ele>502.0</ele><time>2026-04-25T13:12:19.456Z</time></trkpt><trkpt lat="40.280129" lon="15.6549961"><ele>501.0</ele><time>2026-04-25T13:12:20.447Z</time></trkpt><trkpt lat="40.2802999" lon="15.6549107"><ele>501.0</ele><time>2026-04-25T13:12:21.456Z</time></trkpt><trkpt lat="40.2804677" lon="15.6548277"><ele>501.0</ele><time>2026-04-25T13:12:22.439Z</time></trkpt><trkpt lat="40.2806341" lon="15.6547448"><ele>501.0</ele><time>2026-04-25T13:12:23.446Z</time></trkpt><trkpt lat="40.2807986" lon="15.6546611"><ele>499.66666666666663</ele><time>2026-04-25T13:12:24.445Z</time></trkpt><trkpt lat="40.2809611" lon="15.6545754"><ele>498.3333333333333</ele><time>2026-04-25T13:12:25.446Z</time></trkpt><trkpt lat="40.2811218" lon="15.654492"><ele>497.0</ele><time>2026-04-25T13:12:26.448Z</time></trkpt><trkpt lat="40.281281" lon="15.6544112"><ele>495.66666666666663</ele><time>2026-04-25T13:12:27.45Z</time></trkpt><trkpt lat="40.2814397" lon="15.6543318"><ele>494.33333333333337</ele><time>2026-04-25T13:12:28.445Z</time></trkpt><trkpt lat="40.2815996" lon="15.6542552"><ele>493.0</ele><time>2026-04-25T13:12:29.449Z</time></trkpt><trkpt lat="40.2817614" lon="15.6541816"><ele>493.0</ele><time>2026-04-25T13:12:30.449Z</time></trkpt><trkpt lat="40.2819268" lon="15.6541096"><ele>493.0</ele><time>2026-04-25T13:12:31.456Z</time></trkpt><trkpt lat="40.2820958" lon="15.6540405"><ele>493.0</ele><time>2026-04-25T13:12:32.452Z</time></trkpt><trkpt lat="40.2822684" lon="15.653977"><ele>493.0</ele><time>2026-04-25T13:12:33.455Z</time></trkpt><trkpt lat="40.2824444" lon="15.6539167"><ele>493.0</ele><time>2026-04-25T13:12:34.45Z</time></trkpt><trkpt lat="40.2826235" lon="15.6538595"><ele>493.0</ele><time>2026-04-25T13:12:35.452Z</time></trkpt><trkpt lat="40.2828059" lon="15.6538076"><ele>493.0</ele><time>2026-04-25T13:12:36.454Z</time></trkpt><trkpt lat="40.2829922" lon="15.6537587"><ele>493.0</ele><time>2026-04-25T13:12:37.453Z</time></trkpt><trkpt lat="40.2831809" lon="15.6537129"><ele>493.0</ele><time>2026-04-25T13:12:38.45Z</time></trkpt><trkpt lat="40.283372" lon="15.6536705"><ele>492.33333333333337</ele><time>2026-04-25T13:12:39.458Z</time></trkpt><trkpt lat="40.2835667" lon="15.6536304"><ele>491.66666666666663</ele><time>2026-04-25T13:12:40.449Z</time></trkpt><trkpt lat="40.2837649" lon="15.6535905"><ele>491.0</ele><time>2026-04-25T13:12:41.461Z</time></trkpt><trkpt lat="40.2839688" lon="15.6535508"><ele>489.66666666666663</ele><time>2026-04-25T13:12:42.452Z</time></trkpt><trkpt lat="40.2841779" lon="15.6535109"><ele>488.33333333333337</ele><time>2026-04-25T13:12:43.458Z</time></trkpt><trkpt lat="40.2843891" lon="15.6534707"><ele>487.0</ele><time>2026-04-25T13:12:44.45Z</time></trkpt><trkpt lat="40.2846014" lon="15.6534293"><ele>486.33333333333337</ele><time>2026-04-25T13:12:45.448Z</time></trkpt><trkpt lat="40.2848138" lon="15.6533865"><ele>485.66666666666663</ele><time>2026-04-25T13:12:46.449Z</time></trkpt><trkpt lat="40.2850261" lon="15.6533434"><ele>485.0</ele><time>2026-04-25T13:12:47.448Z</time></trkpt><trkpt lat="40.2852378" lon="15.6533016"><ele>485.0</ele><time>2026-04-25T13:12:48.441Z</time></trkpt><trkpt lat="40.2854466" lon="15.653262"><ele>485.0</ele><time>2026-04-25T13:12:49.448Z</time></trkpt><trkpt lat="40.285651" lon="15.6532228"><ele>485.0</ele><time>2026-04-25T13:12:50.451Z</time></trkpt><trkpt lat="40.2858516" lon="15.6531833"><ele>484.66666666666663</ele><time>2026-04-25T13:12:51.454Z</time></trkpt><trkpt lat="40.2860483" lon="15.653144"><ele>484.33333333333337</ele><time>2026-04-25T13:12:52.449Z</time></trkpt><trkpt lat="40.28624" lon="15.6531102"><ele>484.0</ele><time>2026-04-25T13:12:53.454Z</time></trkpt><trkpt lat="40.2864274" lon="15.6530727"><ele>484.0</ele><time>2026-04-25T13:12:54.449Z</time></trkpt><trkpt lat="40.2866137" lon="15.653038"><ele>484.0</ele><time>2026-04-25T13:12:55.45Z</time></trkpt><trkpt lat="40.2867979" lon="15.6529993"><ele>484.0</ele><time>2026-04-25T13:12:56.449Z</time></trkpt><trkpt lat="40.2869777" lon="15.6529626"><ele>484.0</ele><time>2026-04-25T13:12:57.448Z</time></trkpt><trkpt lat="40.2871518" lon="15.6529197"><ele>484.0</ele><time>2026-04-25T13:12:58.45Z</time></trkpt><trkpt lat="40.2873243" lon="15.6528723"><ele>484.0</ele><time>2026-04-25T13:12:59.45Z</time></trkpt><trkpt lat="40.287492" lon="15.6528141"><ele>483.0</ele><time>2026-04-25T13:13:00.445Z</time></trkpt><trkpt lat="40.2876612" lon="15.652748"><ele>482.0</ele><time>2026-04-25T13:13:01.449Z</time></trkpt><trkpt lat="40.287828" lon="15.6526746"><ele>481.0</ele><time>2026-04-25T13:13:02.444Z</time></trkpt><trkpt lat="40.2879933" lon="15.652596"><ele>481.6666666666667</ele><time>2026-04-25T13:13:03.443Z</time></trkpt><trkpt lat="40.2881578" lon="15.6525131"><ele>482.33333333333337</ele><time>2026-04-25T13:13:04.446Z</time></trkpt><trkpt lat="40.2883191" lon="15.6524284"><ele>483.0</ele><time>2026-04-25T13:13:05.443Z</time></trkpt><trkpt lat="40.2884775" lon="15.6523395"><ele>483.0</ele><time>2026-04-25T13:13:06.444Z</time></trkpt><trkpt lat="40.2886368" lon="15.6522501"><ele>483.0</ele><time>2026-04-25T13:13:07.452Z</time></trkpt><trkpt lat="40.2887929" lon="15.6521595"><ele>483.0</ele><time>2026-04-25T13:13:08.444Z</time></trkpt><trkpt lat="40.2889477" lon="15.6520704"><ele>482.66666666666663</ele><time>2026-04-25T13:13:09.444Z</time></trkpt><trkpt lat="40.2891021" lon="15.651981"><ele>482.3333333333333</ele><time>2026-04-25T13:13:10.447Z</time></trkpt><trkpt lat="40.2892545" lon="15.6518922"><ele>482.0</ele><time>2026-04-25T13:13:11.444Z</time></trkpt><trkpt lat="40.2894066" lon="15.6518067"><ele>482.0</ele><time>2026-04-25T13:13:12.447Z</time></trkpt><trkpt lat="40.2895591" lon="15.6517213"><ele>482.0</ele><time>2026-04-25T13:13:13.45Z</time></trkpt><trkpt lat="40.2897114" lon="15.6516338"><ele>482.0</ele><time>2026-04-25T13:13:14.445Z</time></trkpt><trkpt lat="40.2898571" lon="15.6515445"><ele>482.0</ele><time>2026-04-25T13:13:15.452Z</time></trkpt><trkpt lat="40.2900042" lon="15.6514589"><ele>482.0</ele><time>2026-04-25T13:13:16.441Z</time></trkpt><trkpt lat="40.2901491" lon="15.6513788"><ele>482.0</ele><time>2026-04-25T13:13:17.448Z</time></trkpt><trkpt lat="40.2902927" lon="15.6513001"><ele>482.0</ele><time>2026-04-25T13:13:18.442Z</time></trkpt><trkpt lat="40.2904343" lon="15.6512264"><ele>482.0</ele><time>2026-04-25T13:13:19.445Z</time></trkpt><trkpt lat="40.2905719" lon="15.6511516"><ele>482.0</ele><time>2026-04-25T13:13:20.446Z</time></trkpt><trkpt lat="40.2907049" lon="15.6510766"><ele>482.0</ele><time>2026-04-25T13:13:21.45Z</time></trkpt><trkpt lat="40.2908394" lon="15.6510054"><ele>481.75</ele><time>2026-04-25T13:13:22.444Z</time></trkpt><trkpt lat="40.2909752" lon="15.6509337"><ele>481.5</ele><time>2026-04-25T13:13:23.447Z</time></trkpt><trkpt lat="40.2911147" lon="15.6508614"><ele>481.25</ele><time>2026-04-25T13:13:24.441Z</time></trkpt><trkpt lat="40.291257" lon="15.6507913"><ele>481.0</ele><time>2026-04-25T13:13:25.444Z</time></trkpt><trkpt lat="40.2914032" lon="15.6507229"><ele>481.0</ele><time>2026-04-25T13:13:26.442Z</time></trkpt><trkpt lat="40.2915514" lon="15.6506531"><ele>481.0</ele><time>2026-04-25T13:13:27.446Z</time></trkpt><trkpt lat="40.2917061" lon="15.6505811"><ele>481.0</ele><time>2026-04-25T13:13:28.443Z</time></trkpt><trkpt lat="40.2918656" lon="15.6505092"><ele>481.0</ele><time>2026-04-25T13:13:29.447Z</time></trkpt><trkpt lat="40.2920253" lon="15.6504369"><ele>481.0</ele><time>2026-04-25T13:13:30.445Z</time></trkpt><trkpt lat="40.2921894" lon="15.6503609"><ele>481.0</ele><time>2026-04-25T13:13:31.448Z</time></trkpt><trkpt lat="40.2923559" lon="15.6502822"><ele>481.33333333333337</ele><time>2026-04-25T13:13:32.443Z</time></trkpt><trkpt lat="40.2925238" lon="15.6502031"><ele>481.66666666666663</ele><time>2026-04-25T13:13:33.445Z</time></trkpt><trkpt lat="40.2926918" lon="15.6501246"><ele>482.0</ele><time>2026-04-25T13:13:34.443Z</time></trkpt><trkpt lat="40.292861" lon="15.6500426"><ele>482.0</ele><time>2026-04-25T13:13:35.456Z</time></trkpt><trkpt lat="40.2930308" lon="15.6499613"><ele>482.0</ele><time>2026-04-25T13:13:36.442Z</time></trkpt><trkpt lat="40.2932019" lon="15.6498824"><ele>482.0</ele><time>2026-04-25T13:13:37.443Z</time></trkpt><trkpt lat="40.2933719" lon="15.6498041"><ele>481.66666666666663</ele><time>2026-04-25T13:13:38.445Z</time></trkpt><trkpt lat="40.2935449" lon="15.6497281"><ele>481.33333333333337</ele><time>2026-04-25T13:13:39.456Z</time></trkpt><trkpt lat="40.2937169" lon="15.6496513"><ele>481.0</ele><time>2026-04-25T13:13:40.45Z</time></trkpt><trkpt lat="40.2938873" lon="15.6495719"><ele>480.6666666666667</ele><time>2026-04-25T13:13:41.452Z</time></trkpt><trkpt lat="40.2940588" lon="15.6494947"><ele>480.33333333333337</ele><time>2026-04-25T13:13:42.445Z</time></trkpt><trkpt lat="40.2942284" lon="15.6494182"><ele>480.0</ele><time>2026-04-25T13:13:43.447Z</time></trkpt><trkpt lat="40.2943975" lon="15.6493414"><ele>480.0</ele><time>2026-04-25T13:13:44.448Z</time></trkpt><trkpt lat="40.2945666" lon="15.6492651"><ele>480.0</ele><time>2026-04-25T13:13:45.456Z</time></trkpt><trkpt lat="40.2947342" lon="15.6491861"><ele>480.0</ele><time>2026-04-25T13:13:46.445Z</time></trkpt><trkpt lat="40.2949012" lon="15.6491048"><ele>479.66666666666663</ele><time>2026-04-25T13:13:47.45Z</time></trkpt><trkpt lat="40.2950678" lon="15.6490231"><ele>479.3333333333333</ele><time>2026-04-25T13:13:48.455Z</time></trkpt><trkpt lat="40.2952327" lon="15.6489395"><ele>479.0</ele><time>2026-04-25T13:13:49.463Z</time></trkpt><trkpt lat="40.295395" lon="15.648851"><ele>479.0</ele><time>2026-04-25T13:13:50.453Z</time></trkpt><trkpt lat="40.2955535" lon="15.648758"><ele>479.0</ele><time>2026-04-25T13:13:51.465Z</time></trkpt><trkpt lat="40.2957059" lon="15.6486609"><ele>479.0</ele><time>2026-04-25T13:13:52.444Z</time></trkpt><trkpt lat="40.2958527" lon="15.6485594"><ele>479.0</ele><time>2026-04-25T13:13:53.449Z</time></trkpt><trkpt lat="40.2959931" lon="15.6484526"><ele>479.0</ele><time>2026-04-25T13:13:54.444Z</time></trkpt><trkpt lat="40.2961287" lon="15.6483438"><ele>479.0</ele><time>2026-04-25T13:13:55.458Z</time></trkpt><trkpt lat="40.2962596" lon="15.6482314"><ele>479.0</ele><time>2026-04-25T13:13:56.445Z</time></trkpt><trkpt lat="40.2963869" lon="15.6481136"><ele>479.0</ele><time>2026-04-25T13:13:57.452Z</time></trkpt><trkpt lat="40.2965102" lon="15.6479905"><ele>479.0</ele><time>2026-04-25T13:13:58.448Z</time></trkpt><trkpt lat="40.2966346" lon="15.6478709"><ele>479.0</ele><time>2026-04-25T13:13:59.45Z</time></trkpt><trkpt lat="40.2968686" lon="15.6476119"><ele>479.0</ele><time>2026-04-25T13:14:01.445Z</time></trkpt><trkpt lat="40.2969822" lon="15.6474895"><ele>479.0</ele><time>2026-04-25T13:14:02.45Z</time></trkpt><trkpt lat="40.2970961" lon="15.6473492"><ele>479.0</ele><time>2026-04-25T13:14:03.448Z</time></trkpt><trkpt lat="40.2972036" lon="15.6472037"><ele>479.0</ele><time>2026-04-25T13:14:04.442Z</time></trkpt><trkpt lat="40.2973341" lon="15.6470721"><ele>478.66666666666663</ele><time>2026-04-25T13:14:05.446Z</time></trkpt><trkpt lat="40.2974505" lon="15.6469312"><ele>478.33333333333337</ele><time>2026-04-25T13:14:06.44Z</time></trkpt><trkpt lat="40.2975659" lon="15.646787"><ele>478.0</ele><time>2026-04-25T13:14:07.466Z</time></trkpt><trkpt lat="40.2976873" lon="15.6466434"><ele>478.0</ele><time>2026-04-25T13:14:08.452Z</time></trkpt><trkpt lat="40.2978085" lon="15.6465063"><ele>478.0</ele><time>2026-04-25T13:14:09.46Z</time></trkpt><trkpt lat="40.2979306" lon="15.6463716"><ele>478.0</ele><time>2026-04-25T13:14:10.448Z</time></trkpt><trkpt lat="40.2980529" lon="15.6462413"><ele>477.33333333333337</ele><time>2026-04-25T13:14:11.46Z</time></trkpt><trkpt lat="40.2981733" lon="15.6461061"><ele>476.66666666666663</ele><time>2026-04-25T13:14:12.443Z</time></trkpt><trkpt lat="40.2982965" lon="15.6459845"><ele>476.0</ele><time>2026-04-25T13:14:13.456Z</time></trkpt><trkpt lat="40.2984184" lon="15.6458617"><ele>476.0</ele><time>2026-04-25T13:14:14.443Z</time></trkpt><trkpt lat="40.2985419" lon="15.645734"><ele>476.0</ele><time>2026-04-25T13:14:15.445Z</time></trkpt><trkpt lat="40.2986601" lon="15.645611"><ele>476.0</ele><time>2026-04-25T13:14:16.452Z</time></trkpt><trkpt lat="40.2987745" lon="15.6454843"><ele>476.0</ele><time>2026-04-25T13:14:17.448Z</time></trkpt><trkpt lat="40.2988843" lon="15.6453708"><ele>476.0</ele><time>2026-04-25T13:14:18.456Z</time></trkpt><trkpt lat="40.2989859" lon="15.6452777"><ele>476.0</ele><time>2026-04-25T13:14:19.45Z</time></trkpt><trkpt lat="40.299081" lon="15.645231"><ele>476.0</ele><time>2026-04-25T13:14:20.47Z</time></trkpt><trkpt lat="40.2991713" lon="15.6452339"><ele>475.8333333333333</ele><time>2026-04-25T13:14:21.449Z</time></trkpt><trkpt lat="40.2992521" lon="15.6452795"><ele>475.66666666666663</ele><time>2026-04-25T13:14:22.444Z</time></trkpt><trkpt lat="40.2993138" lon="15.6453613"><ele>475.5</ele><time>2026-04-25T13:14:23.454Z</time></trkpt><trkpt lat="40.2993466" lon="15.6454584"><ele>475.33333333333337</ele><time>2026-04-25T13:14:24.442Z</time></trkpt><trkpt lat="40.2993489" lon="15.6455615"><ele>475.1666666666667</ele><time>2026-04-25T13:14:25.441Z</time></trkpt><trkpt lat="40.2993306" lon="15.6456534"><ele>475.0</ele><time>2026-04-25T13:14:26.451Z</time></trkpt><trkpt lat="40.2992929" lon="15.6457391"><ele>475.0</ele><time>2026-04-25T13:14:27.454Z</time></trkpt><trkpt lat="40.2992344" lon="15.6458232"><ele>475.0</ele><time>2026-04-25T13:14:28.454Z</time></trkpt><trkpt lat="40.2991559" lon="15.6459107"><ele>475.0</ele><time>2026-04-25T13:14:29.47Z</time></trkpt><trkpt lat="40.2990653" lon="15.6460139"><ele>475.0</ele><time>2026-04-25T13:14:30.454Z</time></trkpt><trkpt lat="40.2989661" lon="15.6461348"><ele>475.0</ele><time>2026-04-25T13:14:31.44Z</time></trkpt><trkpt lat="40.2988579" lon="15.6462734"><ele>475.6666666666667</ele><time>2026-04-25T13:14:32.445Z</time></trkpt><trkpt lat="40.29875" lon="15.6464396"><ele>476.33333333333337</ele><time>2026-04-25T13:14:33.455Z</time></trkpt><trkpt lat="40.2986549" lon="15.6466399"><ele>477.0</ele><time>2026-04-25T13:14:34.449Z</time></trkpt><trkpt lat="40.2985767" lon="15.6468722"><ele>477.0</ele><time>2026-04-25T13:14:35.452Z</time></trkpt><trkpt lat="40.298514" lon="15.6471184"><ele>477.0</ele><time>2026-04-25T13:14:36.443Z</time></trkpt><trkpt lat="40.29845" lon="15.6473753"><ele>477.0</ele><time>2026-04-25T13:14:37.457Z</time></trkpt><trkpt lat="40.2983977" lon="15.6476274"><ele>477.0</ele><time>2026-04-25T13:14:38.45Z</time></trkpt><trkpt lat="40.2983377" lon="15.6478788"><ele>477.0</ele><time>2026-04-25T13:14:39.45Z</time></trkpt><trkpt lat="40.2982862" lon="15.6480911"><ele>477.0</ele><time>2026-04-25T13:14:40.448Z</time></trkpt><trkpt lat="40.298225" lon="15.6482898"><ele>477.0</ele><time>2026-04-25T13:14:41.459Z</time></trkpt><trkpt lat="40.2981458" lon="15.6484563"><ele>477.0</ele><time>2026-04-25T13:14:42.455Z</time></trkpt><trkpt lat="40.2980424" lon="15.6485609"><ele>477.0</ele><time>2026-04-25T13:14:43.446Z</time></trkpt><trkpt lat="40.2979287" lon="15.6486118"><ele>477.0</ele><time>2026-04-25T13:14:44.454Z</time></trkpt><trkpt lat="40.2978098" lon="15.6486134"><ele>477.25</ele><time>2026-04-25T13:14:45.457Z</time></trkpt><trkpt lat="40.2976951" lon="15.6485673"><ele>477.5</ele><time>2026-04-25T13:14:46.459Z</time></trkpt><trkpt lat="40.2975985" lon="15.6484733"><ele>477.75</ele><time>2026-04-25T13:14:47.451Z</time></trkpt><trkpt lat="40.297536" lon="15.6483499"><ele>478.0</ele><time>2026-04-25T13:14:48.453Z</time></trkpt><trkpt lat="40.2975076" lon="15.6482099"><ele>478.0</ele><time>2026-04-25T13:14:49.454Z</time></trkpt><trkpt lat="40.2975087" lon="15.6480616"><ele>477.99999999999994</ele><time>2026-04-25T13:14:50.451Z</time></trkpt><trkpt lat="40.2975424" lon="15.6479214"><ele>477.99999999999994</ele><time>2026-04-25T13:14:51.443Z</time></trkpt><trkpt lat="40.2976061" lon="15.6478137"><ele>478.0</ele><time>2026-04-25T13:14:52.453Z</time></trkpt><trkpt lat="40.2976986" lon="15.6477385"><ele>478.0</ele><time>2026-04-25T13:14:53.455Z</time></trkpt><trkpt lat="40.2978189" lon="15.6476906"><ele>478.33333333333337</ele><time>2026-04-25T13:14:54.458Z</time></trkpt><trkpt lat="40.2979611" lon="15.6476534"><ele>478.66666666666663</ele><time>2026-04-25T13:14:55.45Z</time></trkpt><trkpt lat="40.2981241" lon="15.6476149"><ele>479.0</ele><time>2026-04-25T13:14:56.45Z</time></trkpt><trkpt lat="40.2983107" lon="15.6475683"><ele>478.3333333333333</ele><time>2026-04-25T13:14:57.457Z</time></trkpt><trkpt lat="40.2985163" lon="15.6475124"><ele>477.66666666666663</ele><time>2026-04-25T13:14:58.449Z</time></trkpt><trkpt lat="40.298737" lon="15.6474465"><ele>477.0</ele><time>2026-04-25T13:14:59.461Z</time></trkpt><trkpt lat="40.2989784" lon="15.6473677"><ele>476.0</ele><time>2026-04-25T13:15:00.453Z</time></trkpt><trkpt lat="40.299249" lon="15.6472763"><ele>475.0</ele><time>2026-04-25T13:15:01.446Z</time></trkpt><trkpt lat="40.2995503" lon="15.647171"><ele>476.0</ele><time>2026-04-25T13:15:02.447Z</time></trkpt><trkpt lat="40.2998829" lon="15.6470536"><ele>477.0</ele><time>2026-04-25T13:15:03.441Z</time></trkpt><trkpt lat="40.3002352" lon="15.6469268"><ele>477.5</ele><time>2026-04-25T13:15:04.443Z</time></trkpt><trkpt lat="40.3005904" lon="15.6467989"><ele>478.0</ele><time>2026-04-25T13:15:05.455Z</time></trkpt><trkpt lat="40.3009363" lon="15.6466731"><ele>478.0</ele><time>2026-04-25T13:15:06.447Z</time></trkpt><trkpt lat="40.3012661" lon="15.646554"><ele>478.0</ele><time>2026-04-25T13:15:07.449Z</time></trkpt><trkpt lat="40.3015748" lon="15.6464436"><ele>478.0</ele><time>2026-04-25T13:15:08.449Z</time></trkpt><trkpt lat="40.3018682" lon="15.6463396"><ele>478.0</ele><time>2026-04-25T13:15:09.444Z</time></trkpt><trkpt lat="40.3021484" lon="15.6462391"><ele>477.0</ele><time>2026-04-25T13:15:10.458Z</time></trkpt><trkpt lat="40.3024245" lon="15.6461393"><ele>476.0</ele><time>2026-04-25T13:15:11.454Z</time></trkpt><trkpt lat="40.3027051" lon="15.6460383"><ele>476.0</ele><time>2026-04-25T13:15:12.446Z</time></trkpt><trkpt lat="40.3029915" lon="15.6459338"><ele>476.0</ele><time>2026-04-25T13:15:13.452Z</time></trkpt><trkpt lat="40.3032848" lon="15.6458267"><ele>474.5</ele><time>2026-04-25T13:15:14.46Z</time></trkpt><trkpt lat="40.3035837" lon="15.6457155"><ele>473.0</ele><time>2026-04-25T13:15:15.442Z</time></trkpt><trkpt lat="40.303887" lon="15.6456042"><ele>473.0</ele><time>2026-04-25T13:15:16.454Z</time></trkpt><trkpt lat="40.304193" lon="15.6454936"><ele>473.0</ele><time>2026-04-25T13:15:17.451Z</time></trkpt><trkpt lat="40.3045005" lon="15.6453829"><ele>474.0</ele><time>2026-04-25T13:15:18.453Z</time></trkpt><trkpt lat="40.3048091" lon="15.6452672"><ele>475.0</ele><time>2026-04-25T13:15:19.449Z</time></trkpt><trkpt lat="40.3051153" lon="15.6451516"><ele>475.0</ele><time>2026-04-25T13:15:20.455Z</time></trkpt><trkpt lat="40.3054156" lon="15.6450338"><ele>475.0</ele><time>2026-04-25T13:15:21.449Z</time></trkpt><trkpt lat="40.3057095" lon="15.6449234"><ele>473.0</ele><time>2026-04-25T13:15:22.45Z</time></trkpt><trkpt lat="40.3060054" lon="15.6448112"><ele>471.0</ele><time>2026-04-25T13:15:23.453Z</time></trkpt><trkpt lat="40.3063015" lon="15.6446953"><ele>472.0</ele><time>2026-04-25T13:15:24.454Z</time></trkpt><trkpt lat="40.306596" lon="15.6445807"><ele>473.0</ele><time>2026-04-25T13:15:25.46Z</time></trkpt><trkpt lat="40.3068926" lon="15.644462"><ele>473.0</ele><time>2026-04-25T13:15:26.449Z</time></trkpt><trkpt lat="40.3071898" lon="15.6443409"><ele>473.0</ele><time>2026-04-25T13:15:27.454Z</time></trkpt><trkpt lat="40.3074849" lon="15.6442173"><ele>473.5</ele><time>2026-04-25T13:15:28.453Z</time></trkpt><trkpt lat="40.3077808" lon="15.6440969"><ele>474.0</ele><time>2026-04-25T13:15:29.446Z</time></trkpt><trkpt lat="40.308078" lon="15.6439746"><ele>476.0</ele><time>2026-04-25T13:15:30.448Z</time></trkpt><trkpt lat="40.3083712" lon="15.643849"><ele>478.0</ele><time>2026-04-25T13:15:31.453Z</time></trkpt><trkpt lat="40.3086665" lon="15.6437235"><ele>477.5</ele><time>2026-04-25T13:15:32.448Z</time></trkpt><trkpt lat="40.3089604" lon="15.6435976"><ele>477.0</ele><time>2026-04-25T13:15:33.45Z</time></trkpt><trkpt lat="40.3092558" lon="15.6434708"><ele>477.0</ele><time>2026-04-25T13:15:34.45Z</time></trkpt><trkpt lat="40.3095498" lon="15.6433405"><ele>477.0</ele><time>2026-04-25T13:15:35.451Z</time></trkpt><trkpt lat="40.3098431" lon="15.6432084"><ele>478.5</ele><time>2026-04-25T13:15:36.442Z</time></trkpt><trkpt lat="40.3101356" lon="15.6430741"><ele>480.0</ele><time>2026-04-25T13:15:37.442Z</time></trkpt><trkpt lat="40.3104292" lon="15.6429395"><ele>480.5</ele><time>2026-04-25T13:15:38.459Z</time></trkpt><trkpt lat="40.3107225" lon="15.6428077"><ele>481.0</ele><time>2026-04-25T13:15:39.455Z</time></trkpt><trkpt lat="40.3110166" lon="15.6426778"><ele>481.0</ele><time>2026-04-25T13:15:40.454Z</time></trkpt><trkpt lat="40.3113102" lon="15.6425486"><ele>481.0</ele><time>2026-04-25T13:15:41.443Z</time></trkpt><trkpt lat="40.3116047" lon="15.6424183"><ele>480.5</ele><time>2026-04-25T13:15:42.455Z</time></trkpt><trkpt lat="40.3118973" lon="15.6422862"><ele>480.0</ele><time>2026-04-25T13:15:43.45Z</time></trkpt><trkpt lat="40.3121896" lon="15.6421531"><ele>480.0</ele><time>2026-04-25T13:15:44.446Z</time></trkpt><trkpt lat="40.3124828" lon="15.642019"><ele>480.0</ele><time>2026-04-25T13:15:45.445Z</time></trkpt><trkpt lat="40.3127757" lon="15.6418855"><ele>480.0</ele><time>2026-04-25T13:15:46.465Z</time></trkpt><trkpt lat="40.3130688" lon="15.6417524"><ele>480.0</ele><time>2026-04-25T13:15:47.448Z</time></trkpt><trkpt lat="40.3133626" lon="15.6416209"><ele>480.5</ele><time>2026-04-25T13:15:48.461Z</time></trkpt><trkpt lat="40.313657" lon="15.6414905"><ele>481.0</ele><time>2026-04-25T13:15:49.467Z</time></trkpt><trkpt lat="40.3139516" lon="15.6413614"><ele>481.0</ele><time>2026-04-25T13:15:50.448Z</time></trkpt><trkpt lat="40.3142466" lon="15.6412323"><ele>481.0</ele><time>2026-04-25T13:15:51.473Z</time></trkpt><trkpt lat="40.3145397" lon="15.6411039"><ele>481.0</ele><time>2026-04-25T13:15:52.452Z</time></trkpt><trkpt lat="40.3148344" lon="15.6409742"><ele>481.0</ele><time>2026-04-25T13:15:53.454Z</time></trkpt><trkpt lat="40.3151292" lon="15.6408443"><ele>481.0</ele><time>2026-04-25T13:15:54.472Z</time></trkpt><trkpt lat="40.3154235" lon="15.6407159"><ele>481.0</ele><time>2026-04-25T13:15:55.46Z</time></trkpt><trkpt lat="40.3157192" lon="15.6405938"><ele>482.5</ele><time>2026-04-25T13:15:56.454Z</time></trkpt><trkpt lat="40.3160244" lon="15.6404714"><ele>484.0</ele><time>2026-04-25T13:15:57.46Z</time></trkpt><trkpt lat="40.3163199" lon="15.6403472"><ele>483.0</ele><time>2026-04-25T13:15:58.458Z</time></trkpt><trkpt lat="40.3166178" lon="15.6402273"><ele>482.0</ele><time>2026-04-25T13:15:59.463Z</time></trkpt><trkpt lat="40.316912" lon="15.6401056"><ele>482.0</ele><time>2026-04-25T13:16:00.463Z</time></trkpt><trkpt lat="40.3172067" lon="15.6399801"><ele>482.0</ele><time>2026-04-25T13:16:01.452Z</time></trkpt><trkpt lat="40.3175016" lon="15.6398512"><ele>483.0</ele><time>2026-04-25T13:16:02.465Z</time></trkpt><trkpt lat="40.3177964" lon="15.6397254"><ele>484.0</ele><time>2026-04-25T13:16:03.462Z</time></trkpt><trkpt lat="40.3180895" lon="15.6395966"><ele>484.5</ele><time>2026-04-25T13:16:04.445Z</time></trkpt><trkpt lat="40.3183852" lon="15.6394661"><ele>485.0</ele><time>2026-04-25T13:16:05.478Z</time></trkpt><trkpt lat="40.3186803" lon="15.6393359"><ele>485.0</ele><time>2026-04-25T13:16:06.465Z</time></trkpt><trkpt lat="40.3189739" lon="15.6392052"><ele>485.0</ele><time>2026-04-25T13:16:07.45Z</time></trkpt><trkpt lat="40.3192668" lon="15.6390802"><ele>485.0</ele><time>2026-04-25T13:16:08.455Z</time></trkpt><trkpt lat="40.3195554" lon="15.6389552"><ele>485.0</ele><time>2026-04-25T13:16:09.457Z</time></trkpt><trkpt lat="40.319857" lon="15.6388243"><ele>485.5</ele><time>2026-04-25T13:16:10.449Z</time></trkpt><trkpt lat="40.3201525" lon="15.6386971"><ele>486.0</ele><time>2026-04-25T13:16:11.47Z</time></trkpt><trkpt lat="40.3204474" lon="15.6385715"><ele>486.0</ele><time>2026-04-25T13:16:12.452Z</time></trkpt><trkpt lat="40.320743" lon="15.6384467"><ele>486.0</ele><time>2026-04-25T13:16:13.447Z</time></trkpt><trkpt lat="40.3210385" lon="15.6383175"><ele>486.0</ele><time>2026-04-25T13:16:14.452Z</time></trkpt><trkpt lat="40.3213327" lon="15.6381915"><ele>486.0</ele><time>2026-04-25T13:16:15.456Z</time></trkpt><trkpt lat="40.3216292" lon="15.6380653"><ele>485.5</ele><time>2026-04-25T13:16:16.446Z</time></trkpt><trkpt lat="40.3219241" lon="15.637933"><ele>485.0</ele><time>2026-04-25T13:16:17.45Z</time></trkpt><trkpt lat="40.322218" lon="15.637799"><ele>484.5</ele><time>2026-04-25T13:16:18.458Z</time></trkpt><trkpt lat="40.3225103" lon="15.6376642"><ele>484.0</ele><time>2026-04-25T13:16:19.446Z</time></trkpt><trkpt lat="40.3228032" lon="15.6375241"><ele>484.5</ele><time>2026-04-25T13:16:20.457Z</time></trkpt><trkpt lat="40.3230943" lon="15.6373793"><ele>485.0</ele><time>2026-04-25T13:16:21.451Z</time></trkpt><trkpt lat="40.3233857" lon="15.6372273"><ele>485.0</ele><time>2026-04-25T13:16:22.445Z</time></trkpt><trkpt lat="40.3236758" lon="15.6370694"><ele>485.0</ele><time>2026-04-25T13:16:23.451Z</time></trkpt><trkpt lat="40.323964" lon="15.6369036"><ele>486.0</ele><time>2026-04-25T13:16:24.445Z</time></trkpt><trkpt lat="40.324251" lon="15.6367322"><ele>487.0</ele><time>2026-04-25T13:16:25.448Z</time></trkpt><trkpt lat="40.3245364" lon="15.6365564"><ele>487.0</ele><time>2026-04-25T13:16:26.449Z</time></trkpt><trkpt lat="40.3248199" lon="15.6363781"><ele>487.0</ele><time>2026-04-25T13:16:27.464Z</time></trkpt><trkpt lat="40.3251036" lon="15.6361979"><ele>487.0</ele><time>2026-04-25T13:16:28.454Z</time></trkpt><trkpt lat="40.3253856" lon="15.636017"><ele>487.0</ele><time>2026-04-25T13:16:29.448Z</time></trkpt><trkpt lat="40.3256618" lon="15.6358355"><ele>486.0</ele><time>2026-04-25T13:16:30.452Z</time></trkpt><trkpt lat="40.3259476" lon="15.6356563"><ele>485.0</ele><time>2026-04-25T13:16:31.456Z</time></trkpt><trkpt lat="40.3262288" lon="15.6354734"><ele>484.5</ele><time>2026-04-25T13:16:32.441Z</time></trkpt><trkpt lat="40.3265175" lon="15.6352883"><ele>484.0</ele><time>2026-04-25T13:16:33.456Z</time></trkpt><trkpt lat="40.3268033" lon="15.635106"><ele>484.0</ele><time>2026-04-25T13:16:34.45Z</time></trkpt><trkpt lat="40.3270866" lon="15.6349247"><ele>484.0</ele><time>2026-04-25T13:16:35.465Z</time></trkpt><trkpt lat="40.3273682" lon="15.6347397"><ele>484.0</ele><time>2026-04-25T13:16:36.46Z</time></trkpt><trkpt lat="40.3276494" lon="15.6345585"><ele>484.0</ele><time>2026-04-25T13:16:37.444Z</time></trkpt><trkpt lat="40.3279299" lon="15.6343783"><ele>484.5</ele><time>2026-04-25T13:16:38.45Z</time></trkpt><trkpt lat="40.3282148" lon="15.6342017"><ele>485.0</ele><time>2026-04-25T13:16:39.457Z</time></trkpt><trkpt lat="40.3284998" lon="15.6340209"><ele>485.0</ele><time>2026-04-25T13:16:40.447Z</time></trkpt><trkpt lat="40.3287816" lon="15.6338392"><ele>485.0</ele><time>2026-04-25T13:16:41.449Z</time></trkpt><trkpt lat="40.3290647" lon="15.6336602"><ele>485.0</ele><time>2026-04-25T13:16:42.454Z</time></trkpt><trkpt lat="40.3293484" lon="15.6334775"><ele>485.0</ele><time>2026-04-25T13:16:43.449Z</time></trkpt><trkpt lat="40.3296319" lon="15.6332936"><ele>486.0</ele><time>2026-04-25T13:16:44.45Z</time></trkpt><trkpt lat="40.329914" lon="15.6331081"><ele>487.0</ele><time>2026-04-25T13:16:45.463Z</time></trkpt><trkpt lat="40.3301933" lon="15.6329198"><ele>485.5</ele><time>2026-04-25T13:16:46.454Z</time></trkpt><trkpt lat="40.3304694" lon="15.6327361"><ele>484.0</ele><time>2026-04-25T13:16:47.451Z</time></trkpt><trkpt lat="40.3307487" lon="15.6325357"><ele>484.0</ele><time>2026-04-25T13:16:48.452Z</time></trkpt><trkpt lat="40.3310213" lon="15.6323298"><ele>484.0</ele><time>2026-04-25T13:16:49.455Z</time></trkpt><trkpt lat="40.3312944" lon="15.6321192"><ele>483.5</ele><time>2026-04-25T13:16:50.45Z</time></trkpt><trkpt lat="40.331563" lon="15.6318954"><ele>483.0</ele><time>2026-04-25T13:16:51.462Z</time></trkpt><trkpt lat="40.331826" lon="15.6316691"><ele>483.0</ele><time>2026-04-25T13:16:52.449Z</time></trkpt><trkpt lat="40.3320856" lon="15.6314349"><ele>483.0</ele><time>2026-04-25T13:16:53.451Z</time></trkpt><trkpt lat="40.332344" lon="15.6311965"><ele>483.5</ele><time>2026-04-25T13:16:54.443Z</time></trkpt><trkpt lat="40.3325985" lon="15.6309517"><ele>484.0</ele><time>2026-04-25T13:16:55.461Z</time></trkpt><trkpt lat="40.3328524" lon="15.6307057"><ele>484.0</ele><time>2026-04-25T13:16:56.452Z</time></trkpt><trkpt lat="40.3331046" lon="15.6304515"><ele>484.0</ele><time>2026-04-25T13:16:57.448Z</time></trkpt><trkpt lat="40.3333528" lon="15.6302033"><ele>483.0</ele><time>2026-04-25T13:16:58.453Z</time></trkpt><trkpt lat="40.3336027" lon="15.6299509"><ele>482.0</ele><time>2026-04-25T13:16:59.449Z</time></trkpt><trkpt lat="40.3338525" lon="15.6296979"><ele>481.0</ele><time>2026-04-25T13:17:00.446Z</time></trkpt><trkpt lat="40.3341013" lon="15.6294451"><ele>480.0</ele><time>2026-04-25T13:17:01.448Z</time></trkpt><trkpt lat="40.3343483" lon="15.6291921"><ele>480.0</ele><time>2026-04-25T13:17:02.451Z</time></trkpt><trkpt lat="40.3345962" lon="15.6289399"><ele>480.0</ele><time>2026-04-25T13:17:03.439Z</time></trkpt><trkpt lat="40.3348468" lon="15.6286892"><ele>480.5</ele><time>2026-04-25T13:17:04.443Z</time></trkpt><trkpt lat="40.3350972" lon="15.6284386"><ele>481.0</ele><time>2026-04-25T13:17:05.45Z</time></trkpt><trkpt lat="40.3353465" lon="15.6281879"><ele>481.0</ele><time>2026-04-25T13:17:06.448Z</time></trkpt><trkpt lat="40.3355959" lon="15.627936"><ele>481.0</ele><time>2026-04-25T13:17:07.448Z</time></trkpt><trkpt lat="40.3358462" lon="15.6276866"><ele>481.0</ele><time>2026-04-25T13:17:08.452Z</time></trkpt><trkpt lat="40.3360995" lon="15.6274415"><ele>481.0</ele><time>2026-04-25T13:17:09.453Z</time></trkpt><trkpt lat="40.3363574" lon="15.6272033"><ele>479.5</ele><time>2026-04-25T13:17:10.454Z</time></trkpt><trkpt lat="40.3366189" lon="15.6269717"><ele>478.0</ele><time>2026-04-25T13:17:11.453Z</time></trkpt><trkpt lat="40.3368831" lon="15.6267457"><ele>478.0</ele><time>2026-04-25T13:17:12.455Z</time></trkpt><trkpt lat="40.3371498" lon="15.6265248"><ele>478.0</ele><time>2026-04-25T13:17:13.447Z</time></trkpt><trkpt lat="40.3374188" lon="15.6263086"><ele>478.5</ele><time>2026-04-25T13:17:14.446Z</time></trkpt><trkpt lat="40.3376915" lon="15.6260997"><ele>479.0</ele><time>2026-04-25T13:17:15.446Z</time></trkpt><trkpt lat="40.337966" lon="15.6258965"><ele>478.5</ele><time>2026-04-25T13:17:16.448Z</time></trkpt><trkpt lat="40.3382433" lon="15.6256976"><ele>478.0</ele><time>2026-04-25T13:17:17.449Z</time></trkpt><trkpt lat="40.338521" lon="15.6255002"><ele>477.0</ele><time>2026-04-25T13:17:18.457Z</time></trkpt><trkpt lat="40.3387989" lon="15.6253043"><ele>476.0</ele><time>2026-04-25T13:17:19.451Z</time></trkpt><trkpt lat="40.3390776" lon="15.6251106"><ele>476.0</ele><time>2026-04-25T13:17:20.458Z</time></trkpt><trkpt lat="40.3393571" lon="15.624918"><ele>476.0</ele><time>2026-04-25T13:17:21.45Z</time></trkpt><trkpt lat="40.3396372" lon="15.6247256"><ele>476.0</ele><time>2026-04-25T13:17:22.444Z</time></trkpt><trkpt lat="40.3399177" lon="15.6245341"><ele>476.0</ele><time>2026-04-25T13:17:23.458Z</time></trkpt><trkpt lat="40.3401973" lon="15.6243433"><ele>476.0</ele><time>2026-04-25T13:17:24.45Z</time></trkpt><trkpt lat="40.3404762" lon="15.624153"><ele>476.0</ele><time>2026-04-25T13:17:25.447Z</time></trkpt><trkpt lat="40.3407566" lon="15.6239653"><ele>475.0</ele><time>2026-04-25T13:17:26.453Z</time></trkpt><trkpt lat="40.3410395" lon="15.6237836"><ele>474.0</ele><time>2026-04-25T13:17:27.453Z</time></trkpt><trkpt lat="40.3413247" lon="15.6236051"><ele>473.5</ele><time>2026-04-25T13:17:28.457Z</time></trkpt><trkpt lat="40.3416121" lon="15.623433"><ele>473.0</ele><time>2026-04-25T13:17:29.448Z</time></trkpt><trkpt lat="40.3419007" lon="15.623266"><ele>473.0</ele><time>2026-04-25T13:17:30.443Z</time></trkpt><trkpt lat="40.3421912" lon="15.6231034"><ele>473.0</ele><time>2026-04-25T13:17:31.449Z</time></trkpt><trkpt lat="40.3424813" lon="15.6229437"><ele>471.5</ele><time>2026-04-25T13:17:32.444Z</time></trkpt><trkpt lat="40.3427707" lon="15.6227816"><ele>470.0</ele><time>2026-04-25T13:17:33.452Z</time></trkpt><trkpt lat="40.3430604" lon="15.6226202"><ele>470.0</ele><time>2026-04-25T13:17:34.446Z</time></trkpt><trkpt lat="40.3433509" lon="15.6224607"><ele>470.0</ele><time>2026-04-25T13:17:35.446Z</time></trkpt><trkpt lat="40.3436417" lon="15.622301"><ele>470.0</ele><time>2026-04-25T13:17:36.455Z</time></trkpt><trkpt lat="40.3439317" lon="15.6221387"><ele>470.0</ele><time>2026-04-25T13:17:37.454Z</time></trkpt><trkpt lat="40.3442193" lon="15.6219735"><ele>469.5</ele><time>2026-04-25T13:17:38.459Z</time></trkpt><trkpt lat="40.3445058" lon="15.6218025"><ele>469.0</ele><time>2026-04-25T13:17:39.447Z</time></trkpt><trkpt lat="40.3447899" lon="15.6216228"><ele>469.0</ele><time>2026-04-25T13:17:40.457Z</time></trkpt><trkpt lat="40.345071" lon="15.6214318"><ele>469.0</ele><time>2026-04-25T13:17:41.454Z</time></trkpt><trkpt lat="40.3453508" lon="15.6212343"><ele>468.0</ele><time>2026-04-25T13:17:42.444Z</time></trkpt><trkpt lat="40.3456277" lon="15.621031"><ele>467.0</ele><time>2026-04-25T13:17:43.449Z</time></trkpt><trkpt lat="40.3459031" lon="15.620824"><ele>467.0</ele><time>2026-04-25T13:17:44.453Z</time></trkpt><trkpt lat="40.3461778" lon="15.6206152"><ele>467.0</ele><time>2026-04-25T13:17:45.448Z</time></trkpt><trkpt lat="40.3464513" lon="15.6204043"><ele>465.5</ele><time>2026-04-25T13:17:46.449Z</time></trkpt><trkpt lat="40.3467257" lon="15.6201937"><ele>464.0</ele><time>2026-04-25T13:17:47.444Z</time></trkpt><trkpt lat="40.3470006" lon="15.6199853"><ele>464.5</ele><time>2026-04-25T13:17:48.441Z</time></trkpt><trkpt lat="40.3472764" lon="15.6197781"><ele>465.0</ele><time>2026-04-25T13:17:49.452Z</time></trkpt><trkpt lat="40.3475513" lon="15.6195712"><ele>464.5</ele><time>2026-04-25T13:17:50.443Z</time></trkpt><trkpt lat="40.3478261" lon="15.619364"><ele>464.0</ele><time>2026-04-25T13:17:51.441Z</time></trkpt><trkpt lat="40.3481014" lon="15.619157"><ele>463.0</ele><time>2026-04-25T13:17:52.45Z</time></trkpt><trkpt lat="40.348377" lon="15.6189503"><ele>462.0</ele><time>2026-04-25T13:17:53.449Z</time></trkpt><trkpt lat="40.3486523" lon="15.6187453"><ele>462.0</ele><time>2026-04-25T13:17:54.459Z</time></trkpt><trkpt lat="40.3489267" lon="15.6185379"><ele>462.0</ele><time>2026-04-25T13:17:55.453Z</time></trkpt><trkpt lat="40.3492003" lon="15.6183277"><ele>462.0</ele><time>2026-04-25T13:17:56.44Z</time></trkpt><trkpt lat="40.3494736" lon="15.618117"><ele>462.0</ele><time>2026-04-25T13:17:57.448Z</time></trkpt><trkpt lat="40.349747" lon="15.6179064"><ele>462.5</ele><time>2026-04-25T13:17:58.457Z</time></trkpt><trkpt lat="40.3500208" lon="15.6176962"><ele>463.0</ele><time>2026-04-25T13:17:59.448Z</time></trkpt><trkpt lat="40.3502987" lon="15.6174981"><ele>462.0</ele><time>2026-04-25T13:18:00.444Z</time></trkpt><trkpt lat="40.3505775" lon="15.6172921"><ele>461.0</ele><time>2026-04-25T13:18:01.452Z</time></trkpt><trkpt lat="40.3508503" lon="15.6170907"><ele>461.0</ele><time>2026-04-25T13:18:02.446Z</time></trkpt><trkpt lat="40.3511249" lon="15.6168768"><ele>461.0</ele><time>2026-04-25T13:18:03.444Z</time></trkpt><trkpt lat="40.3513995" lon="15.6166648"><ele>461.0</ele><time>2026-04-25T13:18:04.454Z</time></trkpt><trkpt lat="40.3516749" lon="15.6164557"><ele>461.0</ele><time>2026-04-25T13:18:05.455Z</time></trkpt><trkpt lat="40.3519514" lon="15.616246"><ele>461.0</ele><time>2026-04-25T13:18:06.444Z</time></trkpt><trkpt lat="40.3522259" lon="15.616039"><ele>461.0</ele><time>2026-04-25T13:18:07.45Z</time></trkpt><trkpt lat="40.352501" lon="15.6158311"><ele>461.0</ele><time>2026-04-25T13:18:08.458Z</time></trkpt><trkpt lat="40.352776" lon="15.6156193"><ele>461.0</ele><time>2026-04-25T13:18:09.451Z</time></trkpt><trkpt lat="40.353051" lon="15.6154103"><ele>459.5</ele><time>2026-04-25T13:18:10.455Z</time></trkpt><trkpt lat="40.3533267" lon="15.6152019"><ele>458.0</ele><time>2026-04-25T13:18:11.451Z</time></trkpt><trkpt lat="40.3536024" lon="15.6149933"><ele>458.0</ele><time>2026-04-25T13:18:12.441Z</time></trkpt><trkpt lat="40.3538784" lon="15.6147857"><ele>458.0</ele><time>2026-04-25T13:18:13.45Z</time></trkpt><trkpt lat="40.3541536" lon="15.6145791"><ele>458.0</ele><time>2026-04-25T13:18:14.455Z</time></trkpt><trkpt lat="40.3544289" lon="15.6143716"><ele>458.0</ele><time>2026-04-25T13:18:15.454Z</time></trkpt><trkpt lat="40.3547025" lon="15.6141611"><ele>458.5</ele><time>2026-04-25T13:18:16.459Z</time></trkpt><trkpt lat="40.3549773" lon="15.6139514"><ele>459.0</ele><time>2026-04-25T13:18:17.447Z</time></trkpt><trkpt lat="40.3552521" lon="15.6137417"><ele>459.5</ele><time>2026-04-25T13:18:18.448Z</time></trkpt><trkpt lat="40.3555277" lon="15.6135322"><ele>460.0</ele><time>2026-04-25T13:18:19.447Z</time></trkpt><trkpt lat="40.3558025" lon="15.6133225"><ele>459.0</ele><time>2026-04-25T13:18:20.458Z</time></trkpt><trkpt lat="40.3560778" lon="15.6131134"><ele>458.0</ele><time>2026-04-25T13:18:21.455Z</time></trkpt><trkpt lat="40.3563513" lon="15.6129027"><ele>458.0</ele><time>2026-04-25T13:18:22.445Z</time></trkpt><trkpt lat="40.3566268" lon="15.612693"><ele>458.0</ele><time>2026-04-25T13:18:23.461Z</time></trkpt><trkpt lat="40.3569023" lon="15.6124839"><ele>458.0</ele><time>2026-04-25T13:18:24.449Z</time></trkpt><trkpt lat="40.3571779" lon="15.6122763"><ele>458.0</ele><time>2026-04-25T13:18:25.453Z</time></trkpt><trkpt lat="40.3574534" lon="15.6120687"><ele>457.0</ele><time>2026-04-25T13:18:26.451Z</time></trkpt><trkpt lat="40.3577283" lon="15.61186"><ele>456.0</ele><time>2026-04-25T13:18:27.449Z</time></trkpt><trkpt lat="40.3580026" lon="15.6116514"><ele>456.5</ele><time>2026-04-25T13:18:28.448Z</time></trkpt><trkpt lat="40.3582769" lon="15.6114426"><ele>457.0</ele><time>2026-04-25T13:18:29.45Z</time></trkpt><trkpt lat="40.3585504" lon="15.6112329"><ele>457.0</ele><time>2026-04-25T13:18:30.445Z</time></trkpt><trkpt lat="40.3588235" lon="15.6110218"><ele>457.0</ele><time>2026-04-25T13:18:31.446Z</time></trkpt><trkpt lat="40.359097" lon="15.6108108"><ele>457.0</ele><time>2026-04-25T13:18:32.452Z</time></trkpt><trkpt lat="40.3593696" lon="15.6105991"><ele>457.0</ele><time>2026-04-25T13:18:33.457Z</time></trkpt><trkpt lat="40.3596418" lon="15.6103868"><ele>457.0</ele><time>2026-04-25T13:18:34.44Z</time></trkpt><trkpt lat="40.3599125" lon="15.6101721"><ele>457.0</ele><time>2026-04-25T13:18:35.454Z</time></trkpt><trkpt lat="40.3601818" lon="15.6099544"><ele>457.0</ele><time>2026-04-25T13:18:36.454Z</time></trkpt><trkpt lat="40.3604499" lon="15.6097326"><ele>457.0</ele><time>2026-04-25T13:18:37.441Z</time></trkpt><trkpt lat="40.3607151" lon="15.6095058"><ele>456.5</ele><time>2026-04-25T13:18:38.454Z</time></trkpt><trkpt lat="40.3609777" lon="15.6092729"><ele>456.0</ele><time>2026-04-25T13:18:39.448Z</time></trkpt><trkpt lat="40.3612369" lon="15.6090344"><ele>456.0</ele><time>2026-04-25T13:18:40.449Z</time></trkpt><trkpt lat="40.3614931" lon="15.60879"><ele>456.0</ele><time>2026-04-25T13:18:41.445Z</time></trkpt><trkpt lat="40.361746" lon="15.6085396"><ele>456.0</ele><time>2026-04-25T13:18:42.445Z</time></trkpt><trkpt lat="40.3619966" lon="15.608284"><ele>456.0</ele><time>2026-04-25T13:18:43.445Z</time></trkpt><trkpt lat="40.3622447" lon="15.6080252"><ele>456.5</ele><time>2026-04-25T13:18:44.453Z</time></trkpt><trkpt lat="40.3624907" lon="15.6077626"><ele>457.0</ele><time>2026-04-25T13:18:45.446Z</time></trkpt><trkpt lat="40.3627357" lon="15.6074987"><ele>457.0</ele><time>2026-04-25T13:18:46.449Z</time></trkpt><trkpt lat="40.3629793" lon="15.607233"><ele>457.0</ele><time>2026-04-25T13:18:47.448Z</time></trkpt><trkpt lat="40.3632206" lon="15.6069748"><ele>457.0</ele><time>2026-04-25T13:18:48.443Z</time></trkpt><trkpt lat="40.36347" lon="15.606713"><ele>457.0</ele><time>2026-04-25T13:18:49.45Z</time></trkpt><trkpt lat="40.3637161" lon="15.6064557"><ele>457.0</ele><time>2026-04-25T13:18:50.458Z</time></trkpt><trkpt lat="40.3639661" lon="15.6061961"><ele>457.0</ele><time>2026-04-25T13:18:51.456Z</time></trkpt><trkpt lat="40.364212" lon="15.6059353"><ele>456.5</ele><time>2026-04-25T13:18:52.442Z</time></trkpt><trkpt lat="40.3644591" lon="15.6056732"><ele>456.0</ele><time>2026-04-25T13:18:53.453Z</time></trkpt><trkpt lat="40.3647081" lon="15.6054163"><ele>456.0</ele><time>2026-04-25T13:18:54.442Z</time></trkpt><trkpt lat="40.3649577" lon="15.6051591"><ele>456.0</ele><time>2026-04-25T13:18:55.44Z</time></trkpt><trkpt lat="40.3652058" lon="15.6048983"><ele>456.0</ele><time>2026-04-25T13:18:56.449Z</time></trkpt><trkpt lat="40.3654527" lon="15.6046371"><ele>456.0</ele><time>2026-04-25T13:18:57.446Z</time></trkpt><trkpt lat="40.3657018" lon="15.6043797"><ele>456.5</ele><time>2026-04-25T13:18:58.446Z</time></trkpt><trkpt lat="40.3659565" lon="15.6041301"><ele>457.0</ele><time>2026-04-25T13:18:59.453Z</time></trkpt><trkpt lat="40.3662135" lon="15.6038846"><ele>456.5</ele><time>2026-04-25T13:19:00.462Z</time></trkpt><trkpt lat="40.3664732" lon="15.6036474"><ele>456.0</ele><time>2026-04-25T13:19:01.449Z</time></trkpt><trkpt lat="40.3667358" lon="15.6034156"><ele>456.0</ele><time>2026-04-25T13:19:02.448Z</time></trkpt><trkpt lat="40.367001" lon="15.6031893"><ele>456.0</ele><time>2026-04-25T13:19:03.452Z</time></trkpt><trkpt lat="40.3672672" lon="15.602969"><ele>456.0</ele><time>2026-04-25T13:19:04.454Z</time></trkpt><trkpt lat="40.3675397" lon="15.6027557"><ele>456.0</ele><time>2026-04-25T13:19:05.447Z</time></trkpt><trkpt lat="40.3678159" lon="15.6025476"><ele>455.5</ele><time>2026-04-25T13:19:06.447Z</time></trkpt><trkpt lat="40.3680946" lon="15.6023475"><ele>455.0</ele><time>2026-04-25T13:19:07.448Z</time></trkpt><trkpt lat="40.3683768" lon="15.6021541"><ele>454.5</ele><time>2026-04-25T13:19:08.456Z</time></trkpt><trkpt lat="40.3686608" lon="15.6019671"><ele>454.0</ele><time>2026-04-25T13:19:09.443Z</time></trkpt><trkpt lat="40.3689469" lon="15.6017881"><ele>455.0</ele><time>2026-04-25T13:19:10.452Z</time></trkpt><trkpt lat="40.369236" lon="15.6016165"><ele>456.0</ele><time>2026-04-25T13:19:11.446Z</time></trkpt><trkpt lat="40.3695276" lon="15.6014513"><ele>455.0</ele><time>2026-04-25T13:19:12.443Z</time></trkpt><trkpt lat="40.3698208" lon="15.6012927"><ele>454.0</ele><time>2026-04-25T13:19:13.468Z</time></trkpt><trkpt lat="40.3701168" lon="15.6011415"><ele>454.0</ele><time>2026-04-25T13:19:14.456Z</time></trkpt><trkpt lat="40.3704151" lon="15.6009977"><ele>454.0</ele><time>2026-04-25T13:19:15.46Z</time></trkpt><trkpt lat="40.3707137" lon="15.6008575"><ele>454.5</ele><time>2026-04-25T13:19:16.453Z</time></trkpt><trkpt lat="40.3710133" lon="15.6007212"><ele>455.0</ele><time>2026-04-25T13:19:17.45Z</time></trkpt><trkpt lat="40.371314" lon="15.6005878"><ele>454.5</ele><time>2026-04-25T13:19:18.454Z</time></trkpt><trkpt lat="40.3716141" lon="15.6004549"><ele>454.0</ele><time>2026-04-25T13:19:19.455Z</time></trkpt><trkpt lat="40.3719143" lon="15.600323"><ele>453.0</ele><time>2026-04-25T13:19:20.445Z</time></trkpt><trkpt lat="40.3722145" lon="15.6001893"><ele>452.0</ele><time>2026-04-25T13:19:21.457Z</time></trkpt><trkpt lat="40.3725139" lon="15.6000527"><ele>452.0</ele><time>2026-04-25T13:19:22.455Z</time></trkpt><trkpt lat="40.3728124" lon="15.5999128"><ele>452.0</ele><time>2026-04-25T13:19:23.449Z</time></trkpt><trkpt lat="40.3731101" lon="15.5997712"><ele>452.0</ele><time>2026-04-25T13:19:24.459Z</time></trkpt><trkpt lat="40.3734064" lon="15.5996267"><ele>452.0</ele><time>2026-04-25T13:19:25.451Z</time></trkpt><trkpt lat="40.3737021" lon="15.5994776"><ele>451.5</ele><time>2026-04-25T13:19:26.45Z</time></trkpt><trkpt lat="40.3739953" lon="15.5993208"><ele>451.0</ele><time>2026-04-25T13:19:27.446Z</time></trkpt><trkpt lat="40.3742855" lon="15.5991548"><ele>451.0</ele><time>2026-04-25T13:19:28.451Z</time></trkpt><trkpt lat="40.3745731" lon="15.5989804"><ele>451.0</ele><time>2026-04-25T13:19:29.446Z</time></trkpt><trkpt lat="40.3748579" lon="15.5987993"><ele>451.5</ele><time>2026-04-25T13:19:30.45Z</time></trkpt><trkpt lat="40.3751415" lon="15.5986116"><ele>452.0</ele><time>2026-04-25T13:19:31.455Z</time></trkpt><trkpt lat="40.3754224" lon="15.5984187"><ele>451.5</ele><time>2026-04-25T13:19:32.442Z</time></trkpt><trkpt lat="40.3757022" lon="15.5982219"><ele>451.0</ele><time>2026-04-25T13:19:33.454Z</time></trkpt><trkpt lat="40.3759803" lon="15.5980215"><ele>450.5</ele><time>2026-04-25T13:19:34.45Z</time></trkpt><trkpt lat="40.3762571" lon="15.5978186"><ele>450.0</ele><time>2026-04-25T13:19:35.445Z</time></trkpt><trkpt lat="40.3765333" lon="15.5976146"><ele>451.0</ele><time>2026-04-25T13:19:36.445Z</time></trkpt><trkpt lat="40.37681" lon="15.5974113"><ele>452.0</ele><time>2026-04-25T13:19:37.45Z</time></trkpt><trkpt lat="40.3770859" lon="15.5972071"><ele>452.0</ele><time>2026-04-25T13:19:38.46Z</time></trkpt><trkpt lat="40.3773611" lon="15.5970023"><ele>452.0</ele><time>2026-04-25T13:19:39.45Z</time></trkpt><trkpt lat="40.3776367" lon="15.596798"><ele>452.0</ele><time>2026-04-25T13:19:40.448Z</time></trkpt><trkpt lat="40.3779132" lon="15.5965952"><ele>452.0</ele><time>2026-04-25T13:19:41.449Z</time></trkpt><trkpt lat="40.3781899" lon="15.5963928"><ele>452.0</ele><time>2026-04-25T13:19:42.452Z</time></trkpt><trkpt lat="40.3784666" lon="15.5961916"><ele>452.0</ele><time>2026-04-25T13:19:43.451Z</time></trkpt><trkpt lat="40.3787441" lon="15.5959916"><ele>452.5</ele><time>2026-04-25T13:19:44.449Z</time></trkpt><trkpt lat="40.3790216" lon="15.5957902"><ele>453.0</ele><time>2026-04-25T13:19:45.452Z</time></trkpt><trkpt lat="40.3792983" lon="15.5955869"><ele>453.0</ele><time>2026-04-25T13:19:46.46Z</time></trkpt><trkpt lat="40.3795749" lon="15.5953819"><ele>453.0</ele><time>2026-04-25T13:19:47.453Z</time></trkpt><trkpt lat="40.3798507" lon="15.5951759"><ele>452.5</ele><time>2026-04-25T13:19:48.456Z</time></trkpt><trkpt lat="40.3801257" lon="15.5949696"><ele>452.0</ele><time>2026-04-25T13:19:49.454Z</time></trkpt><trkpt lat="40.3804025" lon="15.5947718"><ele>451.5</ele><time>2026-04-25T13:19:50.45Z</time></trkpt><trkpt lat="40.3806815" lon="15.5945715"><ele>451.0</ele><time>2026-04-25T13:19:51.45Z</time></trkpt><trkpt lat="40.3809609" lon="15.5943737"><ele>451.0</ele><time>2026-04-25T13:19:52.463Z</time></trkpt><trkpt lat="40.3812386" lon="15.594169"><ele>451.0</ele><time>2026-04-25T13:19:53.456Z</time></trkpt><trkpt lat="40.3815135" lon="15.5939613"><ele>451.5</ele><time>2026-04-25T13:19:54.447Z</time></trkpt><trkpt lat="40.3817883" lon="15.5937534"><ele>452.0</ele><time>2026-04-25T13:19:55.457Z</time></trkpt><trkpt lat="40.3820623" lon="15.5935505"><ele>451.5</ele><time>2026-04-25T13:19:56.47Z</time></trkpt><trkpt lat="40.3823358" lon="15.5933447"><ele>451.0</ele><time>2026-04-25T13:19:57.453Z</time></trkpt><trkpt lat="40.3826078" lon="15.5931361"><ele>451.0</ele><time>2026-04-25T13:19:58.464Z</time></trkpt><trkpt lat="40.3828824" lon="15.5929298"><ele>451.0</ele><time>2026-04-25T13:19:59.454Z</time></trkpt><trkpt lat="40.3831467" lon="15.5927103"><ele>451.0</ele><time>2026-04-25T13:20:00.444Z</time></trkpt><trkpt lat="40.3834182" lon="15.5924912"><ele>451.0</ele><time>2026-04-25T13:20:01.456Z</time></trkpt><trkpt lat="40.3836891" lon="15.5922703"><ele>451.0</ele><time>2026-04-25T13:20:02.453Z</time></trkpt><trkpt lat="40.3839558" lon="15.5920455"><ele>451.0</ele><time>2026-04-25T13:20:03.457Z</time></trkpt><trkpt lat="40.3842242" lon="15.5918235"><ele>451.0</ele><time>2026-04-25T13:20:04.447Z</time></trkpt><trkpt lat="40.3844943" lon="15.5916073"><ele>451.0</ele><time>2026-04-25T13:20:05.46Z</time></trkpt><trkpt lat="40.3847651" lon="15.5913902"><ele>451.5</ele><time>2026-04-25T13:20:06.454Z</time></trkpt><trkpt lat="40.3850366" lon="15.5911719"><ele>452.0</ele><time>2026-04-25T13:20:07.446Z</time></trkpt><trkpt lat="40.385306" lon="15.5909527"><ele>450.5</ele><time>2026-04-25T13:20:08.449Z</time></trkpt><trkpt lat="40.3855764" lon="15.5907312"><ele>449.0</ele><time>2026-04-25T13:20:09.449Z</time></trkpt><trkpt lat="40.3858472" lon="15.5905104"><ele>449.0</ele><time>2026-04-25T13:20:10.446Z</time></trkpt><trkpt lat="40.3861182" lon="15.5902892"><ele>449.0</ele><time>2026-04-25T13:20:11.462Z</time></trkpt><trkpt lat="40.3863874" lon="15.5900679"><ele>450.0</ele><time>2026-04-25T13:20:12.447Z</time></trkpt><trkpt lat="40.3866568" lon="15.5898482"><ele>451.0</ele><time>2026-04-25T13:20:13.446Z</time></trkpt><trkpt lat="40.3869254" lon="15.5896284"><ele>450.0</ele><time>2026-04-25T13:20:14.464Z</time></trkpt><trkpt lat="40.3871947" lon="15.5894112"><ele>449.0</ele><time>2026-04-25T13:20:15.447Z</time></trkpt><trkpt lat="40.3874643" lon="15.5891943"><ele>449.0</ele><time>2026-04-25T13:20:16.45Z</time></trkpt><trkpt lat="40.3877334" lon="15.5889767"><ele>449.0</ele><time>2026-04-25T13:20:17.456Z</time></trkpt><trkpt lat="40.3880023" lon="15.5887584"><ele>450.0</ele><time>2026-04-25T13:20:18.455Z</time></trkpt><trkpt lat="40.3882711" lon="15.5885397"><ele>451.0</ele><time>2026-04-25T13:20:19.443Z</time></trkpt><trkpt lat="40.3885393" lon="15.5883201"><ele>451.0</ele><time>2026-04-25T13:20:20.445Z</time></trkpt><trkpt lat="40.3888077" lon="15.5880998"><ele>451.0</ele><time>2026-04-25T13:20:21.451Z</time></trkpt><trkpt lat="40.3890767" lon="15.5878794"><ele>450.0</ele><time>2026-04-25T13:20:22.455Z</time></trkpt><trkpt lat="40.3893457" lon="15.5876597"><ele>449.0</ele><time>2026-04-25T13:20:23.445Z</time></trkpt><trkpt lat="40.3896137" lon="15.58744"><ele>449.0</ele><time>2026-04-25T13:20:24.452Z</time></trkpt><trkpt lat="40.3898831" lon="15.5872193"><ele>449.0</ele><time>2026-04-25T13:20:25.457Z</time></trkpt><trkpt lat="40.3901529" lon="15.5870003"><ele>449.0</ele><time>2026-04-25T13:20:26.46Z</time></trkpt><trkpt lat="40.3904234" lon="15.586782"><ele>449.0</ele><time>2026-04-25T13:20:27.456Z</time></trkpt><trkpt lat="40.3906936" lon="15.586564"><ele>449.5</ele><time>2026-04-25T13:20:28.454Z</time></trkpt><trkpt lat="40.3909651" lon="15.5863476"><ele>450.0</ele><time>2026-04-25T13:20:29.458Z</time></trkpt><trkpt lat="40.3912377" lon="15.5861368"><ele>449.5</ele><time>2026-04-25T13:20:30.461Z</time></trkpt><trkpt lat="40.3915115" lon="15.5859223"><ele>449.0</ele><time>2026-04-25T13:20:31.445Z</time></trkpt><trkpt lat="40.3917871" lon="15.5857076"><ele>449.0</ele><time>2026-04-25T13:20:32.463Z</time></trkpt><trkpt lat="40.3920583" lon="15.5854947"><ele>449.0</ele><time>2026-04-25T13:20:33.457Z</time></trkpt><trkpt lat="40.3923335" lon="15.5852803"><ele>448.0</ele><time>2026-04-25T13:20:34.45Z</time></trkpt><trkpt lat="40.3926041" lon="15.5850686"><ele>447.0</ele><time>2026-04-25T13:20:35.454Z</time></trkpt><trkpt lat="40.3928774" lon="15.5848632"><ele>448.0</ele><time>2026-04-25T13:20:36.449Z</time></trkpt><trkpt lat="40.3931523" lon="15.584651"><ele>449.0</ele><time>2026-04-25T13:20:37.448Z</time></trkpt><trkpt lat="40.3934261" lon="15.5844398"><ele>449.0</ele><time>2026-04-25T13:20:38.457Z</time></trkpt><trkpt lat="40.3937036" lon="15.5842343"><ele>449.0</ele><time>2026-04-25T13:20:39.45Z</time></trkpt><trkpt lat="40.3939793" lon="15.5840289"><ele>449.0</ele><time>2026-04-25T13:20:40.447Z</time></trkpt><trkpt lat="40.3942543" lon="15.5838194"><ele>449.0</ele><time>2026-04-25T13:20:41.456Z</time></trkpt><trkpt lat="40.3945304" lon="15.5836136"><ele>448.5</ele><time>2026-04-25T13:20:42.455Z</time></trkpt><trkpt lat="40.3948075" lon="15.5834083"><ele>448.0</ele><time>2026-04-25T13:20:43.449Z</time></trkpt><trkpt lat="40.395085" lon="15.5832024"><ele>448.0</ele><time>2026-04-25T13:20:44.461Z</time></trkpt><trkpt lat="40.3953617" lon="15.5829957"><ele>448.0</ele><time>2026-04-25T13:20:45.453Z</time></trkpt><trkpt lat="40.3956369" lon="15.5827881"><ele>448.5</ele><time>2026-04-25T13:20:46.457Z</time></trkpt><trkpt lat="40.3959135" lon="15.5825813"><ele>449.0</ele><time>2026-04-25T13:20:47.458Z</time></trkpt><trkpt lat="40.3961898" lon="15.5823769"><ele>448.5</ele><time>2026-04-25T13:20:48.45Z</time></trkpt><trkpt lat="40.3964666" lon="15.5821713"><ele>448.0</ele><time>2026-04-25T13:20:49.453Z</time></trkpt><trkpt lat="40.3967428" lon="15.5819649"><ele>449.5</ele><time>2026-04-25T13:20:50.452Z</time></trkpt><trkpt lat="40.3970178" lon="15.5817574"><ele>451.0</ele><time>2026-04-25T13:20:51.454Z</time></trkpt><trkpt lat="40.3972935" lon="15.5815494"><ele>450.5</ele><time>2026-04-25T13:20:52.45Z</time></trkpt><trkpt lat="40.3975682" lon="15.5813403"><ele>450.0</ele><time>2026-04-25T13:20:53.455Z</time></trkpt><trkpt lat="40.3978431" lon="15.5811319"><ele>451.0</ele><time>2026-04-25T13:20:54.458Z</time></trkpt><trkpt lat="40.3981182" lon="15.5809242"><ele>452.0</ele><time>2026-04-25T13:20:55.459Z</time></trkpt><trkpt lat="40.3983942" lon="15.5807179"><ele>452.0</ele><time>2026-04-25T13:20:56.462Z</time></trkpt><trkpt lat="40.3986707" lon="15.5805115"><ele>452.0</ele><time>2026-04-25T13:20:57.455Z</time></trkpt><trkpt lat="40.3989466" lon="15.5803052"><ele>451.0</ele><time>2026-04-25T13:20:58.455Z</time></trkpt><trkpt lat="40.3992222" lon="15.5800989"><ele>450.0</ele><time>2026-04-25T13:20:59.453Z</time></trkpt><trkpt lat="40.3994955" lon="15.5798881"><ele>449.5</ele><time>2026-04-25T13:21:00.451Z</time></trkpt><trkpt lat="40.399767" lon="15.5796729"><ele>449.0</ele><time>2026-04-25T13:21:01.449Z</time></trkpt><trkpt lat="40.4000365" lon="15.579458"><ele>449.0</ele><time>2026-04-25T13:21:02.454Z</time></trkpt><trkpt lat="40.4003063" lon="15.5792422"><ele>449.0</ele><time>2026-04-25T13:21:03.452Z</time></trkpt><trkpt lat="40.4005753" lon="15.5790255"><ele>449.0</ele><time>2026-04-25T13:21:04.45Z</time></trkpt><trkpt lat="40.400841" lon="15.5788038"><ele>449.0</ele><time>2026-04-25T13:21:05.452Z</time></trkpt><trkpt lat="40.401104" lon="15.5785748"><ele>448.5</ele><time>2026-04-25T13:21:06.464Z</time></trkpt><trkpt lat="40.4013643" lon="15.5783384"><ele>448.0</ele><time>2026-04-25T13:21:07.463Z</time></trkpt><trkpt lat="40.4016204" lon="15.5780933"><ele>447.5</ele><time>2026-04-25T13:21:08.446Z</time></trkpt><trkpt lat="40.4018711" lon="15.5778377"><ele>447.0</ele><time>2026-04-25T13:21:09.455Z</time></trkpt><trkpt lat="40.4021165" lon="15.5775715"><ele>447.5</ele><time>2026-04-25T13:21:10.452Z</time></trkpt><trkpt lat="40.4023643" lon="15.5773104"><ele>448.0</ele><time>2026-04-25T13:21:11.45Z</time></trkpt><trkpt lat="40.4026031" lon="15.5770336"><ele>448.0</ele><time>2026-04-25T13:21:12.448Z</time></trkpt><trkpt lat="40.4028322" lon="15.5767473"><ele>448.0</ele><time>2026-04-25T13:21:13.457Z</time></trkpt><trkpt lat="40.4030631" lon="15.57646"><ele>448.0</ele><time>2026-04-25T13:21:14.452Z</time></trkpt><trkpt lat="40.4032898" lon="15.576167"><ele>448.0</ele><time>2026-04-25T13:21:15.446Z</time></trkpt><trkpt lat="40.4035136" lon="15.575869"><ele>448.0</ele><time>2026-04-25T13:21:16.459Z</time></trkpt><trkpt lat="40.4037318" lon="15.5755696"><ele>448.0</ele><time>2026-04-25T13:21:17.454Z</time></trkpt><trkpt lat="40.4039478" lon="15.5752678"><ele>447.5</ele><time>2026-04-25T13:21:18.449Z</time></trkpt><trkpt lat="40.4041631" lon="15.5749636"><ele>447.0</ele><time>2026-04-25T13:21:19.459Z</time></trkpt><trkpt lat="40.4043819" lon="15.5746624"><ele>447.5</ele><time>2026-04-25T13:21:20.45Z</time></trkpt><trkpt lat="40.4045968" lon="15.574359"><ele>448.0</ele><time>2026-04-25T13:21:21.445Z</time></trkpt><trkpt lat="40.4048128" lon="15.5740542"><ele>448.0</ele><time>2026-04-25T13:21:22.452Z</time></trkpt><trkpt lat="40.4050293" lon="15.5737505"><ele>448.0</ele><time>2026-04-25T13:21:23.449Z</time></trkpt><trkpt lat="40.4052446" lon="15.573447"><ele>448.0</ele><time>2026-04-25T13:21:24.441Z</time></trkpt><trkpt lat="40.4054609" lon="15.5731424"><ele>448.0</ele><time>2026-04-25T13:21:25.45Z</time></trkpt><trkpt lat="40.4056753" lon="15.572836"><ele>447.5</ele><time>2026-04-25T13:21:26.451Z</time></trkpt><trkpt lat="40.4058904" lon="15.5725295"><ele>447.0</ele><time>2026-04-25T13:21:27.447Z</time></trkpt><trkpt lat="40.4061046" lon="15.572222"><ele>447.0</ele><time>2026-04-25T13:21:28.456Z</time></trkpt><trkpt lat="40.4063166" lon="15.5719123"><ele>447.0</ele><time>2026-04-25T13:21:29.462Z</time></trkpt><trkpt lat="40.4065246" lon="15.5715982"><ele>447.0</ele><time>2026-04-25T13:21:30.457Z</time></trkpt><trkpt lat="40.4067261" lon="15.5712767"><ele>447.0</ele><time>2026-04-25T13:21:31.455Z</time></trkpt><trkpt lat="40.4069192" lon="15.5709482"><ele>447.0</ele><time>2026-04-25T13:21:32.454Z</time></trkpt><trkpt lat="40.4071047" lon="15.570614"><ele>447.0</ele><time>2026-04-25T13:21:33.456Z</time></trkpt><trkpt lat="40.4072831" lon="15.5702736"><ele>447.0</ele><time>2026-04-25T13:21:34.462Z</time></trkpt><trkpt lat="40.4074591" lon="15.5699298"><ele>447.0</ele><time>2026-04-25T13:21:35.447Z</time></trkpt><trkpt lat="40.4076335" lon="15.5695845"><ele>447.0</ele><time>2026-04-25T13:21:36.454Z</time></trkpt><trkpt lat="40.4078082" lon="15.5692384"><ele>447.0</ele><time>2026-04-25T13:21:37.459Z</time></trkpt><trkpt lat="40.407983" lon="15.5688943"><ele>447.0</ele><time>2026-04-25T13:21:38.45Z</time></trkpt><trkpt lat="40.4081563" lon="15.5685488"><ele>447.0</ele><time>2026-04-25T13:21:39.458Z</time></trkpt><trkpt lat="40.4083303" lon="15.568203"><ele>447.0</ele><time>2026-04-25T13:21:40.45Z</time></trkpt><trkpt lat="40.4085031" lon="15.5678569"><ele>447.0</ele><time>2026-04-25T13:21:41.452Z</time></trkpt><trkpt lat="40.4086761" lon="15.5675095"><ele>447.0</ele><time>2026-04-25T13:21:42.455Z</time></trkpt><trkpt lat="40.4088491" lon="15.5671604"><ele>447.0</ele><time>2026-04-25T13:21:43.459Z</time></trkpt><trkpt lat="40.4090228" lon="15.5668205"><ele>448.0</ele><time>2026-04-25T13:21:44.454Z</time></trkpt><trkpt lat="40.4091983" lon="15.566479"><ele>449.0</ele><time>2026-04-25T13:21:45.45Z</time></trkpt><trkpt lat="40.4093716" lon="15.5661328"><ele>449.0</ele><time>2026-04-25T13:21:46.461Z</time></trkpt><trkpt lat="40.4095534" lon="15.5657925"><ele>449.0</ele><time>2026-04-25T13:21:47.451Z</time></trkpt><trkpt lat="40.4097487" lon="15.5654622"><ele>449.5</ele><time>2026-04-25T13:21:48.462Z</time></trkpt><trkpt lat="40.4099541" lon="15.5651443"><ele>450.0</ele><time>2026-04-25T13:21:49.447Z</time></trkpt><trkpt lat="40.4101683" lon="15.5648395"><ele>450.0</ele><time>2026-04-25T13:21:50.449Z</time></trkpt><trkpt lat="40.4103944" lon="15.5645487"><ele>450.0</ele><time>2026-04-25T13:21:51.459Z</time></trkpt><trkpt lat="40.4106298" lon="15.5642714"><ele>451.0</ele><time>2026-04-25T13:21:52.456Z</time></trkpt><trkpt lat="40.4108732" lon="15.564007"><ele>452.0</ele><time>2026-04-25T13:21:53.449Z</time></trkpt><trkpt lat="40.411124" lon="15.5637554"><ele>452.0</ele><time>2026-04-25T13:21:54.465Z</time></trkpt><trkpt lat="40.4113816" lon="15.5635187"><ele>452.0</ele><time>2026-04-25T13:21:55.458Z</time></trkpt><trkpt lat="40.4116474" lon="15.5632949"><ele>452.0</ele><time>2026-04-25T13:21:56.447Z</time></trkpt><trkpt lat="40.4119182" lon="15.5630839"><ele>452.0</ele><time>2026-04-25T13:21:57.455Z</time></trkpt><trkpt lat="40.4121942" lon="15.5628829"><ele>453.5</ele><time>2026-04-25T13:21:58.453Z</time></trkpt><trkpt lat="40.4124747" lon="15.5626913"><ele>455.0</ele><time>2026-04-25T13:21:59.457Z</time></trkpt><trkpt lat="40.4127576" lon="15.5625098"><ele>455.0</ele><time>2026-04-25T13:22:00.46Z</time></trkpt><trkpt lat="40.4130433" lon="15.5623321"><ele>455.0</ele><time>2026-04-25T13:22:01.449Z</time></trkpt><trkpt lat="40.413332" lon="15.5621597"><ele>455.0</ele><time>2026-04-25T13:22:02.453Z</time></trkpt><trkpt lat="40.413623" lon="15.5619965"><ele>455.0</ele><time>2026-04-25T13:22:03.46Z</time></trkpt><trkpt lat="40.4139181" lon="15.5618427"><ele>455.0</ele><time>2026-04-25T13:22:04.458Z</time></trkpt><trkpt lat="40.4142154" lon="15.5616996"><ele>455.0</ele><time>2026-04-25T13:22:05.451Z</time></trkpt><trkpt lat="40.4145159" lon="15.561568"><ele>456.0</ele><time>2026-04-25T13:22:06.457Z</time></trkpt><trkpt lat="40.414819" lon="15.5614469"><ele>457.0</ele><time>2026-04-25T13:22:07.457Z</time></trkpt><trkpt lat="40.415124" lon="15.5613305"><ele>457.0</ele><time>2026-04-25T13:22:08.447Z</time></trkpt><trkpt lat="40.4154303" lon="15.5612201"><ele>457.0</ele><time>2026-04-25T13:22:09.455Z</time></trkpt><trkpt lat="40.4157369" lon="15.5611141"><ele>456.5</ele><time>2026-04-25T13:22:10.455Z</time></trkpt><trkpt lat="40.4160438" lon="15.5610095"><ele>456.0</ele><time>2026-04-25T13:22:11.45Z</time></trkpt><trkpt lat="40.4163512" lon="15.5609066"><ele>457.0</ele><time>2026-04-25T13:22:12.456Z</time></trkpt><trkpt lat="40.4166584" lon="15.5608051"><ele>458.0</ele><time>2026-04-25T13:22:13.448Z</time></trkpt><trkpt lat="40.416966" lon="15.5607025"><ele>460.0</ele><time>2026-04-25T13:22:14.445Z</time></trkpt><trkpt lat="40.417273" lon="15.5605994"><ele>462.0</ele><time>2026-04-25T13:22:15.45Z</time></trkpt><trkpt lat="40.4175798" lon="15.5604956"><ele>462.0</ele><time>2026-04-25T13:22:16.45Z</time></trkpt><trkpt lat="40.4178864" lon="15.5603908"><ele>462.0</ele><time>2026-04-25T13:22:17.445Z</time></trkpt><trkpt lat="40.4181938" lon="15.5602862"><ele>463.0</ele><time>2026-04-25T13:22:18.452Z</time></trkpt><trkpt lat="40.4185012" lon="15.5601837"><ele>464.0</ele><time>2026-04-25T13:22:19.458Z</time></trkpt><trkpt lat="40.4188087" lon="15.560082"><ele>464.5</ele><time>2026-04-25T13:22:20.45Z</time></trkpt><trkpt lat="40.4191158" lon="15.5599806"><ele>465.0</ele><time>2026-04-25T13:22:21.447Z</time></trkpt><trkpt lat="40.4194219" lon="15.5598789"><ele>466.5</ele><time>2026-04-25T13:22:22.449Z</time></trkpt><trkpt lat="40.4197289" lon="15.5597769"><ele>468.0</ele><time>2026-04-25T13:22:23.45Z</time></trkpt><trkpt lat="40.4200357" lon="15.5596761"><ele>468.0</ele><time>2026-04-25T13:22:24.453Z</time></trkpt><trkpt lat="40.4203434" lon="15.5595774"><ele>468.0</ele><time>2026-04-25T13:22:25.45Z</time></trkpt><trkpt lat="40.4206524" lon="15.559482"><ele>468.0</ele><time>2026-04-25T13:22:26.451Z</time></trkpt><trkpt lat="40.4209624" lon="15.5593911"><ele>468.0</ele><time>2026-04-25T13:22:27.453Z</time></trkpt><trkpt lat="40.4212728" lon="15.5593068"><ele>469.5</ele><time>2026-04-25T13:22:28.458Z</time></trkpt><trkpt lat="40.4215844" lon="15.5592309"><ele>471.0</ele><time>2026-04-25T13:22:29.447Z</time></trkpt><trkpt lat="40.4218965" lon="15.5591643"><ele>472.5</ele><time>2026-04-25T13:22:30.451Z</time></trkpt><trkpt lat="40.4222098" lon="15.5591097"><ele>474.0</ele><time>2026-04-25T13:22:31.464Z</time></trkpt><trkpt lat="40.4225242" lon="15.5590622"><ele>474.0</ele><time>2026-04-25T13:22:32.459Z</time></trkpt><trkpt lat="40.4228394" lon="15.559025"><ele>474.0</ele><time>2026-04-25T13:22:33.445Z</time></trkpt><trkpt lat="40.4231556" lon="15.5590078"><ele>474.0</ele><time>2026-04-25T13:22:34.451Z</time></trkpt><trkpt lat="40.4234754" lon="15.5589886"><ele>474.0</ele><time>2026-04-25T13:22:35.465Z</time></trkpt><trkpt lat="40.4237922" lon="15.5589846"><ele>473.5</ele><time>2026-04-25T13:22:36.462Z</time></trkpt><trkpt lat="40.424109" lon="15.5589885"><ele>473.0</ele><time>2026-04-25T13:22:37.467Z</time></trkpt><trkpt lat="40.4244279" lon="15.5590007"><ele>472.0</ele><time>2026-04-25T13:22:38.451Z</time></trkpt><trkpt lat="40.4247471" lon="15.5590193"><ele>471.0</ele><time>2026-04-25T13:22:39.454Z</time></trkpt><trkpt lat="40.4250657" lon="15.5590412"><ele>471.0</ele><time>2026-04-25T13:22:40.456Z</time></trkpt><trkpt lat="40.4253849" lon="15.5590607"><ele>471.0</ele><time>2026-04-25T13:22:41.447Z</time></trkpt><trkpt lat="40.425704" lon="15.5590878"><ele>471.5</ele><time>2026-04-25T13:22:42.451Z</time></trkpt><trkpt lat="40.4260197" lon="15.55911"><ele>472.0</ele><time>2026-04-25T13:22:43.454Z</time></trkpt><trkpt lat="40.4263375" lon="15.5591297"><ele>472.0</ele><time>2026-04-25T13:22:44.442Z</time></trkpt><trkpt lat="40.4266548" lon="15.5591507"><ele>472.0</ele><time>2026-04-25T13:22:45.455Z</time></trkpt><trkpt lat="40.4269718" lon="15.5591625"><ele>471.5</ele><time>2026-04-25T13:22:46.458Z</time></trkpt><trkpt lat="40.4272888" lon="15.5591646"><ele>471.0</ele><time>2026-04-25T13:22:47.454Z</time></trkpt><trkpt lat="40.4276063" lon="15.5591538"><ele>471.0</ele><time>2026-04-25T13:22:48.454Z</time></trkpt><trkpt lat="40.4279227" lon="15.5591279"><ele>471.0</ele><time>2026-04-25T13:22:49.447Z</time></trkpt><trkpt lat="40.4282376" lon="15.5590867"><ele>471.0</ele><time>2026-04-25T13:22:50.448Z</time></trkpt><trkpt lat="40.4285526" lon="15.559033"><ele>471.0</ele><time>2026-04-25T13:22:51.45Z</time></trkpt><trkpt lat="40.4288661" lon="15.5589699"><ele>470.0</ele><time>2026-04-25T13:22:52.456Z</time></trkpt><trkpt lat="40.429178" lon="15.5588912"><ele>469.0</ele><time>2026-04-25T13:22:53.452Z</time></trkpt><trkpt lat="40.4294882" lon="15.5588009"><ele>468.5</ele><time>2026-04-25T13:22:54.458Z</time></trkpt><trkpt lat="40.4297957" lon="15.558695"><ele>468.0</ele><time>2026-04-25T13:22:55.458Z</time></trkpt><trkpt lat="40.4301001" lon="15.5585749"><ele>468.0</ele><time>2026-04-25T13:22:56.449Z</time></trkpt><trkpt lat="40.4304013" lon="15.5584438"><ele>468.0</ele><time>2026-04-25T13:22:57.452Z</time></trkpt><trkpt lat="40.4307006" lon="15.5583087"><ele>467.5</ele><time>2026-04-25T13:22:58.455Z</time></trkpt><trkpt lat="40.4310004" lon="15.5581693"><ele>467.0</ele><time>2026-04-25T13:22:59.458Z</time></trkpt><trkpt lat="40.4312991" lon="15.5580256"><ele>466.0</ele><time>2026-04-25T13:23:00.45Z</time></trkpt><trkpt lat="40.4316006" lon="15.5578856"><ele>465.0</ele><time>2026-04-25T13:23:01.451Z</time></trkpt><trkpt lat="40.4318955" lon="15.5577473"><ele>462.5</ele><time>2026-04-25T13:23:02.459Z</time></trkpt><trkpt lat="40.4321935" lon="15.5576043"><ele>460.0</ele><time>2026-04-25T13:23:03.447Z</time></trkpt><trkpt lat="40.432493" lon="15.557466"><ele>460.0</ele><time>2026-04-25T13:23:04.452Z</time></trkpt><trkpt lat="40.4327888" lon="15.5573246"><ele>460.0</ele><time>2026-04-25T13:23:05.454Z</time></trkpt><trkpt lat="40.4330844" lon="15.5571819"><ele>459.5</ele><time>2026-04-25T13:23:06.445Z</time></trkpt><trkpt lat="40.4333813" lon="15.5570391"><ele>459.0</ele><time>2026-04-25T13:23:07.45Z</time></trkpt><trkpt lat="40.4336802" lon="15.5568975"><ele>459.0</ele><time>2026-04-25T13:23:08.459Z</time></trkpt><trkpt lat="40.4339793" lon="15.5567586"><ele>459.0</ele><time>2026-04-25T13:23:09.461Z</time></trkpt><trkpt lat="40.4342794" lon="15.5566213"><ele>459.0</ele><time>2026-04-25T13:23:10.462Z</time></trkpt><trkpt lat="40.4345788" lon="15.5564846"><ele>459.0</ele><time>2026-04-25T13:23:11.481Z</time></trkpt><trkpt lat="40.4348757" lon="15.5563456"><ele>460.5</ele><time>2026-04-25T13:23:12.453Z</time></trkpt><trkpt lat="40.4351704" lon="15.5562053"><ele>462.0</ele><time>2026-04-25T13:23:13.452Z</time></trkpt><trkpt lat="40.4354598" lon="15.5560655"><ele>461.0</ele><time>2026-04-25T13:23:14.459Z</time></trkpt><trkpt lat="40.4357494" lon="15.5559226"><ele>460.0</ele><time>2026-04-25T13:23:15.456Z</time></trkpt><trkpt lat="40.4360234" lon="15.555776"><ele>460.0</ele><time>2026-04-25T13:23:16.447Z</time></trkpt><trkpt lat="40.4362962" lon="15.5556246"><ele>460.0</ele><time>2026-04-25T13:23:17.443Z</time></trkpt><trkpt lat="40.4365649" lon="15.5554622"><ele>459.0</ele><time>2026-04-25T13:23:18.45Z</time></trkpt><trkpt lat="40.4368252" lon="15.5552905"><ele>458.0</ele><time>2026-04-25T13:23:19.448Z</time></trkpt><trkpt lat="40.4370872" lon="15.5551096"><ele>460.0</ele><time>2026-04-25T13:23:20.453Z</time></trkpt><trkpt lat="40.4373498" lon="15.5549023"><ele>462.0</ele><time>2026-04-25T13:23:21.459Z</time></trkpt><trkpt lat="40.4376083" lon="15.5546875"><ele>463.0</ele><time>2026-04-25T13:23:22.45Z</time></trkpt><trkpt lat="40.4378698" lon="15.5544594"><ele>464.0</ele><time>2026-04-25T13:23:23.456Z</time></trkpt><trkpt lat="40.4381282" lon="15.554221"><ele>464.0</ele><time>2026-04-25T13:23:24.457Z</time></trkpt><trkpt lat="40.4383809" lon="15.5539672"><ele>464.0</ele><time>2026-04-25T13:23:25.446Z</time></trkpt><trkpt lat="40.4386312" lon="15.5537104"><ele>464.5</ele><time>2026-04-25T13:23:26.453Z</time></trkpt><trkpt lat="40.4388781" lon="15.5534457"><ele>465.0</ele><time>2026-04-25T13:23:27.453Z</time></trkpt><trkpt lat="40.4391242" lon="15.5531804"><ele>465.0</ele><time>2026-04-25T13:23:28.442Z</time></trkpt><trkpt lat="40.4393726" lon="15.5529149"><ele>465.0</ele><time>2026-04-25T13:23:29.452Z</time></trkpt><trkpt lat="40.4396204" lon="15.5526551"><ele>466.0</ele><time>2026-04-25T13:23:30.453Z</time></trkpt><trkpt lat="40.43987" lon="15.552402"><ele>467.0</ele><time>2026-04-25T13:23:31.449Z</time></trkpt><trkpt lat="40.4401254" lon="15.5521601"><ele>468.0</ele><time>2026-04-25T13:23:32.455Z</time></trkpt><trkpt lat="40.4403884" lon="15.5519307"><ele>469.0</ele><time>2026-04-25T13:23:33.452Z</time></trkpt><trkpt lat="40.4406587" lon="15.5517142"><ele>469.0</ele><time>2026-04-25T13:23:34.457Z</time></trkpt><trkpt lat="40.4409325" lon="15.5515099"><ele>469.0</ele><time>2026-04-25T13:23:35.45Z</time></trkpt><trkpt lat="40.4412138" lon="15.5513201"><ele>468.0</ele><time>2026-04-25T13:23:36.448Z</time></trkpt><trkpt lat="40.4414986" lon="15.5511392"><ele>467.0</ele><time>2026-04-25T13:23:37.464Z</time></trkpt><trkpt lat="40.4417885" lon="15.5509678"><ele>467.0</ele><time>2026-04-25T13:23:38.461Z</time></trkpt><trkpt lat="40.4420788" lon="15.550802"><ele>467.0</ele><time>2026-04-25T13:23:39.443Z</time></trkpt><trkpt lat="40.4423688" lon="15.5506401"><ele>468.5</ele><time>2026-04-25T13:23:40.454Z</time></trkpt><trkpt lat="40.442661" lon="15.5504807"><ele>470.0</ele><time>2026-04-25T13:23:41.445Z</time></trkpt><trkpt lat="40.4429535" lon="15.5503215"><ele>468.0</ele><time>2026-04-25T13:23:42.448Z</time></trkpt><trkpt lat="40.4432456" lon="15.550163"><ele>466.0</ele><time>2026-04-25T13:23:43.452Z</time></trkpt><trkpt lat="40.4435388" lon="15.5500033"><ele>467.0</ele><time>2026-04-25T13:23:44.454Z</time></trkpt><trkpt lat="40.4438306" lon="15.5498443"><ele>468.0</ele><time>2026-04-25T13:23:45.452Z</time></trkpt><trkpt lat="40.4441231" lon="15.5496846"><ele>468.5</ele><time>2026-04-25T13:23:46.449Z</time></trkpt><trkpt lat="40.4444142" lon="15.5495214"><ele>469.0</ele><time>2026-04-25T13:23:47.449Z</time></trkpt><trkpt lat="40.4447042" lon="15.5493547"><ele>469.0</ele><time>2026-04-25T13:23:48.449Z</time></trkpt><trkpt lat="40.4449907" lon="15.54918"><ele>469.0</ele><time>2026-04-25T13:23:49.46Z</time></trkpt><trkpt lat="40.4452734" lon="15.5489926"><ele>469.5</ele><time>2026-04-25T13:23:50.459Z</time></trkpt><trkpt lat="40.4455527" lon="15.5487932"><ele>470.0</ele><time>2026-04-25T13:23:51.446Z</time></trkpt><trkpt lat="40.4458278" lon="15.5485845"><ele>470.0</ele><time>2026-04-25T13:23:52.449Z</time></trkpt><trkpt lat="40.4460993" lon="15.5483676"><ele>470.0</ele><time>2026-04-25T13:23:53.445Z</time></trkpt><trkpt lat="40.446369" lon="15.5481463"><ele>467.5</ele><time>2026-04-25T13:23:54.444Z</time></trkpt><trkpt lat="40.4466424" lon="15.5479293"><ele>465.0</ele><time>2026-04-25T13:23:55.448Z</time></trkpt><trkpt lat="40.446913" lon="15.5477047"><ele>474.0</ele><time>2026-04-25T13:23:56.454Z</time></trkpt><trkpt lat="40.4471801" lon="15.5474837"><ele>483.0</ele><time>2026-04-25T13:23:57.45Z</time></trkpt><trkpt lat="40.4474468" lon="15.5472607"><ele>481.5</ele><time>2026-04-25T13:23:58.446Z</time></trkpt><trkpt lat="40.4477099" lon="15.5470395"><ele>480.0</ele><time>2026-04-25T13:23:59.448Z</time></trkpt><trkpt lat="40.4479775" lon="15.5468113"><ele>480.0</ele><time>2026-04-25T13:24:00.45Z</time></trkpt><trkpt lat="40.4482437" lon="15.5465866"><ele>480.0</ele><time>2026-04-25T13:24:01.454Z</time></trkpt><trkpt lat="40.4485106" lon="15.5463574"><ele>476.5</ele><time>2026-04-25T13:24:02.445Z</time></trkpt><trkpt lat="40.4487777" lon="15.5461318"><ele>473.0</ele><time>2026-04-25T13:24:03.453Z</time></trkpt><trkpt lat="40.449044" lon="15.5459037"><ele>473.0</ele><time>2026-04-25T13:24:04.456Z</time></trkpt><trkpt lat="40.4493104" lon="15.5456779"><ele>473.0</ele><time>2026-04-25T13:24:05.448Z</time></trkpt><trkpt lat="40.449577" lon="15.5454539"><ele>471.0</ele><time>2026-04-25T13:24:06.46Z</time></trkpt><trkpt lat="40.4498469" lon="15.5452327"><ele>469.0</ele><time>2026-04-25T13:24:07.452Z</time></trkpt><trkpt lat="40.450117" lon="15.5450152"><ele>469.0</ele><time>2026-04-25T13:24:08.45Z</time></trkpt><trkpt lat="40.4503914" lon="15.5448044"><ele>469.0</ele><time>2026-04-25T13:24:09.463Z</time></trkpt><trkpt lat="40.4506692" lon="15.5446024"><ele>465.5</ele><time>2026-04-25T13:24:10.455Z</time></trkpt><trkpt lat="40.4509519" lon="15.5444128"><ele>462.0</ele><time>2026-04-25T13:24:11.449Z</time></trkpt><trkpt lat="40.4512408" lon="15.5442412"><ele>470.5</ele><time>2026-04-25T13:24:12.452Z</time></trkpt><trkpt lat="40.4515347" lon="15.5440848"><ele>479.0</ele><time>2026-04-25T13:24:13.461Z</time></trkpt><trkpt lat="40.4518305" lon="15.543942"><ele>472.0</ele><time>2026-04-25T13:24:14.452Z</time></trkpt><trkpt lat="40.4521309" lon="15.5438136"><ele>465.0</ele><time>2026-04-25T13:24:15.444Z</time></trkpt><trkpt lat="40.4524339" lon="15.5437006"><ele>465.0</ele><time>2026-04-25T13:24:16.452Z</time></trkpt><trkpt lat="40.4527394" lon="15.5435995"><ele>465.0</ele><time>2026-04-25T13:24:17.456Z</time></trkpt><trkpt lat="40.4530483" lon="15.5435116"><ele>467.0</ele><time>2026-04-25T13:24:18.453Z</time></trkpt><trkpt lat="40.4533602" lon="15.5434386"><ele>469.0</ele><time>2026-04-25T13:24:19.475Z</time></trkpt><trkpt lat="40.4536735" lon="15.5433808"><ele>469.0</ele><time>2026-04-25T13:24:20.453Z</time></trkpt><trkpt lat="40.4539885" lon="15.543338"><ele>469.0</ele><time>2026-04-25T13:24:21.456Z</time></trkpt><trkpt lat="40.454304" lon="15.5433102"><ele>469.0</ele><time>2026-04-25T13:24:22.449Z</time></trkpt><trkpt lat="40.45462" lon="15.5432927"><ele>469.0</ele><time>2026-04-25T13:24:23.452Z</time></trkpt><trkpt lat="40.4549352" lon="15.5432831"><ele>470.5</ele><time>2026-04-25T13:24:24.453Z</time></trkpt><trkpt lat="40.4552497" lon="15.5432806"><ele>472.0</ele><time>2026-04-25T13:24:25.453Z</time></trkpt><trkpt lat="40.4555638" lon="15.5432763"><ele>473.0</ele><time>2026-04-25T13:24:26.452Z</time></trkpt><trkpt lat="40.45588" lon="15.5432663"><ele>474.0</ele><time>2026-04-25T13:24:27.449Z</time></trkpt><trkpt lat="40.4561949" lon="15.5432521"><ele>473.5</ele><time>2026-04-25T13:24:28.453Z</time></trkpt><trkpt lat="40.4565092" lon="15.5432308"><ele>473.0</ele><time>2026-04-25T13:24:29.456Z</time></trkpt><trkpt lat="40.4568239" lon="15.5432013"><ele>474.0</ele><time>2026-04-25T13:24:30.452Z</time></trkpt><trkpt lat="40.4571402" lon="15.5431634"><ele>475.0</ele><time>2026-04-25T13:24:31.455Z</time></trkpt><trkpt lat="40.4574553" lon="15.5431106"><ele>475.0</ele><time>2026-04-25T13:24:32.444Z</time></trkpt><trkpt lat="40.4577663" lon="15.5430432"><ele>475.0</ele><time>2026-04-25T13:24:33.447Z</time></trkpt><trkpt lat="40.4580754" lon="15.542967"><ele>472.5</ele><time>2026-04-25T13:24:34.451Z</time></trkpt><trkpt lat="40.4583842" lon="15.5428766"><ele>470.0</ele><time>2026-04-25T13:24:35.457Z</time></trkpt><trkpt lat="40.4586925" lon="15.5427704"><ele>471.5</ele><time>2026-04-25T13:24:36.458Z</time></trkpt><trkpt lat="40.4589983" lon="15.5426511"><ele>473.0</ele><time>2026-04-25T13:24:37.452Z</time></trkpt><trkpt lat="40.4593001" lon="15.5425186"><ele>473.0</ele><time>2026-04-25T13:24:38.452Z</time></trkpt><trkpt lat="40.4595988" lon="15.5423749"><ele>473.0</ele><time>2026-04-25T13:24:39.456Z</time></trkpt><trkpt lat="40.4598946" lon="15.5422221"><ele>472.5</ele><time>2026-04-25T13:24:40.451Z</time></trkpt><trkpt lat="40.4601892" lon="15.5420636"><ele>472.0</ele><time>2026-04-25T13:24:41.447Z</time></trkpt><trkpt lat="40.4604823" lon="15.5419049"><ele>472.0</ele><time>2026-04-25T13:24:42.445Z</time></trkpt><trkpt lat="40.4607756" lon="15.5417453"><ele>472.0</ele><time>2026-04-25T13:24:43.452Z</time></trkpt><trkpt lat="40.4610696" lon="15.5415867"><ele>478.0</ele><time>2026-04-25T13:24:44.454Z</time></trkpt><trkpt lat="40.4613633" lon="15.5414284"><ele>484.0</ele><time>2026-04-25T13:24:45.446Z</time></trkpt><trkpt lat="40.4616571" lon="15.5412703"><ele>479.5</ele><time>2026-04-25T13:24:46.461Z</time></trkpt><trkpt lat="40.4619512" lon="15.5411129"><ele>475.0</ele><time>2026-04-25T13:24:47.452Z</time></trkpt><trkpt lat="40.4622453" lon="15.5409564"><ele>475.0</ele><time>2026-04-25T13:24:48.443Z</time></trkpt><trkpt lat="40.4625392" lon="15.540802"><ele>475.0</ele><time>2026-04-25T13:24:49.455Z</time></trkpt><trkpt lat="40.4628344" lon="15.5406509"><ele>480.0</ele><time>2026-04-25T13:24:50.457Z</time></trkpt><trkpt lat="40.4631321" lon="15.540505"><ele>485.0</ele><time>2026-04-25T13:24:51.451Z</time></trkpt><trkpt lat="40.4634324" lon="15.5403687"><ele>475.0</ele><time>2026-04-25T13:24:52.465Z</time></trkpt><trkpt lat="40.4637352" lon="15.5402386"><ele>465.0</ele><time>2026-04-25T13:24:53.463Z</time></trkpt><trkpt lat="40.4640388" lon="15.5401158"><ele>465.0</ele><time>2026-04-25T13:24:54.446Z</time></trkpt><trkpt lat="40.4643442" lon="15.539999"><ele>465.0</ele><time>2026-04-25T13:24:55.463Z</time></trkpt><trkpt lat="40.4646498" lon="15.5398865"><ele>465.5</ele><time>2026-04-25T13:24:56.454Z</time></trkpt><trkpt lat="40.4649564" lon="15.5397796"><ele>466.0</ele><time>2026-04-25T13:24:57.444Z</time></trkpt><trkpt lat="40.4652646" lon="15.5396774"><ele>466.0</ele><time>2026-04-25T13:24:58.462Z</time></trkpt><trkpt lat="40.4655726" lon="15.5395769"><ele>466.0</ele><time>2026-04-25T13:24:59.455Z</time></trkpt><trkpt lat="40.4658811" lon="15.5394772"><ele>463.0</ele><time>2026-04-25T13:25:00.45Z</time></trkpt><trkpt lat="40.46619" lon="15.5393782"><ele>460.0</ele><time>2026-04-25T13:25:01.452Z</time></trkpt><trkpt lat="40.4664995" lon="15.5392807"><ele>460.0</ele><time>2026-04-25T13:25:02.449Z</time></trkpt><trkpt lat="40.4668093" lon="15.5391847"><ele>460.0</ele><time>2026-04-25T13:25:03.45Z</time></trkpt><trkpt lat="40.4671188" lon="15.5390898"><ele>460.5</ele><time>2026-04-25T13:25:04.456Z</time></trkpt><trkpt lat="40.4674281" lon="15.5389959"><ele>461.0</ele><time>2026-04-25T13:25:05.45Z</time></trkpt><trkpt lat="40.467737" lon="15.5389006"><ele>462.0</ele><time>2026-04-25T13:25:06.445Z</time></trkpt><trkpt lat="40.4680468" lon="15.5388062"><ele>463.0</ele><time>2026-04-25T13:25:07.45Z</time></trkpt><trkpt lat="40.4683554" lon="15.5387269"><ele>461.5</ele><time>2026-04-25T13:25:08.451Z</time></trkpt><trkpt lat="40.4686631" lon="15.5386421"><ele>460.0</ele><time>2026-04-25T13:25:09.46Z</time></trkpt><trkpt lat="40.4689762" lon="15.5385411"><ele>460.0</ele><time>2026-04-25T13:25:10.453Z</time></trkpt><trkpt lat="40.4692824" lon="15.538463"><ele>460.0</ele><time>2026-04-25T13:25:11.46Z</time></trkpt><trkpt lat="40.4695973" lon="15.5383939"><ele>457.0</ele><time>2026-04-25T13:25:12.477Z</time></trkpt><trkpt lat="40.4702254" lon="15.5382837"><ele>457.0</ele><time>2026-04-25T13:25:14.471Z</time></trkpt><trkpt lat="40.4705386" lon="15.5382366"><ele>457.0</ele><time>2026-04-25T13:25:15.46Z</time></trkpt><trkpt lat="40.4708519" lon="15.5381904"><ele>457.0</ele><time>2026-04-25T13:25:16.449Z</time></trkpt><trkpt lat="40.4711683" lon="15.5381435"><ele>457.0</ele><time>2026-04-25T13:25:17.464Z</time></trkpt><trkpt lat="40.4714803" lon="15.5380971"><ele>458.0</ele><time>2026-04-25T13:25:18.454Z</time></trkpt><trkpt lat="40.4717951" lon="15.5380469"><ele>459.0</ele><time>2026-04-25T13:25:19.451Z</time></trkpt><trkpt lat="40.4721084" lon="15.53799"><ele>461.5</ele><time>2026-04-25T13:25:20.457Z</time></trkpt><trkpt lat="40.4724216" lon="15.5379275"><ele>464.0</ele><time>2026-04-25T13:25:21.462Z</time></trkpt><trkpt lat="40.4727337" lon="15.5378589"><ele>459.0</ele><time>2026-04-25T13:25:22.448Z</time></trkpt><trkpt lat="40.4730445" lon="15.5377844"><ele>454.0</ele><time>2026-04-25T13:25:23.458Z</time></trkpt><trkpt lat="40.4733565" lon="15.5377024"><ele>454.0</ele><time>2026-04-25T13:25:24.458Z</time></trkpt><trkpt lat="40.4736657" lon="15.5376092"><ele>454.0</ele><time>2026-04-25T13:25:25.446Z</time></trkpt><trkpt lat="40.4739738" lon="15.5375047"><ele>457.5</ele><time>2026-04-25T13:25:26.461Z</time></trkpt><trkpt lat="40.4742787" lon="15.5373877"><ele>461.0</ele><time>2026-04-25T13:25:27.455Z</time></trkpt><trkpt lat="40.4745819" lon="15.5372612"><ele>457.5</ele><time>2026-04-25T13:25:28.443Z</time></trkpt><trkpt lat="40.474883" lon="15.5371273"><ele>454.0</ele><time>2026-04-25T13:25:29.454Z</time></trkpt><trkpt lat="40.4751829" lon="15.5369898"><ele>457.5</ele><time>2026-04-25T13:25:30.448Z</time></trkpt><trkpt lat="40.4754817" lon="15.5368502"><ele>461.0</ele><time>2026-04-25T13:25:31.45Z</time></trkpt><trkpt lat="40.4757808" lon="15.5367106"><ele>461.0</ele><time>2026-04-25T13:25:32.454Z</time></trkpt><trkpt lat="40.4760792" lon="15.5365692"><ele>461.0</ele><time>2026-04-25T13:25:33.45Z</time></trkpt><trkpt lat="40.4763771" lon="15.5364257"><ele>459.0</ele><time>2026-04-25T13:25:34.454Z</time></trkpt><trkpt lat="40.4766734" lon="15.53628"><ele>457.0</ele><time>2026-04-25T13:25:35.451Z</time></trkpt><trkpt lat="40.4769678" lon="15.5361312"><ele>461.0</ele><time>2026-04-25T13:25:36.459Z</time></trkpt><trkpt lat="40.477262" lon="15.5359829"><ele>465.0</ele><time>2026-04-25T13:25:37.45Z</time></trkpt><trkpt lat="40.477557" lon="15.5358332"><ele>465.0</ele><time>2026-04-25T13:25:38.45Z</time></trkpt><trkpt lat="40.4778525" lon="15.5356838"><ele>465.0</ele><time>2026-04-25T13:25:39.448Z</time></trkpt><trkpt lat="40.4781476" lon="15.5355322"><ele>460.5</ele><time>2026-04-25T13:25:40.449Z</time></trkpt><trkpt lat="40.4784438" lon="15.5353803"><ele>456.0</ele><time>2026-04-25T13:25:41.455Z</time></trkpt><trkpt lat="40.4787389" lon="15.5352254"><ele>460.0</ele><time>2026-04-25T13:25:42.447Z</time></trkpt><trkpt lat="40.4790337" lon="15.5350698"><ele>464.0</ele><time>2026-04-25T13:25:43.446Z</time></trkpt><trkpt lat="40.4793268" lon="15.5349115"><ele>467.0</ele><time>2026-04-25T13:25:44.454Z</time></trkpt><trkpt lat="40.4796202" lon="15.5347515"><ele>470.0</ele><time>2026-04-25T13:25:45.46Z</time></trkpt><trkpt lat="40.4799128" lon="15.5345916"><ele>467.0</ele><time>2026-04-25T13:25:46.455Z</time></trkpt><trkpt lat="40.4802045" lon="15.5344307"><ele>464.0</ele><time>2026-04-25T13:25:47.459Z</time></trkpt><trkpt lat="40.4804971" lon="15.5342686"><ele>464.0</ele><time>2026-04-25T13:25:48.457Z</time></trkpt><trkpt lat="40.4807886" lon="15.5341056"><ele>464.0</ele><time>2026-04-25T13:25:49.448Z</time></trkpt><trkpt lat="40.4810799" lon="15.533941"><ele>463.5</ele><time>2026-04-25T13:25:50.454Z</time></trkpt><trkpt lat="40.4813705" lon="15.5337758"><ele>463.0</ele><time>2026-04-25T13:25:51.449Z</time></trkpt><trkpt lat="40.4816602" lon="15.5336089"><ele>463.0</ele><time>2026-04-25T13:25:52.451Z</time></trkpt><trkpt lat="40.4819485" lon="15.5334392"><ele>463.0</ele><time>2026-04-25T13:25:53.445Z</time></trkpt><trkpt lat="40.482238" lon="15.5332684"><ele>467.0</ele><time>2026-04-25T13:25:54.452Z</time></trkpt><trkpt lat="40.4825282" lon="15.5330982"><ele>471.0</ele><time>2026-04-25T13:25:55.455Z</time></trkpt><trkpt lat="40.4828186" lon="15.5329271"><ele>468.5</ele><time>2026-04-25T13:25:56.452Z</time></trkpt><trkpt lat="40.483108" lon="15.532754"><ele>466.0</ele><time>2026-04-25T13:25:57.451Z</time></trkpt><trkpt lat="40.4833964" lon="15.5325772"><ele>466.0</ele><time>2026-04-25T13:25:58.451Z</time></trkpt><trkpt lat="40.4836837" lon="15.5323971"><ele>466.0</ele><time>2026-04-25T13:25:59.454Z</time></trkpt><trkpt lat="40.4839706" lon="15.5322142"><ele>463.5</ele><time>2026-04-25T13:26:00.449Z</time></trkpt><trkpt lat="40.4842567" lon="15.5320299"><ele>461.0</ele><time>2026-04-25T13:26:01.449Z</time></trkpt><trkpt lat="40.4845414" lon="15.5318445"><ele>462.5</ele><time>2026-04-25T13:26:02.461Z</time></trkpt><trkpt lat="40.4848239" lon="15.5316526"><ele>464.0</ele><time>2026-04-25T13:26:03.451Z</time></trkpt><trkpt lat="40.4851015" lon="15.5314491"><ele>464.0</ele><time>2026-04-25T13:26:04.452Z</time></trkpt><trkpt lat="40.4853735" lon="15.5312317"><ele>464.0</ele><time>2026-04-25T13:26:05.456Z</time></trkpt><trkpt lat="40.4856391" lon="15.5310003"><ele>461.0</ele><time>2026-04-25T13:26:06.449Z</time></trkpt><trkpt lat="40.4858982" lon="15.5307581"><ele>458.0</ele><time>2026-04-25T13:26:07.45Z</time></trkpt><trkpt lat="40.4861517" lon="15.5305079"><ele>457.0</ele><time>2026-04-25T13:26:08.459Z</time></trkpt><trkpt lat="40.4864005" lon="15.5302504"><ele>456.0</ele><time>2026-04-25T13:26:09.457Z</time></trkpt><trkpt lat="40.4866446" lon="15.5299834"><ele>456.0</ele><time>2026-04-25T13:26:10.452Z</time></trkpt><trkpt lat="40.4868829" lon="15.5297051"><ele>456.0</ele><time>2026-04-25T13:26:11.448Z</time></trkpt><trkpt lat="40.4871131" lon="15.529418"><ele>454.5</ele><time>2026-04-25T13:26:12.454Z</time></trkpt><trkpt lat="40.4873357" lon="15.52912"><ele>453.0</ele><time>2026-04-25T13:26:13.456Z</time></trkpt><trkpt lat="40.4875533" lon="15.5288156"><ele>451.5</ele><time>2026-04-25T13:26:14.45Z</time></trkpt><trkpt lat="40.4877693" lon="15.5285106"><ele>450.0</ele><time>2026-04-25T13:26:15.449Z</time></trkpt><trkpt lat="40.487985" lon="15.5282063"><ele>450.0</ele><time>2026-04-25T13:26:16.452Z</time></trkpt><trkpt lat="40.4881991" lon="15.5278999"><ele>450.0</ele><time>2026-04-25T13:26:17.457Z</time></trkpt><trkpt lat="40.4884121" lon="15.5275911"><ele>449.0</ele><time>2026-04-25T13:26:18.455Z</time></trkpt><trkpt lat="40.488624" lon="15.5272817"><ele>448.0</ele><time>2026-04-25T13:26:19.457Z</time></trkpt><trkpt lat="40.4888373" lon="15.5269737"><ele>447.0</ele><time>2026-04-25T13:26:20.452Z</time></trkpt><trkpt lat="40.4890531" lon="15.5266697"><ele>446.0</ele><time>2026-04-25T13:26:21.454Z</time></trkpt><trkpt lat="40.489272" lon="15.5263692"><ele>445.5</ele><time>2026-04-25T13:26:22.451Z</time></trkpt><trkpt lat="40.4894937" lon="15.5260723"><ele>445.0</ele><time>2026-04-25T13:26:23.45Z</time></trkpt><trkpt lat="40.4897207" lon="15.5257821"><ele>445.0</ele><time>2026-04-25T13:26:24.45Z</time></trkpt><trkpt lat="40.4899523" lon="15.5254997"><ele>445.0</ele><time>2026-04-25T13:26:25.458Z</time></trkpt><trkpt lat="40.4901889" lon="15.5252224"><ele>443.5</ele><time>2026-04-25T13:26:26.454Z</time></trkpt><trkpt lat="40.4904318" lon="15.5249542"><ele>442.0</ele><time>2026-04-25T13:26:27.452Z</time></trkpt><trkpt lat="40.4906837" lon="15.5247011"><ele>442.5</ele><time>2026-04-25T13:26:28.448Z</time></trkpt><trkpt lat="40.4909444" lon="15.5244644"><ele>443.0</ele><time>2026-04-25T13:26:29.46Z</time></trkpt><trkpt lat="40.4912131" lon="15.5242423"><ele>442.0</ele><time>2026-04-25T13:26:30.451Z</time></trkpt><trkpt lat="40.4914885" lon="15.5240354"><ele>441.0</ele><time>2026-04-25T13:26:31.451Z</time></trkpt><trkpt lat="40.4917711" lon="15.5238478"><ele>441.5</ele><time>2026-04-25T13:26:32.45Z</time></trkpt><trkpt lat="40.4920608" lon="15.5236788"><ele>442.0</ele><time>2026-04-25T13:26:33.45Z</time></trkpt><trkpt lat="40.4923563" lon="15.5235268"><ele>442.0</ele><time>2026-04-25T13:26:34.444Z</time></trkpt><trkpt lat="40.4926554" lon="15.523387"><ele>442.0</ele><time>2026-04-25T13:26:35.458Z</time></trkpt><trkpt lat="40.4929582" lon="15.5232616"><ele>441.5</ele><time>2026-04-25T13:26:36.463Z</time></trkpt><trkpt lat="40.4932639" lon="15.5231517"><ele>441.0</ele><time>2026-04-25T13:26:37.449Z</time></trkpt><trkpt lat="40.4935718" lon="15.5230566"><ele>442.0</ele><time>2026-04-25T13:26:38.449Z</time></trkpt><trkpt lat="40.4938811" lon="15.5229747"><ele>443.0</ele><time>2026-04-25T13:26:39.457Z</time></trkpt><trkpt lat="40.4941919" lon="15.5229002"><ele>443.0</ele><time>2026-04-25T13:26:40.453Z</time></trkpt><trkpt lat="40.4945029" lon="15.5228365"><ele>443.0</ele><time>2026-04-25T13:26:41.453Z</time></trkpt><trkpt lat="40.4948154" lon="15.5227823"><ele>444.0</ele><time>2026-04-25T13:26:42.445Z</time></trkpt><trkpt lat="40.4951287" lon="15.5227373"><ele>445.0</ele><time>2026-04-25T13:26:43.451Z</time></trkpt><trkpt lat="40.4954432" lon="15.5227022"><ele>445.5</ele><time>2026-04-25T13:26:44.452Z</time></trkpt><trkpt lat="40.4957582" lon="15.5226746"><ele>446.0</ele><time>2026-04-25T13:26:45.446Z</time></trkpt><trkpt lat="40.4960733" lon="15.5226501"><ele>448.5</ele><time>2026-04-25T13:26:46.447Z</time></trkpt><trkpt lat="40.4963888" lon="15.5226256"><ele>451.0</ele><time>2026-04-25T13:26:47.448Z</time></trkpt><trkpt lat="40.4967047" lon="15.5226014"><ele>451.0</ele><time>2026-04-25T13:26:48.446Z</time></trkpt><trkpt lat="40.4970208" lon="15.5225775"><ele>451.0</ele><time>2026-04-25T13:26:49.454Z</time></trkpt><trkpt lat="40.4973382" lon="15.5225554"><ele>454.5</ele><time>2026-04-25T13:26:50.45Z</time></trkpt><trkpt lat="40.497658" lon="15.5225276"><ele>458.0</ele><time>2026-04-25T13:26:51.451Z</time></trkpt><trkpt lat="40.4979747" lon="15.5224978"><ele>460.5</ele><time>2026-04-25T13:26:52.448Z</time></trkpt><trkpt lat="40.4982915" lon="15.5224651"><ele>463.0</ele><time>2026-04-25T13:26:53.453Z</time></trkpt><trkpt lat="40.4986062" lon="15.5224266"><ele>464.5</ele><time>2026-04-25T13:26:54.455Z</time></trkpt><trkpt lat="40.4989209" lon="15.5223809"><ele>466.0</ele><time>2026-04-25T13:26:55.461Z</time></trkpt><trkpt lat="40.4992348" lon="15.5223282"><ele>466.0</ele><time>2026-04-25T13:26:56.449Z</time></trkpt><trkpt lat="40.4995477" lon="15.5222657"><ele>466.0</ele><time>2026-04-25T13:26:57.446Z</time></trkpt><trkpt lat="40.4998608" lon="15.5221972"><ele>465.0</ele><time>2026-04-25T13:26:58.455Z</time></trkpt><trkpt lat="40.5001734" lon="15.5221233"><ele>464.0</ele><time>2026-04-25T13:26:59.449Z</time></trkpt><trkpt lat="40.5004845" lon="15.5220428"><ele>464.0</ele><time>2026-04-25T13:27:00.448Z</time></trkpt><trkpt lat="40.5007939" lon="15.5219535"><ele>464.0</ele><time>2026-04-25T13:27:01.452Z</time></trkpt><trkpt lat="40.5011023" lon="15.5218578"><ele>464.0</ele><time>2026-04-25T13:27:02.454Z</time></trkpt><trkpt lat="40.5014108" lon="15.5217583"><ele>464.0</ele><time>2026-04-25T13:27:03.449Z</time></trkpt><trkpt lat="40.5017193" lon="15.5216562"><ele>464.0</ele><time>2026-04-25T13:27:04.454Z</time></trkpt><trkpt lat="40.5020276" lon="15.5215511"><ele>464.0</ele><time>2026-04-25T13:27:05.457Z</time></trkpt><trkpt lat="40.5023354" lon="15.5214427"><ele>463.0</ele><time>2026-04-25T13:27:06.448Z</time></trkpt><trkpt lat="40.5026429" lon="15.52133"><ele>462.0</ele><time>2026-04-25T13:27:07.451Z</time></trkpt><trkpt lat="40.5029484" lon="15.5212126"><ele>459.5</ele><time>2026-04-25T13:27:08.453Z</time></trkpt><trkpt lat="40.5032528" lon="15.5210909"><ele>457.0</ele><time>2026-04-25T13:27:09.446Z</time></trkpt><trkpt lat="40.5035557" lon="15.5209655"><ele>457.0</ele><time>2026-04-25T13:27:10.457Z</time></trkpt><trkpt lat="40.5038577" lon="15.5208351"><ele>457.0</ele><time>2026-04-25T13:27:11.448Z</time></trkpt><trkpt lat="40.5041575" lon="15.5207004"><ele>457.0</ele><time>2026-04-25T13:27:12.45Z</time></trkpt><trkpt lat="40.504456" lon="15.5205633"><ele>457.0</ele><time>2026-04-25T13:27:13.453Z</time></trkpt><trkpt lat="40.5047542" lon="15.5204252"><ele>455.0</ele><time>2026-04-25T13:27:14.447Z</time></trkpt><trkpt lat="40.5050509" lon="15.520285"><ele>453.0</ele><time>2026-04-25T13:27:15.455Z</time></trkpt><trkpt lat="40.5053477" lon="15.5201424"><ele>455.0</ele><time>2026-04-25T13:27:16.452Z</time></trkpt><trkpt lat="40.5056432" lon="15.5199943"><ele>457.0</ele><time>2026-04-25T13:27:17.448Z</time></trkpt><trkpt lat="40.5059363" lon="15.5198398"><ele>457.0</ele><time>2026-04-25T13:27:18.45Z</time></trkpt><trkpt lat="40.5062283" lon="15.5196787"><ele>457.0</ele><time>2026-04-25T13:27:19.451Z</time></trkpt><trkpt lat="40.506518" lon="15.5195093"><ele>457.5</ele><time>2026-04-25T13:27:20.457Z</time></trkpt><trkpt lat="40.5068051" lon="15.5193325"><ele>458.0</ele><time>2026-04-25T13:27:21.468Z</time></trkpt><trkpt lat="40.5070886" lon="15.519148"><ele>461.5</ele><time>2026-04-25T13:27:22.448Z</time></trkpt><trkpt lat="40.5073686" lon="15.5189554"><ele>465.0</ele><time>2026-04-25T13:27:23.452Z</time></trkpt><trkpt lat="40.5076462" lon="15.5187576"><ele>463.5</ele><time>2026-04-25T13:27:24.443Z</time></trkpt><trkpt lat="40.5079221" lon="15.5185533"><ele>462.0</ele><time>2026-04-25T13:27:25.459Z</time></trkpt><trkpt lat="40.508196" lon="15.5183436"><ele>462.0</ele><time>2026-04-25T13:27:26.456Z</time></trkpt><trkpt lat="40.5084673" lon="15.518128"><ele>462.0</ele><time>2026-04-25T13:27:27.451Z</time></trkpt><trkpt lat="40.508735" lon="15.5179057"><ele>462.5</ele><time>2026-04-25T13:27:28.449Z</time></trkpt><trkpt lat="40.5090008" lon="15.5176787"><ele>463.0</ele><time>2026-04-25T13:27:29.452Z</time></trkpt><trkpt lat="40.509264" lon="15.5174452"><ele>463.0</ele><time>2026-04-25T13:27:30.461Z</time></trkpt><trkpt lat="40.5095246" lon="15.5172076"><ele>463.0</ele><time>2026-04-25T13:27:31.445Z</time></trkpt><trkpt lat="40.5097826" lon="15.5169644"><ele>463.5</ele><time>2026-04-25T13:27:32.456Z</time></trkpt><trkpt lat="40.5100382" lon="15.5167166"><ele>464.0</ele><time>2026-04-25T13:27:33.453Z</time></trkpt><trkpt lat="40.5102916" lon="15.5164649"><ele>466.0</ele><time>2026-04-25T13:27:34.449Z</time></trkpt><trkpt lat="40.5105427" lon="15.5162094"><ele>468.0</ele><time>2026-04-25T13:27:35.445Z</time></trkpt><trkpt lat="40.5107913" lon="15.5159497"><ele>468.0</ele><time>2026-04-25T13:27:36.454Z</time></trkpt><trkpt lat="40.5110368" lon="15.5156861"><ele>468.0</ele><time>2026-04-25T13:27:37.45Z</time></trkpt><trkpt lat="40.5112798" lon="15.5154199"><ele>468.5</ele><time>2026-04-25T13:27:38.445Z</time></trkpt><trkpt lat="40.5115226" lon="15.5151525"><ele>469.0</ele><time>2026-04-25T13:27:39.452Z</time></trkpt><trkpt lat="40.5117653" lon="15.5148841"><ele>469.0</ele><time>2026-04-25T13:27:40.451Z</time></trkpt><trkpt lat="40.5120078" lon="15.5146143"><ele>469.0</ele><time>2026-04-25T13:27:41.448Z</time></trkpt><trkpt lat="40.5122493" lon="15.5143433"><ele>470.0</ele><time>2026-04-25T13:27:42.45Z</time></trkpt><trkpt lat="40.5124903" lon="15.5140719"><ele>471.0</ele><time>2026-04-25T13:27:43.457Z</time></trkpt><trkpt lat="40.5127309" lon="15.5138001"><ele>470.0</ele><time>2026-04-25T13:27:44.448Z</time></trkpt><trkpt lat="40.5129709" lon="15.5135277"><ele>469.0</ele><time>2026-04-25T13:27:45.453Z</time></trkpt><trkpt lat="40.5132102" lon="15.5132547"><ele>469.0</ele><time>2026-04-25T13:27:46.447Z</time></trkpt><trkpt lat="40.5134502" lon="15.5129826"><ele>469.0</ele><time>2026-04-25T13:27:47.444Z</time></trkpt><trkpt lat="40.5136906" lon="15.5127111"><ele>469.0</ele><time>2026-04-25T13:27:48.446Z</time></trkpt><trkpt lat="40.5139299" lon="15.5124399"><ele>469.0</ele><time>2026-04-25T13:27:49.455Z</time></trkpt><trkpt lat="40.5141691" lon="15.5121686"><ele>468.5</ele><time>2026-04-25T13:27:50.45Z</time></trkpt><trkpt lat="40.5144087" lon="15.5118976"><ele>468.0</ele><time>2026-04-25T13:27:51.451Z</time></trkpt><trkpt lat="40.5146484" lon="15.5116262"><ele>468.0</ele><time>2026-04-25T13:27:52.449Z</time></trkpt><trkpt lat="40.5148874" lon="15.5113558"><ele>468.0</ele><time>2026-04-25T13:27:53.444Z</time></trkpt><trkpt lat="40.515127" lon="15.5110833"><ele>469.0</ele><time>2026-04-25T13:27:54.456Z</time></trkpt><trkpt lat="40.5153662" lon="15.5108096"><ele>470.0</ele><time>2026-04-25T13:27:55.47Z</time></trkpt><trkpt lat="40.5156062" lon="15.5105358"><ele>473.5</ele><time>2026-04-25T13:27:56.44Z</time></trkpt><trkpt lat="40.515846" lon="15.5102619"><ele>477.0</ele><time>2026-04-25T13:27:57.464Z</time></trkpt><trkpt lat="40.5160844" lon="15.5099876"><ele>477.5</ele><time>2026-04-25T13:27:58.454Z</time></trkpt><trkpt lat="40.5163223" lon="15.5097142"><ele>478.0</ele><time>2026-04-25T13:27:59.447Z</time></trkpt><trkpt lat="40.5165613" lon="15.5094412"><ele>478.0</ele><time>2026-04-25T13:28:00.453Z</time></trkpt><trkpt lat="40.5168016" lon="15.5091698"><ele>478.0</ele><time>2026-04-25T13:28:01.458Z</time></trkpt><trkpt lat="40.517043" lon="15.5088994"><ele>479.5</ele><time>2026-04-25T13:28:02.448Z</time></trkpt><trkpt lat="40.5172849" lon="15.5086286"><ele>481.0</ele><time>2026-04-25T13:28:03.461Z</time></trkpt><trkpt lat="40.5175266" lon="15.5083564"><ele>481.0</ele><time>2026-04-25T13:28:04.455Z</time></trkpt><trkpt lat="40.517767" lon="15.508084"><ele>481.0</ele><time>2026-04-25T13:28:05.457Z</time></trkpt><trkpt lat="40.5180066" lon="15.5078113"><ele>483.0</ele><time>2026-04-25T13:28:06.445Z</time></trkpt><trkpt lat="40.5182452" lon="15.5075375"><ele>485.0</ele><time>2026-04-25T13:28:07.452Z</time></trkpt><trkpt lat="40.5184824" lon="15.5072606"><ele>484.5</ele><time>2026-04-25T13:28:08.456Z</time></trkpt><trkpt lat="40.5187177" lon="15.5069796"><ele>484.0</ele><time>2026-04-25T13:28:09.452Z</time></trkpt><trkpt lat="40.51895" lon="15.5066937"><ele>484.0</ele><time>2026-04-25T13:28:10.463Z</time></trkpt><trkpt lat="40.5191783" lon="15.5064025"><ele>484.0</ele><time>2026-04-25T13:28:11.447Z</time></trkpt><trkpt lat="40.5194028" lon="15.5061049"><ele>485.0</ele><time>2026-04-25T13:28:12.443Z</time></trkpt><trkpt lat="40.5196236" lon="15.5058036"><ele>486.0</ele><time>2026-04-25T13:28:13.439Z</time></trkpt><trkpt lat="40.5198412" lon="15.505498"><ele>484.5</ele><time>2026-04-25T13:28:14.443Z</time></trkpt><trkpt lat="40.5200559" lon="15.5051881"><ele>483.0</ele><time>2026-04-25T13:28:15.443Z</time></trkpt><trkpt lat="40.5202686" lon="15.5048759"><ele>481.5</ele><time>2026-04-25T13:28:16.445Z</time></trkpt><trkpt lat="40.5204801" lon="15.504564"><ele>480.0</ele><time>2026-04-25T13:28:17.437Z</time></trkpt><trkpt lat="40.520701" lon="15.5042812"><ele>480.0</ele><time>2026-04-25T13:28:18.445Z</time></trkpt><trkpt lat="40.5209229" lon="15.503983"><ele>480.0</ele><time>2026-04-25T13:28:19.439Z</time></trkpt><trkpt lat="40.5211344" lon="15.5036779"><ele>482.0</ele><time>2026-04-25T13:28:20.439Z</time></trkpt><trkpt lat="40.5213455" lon="15.5033645"><ele>484.0</ele><time>2026-04-25T13:28:21.448Z</time></trkpt><trkpt lat="40.5215555" lon="15.503054"><ele>482.5</ele><time>2026-04-25T13:28:22.438Z</time></trkpt><trkpt lat="40.5217648" lon="15.5027409"><ele>481.0</ele><time>2026-04-25T13:28:23.446Z</time></trkpt><trkpt lat="40.5219732" lon="15.5024284"><ele>481.5</ele><time>2026-04-25T13:28:24.439Z</time></trkpt><trkpt lat="40.5221807" lon="15.5021134"><ele>482.0</ele><time>2026-04-25T13:28:25.445Z</time></trkpt><trkpt lat="40.5223871" lon="15.5017994"><ele>480.0</ele><time>2026-04-25T13:28:26.443Z</time></trkpt><trkpt lat="40.5225955" lon="15.5014854"><ele>478.0</ele><time>2026-04-25T13:28:27.446Z</time></trkpt><trkpt lat="40.5228054" lon="15.501173"><ele>479.5</ele><time>2026-04-25T13:28:28.441Z</time></trkpt><trkpt lat="40.5230143" lon="15.50086"><ele>481.0</ele><time>2026-04-25T13:28:29.443Z</time></trkpt><trkpt lat="40.5232206" lon="15.5005459"><ele>481.0</ele><time>2026-04-25T13:28:30.443Z</time></trkpt><trkpt lat="40.5234209" lon="15.5002257"><ele>481.0</ele><time>2026-04-25T13:28:31.442Z</time></trkpt><trkpt lat="40.5236145" lon="15.4998985"><ele>483.5</ele><time>2026-04-25T13:28:32.441Z</time></trkpt><trkpt lat="40.523798" lon="15.4995601"><ele>486.0</ele><time>2026-04-25T13:28:33.441Z</time></trkpt><trkpt lat="40.5239723" lon="15.4992127"><ele>486.0</ele><time>2026-04-25T13:28:34.439Z</time></trkpt><trkpt lat="40.5241371" lon="15.4988563"><ele>486.0</ele><time>2026-04-25T13:28:35.442Z</time></trkpt><trkpt lat="40.5242936" lon="15.4984955"><ele>484.0</ele><time>2026-04-25T13:28:36.446Z</time></trkpt><trkpt lat="40.5244402" lon="15.4981292"><ele>482.0</ele><time>2026-04-25T13:28:37.438Z</time></trkpt><trkpt lat="40.5245851" lon="15.4977636"><ele>485.0</ele><time>2026-04-25T13:28:38.441Z</time></trkpt><trkpt lat="40.5247021" lon="15.4973861"><ele>488.0</ele><time>2026-04-25T13:28:39.442Z</time></trkpt><trkpt lat="40.5248183" lon="15.4970044"><ele>488.0</ele><time>2026-04-25T13:28:40.445Z</time></trkpt><trkpt lat="40.5249242" lon="15.4966136"><ele>488.0</ele><time>2026-04-25T13:28:41.443Z</time></trkpt><trkpt lat="40.5250296" lon="15.4962222"><ele>488.5</ele><time>2026-04-25T13:28:42.443Z</time></trkpt><trkpt lat="40.525131" lon="15.4958281"><ele>489.0</ele><time>2026-04-25T13:28:43.439Z</time></trkpt><trkpt lat="40.5252374" lon="15.4954354"><ele>489.0</ele><time>2026-04-25T13:28:44.443Z</time></trkpt><trkpt lat="40.5253442" lon="15.4950427"><ele>489.0</ele><time>2026-04-25T13:28:45.44Z</time></trkpt><trkpt lat="40.5254509" lon="15.4946481"><ele>490.5</ele><time>2026-04-25T13:28:46.442Z</time></trkpt><trkpt lat="40.5255561" lon="15.4942555"><ele>492.0</ele><time>2026-04-25T13:28:47.444Z</time></trkpt><trkpt lat="40.5256652" lon="15.4938651"><ele>492.0</ele><time>2026-04-25T13:28:48.446Z</time></trkpt><trkpt lat="40.5257795" lon="15.4934709"><ele>492.0</ele><time>2026-04-25T13:28:49.438Z</time></trkpt><trkpt lat="40.5259134" lon="15.4930976"><ele>492.0</ele><time>2026-04-25T13:28:50.439Z</time></trkpt><trkpt lat="40.5260619" lon="15.4927302"><ele>492.0</ele><time>2026-04-25T13:28:51.445Z</time></trkpt><trkpt lat="40.5262135" lon="15.4923638"><ele>491.5</ele><time>2026-04-25T13:28:52.439Z</time></trkpt><trkpt lat="40.526375" lon="15.4920009"><ele>491.0</ele><time>2026-04-25T13:28:53.437Z</time></trkpt><trkpt lat="40.526544" lon="15.4916475"><ele>491.0</ele><time>2026-04-25T13:28:54.439Z</time></trkpt><trkpt lat="40.5267219" lon="15.4913041"><ele>491.0</ele><time>2026-04-25T13:28:55.444Z</time></trkpt><trkpt lat="40.5269047" lon="15.4909684"><ele>490.0</ele><time>2026-04-25T13:28:56.441Z</time></trkpt><trkpt lat="40.5271036" lon="15.4906457"><ele>489.0</ele><time>2026-04-25T13:28:57.447Z</time></trkpt><trkpt lat="40.527314" lon="15.4903383"><ele>487.0</ele><time>2026-04-25T13:28:58.441Z</time></trkpt><trkpt lat="40.5275273" lon="15.4900329"><ele>485.0</ele><time>2026-04-25T13:28:59.449Z</time></trkpt><trkpt lat="40.5277542" lon="15.4897396"><ele>482.5</ele><time>2026-04-25T13:29:00.444Z</time></trkpt><trkpt lat="40.5279823" lon="15.4894499"><ele>480.0</ele><time>2026-04-25T13:29:01.448Z</time></trkpt><trkpt lat="40.5282105" lon="15.4891596"><ele>480.0</ele><time>2026-04-25T13:29:02.445Z</time></trkpt><trkpt lat="40.5284406" lon="15.4888717"><ele>480.0</ele><time>2026-04-25T13:29:03.444Z</time></trkpt><trkpt lat="40.5286699" lon="15.4885839"><ele>479.0</ele><time>2026-04-25T13:29:04.444Z</time></trkpt><trkpt lat="40.5289018" lon="15.4882976"><ele>478.0</ele><time>2026-04-25T13:29:05.452Z</time></trkpt><trkpt lat="40.5291335" lon="15.4880141"><ele>476.0</ele><time>2026-04-25T13:29:06.444Z</time></trkpt><trkpt lat="40.5293645" lon="15.4877286"><ele>474.0</ele><time>2026-04-25T13:29:07.442Z</time></trkpt><trkpt lat="40.5295928" lon="15.4874389"><ele>477.0</ele><time>2026-04-25T13:29:08.439Z</time></trkpt><trkpt lat="40.5298176" lon="15.4871464"><ele>480.0</ele><time>2026-04-25T13:29:09.442Z</time></trkpt><trkpt lat="40.5300398" lon="15.4868497"><ele>480.0</ele><time>2026-04-25T13:29:10.443Z</time></trkpt><trkpt lat="40.5302579" lon="15.4865476"><ele>480.0</ele><time>2026-04-25T13:29:11.445Z</time></trkpt><trkpt lat="40.5304688" lon="15.4862377"><ele>482.5</ele><time>2026-04-25T13:29:12.443Z</time></trkpt><trkpt lat="40.5306684" lon="15.4859146"><ele>485.0</ele><time>2026-04-25T13:29:13.446Z</time></trkpt><trkpt lat="40.5308621" lon="15.4855858"><ele>481.0</ele><time>2026-04-25T13:29:14.44Z</time></trkpt><trkpt lat="40.5310421" lon="15.4852409"><ele>477.0</ele><time>2026-04-25T13:29:15.442Z</time></trkpt><trkpt lat="40.5312077" lon="15.4848882"><ele>477.5</ele><time>2026-04-25T13:29:16.444Z</time></trkpt><trkpt lat="40.531363" lon="15.484525"><ele>478.0</ele><time>2026-04-25T13:29:17.443Z</time></trkpt><trkpt lat="40.5315043" lon="15.484157"><ele>478.0</ele><time>2026-04-25T13:29:18.45Z</time></trkpt><trkpt lat="40.5316327" lon="15.4837794"><ele>478.0</ele><time>2026-04-25T13:29:19.443Z</time></trkpt><trkpt lat="40.5317518" lon="15.4833924"><ele>475.0</ele><time>2026-04-25T13:29:20.446Z</time></trkpt><trkpt lat="40.5318614" lon="15.4830017"><ele>472.0</ele><time>2026-04-25T13:29:21.44Z</time></trkpt><trkpt lat="40.5319557" lon="15.482602"><ele>468.0</ele><time>2026-04-25T13:29:22.447Z</time></trkpt><trkpt lat="40.5320353" lon="15.4821972"><ele>464.0</ele><time>2026-04-25T13:29:23.444Z</time></trkpt><trkpt lat="40.532099" lon="15.48179"><ele>463.5</ele><time>2026-04-25T13:29:24.45Z</time></trkpt><trkpt lat="40.5321494" lon="15.4813804"><ele>463.0</ele><time>2026-04-25T13:29:25.443Z</time></trkpt><trkpt lat="40.5321858" lon="15.4809682"><ele>457.0</ele><time>2026-04-25T13:29:26.445Z</time></trkpt><trkpt lat="40.5322089" lon="15.4805558"><ele>451.0</ele><time>2026-04-25T13:29:27.437Z</time></trkpt><trkpt lat="40.5322232" lon="15.4801439"><ele>447.0</ele><time>2026-04-25T13:29:28.445Z</time></trkpt><trkpt lat="40.5322301" lon="15.4797331"><ele>443.0</ele><time>2026-04-25T13:29:29.444Z</time></trkpt><trkpt lat="40.5322381" lon="15.4793215"><ele>442.5</ele><time>2026-04-25T13:29:30.446Z</time></trkpt><trkpt lat="40.5322467" lon="15.4789133"><ele>442.0</ele><time>2026-04-25T13:29:31.442Z</time></trkpt><trkpt lat="40.5322553" lon="15.4785184"><ele>446.5</ele><time>2026-04-25T13:29:32.447Z</time></trkpt><trkpt lat="40.5322642" lon="15.4781381"><ele>451.0</ele><time>2026-04-25T13:29:33.448Z</time></trkpt><trkpt lat="40.5322733" lon="15.4777602"><ele>456.5</ele><time>2026-04-25T13:29:34.444Z</time></trkpt><trkpt lat="40.5322843" lon="15.4773769"><ele>462.0</ele><time>2026-04-25T13:29:35.443Z</time></trkpt><trkpt lat="40.5322949" lon="15.4769877"><ele>462.0</ele><time>2026-04-25T13:29:36.446Z</time></trkpt><trkpt lat="40.5323105" lon="15.4765894"><ele>462.0</ele><time>2026-04-25T13:29:37.445Z</time></trkpt><trkpt lat="40.5323364" lon="15.4761849"><ele>463.0</ele><time>2026-04-25T13:29:38.44Z</time></trkpt><trkpt lat="40.5323763" lon="15.4757777"><ele>464.0</ele><time>2026-04-25T13:29:39.446Z</time></trkpt><trkpt lat="40.5324293" lon="15.4753704"><ele>466.0</ele><time>2026-04-25T13:29:40.441Z</time></trkpt><trkpt lat="40.5324919" lon="15.474964"><ele>468.0</ele><time>2026-04-25T13:29:41.442Z</time></trkpt><trkpt lat="40.5325615" lon="15.4745588"><ele>475.5</ele><time>2026-04-25T13:29:42.44Z</time></trkpt><trkpt lat="40.5326368" lon="15.4741543"><ele>483.0</ele><time>2026-04-25T13:29:43.444Z</time></trkpt><trkpt lat="40.5327162" lon="15.4737508"><ele>487.5</ele><time>2026-04-25T13:29:44.448Z</time></trkpt><trkpt lat="40.5327958" lon="15.4733472"><ele>492.0</ele><time>2026-04-25T13:29:45.448Z</time></trkpt><trkpt lat="40.5328761" lon="15.4729442"><ele>470.5</ele><time>2026-04-25T13:29:46.445Z</time></trkpt><trkpt lat="40.5329571" lon="15.4725413"><ele>449.0</ele><time>2026-04-25T13:29:47.442Z</time></trkpt><trkpt lat="40.5330328" lon="15.4721367"><ele>454.5</ele><time>2026-04-25T13:29:48.452Z</time></trkpt><trkpt lat="40.5331019" lon="15.4717417"><ele>460.0</ele><time>2026-04-25T13:29:49.445Z</time></trkpt><trkpt lat="40.5331544" lon="15.4713334"><ele>460.0</ele><time>2026-04-25T13:29:50.443Z</time></trkpt><trkpt lat="40.533205" lon="15.4709288"><ele>460.0</ele><time>2026-04-25T13:29:51.443Z</time></trkpt><trkpt lat="40.5332407" lon="15.4705178"><ele>460.5</ele><time>2026-04-25T13:29:52.45Z</time></trkpt><trkpt lat="40.5332665" lon="15.4701046"><ele>461.0</ele><time>2026-04-25T13:29:53.442Z</time></trkpt><trkpt lat="40.5332873" lon="15.469691"><ele>462.5</ele><time>2026-04-25T13:29:54.44Z</time></trkpt><trkpt lat="40.5333108" lon="15.4692776"><ele>464.0</ele><time>2026-04-25T13:29:55.442Z</time></trkpt><trkpt lat="40.5333335" lon="15.4688621"><ele>465.0</ele><time>2026-04-25T13:29:56.447Z</time></trkpt><trkpt lat="40.5333562" lon="15.4684458"><ele>466.0</ele><time>2026-04-25T13:29:57.446Z</time></trkpt><trkpt lat="40.5333792" lon="15.4680282"><ele>469.0</ele><time>2026-04-25T13:29:58.441Z</time></trkpt><trkpt lat="40.5334001" lon="15.4676139"><ele>472.0</ele><time>2026-04-25T13:29:59.437Z</time></trkpt><trkpt lat="40.5334185" lon="15.4671972"><ele>472.5</ele><time>2026-04-25T13:30:00.442Z</time></trkpt><trkpt lat="40.5334355" lon="15.4667794"><ele>473.0</ele><time>2026-04-25T13:30:01.442Z</time></trkpt><trkpt lat="40.5334525" lon="15.466361"><ele>475.5</ele><time>2026-04-25T13:30:02.444Z</time></trkpt><trkpt lat="40.533471" lon="15.4659429"><ele>478.0</ele><time>2026-04-25T13:30:03.438Z</time></trkpt><trkpt lat="40.533491" lon="15.465528"><ele>475.0</ele><time>2026-04-25T13:30:04.442Z</time></trkpt><trkpt lat="40.5335106" lon="15.4651092"><ele>472.0</ele><time>2026-04-25T13:30:05.437Z</time></trkpt><trkpt lat="40.5335104" lon="15.4601041"><ele>472.0</ele><time>2026-04-25T13:30:17.421Z</time></trkpt><trkpt lat="40.5334409" lon="15.4597506"><ele>472.0</ele><time>2026-04-25T13:30:18.427Z</time></trkpt><trkpt lat="40.5333547" lon="15.4593364"><ele>463.5</ele><time>2026-04-25T13:30:19.433Z</time></trkpt><trkpt lat="40.5332506" lon="15.458925"><ele>455.0</ele><time>2026-04-25T13:30:20.441Z</time></trkpt><trkpt lat="40.5331457" lon="15.4585262"><ele>448.5</ele><time>2026-04-25T13:30:21.444Z</time></trkpt><trkpt lat="40.5330335" lon="15.4581407"><ele>442.0</ele><time>2026-04-25T13:30:22.444Z</time></trkpt><trkpt lat="40.5329082" lon="15.4577577"><ele>447.5</ele><time>2026-04-25T13:30:23.44Z</time></trkpt><trkpt lat="40.5327727" lon="15.4573836"><ele>453.0</ele><time>2026-04-25T13:30:24.437Z</time></trkpt><trkpt lat="40.532629" lon="15.4570148"><ele>453.0</ele><time>2026-04-25T13:30:25.442Z</time></trkpt><trkpt lat="40.532481" lon="15.4566458"><ele>453.0</ele><time>2026-04-25T13:30:26.442Z</time></trkpt><trkpt lat="40.5323343" lon="15.4562804"><ele>446.5</ele><time>2026-04-25T13:30:27.444Z</time></trkpt><trkpt lat="40.5321919" lon="15.4559106"><ele>440.0</ele><time>2026-04-25T13:30:28.439Z</time></trkpt><trkpt lat="40.5320579" lon="15.4555361"><ele>438.0</ele><time>2026-04-25T13:30:29.449Z</time></trkpt><trkpt lat="40.5319348" lon="15.4551565"><ele>436.0</ele><time>2026-04-25T13:30:30.438Z</time></trkpt><trkpt lat="40.5318215" lon="15.4547671"><ele>421.5</ele><time>2026-04-25T13:30:31.442Z</time></trkpt><trkpt lat="40.5317126" lon="15.454377"><ele>407.0</ele><time>2026-04-25T13:30:32.437Z</time></trkpt><trkpt lat="40.5316146" lon="15.4539787"><ele>407.0</ele><time>2026-04-25T13:30:33.436Z</time></trkpt><trkpt lat="40.5315298" lon="15.4535781"><ele>407.0</ele><time>2026-04-25T13:30:34.436Z</time></trkpt><trkpt lat="40.5314517" lon="15.4531778"><ele>417.0</ele><time>2026-04-25T13:30:35.441Z</time></trkpt><trkpt lat="40.5313839" lon="15.4527735"><ele>427.0</ele><time>2026-04-25T13:30:36.441Z</time></trkpt><trkpt lat="40.531327" lon="15.4523684"><ele>430.5</ele><time>2026-04-25T13:30:37.447Z</time></trkpt><trkpt lat="40.5312873" lon="15.4519707"><ele>434.0</ele><time>2026-04-25T13:30:38.438Z</time></trkpt><trkpt lat="40.5312454" lon="15.4515658"><ele>444.5</ele><time>2026-04-25T13:30:39.444Z</time></trkpt><trkpt lat="40.5312177" lon="15.4511326"><ele>455.0</ele><time>2026-04-25T13:30:40.442Z</time></trkpt><trkpt lat="40.5311988" lon="15.4507105"><ele>456.5</ele><time>2026-04-25T13:30:41.442Z</time></trkpt><trkpt lat="40.5311941" lon="15.4502936"><ele>458.0</ele><time>2026-04-25T13:30:42.442Z</time></trkpt><trkpt lat="40.5311945" lon="15.4498764"><ele>457.5</ele><time>2026-04-25T13:30:43.451Z</time></trkpt><trkpt lat="40.5312093" lon="15.4494621"><ele>457.0</ele><time>2026-04-25T13:30:44.438Z</time></trkpt><trkpt lat="40.5312324" lon="15.4490428"><ele>435.5</ele><time>2026-04-25T13:30:45.443Z</time></trkpt><trkpt lat="40.5312587" lon="15.448641"><ele>414.0</ele><time>2026-04-25T13:30:46.453Z</time></trkpt><trkpt lat="40.5312739" lon="15.4482256"><ele>412.5</ele><time>2026-04-25T13:30:47.443Z</time></trkpt><trkpt lat="40.5312905" lon="15.4477958"><ele>411.0</ele><time>2026-04-25T13:30:48.444Z</time></trkpt><trkpt lat="40.5313091" lon="15.4473316"><ele>403.5</ele><time>2026-04-25T13:30:49.447Z</time></trkpt><trkpt lat="40.5313295" lon="15.4468495"><ele>396.0</ele><time>2026-04-25T13:30:50.441Z</time></trkpt><trkpt lat="40.5313593" lon="15.4463719"><ele>391.5</ele><time>2026-04-25T13:30:51.447Z</time></trkpt><trkpt lat="40.5313779" lon="15.4459034"><ele>387.0</ele><time>2026-04-25T13:30:52.447Z</time></trkpt><trkpt lat="40.5314007" lon="15.4454587"><ele>396.0</ele><time>2026-04-25T13:30:53.449Z</time></trkpt><trkpt lat="40.5314217" lon="15.4450194"><ele>405.0</ele><time>2026-04-25T13:30:54.453Z</time></trkpt><trkpt lat="40.5314394" lon="15.4445775"><ele>406.5</ele><time>2026-04-25T13:30:55.44Z</time></trkpt><trkpt lat="40.5314533" lon="15.4441616"><ele>408.0</ele><time>2026-04-25T13:30:56.447Z</time></trkpt><trkpt lat="40.5314728" lon="15.4437506"><ele>408.0</ele><time>2026-04-25T13:30:57.45Z</time></trkpt><trkpt lat="40.5314857" lon="15.443331"><ele>408.0</ele><time>2026-04-25T13:30:58.444Z</time></trkpt><trkpt lat="40.531498" lon="15.4429142"><ele>406.0</ele><time>2026-04-25T13:30:59.44Z</time></trkpt><trkpt lat="40.5315042" lon="15.4425026"><ele>404.0</ele><time>2026-04-25T13:31:00.444Z</time></trkpt><trkpt lat="40.5314991" lon="15.442089"><ele>404.0</ele><time>2026-04-25T13:31:01.446Z</time></trkpt><trkpt lat="40.5314847" lon="15.4416726"><ele>404.0</ele><time>2026-04-25T13:31:02.438Z</time></trkpt><trkpt lat="40.5314608" lon="15.4412604"><ele>404.5</ele><time>2026-04-25T13:31:03.447Z</time></trkpt><trkpt lat="40.5314243" lon="15.4408492"><ele>405.0</ele><time>2026-04-25T13:31:04.439Z</time></trkpt><trkpt lat="40.5313704" lon="15.4404449"><ele>405.0</ele><time>2026-04-25T13:31:05.44Z</time></trkpt><trkpt lat="40.5313123" lon="15.4400371"><ele>405.0</ele><time>2026-04-25T13:31:06.44Z</time></trkpt><trkpt lat="40.5312407" lon="15.4396229"><ele>408.5</ele><time>2026-04-25T13:31:07.438Z</time></trkpt><trkpt lat="40.5311555" lon="15.4392196"><ele>412.0</ele><time>2026-04-25T13:31:08.443Z</time></trkpt><trkpt lat="40.5310628" lon="15.4388182"><ele>403.5</ele><time>2026-04-25T13:31:09.438Z</time></trkpt><trkpt lat="40.5309627" lon="15.4384225"><ele>395.0</ele><time>2026-04-25T13:31:10.439Z</time></trkpt><trkpt lat="40.5308595" lon="15.4380344"><ele>388.0</ele><time>2026-04-25T13:31:11.442Z</time></trkpt><trkpt lat="40.530755" lon="15.4376415"><ele>381.0</ele><time>2026-04-25T13:31:12.442Z</time></trkpt><trkpt lat="40.53065" lon="15.4372427"><ele>382.0</ele><time>2026-04-25T13:31:13.435Z</time></trkpt><trkpt lat="40.5305451" lon="15.4368411"><ele>383.0</ele><time>2026-04-25T13:31:14.443Z</time></trkpt><trkpt lat="40.530445" lon="15.4364476"><ele>392.0</ele><time>2026-04-25T13:31:15.442Z</time></trkpt><trkpt lat="40.5303547" lon="15.4360569"><ele>401.0</ele><time>2026-04-25T13:31:16.441Z</time></trkpt><trkpt lat="40.5302787" lon="15.4356494"><ele>395.5</ele><time>2026-04-25T13:31:17.445Z</time></trkpt><trkpt lat="40.5302102" lon="15.4352384"><ele>390.0</ele><time>2026-04-25T13:31:18.445Z</time></trkpt><trkpt lat="40.5301459" lon="15.4348292"><ele>376.5</ele><time>2026-04-25T13:31:19.446Z</time></trkpt><trkpt lat="40.5300876" lon="15.4344191"><ele>363.0</ele><time>2026-04-25T13:31:20.448Z</time></trkpt><trkpt lat="40.5300466" lon="15.4340055"><ele>344.0</ele><time>2026-04-25T13:31:21.444Z</time></trkpt><trkpt lat="40.5300181" lon="15.4335903"><ele>325.0</ele><time>2026-04-25T13:31:22.443Z</time></trkpt><trkpt lat="40.5300019" lon="15.4331765"><ele>312.0</ele><time>2026-04-25T13:31:23.444Z</time></trkpt><trkpt lat="40.5300038" lon="15.4327628"><ele>299.0</ele><time>2026-04-25T13:31:24.444Z</time></trkpt><trkpt lat="40.5300226" lon="15.432347"><ele>293.5</ele><time>2026-04-25T13:31:25.45Z</time></trkpt><trkpt lat="40.5300537" lon="15.4319325"><ele>288.0</ele><time>2026-04-25T13:31:26.445Z</time></trkpt><trkpt lat="40.5300954" lon="15.4315199"><ele>295.5</ele><time>2026-04-25T13:31:27.441Z</time></trkpt><trkpt lat="40.5301524" lon="15.4311109"><ele>303.0</ele><time>2026-04-25T13:31:28.442Z</time></trkpt><trkpt lat="40.5302239" lon="15.430707"><ele>306.0</ele><time>2026-04-25T13:31:29.44Z</time></trkpt><trkpt lat="40.5303107" lon="15.4303075"><ele>309.0</ele><time>2026-04-25T13:31:30.441Z</time></trkpt><trkpt lat="40.5304102" lon="15.4299142"><ele>326.0</ele><time>2026-04-25T13:31:31.45Z</time></trkpt><trkpt lat="40.5305207" lon="15.4295262"><ele>343.0</ele><time>2026-04-25T13:31:32.453Z</time></trkpt><trkpt lat="40.5306419" lon="15.4291415"><ele>362.5</ele><time>2026-04-25T13:31:33.44Z</time></trkpt><trkpt lat="40.530775" lon="15.4287648"><ele>382.0</ele><time>2026-04-25T13:31:34.444Z</time></trkpt><trkpt lat="40.5309217" lon="15.428397"><ele>382.0</ele><time>2026-04-25T13:31:35.442Z</time></trkpt><trkpt lat="40.5310816" lon="15.4280397"><ele>382.0</ele><time>2026-04-25T13:31:36.445Z</time></trkpt><trkpt lat="40.5312503" lon="15.427688"><ele>379.5</ele><time>2026-04-25T13:31:37.447Z</time></trkpt><trkpt lat="40.5314245" lon="15.4273408"><ele>377.0</ele><time>2026-04-25T13:31:38.442Z</time></trkpt><trkpt lat="40.5316012" lon="15.4269952"><ele>387.0</ele><time>2026-04-25T13:31:39.447Z</time></trkpt><trkpt lat="40.5317811" lon="15.426653"><ele>397.0</ele><time>2026-04-25T13:31:40.443Z</time></trkpt><trkpt lat="40.5319653" lon="15.4263142"><ele>387.0</ele><time>2026-04-25T13:31:41.447Z</time></trkpt><trkpt lat="40.5321535" lon="15.4259757"><ele>377.0</ele><time>2026-04-25T13:31:42.441Z</time></trkpt><trkpt lat="40.5323444" lon="15.4256436"><ele>383.0</ele><time>2026-04-25T13:31:43.449Z</time></trkpt><trkpt lat="40.5325432" lon="15.4253187"><ele>389.0</ele><time>2026-04-25T13:31:44.442Z</time></trkpt><trkpt lat="40.5327519" lon="15.4250048"><ele>390.0</ele><time>2026-04-25T13:31:45.447Z</time></trkpt><trkpt lat="40.5329721" lon="15.4247025"><ele>391.0</ele><time>2026-04-25T13:31:46.445Z</time></trkpt><trkpt lat="40.533201" lon="15.4244126"><ele>391.0</ele><time>2026-04-25T13:31:47.441Z</time></trkpt><trkpt lat="40.5334381" lon="15.4241327"><ele>391.0</ele><time>2026-04-25T13:31:48.445Z</time></trkpt><trkpt lat="40.5336733" lon="15.4238576"><ele>381.0</ele><time>2026-04-25T13:31:49.443Z</time></trkpt><trkpt lat="40.5369836" lon="15.4207026"><ele>377.5</ele><time>2026-04-25T13:32:02.408Z</time></trkpt><trkpt lat="40.5372327" lon="15.4203219"><ele>374.0</ele><time>2026-04-25T13:32:03.44Z</time></trkpt><trkpt lat="40.5374965" lon="15.4201182"><ele>374.0</ele><time>2026-04-25T13:32:04.451Z</time></trkpt><trkpt lat="40.537754" lon="15.4198792"><ele>374.0</ele><time>2026-04-25T13:32:05.44Z</time></trkpt><trkpt lat="40.5380151" lon="15.4196301"><ele>372.5</ele><time>2026-04-25T13:32:06.45Z</time></trkpt><trkpt lat="40.5382664" lon="15.4193748"><ele>371.0</ele><time>2026-04-25T13:32:07.44Z</time></trkpt><trkpt lat="40.5385243" lon="15.4191313"><ele>369.5</ele><time>2026-04-25T13:32:08.447Z</time></trkpt><trkpt lat="40.5387807" lon="15.4188834"><ele>368.0</ele><time>2026-04-25T13:32:09.44Z</time></trkpt><trkpt lat="40.5390405" lon="15.4186447"><ele>368.0</ele><time>2026-04-25T13:32:10.45Z</time></trkpt><trkpt lat="40.5393023" lon="15.4184118"><ele>368.0</ele><time>2026-04-25T13:32:11.446Z</time></trkpt><trkpt lat="40.5395695" lon="15.4181881"><ele>368.0</ele><time>2026-04-25T13:32:12.444Z</time></trkpt><trkpt lat="40.5398403" lon="15.4179686"><ele>368.0</ele><time>2026-04-25T13:32:13.439Z</time></trkpt><trkpt lat="40.5401119" lon="15.4177653"><ele>363.5</ele><time>2026-04-25T13:32:14.442Z</time></trkpt><trkpt lat="40.5404016" lon="15.4175747"><ele>359.0</ele><time>2026-04-25T13:32:15.44Z</time></trkpt><trkpt lat="40.5406908" lon="15.4173926"><ele>359.0</ele><time>2026-04-25T13:32:16.45Z</time></trkpt><trkpt lat="40.5409829" lon="15.4172205"><ele>359.0</ele><time>2026-04-25T13:32:17.447Z</time></trkpt><trkpt lat="40.5412752" lon="15.4170597"><ele>360.5</ele><time>2026-04-25T13:32:18.443Z</time></trkpt><trkpt lat="40.5415735" lon="15.4169116"><ele>362.0</ele><time>2026-04-25T13:32:19.442Z</time></trkpt><trkpt lat="40.5418671" lon="15.4167587"><ele>357.0</ele><time>2026-04-25T13:32:20.436Z</time></trkpt><trkpt lat="40.5421619" lon="15.4166057"><ele>352.0</ele><time>2026-04-25T13:32:21.446Z</time></trkpt><trkpt lat="40.5424564" lon="15.4164487"><ele>354.5</ele><time>2026-04-25T13:32:22.441Z</time></trkpt><trkpt lat="40.5427505" lon="15.4162886"><ele>357.0</ele><time>2026-04-25T13:32:23.444Z</time></trkpt><trkpt lat="40.5430418" lon="15.4161251"><ele>357.0</ele><time>2026-04-25T13:32:24.44Z</time></trkpt><trkpt lat="40.5433329" lon="15.4159599"><ele>357.0</ele><time>2026-04-25T13:32:25.437Z</time></trkpt><trkpt lat="40.5436222" lon="15.4157898"><ele>360.5</ele><time>2026-04-25T13:32:26.449Z</time></trkpt><trkpt lat="40.5439074" lon="15.4156215"><ele>364.0</ele><time>2026-04-25T13:32:27.445Z</time></trkpt><trkpt lat="40.5442003" lon="15.4154409"><ele>364.0</ele><time>2026-04-25T13:32:28.442Z</time></trkpt><trkpt lat="40.5444852" lon="15.4152703"><ele>364.0</ele><time>2026-04-25T13:32:29.443Z</time></trkpt><trkpt lat="40.5447706" lon="15.4150855"><ele>358.5</ele><time>2026-04-25T13:32:30.445Z</time></trkpt><trkpt lat="40.545049" lon="15.414886"><ele>353.0</ele><time>2026-04-25T13:32:31.439Z</time></trkpt><trkpt lat="40.5453184" lon="15.414666"><ele>353.5</ele><time>2026-04-25T13:32:32.44Z</time></trkpt><trkpt lat="40.5455808" lon="15.4144337"><ele>354.0</ele><time>2026-04-25T13:32:33.442Z</time></trkpt><trkpt lat="40.5458415" lon="15.4141896"><ele>354.0</ele><time>2026-04-25T13:32:34.436Z</time></trkpt><trkpt lat="40.5460926" lon="15.4139335"><ele>354.0</ele><time>2026-04-25T13:32:35.437Z</time></trkpt><trkpt lat="40.5463383" lon="15.4136694"><ele>349.0</ele><time>2026-04-25T13:32:36.44Z</time></trkpt><trkpt lat="40.5465795" lon="15.4133977"><ele>344.0</ele><time>2026-04-25T13:32:37.439Z</time></trkpt><trkpt lat="40.5468113" lon="15.413115"><ele>349.0</ele><time>2026-04-25T13:32:38.443Z</time></trkpt><trkpt lat="40.5470353" lon="15.4128208"><ele>354.0</ele><time>2026-04-25T13:32:39.436Z</time></trkpt><trkpt lat="40.547253" lon="15.4125187"><ele>350.5</ele><time>2026-04-25T13:32:40.441Z</time></trkpt><trkpt lat="40.547466" lon="15.4122099"><ele>347.0</ele><time>2026-04-25T13:32:41.437Z</time></trkpt><trkpt lat="40.547675" lon="15.4118972"><ele>341.0</ele><time>2026-04-25T13:32:42.438Z</time></trkpt><trkpt lat="40.5478805" lon="15.41158"><ele>335.0</ele><time>2026-04-25T13:32:43.443Z</time></trkpt><trkpt lat="40.5480836" lon="15.4112595"><ele>335.0</ele><time>2026-04-25T13:32:44.439Z</time></trkpt><trkpt lat="40.5482843" lon="15.4109384"><ele>335.0</ele><time>2026-04-25T13:32:45.445Z</time></trkpt><trkpt lat="40.5484857" lon="15.4106186"><ele>333.0</ele><time>2026-04-25T13:32:46.441Z</time></trkpt><trkpt lat="40.5486867" lon="15.4102975"><ele>331.0</ele><time>2026-04-25T13:32:47.442Z</time></trkpt><trkpt lat="40.5488866" lon="15.4099744"><ele>338.5</ele><time>2026-04-25T13:32:48.436Z</time></trkpt><trkpt lat="40.5490849" lon="15.4096493"><ele>346.0</ele><time>2026-04-25T13:32:49.436Z</time></trkpt><trkpt lat="40.5492781" lon="15.4093214"><ele>346.0</ele><time>2026-04-25T13:32:50.44Z</time></trkpt><trkpt lat="40.5494702" lon="15.4089895"><ele>346.0</ele><time>2026-04-25T13:32:51.432Z</time></trkpt><trkpt lat="40.5496598" lon="15.4086542"><ele>348.5</ele><time>2026-04-25T13:32:52.441Z</time></trkpt><trkpt lat="40.5498486" lon="15.4083173"><ele>351.0</ele><time>2026-04-25T13:32:53.442Z</time></trkpt><trkpt lat="40.5500322" lon="15.4079768"><ele>351.0</ele><time>2026-04-25T13:32:54.438Z</time></trkpt><trkpt lat="40.550214" lon="15.4076332"><ele>351.0</ele><time>2026-04-25T13:32:55.442Z</time></trkpt><trkpt lat="40.5503879" lon="15.407284"><ele>342.5</ele><time>2026-04-25T13:32:56.441Z</time></trkpt><trkpt lat="40.5505525" lon="15.4069262"><ele>334.0</ele><time>2026-04-25T13:32:57.442Z</time></trkpt><trkpt lat="40.5507074" lon="15.4065616"><ele>339.0</ele><time>2026-04-25T13:32:58.44Z</time></trkpt><trkpt lat="40.5508608" lon="15.4061952"><ele>344.0</ele><time>2026-04-25T13:32:59.443Z</time></trkpt><trkpt lat="40.5510142" lon="15.4058306"><ele>350.5</ele><time>2026-04-25T13:33:00.448Z</time></trkpt><trkpt lat="40.5511647" lon="15.4054679"><ele>357.0</ele><time>2026-04-25T13:33:01.442Z</time></trkpt><trkpt lat="40.5513126" lon="15.4050988"><ele>346.0</ele><time>2026-04-25T13:33:02.44Z</time></trkpt><trkpt lat="40.5514549" lon="15.4047249"><ele>335.0</ele><time>2026-04-25T13:33:03.437Z</time></trkpt><trkpt lat="40.551594" lon="15.404354"><ele>335.0</ele><time>2026-04-25T13:33:04.437Z</time></trkpt><trkpt lat="40.5517314" lon="15.4039827"><ele>335.0</ele><time>2026-04-25T13:33:05.439Z</time></trkpt><trkpt lat="40.5518684" lon="15.4036094"><ele>333.0</ele><time>2026-04-25T13:33:06.445Z</time></trkpt><trkpt lat="40.5520021" lon="15.403232"><ele>331.0</ele><time>2026-04-25T13:33:07.439Z</time></trkpt><trkpt lat="40.5521409" lon="15.4028573"><ele>331.0</ele><time>2026-04-25T13:33:08.44Z</time></trkpt><trkpt lat="40.552282" lon="15.402486"><ele>331.0</ele><time>2026-04-25T13:33:09.439Z</time></trkpt><trkpt lat="40.5524229" lon="15.4021133"><ele>335.0</ele><time>2026-04-25T13:33:10.438Z</time></trkpt><trkpt lat="40.5525633" lon="15.4017391"><ele>339.0</ele><time>2026-04-25T13:33:11.447Z</time></trkpt><trkpt lat="40.5527028" lon="15.4013651"><ele>342.0</ele><time>2026-04-25T13:33:12.442Z</time></trkpt><trkpt lat="40.5528412" lon="15.4009908"><ele>345.0</ele><time>2026-04-25T13:33:13.442Z</time></trkpt><trkpt lat="40.5529794" lon="15.4006154"><ele>323.0</ele><time>2026-04-25T13:33:14.447Z</time></trkpt><trkpt lat="40.5531154" lon="15.4002404"><ele>301.0</ele><time>2026-04-25T13:33:15.446Z</time></trkpt><trkpt lat="40.5532555" lon="15.399868"><ele>292.5</ele><time>2026-04-25T13:33:16.441Z</time></trkpt><trkpt lat="40.5533929" lon="15.3994972"><ele>284.0</ele><time>2026-04-25T13:33:17.449Z</time></trkpt><trkpt lat="40.5535317" lon="15.3991211"><ele>283.5</ele><time>2026-04-25T13:33:18.443Z</time></trkpt><trkpt lat="40.5536737" lon="15.3987468"><ele>283.0</ele><time>2026-04-25T13:33:19.443Z</time></trkpt><trkpt lat="40.5538178" lon="15.3983756"><ele>276.5</ele><time>2026-04-25T13:33:20.442Z</time></trkpt><trkpt lat="40.5539709" lon="15.3980098"><ele>270.0</ele><time>2026-04-25T13:33:21.445Z</time></trkpt><trkpt lat="40.5541317" lon="15.3976514"><ele>289.0</ele><time>2026-04-25T13:33:22.447Z</time></trkpt><trkpt lat="40.554302" lon="15.3972999"><ele>308.0</ele><time>2026-04-25T13:33:23.439Z</time></trkpt><trkpt lat="40.5544823" lon="15.3969565"><ele>313.0</ele><time>2026-04-25T13:33:24.432Z</time></trkpt><trkpt lat="40.5546712" lon="15.3966218"><ele>318.0</ele><time>2026-04-25T13:33:25.443Z</time></trkpt><trkpt lat="40.5548701" lon="15.3962975"><ele>326.5</ele><time>2026-04-25T13:33:26.442Z</time></trkpt><trkpt lat="40.5550768" lon="15.3959826"><ele>335.0</ele><time>2026-04-25T13:33:27.437Z</time></trkpt><trkpt lat="40.5552901" lon="15.395676"><ele>334.5</ele><time>2026-04-25T13:33:28.446Z</time></trkpt><trkpt lat="40.5555079" lon="15.3953764"><ele>334.0</ele><time>2026-04-25T13:33:29.443Z</time></trkpt><trkpt lat="40.5557298" lon="15.395083"><ele>334.0</ele><time>2026-04-25T13:33:30.437Z</time></trkpt><trkpt lat="40.5559579" lon="15.3947976"><ele>334.0</ele><time>2026-04-25T13:33:31.447Z</time></trkpt><trkpt lat="40.556187" lon="15.3945249"><ele>334.0</ele><time>2026-04-25T13:33:32.444Z</time></trkpt><trkpt lat="40.5564263" lon="15.3942613"><ele>334.0</ele><time>2026-04-25T13:33:33.442Z</time></trkpt><trkpt lat="40.5566684" lon="15.3939919"><ele>334.0</ele><time>2026-04-25T13:33:34.443Z</time></trkpt><trkpt lat="40.5569118" lon="15.3937187"><ele>334.0</ele><time>2026-04-25T13:33:35.443Z</time></trkpt><trkpt lat="40.5571521" lon="15.3934441"><ele>334.0</ele><time>2026-04-25T13:33:36.443Z</time></trkpt><trkpt lat="40.5573853" lon="15.3931591"><ele>334.0</ele><time>2026-04-25T13:33:37.442Z</time></trkpt><trkpt lat="40.5576173" lon="15.3928732"><ele>336.5</ele><time>2026-04-25T13:33:38.446Z</time></trkpt><trkpt lat="40.5578268" lon="15.3925591"><ele>339.0</ele><time>2026-04-25T13:33:39.439Z</time></trkpt><trkpt lat="40.558032" lon="15.3922439"><ele>341.0</ele><time>2026-04-25T13:33:40.44Z</time></trkpt><trkpt lat="40.558224" lon="15.391913"><ele>343.0</ele><time>2026-04-25T13:33:41.442Z</time></trkpt><trkpt lat="40.5584061" lon="15.3915712"><ele>347.0</ele><time>2026-04-25T13:33:42.458Z</time></trkpt><trkpt lat="40.5585758" lon="15.3912199"><ele>351.0</ele><time>2026-04-25T13:33:43.445Z</time></trkpt><trkpt lat="40.5587345" lon="15.39086"><ele>340.0</ele><time>2026-04-25T13:33:44.437Z</time></trkpt><trkpt lat="40.5588857" lon="15.3904927"><ele>329.0</ele><time>2026-04-25T13:33:45.438Z</time></trkpt><trkpt lat="40.559029" lon="15.3901203"><ele>329.0</ele><time>2026-04-25T13:33:46.439Z</time></trkpt><trkpt lat="40.5591668" lon="15.3897443"><ele>329.0</ele><time>2026-04-25T13:33:47.45Z</time></trkpt><trkpt lat="40.5592995" lon="15.3893659"><ele>326.5</ele><time>2026-04-25T13:33:48.437Z</time></trkpt><trkpt lat="40.5594238" lon="15.3889815"><ele>324.0</ele><time>2026-04-25T13:33:49.444Z</time></trkpt><trkpt lat="40.559539" lon="15.3885918"><ele>324.0</ele><time>2026-04-25T13:33:50.448Z</time></trkpt><trkpt lat="40.5596444" lon="15.3881982"><ele>324.0</ele><time>2026-04-25T13:33:51.448Z</time></trkpt><trkpt lat="40.559748" lon="15.3878042"><ele>332.0</ele><time>2026-04-25T13:33:52.447Z</time></trkpt><trkpt lat="40.5598493" lon="15.3874095"><ele>340.0</ele><time>2026-04-25T13:33:53.447Z</time></trkpt><trkpt lat="40.5599518" lon="15.3870146"><ele>342.0</ele><time>2026-04-25T13:33:54.448Z</time></trkpt><trkpt lat="40.5600575" lon="15.3866213"><ele>344.0</ele><time>2026-04-25T13:33:55.448Z</time></trkpt><trkpt lat="40.5601671" lon="15.3862294"><ele>347.5</ele><time>2026-04-25T13:33:56.435Z</time></trkpt><trkpt lat="40.5602809" lon="15.3858408"><ele>351.0</ele><time>2026-04-25T13:33:57.442Z</time></trkpt><trkpt lat="40.5604011" lon="15.3854555"><ele>340.5</ele><time>2026-04-25T13:33:58.437Z</time></trkpt><trkpt lat="40.5605349" lon="15.3850767"><ele>330.0</ele><time>2026-04-25T13:33:59.439Z</time></trkpt><trkpt lat="40.5606873" lon="15.3847091"><ele>334.0</ele><time>2026-04-25T13:34:00.438Z</time></trkpt><trkpt lat="40.5608586" lon="15.3843583"><ele>338.0</ele><time>2026-04-25T13:34:01.442Z</time></trkpt><trkpt lat="40.5610459" lon="15.3840215"><ele>333.0</ele><time>2026-04-25T13:34:02.437Z</time></trkpt><trkpt lat="40.5612468" lon="15.3836998"><ele>328.0</ele><time>2026-04-25T13:34:03.443Z</time></trkpt><trkpt lat="40.5614614" lon="15.3833948"><ele>328.0</ele><time>2026-04-25T13:34:04.439Z</time></trkpt><trkpt lat="40.561688" lon="15.3831047"><ele>328.0</ele><time>2026-04-25T13:34:05.433Z</time></trkpt><trkpt lat="40.5619264" lon="15.3828323"><ele>326.5</ele><time>2026-04-25T13:34:06.44Z</time></trkpt><trkpt lat="40.5621741" lon="15.3825732"><ele>325.0</ele><time>2026-04-25T13:34:07.442Z</time></trkpt><trkpt lat="40.5624251" lon="15.3823208"><ele>324.5</ele><time>2026-04-25T13:34:08.443Z</time></trkpt><trkpt lat="40.5626769" lon="15.3820683"><ele>324.0</ele><time>2026-04-25T13:34:09.447Z</time></trkpt><trkpt lat="40.5629259" lon="15.3818114"><ele>324.0</ele><time>2026-04-25T13:34:10.443Z</time></trkpt><trkpt lat="40.5631708" lon="15.3815487"><ele>324.0</ele><time>2026-04-25T13:34:11.443Z</time></trkpt><trkpt lat="40.5634108" lon="15.3812768"><ele>329.5</ele><time>2026-04-25T13:34:12.44Z</time></trkpt><trkpt lat="40.5636451" lon="15.3809947"><ele>335.0</ele><time>2026-04-25T13:34:13.443Z</time></trkpt><trkpt lat="40.5638729" lon="15.3807026"><ele>330.5</ele><time>2026-04-25T13:34:14.447Z</time></trkpt><trkpt lat="40.5640924" lon="15.3804014"><ele>326.0</ele><time>2026-04-25T13:34:15.443Z</time></trkpt><trkpt lat="40.5643024" lon="15.3800876"><ele>326.0</ele><time>2026-04-25T13:34:16.44Z</time></trkpt><trkpt lat="40.5645015" lon="15.3797616"><ele>326.0</ele><time>2026-04-25T13:34:17.445Z</time></trkpt><trkpt lat="40.564689" lon="15.3794254"><ele>326.5</ele><time>2026-04-25T13:34:18.44Z</time></trkpt><trkpt lat="40.5648627" lon="15.379077"><ele>327.0</ele><time>2026-04-25T13:34:19.441Z</time></trkpt><trkpt lat="40.5650197" lon="15.3787153"><ele>327.0</ele><time>2026-04-25T13:34:20.442Z</time></trkpt><trkpt lat="40.5651587" lon="15.3783417"><ele>327.0</ele><time>2026-04-25T13:34:21.438Z</time></trkpt><trkpt lat="40.5652805" lon="15.3779585"><ele>314.0</ele><time>2026-04-25T13:34:22.444Z</time></trkpt><trkpt lat="40.5653873" lon="15.3775677"><ele>301.0</ele><time>2026-04-25T13:34:23.437Z</time></trkpt><trkpt lat="40.5654828" lon="15.3771709"><ele>301.0</ele><time>2026-04-25T13:34:24.439Z</time></trkpt><trkpt lat="40.5655688" lon="15.3767706"><ele>301.0</ele><time>2026-04-25T13:34:25.435Z</time></trkpt><trkpt lat="40.565647" lon="15.3763676"><ele>304.5</ele><time>2026-04-25T13:34:26.443Z</time></trkpt><trkpt lat="40.5657181" lon="15.3759618"><ele>308.0</ele><time>2026-04-25T13:34:27.447Z</time></trkpt><trkpt lat="40.5657829" lon="15.3755532"><ele>315.0</ele><time>2026-04-25T13:34:28.44Z</time></trkpt><trkpt lat="40.5658432" lon="15.3751441"><ele>322.0</ele><time>2026-04-25T13:34:29.441Z</time></trkpt><trkpt lat="40.5659038" lon="15.3747461"><ele>329.0</ele><time>2026-04-25T13:34:30.448Z</time></trkpt><trkpt lat="40.5659622" lon="15.3743468"><ele>336.0</ele><time>2026-04-25T13:34:31.44Z</time></trkpt><trkpt lat="40.5691614" lon="15.3539349"><ele>302.5</ele><time>2026-04-25T13:35:21.393Z</time></trkpt><trkpt lat="40.5693006" lon="15.3535264"><ele>269.0</ele><time>2026-04-25T13:35:22.447Z</time></trkpt><trkpt lat="40.5694296" lon="15.3531781"><ele>262.0</ele><time>2026-04-25T13:35:23.446Z</time></trkpt><trkpt lat="40.5695814" lon="15.3528206"><ele>255.0</ele><time>2026-04-25T13:35:24.446Z</time></trkpt><trkpt lat="40.5697464" lon="15.3524697"><ele>252.5</ele><time>2026-04-25T13:35:25.451Z</time></trkpt><trkpt lat="40.5699291" lon="15.3521347"><ele>250.0</ele><time>2026-04-25T13:35:26.448Z</time></trkpt><trkpt lat="40.5701226" lon="15.3518125"><ele>250.0</ele><time>2026-04-25T13:35:27.444Z</time></trkpt><trkpt lat="40.5703281" lon="15.3515003"><ele>250.0</ele><time>2026-04-25T13:35:28.444Z</time></trkpt><trkpt lat="40.5705426" lon="15.351193"><ele>247.5</ele><time>2026-04-25T13:35:29.442Z</time></trkpt><trkpt lat="40.5707665" lon="15.3508895"><ele>245.0</ele><time>2026-04-25T13:35:30.444Z</time></trkpt><trkpt lat="40.5709971" lon="15.3505992"><ele>237.0</ele><time>2026-04-25T13:35:31.439Z</time></trkpt><trkpt lat="40.5712351" lon="15.3503214"><ele>229.0</ele><time>2026-04-25T13:35:32.442Z</time></trkpt><trkpt lat="40.5714778" lon="15.3500504"><ele>229.0</ele><time>2026-04-25T13:35:33.443Z</time></trkpt><trkpt lat="40.5717193" lon="15.3497807"><ele>229.0</ele><time>2026-04-25T13:35:34.444Z</time></trkpt><trkpt lat="40.5719611" lon="15.3495102"><ele>230.5</ele><time>2026-04-25T13:35:35.442Z</time></trkpt><trkpt lat="40.5722025" lon="15.3492396"><ele>232.0</ele><time>2026-04-25T13:35:36.445Z</time></trkpt><trkpt lat="40.5724429" lon="15.3489679"><ele>237.0</ele><time>2026-04-25T13:35:37.443Z</time></trkpt><trkpt lat="40.5726836" lon="15.348693"><ele>242.0</ele><time>2026-04-25T13:35:38.446Z</time></trkpt><trkpt lat="40.5729206" lon="15.3484219"><ele>243.0</ele><time>2026-04-25T13:35:39.447Z</time></trkpt><trkpt lat="40.5731559" lon="15.3481548"><ele>244.0</ele><time>2026-04-25T13:35:40.44Z</time></trkpt><trkpt lat="40.5733901" lon="15.3478883"><ele>245.0</ele><time>2026-04-25T13:35:41.436Z</time></trkpt><trkpt lat="40.5736216" lon="15.3476261"><ele>246.0</ele><time>2026-04-25T13:35:42.44Z</time></trkpt><trkpt lat="40.5738576" lon="15.3473603"><ele>242.5</ele><time>2026-04-25T13:35:43.443Z</time></trkpt><trkpt lat="40.5741082" lon="15.3471074"><ele>239.0</ele><time>2026-04-25T13:35:44.438Z</time></trkpt><trkpt lat="40.5743695" lon="15.3468666"><ele>241.0</ele><time>2026-04-25T13:35:45.44Z</time></trkpt><trkpt lat="40.5746516" lon="15.3466532"><ele>243.0</ele><time>2026-04-25T13:35:46.44Z</time></trkpt><trkpt lat="40.5749445" lon="15.3464623"><ele>235.5</ele><time>2026-04-25T13:35:47.447Z</time></trkpt><trkpt lat="40.575243" lon="15.3462985"><ele>228.0</ele><time>2026-04-25T13:35:48.443Z</time></trkpt><trkpt lat="40.5755399" lon="15.3461542"><ele>228.0</ele><time>2026-04-25T13:35:49.441Z</time></trkpt><trkpt lat="40.5758369" lon="15.346013"><ele>228.0</ele><time>2026-04-25T13:35:50.443Z</time></trkpt><trkpt lat="40.5761382" lon="15.3458788"><ele>225.0</ele><time>2026-04-25T13:35:51.447Z</time></trkpt><trkpt lat="40.5764393" lon="15.3457459"><ele>222.0</ele><time>2026-04-25T13:35:52.44Z</time></trkpt><trkpt lat="40.5767401" lon="15.3456124"><ele>250.0</ele><time>2026-04-25T13:35:53.441Z</time></trkpt><trkpt lat="40.5770445" lon="15.3454693"><ele>278.0</ele><time>2026-04-25T13:35:54.447Z</time></trkpt><trkpt lat="40.5773454" lon="15.3453252"><ele>278.0</ele><time>2026-04-25T13:35:55.449Z</time></trkpt><trkpt lat="40.5776439" lon="15.3451761"><ele>278.0</ele><time>2026-04-25T13:35:56.438Z</time></trkpt><trkpt lat="40.5831669" lon="15.3421449"><ele>268.0</ele><time>2026-04-25T13:36:15.386Z</time></trkpt><trkpt lat="40.5834197" lon="15.3418769"><ele>258.0</ele><time>2026-04-25T13:36:16.448Z</time></trkpt><trkpt lat="40.5836734" lon="15.3416157"><ele>259.5</ele><time>2026-04-25T13:36:17.442Z</time></trkpt><trkpt lat="40.5839208" lon="15.3413477"><ele>261.0</ele><time>2026-04-25T13:36:18.436Z</time></trkpt><trkpt lat="40.5841622" lon="15.3410689"><ele>261.0</ele><time>2026-04-25T13:36:19.45Z</time></trkpt><trkpt lat="40.5843884" lon="15.3407875"><ele>261.0</ele><time>2026-04-25T13:36:20.451Z</time></trkpt><trkpt lat="40.5845993" lon="15.340495"><ele>254.5</ele><time>2026-04-25T13:36:21.449Z</time></trkpt><trkpt lat="40.5848023" lon="15.34019"><ele>248.0</ele><time>2026-04-25T13:36:22.438Z</time></trkpt><trkpt lat="40.5849979" lon="15.3398789"><ele>240.0</ele><time>2026-04-25T13:36:23.444Z</time></trkpt><trkpt lat="40.5851913" lon="15.3395617"><ele>232.0</ele><time>2026-04-25T13:36:24.45Z</time></trkpt><trkpt lat="40.5853835" lon="15.3392381"><ele>232.0</ele><time>2026-04-25T13:36:25.449Z</time></trkpt><trkpt lat="40.5855781" lon="15.3389125"><ele>232.0</ele><time>2026-04-25T13:36:26.442Z</time></trkpt><trkpt lat="40.5857743" lon="15.3385874"><ele>240.5</ele><time>2026-04-25T13:36:27.449Z</time></trkpt><trkpt lat="40.5859731" lon="15.338271"><ele>249.0</ele><time>2026-04-25T13:36:28.44Z</time></trkpt><trkpt lat="40.5861786" lon="15.3379445"><ele>249.0</ele><time>2026-04-25T13:36:29.449Z</time></trkpt><trkpt lat="40.586386" lon="15.3376114"><ele>249.0</ele><time>2026-04-25T13:36:30.441Z</time></trkpt><trkpt lat="40.586586" lon="15.337294"><ele>262.5</ele><time>2026-04-25T13:36:31.452Z</time></trkpt><trkpt lat="40.586787" lon="15.3369719"><ele>276.0</ele><time>2026-04-25T13:36:32.446Z</time></trkpt><trkpt lat="40.5869865" lon="15.3366475"><ele>260.0</ele><time>2026-04-25T13:36:33.444Z</time></trkpt><trkpt lat="40.5871859" lon="15.3363231"><ele>244.0</ele><time>2026-04-25T13:36:34.443Z</time></trkpt><trkpt lat="40.5873862" lon="15.3359975"><ele>244.0</ele><time>2026-04-25T13:36:35.444Z</time></trkpt><trkpt lat="40.5875868" lon="15.3356753"><ele>244.0</ele><time>2026-04-25T13:36:36.448Z</time></trkpt><trkpt lat="40.5877883" lon="15.3353525"><ele>235.5</ele><time>2026-04-25T13:36:37.444Z</time></trkpt><trkpt lat="40.5879948" lon="15.3350339"><ele>227.0</ele><time>2026-04-25T13:36:38.443Z</time></trkpt><trkpt lat="40.5882113" lon="15.3347259"><ele>247.5</ele><time>2026-04-25T13:36:39.446Z</time></trkpt><trkpt lat="40.5884276" lon="15.3344215"><ele>268.0</ele><time>2026-04-25T13:36:40.437Z</time></trkpt><trkpt lat="40.5886447" lon="15.334118"><ele>253.0</ele><time>2026-04-25T13:36:41.444Z</time></trkpt><trkpt lat="40.5888606" lon="15.3338152"><ele>238.0</ele><time>2026-04-25T13:36:42.448Z</time></trkpt><trkpt lat="40.5890772" lon="15.3335077"><ele>238.0</ele><time>2026-04-25T13:36:43.442Z</time></trkpt><trkpt lat="40.589289" lon="15.3331941"><ele>238.0</ele><time>2026-04-25T13:36:44.442Z</time></trkpt><trkpt lat="40.5894942" lon="15.332876"><ele>240.5</ele><time>2026-04-25T13:36:45.45Z</time></trkpt><trkpt lat="40.5896915" lon="15.3325502"><ele>243.0</ele><time>2026-04-25T13:36:46.442Z</time></trkpt><trkpt lat="40.5898808" lon="15.3322159"><ele>243.0</ele><time>2026-04-25T13:36:47.445Z</time></trkpt><trkpt lat="40.5900605" lon="15.3318724"><ele>243.0</ele><time>2026-04-25T13:36:48.444Z</time></trkpt><trkpt lat="40.5902302" lon="15.3315217"><ele>227.0</ele><time>2026-04-25T13:36:49.442Z</time></trkpt><trkpt lat="40.5903909" lon="15.3311649"><ele>211.0</ele><time>2026-04-25T13:36:50.442Z</time></trkpt><trkpt lat="40.5905431" lon="15.3308009"><ele>219.5</ele><time>2026-04-25T13:36:51.442Z</time></trkpt><trkpt lat="40.5906881" lon="15.3304293"><ele>228.0</ele><time>2026-04-25T13:36:52.448Z</time></trkpt><trkpt lat="40.5908276" lon="15.3300521"><ele>235.0</ele><time>2026-04-25T13:36:53.444Z</time></trkpt><trkpt lat="40.5909632" lon="15.329672"><ele>242.0</ele><time>2026-04-25T13:36:54.437Z</time></trkpt><trkpt lat="40.5910978" lon="15.3292936"><ele>226.5</ele><time>2026-04-25T13:36:55.442Z</time></trkpt><trkpt lat="40.5912313" lon="15.3289153"><ele>211.0</ele><time>2026-04-25T13:36:56.444Z</time></trkpt><trkpt lat="40.5913666" lon="15.3285406"><ele>211.0</ele><time>2026-04-25T13:36:57.442Z</time></trkpt><trkpt lat="40.5915011" lon="15.3281634"><ele>211.0</ele><time>2026-04-25T13:36:58.443Z</time></trkpt><trkpt lat="40.5916353" lon="15.3277885"><ele>216.5</ele><time>2026-04-25T13:36:59.439Z</time></trkpt><trkpt lat="40.5917665" lon="15.3274129"><ele>222.0</ele><time>2026-04-25T13:37:00.443Z</time></trkpt><trkpt lat="40.591897" lon="15.3270397"><ele>217.0</ele><time>2026-04-25T13:37:01.441Z</time></trkpt><trkpt lat="40.5920324" lon="15.326677"><ele>212.0</ele><time>2026-04-25T13:37:02.438Z</time></trkpt><trkpt lat="40.5921713" lon="15.326324"><ele>212.0</ele><time>2026-04-25T13:37:03.442Z</time></trkpt><trkpt lat="40.5923207" lon="15.3259846"><ele>212.0</ele><time>2026-04-25T13:37:04.441Z</time></trkpt><trkpt lat="40.5924804" lon="15.3256576"><ele>226.0</ele><time>2026-04-25T13:37:05.442Z</time></trkpt><trkpt lat="40.592653" lon="15.3253506"><ele>240.0</ele><time>2026-04-25T13:37:06.447Z</time></trkpt><trkpt lat="40.5928389" lon="15.3250557"><ele>232.5</ele><time>2026-04-25T13:37:07.445Z</time></trkpt><trkpt lat="40.5930338" lon="15.324767"><ele>225.0</ele><time>2026-04-25T13:37:08.445Z</time></trkpt><trkpt lat="40.5932395" lon="15.3244906"><ele>225.0</ele><time>2026-04-25T13:37:09.445Z</time></trkpt><trkpt lat="40.5934483" lon="15.324212"><ele>225.0</ele><time>2026-04-25T13:37:10.447Z</time></trkpt><trkpt lat="40.5936624" lon="15.3239413"><ele>220.5</ele><time>2026-04-25T13:37:11.44Z</time></trkpt><trkpt lat="40.5938817" lon="15.3236777"><ele>216.0</ele><time>2026-04-25T13:37:12.44Z</time></trkpt><trkpt lat="40.5941029" lon="15.3234176"><ele>216.0</ele><time>2026-04-25T13:37:13.435Z</time></trkpt><trkpt lat="40.5943244" lon="15.3231596"><ele>216.0</ele><time>2026-04-25T13:37:14.44Z</time></trkpt><trkpt lat="40.594541" lon="15.3229044"><ele>213.5</ele><time>2026-04-25T13:37:15.44Z</time></trkpt><trkpt lat="40.5947609" lon="15.3226484"><ele>211.0</ele><time>2026-04-25T13:37:16.444Z</time></trkpt><trkpt lat="40.5949722" lon="15.3223858"><ele>203.0</ele><time>2026-04-25T13:37:17.441Z</time></trkpt><trkpt lat="40.5951804" lon="15.3221183"><ele>195.0</ele><time>2026-04-25T13:37:18.434Z</time></trkpt><trkpt lat="40.5953837" lon="15.3218396"><ele>195.0</ele><time>2026-04-25T13:37:19.446Z</time></trkpt><trkpt lat="40.5955811" lon="15.3215535"><ele>195.0</ele><time>2026-04-25T13:37:20.441Z</time></trkpt><trkpt lat="40.5957729" lon="15.3212592"><ele>206.0</ele><time>2026-04-25T13:37:21.441Z</time></trkpt><trkpt lat="40.5959597" lon="15.3209586"><ele>217.0</ele><time>2026-04-25T13:37:22.439Z</time></trkpt><trkpt lat="40.5961408" lon="15.3206506"><ele>207.5</ele><time>2026-04-25T13:37:23.44Z</time></trkpt><trkpt lat="40.5963166" lon="15.3203338"><ele>198.0</ele><time>2026-04-25T13:37:24.449Z</time></trkpt><trkpt lat="40.5964844" lon="15.32001"><ele>210.5</ele><time>2026-04-25T13:37:25.437Z</time></trkpt><trkpt lat="40.59665" lon="15.3196888"><ele>223.0</ele><time>2026-04-25T13:37:26.44Z</time></trkpt><trkpt lat="40.596812" lon="15.3193564"><ele>223.0</ele><time>2026-04-25T13:37:27.445Z</time></trkpt><trkpt lat="40.5969699" lon="15.3190278"><ele>223.0</ele><time>2026-04-25T13:37:28.44Z</time></trkpt><trkpt lat="40.5971282" lon="15.318701"><ele>217.0</ele><time>2026-04-25T13:37:29.447Z</time></trkpt><trkpt lat="40.5972896" lon="15.3183746"><ele>211.0</ele><time>2026-04-25T13:37:30.44Z</time></trkpt><trkpt lat="40.5974495" lon="15.3180482"><ele>211.0</ele><time>2026-04-25T13:37:31.441Z</time></trkpt><trkpt lat="40.5976117" lon="15.3177196"><ele>211.0</ele><time>2026-04-25T13:37:32.441Z</time></trkpt><trkpt lat="40.5977694" lon="15.3173889"><ele>196.5</ele><time>2026-04-25T13:37:33.441Z</time></trkpt><trkpt lat="40.5979251" lon="15.3170551"><ele>182.0</ele><time>2026-04-25T13:37:34.44Z</time></trkpt><trkpt lat="40.5980682" lon="15.3167138"><ele>190.0</ele><time>2026-04-25T13:37:35.44Z</time></trkpt><trkpt lat="40.5981943" lon="15.316362"><ele>198.0</ele><time>2026-04-25T13:37:36.439Z</time></trkpt><trkpt lat="40.5983047" lon="15.3160014"><ele>198.0</ele><time>2026-04-25T13:37:37.447Z</time></trkpt><trkpt lat="40.5984042" lon="15.3156365"><ele>198.0</ele><time>2026-04-25T13:37:38.445Z</time></trkpt><trkpt lat="40.5984971" lon="15.3152666"><ele>205.0</ele><time>2026-04-25T13:37:39.44Z</time></trkpt><trkpt lat="40.5985909" lon="15.3148961"><ele>212.0</ele><time>2026-04-25T13:37:40.442Z</time></trkpt><trkpt lat="40.5986891" lon="15.3145278"><ele>198.0</ele><time>2026-04-25T13:37:41.44Z</time></trkpt><trkpt lat="40.5987953" lon="15.3141636"><ele>184.0</ele><time>2026-04-25T13:37:42.45Z</time></trkpt><trkpt lat="40.5989098" lon="15.3138041"><ele>184.0</ele><time>2026-04-25T13:37:43.44Z</time></trkpt><trkpt lat="40.5990362" lon="15.3134513"><ele>184.0</ele><time>2026-04-25T13:37:44.45Z</time></trkpt><trkpt lat="40.5991724" lon="15.3131079"><ele>196.0</ele><time>2026-04-25T13:37:45.446Z</time></trkpt><trkpt lat="40.5993138" lon="15.312765"><ele>208.0</ele><time>2026-04-25T13:37:46.448Z</time></trkpt><trkpt lat="40.5994565" lon="15.3124253"><ele>194.0</ele><time>2026-04-25T13:37:47.443Z</time></trkpt><trkpt lat="40.5996008" lon="15.3120891"><ele>180.0</ele><time>2026-04-25T13:37:48.441Z</time></trkpt><trkpt lat="40.5997458" lon="15.3117533"><ele>180.0</ele><time>2026-04-25T13:37:49.445Z</time></trkpt><trkpt lat="40.5998903" lon="15.3114177"><ele>180.0</ele><time>2026-04-25T13:37:50.451Z</time></trkpt><trkpt lat="40.6000312" lon="15.3110769"><ele>186.0</ele><time>2026-04-25T13:37:51.441Z</time></trkpt><trkpt lat="40.6001635" lon="15.31073"><ele>192.0</ele><time>2026-04-25T13:37:52.448Z</time></trkpt><trkpt lat="40.6002868" lon="15.310376"><ele>185.5</ele><time>2026-04-25T13:37:53.443Z</time></trkpt><trkpt lat="40.6004066" lon="15.3100287"><ele>179.0</ele><time>2026-04-25T13:37:54.443Z</time></trkpt><trkpt lat="40.6005185" lon="15.3096794"><ele>150.0</ele><time>2026-04-25T13:37:55.448Z</time></trkpt><trkpt lat="40.6052572" lon="15.3005669"><ele>164.5</ele><time>2026-04-25T13:38:24.449Z</time></trkpt><trkpt lat="40.6055057" lon="15.3003121"><ele>179.0</ele><time>2026-04-25T13:38:25.441Z</time></trkpt><trkpt lat="40.6057417" lon="15.3000563"><ele>179.0</ele><time>2026-04-25T13:38:26.446Z</time></trkpt><trkpt lat="40.6059777" lon="15.2998055"><ele>179.0</ele><time>2026-04-25T13:38:27.445Z</time></trkpt><trkpt lat="40.6062038" lon="15.2995539"><ele>177.0</ele><time>2026-04-25T13:38:28.443Z</time></trkpt><trkpt lat="40.6064389" lon="15.2993134"><ele>175.0</ele><time>2026-04-25T13:38:29.454Z</time></trkpt><trkpt lat="40.6066695" lon="15.2990627"><ele>167.5</ele><time>2026-04-25T13:38:30.441Z</time></trkpt><trkpt lat="40.6069003" lon="15.2988152"><ele>160.0</ele><time>2026-04-25T13:38:31.443Z</time></trkpt><trkpt lat="40.6071259" lon="15.2985805"><ele>156.0</ele><time>2026-04-25T13:38:32.441Z</time></trkpt><trkpt lat="40.6073581" lon="15.2983388"><ele>152.0</ele><time>2026-04-25T13:38:33.448Z</time></trkpt><trkpt lat="40.6075864" lon="15.29809"><ele>151.0</ele><time>2026-04-25T13:38:34.444Z</time></trkpt><trkpt lat="40.6078114" lon="15.2978334"><ele>150.0</ele><time>2026-04-25T13:38:35.442Z</time></trkpt><trkpt lat="40.608027" lon="15.2975668"><ele>150.0</ele><time>2026-04-25T13:38:36.443Z</time></trkpt><trkpt lat="40.6082311" lon="15.2972965"><ele>150.0</ele><time>2026-04-25T13:38:37.447Z</time></trkpt><trkpt lat="40.6084329" lon="15.2970048"><ele>151.0</ele><time>2026-04-25T13:38:38.447Z</time></trkpt><trkpt lat="40.6086288" lon="15.2967014"><ele>152.0</ele><time>2026-04-25T13:38:39.442Z</time></trkpt><trkpt lat="40.6088154" lon="15.2963934"><ele>163.0</ele><time>2026-04-25T13:38:40.441Z</time></trkpt><trkpt lat="40.6089859" lon="15.2960767"><ele>174.0</ele><time>2026-04-25T13:38:41.442Z</time></trkpt><trkpt lat="40.6091449" lon="15.2957514"><ele>177.0</ele><time>2026-04-25T13:38:42.437Z</time></trkpt><trkpt lat="40.6092896" lon="15.2954127"><ele>180.0</ele><time>2026-04-25T13:38:43.433Z</time></trkpt><trkpt lat="40.6094207" lon="15.2950645"><ele>178.0</ele><time>2026-04-25T13:38:44.442Z</time></trkpt><trkpt lat="40.609544" lon="15.2947105"><ele>176.0</ele><time>2026-04-25T13:38:45.453Z</time></trkpt><trkpt lat="40.6096564" lon="15.2943533"><ele>176.0</ele><time>2026-04-25T13:38:46.44Z</time></trkpt><trkpt lat="40.6097533" lon="15.2939841"><ele>176.0</ele><time>2026-04-25T13:38:47.446Z</time></trkpt><trkpt lat="40.6098411" lon="15.2936127"><ele>175.0</ele><time>2026-04-25T13:38:48.44Z</time></trkpt><trkpt lat="40.6099157" lon="15.2932358"><ele>174.0</ele><time>2026-04-25T13:38:49.44Z</time></trkpt><trkpt lat="40.6099709" lon="15.2928569"><ele>173.0</ele><time>2026-04-25T13:38:50.436Z</time></trkpt><trkpt lat="40.6100109" lon="15.2924733"><ele>172.0</ele><time>2026-04-25T13:38:51.442Z</time></trkpt><trkpt lat="40.6100399" lon="15.2920848"><ele>171.5</ele><time>2026-04-25T13:38:52.437Z</time></trkpt><trkpt lat="40.6100593" lon="15.291694"><ele>171.0</ele><time>2026-04-25T13:38:53.44Z</time></trkpt><trkpt lat="40.6100715" lon="15.2913037"><ele>170.0</ele><time>2026-04-25T13:38:54.443Z</time></trkpt><trkpt lat="40.6100799" lon="15.290915"><ele>169.0</ele><time>2026-04-25T13:38:55.439Z</time></trkpt><trkpt lat="40.6100888" lon="15.2905233"><ele>168.0</ele><time>2026-04-25T13:38:56.446Z</time></trkpt><trkpt lat="40.6101012" lon="15.2901322"><ele>167.0</ele><time>2026-04-25T13:38:57.449Z</time></trkpt><trkpt lat="40.6101163" lon="15.2897441"><ele>165.5</ele><time>2026-04-25T13:38:58.443Z</time></trkpt><trkpt lat="40.6101371" lon="15.2893548"><ele>164.0</ele><time>2026-04-25T13:38:59.437Z</time></trkpt><trkpt lat="40.610163" lon="15.2889737"><ele>163.0</ele><time>2026-04-25T13:39:00.441Z</time></trkpt><trkpt lat="40.6102018" lon="15.2885902"><ele>162.0</ele><time>2026-04-25T13:39:01.443Z</time></trkpt><trkpt lat="40.6102511" lon="15.2882074"><ele>162.0</ele><time>2026-04-25T13:39:02.437Z</time></trkpt><trkpt lat="40.6103066" lon="15.2878257"><ele>162.0</ele><time>2026-04-25T13:39:03.443Z</time></trkpt><trkpt lat="40.61037" lon="15.2874436"><ele>155.5</ele><time>2026-04-25T13:39:04.44Z</time></trkpt><trkpt lat="40.6104425" lon="15.2870649"><ele>149.0</ele><time>2026-04-25T13:39:05.432Z</time></trkpt><trkpt lat="40.6105293" lon="15.2866889"><ele>146.5</ele><time>2026-04-25T13:39:06.441Z</time></trkpt><trkpt lat="40.6106302" lon="15.2863128"><ele>144.0</ele><time>2026-04-25T13:39:07.439Z</time></trkpt><trkpt lat="40.6107423" lon="15.2859396"><ele>143.5</ele><time>2026-04-25T13:39:08.441Z</time></trkpt><trkpt lat="40.6108638" lon="15.2855674"><ele>143.0</ele><time>2026-04-25T13:39:09.445Z</time></trkpt><trkpt lat="40.6109961" lon="15.2852014"><ele>143.0</ele><time>2026-04-25T13:39:10.436Z</time></trkpt><trkpt lat="40.6111346" lon="15.2848384"><ele>143.0</ele><time>2026-04-25T13:39:11.438Z</time></trkpt><trkpt lat="40.6112828" lon="15.2844777"><ele>152.0</ele><time>2026-04-25T13:39:12.436Z</time></trkpt><trkpt lat="40.6114312" lon="15.2841238"><ele>161.0</ele><time>2026-04-25T13:39:13.44Z</time></trkpt><trkpt lat="40.6115868" lon="15.28377"><ele>161.0</ele><time>2026-04-25T13:39:14.44Z</time></trkpt><trkpt lat="40.6117485" lon="15.2834227"><ele>161.0</ele><time>2026-04-25T13:39:15.443Z</time></trkpt><trkpt lat="40.6119135" lon="15.2830733"><ele>164.0</ele><time>2026-04-25T13:39:16.437Z</time></trkpt><trkpt lat="40.6120785" lon="15.2827236"><ele>167.0</ele><time>2026-04-25T13:39:17.442Z</time></trkpt><trkpt lat="40.6122417" lon="15.2823748"><ele>165.0</ele><time>2026-04-25T13:39:18.437Z</time></trkpt><trkpt lat="40.6124052" lon="15.2820247"><ele>163.0</ele><time>2026-04-25T13:39:19.441Z</time></trkpt><trkpt lat="40.6125661" lon="15.2816721"><ele>163.0</ele><time>2026-04-25T13:39:20.434Z</time></trkpt><trkpt lat="40.6127278" lon="15.2813209"><ele>163.0</ele><time>2026-04-25T13:39:21.44Z</time></trkpt><trkpt lat="40.6128851" lon="15.2809719"><ele>165.0</ele><time>2026-04-25T13:39:22.441Z</time></trkpt><trkpt lat="40.6130402" lon="15.2806134"><ele>167.0</ele><time>2026-04-25T13:39:23.44Z</time></trkpt><trkpt lat="40.6131915" lon="15.2802513"><ele>167.0</ele><time>2026-04-25T13:39:24.438Z</time></trkpt><trkpt lat="40.6133341" lon="15.2798855"><ele>167.0</ele><time>2026-04-25T13:39:25.44Z</time></trkpt><trkpt lat="40.6134734" lon="15.2795188"><ele>168.0</ele><time>2026-04-25T13:39:26.438Z</time></trkpt><trkpt lat="40.6136078" lon="15.2791481"><ele>169.0</ele><time>2026-04-25T13:39:27.441Z</time></trkpt><trkpt lat="40.6137307" lon="15.2787689"><ele>169.5</ele><time>2026-04-25T13:39:28.437Z</time></trkpt><trkpt lat="40.6138456" lon="15.2783864"><ele>170.0</ele><time>2026-04-25T13:39:29.445Z</time></trkpt><trkpt lat="40.6139494" lon="15.2779991"><ele>168.0</ele><time>2026-04-25T13:39:30.44Z</time></trkpt><trkpt lat="40.6140472" lon="15.2776073"><ele>166.0</ele><time>2026-04-25T13:39:31.436Z</time></trkpt><trkpt lat="40.6141389" lon="15.2772143"><ele>165.5</ele><time>2026-04-25T13:39:32.437Z</time></trkpt><trkpt lat="40.6142214" lon="15.2768185"><ele>165.0</ele><time>2026-04-25T13:39:33.441Z</time></trkpt><trkpt lat="40.6142962" lon="15.2764237"><ele>166.0</ele><time>2026-04-25T13:39:34.438Z</time></trkpt><trkpt lat="40.6143611" lon="15.2760342"><ele>167.0</ele><time>2026-04-25T13:39:35.447Z</time></trkpt><trkpt lat="40.6144106" lon="15.2756154"><ele>167.5</ele><time>2026-04-25T13:39:36.441Z</time></trkpt><trkpt lat="40.614462" lon="15.2752151"><ele>168.0</ele><time>2026-04-25T13:39:37.445Z</time></trkpt><trkpt lat="40.6145058" lon="15.274811"><ele>162.0</ele><time>2026-04-25T13:39:38.444Z</time></trkpt><trkpt lat="40.6145444" lon="15.2744065"><ele>156.0</ele><time>2026-04-25T13:39:39.443Z</time></trkpt><trkpt lat="40.6145737" lon="15.2739992"><ele>153.0</ele><time>2026-04-25T13:39:40.438Z</time></trkpt><trkpt lat="40.6145898" lon="15.2735868"><ele>150.0</ele><time>2026-04-25T13:39:41.439Z</time></trkpt><trkpt lat="40.6145982" lon="15.2731754"><ele>150.5</ele><time>2026-04-25T13:39:42.438Z</time></trkpt><trkpt lat="40.6145962" lon="15.2727658"><ele>151.0</ele><time>2026-04-25T13:39:43.443Z</time></trkpt><trkpt lat="40.6145871" lon="15.272354"><ele>151.5</ele><time>2026-04-25T13:39:44.444Z</time></trkpt><trkpt lat="40.6145696" lon="15.2719434"><ele>152.0</ele><time>2026-04-25T13:39:45.44Z</time></trkpt><trkpt lat="40.614547" lon="15.2715342"><ele>155.5</ele><time>2026-04-25T13:39:46.437Z</time></trkpt><trkpt lat="40.6145182" lon="15.271123"><ele>159.0</ele><time>2026-04-25T13:39:47.44Z</time></trkpt><trkpt lat="40.6144866" lon="15.2707128"><ele>165.5</ele><time>2026-04-25T13:39:48.437Z</time></trkpt><trkpt lat="40.6144504" lon="15.2703033"><ele>172.0</ele><time>2026-04-25T13:39:49.439Z</time></trkpt><trkpt lat="40.6144109" lon="15.2698939"><ele>170.0</ele><time>2026-04-25T13:39:50.447Z</time></trkpt><trkpt lat="40.6143646" lon="15.2694874"><ele>168.0</ele><time>2026-04-25T13:39:51.439Z</time></trkpt><trkpt lat="40.614319" lon="15.2690801"><ele>166.0</ele><time>2026-04-25T13:39:52.439Z</time></trkpt><trkpt lat="40.6142638" lon="15.2686683"><ele>164.0</ele><time>2026-04-25T13:39:53.437Z</time></trkpt><trkpt lat="40.6142096" lon="15.2682638"><ele>162.5</ele><time>2026-04-25T13:39:54.437Z</time></trkpt><trkpt lat="40.614149" lon="15.2678683"><ele>161.0</ele><time>2026-04-25T13:39:55.442Z</time></trkpt><trkpt lat="40.6140942" lon="15.2674618"><ele>160.5</ele><time>2026-04-25T13:39:56.444Z</time></trkpt><trkpt lat="40.6140384" lon="15.2670573"><ele>160.0</ele><time>2026-04-25T13:39:57.442Z</time></trkpt><trkpt lat="40.6139832" lon="15.2666525"><ele>162.0</ele><time>2026-04-25T13:39:58.44Z</time></trkpt><trkpt lat="40.6139263" lon="15.2662491"><ele>164.0</ele><time>2026-04-25T13:39:59.437Z</time></trkpt><trkpt lat="40.6138733" lon="15.2658448"><ele>161.0</ele><time>2026-04-25T13:40:00.442Z</time></trkpt><trkpt lat="40.6138183" lon="15.2654401"><ele>158.0</ele><time>2026-04-25T13:40:01.449Z</time></trkpt><trkpt lat="40.6137603" lon="15.2650358"><ele>154.0</ele><time>2026-04-25T13:40:02.443Z</time></trkpt><trkpt lat="40.6136994" lon="15.2646334"><ele>150.0</ele><time>2026-04-25T13:40:03.439Z</time></trkpt><trkpt lat="40.6136407" lon="15.2642298"><ele>145.0</ele><time>2026-04-25T13:40:04.442Z</time></trkpt><trkpt lat="40.6135825" lon="15.2638246"><ele>140.0</ele><time>2026-04-25T13:40:05.44Z</time></trkpt><trkpt lat="40.6135254" lon="15.2634194"><ele>141.5</ele><time>2026-04-25T13:40:06.445Z</time></trkpt><trkpt lat="40.6134694" lon="15.2630138"><ele>143.0</ele><time>2026-04-25T13:40:07.443Z</time></trkpt><trkpt lat="40.6134135" lon="15.2626086"><ele>142.0</ele><time>2026-04-25T13:40:08.435Z</time></trkpt><trkpt lat="40.613358" lon="15.2622016"><ele>141.0</ele><time>2026-04-25T13:40:09.443Z</time></trkpt><trkpt lat="40.6133033" lon="15.2617952"><ele>136.5</ele><time>2026-04-25T13:40:10.444Z</time></trkpt><trkpt lat="40.6132477" lon="15.2613916"><ele>132.0</ele><time>2026-04-25T13:40:11.447Z</time></trkpt><trkpt lat="40.6131913" lon="15.2609868"><ele>123.0</ele><time>2026-04-25T13:40:12.436Z</time></trkpt><trkpt lat="40.6131361" lon="15.2605837"><ele>114.0</ele><time>2026-04-25T13:40:13.447Z</time></trkpt><trkpt lat="40.61308" lon="15.2601795"><ele>106.5</ele><time>2026-04-25T13:40:14.436Z</time></trkpt><trkpt lat="40.6130239" lon="15.2597753"><ele>99.0</ele><time>2026-04-25T13:40:15.443Z</time></trkpt><trkpt lat="40.6129659" lon="15.259371"><ele>99.0</ele><time>2026-04-25T13:40:16.447Z</time></trkpt><trkpt lat="40.6129081" lon="15.2589669"><ele>99.0</ele><time>2026-04-25T13:40:17.44Z</time></trkpt><trkpt lat="40.6128525" lon="15.258562"><ele>99.0</ele><time>2026-04-25T13:40:18.439Z</time></trkpt><trkpt lat="40.612803" lon="15.2581564"><ele>99.0</ele><time>2026-04-25T13:40:19.442Z</time></trkpt><trkpt lat="40.6127618" lon="15.2577493"><ele>99.0</ele><time>2026-04-25T13:40:20.443Z</time></trkpt><trkpt lat="40.6127275" lon="15.2573414"><ele>99.0</ele><time>2026-04-25T13:40:21.445Z</time></trkpt><trkpt lat="40.6127003" lon="15.2569327"><ele>98.5</ele><time>2026-04-25T13:40:22.442Z</time></trkpt><trkpt lat="40.6126796" lon="15.2565232"><ele>98.0</ele><time>2026-04-25T13:40:23.436Z</time></trkpt><trkpt lat="40.6126642" lon="15.2561132"><ele>102.0</ele><time>2026-04-25T13:40:24.438Z</time></trkpt><trkpt lat="40.6126587" lon="15.2557035"><ele>106.0</ele><time>2026-04-25T13:40:25.436Z</time></trkpt><trkpt lat="40.612662" lon="15.2552947"><ele>108.5</ele><time>2026-04-25T13:40:26.438Z</time></trkpt><trkpt lat="40.6126709" lon="15.254884"><ele>111.0</ele><time>2026-04-25T13:40:27.435Z</time></trkpt><trkpt lat="40.6126867" lon="15.2544742"><ele>113.0</ele><time>2026-04-25T13:40:28.436Z</time></trkpt><trkpt lat="40.6127168" lon="15.2540651"><ele>115.0</ele><time>2026-04-25T13:40:29.445Z</time></trkpt><trkpt lat="40.6127588" lon="15.2536586"><ele>116.5</ele><time>2026-04-25T13:40:30.44Z</time></trkpt><trkpt lat="40.612811" lon="15.2532543"><ele>118.0</ele><time>2026-04-25T13:40:31.444Z</time></trkpt><trkpt lat="40.6128743" lon="15.2528524"><ele>114.0</ele><time>2026-04-25T13:40:32.436Z</time></trkpt><trkpt lat="40.6129491" lon="15.2524541"><ele>110.0</ele><time>2026-04-25T13:40:33.438Z</time></trkpt><trkpt lat="40.6130341" lon="15.252059"><ele>110.0</ele><time>2026-04-25T13:40:34.44Z</time></trkpt><trkpt lat="40.6131281" lon="15.2516675"><ele>110.0</ele><time>2026-04-25T13:40:35.438Z</time></trkpt><trkpt lat="40.6132309" lon="15.2512795"><ele>116.5</ele><time>2026-04-25T13:40:36.44Z</time></trkpt><trkpt lat="40.613346" lon="15.2508965"><ele>123.0</ele><time>2026-04-25T13:40:37.434Z</time></trkpt><trkpt lat="40.6134737" lon="15.2505218"><ele>118.5</ele><time>2026-04-25T13:40:38.447Z</time></trkpt><trkpt lat="40.6135993" lon="15.2501549"><ele>114.0</ele><time>2026-04-25T13:40:39.433Z</time></trkpt><trkpt lat="40.6175727" lon="15.2450581"><ele>112.5</ele><time>2026-04-25T13:40:57.412Z</time></trkpt><trkpt lat="40.6178309" lon="15.2448568"><ele>111.0</ele><time>2026-04-25T13:40:58.436Z</time></trkpt><trkpt lat="40.6181003" lon="15.2446732"><ele>111.0</ele><time>2026-04-25T13:40:59.44Z</time></trkpt><trkpt lat="40.6183815" lon="15.2444946"><ele>111.0</ele><time>2026-04-25T13:41:00.446Z</time></trkpt><trkpt lat="40.6186622" lon="15.2443115"><ele>112.5</ele><time>2026-04-25T13:41:01.448Z</time></trkpt><trkpt lat="40.6189436" lon="15.2441238"><ele>114.0</ele><time>2026-04-25T13:41:02.439Z</time></trkpt><trkpt lat="40.6192229" lon="15.2439323"><ele>113.5</ele><time>2026-04-25T13:41:03.436Z</time></trkpt><trkpt lat="40.619504" lon="15.2437358"><ele>113.0</ele><time>2026-04-25T13:41:04.437Z</time></trkpt><trkpt lat="40.6265972" lon="15.2377011"><ele>113.0</ele><time>2026-04-25T13:41:31.397Z</time></trkpt><trkpt lat="40.6267609" lon="15.2373649"><ele>113.0</ele><time>2026-04-25T13:41:32.434Z</time></trkpt><trkpt lat="40.6269469" lon="15.2370381"><ele>110.0</ele><time>2026-04-25T13:41:33.443Z</time></trkpt><trkpt lat="40.6271259" lon="15.2367047"><ele>107.0</ele><time>2026-04-25T13:41:34.45Z</time></trkpt><trkpt lat="40.6272919" lon="15.236367"><ele>107.0</ele><time>2026-04-25T13:41:35.446Z</time></trkpt><trkpt lat="40.6274507" lon="15.2360296"><ele>107.0</ele><time>2026-04-25T13:41:36.444Z</time></trkpt><trkpt lat="40.6276041" lon="15.2356953"><ele>110.0</ele><time>2026-04-25T13:41:37.45Z</time></trkpt><trkpt lat="40.6277325" lon="15.2353802"><ele>113.0</ele><time>2026-04-25T13:41:38.449Z</time></trkpt><trkpt lat="40.627849" lon="15.2350842"><ele>109.5</ele><time>2026-04-25T13:41:39.444Z</time></trkpt><trkpt lat="40.6279451" lon="15.2348"><ele>106.0</ele><time>2026-04-25T13:41:40.449Z</time></trkpt><trkpt lat="40.62804" lon="15.2345387"><ele>106.0</ele><time>2026-04-25T13:41:41.448Z</time></trkpt><trkpt lat="40.6281379" lon="15.2343002"><ele>106.0</ele><time>2026-04-25T13:41:42.435Z</time></trkpt><trkpt lat="40.6282293" lon="15.2341098"><ele>106.0</ele><time>2026-04-25T13:41:43.448Z</time></trkpt><trkpt lat="40.6283518" lon="15.2339105"><ele>106.33333333333334</ele><time>2026-04-25T13:41:44.441Z</time></trkpt><trkpt lat="40.6284807" lon="15.2337412"><ele>106.66666666666666</ele><time>2026-04-25T13:41:45.446Z</time></trkpt><trkpt lat="40.6286218" lon="15.2335904"><ele>107.0</ele><time>2026-04-25T13:41:46.446Z</time></trkpt><trkpt lat="40.6287588" lon="15.2334577"><ele>107.0</ele><time>2026-04-25T13:41:47.445Z</time></trkpt><trkpt lat="40.6289054" lon="15.2333343"><ele>107.0</ele><time>2026-04-25T13:41:48.442Z</time></trkpt><trkpt lat="40.6290547" lon="15.2332135"><ele>107.0</ele><time>2026-04-25T13:41:49.436Z</time></trkpt><trkpt lat="40.6292046" lon="15.2331013"><ele>107.0</ele><time>2026-04-25T13:41:50.446Z</time></trkpt><trkpt lat="40.6293475" lon="15.2329911"><ele>107.0</ele><time>2026-04-25T13:41:51.437Z</time></trkpt><trkpt lat="40.6294754" lon="15.2328661"><ele>107.0</ele><time>2026-04-25T13:41:52.439Z</time></trkpt><trkpt lat="40.6295933" lon="15.2327245"><ele>103.66666666666666</ele><time>2026-04-25T13:41:53.44Z</time></trkpt><trkpt lat="40.6296947" lon="15.2325659"><ele>100.33333333333334</ele><time>2026-04-25T13:41:54.437Z</time></trkpt><trkpt lat="40.6297739" lon="15.2323968"><ele>97.0</ele><time>2026-04-25T13:41:55.441Z</time></trkpt><trkpt lat="40.6298285" lon="15.2322189"><ele>97.0</ele><time>2026-04-25T13:41:56.44Z</time></trkpt><trkpt lat="40.6298589" lon="15.2320257"><ele>97.0</ele><time>2026-04-25T13:41:57.443Z</time></trkpt><trkpt lat="40.6298707" lon="15.2318301"><ele>97.0</ele><time>2026-04-25T13:41:58.441Z</time></trkpt><trkpt lat="40.629861" lon="15.2316199"><ele>94.33333333333334</ele><time>2026-04-25T13:41:59.461Z</time></trkpt><trkpt lat="40.6298227" lon="15.2314118"><ele>91.66666666666667</ele><time>2026-04-25T13:42:00.436Z</time></trkpt><trkpt lat="40.6297565" lon="15.2312153"><ele>89.0</ele><time>2026-04-25T13:42:01.446Z</time></trkpt><trkpt lat="40.6296674" lon="15.231037"><ele>89.0</ele><time>2026-04-25T13:42:02.436Z</time></trkpt><trkpt lat="40.6295691" lon="15.2308776"><ele>89.0</ele><time>2026-04-25T13:42:03.446Z</time></trkpt><trkpt lat="40.6294732" lon="15.2307279"><ele>89.0</ele><time>2026-04-25T13:42:04.436Z</time></trkpt><trkpt lat="40.6293795" lon="15.2305948"><ele>89.0</ele><time>2026-04-25T13:42:05.442Z</time></trkpt><trkpt lat="40.6292983" lon="15.2304669"><ele>90.6</ele><time>2026-04-25T13:42:06.453Z</time></trkpt><trkpt lat="40.6292241" lon="15.2303434"><ele>92.2</ele><time>2026-04-25T13:42:07.466Z</time></trkpt><trkpt lat="40.6291524" lon="15.2302259"><ele>93.8</ele><time>2026-04-25T13:42:08.439Z</time></trkpt><trkpt lat="40.6290924" lon="15.230108"><ele>95.39999999999999</ele><time>2026-04-25T13:42:09.44Z</time></trkpt><trkpt lat="40.6290431" lon="15.2299878"><ele>97.0</ele><time>2026-04-25T13:42:10.435Z</time></trkpt><trkpt lat="40.6289903" lon="15.2298574"><ele>94.75</ele><time>2026-04-25T13:42:11.438Z</time></trkpt><trkpt lat="40.6289441" lon="15.2297214"><ele>92.5</ele><time>2026-04-25T13:42:12.437Z</time></trkpt><trkpt lat="40.6289043" lon="15.2295671"><ele>90.25</ele><time>2026-04-25T13:42:13.445Z</time></trkpt><trkpt lat="40.6288783" lon="15.2294042"><ele>88.0</ele><time>2026-04-25T13:42:14.471Z</time></trkpt><trkpt lat="40.6288614" lon="15.2292277"><ele>88.0</ele><time>2026-04-25T13:42:15.449Z</time></trkpt><trkpt lat="40.6288626" lon="15.2290346"><ele>88.0</ele><time>2026-04-25T13:42:16.444Z</time></trkpt><trkpt lat="40.6288684" lon="15.2288307"><ele>88.0</ele><time>2026-04-25T13:42:17.443Z</time></trkpt><trkpt lat="40.6288736" lon="15.2286136"><ele>84.66666666666666</ele><time>2026-04-25T13:42:18.441Z</time></trkpt><trkpt lat="40.6288731" lon="15.2283882"><ele>81.33333333333333</ele><time>2026-04-25T13:42:19.436Z</time></trkpt><trkpt lat="40.6288713" lon="15.2281597"><ele>78.0</ele><time>2026-04-25T13:42:20.443Z</time></trkpt><trkpt lat="40.6288763" lon="15.2279182"><ele>76.66666666666667</ele><time>2026-04-25T13:42:21.461Z</time></trkpt><trkpt lat="40.6288814" lon="15.2276697"><ele>75.33333333333334</ele><time>2026-04-25T13:42:22.442Z</time></trkpt><trkpt lat="40.6288859" lon="15.2274218"><ele>74.0</ele><time>2026-04-25T13:42:23.436Z</time></trkpt><trkpt lat="40.6288916" lon="15.2271677"><ele>73.66666666666667</ele><time>2026-04-25T13:42:24.435Z</time></trkpt><trkpt lat="40.6288966" lon="15.2269084"><ele>73.33333333333333</ele><time>2026-04-25T13:42:25.442Z</time></trkpt><trkpt lat="40.6289021" lon="15.2266433"><ele>73.0</ele><time>2026-04-25T13:42:26.436Z</time></trkpt><trkpt lat="40.6289072" lon="15.2263749"><ele>72.66666666666666</ele><time>2026-04-25T13:42:27.445Z</time></trkpt><trkpt lat="40.6289128" lon="15.2261044"><ele>72.33333333333333</ele><time>2026-04-25T13:42:28.439Z</time></trkpt><trkpt lat="40.6289197" lon="15.2258278"><ele>72.0</ele><time>2026-04-25T13:42:29.449Z</time></trkpt><trkpt lat="40.6289315" lon="15.2255535"><ele>71.66666666666667</ele><time>2026-04-25T13:42:30.443Z</time></trkpt><trkpt lat="40.6289369" lon="15.2252765"><ele>71.33333333333334</ele><time>2026-04-25T13:42:31.435Z</time></trkpt><trkpt lat="40.6289441" lon="15.2249972"><ele>71.0</ele><time>2026-04-25T13:42:32.445Z</time></trkpt><trkpt lat="40.628949" lon="15.2247197"><ele>71.0</ele><time>2026-04-25T13:42:33.436Z</time></trkpt><trkpt lat="40.6289539" lon="15.2244403"><ele>71.0</ele><time>2026-04-25T13:42:34.444Z</time></trkpt><trkpt lat="40.628959" lon="15.2241563"><ele>71.0</ele><time>2026-04-25T13:42:35.442Z</time></trkpt><trkpt lat="40.6289645" lon="15.2238743"><ele>73.0</ele><time>2026-04-25T13:42:36.437Z</time></trkpt><trkpt lat="40.6289711" lon="15.2236063"><ele>75.0</ele><time>2026-04-25T13:42:37.442Z</time></trkpt><trkpt lat="40.6289857" lon="15.2233576"><ele>77.0</ele><time>2026-04-25T13:42:38.442Z</time></trkpt><trkpt lat="40.6290242" lon="15.2231354"><ele>78.5</ele><time>2026-04-25T13:42:39.441Z</time></trkpt><trkpt lat="40.6290879" lon="15.2229612"><ele>80.0</ele><time>2026-04-25T13:42:40.441Z</time></trkpt><trkpt lat="40.6291781" lon="15.2228364"><ele>81.5</ele><time>2026-04-25T13:42:41.45Z</time></trkpt><trkpt lat="40.6292913" lon="15.2227553"><ele>83.0</ele><time>2026-04-25T13:42:42.443Z</time></trkpt><trkpt lat="40.629423" lon="15.2227165"><ele>84.75</ele><time>2026-04-25T13:42:43.44Z</time></trkpt><trkpt lat="40.62956" lon="15.2227277"><ele>86.5</ele><time>2026-04-25T13:42:44.442Z</time></trkpt><trkpt lat="40.6296878" lon="15.222792"><ele>88.25</ele><time>2026-04-25T13:42:45.444Z</time></trkpt><trkpt lat="40.6298018" lon="15.2228978"><ele>90.0</ele><time>2026-04-25T13:42:46.441Z</time></trkpt><trkpt lat="40.6299121" lon="15.2230269"><ele>90.66666666666667</ele><time>2026-04-25T13:42:47.447Z</time></trkpt><trkpt lat="40.6300327" lon="15.2231564"><ele>91.33333333333334</ele><time>2026-04-25T13:42:48.442Z</time></trkpt><trkpt lat="40.6301683" lon="15.2232699"><ele>92.0</ele><time>2026-04-25T13:42:49.438Z</time></trkpt><trkpt lat="40.6303093" lon="15.223373"><ele>92.0</ele><time>2026-04-25T13:42:50.448Z</time></trkpt><trkpt lat="40.630466" lon="15.2234513"><ele>92.0</ele><time>2026-04-25T13:42:51.44Z</time></trkpt><trkpt lat="40.6306263" lon="15.2235226"><ele>92.0</ele><time>2026-04-25T13:42:52.44Z</time></trkpt><trkpt lat="40.6307919" lon="15.2235982"><ele>92.0</ele><time>2026-04-25T13:42:53.44Z</time></trkpt><trkpt lat="40.6309586" lon="15.223673"><ele>92.0</ele><time>2026-04-25T13:42:54.437Z</time></trkpt><trkpt lat="40.6311172" lon="15.2237747"><ele>92.0</ele><time>2026-04-25T13:42:55.442Z</time></trkpt><trkpt lat="40.6312623" lon="15.2238869"><ele>91.0</ele><time>2026-04-25T13:42:56.446Z</time></trkpt><trkpt lat="40.6314052" lon="15.2239942"><ele>90.0</ele><time>2026-04-25T13:42:57.444Z</time></trkpt><trkpt lat="40.6315487" lon="15.2240936"><ele>89.0</ele><time>2026-04-25T13:42:58.442Z</time></trkpt><trkpt lat="40.6316911" lon="15.2241926"><ele>89.0</ele><time>2026-04-25T13:42:59.445Z</time></trkpt><trkpt lat="40.631831" lon="15.2242914"><ele>89.0</ele><time>2026-04-25T13:43:00.437Z</time></trkpt><trkpt lat="40.6319733" lon="15.2243937"><ele>89.0</ele><time>2026-04-25T13:43:01.457Z</time></trkpt><trkpt lat="40.6321154" lon="15.2244982"><ele>89.33333333333334</ele><time>2026-04-25T13:43:02.44Z</time></trkpt><trkpt lat="40.6322582" lon="15.2246097"><ele>89.66666666666667</ele><time>2026-04-25T13:43:03.444Z</time></trkpt><trkpt lat="40.6324036" lon="15.2247266"><ele>90.0</ele><time>2026-04-25T13:43:04.445Z</time></trkpt><trkpt lat="40.6325513" lon="15.2248483"><ele>90.0</ele><time>2026-04-25T13:43:05.439Z</time></trkpt><trkpt lat="40.6326959" lon="15.2249732"><ele>90.0</ele><time>2026-04-25T13:43:06.442Z</time></trkpt><trkpt lat="40.6328335" lon="15.2251069"><ele>90.0</ele><time>2026-04-25T13:43:07.44Z</time></trkpt><trkpt lat="40.6329642" lon="15.2252455"><ele>91.33333333333333</ele><time>2026-04-25T13:43:08.445Z</time></trkpt><trkpt lat="40.6330927" lon="15.2253804"><ele>92.66666666666666</ele><time>2026-04-25T13:43:09.454Z</time></trkpt><trkpt lat="40.6332153" lon="15.2255046"><ele>94.0</ele><time>2026-04-25T13:43:10.446Z</time></trkpt><trkpt lat="40.6333303" lon="15.2256172"><ele>94.0</ele><time>2026-04-25T13:43:11.443Z</time></trkpt><trkpt lat="40.6334382" lon="15.2257221"><ele>94.0</ele><time>2026-04-25T13:43:12.438Z</time></trkpt><trkpt lat="40.633538" lon="15.225822"><ele>94.0</ele><time>2026-04-25T13:43:13.44Z</time></trkpt><trkpt lat="40.6336314" lon="15.2259166"><ele>94.0</ele><time>2026-04-25T13:43:14.444Z</time></trkpt><trkpt lat="40.6337198" lon="15.2260067"><ele>94.0</ele><time>2026-04-25T13:43:15.442Z</time></trkpt><trkpt lat="40.6338023" lon="15.2260934"><ele>94.0</ele><time>2026-04-25T13:43:16.445Z</time></trkpt><trkpt lat="40.6338719" lon="15.2261686"><ele>94.0</ele><time>2026-04-25T13:43:17.437Z</time></trkpt><trkpt lat="40.6339241" lon="15.2262274"><ele>94.0</ele><time>2026-04-25T13:43:18.445Z</time></trkpt><trkpt lat="40.6340051" lon="15.2262913"><ele>94.0</ele><time>2026-04-25T13:43:20.448Z</time></trkpt><trkpt lat="40.6340752" lon="15.2262475"><ele>94.0</ele><time>2026-04-25T13:43:22.448Z</time></trkpt><trkpt lat="40.6341059" lon="15.2261133"><ele>94.0</ele><time>2026-04-25T13:43:24.45Z</time></trkpt><trkpt lat="40.6341268" lon="15.2260237"><ele>94.0</ele><time>2026-04-25T13:43:25.437Z</time></trkpt><trkpt lat="40.6341695" lon="15.2259444"><ele>94.0</ele><time>2026-04-25T13:43:26.438Z</time></trkpt><trkpt lat="40.6342301" lon="15.2259014"><ele>94.0</ele><time>2026-04-25T13:43:27.441Z</time></trkpt><trkpt lat="40.6342991" lon="15.2258983"><ele>94.0</ele><time>2026-04-25T13:43:28.442Z</time></trkpt><trkpt lat="40.6343697" lon="15.2259367"><ele>94.0</ele><time>2026-04-25T13:43:29.446Z</time></trkpt><trkpt lat="40.6344349" lon="15.226008"><ele>94.0</ele><time>2026-04-25T13:43:30.445Z</time></trkpt><trkpt lat="40.6345037" lon="15.2261026"><ele>94.0</ele><time>2026-04-25T13:43:31.451Z</time></trkpt><trkpt lat="40.6345865" lon="15.2262069"><ele>94.0</ele><time>2026-04-25T13:43:32.443Z</time></trkpt><trkpt lat="40.6346877" lon="15.2263152"><ele>94.0</ele><time>2026-04-25T13:43:33.441Z</time></trkpt><trkpt lat="40.6348069" lon="15.2264263"><ele>94.0</ele><time>2026-04-25T13:43:34.455Z</time></trkpt><trkpt lat="40.63494" lon="15.2265429"><ele>94.0</ele><time>2026-04-25T13:43:35.441Z</time></trkpt><trkpt lat="40.6350848" lon="15.2266605"><ele>94.0</ele><time>2026-04-25T13:43:36.446Z</time></trkpt><trkpt lat="40.6352418" lon="15.226771"><ele>94.0</ele><time>2026-04-25T13:43:37.438Z</time></trkpt><trkpt lat="40.6354239" lon="15.2268718"><ele>98.0</ele><time>2026-04-25T13:43:38.439Z</time></trkpt><trkpt lat="40.6356361" lon="15.2269618"><ele>102.0</ele><time>2026-04-25T13:43:39.437Z</time></trkpt><trkpt lat="40.6358659" lon="15.2270275"><ele>102.0</ele><time>2026-04-25T13:43:40.446Z</time></trkpt><trkpt lat="40.6361038" lon="15.2270586"><ele>102.0</ele><time>2026-04-25T13:43:41.438Z</time></trkpt><trkpt lat="40.636343" lon="15.2270559"><ele>103.5</ele><time>2026-04-25T13:43:42.448Z</time></trkpt><trkpt lat="40.6365783" lon="15.227019"><ele>105.0</ele><time>2026-04-25T13:43:43.446Z</time></trkpt><trkpt lat="40.6368057" lon="15.2269512"><ele>104.5</ele><time>2026-04-25T13:43:44.437Z</time></trkpt><trkpt lat="40.6370306" lon="15.2268741"><ele>104.0</ele><time>2026-04-25T13:43:45.446Z</time></trkpt><trkpt lat="40.637232" lon="15.2267522"><ele>104.0</ele><time>2026-04-25T13:43:46.445Z</time></trkpt><trkpt lat="40.6374244" lon="15.2266039"><ele>104.0</ele><time>2026-04-25T13:43:47.448Z</time></trkpt><trkpt lat="40.6376017" lon="15.2264308"><ele>104.0</ele><time>2026-04-25T13:43:48.436Z</time></trkpt><trkpt lat="40.637771" lon="15.2262346"><ele>106.5</ele><time>2026-04-25T13:43:49.438Z</time></trkpt><trkpt lat="40.6379369" lon="15.226013"><ele>109.0</ele><time>2026-04-25T13:43:50.443Z</time></trkpt><trkpt lat="40.6380954" lon="15.2257763"><ele>113.0</ele><time>2026-04-25T13:43:51.441Z</time></trkpt><trkpt lat="40.6382598" lon="15.2255244"><ele>117.0</ele><time>2026-04-25T13:43:52.438Z</time></trkpt><trkpt lat="40.6384292" lon="15.2252627"><ele>117.0</ele><time>2026-04-25T13:43:53.441Z</time></trkpt><trkpt lat="40.6386021" lon="15.2249965"><ele>117.0</ele><time>2026-04-25T13:43:54.439Z</time></trkpt><trkpt lat="40.6387789" lon="15.2247278"><ele>117.5</ele><time>2026-04-25T13:43:55.437Z</time></trkpt><trkpt lat="40.6389576" lon="15.2244547"><ele>118.0</ele><time>2026-04-25T13:43:56.438Z</time></trkpt><trkpt lat="40.6391374" lon="15.2241799"><ele>118.5</ele><time>2026-04-25T13:43:57.44Z</time></trkpt><trkpt lat="40.6393183" lon="15.2239041"><ele>119.0</ele><time>2026-04-25T13:43:58.439Z</time></trkpt><trkpt lat="40.6395001" lon="15.2236304"><ele>119.0</ele><time>2026-04-25T13:43:59.443Z</time></trkpt><trkpt lat="40.6396837" lon="15.2233594"><ele>119.0</ele><time>2026-04-25T13:44:00.441Z</time></trkpt><trkpt lat="40.6398603" lon="15.2230959"><ele>125.0</ele><time>2026-04-25T13:44:01.441Z</time></trkpt><trkpt lat="40.6400279" lon="15.2228422"><ele>131.0</ele><time>2026-04-25T13:44:02.444Z</time></trkpt><trkpt lat="40.6401936" lon="15.2226038"><ele>134.0</ele><time>2026-04-25T13:44:03.456Z</time></trkpt><trkpt lat="40.6403672" lon="15.2223829"><ele>137.0</ele><time>2026-04-25T13:44:04.437Z</time></trkpt><trkpt lat="40.6405497" lon="15.2221817"><ele>137.0</ele><time>2026-04-25T13:44:05.448Z</time></trkpt><trkpt lat="40.6407391" lon="15.2219977"><ele>137.0</ele><time>2026-04-25T13:44:06.442Z</time></trkpt><trkpt lat="40.6409385" lon="15.2218145"><ele>135.0</ele><time>2026-04-25T13:44:07.453Z</time></trkpt><trkpt lat="40.6411424" lon="15.2216272"><ele>133.0</ele><time>2026-04-25T13:44:08.449Z</time></trkpt><trkpt lat="40.6413488" lon="15.2214494"><ele>135.66666666666669</ele><time>2026-04-25T13:44:09.444Z</time></trkpt><trkpt lat="40.6415467" lon="15.2212892"><ele>138.33333333333334</ele><time>2026-04-25T13:44:10.441Z</time></trkpt><trkpt lat="40.6417266" lon="15.2211366"><ele>141.0</ele><time>2026-04-25T13:44:11.443Z</time></trkpt><trkpt lat="40.641899" lon="15.2209821"><ele>139.66666666666666</ele><time>2026-04-25T13:44:12.445Z</time></trkpt><trkpt lat="40.6420697" lon="15.2208284"><ele>138.33333333333331</ele><time>2026-04-25T13:44:13.441Z</time></trkpt><trkpt lat="40.6422439" lon="15.2206765"><ele>137.0</ele><time>2026-04-25T13:44:14.442Z</time></trkpt><trkpt lat="40.6424258" lon="15.2205204"><ele>139.33333333333331</ele><time>2026-04-25T13:44:15.447Z</time></trkpt><trkpt lat="40.6426124" lon="15.220363"><ele>141.66666666666666</ele><time>2026-04-25T13:44:16.441Z</time></trkpt><trkpt lat="40.6427939" lon="15.2201903"><ele>144.0</ele><time>2026-04-25T13:44:17.449Z</time></trkpt><trkpt lat="40.6429662" lon="15.2200322"><ele>144.0</ele><time>2026-04-25T13:44:18.45Z</time></trkpt><trkpt lat="40.6431263" lon="15.2198727"><ele>144.0</ele><time>2026-04-25T13:44:19.449Z</time></trkpt><trkpt lat="40.6432787" lon="15.2197168"><ele>144.0</ele><time>2026-04-25T13:44:20.445Z</time></trkpt><trkpt lat="40.6434187" lon="15.2195703"><ele>145.5</ele><time>2026-04-25T13:44:21.443Z</time></trkpt><trkpt lat="40.6435456" lon="15.2194347"><ele>147.0</ele><time>2026-04-25T13:44:22.451Z</time></trkpt><trkpt lat="40.6436587" lon="15.2193125"><ele>148.5</ele><time>2026-04-25T13:44:23.44Z</time></trkpt><trkpt lat="40.6437606" lon="15.2192137"><ele>150.0</ele><time>2026-04-25T13:44:24.446Z</time></trkpt><trkpt lat="40.6438608" lon="15.2191416"><ele>150.0</ele><time>2026-04-25T13:44:25.441Z</time></trkpt><trkpt lat="40.6439551" lon="15.2190993"><ele>150.0</ele><time>2026-04-25T13:44:26.439Z</time></trkpt><trkpt lat="40.6440537" lon="15.219076"><ele>150.0</ele><time>2026-04-25T13:44:27.444Z</time></trkpt><trkpt lat="40.6441629" lon="15.2190601"><ele>150.0</ele><time>2026-04-25T13:44:28.442Z</time></trkpt><trkpt lat="40.6442853" lon="15.2190443"><ele>150.0</ele><time>2026-04-25T13:44:29.452Z</time></trkpt><trkpt lat="40.6444245" lon="15.2190282"><ele>149.25</ele><time>2026-04-25T13:44:30.447Z</time></trkpt><trkpt lat="40.6445692" lon="15.2190193"><ele>148.5</ele><time>2026-04-25T13:44:31.437Z</time></trkpt><trkpt lat="40.6447177" lon="15.2189919"><ele>147.75</ele><time>2026-04-25T13:44:32.445Z</time></trkpt><trkpt lat="40.6448714" lon="15.2189703"><ele>147.0</ele><time>2026-04-25T13:44:33.446Z</time></trkpt><trkpt lat="40.6450259" lon="15.218977"><ele>147.0</ele><time>2026-04-25T13:44:34.453Z</time></trkpt><trkpt lat="40.6451738" lon="15.2190023"><ele>147.0</ele><time>2026-04-25T13:44:35.445Z</time></trkpt><trkpt lat="40.6453111" lon="15.2190403"><ele>147.0</ele><time>2026-04-25T13:44:36.456Z</time></trkpt><trkpt lat="40.6454286" lon="15.2190947"><ele>147.0</ele><time>2026-04-25T13:44:37.445Z</time></trkpt><trkpt lat="40.6455155" lon="15.2191773"><ele>149.0</ele><time>2026-04-25T13:44:38.441Z</time></trkpt><trkpt lat="40.6455989" lon="15.2192861"><ele>151.0</ele><time>2026-04-25T13:44:39.448Z</time></trkpt><trkpt lat="40.6456738" lon="15.2194234"><ele>153.0</ele><time>2026-04-25T13:44:40.438Z</time></trkpt><trkpt lat="40.6457538" lon="15.2195758"><ele>155.0</ele><time>2026-04-25T13:44:41.45Z</time></trkpt><trkpt lat="40.6458368" lon="15.2197295"><ele>154.0</ele><time>2026-04-25T13:44:42.437Z</time></trkpt><trkpt lat="40.6459238" lon="15.2198833"><ele>153.0</ele><time>2026-04-25T13:44:43.447Z</time></trkpt><trkpt lat="40.6460164" lon="15.2200415"><ele>152.0</ele><time>2026-04-25T13:44:44.455Z</time></trkpt><trkpt lat="40.6461142" lon="15.2202126"><ele>152.66666666666666</ele><time>2026-04-25T13:44:45.459Z</time></trkpt><trkpt lat="40.646214" lon="15.2203933"><ele>153.33333333333334</ele><time>2026-04-25T13:44:46.451Z</time></trkpt><trkpt lat="40.6463124" lon="15.2205761"><ele>154.0</ele><time>2026-04-25T13:44:47.462Z</time></trkpt><trkpt lat="40.6464089" lon="15.2207578"><ele>154.0</ele><time>2026-04-25T13:44:48.445Z</time></trkpt><trkpt lat="40.6465012" lon="15.2209383"><ele>154.0</ele><time>2026-04-25T13:44:49.449Z</time></trkpt><trkpt lat="40.6465855" lon="15.2211149"><ele>154.0</ele><time>2026-04-25T13:44:50.449Z</time></trkpt><trkpt lat="40.6466524" lon="15.2212896"><ele>154.0</ele><time>2026-04-25T13:44:51.441Z</time></trkpt><trkpt lat="40.6466965" lon="15.2214661"><ele>154.0</ele><time>2026-04-25T13:44:52.453Z</time></trkpt><trkpt lat="40.6467188" lon="15.2216366"><ele>154.0</ele><time>2026-04-25T13:44:53.459Z</time></trkpt><trkpt lat="40.6467194" lon="15.2217955"><ele>154.0</ele><time>2026-04-25T13:44:54.459Z</time></trkpt><trkpt lat="40.6467009" lon="15.2219463"><ele>154.25</ele><time>2026-04-25T13:44:55.459Z</time></trkpt><trkpt lat="40.6466665" lon="15.2220978"><ele>154.5</ele><time>2026-04-25T13:44:56.457Z</time></trkpt><trkpt lat="40.6466143" lon="15.2222613"><ele>154.75</ele><time>2026-04-25T13:44:57.451Z</time></trkpt><trkpt lat="40.6465502" lon="15.2224314"><ele>155.0</ele><time>2026-04-25T13:44:58.441Z</time></trkpt><trkpt lat="40.6464781" lon="15.2225968"><ele>155.0</ele><time>2026-04-25T13:44:59.449Z</time></trkpt><trkpt lat="40.6464025" lon="15.2227542"><ele>155.0</ele><time>2026-04-25T13:45:00.448Z</time></trkpt><trkpt lat="40.6463273" lon="15.2229012"><ele>155.0</ele><time>2026-04-25T13:45:01.454Z</time></trkpt><trkpt lat="40.6462523" lon="15.223031"><ele>155.0</ele><time>2026-04-25T13:45:02.447Z</time></trkpt><trkpt lat="40.6461766" lon="15.2231451"><ele>153.25</ele><time>2026-04-25T13:45:03.454Z</time></trkpt><trkpt lat="40.6460951" lon="15.223246"><ele>151.5</ele><time>2026-04-25T13:45:04.459Z</time></trkpt><trkpt lat="40.6460036" lon="15.2233302"><ele>149.75</ele><time>2026-04-25T13:45:05.46Z</time></trkpt><trkpt lat="40.6459023" lon="15.2234033"><ele>148.0</ele><time>2026-04-25T13:45:06.45Z</time></trkpt><trkpt lat="40.6457927" lon="15.2234756"><ele>148.0</ele><time>2026-04-25T13:45:07.454Z</time></trkpt><trkpt lat="40.6456767" lon="15.2235517"><ele>148.0</ele><time>2026-04-25T13:45:08.446Z</time></trkpt><trkpt lat="40.6455568" lon="15.2236316"><ele>148.0</ele><time>2026-04-25T13:45:09.454Z</time></trkpt><trkpt lat="40.6454322" lon="15.2237101"><ele>148.0</ele><time>2026-04-25T13:45:10.45Z</time></trkpt><trkpt lat="40.6453043" lon="15.2237856"><ele>145.25</ele><time>2026-04-25T13:45:11.451Z</time></trkpt><trkpt lat="40.6451754" lon="15.2238505"><ele>142.5</ele><time>2026-04-25T13:45:12.447Z</time></trkpt><trkpt lat="40.6450517" lon="15.2238969"><ele>139.75</ele><time>2026-04-25T13:45:13.456Z</time></trkpt><trkpt lat="40.6449372" lon="15.2239292"><ele>137.0</ele><time>2026-04-25T13:45:14.449Z</time></trkpt><trkpt lat="40.6448346" lon="15.2239721"><ele>138.6</ele><time>2026-04-25T13:45:15.441Z</time></trkpt><trkpt lat="40.6447499" lon="15.2240514"><ele>140.2</ele><time>2026-04-25T13:45:16.448Z</time></trkpt><trkpt lat="40.6446951" lon="15.2241583"><ele>141.8</ele><time>2026-04-25T13:45:17.449Z</time></trkpt><trkpt lat="40.6446758" lon="15.2242808"><ele>143.4</ele><time>2026-04-25T13:45:18.46Z</time></trkpt><trkpt lat="40.6446924" lon="15.2244049"><ele>145.0</ele><time>2026-04-25T13:45:19.454Z</time></trkpt><trkpt lat="40.6447465" lon="15.2245195"><ele>145.0</ele><time>2026-04-25T13:45:20.448Z</time></trkpt><trkpt lat="40.6448245" lon="15.2246252"><ele>145.0</ele><time>2026-04-25T13:45:21.46Z</time></trkpt><trkpt lat="40.6449119" lon="15.2247371"><ele>145.0</ele><time>2026-04-25T13:45:22.454Z</time></trkpt><trkpt lat="40.6450005" lon="15.2248617"><ele>145.0</ele><time>2026-04-25T13:45:23.456Z</time></trkpt><trkpt lat="40.6450915" lon="15.2249913"><ele>144.0</ele><time>2026-04-25T13:45:24.457Z</time></trkpt><trkpt lat="40.645189" lon="15.2251239"><ele>143.0</ele><time>2026-04-25T13:45:25.455Z</time></trkpt><trkpt lat="40.6452898" lon="15.2252578"><ele>142.0</ele><time>2026-04-25T13:45:26.449Z</time></trkpt><trkpt lat="40.6453906" lon="15.2253938"><ele>141.0</ele><time>2026-04-25T13:45:27.457Z</time></trkpt><trkpt lat="40.6454896" lon="15.2255297"><ele>139.5</ele><time>2026-04-25T13:45:28.456Z</time></trkpt><trkpt lat="40.6455905" lon="15.2256587"><ele>138.0</ele><time>2026-04-25T13:45:29.46Z</time></trkpt><trkpt lat="40.6456928" lon="15.2257676"><ele>136.5</ele><time>2026-04-25T13:45:30.454Z</time></trkpt><trkpt lat="40.6458219" lon="15.2258178"><ele>135.0</ele><time>2026-04-25T13:45:31.45Z</time></trkpt><trkpt lat="40.645955" lon="15.2258282"><ele>135.0</ele><time>2026-04-25T13:45:32.458Z</time></trkpt><trkpt lat="40.6460945" lon="15.2258001"><ele>135.0</ele><time>2026-04-25T13:45:33.448Z</time></trkpt><trkpt lat="40.6462371" lon="15.2257541"><ele>135.0</ele><time>2026-04-25T13:45:34.455Z</time></trkpt><trkpt lat="40.6463761" lon="15.2257187"><ele>135.0</ele><time>2026-04-25T13:45:35.446Z</time></trkpt><trkpt lat="40.6465174" lon="15.2257123"><ele>134.75</ele><time>2026-04-25T13:45:36.454Z</time></trkpt><trkpt lat="40.646655" lon="15.2257405"><ele>134.5</ele><time>2026-04-25T13:45:37.454Z</time></trkpt><trkpt lat="40.6467843" lon="15.2258041"><ele>134.25</ele><time>2026-04-25T13:45:38.448Z</time></trkpt><trkpt lat="40.6469063" lon="15.2259034"><ele>134.0</ele><time>2026-04-25T13:45:39.443Z</time></trkpt><trkpt lat="40.6470155" lon="15.226036"><ele>133.5</ele><time>2026-04-25T13:45:40.455Z</time></trkpt><trkpt lat="40.6471036" lon="15.2261961"><ele>133.0</ele><time>2026-04-25T13:45:41.446Z</time></trkpt><trkpt lat="40.6471683" lon="15.2263713"><ele>132.5</ele><time>2026-04-25T13:45:42.461Z</time></trkpt><trkpt lat="40.6472203" lon="15.2265466"><ele>132.0</ele><time>2026-04-25T13:45:43.45Z</time></trkpt><trkpt lat="40.6472712" lon="15.2267108"><ele>132.0</ele><time>2026-04-25T13:45:44.457Z</time></trkpt><trkpt lat="40.6473449" lon="15.2268593"><ele>132.0</ele><time>2026-04-25T13:45:45.442Z</time></trkpt><trkpt lat="40.6474331" lon="15.2270004"><ele>132.0</ele><time>2026-04-25T13:45:46.453Z</time></trkpt><trkpt lat="40.6475312" lon="15.2271363"><ele>132.0</ele><time>2026-04-25T13:45:47.463Z</time></trkpt><trkpt lat="40.6476346" lon="15.2272705"><ele>132.66666666666666</ele><time>2026-04-25T13:45:48.446Z</time></trkpt><trkpt lat="40.6477609" lon="15.2273815"><ele>133.33333333333331</ele><time>2026-04-25T13:45:49.445Z</time></trkpt><trkpt lat="40.6478994" lon="15.227466"><ele>134.0</ele><time>2026-04-25T13:45:50.456Z</time></trkpt><trkpt lat="40.6480341" lon="15.2275429"><ele>134.0</ele><time>2026-04-25T13:45:51.446Z</time></trkpt><trkpt lat="40.6481659" lon="15.2276262"><ele>134.0</ele><time>2026-04-25T13:45:52.457Z</time></trkpt><trkpt lat="40.6482897" lon="15.2277227"><ele>134.0</ele><time>2026-04-25T13:45:53.457Z</time></trkpt><trkpt lat="40.648406" lon="15.2278355"><ele>134.0</ele><time>2026-04-25T13:45:54.457Z</time></trkpt><trkpt lat="40.6485193" lon="15.2279671"><ele>134.33333333333331</ele><time>2026-04-25T13:45:55.449Z</time></trkpt><trkpt lat="40.6486373" lon="15.2281182"><ele>134.66666666666666</ele><time>2026-04-25T13:45:56.459Z</time></trkpt><trkpt lat="40.648765" lon="15.2282854"><ele>135.0</ele><time>2026-04-25T13:45:57.464Z</time></trkpt><trkpt lat="40.6488907" lon="15.2284646"><ele>135.0</ele><time>2026-04-25T13:45:58.454Z</time></trkpt><trkpt lat="40.6490109" lon="15.2286503"><ele>135.0</ele><time>2026-04-25T13:45:59.462Z</time></trkpt><trkpt lat="40.6491264" lon="15.2288337"><ele>135.0</ele><time>2026-04-25T13:46:00.458Z</time></trkpt><trkpt lat="40.6492199" lon="15.2290243"><ele>127.33333333333334</ele><time>2026-04-25T13:46:01.45Z</time></trkpt><trkpt lat="40.6492975" lon="15.2292141"><ele>119.66666666666667</ele><time>2026-04-25T13:46:02.454Z</time></trkpt><trkpt lat="40.6493569" lon="15.229402"><ele>112.0</ele><time>2026-04-25T13:46:03.455Z</time></trkpt><trkpt lat="40.6494124" lon="15.2295835"><ele>114.0</ele><time>2026-04-25T13:46:04.449Z</time></trkpt><trkpt lat="40.6494694" lon="15.2297547"><ele>116.0</ele><time>2026-04-25T13:46:05.444Z</time></trkpt><trkpt lat="40.6495374" lon="15.2299078"><ele>118.0</ele><time>2026-04-25T13:46:06.45Z</time></trkpt><trkpt lat="40.6496237" lon="15.2300454"><ele>120.0</ele><time>2026-04-25T13:46:07.459Z</time></trkpt><trkpt lat="40.6497274" lon="15.2301714"><ele>120.0</ele><time>2026-04-25T13:46:08.438Z</time></trkpt><trkpt lat="40.6498441" lon="15.230283"><ele>120.0</ele><time>2026-04-25T13:46:09.465Z</time></trkpt><trkpt lat="40.649971" lon="15.2303759"><ele>120.0</ele><time>2026-04-25T13:46:10.455Z</time></trkpt><trkpt lat="40.6501021" lon="15.2304436"><ele>120.0</ele><time>2026-04-25T13:46:11.454Z</time></trkpt><trkpt lat="40.6502345" lon="15.2304747"><ele>117.75</ele><time>2026-04-25T13:46:12.447Z</time></trkpt><trkpt lat="40.6503663" lon="15.2304646"><ele>115.5</ele><time>2026-04-25T13:46:13.455Z</time></trkpt><trkpt lat="40.6504984" lon="15.2304152"><ele>113.25</ele><time>2026-04-25T13:46:14.442Z</time></trkpt><trkpt lat="40.6506229" lon="15.2303375"><ele>111.0</ele><time>2026-04-25T13:46:15.459Z</time></trkpt><trkpt lat="40.650738" lon="15.2302261"><ele>111.0</ele><time>2026-04-25T13:46:16.448Z</time></trkpt><trkpt lat="40.6508292" lon="15.2300876"><ele>111.0</ele><time>2026-04-25T13:46:17.451Z</time></trkpt><trkpt lat="40.6508954" lon="15.2299351"><ele>111.0</ele><time>2026-04-25T13:46:18.458Z</time></trkpt><trkpt lat="40.6509537" lon="15.229785"><ele>111.0</ele><time>2026-04-25T13:46:19.451Z</time></trkpt><trkpt lat="40.6510225" lon="15.2296646"><ele>109.5</ele><time>2026-04-25T13:46:20.44Z</time></trkpt><trkpt lat="40.6510966" lon="15.2295836"><ele>108.0</ele><time>2026-04-25T13:46:21.459Z</time></trkpt><trkpt lat="40.6511663" lon="15.2295487"><ele>106.5</ele><time>2026-04-25T13:46:22.45Z</time></trkpt><trkpt lat="40.6512293" lon="15.2295604"><ele>105.0</ele><time>2026-04-25T13:46:23.455Z</time></trkpt><trkpt lat="40.6512859" lon="15.2296017"><ele>103.5</ele><time>2026-04-25T13:46:24.444Z</time></trkpt><trkpt lat="40.6513429" lon="15.2296678"><ele>102.0</ele><time>2026-04-25T13:46:25.45Z</time></trkpt><trkpt lat="40.651405" lon="15.2297537"><ele>101.39999999999999</ele><time>2026-04-25T13:46:26.45Z</time></trkpt><trkpt lat="40.6514746" lon="15.2298513"><ele>100.8</ele><time>2026-04-25T13:46:27.448Z</time></trkpt><trkpt lat="40.6515468" lon="15.2299521"><ele>100.2</ele><time>2026-04-25T13:46:28.446Z</time></trkpt><trkpt lat="40.6516253" lon="15.230058"><ele>99.6</ele><time>2026-04-25T13:46:29.449Z</time></trkpt><trkpt lat="40.6517075" lon="15.2301678"><ele>99.0</ele><time>2026-04-25T13:46:30.449Z</time></trkpt><trkpt lat="40.6517884" lon="15.2302749"><ele>99.0</ele><time>2026-04-25T13:46:31.45Z</time></trkpt><trkpt lat="40.6518739" lon="15.2303861"><ele>99.0</ele><time>2026-04-25T13:46:32.451Z</time></trkpt><trkpt lat="40.6519559" lon="15.230496"><ele>99.0</ele><time>2026-04-25T13:46:33.456Z</time></trkpt><trkpt lat="40.6520474" lon="15.2306115"><ele>99.0</ele><time>2026-04-25T13:46:34.442Z</time></trkpt><trkpt lat="40.6521399" lon="15.2307199"><ele>100.0</ele><time>2026-04-25T13:46:35.449Z</time></trkpt><trkpt lat="40.6522291" lon="15.2308371"><ele>101.0</ele><time>2026-04-25T13:46:36.441Z</time></trkpt><trkpt lat="40.6523156" lon="15.2309568"><ele>102.0</ele><time>2026-04-25T13:46:37.453Z</time></trkpt><trkpt lat="40.6523998" lon="15.2310742"><ele>103.0</ele><time>2026-04-25T13:46:38.446Z</time></trkpt><trkpt lat="40.6524797" lon="15.2312016"><ele>103.0</ele><time>2026-04-25T13:46:39.453Z</time></trkpt><trkpt lat="40.652556" lon="15.2313458"><ele>103.0</ele><time>2026-04-25T13:46:40.456Z</time></trkpt><trkpt lat="40.652618" lon="15.2314985"><ele>103.0</ele><time>2026-04-25T13:46:41.458Z</time></trkpt><trkpt lat="40.6526689" lon="15.2316628"><ele>103.0</ele><time>2026-04-25T13:46:42.441Z</time></trkpt><trkpt lat="40.6527218" lon="15.2318327"><ele>102.75</ele><time>2026-04-25T13:46:43.451Z</time></trkpt><trkpt lat="40.6527847" lon="15.231995"><ele>102.5</ele><time>2026-04-25T13:46:44.452Z</time></trkpt><trkpt lat="40.6528664" lon="15.232136"><ele>102.25</ele><time>2026-04-25T13:46:45.468Z</time></trkpt><trkpt lat="40.6529713" lon="15.2322424"><ele>102.0</ele><time>2026-04-25T13:46:46.455Z</time></trkpt><trkpt lat="40.6530835" lon="15.232336"><ele>108.0</ele><time>2026-04-25T13:46:47.466Z</time></trkpt><trkpt lat="40.6532263" lon="15.2323861"><ele>114.0</ele><time>2026-04-25T13:46:48.471Z</time></trkpt><trkpt lat="40.6533775" lon="15.2324228"><ele>120.0</ele><time>2026-04-25T13:46:49.489Z</time></trkpt><trkpt lat="40.6535319" lon="15.2324417"><ele>120.75</ele><time>2026-04-25T13:46:50.449Z</time></trkpt><trkpt lat="40.6536866" lon="15.2324508"><ele>121.5</ele><time>2026-04-25T13:46:51.471Z</time></trkpt><trkpt lat="40.653831" lon="15.232464"><ele>122.25</ele><time>2026-04-25T13:46:52.446Z</time></trkpt><trkpt lat="40.6539713" lon="15.2324827"><ele>123.0</ele><time>2026-04-25T13:46:53.443Z</time></trkpt><trkpt lat="40.6540884" lon="15.2325128"><ele>123.0</ele><time>2026-04-25T13:46:54.443Z</time></trkpt><trkpt lat="40.6541999" lon="15.2325033"><ele>123.00000000000001</ele><time>2026-04-25T13:46:55.45Z</time></trkpt><trkpt lat="40.6543021" lon="15.232448"><ele>123.00000000000001</ele><time>2026-04-25T13:46:56.452Z</time></trkpt><trkpt lat="40.6543866" lon="15.2323564"><ele>123.0</ele><time>2026-04-25T13:46:57.458Z</time></trkpt><trkpt lat="40.654473" lon="15.2322615"><ele>123.0</ele><time>2026-04-25T13:46:58.455Z</time></trkpt><trkpt lat="40.6545815" lon="15.2321943"><ele>119.25</ele><time>2026-04-25T13:46:59.464Z</time></trkpt><trkpt lat="40.6547069" lon="15.2321547"><ele>115.5</ele><time>2026-04-25T13:47:00.451Z</time></trkpt><trkpt lat="40.6548399" lon="15.2321248"><ele>111.75</ele><time>2026-04-25T13:47:01.451Z</time></trkpt><trkpt lat="40.6549812" lon="15.2321237"><ele>108.0</ele><time>2026-04-25T13:47:02.448Z</time></trkpt><trkpt lat="40.6551128" lon="15.2321596"><ele>108.0</ele><time>2026-04-25T13:47:03.436Z</time></trkpt><trkpt lat="40.6552388" lon="15.2322296"><ele>108.0</ele><time>2026-04-25T13:47:04.455Z</time></trkpt><trkpt lat="40.6553576" lon="15.2322954"><ele>108.0</ele><time>2026-04-25T13:47:05.451Z</time></trkpt><trkpt lat="40.6554866" lon="15.2323461"><ele>108.0</ele><time>2026-04-25T13:47:06.45Z</time></trkpt><trkpt lat="40.6556191" lon="15.232356"><ele>110.5</ele><time>2026-04-25T13:47:07.447Z</time></trkpt><trkpt lat="40.6557424" lon="15.2323179"><ele>113.0</ele><time>2026-04-25T13:47:08.457Z</time></trkpt><trkpt lat="40.6558462" lon="15.2322374"><ele>115.5</ele><time>2026-04-25T13:47:09.461Z</time></trkpt><trkpt lat="40.6559306" lon="15.2321068"><ele>118.0</ele><time>2026-04-25T13:47:10.452Z</time></trkpt><trkpt lat="40.6560039" lon="15.231949"><ele>118.0</ele><time>2026-04-25T13:47:11.449Z</time></trkpt><trkpt lat="40.6560731" lon="15.2317941"><ele>118.0</ele><time>2026-04-25T13:47:12.462Z</time></trkpt><trkpt lat="40.6561579" lon="15.2316675"><ele>118.0</ele><time>2026-04-25T13:47:13.456Z</time></trkpt><trkpt lat="40.6562552" lon="15.2315786"><ele>118.0</ele><time>2026-04-25T13:47:14.448Z</time></trkpt><trkpt lat="40.6563623" lon="15.2315361"><ele>120.0</ele><time>2026-04-25T13:47:15.442Z</time></trkpt><trkpt lat="40.656471" lon="15.2315443"><ele>122.00000000000001</ele><time>2026-04-25T13:47:16.448Z</time></trkpt><trkpt lat="40.6565735" lon="15.231602"><ele>124.00000000000001</ele><time>2026-04-25T13:47:17.452Z</time></trkpt><trkpt lat="40.6566605" lon="15.2316986"><ele>126.0</ele><time>2026-04-25T13:47:18.452Z</time></trkpt><trkpt lat="40.6567225" lon="15.231825"><ele>128.0</ele><time>2026-04-25T13:47:19.447Z</time></trkpt><trkpt lat="40.6567564" lon="15.2319731"><ele>128.0</ele><time>2026-04-25T13:47:20.45Z</time></trkpt><trkpt lat="40.6567609" lon="15.2321304"><ele>128.0</ele><time>2026-04-25T13:47:21.454Z</time></trkpt><trkpt lat="40.6567319" lon="15.2322852"><ele>128.0</ele><time>2026-04-25T13:47:22.439Z</time></trkpt><trkpt lat="40.6566706" lon="15.2324226"><ele>128.0</ele><time>2026-04-25T13:47:23.458Z</time></trkpt><trkpt lat="40.6565781" lon="15.2325337"><ele>131.33333333333331</ele><time>2026-04-25T13:47:24.454Z</time></trkpt><trkpt lat="40.6564588" lon="15.2326295"><ele>134.66666666666666</ele><time>2026-04-25T13:47:25.452Z</time></trkpt><trkpt lat="40.6563154" lon="15.2327255"><ele>138.0</ele><time>2026-04-25T13:47:26.443Z</time></trkpt><trkpt lat="40.6561535" lon="15.2328311"><ele>136.66666666666666</ele><time>2026-04-25T13:47:27.458Z</time></trkpt><trkpt lat="40.6559813" lon="15.232944"><ele>135.33333333333331</ele><time>2026-04-25T13:47:28.449Z</time></trkpt><trkpt lat="40.6558071" lon="15.2330571"><ele>134.0</ele><time>2026-04-25T13:47:29.448Z</time></trkpt><trkpt lat="40.655636" lon="15.233167"><ele>137.0</ele><time>2026-04-25T13:47:30.449Z</time></trkpt><trkpt lat="40.6554741" lon="15.23327"><ele>140.0</ele><time>2026-04-25T13:47:31.45Z</time></trkpt><trkpt lat="40.6553278" lon="15.2333627"><ele>143.0</ele><time>2026-04-25T13:47:32.453Z</time></trkpt><trkpt lat="40.655195" lon="15.233441"><ele>143.0</ele><time>2026-04-25T13:47:33.448Z</time></trkpt><trkpt lat="40.6550831" lon="15.2335143"><ele>143.0</ele><time>2026-04-25T13:47:34.445Z</time></trkpt><trkpt lat="40.6550046" lon="15.2336034"><ele>143.0</ele><time>2026-04-25T13:47:35.453Z</time></trkpt><trkpt lat="40.6549466" lon="15.2336928"><ele>143.0</ele><time>2026-04-25T13:47:36.451Z</time></trkpt><trkpt lat="40.6549615" lon="15.233812"><ele>143.0</ele><time>2026-04-25T13:47:37.447Z</time></trkpt><trkpt lat="40.655018" lon="15.2338989"><ele>143.0</ele><time>2026-04-25T13:47:38.451Z</time></trkpt><trkpt lat="40.6550999" lon="15.2339368"><ele>143.0</ele><time>2026-04-25T13:47:39.455Z</time></trkpt><trkpt lat="40.6552021" lon="15.2339246"><ele>143.0</ele><time>2026-04-25T13:47:40.448Z</time></trkpt><trkpt lat="40.6553211" lon="15.2338593"><ele>143.0</ele><time>2026-04-25T13:47:41.446Z</time></trkpt><trkpt lat="40.6554506" lon="15.2337574"><ele>145.33333333333331</ele><time>2026-04-25T13:47:42.442Z</time></trkpt><trkpt lat="40.6555887" lon="15.2336575"><ele>147.66666666666666</ele><time>2026-04-25T13:47:43.448Z</time></trkpt><trkpt lat="40.6557395" lon="15.2335702"><ele>150.0</ele><time>2026-04-25T13:47:44.448Z</time></trkpt><trkpt lat="40.6558999" lon="15.2335069"><ele>150.0</ele><time>2026-04-25T13:47:45.457Z</time></trkpt><trkpt lat="40.6560619" lon="15.2334692"><ele>150.0</ele><time>2026-04-25T13:47:46.443Z</time></trkpt><trkpt lat="40.6562268" lon="15.2334489"><ele>150.0</ele><time>2026-04-25T13:47:47.449Z</time></trkpt><trkpt lat="40.6563851" lon="15.2334434"><ele>150.75</ele><time>2026-04-25T13:47:48.447Z</time></trkpt><trkpt lat="40.6565345" lon="15.2334594"><ele>151.5</ele><time>2026-04-25T13:47:49.465Z</time></trkpt><trkpt lat="40.6566697" lon="15.2335107"><ele>152.25</ele><time>2026-04-25T13:47:50.443Z</time></trkpt><trkpt lat="40.6567733" lon="15.2336006"><ele>153.0</ele><time>2026-04-25T13:47:51.448Z</time></trkpt><trkpt lat="40.6568465" lon="15.2337226"><ele>153.0</ele><time>2026-04-25T13:47:52.442Z</time></trkpt><trkpt lat="40.6568975" lon="15.2338755"><ele>153.0</ele><time>2026-04-25T13:47:53.448Z</time></trkpt><trkpt lat="40.6569479" lon="15.2340474"><ele>153.0</ele><time>2026-04-25T13:47:54.452Z</time></trkpt><trkpt lat="40.6569536" lon="15.2342314"><ele>153.0</ele><time>2026-04-25T13:47:55.445Z</time></trkpt><trkpt lat="40.6569294" lon="15.2344119"><ele>157.75</ele><time>2026-04-25T13:47:56.448Z</time></trkpt><trkpt lat="40.6568842" lon="15.2345895"><ele>162.5</ele><time>2026-04-25T13:47:57.457Z</time></trkpt><trkpt lat="40.6568346" lon="15.2347541"><ele>167.25</ele><time>2026-04-25T13:47:58.449Z</time></trkpt><trkpt lat="40.6567929" lon="15.2349021"><ele>172.0</ele><time>2026-04-25T13:47:59.442Z</time></trkpt><trkpt lat="40.6567565" lon="15.2350395"><ele>173.6</ele><time>2026-04-25T13:48:00.453Z</time></trkpt><trkpt lat="40.6567365" lon="15.2351747"><ele>175.2</ele><time>2026-04-25T13:48:01.457Z</time></trkpt><trkpt lat="40.656739" lon="15.2353016"><ele>176.8</ele><time>2026-04-25T13:48:02.445Z</time></trkpt><trkpt lat="40.6567682" lon="15.2354272"><ele>178.4</ele><time>2026-04-25T13:48:03.46Z</time></trkpt><trkpt lat="40.6568215" lon="15.2355551"><ele>180.0</ele><time>2026-04-25T13:48:04.447Z</time></trkpt><trkpt lat="40.656894" lon="15.2356962"><ele>175.25</ele><time>2026-04-25T13:48:05.454Z</time></trkpt><trkpt lat="40.6569814" lon="15.2358417"><ele>170.5</ele><time>2026-04-25T13:48:06.449Z</time></trkpt><trkpt lat="40.6570702" lon="15.235988"><ele>165.75</ele><time>2026-04-25T13:48:07.452Z</time></trkpt><trkpt lat="40.6571564" lon="15.2361327"><ele>161.0</ele><time>2026-04-25T13:48:08.442Z</time></trkpt><trkpt lat="40.6572487" lon="15.2362666"><ele>161.0</ele><time>2026-04-25T13:48:09.451Z</time></trkpt><trkpt lat="40.6573438" lon="15.2363917"><ele>161.0</ele><time>2026-04-25T13:48:10.441Z</time></trkpt><trkpt lat="40.6574363" lon="15.2365197"><ele>161.0</ele><time>2026-04-25T13:48:11.456Z</time></trkpt><trkpt lat="40.6575341" lon="15.2366378"><ele>161.0</ele><time>2026-04-25T13:48:12.444Z</time></trkpt><trkpt lat="40.6576484" lon="15.2367434"><ele>162.66666666666666</ele><time>2026-04-25T13:48:13.455Z</time></trkpt><trkpt lat="40.6577743" lon="15.2368481"><ele>164.33333333333334</ele><time>2026-04-25T13:48:14.446Z</time></trkpt><trkpt lat="40.6579088" lon="15.2369524"><ele>166.0</ele><time>2026-04-25T13:48:15.448Z</time></trkpt><trkpt lat="40.658046" lon="15.2370528"><ele>166.0</ele><time>2026-04-25T13:48:16.441Z</time></trkpt><trkpt lat="40.6581787" lon="15.2371445"><ele>166.0</ele><time>2026-04-25T13:48:17.457Z</time></trkpt><trkpt lat="40.6583101" lon="15.237227"><ele>166.0</ele><time>2026-04-25T13:48:18.442Z</time></trkpt><trkpt lat="40.658443" lon="15.2372948"><ele>166.0</ele><time>2026-04-25T13:48:19.444Z</time></trkpt><trkpt lat="40.6585794" lon="15.2373439"><ele>171.75</ele><time>2026-04-25T13:48:20.445Z</time></trkpt><trkpt lat="40.6587162" lon="15.2373745"><ele>177.5</ele><time>2026-04-25T13:48:21.45Z</time></trkpt><trkpt lat="40.6588542" lon="15.2373886"><ele>183.25</ele><time>2026-04-25T13:48:22.443Z</time></trkpt><trkpt lat="40.6589939" lon="15.2373967"><ele>189.0</ele><time>2026-04-25T13:48:23.445Z</time></trkpt><trkpt lat="40.6591252" lon="15.2373568"><ele>189.0</ele><time>2026-04-25T13:48:24.451Z</time></trkpt><trkpt lat="40.6592572" lon="15.237322"><ele>189.0</ele><time>2026-04-25T13:48:25.449Z</time></trkpt><trkpt lat="40.6593867" lon="15.2373096"><ele>189.0</ele><time>2026-04-25T13:48:26.455Z</time></trkpt><trkpt lat="40.6595076" lon="15.2373163"><ele>189.0</ele><time>2026-04-25T13:48:27.461Z</time></trkpt><trkpt lat="40.6596126" lon="15.2373996"><ele>185.79999999999998</ele><time>2026-04-25T13:48:28.461Z</time></trkpt><trkpt lat="40.659704" lon="15.2375042"><ele>182.6</ele><time>2026-04-25T13:48:29.444Z</time></trkpt><trkpt lat="40.6597716" lon="15.2376218"><ele>179.4</ele><time>2026-04-25T13:48:30.447Z</time></trkpt><trkpt lat="40.6598115" lon="15.2377445"><ele>176.2</ele><time>2026-04-25T13:48:31.447Z</time></trkpt><trkpt lat="40.6598085" lon="15.2378569"><ele>173.0</ele><time>2026-04-25T13:48:32.451Z</time></trkpt><trkpt lat="40.6597671" lon="15.2379573"><ele>173.0</ele><time>2026-04-25T13:48:33.458Z</time></trkpt><trkpt lat="40.6596999" lon="15.2380464"><ele>173.0</ele><time>2026-04-25T13:48:34.448Z</time></trkpt><trkpt lat="40.6596237" lon="15.2381455"><ele>173.0</ele><time>2026-04-25T13:48:35.46Z</time></trkpt><trkpt lat="40.6595401" lon="15.2382549"><ele>173.0</ele><time>2026-04-25T13:48:36.443Z</time></trkpt><trkpt lat="40.6594672" lon="15.2383668"><ele>173.0</ele><time>2026-04-25T13:48:37.451Z</time></trkpt><trkpt lat="40.659411" lon="15.2384782"><ele>178.4</ele><time>2026-04-25T13:48:38.45Z</time></trkpt><trkpt lat="40.6593714" lon="15.238601"><ele>183.8</ele><time>2026-04-25T13:48:39.442Z</time></trkpt><trkpt lat="40.65935" lon="15.2387217"><ele>189.2</ele><time>2026-04-25T13:48:40.443Z</time></trkpt><trkpt lat="40.6593515" lon="15.2388344"><ele>194.6</ele><time>2026-04-25T13:48:41.449Z</time></trkpt><trkpt lat="40.6593726" lon="15.2389398"><ele>200.0</ele><time>2026-04-25T13:48:42.448Z</time></trkpt><trkpt lat="40.6594217" lon="15.2390501"><ele>196.75</ele><time>2026-04-25T13:48:43.446Z</time></trkpt><trkpt lat="40.6594789" lon="15.2391621"><ele>193.5</ele><time>2026-04-25T13:48:44.443Z</time></trkpt><trkpt lat="40.6595492" lon="15.2392848"><ele>190.25</ele><time>2026-04-25T13:48:45.449Z</time></trkpt><trkpt lat="40.6596104" lon="15.2394276"><ele>187.0</ele><time>2026-04-25T13:48:46.448Z</time></trkpt><trkpt lat="40.6596672" lon="15.239579"><ele>187.0</ele><time>2026-04-25T13:48:47.462Z</time></trkpt><trkpt lat="40.6597209" lon="15.2397313"><ele>187.0</ele><time>2026-04-25T13:48:48.45Z</time></trkpt><trkpt lat="40.6597673" lon="15.2398914"><ele>187.0</ele><time>2026-04-25T13:48:49.454Z</time></trkpt><trkpt lat="40.6597998" lon="15.2400618"><ele>187.0</ele><time>2026-04-25T13:48:50.453Z</time></trkpt><trkpt lat="40.6598163" lon="15.240245"><ele>189.75</ele><time>2026-04-25T13:48:51.447Z</time></trkpt><trkpt lat="40.6598159" lon="15.2404354"><ele>192.5</ele><time>2026-04-25T13:48:52.441Z</time></trkpt><trkpt lat="40.6598048" lon="15.2406193"><ele>195.25</ele><time>2026-04-25T13:48:53.45Z</time></trkpt><trkpt lat="40.6597756" lon="15.2407963"><ele>198.0</ele><time>2026-04-25T13:48:54.455Z</time></trkpt><trkpt lat="40.6597221" lon="15.240964"><ele>199.0</ele><time>2026-04-25T13:48:55.452Z</time></trkpt><trkpt lat="40.6596507" lon="15.2411217"><ele>200.0</ele><time>2026-04-25T13:48:56.447Z</time></trkpt><trkpt lat="40.6595732" lon="15.2412768"><ele>201.0</ele><time>2026-04-25T13:48:57.455Z</time></trkpt><trkpt lat="40.6594991" lon="15.2414311"><ele>202.0</ele><time>2026-04-25T13:48:58.454Z</time></trkpt><trkpt lat="40.6594322" lon="15.2415936"><ele>207.0</ele><time>2026-04-25T13:48:59.459Z</time></trkpt><trkpt lat="40.6593869" lon="15.2417641"><ele>212.0</ele><time>2026-04-25T13:49:00.451Z</time></trkpt><trkpt lat="40.6593733" lon="15.2419393"><ele>217.0</ele><time>2026-04-25T13:49:01.447Z</time></trkpt><trkpt lat="40.6593912" lon="15.2421106"><ele>222.0</ele><time>2026-04-25T13:49:02.457Z</time></trkpt><trkpt lat="40.6594388" lon="15.2422713"><ele>217.0</ele><time>2026-04-25T13:49:03.454Z</time></trkpt><trkpt lat="40.6595171" lon="15.2424278"><ele>212.0</ele><time>2026-04-25T13:49:04.445Z</time></trkpt><trkpt lat="40.6596276" lon="15.2425951"><ele>207.0</ele><time>2026-04-25T13:49:05.44Z</time></trkpt><trkpt lat="40.6597694" lon="15.2427705"><ele>207.0</ele><time>2026-04-25T13:49:06.45Z</time></trkpt><trkpt lat="40.6599327" lon="15.242941"><ele>207.0</ele><time>2026-04-25T13:49:07.447Z</time></trkpt><trkpt lat="40.6601077" lon="15.243104"><ele>207.0</ele><time>2026-04-25T13:49:08.46Z</time></trkpt><trkpt lat="40.6602805" lon="15.2432649"><ele>206.0</ele><time>2026-04-25T13:49:09.447Z</time></trkpt><trkpt lat="40.6604488" lon="15.2434224"><ele>205.0</ele><time>2026-04-25T13:49:10.457Z</time></trkpt><trkpt lat="40.6606083" lon="15.243573"><ele>204.0</ele><time>2026-04-25T13:49:11.448Z</time></trkpt><trkpt lat="40.6607614" lon="15.2437069"><ele>204.0</ele><time>2026-04-25T13:49:12.445Z</time></trkpt><trkpt lat="40.6609149" lon="15.2438147"><ele>204.0</ele><time>2026-04-25T13:49:13.446Z</time></trkpt><trkpt lat="40.6610778" lon="15.243898"><ele>204.0</ele><time>2026-04-25T13:49:14.447Z</time></trkpt><trkpt lat="40.6612561" lon="15.2439618"><ele>207.33333333333331</ele><time>2026-04-25T13:49:15.46Z</time></trkpt><trkpt lat="40.6614371" lon="15.2440161"><ele>210.66666666666666</ele><time>2026-04-25T13:49:16.438Z</time></trkpt><trkpt lat="40.6616273" lon="15.2440499"><ele>214.0</ele><time>2026-04-25T13:49:17.442Z</time></trkpt><trkpt lat="40.6618128" lon="15.2440537"><ele>213.33333333333331</ele><time>2026-04-25T13:49:18.448Z</time></trkpt><trkpt lat="40.6619939" lon="15.2440309"><ele>212.66666666666669</ele><time>2026-04-25T13:49:19.443Z</time></trkpt><trkpt lat="40.6621659" lon="15.243973"><ele>212.0</ele><time>2026-04-25T13:49:20.456Z</time></trkpt><trkpt lat="40.6623278" lon="15.2439112"><ele>206.66666666666669</ele><time>2026-04-25T13:49:21.448Z</time></trkpt><trkpt lat="40.6625" lon="15.2438698"><ele>201.33333333333331</ele><time>2026-04-25T13:49:22.446Z</time></trkpt><trkpt lat="40.662682" lon="15.2438544"><ele>196.0</ele><time>2026-04-25T13:49:23.45Z</time></trkpt><trkpt lat="40.6628737" lon="15.2438462"><ele>196.0</ele><time>2026-04-25T13:49:24.449Z</time></trkpt><trkpt lat="40.663071" lon="15.2438374"><ele>196.0</ele><time>2026-04-25T13:49:25.459Z</time></trkpt><trkpt lat="40.6632679" lon="15.2438198"><ele>196.0</ele><time>2026-04-25T13:49:26.45Z</time></trkpt><trkpt lat="40.6634694" lon="15.2438081"><ele>196.33333333333331</ele><time>2026-04-25T13:49:27.452Z</time></trkpt><trkpt lat="40.6636703" lon="15.2437999"><ele>196.66666666666669</ele><time>2026-04-25T13:49:28.442Z</time></trkpt><trkpt lat="40.6638713" lon="15.2438061"><ele>197.0</ele><time>2026-04-25T13:49:29.45Z</time></trkpt><trkpt lat="40.6640737" lon="15.2438223"><ele>197.0</ele><time>2026-04-25T13:49:30.45Z</time></trkpt><trkpt lat="40.6642755" lon="15.2438444"><ele>197.0</ele><time>2026-04-25T13:49:31.453Z</time></trkpt><trkpt lat="40.6644767" lon="15.2438686"><ele>197.0</ele><time>2026-04-25T13:49:32.456Z</time></trkpt><trkpt lat="40.6646776" lon="15.2438938"><ele>196.66666666666669</ele><time>2026-04-25T13:49:33.448Z</time></trkpt><trkpt lat="40.6648741" lon="15.2439145"><ele>196.33333333333331</ele><time>2026-04-25T13:49:34.448Z</time></trkpt><trkpt lat="40.6650634" lon="15.2439301"><ele>196.0</ele><time>2026-04-25T13:49:35.452Z</time></trkpt><trkpt lat="40.6652355" lon="15.2439409"><ele>195.75</ele><time>2026-04-25T13:49:36.45Z</time></trkpt><trkpt lat="40.6653882" lon="15.243953"><ele>195.5</ele><time>2026-04-25T13:49:37.45Z</time></trkpt><trkpt lat="40.665518" lon="15.2439754"><ele>195.25</ele><time>2026-04-25T13:49:38.45Z</time></trkpt><trkpt lat="40.665626" lon="15.2440202"><ele>195.0</ele><time>2026-04-25T13:49:39.447Z</time></trkpt><trkpt lat="40.6657086" lon="15.2440966"><ele>195.0</ele><time>2026-04-25T13:49:40.446Z</time></trkpt><trkpt lat="40.6657589" lon="15.2441951"><ele>195.0</ele><time>2026-04-25T13:49:41.445Z</time></trkpt><trkpt lat="40.6657759" lon="15.2443089"><ele>195.0</ele><time>2026-04-25T13:49:42.442Z</time></trkpt><trkpt lat="40.6657666" lon="15.2444292"><ele>195.0</ele><time>2026-04-25T13:49:43.451Z</time></trkpt><trkpt lat="40.6657413" lon="15.2445674"><ele>195.0</ele><time>2026-04-25T13:49:44.45Z</time></trkpt><trkpt lat="40.6657116" lon="15.2447151"><ele>194.5</ele><time>2026-04-25T13:49:45.444Z</time></trkpt><trkpt lat="40.6656821" lon="15.2448771"><ele>194.0</ele><time>2026-04-25T13:49:46.453Z</time></trkpt><trkpt lat="40.6656629" lon="15.2450566"><ele>193.5</ele><time>2026-04-25T13:49:47.455Z</time></trkpt><trkpt lat="40.6656646" lon="15.2452475"><ele>193.0</ele><time>2026-04-25T13:49:48.445Z</time></trkpt><trkpt lat="40.6656837" lon="15.2454488"><ele>192.66666666666666</ele><time>2026-04-25T13:49:49.448Z</time></trkpt><trkpt lat="40.6657101" lon="15.2456541"><ele>192.33333333333331</ele><time>2026-04-25T13:49:50.446Z</time></trkpt><trkpt lat="40.6657398" lon="15.2458651"><ele>192.0</ele><time>2026-04-25T13:49:51.436Z</time></trkpt><trkpt lat="40.6657717" lon="15.2460754"><ele>192.0</ele><time>2026-04-25T13:49:52.45Z</time></trkpt><trkpt lat="40.6658103" lon="15.2462826"><ele>192.0</ele><time>2026-04-25T13:49:53.445Z</time></trkpt><trkpt lat="40.6658626" lon="15.2464807"><ele>192.0</ele><time>2026-04-25T13:49:54.452Z</time></trkpt><trkpt lat="40.66593" lon="15.246671"><ele>194.66666666666669</ele><time>2026-04-25T13:49:55.456Z</time></trkpt><trkpt lat="40.6660094" lon="15.24685"><ele>197.33333333333334</ele><time>2026-04-25T13:49:56.449Z</time></trkpt><trkpt lat="40.6661009" lon="15.2470091"><ele>200.0</ele><time>2026-04-25T13:49:57.445Z</time></trkpt><trkpt lat="40.6662092" lon="15.2471364"><ele>197.0</ele><time>2026-04-25T13:49:58.442Z</time></trkpt><trkpt lat="40.6663397" lon="15.2472252"><ele>194.0</ele><time>2026-04-25T13:49:59.447Z</time></trkpt><trkpt lat="40.666493" lon="15.247279"><ele>191.0</ele><time>2026-04-25T13:50:00.462Z</time></trkpt><trkpt lat="40.6666628" lon="15.2473135"><ele>191.0</ele><time>2026-04-25T13:50:01.441Z</time></trkpt><trkpt lat="40.6668304" lon="15.2473384"><ele>191.0</ele><time>2026-04-25T13:50:02.446Z</time></trkpt><trkpt lat="40.6669916" lon="15.2473458"><ele>191.0</ele><time>2026-04-25T13:50:03.448Z</time></trkpt><trkpt lat="40.6671489" lon="15.2473238"><ele>185.0</ele><time>2026-04-25T13:50:04.443Z</time></trkpt><trkpt lat="40.6672994" lon="15.2472696"><ele>179.0</ele><time>2026-04-25T13:50:05.44Z</time></trkpt><trkpt lat="40.6674411" lon="15.2471985"><ele>173.0</ele><time>2026-04-25T13:50:06.446Z</time></trkpt><trkpt lat="40.6675759" lon="15.2471277"><ele>173.0</ele><time>2026-04-25T13:50:07.447Z</time></trkpt><trkpt lat="40.6677038" lon="15.2470805"><ele>173.0</ele><time>2026-04-25T13:50:08.458Z</time></trkpt><trkpt lat="40.6678287" lon="15.247071"><ele>173.0</ele><time>2026-04-25T13:50:09.463Z</time></trkpt><trkpt lat="40.6679452" lon="15.247107"><ele>173.0</ele><time>2026-04-25T13:50:10.445Z</time></trkpt><trkpt lat="40.6680478" lon="15.2471865"><ele>172.5</ele><time>2026-04-25T13:50:11.447Z</time></trkpt><trkpt lat="40.6681354" lon="15.2473018"><ele>172.0</ele><time>2026-04-25T13:50:12.457Z</time></trkpt><trkpt lat="40.6682239" lon="15.2474296"><ele>171.5</ele><time>2026-04-25T13:50:13.444Z</time></trkpt><trkpt lat="40.6682995" lon="15.2475811"><ele>171.0</ele><time>2026-04-25T13:50:14.454Z</time></trkpt><trkpt lat="40.6683748" lon="15.2477325"><ele>171.0</ele><time>2026-04-25T13:50:15.452Z</time></trkpt><trkpt lat="40.6684451" lon="15.2478814"><ele>171.0</ele><time>2026-04-25T13:50:16.45Z</time></trkpt><trkpt lat="40.6685118" lon="15.2480313"><ele>171.0</ele><time>2026-04-25T13:50:17.447Z</time></trkpt><trkpt lat="40.6685679" lon="15.2481896"><ele>171.0</ele><time>2026-04-25T13:50:18.448Z</time></trkpt><trkpt lat="40.6686127" lon="15.2483526"><ele>167.75</ele><time>2026-04-25T13:50:19.446Z</time></trkpt><trkpt lat="40.6686475" lon="15.2485212"><ele>164.5</ele><time>2026-04-25T13:50:20.448Z</time></trkpt><trkpt lat="40.6686731" lon="15.2486928"><ele>161.25</ele><time>2026-04-25T13:50:21.473Z</time></trkpt><trkpt lat="40.6686921" lon="15.2488615"><ele>158.0</ele><time>2026-04-25T13:50:22.452Z</time></trkpt><trkpt lat="40.6687055" lon="15.2490277"><ele>158.0</ele><time>2026-04-25T13:50:23.462Z</time></trkpt><trkpt lat="40.6687161" lon="15.2491887"><ele>158.0</ele><time>2026-04-25T13:50:24.454Z</time></trkpt><trkpt lat="40.6687289" lon="15.2493429"><ele>158.0</ele><time>2026-04-25T13:50:25.457Z</time></trkpt><trkpt lat="40.6687492" lon="15.249486"><ele>158.0</ele><time>2026-04-25T13:50:26.454Z</time></trkpt><trkpt lat="40.6687827" lon="15.24962"><ele>158.0</ele><time>2026-04-25T13:50:27.455Z</time></trkpt><trkpt lat="40.6688368" lon="15.2497461"><ele>158.0</ele><time>2026-04-25T13:50:28.451Z</time></trkpt><trkpt lat="40.6689091" lon="15.2498634"><ele>158.0</ele><time>2026-04-25T13:50:29.449Z</time></trkpt><trkpt lat="40.6689842" lon="15.2499747"><ele>158.0</ele><time>2026-04-25T13:50:30.446Z</time></trkpt><trkpt lat="40.6690589" lon="15.2500808"><ele>158.0</ele><time>2026-04-25T13:50:31.456Z</time></trkpt><trkpt lat="40.6691254" lon="15.2501769"><ele>158.0</ele><time>2026-04-25T13:50:32.456Z</time></trkpt><trkpt lat="40.669196" lon="15.2502649"><ele>158.0</ele><time>2026-04-25T13:50:33.455Z</time></trkpt><trkpt lat="40.6692669" lon="15.2503593"><ele>158.0</ele><time>2026-04-25T13:50:34.452Z</time></trkpt><trkpt lat="40.6693425" lon="15.2504604"><ele>158.0</ele><time>2026-04-25T13:50:35.448Z</time></trkpt><trkpt lat="40.6694212" lon="15.2505571"><ele>158.0</ele><time>2026-04-25T13:50:36.451Z</time></trkpt><trkpt lat="40.6695258" lon="15.2506207"><ele>158.0</ele><time>2026-04-25T13:50:37.452Z</time></trkpt><trkpt lat="40.6696427" lon="15.2506441"><ele>158.0</ele><time>2026-04-25T13:50:38.45Z</time></trkpt><trkpt lat="40.6697537" lon="15.2506181"><ele>158.0</ele><time>2026-04-25T13:50:39.453Z</time></trkpt><trkpt lat="40.6698728" lon="15.2505619"><ele>158.0</ele><time>2026-04-25T13:50:40.453Z</time></trkpt><trkpt lat="40.6700163" lon="15.2504633"><ele>158.0</ele><time>2026-04-25T13:50:41.45Z</time></trkpt><trkpt lat="40.6701737" lon="15.2503352"><ele>158.0</ele><time>2026-04-25T13:50:42.468Z</time></trkpt><trkpt lat="40.6703308" lon="15.2501948"><ele>158.0</ele><time>2026-04-25T13:50:43.452Z</time></trkpt><trkpt lat="40.6704768" lon="15.2500571"><ele>160.0</ele><time>2026-04-25T13:50:44.448Z</time></trkpt><trkpt lat="40.6706176" lon="15.2499443"><ele>162.0</ele><time>2026-04-25T13:50:45.46Z</time></trkpt><trkpt lat="40.6707569" lon="15.2498699"><ele>164.0</ele><time>2026-04-25T13:50:46.457Z</time></trkpt><trkpt lat="40.6709073" lon="15.2498389"><ele>164.0</ele><time>2026-04-25T13:50:47.444Z</time></trkpt><trkpt lat="40.6710587" lon="15.2498492"><ele>164.0</ele><time>2026-04-25T13:50:48.444Z</time></trkpt><trkpt lat="40.671207" lon="15.2498906"><ele>164.0</ele><time>2026-04-25T13:50:49.453Z</time></trkpt><trkpt lat="40.6713576" lon="15.2499628"><ele>165.66666666666666</ele><time>2026-04-25T13:50:50.457Z</time></trkpt><trkpt lat="40.6715205" lon="15.2500607"><ele>167.33333333333334</ele><time>2026-04-25T13:50:51.454Z</time></trkpt><trkpt lat="40.6716953" lon="15.2501758"><ele>169.0</ele><time>2026-04-25T13:50:52.446Z</time></trkpt><trkpt lat="40.6718762" lon="15.2502987"><ele>168.0</ele><time>2026-04-25T13:50:53.45Z</time></trkpt><trkpt lat="40.6720593" lon="15.2504227"><ele>167.0</ele><time>2026-04-25T13:50:54.445Z</time></trkpt><trkpt lat="40.6722395" lon="15.2505439"><ele>166.0</ele><time>2026-04-25T13:50:55.453Z</time></trkpt><trkpt lat="40.6724152" lon="15.2506608"><ele>166.66666666666669</ele><time>2026-04-25T13:50:56.456Z</time></trkpt><trkpt lat="40.6725847" lon="15.2507734"><ele>167.33333333333334</ele><time>2026-04-25T13:50:57.453Z</time></trkpt><trkpt lat="40.6727475" lon="15.2508803"><ele>168.0</ele><time>2026-04-25T13:50:58.446Z</time></trkpt><trkpt lat="40.6729034" lon="15.2509834"><ele>168.0</ele><time>2026-04-25T13:50:59.446Z</time></trkpt><trkpt lat="40.673052" lon="15.2510785"><ele>168.0</ele><time>2026-04-25T13:51:00.445Z</time></trkpt><trkpt lat="40.6731941" lon="15.2511573"><ele>168.0</ele><time>2026-04-25T13:51:01.458Z</time></trkpt><trkpt lat="40.6733294" lon="15.2512116"><ele>168.0</ele><time>2026-04-25T13:51:02.443Z</time></trkpt><trkpt lat="40.673462" lon="15.251227"><ele>168.0</ele><time>2026-04-25T13:51:03.452Z</time></trkpt><trkpt lat="40.6735905" lon="15.2511959"><ele>168.0</ele><time>2026-04-25T13:51:04.455Z</time></trkpt><trkpt lat="40.6737075" lon="15.2511202"><ele>168.0</ele><time>2026-04-25T13:51:05.455Z</time></trkpt><trkpt lat="40.6738114" lon="15.2510139"><ele>168.5</ele><time>2026-04-25T13:51:06.446Z</time></trkpt><trkpt lat="40.6739151" lon="15.2509054"><ele>169.0</ele><time>2026-04-25T13:51:07.466Z</time></trkpt><trkpt lat="40.6740303" lon="15.2508187"><ele>169.5</ele><time>2026-04-25T13:51:08.459Z</time></trkpt><trkpt lat="40.6741588" lon="15.2507644"><ele>170.0</ele><time>2026-04-25T13:51:09.455Z</time></trkpt><trkpt lat="40.6742933" lon="15.250755"><ele>170.0</ele><time>2026-04-25T13:51:10.451Z</time></trkpt><trkpt lat="40.6744239" lon="15.2507912"><ele>170.0</ele><time>2026-04-25T13:51:11.457Z</time></trkpt><trkpt lat="40.674544" lon="15.2508641"><ele>170.0</ele><time>2026-04-25T13:51:12.444Z</time></trkpt><trkpt lat="40.674659" lon="15.2509512"><ele>170.0</ele><time>2026-04-25T13:51:13.458Z</time></trkpt><trkpt lat="40.6747665" lon="15.2510541"><ele>169.75</ele><time>2026-04-25T13:51:14.444Z</time></trkpt><trkpt lat="40.6748626" lon="15.2511764"><ele>169.5</ele><time>2026-04-25T13:51:15.451Z</time></trkpt><trkpt lat="40.6749461" lon="15.2513178"><ele>169.25</ele><time>2026-04-25T13:51:16.453Z</time></trkpt><trkpt lat="40.6750148" lon="15.251476"><ele>169.0</ele><time>2026-04-25T13:51:17.453Z</time></trkpt><trkpt lat="40.6750661" lon="15.2516498"><ele>169.0</ele><time>2026-04-25T13:51:18.451Z</time></trkpt><trkpt lat="40.6751078" lon="15.2518323"><ele>169.0</ele><time>2026-04-25T13:51:19.454Z</time></trkpt><trkpt lat="40.6751449" lon="15.2520207"><ele>169.0</ele><time>2026-04-25T13:51:20.456Z</time></trkpt><trkpt lat="40.6751791" lon="15.2522145"><ele>169.0</ele><time>2026-04-25T13:51:21.452Z</time></trkpt><trkpt lat="40.6752093" lon="15.2524117"><ele>170.0</ele><time>2026-04-25T13:51:22.453Z</time></trkpt><trkpt lat="40.6752322" lon="15.252614"><ele>171.0</ele><time>2026-04-25T13:51:23.445Z</time></trkpt><trkpt lat="40.6752498" lon="15.2528154"><ele>172.0</ele><time>2026-04-25T13:51:24.453Z</time></trkpt><trkpt lat="40.6752683" lon="15.2530144"><ele>168.5</ele><time>2026-04-25T13:51:25.455Z</time></trkpt><trkpt lat="40.675298" lon="15.2532057"><ele>165.0</ele><time>2026-04-25T13:51:26.447Z</time></trkpt><trkpt lat="40.6753424" lon="15.2533873"><ele>161.5</ele><time>2026-04-25T13:51:27.451Z</time></trkpt><trkpt lat="40.6754029" lon="15.2535551"><ele>158.0</ele><time>2026-04-25T13:51:28.455Z</time></trkpt><trkpt lat="40.6754833" lon="15.2536991"><ele>158.0</ele><time>2026-04-25T13:51:29.449Z</time></trkpt><trkpt lat="40.6755815" lon="15.2538079"><ele>158.0</ele><time>2026-04-25T13:51:30.45Z</time></trkpt><trkpt lat="40.6756903" lon="15.2538792"><ele>158.0</ele><time>2026-04-25T13:51:31.458Z</time></trkpt><trkpt lat="40.6758089" lon="15.2539407"><ele>158.0</ele><time>2026-04-25T13:51:32.452Z</time></trkpt><trkpt lat="40.6759393" lon="15.253945"><ele>158.0</ele><time>2026-04-25T13:51:33.444Z</time></trkpt><trkpt lat="40.6760735" lon="15.2539286"><ele>158.0</ele><time>2026-04-25T13:51:34.447Z</time></trkpt><trkpt lat="40.6762024" lon="15.2538574"><ele>158.0</ele><time>2026-04-25T13:51:35.455Z</time></trkpt><trkpt lat="40.6763288" lon="15.2537823"><ele>158.0</ele><time>2026-04-25T13:51:36.454Z</time></trkpt><trkpt lat="40.6764608" lon="15.253706"><ele>159.0</ele><time>2026-04-25T13:51:37.446Z</time></trkpt><trkpt lat="40.6765993" lon="15.2536395"><ele>160.0</ele><time>2026-04-25T13:51:38.447Z</time></trkpt><trkpt lat="40.6767336" lon="15.2535808"><ele>161.0</ele><time>2026-04-25T13:51:39.447Z</time></trkpt><trkpt lat="40.6768686" lon="15.2535322"><ele>162.0</ele><time>2026-04-25T13:51:40.453Z</time></trkpt><trkpt lat="40.6770111" lon="15.2534973"><ele>163.33333333333334</ele><time>2026-04-25T13:51:41.448Z</time></trkpt><trkpt lat="40.6771556" lon="15.2534692"><ele>164.66666666666669</ele><time>2026-04-25T13:51:42.45Z</time></trkpt><trkpt lat="40.6773093" lon="15.2534842"><ele>166.0</ele><time>2026-04-25T13:51:43.444Z</time></trkpt><trkpt lat="40.6774832" lon="15.2535148"><ele>166.0</ele><time>2026-04-25T13:51:44.449Z</time></trkpt><trkpt lat="40.6776651" lon="15.253587"><ele>166.0</ele><time>2026-04-25T13:51:45.464Z</time></trkpt><trkpt lat="40.6778558" lon="15.2536683"><ele>166.0</ele><time>2026-04-25T13:51:46.46Z</time></trkpt><trkpt lat="40.6780561" lon="15.2537455"><ele>166.0</ele><time>2026-04-25T13:51:47.455Z</time></trkpt><trkpt lat="40.6782671" lon="15.2537562"><ele>166.0</ele><time>2026-04-25T13:51:48.449Z</time></trkpt><trkpt lat="40.6784916" lon="15.2537437"><ele>166.0</ele><time>2026-04-25T13:51:49.445Z</time></trkpt><trkpt lat="40.6787112" lon="15.253714"><ele>167.66666666666669</ele><time>2026-04-25T13:51:50.451Z</time></trkpt><trkpt lat="40.6789295" lon="15.2536774"><ele>169.33333333333334</ele><time>2026-04-25T13:51:51.454Z</time></trkpt><trkpt lat="40.6791377" lon="15.2536461"><ele>171.0</ele><time>2026-04-25T13:51:52.451Z</time></trkpt><trkpt lat="40.6793465" lon="15.2536288"><ele>171.33333333333334</ele><time>2026-04-25T13:51:53.455Z</time></trkpt><trkpt lat="40.6795485" lon="15.2536235"><ele>171.66666666666669</ele><time>2026-04-25T13:51:54.448Z</time></trkpt><trkpt lat="40.6797474" lon="15.2536332"><ele>172.0</ele><time>2026-04-25T13:51:55.448Z</time></trkpt><trkpt lat="40.6799456" lon="15.253646"><ele>172.0</ele><time>2026-04-25T13:51:56.455Z</time></trkpt><trkpt lat="40.6801352" lon="15.2536612"><ele>172.0</ele><time>2026-04-25T13:51:57.454Z</time></trkpt><trkpt lat="40.680326" lon="15.2536733"><ele>172.0</ele><time>2026-04-25T13:51:58.445Z</time></trkpt><trkpt lat="40.6805103" lon="15.2536754"><ele>172.0</ele><time>2026-04-25T13:51:59.45Z</time></trkpt><trkpt lat="40.680699" lon="15.2536789"><ele>172.0</ele><time>2026-04-25T13:52:00.454Z</time></trkpt><trkpt lat="40.6808865" lon="15.2536792"><ele>172.0</ele><time>2026-04-25T13:52:01.45Z</time></trkpt><trkpt lat="40.6810715" lon="15.2536784"><ele>172.66666666666669</ele><time>2026-04-25T13:52:02.45Z</time></trkpt><trkpt lat="40.6812606" lon="15.2536809"><ele>173.33333333333334</ele><time>2026-04-25T13:52:03.454Z</time></trkpt><trkpt lat="40.6814485" lon="15.2536854"><ele>174.0</ele><time>2026-04-25T13:52:04.45Z</time></trkpt><trkpt lat="40.6816351" lon="15.2536912"><ele>174.0</ele><time>2026-04-25T13:52:05.453Z</time></trkpt><trkpt lat="40.6818262" lon="15.2536992"><ele>174.0</ele><time>2026-04-25T13:52:06.454Z</time></trkpt><trkpt lat="40.6820135" lon="15.253704"><ele>174.0</ele><time>2026-04-25T13:52:07.456Z</time></trkpt><trkpt lat="40.6821999" lon="15.2537105"><ele>174.66666666666666</ele><time>2026-04-25T13:52:08.449Z</time></trkpt><trkpt lat="40.6823872" lon="15.253716"><ele>175.33333333333331</ele><time>2026-04-25T13:52:09.443Z</time></trkpt><trkpt lat="40.682575" lon="15.2537175"><ele>176.0</ele><time>2026-04-25T13:52:10.45Z</time></trkpt><trkpt lat="40.6827597" lon="15.2537112"><ele>177.0</ele><time>2026-04-25T13:52:11.441Z</time></trkpt><trkpt lat="40.6829416" lon="15.2536889"><ele>178.0</ele><time>2026-04-25T13:52:12.5Z</time></trkpt><trkpt lat="40.6831197" lon="15.2536512"><ele>179.0</ele><time>2026-04-25T13:52:13.449Z</time></trkpt><trkpt lat="40.6832962" lon="15.2536068"><ele>179.0</ele><time>2026-04-25T13:52:14.446Z</time></trkpt><trkpt lat="40.6834752" lon="15.2535589"><ele>179.0</ele><time>2026-04-25T13:52:15.453Z</time></trkpt><trkpt lat="40.6836529" lon="15.2535029"><ele>179.0</ele><time>2026-04-25T13:52:16.447Z</time></trkpt><trkpt lat="40.6838283" lon="15.2534364"><ele>182.66666666666666</ele><time>2026-04-25T13:52:17.443Z</time></trkpt><trkpt lat="40.6840037" lon="15.2533548"><ele>186.33333333333334</ele><time>2026-04-25T13:52:18.442Z</time></trkpt><trkpt lat="40.6841771" lon="15.2532588"><ele>190.0</ele><time>2026-04-25T13:52:19.45Z</time></trkpt><trkpt lat="40.6843467" lon="15.2531475"><ele>185.66666666666669</ele><time>2026-04-25T13:52:20.449Z</time></trkpt><trkpt lat="40.6845149" lon="15.2530251"><ele>181.33333333333334</ele><time>2026-04-25T13:52:21.455Z</time></trkpt><trkpt lat="40.6846828" lon="15.252897"><ele>177.0</ele><time>2026-04-25T13:52:22.453Z</time></trkpt><trkpt lat="40.6848527" lon="15.2527682"><ele>177.0</ele><time>2026-04-25T13:52:23.449Z</time></trkpt><trkpt lat="40.6850261" lon="15.2526419"><ele>177.0</ele><time>2026-04-25T13:52:24.451Z</time></trkpt><trkpt lat="40.6852039" lon="15.2525222"><ele>177.0</ele><time>2026-04-25T13:52:25.453Z</time></trkpt><trkpt lat="40.6853844" lon="15.2524123"><ele>181.0</ele><time>2026-04-25T13:52:26.444Z</time></trkpt><trkpt lat="40.6855668" lon="15.2523187"><ele>185.0</ele><time>2026-04-25T13:52:27.444Z</time></trkpt><trkpt lat="40.6857514" lon="15.2522441"><ele>189.0</ele><time>2026-04-25T13:52:28.446Z</time></trkpt><trkpt lat="40.6859365" lon="15.2521908"><ele>180.0</ele><time>2026-04-25T13:52:29.448Z</time></trkpt><trkpt lat="40.6861157" lon="15.2521541"><ele>171.0</ele><time>2026-04-25T13:52:30.448Z</time></trkpt><trkpt lat="40.6862878" lon="15.2521291"><ele>162.0</ele><time>2026-04-25T13:52:31.445Z</time></trkpt><trkpt lat="40.6864531" lon="15.25211"><ele>162.0</ele><time>2026-04-25T13:52:32.44Z</time></trkpt><trkpt lat="40.686614" lon="15.2520955"><ele>162.0</ele><time>2026-04-25T13:52:33.447Z</time></trkpt><trkpt lat="40.6867748" lon="15.2520811"><ele>162.0</ele><time>2026-04-25T13:52:34.437Z</time></trkpt><trkpt lat="40.686934" lon="15.2520638"><ele>164.0</ele><time>2026-04-25T13:52:35.45Z</time></trkpt><trkpt lat="40.6870892" lon="15.2520378"><ele>166.0</ele><time>2026-04-25T13:52:36.441Z</time></trkpt><trkpt lat="40.6872382" lon="15.2519988"><ele>168.0</ele><time>2026-04-25T13:52:37.442Z</time></trkpt><trkpt lat="40.6873813" lon="15.2519476"><ele>168.0</ele><time>2026-04-25T13:52:38.445Z</time></trkpt><trkpt lat="40.6875205" lon="15.2519057"><ele>168.0</ele><time>2026-04-25T13:52:39.451Z</time></trkpt><trkpt lat="40.6876596" lon="15.2518869"><ele>168.0</ele><time>2026-04-25T13:52:40.453Z</time></trkpt><trkpt lat="40.6878011" lon="15.2518899"><ele>168.0</ele><time>2026-04-25T13:52:41.459Z</time></trkpt><trkpt lat="40.6879438" lon="15.2519138"><ele>167.25</ele><time>2026-04-25T13:52:42.452Z</time></trkpt><trkpt lat="40.6880876" lon="15.2519469"><ele>166.5</ele><time>2026-04-25T13:52:43.441Z</time></trkpt><trkpt lat="40.6882334" lon="15.2519746"><ele>165.75</ele><time>2026-04-25T13:52:44.442Z</time></trkpt><trkpt lat="40.6883787" lon="15.2519954"><ele>165.0</ele><time>2026-04-25T13:52:45.444Z</time></trkpt><trkpt lat="40.6885255" lon="15.2519817"><ele>162.25</ele><time>2026-04-25T13:52:46.449Z</time></trkpt><trkpt lat="40.6886678" lon="15.2519822"><ele>159.5</ele><time>2026-04-25T13:52:47.456Z</time></trkpt><trkpt lat="40.6888106" lon="15.2520104"><ele>156.75</ele><time>2026-04-25T13:52:48.443Z</time></trkpt><trkpt lat="40.6889425" lon="15.2520729"><ele>154.0</ele><time>2026-04-25T13:52:49.442Z</time></trkpt><trkpt lat="40.6890638" lon="15.2521639"><ele>154.0</ele><time>2026-04-25T13:52:50.446Z</time></trkpt><trkpt lat="40.6891755" lon="15.2522764"><ele>154.0</ele><time>2026-04-25T13:52:51.458Z</time></trkpt><trkpt lat="40.6892906" lon="15.2523885"><ele>154.0</ele><time>2026-04-25T13:52:52.447Z</time></trkpt><trkpt lat="40.6894192" lon="15.2524794"><ele>154.0</ele><time>2026-04-25T13:52:53.457Z</time></trkpt><trkpt lat="40.6895557" lon="15.2525451"><ele>155.25</ele><time>2026-04-25T13:52:54.464Z</time></trkpt><trkpt lat="40.6896927" lon="15.2525874"><ele>156.5</ele><time>2026-04-25T13:52:55.446Z</time></trkpt><trkpt lat="40.6898186" lon="15.2526108"><ele>157.75</ele><time>2026-04-25T13:52:56.443Z</time></trkpt><trkpt lat="40.6899322" lon="15.252618"><ele>159.0</ele><time>2026-04-25T13:52:57.446Z</time></trkpt><trkpt lat="40.690029" lon="15.252611"><ele>159.0</ele><time>2026-04-25T13:52:58.457Z</time></trkpt><trkpt lat="40.6901145" lon="15.2525883"><ele>159.0</ele><time>2026-04-25T13:52:59.446Z</time></trkpt><trkpt lat="40.690195" lon="15.2525574"><ele>159.0</ele><time>2026-04-25T13:53:00.457Z</time></trkpt><trkpt lat="40.6902756" lon="15.2525219"><ele>159.0</ele><time>2026-04-25T13:53:01.447Z</time></trkpt><trkpt lat="40.6903538" lon="15.2524769"><ele>159.0</ele><time>2026-04-25T13:53:02.444Z</time></trkpt><trkpt lat="40.6904282" lon="15.2524219"><ele>159.0</ele><time>2026-04-25T13:53:03.454Z</time></trkpt><trkpt lat="40.6905028" lon="15.2523616"><ele>158.83333333333334</ele><time>2026-04-25T13:53:04.446Z</time></trkpt><trkpt lat="40.690574" lon="15.2522971"><ele>158.66666666666666</ele><time>2026-04-25T13:53:05.448Z</time></trkpt><trkpt lat="40.6906377" lon="15.2522202"><ele>158.5</ele><time>2026-04-25T13:53:06.447Z</time></trkpt><trkpt lat="40.6906943" lon="15.2521319"><ele>158.33333333333331</ele><time>2026-04-25T13:53:07.462Z</time></trkpt><trkpt lat="40.6907468" lon="15.2520393"><ele>158.16666666666666</ele><time>2026-04-25T13:53:08.456Z</time></trkpt><trkpt lat="40.6907997" lon="15.2519499"><ele>158.0</ele><time>2026-04-25T13:53:09.463Z</time></trkpt><trkpt lat="40.6908583" lon="15.2518638"><ele>157.6</ele><time>2026-04-25T13:53:10.454Z</time></trkpt><trkpt lat="40.6909185" lon="15.2517773"><ele>157.20000000000002</ele><time>2026-04-25T13:53:11.463Z</time></trkpt><trkpt lat="40.690978" lon="15.2516823"><ele>156.8</ele><time>2026-04-25T13:53:12.445Z</time></trkpt><trkpt lat="40.6910366" lon="15.2515799"><ele>156.4</ele><time>2026-04-25T13:53:13.452Z</time></trkpt><trkpt lat="40.6910963" lon="15.2514748"><ele>156.0</ele><time>2026-04-25T13:53:14.456Z</time></trkpt><trkpt lat="40.6911583" lon="15.2513672"><ele>154.6</ele><time>2026-04-25T13:53:15.458Z</time></trkpt><trkpt lat="40.6912209" lon="15.2512596"><ele>153.2</ele><time>2026-04-25T13:53:16.482Z</time></trkpt><trkpt lat="40.6912812" lon="15.2511436"><ele>151.8</ele><time>2026-04-25T13:53:17.451Z</time></trkpt><trkpt lat="40.6913391" lon="15.2510185"><ele>150.4</ele><time>2026-04-25T13:53:18.454Z</time></trkpt><trkpt lat="40.6913957" lon="15.250889"><ele>149.0</ele><time>2026-04-25T13:53:19.458Z</time></trkpt><trkpt lat="40.6914615" lon="15.2507656"><ele>147.4</ele><time>2026-04-25T13:53:20.445Z</time></trkpt><trkpt lat="40.6914902" lon="15.2506231"><ele>145.8</ele><time>2026-04-25T13:53:21.453Z</time></trkpt><trkpt lat="40.6914956" lon="15.2504775"><ele>144.2</ele><time>2026-04-25T13:53:22.452Z</time></trkpt><trkpt lat="40.6914686" lon="15.2503325"><ele>142.6</ele><time>2026-04-25T13:53:23.454Z</time></trkpt><trkpt lat="40.6914216" lon="15.2501971"><ele>141.0</ele><time>2026-04-25T13:53:24.464Z</time></trkpt><trkpt lat="40.6913505" lon="15.2500791"><ele>141.0</ele><time>2026-04-25T13:53:25.457Z</time></trkpt><trkpt lat="40.691263" lon="15.2499729"><ele>141.0</ele><time>2026-04-25T13:53:26.451Z</time></trkpt><trkpt lat="40.6911674" lon="15.2498672"><ele>141.0</ele><time>2026-04-25T13:53:27.458Z</time></trkpt><trkpt lat="40.6910729" lon="15.2497514"><ele>141.0</ele><time>2026-04-25T13:53:28.47Z</time></trkpt><trkpt lat="40.6909722" lon="15.2496327"><ele>142.4</ele><time>2026-04-25T13:53:29.449Z</time></trkpt><trkpt lat="40.6908824" lon="15.249515"><ele>143.8</ele><time>2026-04-25T13:53:30.455Z</time></trkpt><trkpt lat="40.6908084" lon="15.2494016"><ele>145.20000000000002</ele><time>2026-04-25T13:53:31.452Z</time></trkpt><trkpt lat="40.6907673" lon="15.2492798"><ele>146.6</ele><time>2026-04-25T13:53:32.458Z</time></trkpt><trkpt lat="40.6907601" lon="15.2491522"><ele>148.0</ele><time>2026-04-25T13:53:33.444Z</time></trkpt><trkpt lat="40.690784" lon="15.2490204"><ele>150.0</ele><time>2026-04-25T13:53:34.455Z</time></trkpt><trkpt lat="40.6908388" lon="15.2488975"><ele>152.0</ele><time>2026-04-25T13:53:35.454Z</time></trkpt><trkpt lat="40.6909163" lon="15.2487818"><ele>154.0</ele><time>2026-04-25T13:53:36.449Z</time></trkpt><trkpt lat="40.6910061" lon="15.2486732"><ele>156.0</ele><time>2026-04-25T13:53:37.462Z</time></trkpt><trkpt lat="40.6910858" lon="15.2485783"><ele>155.16666666666666</ele><time>2026-04-25T13:53:38.45Z</time></trkpt><trkpt lat="40.691151" lon="15.2485191"><ele>154.33333333333334</ele><time>2026-04-25T13:53:39.446Z</time></trkpt><trkpt lat="40.6912103" lon="15.2484904"><ele>153.5</ele><time>2026-04-25T13:53:40.45Z</time></trkpt><trkpt lat="40.6913255" lon="15.2485039"><ele>152.66666666666669</ele><time>2026-04-25T13:53:42.441Z</time></trkpt><trkpt lat="40.6913859" lon="15.2485296"><ele>151.83333333333334</ele><time>2026-04-25T13:53:43.456Z</time></trkpt><trkpt lat="40.6914534" lon="15.2485683"><ele>151.0</ele><time>2026-04-25T13:53:44.447Z</time></trkpt><trkpt lat="40.6915265" lon="15.2486303"><ele>151.0</ele><time>2026-04-25T13:53:45.455Z</time></trkpt><trkpt lat="40.691606" lon="15.2487193"><ele>151.0</ele><time>2026-04-25T13:53:46.449Z</time></trkpt><trkpt lat="40.6916938" lon="15.2488313"><ele>151.0</ele><time>2026-04-25T13:53:47.448Z</time></trkpt><trkpt lat="40.691791" lon="15.2489587"><ele>151.0</ele><time>2026-04-25T13:53:48.449Z</time></trkpt><trkpt lat="40.6918935" lon="15.2490936"><ele>150.0</ele><time>2026-04-25T13:53:49.447Z</time></trkpt><trkpt lat="40.6920124" lon="15.2492119"><ele>149.0</ele><time>2026-04-25T13:53:50.45Z</time></trkpt><trkpt lat="40.6921395" lon="15.2493156"><ele>148.0</ele><time>2026-04-25T13:53:51.445Z</time></trkpt><trkpt lat="40.6922846" lon="15.249407"><ele>148.0</ele><time>2026-04-25T13:53:52.448Z</time></trkpt><trkpt lat="40.6924431" lon="15.249483"><ele>148.0</ele><time>2026-04-25T13:53:53.446Z</time></trkpt><trkpt lat="40.6926095" lon="15.2495242"><ele>148.0</ele><time>2026-04-25T13:53:54.449Z</time></trkpt><trkpt lat="40.6927735" lon="15.249531"><ele>149.33333333333334</ele><time>2026-04-25T13:53:55.443Z</time></trkpt><trkpt lat="40.6929235" lon="15.2495157"><ele>150.66666666666666</ele><time>2026-04-25T13:53:56.453Z</time></trkpt><trkpt lat="40.6930728" lon="15.2494993"><ele>152.0</ele><time>2026-04-25T13:53:57.46Z</time></trkpt><trkpt lat="40.6932226" lon="15.2494635"><ele>152.0</ele><time>2026-04-25T13:53:58.457Z</time></trkpt><trkpt lat="40.6933684" lon="15.2494282"><ele>152.0</ele><time>2026-04-25T13:53:59.446Z</time></trkpt><trkpt lat="40.6935178" lon="15.2494026"><ele>152.0</ele><time>2026-04-25T13:54:00.452Z</time></trkpt><trkpt lat="40.693667" lon="15.2493792"><ele>152.0</ele><time>2026-04-25T13:54:01.463Z</time></trkpt><trkpt lat="40.6938184" lon="15.249346"><ele>153.0</ele><time>2026-04-25T13:54:02.457Z</time></trkpt><trkpt lat="40.693969" lon="15.2493158"><ele>154.0</ele><time>2026-04-25T13:54:03.447Z</time></trkpt><trkpt lat="40.6941225" lon="15.2492832"><ele>155.0</ele><time>2026-04-25T13:54:04.459Z</time></trkpt><trkpt lat="40.694276" lon="15.2492531"><ele>156.0</ele><time>2026-04-25T13:54:05.452Z</time></trkpt><trkpt lat="40.6944322" lon="15.2492259"><ele>157.0</ele><time>2026-04-25T13:54:06.457Z</time></trkpt><trkpt lat="40.6945993" lon="15.2492007"><ele>158.0</ele><time>2026-04-25T13:54:07.444Z</time></trkpt><trkpt lat="40.6947746" lon="15.2491716"><ele>158.0</ele><time>2026-04-25T13:54:08.449Z</time></trkpt><trkpt lat="40.6949526" lon="15.2491408"><ele>158.0</ele><time>2026-04-25T13:54:09.447Z</time></trkpt><trkpt lat="40.6951287" lon="15.2491229"><ele>158.0</ele><time>2026-04-25T13:54:10.449Z</time></trkpt><trkpt lat="40.6953032" lon="15.2491175"><ele>158.33333333333331</ele><time>2026-04-25T13:54:11.446Z</time></trkpt><trkpt lat="40.6954801" lon="15.2491181"><ele>158.66666666666666</ele><time>2026-04-25T13:54:12.45Z</time></trkpt><trkpt lat="40.6956651" lon="15.2491263"><ele>159.0</ele><time>2026-04-25T13:54:13.447Z</time></trkpt><trkpt lat="40.6958509" lon="15.2491466"><ele>159.0</ele><time>2026-04-25T13:54:14.442Z</time></trkpt><trkpt lat="40.6960336" lon="15.2491927"><ele>159.0</ele><time>2026-04-25T13:54:15.455Z</time></trkpt><trkpt lat="40.6962128" lon="15.2492571"><ele>159.0</ele><time>2026-04-25T13:54:16.447Z</time></trkpt><trkpt lat="40.6963892" lon="15.2493053"><ele>158.66666666666666</ele><time>2026-04-25T13:54:17.451Z</time></trkpt><trkpt lat="40.6965587" lon="15.2493211"><ele>158.33333333333331</ele><time>2026-04-25T13:54:18.447Z</time></trkpt><trkpt lat="40.6967153" lon="15.2493333"><ele>158.0</ele><time>2026-04-25T13:54:19.448Z</time></trkpt><trkpt lat="40.6968484" lon="15.2493522"><ele>156.75</ele><time>2026-04-25T13:54:20.451Z</time></trkpt><trkpt lat="40.6969574" lon="15.2494425"><ele>155.5</ele><time>2026-04-25T13:54:21.451Z</time></trkpt><trkpt lat="40.6970469" lon="15.249561"><ele>154.25</ele><time>2026-04-25T13:54:22.448Z</time></trkpt><trkpt lat="40.6971257" lon="15.2497085"><ele>153.0</ele><time>2026-04-25T13:54:23.456Z</time></trkpt><trkpt lat="40.6972024" lon="15.2498684"><ele>152.66666666666666</ele><time>2026-04-25T13:54:24.451Z</time></trkpt><trkpt lat="40.6972823" lon="15.250033"><ele>152.33333333333331</ele><time>2026-04-25T13:54:25.454Z</time></trkpt><trkpt lat="40.6973655" lon="15.2502041"><ele>152.0</ele><time>2026-04-25T13:54:26.447Z</time></trkpt><trkpt lat="40.697453" lon="15.2503617"><ele>152.0</ele><time>2026-04-25T13:54:27.458Z</time></trkpt><trkpt lat="40.6975496" lon="15.250492"><ele>152.0</ele><time>2026-04-25T13:54:28.459Z</time></trkpt><trkpt lat="40.6976478" lon="15.2505848"><ele>152.0</ele><time>2026-04-25T13:54:29.463Z</time></trkpt><trkpt lat="40.6977406" lon="15.2506491"><ele>152.0</ele><time>2026-04-25T13:54:30.452Z</time></trkpt><trkpt lat="40.6978284" lon="15.2506891"><ele>152.4</ele><time>2026-04-25T13:54:31.45Z</time></trkpt><trkpt lat="40.6979147" lon="15.2507114"><ele>152.79999999999998</ele><time>2026-04-25T13:54:32.449Z</time></trkpt><trkpt lat="40.6980065" lon="15.250726"><ele>153.2</ele><time>2026-04-25T13:54:33.454Z</time></trkpt><trkpt lat="40.6981234" lon="15.2507217"><ele>153.6</ele><time>2026-04-25T13:54:34.455Z</time></trkpt><trkpt lat="40.6982615" lon="15.2507101"><ele>154.0</ele><time>2026-04-25T13:54:35.453Z</time></trkpt><trkpt lat="40.6984115" lon="15.2506961"><ele>154.0</ele><time>2026-04-25T13:54:36.45Z</time></trkpt><trkpt lat="40.6985712" lon="15.2506864"><ele>154.0</ele><time>2026-04-25T13:54:37.454Z</time></trkpt><trkpt lat="40.6987401" lon="15.2506721"><ele>154.0</ele><time>2026-04-25T13:54:38.452Z</time></trkpt><trkpt lat="40.6989106" lon="15.2506542"><ele>153.33333333333334</ele><time>2026-04-25T13:54:39.453Z</time></trkpt><trkpt lat="40.699083" lon="15.2506285"><ele>152.66666666666666</ele><time>2026-04-25T13:54:40.442Z</time></trkpt><trkpt lat="40.6992516" lon="15.2505719"><ele>152.0</ele><time>2026-04-25T13:54:41.455Z</time></trkpt><trkpt lat="40.6994197" lon="15.2505026"><ele>153.66666666666666</ele><time>2026-04-25T13:54:42.46Z</time></trkpt><trkpt lat="40.6995735" lon="15.2503881"><ele>155.33333333333334</ele><time>2026-04-25T13:54:43.457Z</time></trkpt><trkpt lat="40.6997345" lon="15.2502883"><ele>157.0</ele><time>2026-04-25T13:54:44.447Z</time></trkpt><trkpt lat="40.6998949" lon="15.2502116"><ele>157.0</ele><time>2026-04-25T13:54:45.456Z</time></trkpt><trkpt lat="40.7000459" lon="15.250136"><ele>157.0</ele><time>2026-04-25T13:54:46.449Z</time></trkpt><trkpt lat="40.7001825" lon="15.250054"><ele>157.0</ele><time>2026-04-25T13:54:47.446Z</time></trkpt><trkpt lat="40.7003008" lon="15.2499321"><ele>157.66666666666669</ele><time>2026-04-25T13:54:48.45Z</time></trkpt><trkpt lat="40.7004062" lon="15.2497696"><ele>158.33333333333334</ele><time>2026-04-25T13:54:49.445Z</time></trkpt><trkpt lat="40.7005066" lon="15.2495805"><ele>159.0</ele><time>2026-04-25T13:54:50.453Z</time></trkpt><trkpt lat="40.7006045" lon="15.2493753"><ele>159.0</ele><time>2026-04-25T13:54:51.45Z</time></trkpt><trkpt lat="40.7007125" lon="15.2491672"><ele>159.0</ele><time>2026-04-25T13:54:52.446Z</time></trkpt><trkpt lat="40.7008365" lon="15.2489756"><ele>159.0</ele><time>2026-04-25T13:54:53.466Z</time></trkpt><trkpt lat="40.7009725" lon="15.2488033"><ele>158.0</ele><time>2026-04-25T13:54:54.453Z</time></trkpt><trkpt lat="40.701109" lon="15.2486475"><ele>157.0</ele><time>2026-04-25T13:54:55.448Z</time></trkpt><trkpt lat="40.7012278" lon="15.2484953"><ele>156.0</ele><time>2026-04-25T13:54:56.449Z</time></trkpt><trkpt lat="40.70132" lon="15.248327"><ele>156.0</ele><time>2026-04-25T13:54:57.458Z</time></trkpt><trkpt lat="40.7013848" lon="15.2481415"><ele>156.0</ele><time>2026-04-25T13:54:58.45Z</time></trkpt><trkpt lat="40.7014402" lon="15.2479456"><ele>156.0</ele><time>2026-04-25T13:54:59.455Z</time></trkpt><trkpt lat="40.7015" lon="15.2477505"><ele>157.33333333333334</ele><time>2026-04-25T13:55:00.458Z</time></trkpt><trkpt lat="40.7015681" lon="15.2475597"><ele>158.66666666666669</ele><time>2026-04-25T13:55:01.455Z</time></trkpt><trkpt lat="40.7016508" lon="15.2473821"><ele>160.0</ele><time>2026-04-25T13:55:02.45Z</time></trkpt><trkpt lat="40.7017451" lon="15.2472153"><ele>159.33333333333334</ele><time>2026-04-25T13:55:03.448Z</time></trkpt><trkpt lat="40.7018471" lon="15.2470593"><ele>158.66666666666666</ele><time>2026-04-25T13:55:04.455Z</time></trkpt><trkpt lat="40.7019576" lon="15.2469087"><ele>158.0</ele><time>2026-04-25T13:55:05.442Z</time></trkpt><trkpt lat="40.70208" lon="15.2467629"><ele>158.0</ele><time>2026-04-25T13:55:06.449Z</time></trkpt><trkpt lat="40.7022126" lon="15.2466186"><ele>158.0</ele><time>2026-04-25T13:55:07.457Z</time></trkpt><trkpt lat="40.7023486" lon="15.2464762"><ele>158.0</ele><time>2026-04-25T13:55:08.448Z</time></trkpt><trkpt lat="40.7024885" lon="15.2463473"><ele>159.33333333333331</ele><time>2026-04-25T13:55:09.445Z</time></trkpt><trkpt lat="40.702635" lon="15.2462439"><ele>160.66666666666666</ele><time>2026-04-25T13:55:10.448Z</time></trkpt><trkpt lat="40.702789" lon="15.2461797"><ele>162.0</ele><time>2026-04-25T13:55:11.449Z</time></trkpt><trkpt lat="40.7029451" lon="15.2461478"><ele>162.0</ele><time>2026-04-25T13:55:12.455Z</time></trkpt><trkpt lat="40.7030994" lon="15.2461272"><ele>162.0</ele><time>2026-04-25T13:55:13.447Z</time></trkpt><trkpt lat="40.7032486" lon="15.2460851"><ele>162.0</ele><time>2026-04-25T13:55:14.454Z</time></trkpt><trkpt lat="40.7033921" lon="15.2460094"><ele>162.0</ele><time>2026-04-25T13:55:15.449Z</time></trkpt><trkpt lat="40.7035283" lon="15.2459045"><ele>162.0</ele><time>2026-04-25T13:55:16.447Z</time></trkpt><trkpt lat="40.7036634" lon="15.2457892"><ele>162.0</ele><time>2026-04-25T13:55:17.446Z</time></trkpt><trkpt lat="40.7038012" lon="15.2456718"><ele>164.0</ele><time>2026-04-25T13:55:18.449Z</time></trkpt><trkpt lat="40.7039403" lon="15.245553"><ele>166.0</ele><time>2026-04-25T13:55:19.453Z</time></trkpt><trkpt lat="40.7040795" lon="15.2454328"><ele>168.0</ele><time>2026-04-25T13:55:20.454Z</time></trkpt><trkpt lat="40.7042175" lon="15.2453105"><ele>168.0</ele><time>2026-04-25T13:55:21.457Z</time></trkpt><trkpt lat="40.7043456" lon="15.2451723"><ele>168.0</ele><time>2026-04-25T13:55:22.45Z</time></trkpt><trkpt lat="40.7044552" lon="15.2450093"><ele>168.0</ele><time>2026-04-25T13:55:23.447Z</time></trkpt><trkpt lat="40.7045467" lon="15.2448276"><ele>168.0</ele><time>2026-04-25T13:55:24.45Z</time></trkpt><trkpt lat="40.7046407" lon="15.2446484"><ele>168.0</ele><time>2026-04-25T13:55:25.457Z</time></trkpt><trkpt lat="40.704738" lon="15.2444665"><ele>168.0</ele><time>2026-04-25T13:55:26.456Z</time></trkpt><trkpt lat="40.7048463" lon="15.2443052"><ele>168.0</ele><time>2026-04-25T13:55:27.446Z</time></trkpt><trkpt lat="40.704973" lon="15.2441699"><ele>168.0</ele><time>2026-04-25T13:55:28.453Z</time></trkpt><trkpt lat="40.7051111" lon="15.2440587"><ele>168.0</ele><time>2026-04-25T13:55:29.45Z</time></trkpt><trkpt lat="40.7052644" lon="15.2439765"><ele>169.0</ele><time>2026-04-25T13:55:30.457Z</time></trkpt><trkpt lat="40.7054304" lon="15.2439166"><ele>170.0</ele><time>2026-04-25T13:55:31.445Z</time></trkpt><trkpt lat="40.7056057" lon="15.2438643"><ele>171.0</ele><time>2026-04-25T13:55:32.458Z</time></trkpt><trkpt lat="40.7057908" lon="15.243807"><ele>171.0</ele><time>2026-04-25T13:55:33.457Z</time></trkpt><trkpt lat="40.7059772" lon="15.243742"><ele>171.0</ele><time>2026-04-25T13:55:34.455Z</time></trkpt><trkpt lat="40.7061665" lon="15.2436734"><ele>171.0</ele><time>2026-04-25T13:55:35.455Z</time></trkpt><trkpt lat="40.7063575" lon="15.2435974"><ele>169.66666666666666</ele><time>2026-04-25T13:55:36.46Z</time></trkpt><trkpt lat="40.7065523" lon="15.2435137"><ele>168.33333333333331</ele><time>2026-04-25T13:55:37.461Z</time></trkpt><trkpt lat="40.7067497" lon="15.2434196"><ele>167.0</ele><time>2026-04-25T13:55:38.46Z</time></trkpt><trkpt lat="40.7069513" lon="15.2433196"><ele>166.33333333333331</ele><time>2026-04-25T13:55:39.448Z</time></trkpt><trkpt lat="40.707159" lon="15.2432195"><ele>165.66666666666666</ele><time>2026-04-25T13:55:40.456Z</time></trkpt><trkpt lat="40.7073724" lon="15.2431158"><ele>165.0</ele><time>2026-04-25T13:55:41.441Z</time></trkpt><trkpt lat="40.7075947" lon="15.2430076"><ele>167.5</ele><time>2026-04-25T13:55:42.457Z</time></trkpt><trkpt lat="40.7078199" lon="15.2428969"><ele>170.0</ele><time>2026-04-25T13:55:43.448Z</time></trkpt><trkpt lat="40.7080421" lon="15.2427901"><ele>170.0</ele><time>2026-04-25T13:55:44.452Z</time></trkpt><trkpt lat="40.7082565" lon="15.2426906"><ele>170.0</ele><time>2026-04-25T13:55:45.449Z</time></trkpt><trkpt lat="40.7084622" lon="15.2425963"><ele>170.0</ele><time>2026-04-25T13:55:46.45Z</time></trkpt><trkpt lat="40.7086603" lon="15.2425043"><ele>169.33333333333331</ele><time>2026-04-25T13:55:47.45Z</time></trkpt><trkpt lat="40.7088504" lon="15.2424146"><ele>168.66666666666666</ele><time>2026-04-25T13:55:48.457Z</time></trkpt><trkpt lat="40.7090333" lon="15.2423292"><ele>168.0</ele><time>2026-04-25T13:55:49.451Z</time></trkpt><trkpt lat="40.709205" lon="15.2422451"><ele>168.33333333333334</ele><time>2026-04-25T13:55:50.444Z</time></trkpt><trkpt lat="40.7093604" lon="15.2421416"><ele>168.66666666666669</ele><time>2026-04-25T13:55:51.445Z</time></trkpt><trkpt lat="40.7094964" lon="15.2420001"><ele>169.0</ele><time>2026-04-25T13:55:52.451Z</time></trkpt><trkpt lat="40.7096066" lon="15.2418269"><ele>169.0</ele><time>2026-04-25T13:55:53.448Z</time></trkpt><trkpt lat="40.7097037" lon="15.2416494"><ele>169.0</ele><time>2026-04-25T13:55:54.451Z</time></trkpt><trkpt lat="40.7098086" lon="15.2415116"><ele>169.0</ele><time>2026-04-25T13:55:55.45Z</time></trkpt><trkpt lat="40.7099293" lon="15.2414267"><ele>170.66666666666669</ele><time>2026-04-25T13:55:56.446Z</time></trkpt><trkpt lat="40.7100699" lon="15.2413807"><ele>172.33333333333334</ele><time>2026-04-25T13:55:57.455Z</time></trkpt><trkpt lat="40.7102302" lon="15.2413475"><ele>174.0</ele><time>2026-04-25T13:55:58.447Z</time></trkpt><trkpt lat="40.7104087" lon="15.2413069"><ele>174.0</ele><time>2026-04-25T13:55:59.446Z</time></trkpt><trkpt lat="40.7106027" lon="15.2412539"><ele>174.0</ele><time>2026-04-25T13:56:00.447Z</time></trkpt><trkpt lat="40.7108017" lon="15.2412001"><ele>174.0</ele><time>2026-04-25T13:56:01.452Z</time></trkpt><trkpt lat="40.7109997" lon="15.2411437"><ele>172.66666666666666</ele><time>2026-04-25T13:56:02.45Z</time></trkpt><trkpt lat="40.7111947" lon="15.2410784"><ele>171.33333333333331</ele><time>2026-04-25T13:56:03.451Z</time></trkpt><trkpt lat="40.7113848" lon="15.241007"><ele>170.0</ele><time>2026-04-25T13:56:04.45Z</time></trkpt><trkpt lat="40.7115714" lon="15.2409529"><ele>170.0</ele><time>2026-04-25T13:56:05.455Z</time></trkpt><trkpt lat="40.7117516" lon="15.2409174"><ele>170.0</ele><time>2026-04-25T13:56:06.452Z</time></trkpt><trkpt lat="40.711915" lon="15.2408758"><ele>170.0</ele><time>2026-04-25T13:56:07.453Z</time></trkpt><trkpt lat="40.7120502" lon="15.2408042"><ele>170.0</ele><time>2026-04-25T13:56:08.445Z</time></trkpt><trkpt lat="40.7121512" lon="15.2406895"><ele>170.0</ele><time>2026-04-25T13:56:09.455Z</time></trkpt><trkpt lat="40.7122187" lon="15.2405326"><ele>170.0</ele><time>2026-04-25T13:56:10.453Z</time></trkpt><trkpt lat="40.7122591" lon="15.2403508"><ele>170.0</ele><time>2026-04-25T13:56:11.464Z</time></trkpt><trkpt lat="40.7122949" lon="15.2401696"><ele>170.0</ele><time>2026-04-25T13:56:12.445Z</time></trkpt><trkpt lat="40.7123462" lon="15.2400105"><ele>170.0</ele><time>2026-04-25T13:56:13.45Z</time></trkpt><trkpt lat="40.7124228" lon="15.2398921"><ele>170.0</ele><time>2026-04-25T13:56:14.443Z</time></trkpt><trkpt lat="40.7125217" lon="15.2398156"><ele>170.0</ele><time>2026-04-25T13:56:15.464Z</time></trkpt><trkpt lat="40.7126407" lon="15.2397712"><ele>170.0</ele><time>2026-04-25T13:56:16.464Z</time></trkpt><trkpt lat="40.7127712" lon="15.239752"><ele>170.0</ele><time>2026-04-25T13:56:17.456Z</time></trkpt><trkpt lat="40.7129058" lon="15.2397652"><ele>170.0</ele><time>2026-04-25T13:56:18.459Z</time></trkpt><trkpt lat="40.7130394" lon="15.2398206"><ele>170.0</ele><time>2026-04-25T13:56:19.46Z</time></trkpt><trkpt lat="40.7131703" lon="15.2399165"><ele>170.0</ele><time>2026-04-25T13:56:20.451Z</time></trkpt><trkpt lat="40.7132978" lon="15.2400485"><ele>170.0</ele><time>2026-04-25T13:56:21.452Z</time></trkpt><trkpt lat="40.7134254" lon="15.2402018"><ele>170.0</ele><time>2026-04-25T13:56:22.45Z</time></trkpt><trkpt lat="40.713567" lon="15.2403574"><ele>169.33333333333331</ele><time>2026-04-25T13:56:23.459Z</time></trkpt><trkpt lat="40.7137257" lon="15.2404954"><ele>168.66666666666666</ele><time>2026-04-25T13:56:24.454Z</time></trkpt><trkpt lat="40.7138989" lon="15.2406051"><ele>168.0</ele><time>2026-04-25T13:56:25.466Z</time></trkpt><trkpt lat="40.7140835" lon="15.240675"><ele>168.0</ele><time>2026-04-25T13:56:26.451Z</time></trkpt><trkpt lat="40.7142658" lon="15.2406913"><ele>168.0</ele><time>2026-04-25T13:56:27.458Z</time></trkpt><trkpt lat="40.7144381" lon="15.2406613"><ele>168.0</ele><time>2026-04-25T13:56:28.449Z</time></trkpt><trkpt lat="40.7146087" lon="15.2406035"><ele>168.66666666666666</ele><time>2026-04-25T13:56:29.466Z</time></trkpt><trkpt lat="40.7147827" lon="15.2405387"><ele>169.33333333333331</ele><time>2026-04-25T13:56:30.448Z</time></trkpt><trkpt lat="40.7149632" lon="15.2404707"><ele>170.0</ele><time>2026-04-25T13:56:31.457Z</time></trkpt><trkpt lat="40.7151501" lon="15.2403998"><ele>170.0</ele><time>2026-04-25T13:56:32.455Z</time></trkpt><trkpt lat="40.715348" lon="15.2403216"><ele>170.0</ele><time>2026-04-25T13:56:33.456Z</time></trkpt><trkpt lat="40.7155606" lon="15.2402359"><ele>170.0</ele><time>2026-04-25T13:56:34.452Z</time></trkpt><trkpt lat="40.7157823" lon="15.2401487"><ele>170.0</ele><time>2026-04-25T13:56:35.455Z</time></trkpt><trkpt lat="40.7160062" lon="15.24006"><ele>170.0</ele><time>2026-04-25T13:56:36.453Z</time></trkpt><trkpt lat="40.7162309" lon="15.2399728"><ele>170.0</ele><time>2026-04-25T13:56:37.454Z</time></trkpt><trkpt lat="40.7164561" lon="15.2398866"><ele>170.0</ele><time>2026-04-25T13:56:38.448Z</time></trkpt><trkpt lat="40.7166813" lon="15.2398"><ele>171.0</ele><time>2026-04-25T13:56:39.462Z</time></trkpt><trkpt lat="40.7169069" lon="15.2397131"><ele>172.0</ele><time>2026-04-25T13:56:40.443Z</time></trkpt><trkpt lat="40.7171301" lon="15.2396273"><ele>172.0</ele><time>2026-04-25T13:56:41.461Z</time></trkpt><trkpt lat="40.7173512" lon="15.239544"><ele>172.0</ele><time>2026-04-25T13:56:42.444Z</time></trkpt><trkpt lat="40.7175683" lon="15.239462"><ele>173.0</ele><time>2026-04-25T13:56:43.45Z</time></trkpt><trkpt lat="40.7177803" lon="15.2393814"><ele>174.0</ele><time>2026-04-25T13:56:44.452Z</time></trkpt><trkpt lat="40.717989" lon="15.2393022"><ele>175.0</ele><time>2026-04-25T13:56:45.45Z</time></trkpt><trkpt lat="40.718199" lon="15.2392229"><ele>175.0</ele><time>2026-04-25T13:56:46.452Z</time></trkpt><trkpt lat="40.7184106" lon="15.2391441"><ele>175.0</ele><time>2026-04-25T13:56:47.452Z</time></trkpt><trkpt lat="40.7186225" lon="15.2390658"><ele>175.0</ele><time>2026-04-25T13:56:48.442Z</time></trkpt><trkpt lat="40.7188358" lon="15.2389866"><ele>176.33333333333334</ele><time>2026-04-25T13:56:49.448Z</time></trkpt><trkpt lat="40.7190495" lon="15.2389066"><ele>177.66666666666666</ele><time>2026-04-25T13:56:50.452Z</time></trkpt><trkpt lat="40.7192639" lon="15.2388265"><ele>179.0</ele><time>2026-04-25T13:56:51.458Z</time></trkpt><trkpt lat="40.719479" lon="15.238745"><ele>179.33333333333331</ele><time>2026-04-25T13:56:52.447Z</time></trkpt><trkpt lat="40.7196945" lon="15.2386633"><ele>179.66666666666666</ele><time>2026-04-25T13:56:53.453Z</time></trkpt><trkpt lat="40.7199101" lon="15.2385798"><ele>180.0</ele><time>2026-04-25T13:56:54.441Z</time></trkpt><trkpt lat="40.7201248" lon="15.2384953"><ele>180.66666666666666</ele><time>2026-04-25T13:56:55.449Z</time></trkpt><trkpt lat="40.7203383" lon="15.2384106"><ele>181.33333333333331</ele><time>2026-04-25T13:56:56.451Z</time></trkpt><trkpt lat="40.7205498" lon="15.2383267"><ele>182.0</ele><time>2026-04-25T13:56:57.451Z</time></trkpt><trkpt lat="40.7207594" lon="15.2382453"><ele>182.0</ele><time>2026-04-25T13:56:58.453Z</time></trkpt><trkpt lat="40.7209681" lon="15.2381666"><ele>182.0</ele><time>2026-04-25T13:56:59.452Z</time></trkpt><trkpt lat="40.7211775" lon="15.2380919"><ele>182.0</ele><time>2026-04-25T13:57:00.447Z</time></trkpt><trkpt lat="40.7213861" lon="15.2380249"><ele>183.0</ele><time>2026-04-25T13:57:01.452Z</time></trkpt><trkpt lat="40.7215926" lon="15.2379731"><ele>184.0</ele><time>2026-04-25T13:57:02.453Z</time></trkpt><trkpt lat="40.7217991" lon="15.2379401"><ele>185.0</ele><time>2026-04-25T13:57:03.448Z</time></trkpt><trkpt lat="40.7220046" lon="15.2379191"><ele>186.66666666666666</ele><time>2026-04-25T13:57:04.452Z</time></trkpt><trkpt lat="40.7222096" lon="15.2378988"><ele>188.33333333333334</ele><time>2026-04-25T13:57:05.458Z</time></trkpt><trkpt lat="40.7224102" lon="15.2378735"><ele>190.0</ele><time>2026-04-25T13:57:06.455Z</time></trkpt><trkpt lat="40.7226022" lon="15.2378388"><ele>189.66666666666669</ele><time>2026-04-25T13:57:07.445Z</time></trkpt><trkpt lat="40.722785" lon="15.2377887"><ele>189.33333333333334</ele><time>2026-04-25T13:57:08.448Z</time></trkpt><trkpt lat="40.7229631" lon="15.2377181"><ele>189.0</ele><time>2026-04-25T13:57:09.444Z</time></trkpt><trkpt lat="40.723145" lon="15.2376192"><ele>189.0</ele><time>2026-04-25T13:57:10.445Z</time></trkpt><trkpt lat="40.7233353" lon="15.2374868"><ele>189.0</ele><time>2026-04-25T13:57:11.458Z</time></trkpt><trkpt lat="40.7235251" lon="15.2373363"><ele>189.0</ele><time>2026-04-25T13:57:12.455Z</time></trkpt><trkpt lat="40.7237126" lon="15.2372021"><ele>190.66666666666669</ele><time>2026-04-25T13:57:13.45Z</time></trkpt><trkpt lat="40.7238942" lon="15.2370932"><ele>192.33333333333334</ele><time>2026-04-25T13:57:14.451Z</time></trkpt><trkpt lat="40.7240639" lon="15.2369823"><ele>194.0</ele><time>2026-04-25T13:57:15.452Z</time></trkpt><trkpt lat="40.7242239" lon="15.2368496"><ele>194.0</ele><time>2026-04-25T13:57:16.439Z</time></trkpt><trkpt lat="40.724374" lon="15.2366896"><ele>194.0</ele><time>2026-04-25T13:57:17.446Z</time></trkpt><trkpt lat="40.7245287" lon="15.2365371"><ele>194.0</ele><time>2026-04-25T13:57:18.448Z</time></trkpt><trkpt lat="40.7246763" lon="15.2363521"><ele>195.66666666666669</ele><time>2026-04-25T13:57:19.451Z</time></trkpt><trkpt lat="40.7248255" lon="15.2361785"><ele>197.33333333333331</ele><time>2026-04-25T13:57:20.45Z</time></trkpt><trkpt lat="40.7249715" lon="15.2360122"><ele>199.0</ele><time>2026-04-25T13:57:21.446Z</time></trkpt><trkpt lat="40.7251101" lon="15.2358466"><ele>199.33333333333331</ele><time>2026-04-25T13:57:22.448Z</time></trkpt><trkpt lat="40.7252397" lon="15.2356756"><ele>199.66666666666669</ele><time>2026-04-25T13:57:23.456Z</time></trkpt><trkpt lat="40.7253561" lon="15.2354912"><ele>200.0</ele><time>2026-04-25T13:57:24.445Z</time></trkpt><trkpt lat="40.7254517" lon="15.2352915"><ele>200.0</ele><time>2026-04-25T13:57:25.444Z</time></trkpt><trkpt lat="40.7255313" lon="15.2350751"><ele>200.0</ele><time>2026-04-25T13:57:26.459Z</time></trkpt><trkpt lat="40.7255956" lon="15.2348445"><ele>200.0</ele><time>2026-04-25T13:57:27.461Z</time></trkpt><trkpt lat="40.7256478" lon="15.2345938"><ele>201.0</ele><time>2026-04-25T13:57:28.458Z</time></trkpt><trkpt lat="40.7256902" lon="15.2343249"><ele>202.0</ele><time>2026-04-25T13:57:29.461Z</time></trkpt><trkpt lat="40.7257302" lon="15.2340509"><ele>203.0</ele><time>2026-04-25T13:57:30.451Z</time></trkpt><trkpt lat="40.7257754" lon="15.233781"><ele>204.66666666666669</ele><time>2026-04-25T13:57:31.447Z</time></trkpt><trkpt lat="40.7258262" lon="15.2335156"><ele>206.33333333333331</ele><time>2026-04-25T13:57:32.461Z</time></trkpt><trkpt lat="40.7258801" lon="15.233254"><ele>208.0</ele><time>2026-04-25T13:57:33.455Z</time></trkpt><trkpt lat="40.725939" lon="15.2329952"><ele>208.0</ele><time>2026-04-25T13:57:34.457Z</time></trkpt><trkpt lat="40.7260074" lon="15.2327419"><ele>208.0</ele><time>2026-04-25T13:57:35.454Z</time></trkpt><trkpt lat="40.7260867" lon="15.2324949"><ele>208.0</ele><time>2026-04-25T13:57:36.446Z</time></trkpt><trkpt lat="40.7261689" lon="15.2322565"><ele>208.0</ele><time>2026-04-25T13:57:37.446Z</time></trkpt><trkpt lat="40.7262499" lon="15.2320259"><ele>208.0</ele><time>2026-04-25T13:57:38.456Z</time></trkpt><trkpt lat="40.7263247" lon="15.231805"><ele>208.0</ele><time>2026-04-25T13:57:39.449Z</time></trkpt><trkpt lat="40.7263942" lon="15.2315951"><ele>209.5</ele><time>2026-04-25T13:57:40.45Z</time></trkpt><trkpt lat="40.726457" lon="15.2314017"><ele>211.0</ele><time>2026-04-25T13:57:41.466Z</time></trkpt><trkpt lat="40.7265134" lon="15.2312236"><ele>212.5</ele><time>2026-04-25T13:57:42.45Z</time></trkpt><trkpt lat="40.7265657" lon="15.2310608"><ele>214.0</ele><time>2026-04-25T13:57:43.447Z</time></trkpt><trkpt lat="40.7266138" lon="15.2309194"><ele>213.99999999999997</ele><time>2026-04-25T13:57:44.462Z</time></trkpt><trkpt lat="40.7266603" lon="15.2307988"><ele>214.0</ele><time>2026-04-25T13:57:45.452Z</time></trkpt><trkpt lat="40.7267135" lon="15.2307038"><ele>214.0</ele><time>2026-04-25T13:57:46.447Z</time></trkpt><trkpt lat="40.7267764" lon="15.2306385"><ele>214.0</ele><time>2026-04-25T13:57:47.45Z</time></trkpt><trkpt lat="40.7268474" lon="15.2306121"><ele>213.99999999999997</ele><time>2026-04-25T13:57:48.448Z</time></trkpt><trkpt lat="40.7269156" lon="15.2306086"><ele>214.0</ele><time>2026-04-25T13:57:49.445Z</time></trkpt><trkpt lat="40.7269934" lon="15.2306628"><ele>215.0</ele><time>2026-04-25T13:57:50.446Z</time></trkpt><trkpt lat="40.7270748" lon="15.2307512"><ele>216.0</ele><time>2026-04-25T13:57:51.461Z</time></trkpt><trkpt lat="40.7271695" lon="15.230853"><ele>217.0</ele><time>2026-04-25T13:57:52.452Z</time></trkpt><trkpt lat="40.7272743" lon="15.2309646"><ele>218.0</ele><time>2026-04-25T13:57:53.446Z</time></trkpt><trkpt lat="40.7273841" lon="15.231094"><ele>218.0</ele><time>2026-04-25T13:57:54.446Z</time></trkpt><trkpt lat="40.7274953" lon="15.2312481"><ele>218.0</ele><time>2026-04-25T13:57:55.456Z</time></trkpt><trkpt lat="40.7276091" lon="15.2314217"><ele>218.0</ele><time>2026-04-25T13:57:56.455Z</time></trkpt><trkpt lat="40.7277274" lon="15.2316048"><ele>219.66666666666669</ele><time>2026-04-25T13:57:57.456Z</time></trkpt><trkpt lat="40.7278507" lon="15.2317888"><ele>221.33333333333331</ele><time>2026-04-25T13:57:58.447Z</time></trkpt><trkpt lat="40.727981" lon="15.2319725"><ele>223.0</ele><time>2026-04-25T13:57:59.457Z</time></trkpt><trkpt lat="40.7281178" lon="15.2321579"><ele>220.66666666666666</ele><time>2026-04-25T13:58:00.447Z</time></trkpt><trkpt lat="40.7282589" lon="15.2323271"><ele>218.33333333333331</ele><time>2026-04-25T13:58:01.446Z</time></trkpt><trkpt lat="40.728396" lon="15.2324881"><ele>216.0</ele><time>2026-04-25T13:58:02.449Z</time></trkpt><trkpt lat="40.7285225" lon="15.2326421"><ele>218.0</ele><time>2026-04-25T13:58:03.451Z</time></trkpt><trkpt lat="40.7286346" lon="15.2327817"><ele>220.0</ele><time>2026-04-25T13:58:04.446Z</time></trkpt><trkpt lat="40.7287354" lon="15.2329015"><ele>222.0</ele><time>2026-04-25T13:58:05.457Z</time></trkpt><trkpt lat="40.7288342" lon="15.2329948"><ele>224.0</ele><time>2026-04-25T13:58:06.449Z</time></trkpt><trkpt lat="40.7289465" lon="15.2330619"><ele>224.0</ele><time>2026-04-25T13:58:07.449Z</time></trkpt><trkpt lat="40.7290729" lon="15.2330931"><ele>224.0</ele><time>2026-04-25T13:58:08.445Z</time></trkpt><trkpt lat="40.7292113" lon="15.2331052"><ele>224.0</ele><time>2026-04-25T13:58:09.459Z</time></trkpt><trkpt lat="40.7293552" lon="15.2331225"><ele>224.0</ele><time>2026-04-25T13:58:10.456Z</time></trkpt><trkpt lat="40.7295034" lon="15.2331568"><ele>223.66666666666669</ele><time>2026-04-25T13:58:11.466Z</time></trkpt><trkpt lat="40.7296505" lon="15.2332135"><ele>223.33333333333331</ele><time>2026-04-25T13:58:12.445Z</time></trkpt><trkpt lat="40.7297882" lon="15.2333011"><ele>223.0</ele><time>2026-04-25T13:58:13.459Z</time></trkpt><trkpt lat="40.729908" lon="15.2334133"><ele>223.0</ele><time>2026-04-25T13:58:14.456Z</time></trkpt><trkpt lat="40.7300178" lon="15.2335287"><ele>223.0</ele><time>2026-04-25T13:58:15.463Z</time></trkpt><trkpt lat="40.7301322" lon="15.2336206"><ele>223.0</ele><time>2026-04-25T13:58:16.453Z</time></trkpt><trkpt lat="40.7302568" lon="15.2336717"><ele>223.0</ele><time>2026-04-25T13:58:17.462Z</time></trkpt><trkpt lat="40.7303847" lon="15.2336781"><ele>223.25</ele><time>2026-04-25T13:58:18.456Z</time></trkpt><trkpt lat="40.7305085" lon="15.2336375"><ele>223.5</ele><time>2026-04-25T13:58:19.461Z</time></trkpt><trkpt lat="40.7306333" lon="15.2335586"><ele>223.75</ele><time>2026-04-25T13:58:20.459Z</time></trkpt><trkpt lat="40.7307584" lon="15.2334549"><ele>224.0</ele><time>2026-04-25T13:58:21.459Z</time></trkpt><trkpt lat="40.730891" lon="15.2333464"><ele>224.0</ele><time>2026-04-25T13:58:22.454Z</time></trkpt><trkpt lat="40.7310446" lon="15.2332552"><ele>224.0</ele><time>2026-04-25T13:58:23.453Z</time></trkpt><trkpt lat="40.7312158" lon="15.2331755"><ele>224.0</ele><time>2026-04-25T13:58:24.453Z</time></trkpt><trkpt lat="40.7313938" lon="15.2330953"><ele>227.0</ele><time>2026-04-25T13:58:25.462Z</time></trkpt><trkpt lat="40.7315715" lon="15.2330146"><ele>230.0</ele><time>2026-04-25T13:58:26.448Z</time></trkpt><trkpt lat="40.7317415" lon="15.2329385"><ele>233.0</ele><time>2026-04-25T13:58:27.458Z</time></trkpt><trkpt lat="40.7318975" lon="15.2328693"><ele>233.25</ele><time>2026-04-25T13:58:28.448Z</time></trkpt><trkpt lat="40.7320345" lon="15.232815"><ele>233.5</ele><time>2026-04-25T13:58:29.459Z</time></trkpt><trkpt lat="40.7321532" lon="15.2327973"><ele>233.75</ele><time>2026-04-25T13:58:30.45Z</time></trkpt><trkpt lat="40.7322614" lon="15.2328247"><ele>234.0</ele><time>2026-04-25T13:58:31.457Z</time></trkpt><trkpt lat="40.7323648" lon="15.2328795"><ele>234.0</ele><time>2026-04-25T13:58:32.447Z</time></trkpt><trkpt lat="40.7324694" lon="15.2329273"><ele>233.99999999999997</ele><time>2026-04-25T13:58:33.452Z</time></trkpt><trkpt lat="40.7325795" lon="15.2329419"><ele>233.99999999999997</ele><time>2026-04-25T13:58:34.449Z</time></trkpt><trkpt lat="40.7326872" lon="15.2329126"><ele>234.0</ele><time>2026-04-25T13:58:35.456Z</time></trkpt><trkpt lat="40.7327904" lon="15.2328433"><ele>234.0</ele><time>2026-04-25T13:58:36.446Z</time></trkpt><trkpt lat="40.7328965" lon="15.2327647"><ele>234.6</ele><time>2026-04-25T13:58:37.459Z</time></trkpt><trkpt lat="40.7330072" lon="15.2327073"><ele>235.2</ele><time>2026-04-25T13:58:38.453Z</time></trkpt><trkpt lat="40.733114" lon="15.2326912"><ele>235.79999999999998</ele><time>2026-04-25T13:58:39.457Z</time></trkpt><trkpt lat="40.733213" lon="15.2326945"><ele>236.39999999999998</ele><time>2026-04-25T13:58:40.444Z</time></trkpt><trkpt lat="40.7332952" lon="15.2327627"><ele>237.0</ele><time>2026-04-25T13:58:41.448Z</time></trkpt><trkpt lat="40.7333644" lon="15.2328619"><ele>237.0</ele><time>2026-04-25T13:58:42.453Z</time></trkpt><trkpt lat="40.7334355" lon="15.2329677"><ele>237.0</ele><time>2026-04-25T13:58:43.459Z</time></trkpt><trkpt lat="40.7335127" lon="15.2330735"><ele>237.0</ele><time>2026-04-25T13:58:44.464Z</time></trkpt><trkpt lat="40.7336022" lon="15.2331567"><ele>237.0</ele><time>2026-04-25T13:58:45.463Z</time></trkpt><trkpt lat="40.7337006" lon="15.2332052"><ele>237.0</ele><time>2026-04-25T13:58:46.449Z</time></trkpt><trkpt lat="40.7338112" lon="15.2332168"><ele>236.0</ele><time>2026-04-25T13:58:47.447Z</time></trkpt><trkpt lat="40.7339311" lon="15.2332099"><ele>235.0</ele><time>2026-04-25T13:58:48.446Z</time></trkpt><trkpt lat="40.7340687" lon="15.2331995"><ele>234.0</ele><time>2026-04-25T13:58:49.455Z</time></trkpt><trkpt lat="40.7342203" lon="15.2332"><ele>233.0</ele><time>2026-04-25T13:58:50.45Z</time></trkpt><trkpt lat="40.734379" lon="15.233218"><ele>233.0</ele><time>2026-04-25T13:58:51.448Z</time></trkpt><trkpt lat="40.7345359" lon="15.2332479"><ele>233.0</ele><time>2026-04-25T13:58:52.453Z</time></trkpt><trkpt lat="40.7346874" lon="15.2332803"><ele>233.0</ele><time>2026-04-25T13:58:53.457Z</time></trkpt><trkpt lat="40.7348343" lon="15.2333037"><ele>233.0</ele><time>2026-04-25T13:58:54.447Z</time></trkpt><trkpt lat="40.7349778" lon="15.2333051"><ele>233.0</ele><time>2026-04-25T13:58:55.479Z</time></trkpt><trkpt lat="40.7351209" lon="15.2332732"><ele>233.0</ele><time>2026-04-25T13:58:56.454Z</time></trkpt><trkpt lat="40.7352603" lon="15.2332104"><ele>233.0</ele><time>2026-04-25T13:58:57.455Z</time></trkpt><trkpt lat="40.7353969" lon="15.2331292"><ele>235.66666666666669</ele><time>2026-04-25T13:58:58.445Z</time></trkpt><trkpt lat="40.7355324" lon="15.2330394"><ele>238.33333333333331</ele><time>2026-04-25T13:58:59.452Z</time></trkpt><trkpt lat="40.7356686" lon="15.2329531"><ele>241.0</ele><time>2026-04-25T13:59:00.45Z</time></trkpt><trkpt lat="40.7358066" lon="15.2328773"><ele>241.0</ele><time>2026-04-25T13:59:01.453Z</time></trkpt><trkpt lat="40.7359511" lon="15.2328028"><ele>241.0</ele><time>2026-04-25T13:59:02.46Z</time></trkpt><trkpt lat="40.7361026" lon="15.2327262"><ele>241.0</ele><time>2026-04-25T13:59:03.449Z</time></trkpt><trkpt lat="40.7362602" lon="15.232653"><ele>240.0</ele><time>2026-04-25T13:59:04.446Z</time></trkpt><trkpt lat="40.7364193" lon="15.2325869"><ele>239.0</ele><time>2026-04-25T13:59:05.454Z</time></trkpt><trkpt lat="40.7365775" lon="15.2325265"><ele>238.0</ele><time>2026-04-25T13:59:06.452Z</time></trkpt><trkpt lat="40.7367346" lon="15.2324651"><ele>238.0</ele><time>2026-04-25T13:59:07.45Z</time></trkpt><trkpt lat="40.7368902" lon="15.2324041"><ele>238.0</ele><time>2026-04-25T13:59:08.445Z</time></trkpt><trkpt lat="40.7370482" lon="15.2323524"><ele>238.0</ele><time>2026-04-25T13:59:09.443Z</time></trkpt><trkpt lat="40.7372125" lon="15.2323162"><ele>241.66666666666666</ele><time>2026-04-25T13:59:10.449Z</time></trkpt><trkpt lat="40.737381" lon="15.2322877"><ele>245.33333333333331</ele><time>2026-04-25T13:59:11.455Z</time></trkpt><trkpt lat="40.7375538" lon="15.2322573"><ele>249.0</ele><time>2026-04-25T13:59:12.452Z</time></trkpt><trkpt lat="40.7377283" lon="15.2322235"><ele>249.0</ele><time>2026-04-25T13:59:13.451Z</time></trkpt><trkpt lat="40.7378987" lon="15.2321896"><ele>249.0</ele><time>2026-04-25T13:59:14.452Z</time></trkpt><trkpt lat="40.7380611" lon="15.2321649"><ele>249.0</ele><time>2026-04-25T13:59:15.461Z</time></trkpt><trkpt lat="40.7382171" lon="15.232158"><ele>249.0</ele><time>2026-04-25T13:59:16.453Z</time></trkpt><trkpt lat="40.7383687" lon="15.2321699"><ele>249.0</ele><time>2026-04-25T13:59:17.446Z</time></trkpt><trkpt lat="40.7385138" lon="15.2321904"><ele>249.0</ele><time>2026-04-25T13:59:18.45Z</time></trkpt><trkpt lat="40.7386496" lon="15.2321937"><ele>249.0</ele><time>2026-04-25T13:59:19.451Z</time></trkpt><trkpt lat="40.7387759" lon="15.2321672"><ele>248.5</ele><time>2026-04-25T13:59:20.45Z</time></trkpt><trkpt lat="40.7388901" lon="15.2321061"><ele>248.0</ele><time>2026-04-25T13:59:21.448Z</time></trkpt><trkpt lat="40.7389907" lon="15.2320116"><ele>247.5</ele><time>2026-04-25T13:59:22.449Z</time></trkpt><trkpt lat="40.7390891" lon="15.2318988"><ele>247.0</ele><time>2026-04-25T13:59:23.458Z</time></trkpt><trkpt lat="40.7391683" lon="15.2317655"><ele>247.0</ele><time>2026-04-25T13:59:24.469Z</time></trkpt><trkpt lat="40.7392526" lon="15.2316573"><ele>247.0</ele><time>2026-04-25T13:59:25.469Z</time></trkpt><trkpt lat="40.739345" lon="15.231588"><ele>247.0</ele><time>2026-04-25T13:59:26.447Z</time></trkpt><trkpt lat="40.7394389" lon="15.2315405"><ele>247.0</ele><time>2026-04-25T13:59:27.458Z</time></trkpt><trkpt lat="40.7395283" lon="15.2315022"><ele>247.0</ele><time>2026-04-25T13:59:28.45Z</time></trkpt><trkpt lat="40.7396121" lon="15.2314657"><ele>248.0</ele><time>2026-04-25T13:59:29.45Z</time></trkpt><trkpt lat="40.7396997" lon="15.2314264"><ele>249.0</ele><time>2026-04-25T13:59:30.458Z</time></trkpt><trkpt lat="40.73979" lon="15.2313817"><ele>250.0</ele><time>2026-04-25T13:59:31.457Z</time></trkpt><trkpt lat="40.7398872" lon="15.2313347"><ele>251.0</ele><time>2026-04-25T13:59:32.456Z</time></trkpt><trkpt lat="40.7399908" lon="15.2312814"><ele>252.0</ele><time>2026-04-25T13:59:33.443Z</time></trkpt><trkpt lat="40.7401019" lon="15.2312246"><ele>252.0</ele><time>2026-04-25T13:59:34.442Z</time></trkpt><trkpt lat="40.7402133" lon="15.2311642"><ele>252.0</ele><time>2026-04-25T13:59:35.467Z</time></trkpt><trkpt lat="40.7403225" lon="15.2311006"><ele>252.0</ele><time>2026-04-25T13:59:36.442Z</time></trkpt><trkpt lat="40.7404247" lon="15.2310383"><ele>252.0</ele><time>2026-04-25T13:59:37.447Z</time></trkpt><trkpt lat="40.7405171" lon="15.2309819"><ele>252.0</ele><time>2026-04-25T13:59:38.449Z</time></trkpt><trkpt lat="40.7405993" lon="15.2309376"><ele>252.0</ele><time>2026-04-25T13:59:39.46Z</time></trkpt><trkpt lat="40.7406811" lon="15.2309117"><ele>252.0</ele><time>2026-04-25T13:59:40.448Z</time></trkpt><trkpt lat="40.7407692" lon="15.2309209"><ele>252.0</ele><time>2026-04-25T13:59:41.453Z</time></trkpt><trkpt lat="40.74086" lon="15.2309674"><ele>252.0</ele><time>2026-04-25T13:59:42.456Z</time></trkpt><trkpt lat="40.7409449" lon="15.2310508"><ele>252.0</ele><time>2026-04-25T13:59:43.45Z</time></trkpt><trkpt lat="40.7410147" lon="15.231165"><ele>252.0</ele><time>2026-04-25T13:59:44.458Z</time></trkpt><trkpt lat="40.741065" lon="15.2313037"><ele>252.0</ele><time>2026-04-25T13:59:45.464Z</time></trkpt><trkpt lat="40.741095" lon="15.2314534"><ele>252.0</ele><time>2026-04-25T13:59:46.457Z</time></trkpt><trkpt lat="40.7411129" lon="15.231601"><ele>252.33333333333334</ele><time>2026-04-25T13:59:47.446Z</time></trkpt><trkpt lat="40.7411346" lon="15.2317303"><ele>252.66666666666669</ele><time>2026-04-25T13:59:48.452Z</time></trkpt><trkpt lat="40.7411738" lon="15.2318343"><ele>253.0</ele><time>2026-04-25T13:59:49.452Z</time></trkpt><trkpt lat="40.7412319" lon="15.2319123"><ele>253.33333333333334</ele><time>2026-04-25T13:59:50.443Z</time></trkpt><trkpt lat="40.7413057" lon="15.231959"><ele>253.66666666666669</ele><time>2026-04-25T13:59:51.447Z</time></trkpt><trkpt lat="40.7413862" lon="15.2319921"><ele>254.0</ele><time>2026-04-25T13:59:52.451Z</time></trkpt><trkpt lat="40.741479" lon="15.2319852"><ele>254.0</ele><time>2026-04-25T13:59:53.46Z</time></trkpt><trkpt lat="40.7415881" lon="15.2319694"><ele>254.0</ele><time>2026-04-25T13:59:54.453Z</time></trkpt><trkpt lat="40.7417017" lon="15.2319522"><ele>254.0</ele><time>2026-04-25T13:59:55.449Z</time></trkpt><trkpt lat="40.741817" lon="15.2319258"><ele>254.0</ele><time>2026-04-25T13:59:56.458Z</time></trkpt><trkpt lat="40.7419362" lon="15.2318925"><ele>254.25</ele><time>2026-04-25T13:59:57.458Z</time></trkpt><trkpt lat="40.7420588" lon="15.2318495"><ele>254.5</ele><time>2026-04-25T13:59:58.455Z</time></trkpt><trkpt lat="40.7421781" lon="15.2318038"><ele>254.75</ele><time>2026-04-25T13:59:59.442Z</time></trkpt><trkpt lat="40.7423018" lon="15.2317646"><ele>255.0</ele><time>2026-04-25T14:00:00.457Z</time></trkpt><trkpt lat="40.7424233" lon="15.2317404"><ele>255.0</ele><time>2026-04-25T14:00:01.458Z</time></trkpt><trkpt lat="40.7425465" lon="15.2317352"><ele>255.0</ele><time>2026-04-25T14:00:02.443Z</time></trkpt><trkpt lat="40.7426704" lon="15.2317525"><ele>255.0</ele><time>2026-04-25T14:00:03.453Z</time></trkpt><trkpt lat="40.7427935" lon="15.2317893"><ele>255.0</ele><time>2026-04-25T14:00:04.451Z</time></trkpt><trkpt lat="40.7429146" lon="15.2318409"><ele>256.25</ele><time>2026-04-25T14:00:05.446Z</time></trkpt><trkpt lat="40.7430336" lon="15.2319059"><ele>257.5</ele><time>2026-04-25T14:00:06.446Z</time></trkpt><trkpt lat="40.743145" lon="15.2319896"><ele>258.75</ele><time>2026-04-25T14:00:07.453Z</time></trkpt><trkpt lat="40.7432435" lon="15.2320963"><ele>260.0</ele><time>2026-04-25T14:00:08.452Z</time></trkpt><trkpt lat="40.7433356" lon="15.2322241"><ele>261.5</ele><time>2026-04-25T14:00:09.445Z</time></trkpt><trkpt lat="40.7434263" lon="15.2323673"><ele>263.0</ele><time>2026-04-25T14:00:10.448Z</time></trkpt><trkpt lat="40.7435195" lon="15.2325159"><ele>264.5</ele><time>2026-04-25T14:00:11.458Z</time></trkpt><trkpt lat="40.7436148" lon="15.232661"><ele>266.0</ele><time>2026-04-25T14:00:12.452Z</time></trkpt><trkpt lat="40.7437096" lon="15.2328026"><ele>266.0</ele><time>2026-04-25T14:00:13.447Z</time></trkpt><trkpt lat="40.7437964" lon="15.2329481"><ele>266.0</ele><time>2026-04-25T14:00:14.454Z</time></trkpt><trkpt lat="40.7438665" lon="15.2331054"><ele>266.0</ele><time>2026-04-25T14:00:15.456Z</time></trkpt><trkpt lat="40.7439165" lon="15.2332712"><ele>266.0</ele><time>2026-04-25T14:00:16.456Z</time></trkpt><trkpt lat="40.7439501" lon="15.2334385"><ele>265.0</ele><time>2026-04-25T14:00:17.458Z</time></trkpt><trkpt lat="40.7439804" lon="15.2335966"><ele>264.0</ele><time>2026-04-25T14:00:18.454Z</time></trkpt><trkpt lat="40.7440116" lon="15.2337407"><ele>263.0</ele><time>2026-04-25T14:00:19.453Z</time></trkpt><trkpt lat="40.7440418" lon="15.2338662"><ele>262.0</ele><time>2026-04-25T14:00:20.445Z</time></trkpt><trkpt lat="40.7440998" lon="15.2339588"><ele>261.0</ele><time>2026-04-25T14:00:21.448Z</time></trkpt><trkpt lat="40.7441605" lon="15.2340284"><ele>260.40000000000003</ele><time>2026-04-25T14:00:22.446Z</time></trkpt><trkpt lat="40.7442298" lon="15.2340937"><ele>259.8</ele><time>2026-04-25T14:00:23.454Z</time></trkpt><trkpt lat="40.7443114" lon="15.2341545"><ele>259.20000000000005</ele><time>2026-04-25T14:00:24.451Z</time></trkpt><trkpt lat="40.7443957" lon="15.2342206"><ele>258.6</ele><time>2026-04-25T14:00:25.458Z</time></trkpt><trkpt lat="40.7444802" lon="15.2342997"><ele>258.0</ele><time>2026-04-25T14:00:26.45Z</time></trkpt><trkpt lat="40.7445604" lon="15.2343921"><ele>259.2</ele><time>2026-04-25T14:00:27.451Z</time></trkpt><trkpt lat="40.744644" lon="15.2344802"><ele>260.4</ele><time>2026-04-25T14:00:28.45Z</time></trkpt><trkpt lat="40.7447194" lon="15.2345903"><ele>261.59999999999997</ele><time>2026-04-25T14:00:29.456Z</time></trkpt><trkpt lat="40.7447787" lon="15.2347187"><ele>262.8</ele><time>2026-04-25T14:00:30.45Z</time></trkpt><trkpt lat="40.7448183" lon="15.2348388"><ele>264.0</ele><time>2026-04-25T14:00:31.447Z</time></trkpt><trkpt lat="40.744836" lon="15.2349484"><ele>264.0</ele><time>2026-04-25T14:00:32.452Z</time></trkpt><trkpt lat="40.7448508" lon="15.2350408"><ele>264.0</ele><time>2026-04-25T14:00:33.453Z</time></trkpt><trkpt lat="40.7448633" lon="15.2351346"><ele>264.0</ele><time>2026-04-25T14:00:34.445Z</time></trkpt><trkpt lat="40.744881" lon="15.2352236"><ele>264.0</ele><time>2026-04-25T14:00:35.45Z</time></trkpt><trkpt lat="40.7448974" lon="15.235313"><ele>264.0</ele><time>2026-04-25T14:00:36.455Z</time></trkpt><trkpt lat="40.7449159" lon="15.2354075"><ele>264.0</ele><time>2026-04-25T14:00:37.447Z</time></trkpt><trkpt lat="40.7449442" lon="15.2354925"><ele>264.0</ele><time>2026-04-25T14:00:38.451Z</time></trkpt><trkpt lat="40.7450097" lon="15.2356246"><ele>263.6666666666667</ele><time>2026-04-25T14:00:40.451Z</time></trkpt><trkpt lat="40.7450616" lon="15.2357115"><ele>263.3333333333333</ele><time>2026-04-25T14:00:42.444Z</time></trkpt><trkpt lat="40.7451098" lon="15.2358325"><ele>263.0</ele><time>2026-04-25T14:05:31.528Z</time></trkpt><trkpt lat="40.745133" lon="15.235724"><ele>262.66666666666663</ele><time>2026-04-25T14:05:38.445Z</time></trkpt><trkpt lat="40.7452067" lon="15.2357289"><ele>262.3333333333333</ele><time>2026-04-25T14:07:35.452Z</time></trkpt><trkpt lat="40.7451379" lon="15.2357587"><ele>262.0</ele><time>2026-04-25T14:12:34.504Z</time></trkpt><trkpt lat="40.7450804" lon="15.2358033"><ele>262.0</ele><time>2026-04-25T14:12:38.455Z</time></trkpt><trkpt lat="40.7451453" lon="15.2358828"><ele>262.0</ele><time>2026-04-25T14:14:35.391Z</time></trkpt><trkpt lat="40.7453636" lon="15.2358693"><ele>262.0</ele><time>2026-04-25T14:14:36.451Z</time></trkpt><trkpt lat="40.7452574" lon="15.2359129"><ele>262.0</ele><time>2026-04-25T14:14:37.448Z</time></trkpt><trkpt lat="40.745431" lon="15.235876"><ele>261.66666666666663</ele><time>2026-04-25T14:14:38.453Z</time></trkpt><trkpt lat="40.7455075" lon="15.2358761"><ele>261.3333333333333</ele><time>2026-04-25T14:14:43.462Z</time></trkpt><trkpt lat="40.7455712" lon="15.2358534"><ele>261.0</ele><time>2026-04-25T14:14:44.453Z</time></trkpt><trkpt lat="40.7456427" lon="15.2358165"><ele>260.6666666666667</ele><time>2026-04-25T14:14:45.453Z</time></trkpt><trkpt lat="40.7457215" lon="15.2357639"><ele>260.33333333333337</ele><time>2026-04-25T14:14:46.453Z</time></trkpt><trkpt lat="40.7458025" lon="15.2356947"><ele>260.0</ele><time>2026-04-25T14:14:47.463Z</time></trkpt><trkpt lat="40.7458824" lon="15.2356132"><ele>259.0</ele><time>2026-04-25T14:14:48.454Z</time></trkpt><trkpt lat="40.7459646" lon="15.2355251"><ele>258.0</ele><time>2026-04-25T14:14:49.45Z</time></trkpt><trkpt lat="40.7460509" lon="15.2354296"><ele>257.0</ele><time>2026-04-25T14:14:50.454Z</time></trkpt><trkpt lat="40.7461423" lon="15.2353283"><ele>256.0</ele><time>2026-04-25T14:14:51.456Z</time></trkpt><trkpt lat="40.7462367" lon="15.2352242"><ele>256.0</ele><time>2026-04-25T14:14:52.451Z</time></trkpt><trkpt lat="40.7463371" lon="15.2351246"><ele>256.0</ele><time>2026-04-25T14:14:53.445Z</time></trkpt><trkpt lat="40.7464428" lon="15.2350313"><ele>256.0</ele><time>2026-04-25T14:14:54.456Z</time></trkpt><trkpt lat="40.7465506" lon="15.2349419"><ele>256.0</ele><time>2026-04-25T14:14:55.465Z</time></trkpt><trkpt lat="40.746661" lon="15.2348545"><ele>255.5</ele><time>2026-04-25T14:14:56.446Z</time></trkpt><trkpt lat="40.7467725" lon="15.2347691"><ele>255.0</ele><time>2026-04-25T14:14:57.46Z</time></trkpt><trkpt lat="40.74688" lon="15.2346849"><ele>254.5</ele><time>2026-04-25T14:14:58.458Z</time></trkpt><trkpt lat="40.7469794" lon="15.2346044"><ele>254.0</ele><time>2026-04-25T14:14:59.442Z</time></trkpt><trkpt lat="40.7470715" lon="15.2345269"><ele>254.0</ele><time>2026-04-25T14:15:00.457Z</time></trkpt><trkpt lat="40.747162" lon="15.2344639"><ele>253.99999999999997</ele><time>2026-04-25T14:15:01.475Z</time></trkpt><trkpt lat="40.7472511" lon="15.2344247"><ele>253.99999999999997</ele><time>2026-04-25T14:15:02.461Z</time></trkpt><trkpt lat="40.7473415" lon="15.2344143"><ele>254.0</ele><time>2026-04-25T14:15:03.456Z</time></trkpt><trkpt lat="40.747437" lon="15.2344235"><ele>254.0</ele><time>2026-04-25T14:15:04.455Z</time></trkpt><trkpt lat="40.7475374" lon="15.2344405"><ele>254.0</ele><time>2026-04-25T14:15:05.475Z</time></trkpt><trkpt lat="40.7476429" lon="15.2344522"><ele>253.99999999999997</ele><time>2026-04-25T14:15:06.459Z</time></trkpt><trkpt lat="40.7477516" lon="15.2344436"><ele>253.99999999999997</ele><time>2026-04-25T14:15:07.445Z</time></trkpt><trkpt lat="40.7478582" lon="15.2344079"><ele>254.0</ele><time>2026-04-25T14:15:08.456Z</time></trkpt><trkpt lat="40.7479552" lon="15.2343431"><ele>254.0</ele><time>2026-04-25T14:15:09.452Z</time></trkpt><trkpt lat="40.7480321" lon="15.2342461"><ele>252.75</ele><time>2026-04-25T14:15:10.445Z</time></trkpt><trkpt lat="40.7480876" lon="15.2341156"><ele>251.5</ele><time>2026-04-25T14:15:11.465Z</time></trkpt><trkpt lat="40.7481262" lon="15.2339566"><ele>250.25</ele><time>2026-04-25T14:15:12.446Z</time></trkpt><trkpt lat="40.7481589" lon="15.2337729"><ele>249.0</ele><time>2026-04-25T14:15:13.45Z</time></trkpt><trkpt lat="40.7481917" lon="15.2335873"><ele>249.0</ele><time>2026-04-25T14:15:14.446Z</time></trkpt><trkpt lat="40.7482237" lon="15.2334103"><ele>248.99999999999997</ele><time>2026-04-25T14:15:15.466Z</time></trkpt><trkpt lat="40.7482568" lon="15.233258"><ele>248.99999999999997</ele><time>2026-04-25T14:15:16.452Z</time></trkpt><trkpt lat="40.7482879" lon="15.2331222"><ele>249.0</ele><time>2026-04-25T14:15:17.449Z</time></trkpt><trkpt lat="40.7483416" lon="15.233038"><ele>249.0</ele><time>2026-04-25T14:15:18.461Z</time></trkpt><trkpt lat="40.7484169" lon="15.2329902"><ele>249.2</ele><time>2026-04-25T14:15:19.455Z</time></trkpt><trkpt lat="40.7485094" lon="15.2329585"><ele>249.39999999999998</ele><time>2026-04-25T14:15:20.461Z</time></trkpt><trkpt lat="40.7486136" lon="15.2329322"><ele>249.6</ele><time>2026-04-25T14:15:21.459Z</time></trkpt><trkpt lat="40.748726" lon="15.232911"><ele>249.8</ele><time>2026-04-25T14:15:22.455Z</time></trkpt><trkpt lat="40.7488403" lon="15.2329023"><ele>250.0</ele><time>2026-04-25T14:15:23.467Z</time></trkpt><trkpt lat="40.748942" lon="15.2329212"><ele>250.6</ele><time>2026-04-25T14:15:24.453Z</time></trkpt><trkpt lat="40.7490292" lon="15.2329759"><ele>251.2</ele><time>2026-04-25T14:15:25.447Z</time></trkpt><trkpt lat="40.7491064" lon="15.2330663"><ele>251.8</ele><time>2026-04-25T14:15:26.453Z</time></trkpt><trkpt lat="40.7491802" lon="15.2331758"><ele>252.4</ele><time>2026-04-25T14:15:27.457Z</time></trkpt><trkpt lat="40.7492561" lon="15.2332982"><ele>253.0</ele><time>2026-04-25T14:15:28.45Z</time></trkpt><trkpt lat="40.7493331" lon="15.2334325"><ele>253.75</ele><time>2026-04-25T14:15:29.455Z</time></trkpt><trkpt lat="40.7494154" lon="15.2335745"><ele>254.5</ele><time>2026-04-25T14:15:30.445Z</time></trkpt><trkpt lat="40.7495091" lon="15.2337175"><ele>255.25</ele><time>2026-04-25T14:15:31.454Z</time></trkpt><trkpt lat="40.7496156" lon="15.2338475"><ele>256.0</ele><time>2026-04-25T14:15:32.453Z</time></trkpt><trkpt lat="40.7497336" lon="15.2339566"><ele>253.0</ele><time>2026-04-25T14:15:33.452Z</time></trkpt><trkpt lat="40.74986" lon="15.2340363"><ele>250.0</ele><time>2026-04-25T14:15:34.453Z</time></trkpt><trkpt lat="40.7499912" lon="15.2340753"><ele>247.0</ele><time>2026-04-25T14:15:35.451Z</time></trkpt><trkpt lat="40.7501242" lon="15.234071"><ele>244.0</ele><time>2026-04-25T14:15:36.454Z</time></trkpt><trkpt lat="40.7502574" lon="15.2340188"><ele>247.5</ele><time>2026-04-25T14:15:37.471Z</time></trkpt><trkpt lat="40.7503859" lon="15.2339291"><ele>251.0</ele><time>2026-04-25T14:15:38.476Z</time></trkpt><trkpt lat="40.7505083" lon="15.2338229"><ele>254.5</ele><time>2026-04-25T14:15:39.46Z</time></trkpt><trkpt lat="40.7506291" lon="15.2337297"><ele>258.0</ele><time>2026-04-25T14:15:40.491Z</time></trkpt><trkpt lat="40.7507522" lon="15.2336766"><ele>258.0</ele><time>2026-04-25T14:15:41.497Z</time></trkpt><trkpt lat="40.7508824" lon="15.2336693"><ele>258.0</ele><time>2026-04-25T14:15:42.452Z</time></trkpt><trkpt lat="40.7510229" lon="15.2337085"><ele>258.0</ele><time>2026-04-25T14:15:43.449Z</time></trkpt><trkpt lat="40.751166" lon="15.2337894"><ele>258.0</ele><time>2026-04-25T14:15:44.449Z</time></trkpt><trkpt lat="40.7513" lon="15.233885"><ele>255.25</ele><time>2026-04-25T14:15:45.491Z</time></trkpt><trkpt lat="40.7514256" lon="15.2339755"><ele>252.5</ele><time>2026-04-25T14:15:46.462Z</time></trkpt><trkpt lat="40.751546" lon="15.234054"><ele>249.75</ele><time>2026-04-25T14:15:47.464Z</time></trkpt><trkpt lat="40.7516661" lon="15.2340968"><ele>247.0</ele><time>2026-04-25T14:15:48.46Z</time></trkpt><trkpt lat="40.751787" lon="15.2340894"><ele>245.75</ele><time>2026-04-25T14:15:49.474Z</time></trkpt><trkpt lat="40.7519079" lon="15.2340324"><ele>244.5</ele><time>2026-04-25T14:15:50.45Z</time></trkpt><trkpt lat="40.7520344" lon="15.233938"><ele>243.25</ele><time>2026-04-25T14:15:51.446Z</time></trkpt><trkpt lat="40.7521732" lon="15.2338437"><ele>242.0</ele><time>2026-04-25T14:15:52.468Z</time></trkpt><trkpt lat="40.7523283" lon="15.2337732"><ele>246.0</ele><time>2026-04-25T14:15:53.47Z</time></trkpt><trkpt lat="40.7524944" lon="15.2337333"><ele>250.0</ele><time>2026-04-25T14:15:54.456Z</time></trkpt><trkpt lat="40.7526684" lon="15.2337242"><ele>254.0</ele><time>2026-04-25T14:15:55.446Z</time></trkpt><trkpt lat="40.752844" lon="15.2337465"><ele>254.0</ele><time>2026-04-25T14:15:56.463Z</time></trkpt><trkpt lat="40.7530175" lon="15.2337865"><ele>254.0</ele><time>2026-04-25T14:15:57.466Z</time></trkpt><trkpt lat="40.7531812" lon="15.2338387"><ele>254.0</ele><time>2026-04-25T14:15:58.458Z</time></trkpt><trkpt lat="40.753339" lon="15.2339072"><ele>251.0</ele><time>2026-04-25T14:15:59.451Z</time></trkpt><trkpt lat="40.7534902" lon="15.2339922"><ele>248.0</ele><time>2026-04-25T14:16:00.453Z</time></trkpt><trkpt lat="40.7536295" lon="15.2340839"><ele>245.0</ele><time>2026-04-25T14:16:01.464Z</time></trkpt><trkpt lat="40.7537623" lon="15.2341658"><ele>245.0</ele><time>2026-04-25T14:16:02.457Z</time></trkpt><trkpt lat="40.7539015" lon="15.2342224"><ele>245.0</ele><time>2026-04-25T14:16:03.453Z</time></trkpt><trkpt lat="40.7540482" lon="15.2342493"><ele>245.0</ele><time>2026-04-25T14:16:04.449Z</time></trkpt><trkpt lat="40.7541974" lon="15.2342584"><ele>245.0</ele><time>2026-04-25T14:16:05.457Z</time></trkpt><trkpt lat="40.7543447" lon="15.2342503"><ele>242.33333333333334</ele><time>2026-04-25T14:16:06.454Z</time></trkpt><trkpt lat="40.7544899" lon="15.2342107"><ele>239.66666666666669</ele><time>2026-04-25T14:16:07.445Z</time></trkpt><trkpt lat="40.7546301" lon="15.234135"><ele>237.0</ele><time>2026-04-25T14:16:08.508Z</time></trkpt><trkpt lat="40.7547671" lon="15.2340389"><ele>239.75</ele><time>2026-04-25T14:16:09.458Z</time></trkpt><trkpt lat="40.7549061" lon="15.2339548"><ele>242.5</ele><time>2026-04-25T14:16:10.447Z</time></trkpt><trkpt lat="40.7550451" lon="15.2339046"><ele>245.25</ele><time>2026-04-25T14:16:11.453Z</time></trkpt><trkpt lat="40.7551846" lon="15.2338852"><ele>248.0</ele><time>2026-04-25T14:16:12.446Z</time></trkpt><trkpt lat="40.7553175" lon="15.2338893"><ele>248.0</ele><time>2026-04-25T14:16:13.45Z</time></trkpt><trkpt lat="40.7554366" lon="15.2339194"><ele>248.0</ele><time>2026-04-25T14:16:14.459Z</time></trkpt><trkpt lat="40.7555346" lon="15.2339762"><ele>248.0</ele><time>2026-04-25T14:16:15.478Z</time></trkpt><trkpt lat="40.7556041" lon="15.2340609"><ele>248.0</ele><time>2026-04-25T14:16:16.461Z</time></trkpt><trkpt lat="40.7556432" lon="15.2341726"><ele>248.0</ele><time>2026-04-25T14:16:17.458Z</time></trkpt><trkpt lat="40.7556555" lon="15.2342993"><ele>245.5</ele><time>2026-04-25T14:16:18.459Z</time></trkpt><trkpt lat="40.755653" lon="15.2344401"><ele>243.0</ele><time>2026-04-25T14:16:19.453Z</time></trkpt><trkpt lat="40.7556487" lon="15.234595"><ele>240.5</ele><time>2026-04-25T14:16:20.447Z</time></trkpt><trkpt lat="40.7556446" lon="15.2347575"><ele>238.0</ele><time>2026-04-25T14:16:21.47Z</time></trkpt><trkpt lat="40.7556413" lon="15.2349197"><ele>237.2</ele><time>2026-04-25T14:16:22.464Z</time></trkpt><trkpt lat="40.7556475" lon="15.2350721"><ele>236.4</ele><time>2026-04-25T14:16:23.459Z</time></trkpt><trkpt lat="40.755668" lon="15.2352123"><ele>235.59999999999997</ele><time>2026-04-25T14:16:24.452Z</time></trkpt><trkpt lat="40.7557324" lon="15.2353068"><ele>234.79999999999998</ele><time>2026-04-25T14:16:25.454Z</time></trkpt><trkpt lat="40.7558193" lon="15.235361"><ele>234.0</ele><time>2026-04-25T14:16:26.446Z</time></trkpt><trkpt lat="40.755919" lon="15.2353655"><ele>234.0</ele><time>2026-04-25T14:16:27.466Z</time></trkpt><trkpt lat="40.7560296" lon="15.2353239"><ele>234.0</ele><time>2026-04-25T14:16:28.45Z</time></trkpt><trkpt lat="40.7561435" lon="15.2352462"><ele>234.0</ele><time>2026-04-25T14:16:29.447Z</time></trkpt><trkpt lat="40.7562602" lon="15.2351426"><ele>234.0</ele><time>2026-04-25T14:16:30.455Z</time></trkpt><trkpt lat="40.756378" lon="15.235033"><ele>232.75</ele><time>2026-04-25T14:16:31.46Z</time></trkpt><trkpt lat="40.7564964" lon="15.2349365"><ele>231.5</ele><time>2026-04-25T14:16:32.459Z</time></trkpt><trkpt lat="40.7566063" lon="15.2348597"><ele>230.25</ele><time>2026-04-25T14:16:33.46Z</time></trkpt><trkpt lat="40.7567016" lon="15.2348252"><ele>229.0</ele><time>2026-04-25T14:16:34.458Z</time></trkpt><trkpt lat="40.7567881" lon="15.234842"><ele>229.2</ele><time>2026-04-25T14:16:35.453Z</time></trkpt><trkpt lat="40.75687" lon="15.2348979"><ele>229.39999999999998</ele><time>2026-04-25T14:16:36.442Z</time></trkpt><trkpt lat="40.7569488" lon="15.2349785"><ele>229.6</ele><time>2026-04-25T14:16:37.466Z</time></trkpt><trkpt lat="40.7570274" lon="15.2350681"><ele>229.8</ele><time>2026-04-25T14:16:38.459Z</time></trkpt><trkpt lat="40.7571046" lon="15.2351637"><ele>230.0</ele><time>2026-04-25T14:16:39.451Z</time></trkpt><trkpt lat="40.7571666" lon="15.2352806"><ele>230.0</ele><time>2026-04-25T14:16:40.453Z</time></trkpt><trkpt lat="40.7572048" lon="15.2354213"><ele>230.0</ele><time>2026-04-25T14:16:41.463Z</time></trkpt><trkpt lat="40.7572227" lon="15.2355897"><ele>230.0</ele><time>2026-04-25T14:16:42.468Z</time></trkpt><trkpt lat="40.7572325" lon="15.2357801"><ele>230.0</ele><time>2026-04-25T14:16:43.456Z</time></trkpt><trkpt lat="40.7572375" lon="15.2359741"><ele>231.5</ele><time>2026-04-25T14:16:44.453Z</time></trkpt><trkpt lat="40.7572469" lon="15.2361631"><ele>233.0</ele><time>2026-04-25T14:16:45.458Z</time></trkpt><trkpt lat="40.7572744" lon="15.2363436"><ele>234.5</ele><time>2026-04-25T14:16:46.46Z</time></trkpt><trkpt lat="40.7573292" lon="15.2365182"><ele>236.0</ele><time>2026-04-25T14:16:47.465Z</time></trkpt><trkpt lat="40.7573877" lon="15.2366857"><ele>236.0</ele><time>2026-04-25T14:16:48.465Z</time></trkpt><trkpt lat="40.7574695" lon="15.2368341"><ele>236.0</ele><time>2026-04-25T14:16:49.454Z</time></trkpt><trkpt lat="40.7575776" lon="15.2369635"><ele>236.0</ele><time>2026-04-25T14:16:50.448Z</time></trkpt><trkpt lat="40.757716" lon="15.2370749"><ele>236.0</ele><time>2026-04-25T14:16:51.457Z</time></trkpt><trkpt lat="40.7578687" lon="15.2371921"><ele>237.66666666666669</ele><time>2026-04-25T14:16:52.451Z</time></trkpt><trkpt lat="40.7580271" lon="15.237319"><ele>239.33333333333331</ele><time>2026-04-25T14:16:53.458Z</time></trkpt><trkpt lat="40.758183" lon="15.2374382"><ele>241.0</ele><time>2026-04-25T14:16:54.446Z</time></trkpt><trkpt lat="40.7583353" lon="15.2375246"><ele>241.0</ele><time>2026-04-25T14:16:55.452Z</time></trkpt><trkpt lat="40.758475" lon="15.2375645"><ele>241.0</ele><time>2026-04-25T14:16:56.452Z</time></trkpt><trkpt lat="40.7585916" lon="15.2375615"><ele>241.0</ele><time>2026-04-25T14:16:57.452Z</time></trkpt><trkpt lat="40.7586852" lon="15.2375065"><ele>241.0</ele><time>2026-04-25T14:16:58.446Z</time></trkpt><trkpt lat="40.7587699" lon="15.2374049"><ele>243.5</ele><time>2026-04-25T14:16:59.464Z</time></trkpt><trkpt lat="40.7588489" lon="15.2372706"><ele>246.0</ele><time>2026-04-25T14:17:00.467Z</time></trkpt><trkpt lat="40.7589258" lon="15.2371114"><ele>248.5</ele><time>2026-04-25T14:17:01.453Z</time></trkpt><trkpt lat="40.7589916" lon="15.2369392"><ele>251.0</ele><time>2026-04-25T14:17:02.454Z</time></trkpt><trkpt lat="40.7590499" lon="15.2367613"><ele>251.0</ele><time>2026-04-25T14:17:03.458Z</time></trkpt><trkpt lat="40.7591203" lon="15.2365953"><ele>251.0</ele><time>2026-04-25T14:17:04.446Z</time></trkpt><trkpt lat="40.7592115" lon="15.2364593"><ele>251.0</ele><time>2026-04-25T14:17:05.463Z</time></trkpt><trkpt lat="40.7593061" lon="15.2363386"><ele>251.0</ele><time>2026-04-25T14:17:06.45Z</time></trkpt><trkpt lat="40.759407" lon="15.2362444"><ele>250.60000000000002</ele><time>2026-04-25T14:17:07.451Z</time></trkpt><trkpt lat="40.7594717" lon="15.2361244"><ele>250.20000000000002</ele><time>2026-04-25T14:17:08.453Z</time></trkpt><trkpt lat="40.7594927" lon="15.2359816"><ele>249.79999999999998</ele><time>2026-04-25T14:17:09.457Z</time></trkpt><trkpt lat="40.759476" lon="15.2358402"><ele>249.39999999999998</ele><time>2026-04-25T14:17:10.461Z</time></trkpt><trkpt lat="40.7594504" lon="15.2356943"><ele>249.0</ele><time>2026-04-25T14:17:11.453Z</time></trkpt><trkpt lat="40.7594474" lon="15.2355376"><ele>251.0</ele><time>2026-04-25T14:17:12.452Z</time></trkpt><trkpt lat="40.7594773" lon="15.2353805"><ele>253.0</ele><time>2026-04-25T14:17:13.456Z</time></trkpt><trkpt lat="40.759541" lon="15.2352372"><ele>255.0</ele><time>2026-04-25T14:17:14.447Z</time></trkpt><trkpt lat="40.7596336" lon="15.2351157"><ele>257.0</ele><time>2026-04-25T14:17:15.453Z</time></trkpt><trkpt lat="40.7597531" lon="15.2350058"><ele>257.0</ele><time>2026-04-25T14:17:16.455Z</time></trkpt><trkpt lat="40.7598906" lon="15.2348923"><ele>257.0</ele><time>2026-04-25T14:17:17.463Z</time></trkpt><trkpt lat="40.7600399" lon="15.2347731"><ele>257.0</ele><time>2026-04-25T14:17:18.454Z</time></trkpt><trkpt lat="40.7602025" lon="15.234659"><ele>259.6666666666667</ele><time>2026-04-25T14:17:19.451Z</time></trkpt><trkpt lat="40.7603703" lon="15.2345502"><ele>262.3333333333333</ele><time>2026-04-25T14:17:20.462Z</time></trkpt><trkpt lat="40.7605296" lon="15.234434"><ele>265.0</ele><time>2026-04-25T14:17:21.458Z</time></trkpt><trkpt lat="40.7606744" lon="15.2343094"><ele>265.0</ele><time>2026-04-25T14:17:22.456Z</time></trkpt><trkpt lat="40.760803" lon="15.2341861"><ele>265.0</ele><time>2026-04-25T14:17:23.447Z</time></trkpt><trkpt lat="40.7609198" lon="15.234076"><ele>265.0</ele><time>2026-04-25T14:17:24.464Z</time></trkpt><trkpt lat="40.7610334" lon="15.2339928"><ele>265.0</ele><time>2026-04-25T14:17:25.452Z</time></trkpt><trkpt lat="40.7611486" lon="15.2339394"><ele>265.75</ele><time>2026-04-25T14:17:26.447Z</time></trkpt><trkpt lat="40.7612767" lon="15.2339194"><ele>266.5</ele><time>2026-04-25T14:17:27.461Z</time></trkpt><trkpt lat="40.7614162" lon="15.2339218"><ele>267.25</ele><time>2026-04-25T14:17:28.456Z</time></trkpt><trkpt lat="40.761564" lon="15.233937"><ele>268.0</ele><time>2026-04-25T14:17:29.452Z</time></trkpt><trkpt lat="40.7617078" lon="15.2339761"><ele>268.0</ele><time>2026-04-25T14:17:30.454Z</time></trkpt><trkpt lat="40.7618414" lon="15.2340352"><ele>268.0</ele><time>2026-04-25T14:17:31.46Z</time></trkpt><trkpt lat="40.7619705" lon="15.2340907"><ele>268.0</ele><time>2026-04-25T14:17:32.466Z</time></trkpt><trkpt lat="40.7621003" lon="15.2341169"><ele>268.0</ele><time>2026-04-25T14:17:33.447Z</time></trkpt><trkpt lat="40.7622283" lon="15.2341032"><ele>269.25</ele><time>2026-04-25T14:17:34.449Z</time></trkpt><trkpt lat="40.7623528" lon="15.2340529"><ele>270.5</ele><time>2026-04-25T14:17:35.453Z</time></trkpt><trkpt lat="40.7624731" lon="15.2339719"><ele>271.75</ele><time>2026-04-25T14:17:36.459Z</time></trkpt><trkpt lat="40.7625897" lon="15.2338701"><ele>273.0</ele><time>2026-04-25T14:17:37.445Z</time></trkpt><trkpt lat="40.7626987" lon="15.233762"><ele>275.75</ele><time>2026-04-25T14:17:38.46Z</time></trkpt><trkpt lat="40.7628064" lon="15.233667"><ele>278.5</ele><time>2026-04-25T14:17:39.454Z</time></trkpt><trkpt lat="40.7629151" lon="15.2335901"><ele>281.25</ele><time>2026-04-25T14:17:40.452Z</time></trkpt><trkpt lat="40.7630212" lon="15.2335393"><ele>284.0</ele><time>2026-04-25T14:17:41.461Z</time></trkpt><trkpt lat="40.7631254" lon="15.2335195"><ele>284.0</ele><time>2026-04-25T14:17:42.446Z</time></trkpt><trkpt lat="40.7632334" lon="15.2335244"><ele>284.0</ele><time>2026-04-25T14:17:43.462Z</time></trkpt><trkpt lat="40.7633463" lon="15.2335473"><ele>284.0</ele><time>2026-04-25T14:17:44.453Z</time></trkpt><trkpt lat="40.763453" lon="15.2335766"><ele>284.0</ele><time>2026-04-25T14:17:45.456Z</time></trkpt><trkpt lat="40.7635709" lon="15.2336404"><ele>283.75</ele><time>2026-04-25T14:17:46.451Z</time></trkpt><trkpt lat="40.7636763" lon="15.2337332"><ele>283.5</ele><time>2026-04-25T14:17:47.453Z</time></trkpt><trkpt lat="40.7637823" lon="15.2338402"><ele>283.25</ele><time>2026-04-25T14:17:48.447Z</time></trkpt><trkpt lat="40.7638501" lon="15.2339782"><ele>283.0</ele><time>2026-04-25T14:17:49.467Z</time></trkpt><trkpt lat="40.7639142" lon="15.2341085"><ele>283.0</ele><time>2026-04-25T14:17:50.456Z</time></trkpt><trkpt lat="40.7639817" lon="15.2342257"><ele>283.0</ele><time>2026-04-25T14:17:51.47Z</time></trkpt><trkpt lat="40.7640695" lon="15.2343034"><ele>283.0</ele><time>2026-04-25T14:17:52.45Z</time></trkpt><trkpt lat="40.7641645" lon="15.234354"><ele>283.0</ele><time>2026-04-25T14:17:53.454Z</time></trkpt><trkpt lat="40.7642781" lon="15.2343502"><ele>283.0</ele><time>2026-04-25T14:17:54.457Z</time></trkpt><trkpt lat="40.7643669" lon="15.234351"><ele>282.6</ele><time>2026-04-25T14:17:55.467Z</time></trkpt><trkpt lat="40.7644295" lon="15.2342534"><ele>282.20000000000005</ele><time>2026-04-25T14:17:56.458Z</time></trkpt><trkpt lat="40.7644825" lon="15.2341319"><ele>281.8</ele><time>2026-04-25T14:17:57.452Z</time></trkpt><trkpt lat="40.7645155" lon="15.2339925"><ele>281.40000000000003</ele><time>2026-04-25T14:17:58.452Z</time></trkpt><trkpt lat="40.7645674" lon="15.2338642"><ele>281.0</ele><time>2026-04-25T14:17:59.47Z</time></trkpt><trkpt lat="40.7646402" lon="15.2337463"><ele>284.5</ele><time>2026-04-25T14:18:00.453Z</time></trkpt><trkpt lat="40.7647339" lon="15.2336318"><ele>288.0</ele><time>2026-04-25T14:18:01.448Z</time></trkpt><trkpt lat="40.7648423" lon="15.2335171"><ele>291.5</ele><time>2026-04-25T14:18:02.446Z</time></trkpt><trkpt lat="40.7649616" lon="15.2334"><ele>295.0</ele><time>2026-04-25T14:18:03.456Z</time></trkpt><trkpt lat="40.7650922" lon="15.2332845"><ele>293.0</ele><time>2026-04-25T14:18:04.446Z</time></trkpt><trkpt lat="40.7652247" lon="15.2331745"><ele>291.0</ele><time>2026-04-25T14:18:05.454Z</time></trkpt><trkpt lat="40.7653529" lon="15.2330643"><ele>289.0</ele><time>2026-04-25T14:18:06.449Z</time></trkpt><trkpt lat="40.7654771" lon="15.2329555"><ele>292.0</ele><time>2026-04-25T14:18:07.454Z</time></trkpt><trkpt lat="40.7655954" lon="15.2328638"><ele>295.0</ele><time>2026-04-25T14:18:08.456Z</time></trkpt><trkpt lat="40.7657085" lon="15.2327976"><ele>298.0</ele><time>2026-04-25T14:18:09.465Z</time></trkpt><trkpt lat="40.7658201" lon="15.2327601"><ele>301.0</ele><time>2026-04-25T14:18:10.455Z</time></trkpt><trkpt lat="40.7659339" lon="15.2327525"><ele>302.0</ele><time>2026-04-25T14:18:11.474Z</time></trkpt><trkpt lat="40.7660437" lon="15.2327791"><ele>303.0</ele><time>2026-04-25T14:18:12.466Z</time></trkpt><trkpt lat="40.7661444" lon="15.2328418"><ele>304.0</ele><time>2026-04-25T14:18:13.466Z</time></trkpt><trkpt lat="40.7662295" lon="15.2329312"><ele>305.0</ele><time>2026-04-25T14:18:14.462Z</time></trkpt><trkpt lat="40.7663103" lon="15.2330246"><ele>306.0</ele><time>2026-04-25T14:18:15.456Z</time></trkpt><trkpt lat="40.7664032" lon="15.233097"><ele>306.0</ele><time>2026-04-25T14:18:16.452Z</time></trkpt><trkpt lat="40.7665096" lon="15.2331364"><ele>306.0</ele><time>2026-04-25T14:18:17.449Z</time></trkpt><trkpt lat="40.7666261" lon="15.2331343"><ele>306.0</ele><time>2026-04-25T14:18:18.445Z</time></trkpt><trkpt lat="40.7667501" lon="15.2331156"><ele>306.0</ele><time>2026-04-25T14:18:19.466Z</time></trkpt><trkpt lat="40.76688" lon="15.2330348"><ele>306.0</ele><time>2026-04-25T14:18:20.455Z</time></trkpt><trkpt lat="40.7669865" lon="15.232926"><ele>306.0</ele><time>2026-04-25T14:18:21.45Z</time></trkpt><trkpt lat="40.7670861" lon="15.2327866"><ele>306.0</ele><time>2026-04-25T14:18:22.444Z</time></trkpt><trkpt lat="40.7671826" lon="15.2326429"><ele>306.0</ele><time>2026-04-25T14:18:23.454Z</time></trkpt><trkpt lat="40.7672873" lon="15.2325089"><ele>306.0</ele><time>2026-04-25T14:18:24.452Z</time></trkpt><trkpt lat="40.7673967" lon="15.2323915"><ele>306.0</ele><time>2026-04-25T14:18:25.452Z</time></trkpt><trkpt lat="40.7675309" lon="15.2323281"><ele>306.0</ele><time>2026-04-25T14:18:26.453Z</time></trkpt><trkpt lat="40.7676692" lon="15.2322987"><ele>306.0</ele><time>2026-04-25T14:18:27.454Z</time></trkpt><trkpt lat="40.7678164" lon="15.2322746"><ele>309.5</ele><time>2026-04-25T14:18:28.445Z</time></trkpt><trkpt lat="40.7679657" lon="15.2322543"><ele>313.0</ele><time>2026-04-25T14:18:29.451Z</time></trkpt><trkpt lat="40.7681091" lon="15.2322195"><ele>316.5</ele><time>2026-04-25T14:18:30.453Z</time></trkpt><trkpt lat="40.7682515" lon="15.2321555"><ele>320.0</ele><time>2026-04-25T14:18:31.457Z</time></trkpt><trkpt lat="40.7683953" lon="15.2320593"><ele>317.6666666666667</ele><time>2026-04-25T14:18:32.455Z</time></trkpt><trkpt lat="40.7685399" lon="15.2319282"><ele>315.3333333333333</ele><time>2026-04-25T14:18:33.458Z</time></trkpt><trkpt lat="40.7686792" lon="15.2317905"><ele>313.0</ele><time>2026-04-25T14:18:34.457Z</time></trkpt><trkpt lat="40.7688201" lon="15.2316447"><ele>313.0</ele><time>2026-04-25T14:18:35.448Z</time></trkpt><trkpt lat="40.7689616" lon="15.2314875"><ele>313.0</ele><time>2026-04-25T14:18:36.455Z</time></trkpt><trkpt lat="40.7690978" lon="15.2313265"><ele>313.0</ele><time>2026-04-25T14:18:37.463Z</time></trkpt><trkpt lat="40.7692279" lon="15.2311683"><ele>313.0</ele><time>2026-04-25T14:18:38.449Z</time></trkpt><trkpt lat="40.769351" lon="15.2310066"><ele>313.0</ele><time>2026-04-25T14:18:39.456Z</time></trkpt><trkpt lat="40.769468" lon="15.230845"><ele>313.0</ele><time>2026-04-25T14:18:40.453Z</time></trkpt><trkpt lat="40.7695827" lon="15.2306829"><ele>315.66666666666663</ele><time>2026-04-25T14:18:41.449Z</time></trkpt><trkpt lat="40.7696923" lon="15.2305212"><ele>318.3333333333333</ele><time>2026-04-25T14:18:42.449Z</time></trkpt><trkpt lat="40.7697878" lon="15.2303442"><ele>321.0</ele><time>2026-04-25T14:18:43.446Z</time></trkpt><trkpt lat="40.7698643" lon="15.2301539"><ele>321.0</ele><time>2026-04-25T14:18:44.453Z</time></trkpt><trkpt lat="40.7699188" lon="15.2299565"><ele>321.0</ele><time>2026-04-25T14:18:45.462Z</time></trkpt><trkpt lat="40.7699727" lon="15.2297656"><ele>321.0</ele><time>2026-04-25T14:18:46.448Z</time></trkpt><trkpt lat="40.7700353" lon="15.2295846"><ele>322.4</ele><time>2026-04-25T14:18:47.446Z</time></trkpt><trkpt lat="40.7700951" lon="15.2294387"><ele>323.8</ele><time>2026-04-25T14:18:48.453Z</time></trkpt><trkpt lat="40.7701542" lon="15.2293126"><ele>325.2</ele><time>2026-04-25T14:18:49.454Z</time></trkpt><trkpt lat="40.7702136" lon="15.2292104"><ele>326.59999999999997</ele><time>2026-04-25T14:18:50.461Z</time></trkpt><trkpt lat="40.7702958" lon="15.2291538"><ele>328.0</ele><time>2026-04-25T14:18:51.462Z</time></trkpt><trkpt lat="40.7703753" lon="15.2291466"><ele>328.2</ele><time>2026-04-25T14:18:52.454Z</time></trkpt><trkpt lat="40.7704503" lon="15.2291897"><ele>328.4</ele><time>2026-04-25T14:18:53.447Z</time></trkpt><trkpt lat="40.7705198" lon="15.2292723"><ele>328.59999999999997</ele><time>2026-04-25T14:18:54.457Z</time></trkpt><trkpt lat="40.7705898" lon="15.2293737"><ele>328.79999999999995</ele><time>2026-04-25T14:18:55.461Z</time></trkpt><trkpt lat="40.770679" lon="15.2294717"><ele>329.0</ele><time>2026-04-25T14:18:56.446Z</time></trkpt><trkpt lat="40.7707891" lon="15.2295593"><ele>329.0</ele><time>2026-04-25T14:18:57.456Z</time></trkpt><trkpt lat="40.7709207" lon="15.2296325"><ele>329.0</ele><time>2026-04-25T14:18:58.452Z</time></trkpt><trkpt lat="40.7710678" lon="15.2296932"><ele>329.0</ele><time>2026-04-25T14:18:59.45Z</time></trkpt><trkpt lat="40.7712343" lon="15.2297461"><ele>328.33333333333337</ele><time>2026-04-25T14:19:00.447Z</time></trkpt><trkpt lat="40.7714071" lon="15.2298017"><ele>327.6666666666667</ele><time>2026-04-25T14:19:01.457Z</time></trkpt><trkpt lat="40.7715859" lon="15.2298591"><ele>327.0</ele><time>2026-04-25T14:19:02.458Z</time></trkpt><trkpt lat="40.7717647" lon="15.2299169"><ele>329.0</ele><time>2026-04-25T14:19:03.456Z</time></trkpt><trkpt lat="40.7719404" lon="15.2299673"><ele>331.0</ele><time>2026-04-25T14:19:04.451Z</time></trkpt><trkpt lat="40.7721075" lon="15.2300063"><ele>333.0</ele><time>2026-04-25T14:19:05.454Z</time></trkpt><trkpt lat="40.7722608" lon="15.230032"><ele>333.0</ele><time>2026-04-25T14:19:06.465Z</time></trkpt><trkpt lat="40.7724086" lon="15.2300283"><ele>333.0</ele><time>2026-04-25T14:19:07.445Z</time></trkpt><trkpt lat="40.7725496" lon="15.2299922"><ele>333.0</ele><time>2026-04-25T14:19:08.447Z</time></trkpt><trkpt lat="40.7726784" lon="15.2299353"><ele>333.0</ele><time>2026-04-25T14:19:09.454Z</time></trkpt><trkpt lat="40.7727948" lon="15.2298954"><ele>333.5</ele><time>2026-04-25T14:19:10.454Z</time></trkpt><trkpt lat="40.7728894" lon="15.2298938"><ele>334.0</ele><time>2026-04-25T14:19:11.463Z</time></trkpt><trkpt lat="40.7729552" lon="15.2299382"><ele>334.5</ele><time>2026-04-25T14:19:12.454Z</time></trkpt><trkpt lat="40.7729961" lon="15.2300063"><ele>335.0</ele><time>2026-04-25T14:19:13.455Z</time></trkpt><trkpt lat="40.7730265" lon="15.2301033"><ele>335.5</ele><time>2026-04-25T14:19:14.451Z</time></trkpt><trkpt lat="40.7730537" lon="15.2302209"><ele>336.0</ele><time>2026-04-25T14:19:15.451Z</time></trkpt><trkpt lat="40.7730936" lon="15.2303486"><ele>336.0</ele><time>2026-04-25T14:19:16.452Z</time></trkpt><trkpt lat="40.7731417" lon="15.2304816"><ele>336.0</ele><time>2026-04-25T14:19:17.454Z</time></trkpt><trkpt lat="40.7731889" lon="15.2306159"><ele>336.0</ele><time>2026-04-25T14:19:18.447Z</time></trkpt><trkpt lat="40.773216" lon="15.2307542"><ele>336.0</ele><time>2026-04-25T14:19:19.457Z</time></trkpt><trkpt lat="40.7732189" lon="15.230898"><ele>336.0</ele><time>2026-04-25T14:19:20.454Z</time></trkpt><trkpt lat="40.7732027" lon="15.2310471"><ele>336.0</ele><time>2026-04-25T14:19:21.451Z</time></trkpt><trkpt lat="40.7731758" lon="15.2311971"><ele>336.0</ele><time>2026-04-25T14:19:22.451Z</time></trkpt><trkpt lat="40.7731455" lon="15.2313449"><ele>336.0</ele><time>2026-04-25T14:19:23.452Z</time></trkpt><trkpt lat="40.7731179" lon="15.2314896"><ele>336.0</ele><time>2026-04-25T14:19:24.448Z</time></trkpt><trkpt lat="40.7731025" lon="15.2316286"><ele>336.0</ele><time>2026-04-25T14:19:25.456Z</time></trkpt><trkpt lat="40.7731139" lon="15.2317629"><ele>336.0</ele><time>2026-04-25T14:19:26.454Z</time></trkpt><trkpt lat="40.7731492" lon="15.2318916"><ele>336.0</ele><time>2026-04-25T14:19:27.448Z</time></trkpt><trkpt lat="40.7731974" lon="15.2320195"><ele>336.0</ele><time>2026-04-25T14:19:28.455Z</time></trkpt><trkpt lat="40.7732394" lon="15.2321551"><ele>336.0</ele><time>2026-04-25T14:19:29.455Z</time></trkpt><trkpt lat="40.7732631" lon="15.2323014"><ele>336.20000000000005</ele><time>2026-04-25T14:19:30.45Z</time></trkpt><trkpt lat="40.7732684" lon="15.2324496"><ele>336.40000000000003</ele><time>2026-04-25T14:19:31.453Z</time></trkpt><trkpt lat="40.7732575" lon="15.2325949"><ele>336.6</ele><time>2026-04-25T14:19:32.447Z</time></trkpt><trkpt lat="40.773246" lon="15.2327333"><ele>336.8</ele><time>2026-04-25T14:19:33.454Z</time></trkpt><trkpt lat="40.7732419" lon="15.2328661"><ele>337.0</ele><time>2026-04-25T14:19:34.451Z</time></trkpt><trkpt lat="40.7732557" lon="15.23299"><ele>337.0</ele><time>2026-04-25T14:19:35.453Z</time></trkpt><trkpt lat="40.7732823" lon="15.2331039"><ele>337.0</ele><time>2026-04-25T14:19:36.459Z</time></trkpt><trkpt lat="40.7733078" lon="15.233213"><ele>337.0</ele><time>2026-04-25T14:19:37.461Z</time></trkpt><trkpt lat="40.7733262" lon="15.2333177"><ele>337.0</ele><time>2026-04-25T14:19:38.452Z</time></trkpt><trkpt lat="40.7733508" lon="15.2334122"><ele>337.0</ele><time>2026-04-25T14:19:39.487Z</time></trkpt><trkpt lat="40.7733872" lon="15.2334893"><ele>337.0</ele><time>2026-04-25T14:19:40.48Z</time></trkpt><trkpt lat="40.7734938" lon="15.2335293"><ele>337.0</ele><time>2026-04-25T14:19:42.462Z</time></trkpt><trkpt lat="40.7735558" lon="15.2334167"><ele>337.0</ele><time>2026-04-25T14:19:44.447Z</time></trkpt><trkpt lat="40.7735068" lon="15.2332619"><ele>337.0</ele><time>2026-04-25T14:19:46.451Z</time></trkpt><trkpt lat="40.773478" lon="15.2331681"><ele>337.0</ele><time>2026-04-25T14:19:47.461Z</time></trkpt><trkpt lat="40.7734666" lon="15.2330559"><ele>337.0</ele><time>2026-04-25T14:19:48.457Z</time></trkpt><trkpt lat="40.7734787" lon="15.23294"><ele>337.0</ele><time>2026-04-25T14:19:49.453Z</time></trkpt><trkpt lat="40.7735034" lon="15.2328161"><ele>337.0</ele><time>2026-04-25T14:19:50.454Z</time></trkpt><trkpt lat="40.7735746" lon="15.2327184"><ele>337.0</ele><time>2026-04-25T14:19:51.467Z</time></trkpt><trkpt lat="40.7736546" lon="15.2326321"><ele>337.0</ele><time>2026-04-25T14:19:52.451Z</time></trkpt><trkpt lat="40.77374" lon="15.2325324"><ele>337.0</ele><time>2026-04-25T14:19:53.454Z</time></trkpt><trkpt lat="40.7737976" lon="15.2324134"><ele>339.6</ele><time>2026-04-25T14:19:54.454Z</time></trkpt><trkpt lat="40.7738326" lon="15.2322864"><ele>342.20000000000005</ele><time>2026-04-25T14:19:55.462Z</time></trkpt><trkpt lat="40.7738647" lon="15.2321653"><ele>344.8</ele><time>2026-04-25T14:19:56.455Z</time></trkpt><trkpt lat="40.7739119" lon="15.232046"><ele>347.4</ele><time>2026-04-25T14:19:57.456Z</time></trkpt><trkpt lat="40.7739826" lon="15.2319334"><ele>350.0</ele><time>2026-04-25T14:19:58.455Z</time></trkpt><trkpt lat="40.7740664" lon="15.2318244"><ele>350.0</ele><time>2026-04-25T14:19:59.461Z</time></trkpt><trkpt lat="40.7741465" lon="15.2317124"><ele>350.0</ele><time>2026-04-25T14:20:00.459Z</time></trkpt><trkpt lat="40.7742195" lon="15.2315923"><ele>350.0</ele><time>2026-04-25T14:20:01.454Z</time></trkpt><trkpt lat="40.7742764" lon="15.2314586"><ele>350.0</ele><time>2026-04-25T14:20:02.456Z</time></trkpt><trkpt lat="40.7743085" lon="15.2313081"><ele>349.75</ele><time>2026-04-25T14:20:03.454Z</time></trkpt><trkpt lat="40.7743205" lon="15.2311497"><ele>349.5</ele><time>2026-04-25T14:20:04.459Z</time></trkpt><trkpt lat="40.7743356" lon="15.2309903"><ele>349.25</ele><time>2026-04-25T14:20:05.461Z</time></trkpt><trkpt lat="40.7743483" lon="15.2308314"><ele>349.0</ele><time>2026-04-25T14:20:06.452Z</time></trkpt><trkpt lat="40.7743865" lon="15.2306676"><ele>353.75</ele><time>2026-04-25T14:20:07.455Z</time></trkpt><trkpt lat="40.7744329" lon="15.2305027"><ele>358.5</ele><time>2026-04-25T14:20:08.45Z</time></trkpt><trkpt lat="40.7744896" lon="15.2303347"><ele>363.25</ele><time>2026-04-25T14:20:09.47Z</time></trkpt><trkpt lat="40.7745513" lon="15.2301647"><ele>368.0</ele><time>2026-04-25T14:20:10.456Z</time></trkpt><trkpt lat="40.7746142" lon="15.2299943"><ele>368.0</ele><time>2026-04-25T14:20:11.461Z</time></trkpt><trkpt lat="40.7746794" lon="15.2298294"><ele>368.0</ele><time>2026-04-25T14:20:12.457Z</time></trkpt><trkpt lat="40.774745" lon="15.2296763"><ele>368.0</ele><time>2026-04-25T14:20:13.461Z</time></trkpt><trkpt lat="40.7747996" lon="15.2295377"><ele>368.0</ele><time>2026-04-25T14:20:14.447Z</time></trkpt><trkpt lat="40.774836" lon="15.2293995"><ele>369.2</ele><time>2026-04-25T14:20:15.451Z</time></trkpt><trkpt lat="40.7748423" lon="15.2292626"><ele>370.4</ele><time>2026-04-25T14:20:16.469Z</time></trkpt><trkpt lat="40.774812" lon="15.2291261"><ele>371.59999999999997</ele><time>2026-04-25T14:20:17.461Z</time></trkpt><trkpt lat="40.7747695" lon="15.2289883"><ele>372.79999999999995</ele><time>2026-04-25T14:20:18.452Z</time></trkpt><trkpt lat="40.7747058" lon="15.2288539"><ele>374.0</ele><time>2026-04-25T14:20:19.465Z</time></trkpt><trkpt lat="40.7746422" lon="15.2287308"><ele>375.6</ele><time>2026-04-25T14:20:20.452Z</time></trkpt><trkpt lat="40.7746026" lon="15.2286204"><ele>377.2</ele><time>2026-04-25T14:20:21.45Z</time></trkpt><trkpt lat="40.7745893" lon="15.2285204"><ele>378.8</ele><time>2026-04-25T14:20:22.455Z</time></trkpt><trkpt lat="40.7746021" lon="15.2284335"><ele>380.40000000000003</ele><time>2026-04-25T14:20:23.458Z</time></trkpt><trkpt lat="40.7746823" lon="15.2283398"><ele>382.0</ele><time>2026-04-25T14:20:25.453Z</time></trkpt><trkpt lat="40.774814" lon="15.2283913"><ele>382.0</ele><time>2026-04-25T14:20:27.449Z</time></trkpt><trkpt lat="40.7748891" lon="15.2284696"><ele>382.0</ele><time>2026-04-25T14:20:28.451Z</time></trkpt><trkpt lat="40.7749681" lon="15.2285699"><ele>382.0</ele><time>2026-04-25T14:20:29.462Z</time></trkpt><trkpt lat="40.7750543" lon="15.2286859"><ele>382.0</ele><time>2026-04-25T14:20:30.458Z</time></trkpt><trkpt lat="40.7751471" lon="15.2288153"><ele>382.5</ele><time>2026-04-25T14:20:31.461Z</time></trkpt><trkpt lat="40.7752445" lon="15.2289469"><ele>383.0</ele><time>2026-04-25T14:20:32.458Z</time></trkpt><trkpt lat="40.7753416" lon="15.2290737"><ele>383.5</ele><time>2026-04-25T14:20:33.465Z</time></trkpt><trkpt lat="40.7754383" lon="15.2291839"><ele>384.0</ele><time>2026-04-25T14:20:34.456Z</time></trkpt><trkpt lat="40.7755314" lon="15.2292619"><ele>384.0</ele><time>2026-04-25T14:20:35.458Z</time></trkpt><trkpt lat="40.775622" lon="15.2293051"><ele>384.0</ele><time>2026-04-25T14:20:36.444Z</time></trkpt><trkpt lat="40.7757155" lon="15.2293102"><ele>384.0</ele><time>2026-04-25T14:20:37.455Z</time></trkpt><trkpt lat="40.7758096" lon="15.2292721"><ele>384.0</ele><time>2026-04-25T14:20:38.451Z</time></trkpt><trkpt lat="40.7758984" lon="15.2291927"><ele>384.0</ele><time>2026-04-25T14:20:39.45Z</time></trkpt><trkpt lat="40.7759884" lon="15.2290828"><ele>387.5</ele><time>2026-04-25T14:20:40.451Z</time></trkpt><trkpt lat="40.7760891" lon="15.2289617"><ele>391.0</ele><time>2026-04-25T14:20:41.461Z</time></trkpt><trkpt lat="40.7762067" lon="15.2288412"><ele>394.5</ele><time>2026-04-25T14:20:42.453Z</time></trkpt><trkpt lat="40.7763338" lon="15.2287289"><ele>398.0</ele><time>2026-04-25T14:20:43.449Z</time></trkpt><trkpt lat="40.7764624" lon="15.228626"><ele>398.0</ele><time>2026-04-25T14:20:44.462Z</time></trkpt><trkpt lat="40.7765892" lon="15.2285249"><ele>398.0</ele><time>2026-04-25T14:20:45.456Z</time></trkpt><trkpt lat="40.7767122" lon="15.2284305"><ele>398.0</ele><time>2026-04-25T14:20:46.457Z</time></trkpt><trkpt lat="40.7768353" lon="15.2283592"><ele>398.0</ele><time>2026-04-25T14:20:47.454Z</time></trkpt><trkpt lat="40.7769602" lon="15.228325"><ele>398.25</ele><time>2026-04-25T14:20:48.457Z</time></trkpt><trkpt lat="40.7770864" lon="15.2283333"><ele>398.5</ele><time>2026-04-25T14:20:49.454Z</time></trkpt><trkpt lat="40.7772147" lon="15.2283751"><ele>398.75</ele><time>2026-04-25T14:20:50.453Z</time></trkpt><trkpt lat="40.7773421" lon="15.2284419"><ele>399.0</ele><time>2026-04-25T14:20:51.45Z</time></trkpt><trkpt lat="40.7774629" lon="15.2285245"><ele>399.0</ele><time>2026-04-25T14:20:52.453Z</time></trkpt><trkpt lat="40.7775732" lon="15.2286029"><ele>399.0</ele><time>2026-04-25T14:20:53.464Z</time></trkpt><trkpt lat="40.7776718" lon="15.2286544"><ele>399.0</ele><time>2026-04-25T14:20:54.458Z</time></trkpt><trkpt lat="40.777753" lon="15.2286574"><ele>399.0</ele><time>2026-04-25T14:20:55.443Z</time></trkpt><trkpt lat="40.7778085" lon="15.2286129"><ele>399.0</ele><time>2026-04-25T14:20:56.461Z</time></trkpt><trkpt lat="40.7778394" lon="15.2285304"><ele>399.0</ele><time>2026-04-25T14:20:57.46Z</time></trkpt><trkpt lat="40.7778457" lon="15.2284227"><ele>399.6</ele><time>2026-04-25T14:20:58.459Z</time></trkpt><trkpt lat="40.777835" lon="15.2283002"><ele>400.2</ele><time>2026-04-25T14:20:59.452Z</time></trkpt><trkpt lat="40.7778239" lon="15.2281679"><ele>400.8</ele><time>2026-04-25T14:21:00.45Z</time></trkpt><trkpt lat="40.7778306" lon="15.22803"><ele>401.40000000000003</ele><time>2026-04-25T14:21:01.464Z</time></trkpt><trkpt lat="40.7778662" lon="15.2279001"><ele>402.0</ele><time>2026-04-25T14:21:02.457Z</time></trkpt><trkpt lat="40.7779324" lon="15.2277881"><ele>402.0</ele><time>2026-04-25T14:21:03.45Z</time></trkpt><trkpt lat="40.7780217" lon="15.2276877"><ele>402.0</ele><time>2026-04-25T14:21:04.448Z</time></trkpt><trkpt lat="40.7781236" lon="15.2275842"><ele>402.0</ele><time>2026-04-25T14:21:05.457Z</time></trkpt><trkpt lat="40.7782191" lon="15.2274799"><ele>402.0</ele><time>2026-04-25T14:21:06.451Z</time></trkpt><trkpt lat="40.7782977" lon="15.2273741"><ele>403.5</ele><time>2026-04-25T14:21:07.456Z</time></trkpt><trkpt lat="40.7783428" lon="15.2272657"><ele>405.0</ele><time>2026-04-25T14:21:08.457Z</time></trkpt><trkpt lat="40.7783467" lon="15.227157"><ele>406.5</ele><time>2026-04-25T14:21:09.472Z</time></trkpt><trkpt lat="40.7783117" lon="15.2270589"><ele>408.0</ele><time>2026-04-25T14:21:10.445Z</time></trkpt><trkpt lat="40.7782543" lon="15.2269746"><ele>409.5</ele><time>2026-04-25T14:21:11.459Z</time></trkpt><trkpt lat="40.7782036" lon="15.2268909"><ele>411.0</ele><time>2026-04-25T14:21:12.444Z</time></trkpt><trkpt lat="40.7781601" lon="15.2267962"><ele>411.0</ele><time>2026-04-25T14:21:13.466Z</time></trkpt><trkpt lat="40.7781236" lon="15.2266958"><ele>411.0</ele><time>2026-04-25T14:21:14.452Z</time></trkpt><trkpt lat="40.7781329" lon="15.2265775"><ele>411.0</ele><time>2026-04-25T14:21:15.448Z</time></trkpt><trkpt lat="40.7781546" lon="15.2264526"><ele>411.0</ele><time>2026-04-25T14:21:16.454Z</time></trkpt><trkpt lat="40.7781829" lon="15.2263116"><ele>411.0</ele><time>2026-04-25T14:21:17.459Z</time></trkpt><trkpt lat="40.7782285" lon="15.2261675"><ele>413.25</ele><time>2026-04-25T14:21:18.446Z</time></trkpt><trkpt lat="40.7782726" lon="15.2260186"><ele>415.5</ele><time>2026-04-25T14:21:19.452Z</time></trkpt><trkpt lat="40.7783487" lon="15.2258833"><ele>417.75</ele><time>2026-04-25T14:21:20.454Z</time></trkpt><trkpt lat="40.7784123" lon="15.2257415"><ele>420.0</ele><time>2026-04-25T14:21:21.456Z</time></trkpt><trkpt lat="40.7784596" lon="15.2255974"><ele>420.0</ele><time>2026-04-25T14:21:22.455Z</time></trkpt><trkpt lat="40.7784935" lon="15.225456"><ele>420.0</ele><time>2026-04-25T14:21:23.453Z</time></trkpt><trkpt lat="40.7784639" lon="15.2253079"><ele>420.0</ele><time>2026-04-25T14:21:24.465Z</time></trkpt><trkpt lat="40.7783972" lon="15.2251923"><ele>420.0</ele><time>2026-04-25T14:21:25.451Z</time></trkpt><trkpt lat="40.7783117" lon="15.2250946"><ele>420.0</ele><time>2026-04-25T14:21:26.459Z</time></trkpt><trkpt lat="40.7782209" lon="15.2249999"><ele>420.0</ele><time>2026-04-25T14:21:27.462Z</time></trkpt><trkpt lat="40.7781395" lon="15.2248869"><ele>420.0</ele><time>2026-04-25T14:21:28.455Z</time></trkpt><trkpt lat="40.7780687" lon="15.2247452"><ele>420.0</ele><time>2026-04-25T14:21:29.45Z</time></trkpt><trkpt lat="40.7780086" lon="15.2245876"><ele>421.25</ele><time>2026-04-25T14:21:30.454Z</time></trkpt><trkpt lat="40.777954" lon="15.2244319"><ele>422.5</ele><time>2026-04-25T14:21:31.456Z</time></trkpt><trkpt lat="40.7778914" lon="15.2242791"><ele>423.75</ele><time>2026-04-25T14:21:32.451Z</time></trkpt><trkpt lat="40.7778156" lon="15.2241504"><ele>425.0</ele><time>2026-04-25T14:21:33.45Z</time></trkpt><trkpt lat="40.7777442" lon="15.2240285"><ele>426.2</ele><time>2026-04-25T14:21:34.463Z</time></trkpt><trkpt lat="40.7776999" lon="15.2238996"><ele>427.4</ele><time>2026-04-25T14:21:35.463Z</time></trkpt><trkpt lat="40.7776913" lon="15.2237656"><ele>428.6</ele><time>2026-04-25T14:21:36.457Z</time></trkpt><trkpt lat="40.7777118" lon="15.2236359"><ele>429.8</ele><time>2026-04-25T14:21:37.448Z</time></trkpt><trkpt lat="40.7777606" lon="15.2235237"><ele>431.0</ele><time>2026-04-25T14:21:38.456Z</time></trkpt><trkpt lat="40.7778335" lon="15.2234258"><ele>431.0</ele><time>2026-04-25T14:21:39.457Z</time></trkpt><trkpt lat="40.7779168" lon="15.2233289"><ele>431.0</ele><time>2026-04-25T14:21:40.456Z</time></trkpt><trkpt lat="40.7780017" lon="15.2232295"><ele>431.0</ele><time>2026-04-25T14:21:41.461Z</time></trkpt><trkpt lat="40.7781066" lon="15.2231292"><ele>431.0</ele><time>2026-04-25T14:21:42.447Z</time></trkpt><trkpt lat="40.7782141" lon="15.2230353"><ele>434.5</ele><time>2026-04-25T14:21:43.463Z</time></trkpt><trkpt lat="40.778326" lon="15.2229477"><ele>438.0</ele><time>2026-04-25T14:21:44.458Z</time></trkpt><trkpt lat="40.7784415" lon="15.2228732"><ele>441.5</ele><time>2026-04-25T14:21:45.448Z</time></trkpt><trkpt lat="40.7785622" lon="15.2228203"><ele>445.0</ele><time>2026-04-25T14:21:46.445Z</time></trkpt><trkpt lat="40.7786864" lon="15.2228001"><ele>445.25</ele><time>2026-04-25T14:21:47.456Z</time></trkpt><trkpt lat="40.7788161" lon="15.2228022"><ele>445.5</ele><time>2026-04-25T14:21:48.453Z</time></trkpt><trkpt lat="40.7789522" lon="15.2228109"><ele>445.75</ele><time>2026-04-25T14:21:49.45Z</time></trkpt><trkpt lat="40.7790932" lon="15.2228257"><ele>446.0</ele><time>2026-04-25T14:21:50.46Z</time></trkpt><trkpt lat="40.7792355" lon="15.2228489"><ele>447.25</ele><time>2026-04-25T14:21:51.454Z</time></trkpt><trkpt lat="40.7793768" lon="15.2228828"><ele>448.5</ele><time>2026-04-25T14:21:52.455Z</time></trkpt><trkpt lat="40.7795198" lon="15.2229241"><ele>449.75</ele><time>2026-04-25T14:21:53.452Z</time></trkpt><trkpt lat="40.7796636" lon="15.2229744"><ele>451.0</ele><time>2026-04-25T14:21:54.446Z</time></trkpt><trkpt lat="40.7798046" lon="15.2230334"><ele>451.0</ele><time>2026-04-25T14:21:55.45Z</time></trkpt><trkpt lat="40.7799439" lon="15.2230943"><ele>451.0</ele><time>2026-04-25T14:21:56.457Z</time></trkpt><trkpt lat="40.7800806" lon="15.2231443"><ele>451.0</ele><time>2026-04-25T14:21:57.463Z</time></trkpt><trkpt lat="40.7802158" lon="15.2231889"><ele>451.0</ele><time>2026-04-25T14:21:58.449Z</time></trkpt><trkpt lat="40.780349" lon="15.2232272"><ele>450.0</ele><time>2026-04-25T14:21:59.475Z</time></trkpt><trkpt lat="40.7804847" lon="15.2232451"><ele>449.0</ele><time>2026-04-25T14:22:00.45Z</time></trkpt><trkpt lat="40.7806204" lon="15.2232368"><ele>448.0</ele><time>2026-04-25T14:22:01.458Z</time></trkpt><trkpt lat="40.7807549" lon="15.2231966"><ele>447.0</ele><time>2026-04-25T14:22:02.453Z</time></trkpt><trkpt lat="40.7808864" lon="15.223129"><ele>450.0</ele><time>2026-04-25T14:22:03.457Z</time></trkpt><trkpt lat="40.7810149" lon="15.2230451"><ele>453.0</ele><time>2026-04-25T14:22:04.453Z</time></trkpt><trkpt lat="40.7811401" lon="15.2229586"><ele>456.0</ele><time>2026-04-25T14:22:05.453Z</time></trkpt><trkpt lat="40.7812598" lon="15.2228847"><ele>459.0</ele><time>2026-04-25T14:22:06.45Z</time></trkpt><trkpt lat="40.7813771" lon="15.2228323"><ele>459.0</ele><time>2026-04-25T14:22:07.453Z</time></trkpt><trkpt lat="40.7814942" lon="15.2228031"><ele>459.0</ele><time>2026-04-25T14:22:08.458Z</time></trkpt><trkpt lat="40.7816129" lon="15.2227987"><ele>459.0</ele><time>2026-04-25T14:22:09.468Z</time></trkpt><trkpt lat="40.7817312" lon="15.2228216"><ele>459.0</ele><time>2026-04-25T14:22:10.463Z</time></trkpt><trkpt lat="40.7818448" lon="15.2228794"><ele>459.0</ele><time>2026-04-25T14:22:11.464Z</time></trkpt><trkpt lat="40.7819512" lon="15.2229667"><ele>459.0</ele><time>2026-04-25T14:22:12.451Z</time></trkpt><trkpt lat="40.7820509" lon="15.2230687"><ele>459.0</ele><time>2026-04-25T14:22:13.452Z</time></trkpt><trkpt lat="40.7821456" lon="15.2231684"><ele>459.0</ele><time>2026-04-25T14:22:14.455Z</time></trkpt><trkpt lat="40.7822396" lon="15.2232512"><ele>457.6</ele><time>2026-04-25T14:22:15.458Z</time></trkpt><trkpt lat="40.7823358" lon="15.2233132"><ele>456.2</ele><time>2026-04-25T14:22:16.455Z</time></trkpt><trkpt lat="40.7824353" lon="15.2233465"><ele>454.80000000000007</ele><time>2026-04-25T14:22:17.453Z</time></trkpt><trkpt lat="40.7825341" lon="15.2233611"><ele>453.40000000000003</ele><time>2026-04-25T14:22:18.474Z</time></trkpt><trkpt lat="40.7826446" lon="15.2233374"><ele>452.0</ele><time>2026-04-25T14:22:19.469Z</time></trkpt><trkpt lat="40.7827513" lon="15.2233079"><ele>451.6</ele><time>2026-04-25T14:22:20.47Z</time></trkpt><trkpt lat="40.7828567" lon="15.2232463"><ele>451.20000000000005</ele><time>2026-04-25T14:22:21.456Z</time></trkpt><trkpt lat="40.7829524" lon="15.2231832"><ele>450.8</ele><time>2026-04-25T14:22:22.453Z</time></trkpt><trkpt lat="40.7830211" lon="15.2230885"><ele>450.4</ele><time>2026-04-25T14:22:23.458Z</time></trkpt><trkpt lat="40.7830601" lon="15.2229707"><ele>450.0</ele><time>2026-04-25T14:22:24.467Z</time></trkpt><trkpt lat="40.7830897" lon="15.2228503"><ele>450.0</ele><time>2026-04-25T14:22:25.448Z</time></trkpt><trkpt lat="40.7830862" lon="15.2227077"><ele>450.0</ele><time>2026-04-25T14:22:26.451Z</time></trkpt><trkpt lat="40.7830779" lon="15.222588"><ele>450.0</ele><time>2026-04-25T14:22:27.455Z</time></trkpt><trkpt lat="40.7830641" lon="15.2224487"><ele>450.0</ele><time>2026-04-25T14:22:28.451Z</time></trkpt><trkpt lat="40.7830552" lon="15.2223078"><ele>450.0</ele><time>2026-04-25T14:22:29.458Z</time></trkpt><trkpt lat="40.783059" lon="15.2221611"><ele>450.1666666666667</ele><time>2026-04-25T14:22:30.455Z</time></trkpt><trkpt lat="40.7830571" lon="15.222023"><ele>450.33333333333337</ele><time>2026-04-25T14:22:31.453Z</time></trkpt><trkpt lat="40.7830568" lon="15.2218915"><ele>450.5</ele><time>2026-04-25T14:22:32.452Z</time></trkpt><trkpt lat="40.7830555" lon="15.221775"><ele>450.6666666666667</ele><time>2026-04-25T14:22:33.458Z</time></trkpt><trkpt lat="40.7830604" lon="15.2216724"><ele>450.83333333333337</ele><time>2026-04-25T14:22:34.461Z</time></trkpt><trkpt lat="40.7830686" lon="15.2215877"><ele>451.0</ele><time>2026-04-25T14:22:35.449Z</time></trkpt><trkpt lat="40.7830946" lon="15.2214815"><ele>451.0</ele><time>2026-04-25T14:22:37.447Z</time></trkpt><trkpt lat="40.7831136" lon="15.2213209"><ele>451.0</ele><time>2026-04-25T14:22:42.454Z</time></trkpt><trkpt lat="40.7830173" lon="15.2213386"><ele>451.0</ele><time>2026-04-25T14:22:46.452Z</time></trkpt><trkpt lat="40.7829513" lon="15.2213891"><ele>451.0</ele><time>2026-04-25T14:23:17.463Z</time></trkpt><trkpt lat="40.7828568" lon="15.2214556"><ele>451.0</ele><time>2026-04-25T14:23:19.445Z</time></trkpt><trkpt lat="40.7827956" lon="15.2214948"><ele>451.00000000000006</ele><time>2026-04-25T14:23:20.459Z</time></trkpt><trkpt lat="40.7827285" lon="15.2215424"><ele>451.0</ele><time>2026-04-25T14:23:21.455Z</time></trkpt><trkpt lat="40.7826547" lon="15.2215976"><ele>451.0</ele><time>2026-04-25T14:23:22.454Z</time></trkpt><trkpt lat="40.7825781" lon="15.2216525"><ele>451.0</ele><time>2026-04-25T14:23:23.448Z</time></trkpt><trkpt lat="40.7824941" lon="15.2216991"><ele>451.00000000000006</ele><time>2026-04-25T14:23:24.453Z</time></trkpt><trkpt lat="40.7824043" lon="15.2217352"><ele>451.0</ele><time>2026-04-25T14:23:25.463Z</time></trkpt><trkpt lat="40.7823095" lon="15.2217577"><ele>454.20000000000005</ele><time>2026-04-25T14:23:26.455Z</time></trkpt><trkpt lat="40.7822089" lon="15.22177"><ele>457.40000000000003</ele><time>2026-04-25T14:23:27.446Z</time></trkpt><trkpt lat="40.7821031" lon="15.2217776"><ele>460.6</ele><time>2026-04-25T14:23:28.45Z</time></trkpt><trkpt lat="40.7819898" lon="15.2217822"><ele>463.8</ele><time>2026-04-25T14:23:29.464Z</time></trkpt><trkpt lat="40.7818761" lon="15.221786"><ele>467.0</ele><time>2026-04-25T14:23:30.453Z</time></trkpt><trkpt lat="40.7817682" lon="15.2217899"><ele>467.40000000000003</ele><time>2026-04-25T14:23:31.458Z</time></trkpt><trkpt lat="40.7816762" lon="15.2217884"><ele>467.80000000000007</ele><time>2026-04-25T14:23:32.459Z</time></trkpt><trkpt lat="40.781594" lon="15.2217871"><ele>468.2</ele><time>2026-04-25T14:23:33.447Z</time></trkpt><trkpt lat="40.7815333" lon="15.2216986"><ele>468.6</ele><time>2026-04-25T14:23:35.464Z</time></trkpt><trkpt lat="40.7815675" lon="15.2215958"><ele>469.0</ele><time>2026-04-25T14:23:37.457Z</time></trkpt><trkpt lat="40.7816864" lon="15.2215085"><ele>469.83333333333337</ele><time>2026-04-25T14:23:39.46Z</time></trkpt><trkpt lat="40.7817658" lon="15.2214799"><ele>470.6666666666667</ele><time>2026-04-25T14:23:40.455Z</time></trkpt><trkpt lat="40.7818539" lon="15.2214576"><ele>471.5</ele><time>2026-04-25T14:23:41.463Z</time></trkpt><trkpt lat="40.781942" lon="15.221433"><ele>472.33333333333337</ele><time>2026-04-25T14:23:42.459Z</time></trkpt><trkpt lat="40.7820265" lon="15.2214043"><ele>473.1666666666667</ele><time>2026-04-25T14:23:43.449Z</time></trkpt><trkpt lat="40.7821019" lon="15.2213681"><ele>474.0</ele><time>2026-04-25T14:23:44.457Z</time></trkpt><trkpt lat="40.7821721" lon="15.2213183"><ele>474.0</ele><time>2026-04-25T14:23:45.451Z</time></trkpt><trkpt lat="40.7822363" lon="15.2212421"><ele>474.0</ele><time>2026-04-25T14:23:46.45Z</time></trkpt><trkpt lat="40.7822945" lon="15.2211407"><ele>474.0</ele><time>2026-04-25T14:23:47.45Z</time></trkpt><trkpt lat="40.7823457" lon="15.2210142"><ele>474.0</ele><time>2026-04-25T14:23:48.457Z</time></trkpt><trkpt lat="40.7823881" lon="15.220868"><ele>474.0</ele><time>2026-04-25T14:23:49.457Z</time></trkpt><trkpt lat="40.7824205" lon="15.2207122"><ele>476.0</ele><time>2026-04-25T14:23:50.452Z</time></trkpt><trkpt lat="40.7824475" lon="15.2205506"><ele>478.0</ele><time>2026-04-25T14:23:51.448Z</time></trkpt><trkpt lat="40.7824705" lon="15.2203884"><ele>480.0</ele><time>2026-04-25T14:23:52.45Z</time></trkpt><trkpt lat="40.7824883" lon="15.2202288"><ele>482.0</ele><time>2026-04-25T14:23:53.457Z</time></trkpt><trkpt lat="40.7825051" lon="15.2200747"><ele>482.0</ele><time>2026-04-25T14:23:54.455Z</time></trkpt><trkpt lat="40.7825201" lon="15.2199246"><ele>482.0</ele><time>2026-04-25T14:23:55.467Z</time></trkpt><trkpt lat="40.782518" lon="15.2197724"><ele>482.0</ele><time>2026-04-25T14:23:56.459Z</time></trkpt><trkpt lat="40.7824957" lon="15.2196133"><ele>482.0</ele><time>2026-04-25T14:23:57.467Z</time></trkpt><trkpt lat="40.7824577" lon="15.2194529"><ele>483.0</ele><time>2026-04-25T14:23:58.45Z</time></trkpt><trkpt lat="40.7824223" lon="15.2193074"><ele>484.0</ele><time>2026-04-25T14:23:59.463Z</time></trkpt><trkpt lat="40.7823887" lon="15.2191591"><ele>485.0</ele><time>2026-04-25T14:24:00.46Z</time></trkpt><trkpt lat="40.7823644" lon="15.2190018"><ele>486.0</ele><time>2026-04-25T14:24:01.468Z</time></trkpt><trkpt lat="40.7823499" lon="15.2188338"><ele>486.5</ele><time>2026-04-25T14:24:02.468Z</time></trkpt><trkpt lat="40.7823405" lon="15.2186583"><ele>487.0</ele><time>2026-04-25T14:24:03.471Z</time></trkpt><trkpt lat="40.7823252" lon="15.218483"><ele>487.5</ele><time>2026-04-25T14:24:04.454Z</time></trkpt><trkpt lat="40.782322" lon="15.218309"><ele>488.0</ele><time>2026-04-25T14:24:05.448Z</time></trkpt><trkpt lat="40.7823187" lon="15.2181391"><ele>489.0</ele><time>2026-04-25T14:24:06.457Z</time></trkpt><trkpt lat="40.7823151" lon="15.2179787"><ele>489.99999999999994</ele><time>2026-04-25T14:24:07.476Z</time></trkpt><trkpt lat="40.7822972" lon="15.2178332"><ele>490.99999999999994</ele><time>2026-04-25T14:24:08.453Z</time></trkpt><trkpt lat="40.7822621" lon="15.2176963"><ele>492.0</ele><time>2026-04-25T14:24:09.447Z</time></trkpt><trkpt lat="40.78221" lon="15.217585"><ele>493.0</ele><time>2026-04-25T14:24:10.462Z</time></trkpt><trkpt lat="40.7821389" lon="15.2175073"><ele>493.00000000000006</ele><time>2026-04-25T14:24:11.462Z</time></trkpt><trkpt lat="40.7820511" lon="15.2174589"><ele>493.0</ele><time>2026-04-25T14:24:12.455Z</time></trkpt><trkpt lat="40.781955" lon="15.2174183"><ele>493.0</ele><time>2026-04-25T14:24:13.45Z</time></trkpt><trkpt lat="40.7818701" lon="15.2173647"><ele>493.0</ele><time>2026-04-25T14:24:14.451Z</time></trkpt><trkpt lat="40.7818137" lon="15.2172862"><ele>493.00000000000006</ele><time>2026-04-25T14:24:15.446Z</time></trkpt><trkpt lat="40.7817951" lon="15.2171927"><ele>493.0</ele><time>2026-04-25T14:24:16.452Z</time></trkpt><trkpt lat="40.7817766" lon="15.2170987"><ele>497.0</ele><time>2026-04-25T14:24:17.46Z</time></trkpt><trkpt lat="40.7818271" lon="15.2170181"><ele>500.99999999999994</ele><time>2026-04-25T14:24:18.456Z</time></trkpt><trkpt lat="40.7818786" lon="15.2169374"><ele>504.99999999999994</ele><time>2026-04-25T14:24:19.447Z</time></trkpt><trkpt lat="40.7819649" lon="15.2169102"><ele>509.0</ele><time>2026-04-25T14:24:20.458Z</time></trkpt><trkpt lat="40.7820622" lon="15.2168947"><ele>513.0</ele><time>2026-04-25T14:24:21.463Z</time></trkpt><trkpt lat="40.7821689" lon="15.2168842"><ele>513.75</ele><time>2026-04-25T14:24:22.457Z</time></trkpt><trkpt lat="40.7822863" lon="15.2168793"><ele>514.5</ele><time>2026-04-25T14:24:23.453Z</time></trkpt><trkpt lat="40.7824067" lon="15.2168831"><ele>515.25</ele><time>2026-04-25T14:24:24.466Z</time></trkpt><trkpt lat="40.7825278" lon="15.2168921"><ele>516.0</ele><time>2026-04-25T14:24:25.465Z</time></trkpt><trkpt lat="40.7826459" lon="15.2169144"><ele>516.0</ele><time>2026-04-25T14:24:26.459Z</time></trkpt><trkpt lat="40.7827534" lon="15.2169658"><ele>516.0</ele><time>2026-04-25T14:24:27.458Z</time></trkpt><trkpt lat="40.7828477" lon="15.2170393"><ele>516.0</ele><time>2026-04-25T14:24:28.461Z</time></trkpt><trkpt lat="40.7829282" lon="15.2171385"><ele>516.0</ele><time>2026-04-25T14:24:29.458Z</time></trkpt><trkpt lat="40.7829998" lon="15.2172589"><ele>514.0</ele><time>2026-04-25T14:24:30.453Z</time></trkpt><trkpt lat="40.7830607" lon="15.217394"><ele>512.0</ele><time>2026-04-25T14:24:31.455Z</time></trkpt><trkpt lat="40.7831235" lon="15.217536"><ele>510.0</ele><time>2026-04-25T14:24:32.456Z</time></trkpt><trkpt lat="40.783161" lon="15.2176876"><ele>508.0</ele><time>2026-04-25T14:24:33.453Z</time></trkpt><trkpt lat="40.7831887" lon="15.2178366"><ele>508.00000000000006</ele><time>2026-04-25T14:24:34.448Z</time></trkpt><trkpt lat="40.7832153" lon="15.2179743"><ele>508.0</ele><time>2026-04-25T14:24:35.466Z</time></trkpt><trkpt lat="40.7832449" lon="15.2180853"><ele>508.0</ele><time>2026-04-25T14:24:36.461Z</time></trkpt><trkpt lat="40.7832886" lon="15.2181629"><ele>508.0</ele><time>2026-04-25T14:24:37.447Z</time></trkpt><trkpt lat="40.7833481" lon="15.2181949"><ele>508.00000000000006</ele><time>2026-04-25T14:24:38.453Z</time></trkpt><trkpt lat="40.7834477" lon="15.2181609"><ele>508.0</ele><time>2026-04-25T14:24:40.454Z</time></trkpt><trkpt lat="40.7834707" lon="15.2180668"><ele>508.0</ele><time>2026-04-25T14:24:41.451Z</time></trkpt><trkpt lat="40.7834693" lon="15.2179529"><ele>507.99999999999994</ele><time>2026-04-25T14:24:42.45Z</time></trkpt><trkpt lat="40.7834571" lon="15.217819"><ele>507.99999999999994</ele><time>2026-04-25T14:24:43.462Z</time></trkpt><trkpt lat="40.7834424" lon="15.2176741"><ele>508.0</ele><time>2026-04-25T14:24:44.46Z</time></trkpt><trkpt lat="40.7834256" lon="15.2175149"><ele>508.0</ele><time>2026-04-25T14:24:45.466Z</time></trkpt><trkpt lat="40.7834071" lon="15.2173476"><ele>510.0</ele><time>2026-04-25T14:24:46.452Z</time></trkpt><trkpt lat="40.7833891" lon="15.2171797"><ele>512.0</ele><time>2026-04-25T14:24:47.458Z</time></trkpt><trkpt lat="40.7833641" lon="15.21702"><ele>514.0</ele><time>2026-04-25T14:24:48.454Z</time></trkpt><trkpt lat="40.7833057" lon="15.2168957"><ele>516.0</ele><time>2026-04-25T14:24:49.462Z</time></trkpt><trkpt lat="40.7832202" lon="15.2167974"><ele>516.0</ele><time>2026-04-25T14:24:50.459Z</time></trkpt><trkpt lat="40.7831305" lon="15.2167"><ele>516.0</ele><time>2026-04-25T14:24:51.461Z</time></trkpt><trkpt lat="40.7830067" lon="15.2166388"><ele>516.0</ele><time>2026-04-25T14:24:52.448Z</time></trkpt><trkpt lat="40.7828642" lon="15.2165678"><ele>516.0</ele><time>2026-04-25T14:24:53.455Z</time></trkpt><trkpt lat="40.7827175" lon="15.2164846"><ele>522.0</ele><time>2026-04-25T14:24:54.459Z</time></trkpt><trkpt lat="40.7825775" lon="15.2164041"><ele>528.0</ele><time>2026-04-25T14:24:55.481Z</time></trkpt><trkpt lat="40.7824577" lon="15.2163316"><ele>534.0</ele><time>2026-04-25T14:24:56.455Z</time></trkpt><trkpt lat="40.7823617" lon="15.21625"><ele>540.0</ele><time>2026-04-25T14:24:57.461Z</time></trkpt><trkpt lat="40.7822846" lon="15.2161465"><ele>540.0</ele><time>2026-04-25T14:24:58.453Z</time></trkpt><trkpt lat="40.7822177" lon="15.2160142"><ele>540.0</ele><time>2026-04-25T14:24:59.457Z</time></trkpt><trkpt lat="40.7821641" lon="15.2158757"><ele>540.0</ele><time>2026-04-25T14:25:00.458Z</time></trkpt><trkpt lat="40.7821108" lon="15.2157435"><ele>540.0</ele><time>2026-04-25T14:25:01.465Z</time></trkpt><trkpt lat="40.7820495" lon="15.2156343"><ele>542.2</ele><time>2026-04-25T14:25:02.468Z</time></trkpt><trkpt lat="40.7819814" lon="15.2155541"><ele>544.4</ele><time>2026-04-25T14:25:03.448Z</time></trkpt><trkpt lat="40.7819048" lon="15.2154954"><ele>546.6</ele><time>2026-04-25T14:25:04.462Z</time></trkpt><trkpt lat="40.7818139" lon="15.2154414"><ele>548.8</ele><time>2026-04-25T14:25:05.454Z</time></trkpt><trkpt lat="40.7817213" lon="15.2153817"><ele>551.0</ele><time>2026-04-25T14:25:06.458Z</time></trkpt><trkpt lat="40.7816364" lon="15.2153101"><ele>551.0</ele><time>2026-04-25T14:25:07.456Z</time></trkpt><trkpt lat="40.7815797" lon="15.2152212"><ele>551.0</ele><time>2026-04-25T14:25:08.449Z</time></trkpt><trkpt lat="40.781563" lon="15.2151296"><ele>551.0</ele><time>2026-04-25T14:25:09.463Z</time></trkpt><trkpt lat="40.7816211" lon="15.2150051"><ele>551.0</ele><time>2026-04-25T14:25:11.466Z</time></trkpt><trkpt lat="40.7816936" lon="15.2149691"><ele>551.0</ele><time>2026-04-25T14:25:12.45Z</time></trkpt><trkpt lat="40.7817817" lon="15.2149564"><ele>551.0</ele><time>2026-04-25T14:25:13.459Z</time></trkpt><trkpt lat="40.7818779" lon="15.214946"><ele>551.0</ele><time>2026-04-25T14:25:14.461Z</time></trkpt><trkpt lat="40.7819855" lon="15.2149333"><ele>551.0</ele><time>2026-04-25T14:25:15.459Z</time></trkpt><trkpt lat="40.7820996" lon="15.2149249"><ele>551.0</ele><time>2026-04-25T14:25:16.451Z</time></trkpt><trkpt lat="40.782215" lon="15.2149158"><ele>551.0</ele><time>2026-04-25T14:25:17.458Z</time></trkpt><trkpt lat="40.7823221" lon="15.2149046"><ele>551.0</ele><time>2026-04-25T14:25:18.458Z</time></trkpt><trkpt lat="40.7824205" lon="15.2148828"><ele>551.0</ele><time>2026-04-25T14:25:19.462Z</time></trkpt><trkpt lat="40.7825081" lon="15.2148404"><ele>551.0</ele><time>2026-04-25T14:25:20.448Z</time></trkpt><trkpt lat="40.7825814" lon="15.2147753"><ele>551.0</ele><time>2026-04-25T14:25:21.451Z</time></trkpt><trkpt lat="40.7826352" lon="15.2146917"><ele>551.0</ele><time>2026-04-25T14:25:22.453Z</time></trkpt><trkpt lat="40.7826591" lon="15.2145996"><ele>551.0</ele><time>2026-04-25T14:25:23.465Z</time></trkpt><trkpt lat="40.7826539" lon="15.2144971"><ele>551.0</ele><time>2026-04-25T14:25:24.451Z</time></trkpt><trkpt lat="40.7826213" lon="15.2143876"><ele>552.4</ele><time>2026-04-25T14:25:25.46Z</time></trkpt><trkpt lat="40.7825628" lon="15.2142764"><ele>553.8</ele><time>2026-04-25T14:25:26.453Z</time></trkpt><trkpt lat="40.7824959" lon="15.2141549"><ele>555.1999999999999</ele><time>2026-04-25T14:25:27.456Z</time></trkpt><trkpt lat="40.7824458" lon="15.2140204"><ele>556.6</ele><time>2026-04-25T14:25:28.456Z</time></trkpt><trkpt lat="40.7824234" lon="15.2138754"><ele>558.0</ele><time>2026-04-25T14:25:29.454Z</time></trkpt><trkpt lat="40.7824239" lon="15.2137203"><ele>561.0</ele><time>2026-04-25T14:25:30.456Z</time></trkpt><trkpt lat="40.7824405" lon="15.2135655"><ele>564.0</ele><time>2026-04-25T14:25:31.457Z</time></trkpt><trkpt lat="40.7824598" lon="15.2134149"><ele>567.0</ele><time>2026-04-25T14:25:32.462Z</time></trkpt><trkpt lat="40.7824823" lon="15.2132564"><ele>570.0</ele><time>2026-04-25T14:25:33.459Z</time></trkpt><trkpt lat="40.7825311" lon="15.2131065"><ele>571.0</ele><time>2026-04-25T14:25:34.448Z</time></trkpt><trkpt lat="40.7825833" lon="15.2129725"><ele>572.0</ele><time>2026-04-25T14:25:35.463Z</time></trkpt><trkpt lat="40.7826349" lon="15.212858"><ele>573.0</ele><time>2026-04-25T14:25:36.457Z</time></trkpt><trkpt lat="40.7826675" lon="15.2127552"><ele>574.0</ele><time>2026-04-25T14:25:37.457Z</time></trkpt><trkpt lat="40.7826705" lon="15.2126491"><ele>575.0</ele><time>2026-04-25T14:25:38.453Z</time></trkpt><trkpt lat="40.7826692" lon="15.2125443"><ele>575.0</ele><time>2026-04-25T14:25:39.453Z</time></trkpt><trkpt lat="40.7826359" lon="15.2124167"><ele>575.0</ele><time>2026-04-25T14:25:40.449Z</time></trkpt><trkpt lat="40.7825863" lon="15.2123104"><ele>575.0</ele><time>2026-04-25T14:25:41.464Z</time></trkpt><trkpt lat="40.7825184" lon="15.2122295"><ele>575.0</ele><time>2026-04-25T14:25:42.452Z</time></trkpt><trkpt lat="40.7824268" lon="15.2121709"><ele>575.0</ele><time>2026-04-25T14:25:43.458Z</time></trkpt><trkpt lat="40.7823156" lon="15.2121207"><ele>569.0</ele><time>2026-04-25T14:25:44.452Z</time></trkpt><trkpt lat="40.7821921" lon="15.2120768"><ele>563.0</ele><time>2026-04-25T14:25:45.453Z</time></trkpt><trkpt lat="40.7820705" lon="15.212031"><ele>557.0</ele><time>2026-04-25T14:25:46.456Z</time></trkpt><trkpt lat="40.7819584" lon="15.2119589"><ele>551.0</ele><time>2026-04-25T14:25:47.462Z</time></trkpt><trkpt lat="40.7818627" lon="15.2118608"><ele>554.75</ele><time>2026-04-25T14:25:48.453Z</time></trkpt><trkpt lat="40.7817781" lon="15.2117554"><ele>558.5</ele><time>2026-04-25T14:25:49.459Z</time></trkpt><trkpt lat="40.7816874" lon="15.2116534"><ele>562.25</ele><time>2026-04-25T14:25:50.454Z</time></trkpt><trkpt lat="40.7815798" lon="15.2115617"><ele>566.0</ele><time>2026-04-25T14:25:51.457Z</time></trkpt><trkpt lat="40.7814599" lon="15.2114737"><ele>566.0</ele><time>2026-04-25T14:25:52.454Z</time></trkpt><trkpt lat="40.7813385" lon="15.2113837"><ele>566.0</ele><time>2026-04-25T14:25:53.464Z</time></trkpt><trkpt lat="40.7812192" lon="15.2112918"><ele>566.0</ele><time>2026-04-25T14:25:54.459Z</time></trkpt><trkpt lat="40.7811061" lon="15.2112004"><ele>566.0</ele><time>2026-04-25T14:25:55.457Z</time></trkpt><trkpt lat="40.78101" lon="15.2111249"><ele>571.6666666666666</ele><time>2026-04-25T14:25:56.456Z</time></trkpt><trkpt lat="40.7809382" lon="15.2110499"><ele>577.3333333333333</ele><time>2026-04-25T14:25:57.462Z</time></trkpt><trkpt lat="40.7808906" lon="15.2109628"><ele>583.0</ele><time>2026-04-25T14:25:58.451Z</time></trkpt><trkpt lat="40.7808704" lon="15.2108525"><ele>588.6666666666666</ele><time>2026-04-25T14:25:59.452Z</time></trkpt><trkpt lat="40.7808597" lon="15.2107437"><ele>594.3333333333334</ele><time>2026-04-25T14:26:00.451Z</time></trkpt><trkpt lat="40.7808932" lon="15.2106285"><ele>600.0</ele><time>2026-04-25T14:26:01.449Z</time></trkpt><trkpt lat="40.7809411" lon="15.2105264"><ele>603.6</ele><time>2026-04-25T14:26:02.455Z</time></trkpt><trkpt lat="40.7810114" lon="15.2104245"><ele>607.2</ele><time>2026-04-25T14:26:03.467Z</time></trkpt><trkpt lat="40.7810876" lon="15.2103184"><ele>610.8</ele><time>2026-04-25T14:26:04.455Z</time></trkpt><trkpt lat="40.7811594" lon="15.2102232"><ele>614.4</ele><time>2026-04-25T14:26:05.454Z</time></trkpt><trkpt lat="40.7812417" lon="15.2101284"><ele>618.0</ele><time>2026-04-25T14:26:06.452Z</time></trkpt><trkpt lat="40.7813178" lon="15.2100284"><ele>611.75</ele><time>2026-04-25T14:26:07.464Z</time></trkpt><trkpt lat="40.7813917" lon="15.2099196"><ele>605.5</ele><time>2026-04-25T14:26:08.456Z</time></trkpt><trkpt lat="40.7814728" lon="15.2098071"><ele>599.25</ele><time>2026-04-25T14:26:09.45Z</time></trkpt><trkpt lat="40.7815575" lon="15.2096906"><ele>593.0</ele><time>2026-04-25T14:26:10.453Z</time></trkpt><trkpt lat="40.7816364" lon="15.2095662"><ele>593.0</ele><time>2026-04-25T14:26:11.453Z</time></trkpt><trkpt lat="40.7817099" lon="15.2094493"><ele>593.0</ele><time>2026-04-25T14:26:12.46Z</time></trkpt><trkpt lat="40.7817574" lon="15.2093176"><ele>593.0</ele><time>2026-04-25T14:26:13.457Z</time></trkpt><trkpt lat="40.7817839" lon="15.2091918"><ele>593.0</ele><time>2026-04-25T14:26:14.46Z</time></trkpt><trkpt lat="40.7817772" lon="15.2090622"><ele>593.0</ele><time>2026-04-25T14:26:15.457Z</time></trkpt><trkpt lat="40.7817448" lon="15.2089272"><ele>592.5</ele><time>2026-04-25T14:26:16.448Z</time></trkpt><trkpt lat="40.7816948" lon="15.2087872"><ele>592.0</ele><time>2026-04-25T14:26:17.463Z</time></trkpt><trkpt lat="40.7816345" lon="15.2086435"><ele>591.5</ele><time>2026-04-25T14:26:18.453Z</time></trkpt><trkpt lat="40.7815657" lon="15.2085012"><ele>591.0</ele><time>2026-04-25T14:26:19.452Z</time></trkpt><trkpt lat="40.7814927" lon="15.2083636"><ele>591.0</ele><time>2026-04-25T14:26:20.46Z</time></trkpt><trkpt lat="40.7814195" lon="15.2082331"><ele>591.0</ele><time>2026-04-25T14:26:21.456Z</time></trkpt><trkpt lat="40.7813292" lon="15.2081165"><ele>591.0</ele><time>2026-04-25T14:26:22.45Z</time></trkpt><trkpt lat="40.7812146" lon="15.2080252"><ele>591.0</ele><time>2026-04-25T14:26:23.461Z</time></trkpt><trkpt lat="40.7810938" lon="15.2079598"><ele>593.8</ele><time>2026-04-25T14:26:24.457Z</time></trkpt><trkpt lat="40.7809723" lon="15.2079254"><ele>596.6</ele><time>2026-04-25T14:26:25.449Z</time></trkpt><trkpt lat="40.7808543" lon="15.2078993"><ele>599.4</ele><time>2026-04-25T14:26:26.455Z</time></trkpt><trkpt lat="40.7807571" lon="15.2078592"><ele>602.2</ele><time>2026-04-25T14:26:27.471Z</time></trkpt><trkpt lat="40.7806879" lon="15.2077947"><ele>605.0</ele><time>2026-04-25T14:26:28.446Z</time></trkpt><trkpt lat="40.7806304" lon="15.2077256"><ele>605.0</ele><time>2026-04-25T14:26:29.459Z</time></trkpt><trkpt lat="40.7806313" lon="15.2076244"><ele>605.0</ele><time>2026-04-25T14:26:30.449Z</time></trkpt><trkpt lat="40.7806543" lon="15.2075252"><ele>605.0</ele><time>2026-04-25T14:26:31.448Z</time></trkpt><trkpt lat="40.7807035" lon="15.2074309"><ele>605.0</ele><time>2026-04-25T14:26:32.457Z</time></trkpt><trkpt lat="40.7807616" lon="15.2073517"><ele>605.0</ele><time>2026-04-25T14:26:33.468Z</time></trkpt><trkpt lat="40.7808536" lon="15.2073303"><ele>605.0</ele><time>2026-04-25T14:26:34.444Z</time></trkpt><trkpt lat="40.7809536" lon="15.2073298"><ele>603.0</ele><time>2026-04-25T14:26:35.453Z</time></trkpt><trkpt lat="40.7810599" lon="15.207334"><ele>601.0</ele><time>2026-04-25T14:26:36.455Z</time></trkpt><trkpt lat="40.7811708" lon="15.2073436"><ele>599.0</ele><time>2026-04-25T14:26:37.453Z</time></trkpt><trkpt lat="40.7812838" lon="15.2073585"><ele>597.0</ele><time>2026-04-25T14:26:38.458Z</time></trkpt><trkpt lat="40.7813751" lon="15.2073562"><ele>595.0</ele><time>2026-04-25T14:26:39.47Z</time></trkpt><trkpt lat="40.7814558" lon="15.2073115"><ele>602.5</ele><time>2026-04-25T14:26:40.457Z</time></trkpt><trkpt lat="40.7815377" lon="15.2072226"><ele>610.0</ele><time>2026-04-25T14:26:41.448Z</time></trkpt><trkpt lat="40.7816175" lon="15.207106"><ele>617.5</ele><time>2026-04-25T14:26:42.458Z</time></trkpt><trkpt lat="40.7817067" lon="15.2069963"><ele>625.0</ele><time>2026-04-25T14:26:43.454Z</time></trkpt><trkpt lat="40.7818006" lon="15.2069066"><ele>620.5</ele><time>2026-04-25T14:26:44.45Z</time></trkpt><trkpt lat="40.7819176" lon="15.2068512"><ele>616.0</ele><time>2026-04-25T14:26:45.47Z</time></trkpt><trkpt lat="40.7820343" lon="15.2068111"><ele>611.5</ele><time>2026-04-25T14:26:46.453Z</time></trkpt><trkpt lat="40.782149" lon="15.2067568"><ele>607.0</ele><time>2026-04-25T14:26:47.452Z</time></trkpt><trkpt lat="40.7822635" lon="15.2066877"><ele>607.0</ele><time>2026-04-25T14:26:48.462Z</time></trkpt><trkpt lat="40.7823717" lon="15.2065884"><ele>607.0</ele><time>2026-04-25T14:26:49.466Z</time></trkpt><trkpt lat="40.7824819" lon="15.206488"><ele>607.0</ele><time>2026-04-25T14:26:50.458Z</time></trkpt><trkpt lat="40.782586" lon="15.2063957"><ele>607.0</ele><time>2026-04-25T14:26:51.447Z</time></trkpt><trkpt lat="40.7826815" lon="15.2063155"><ele>602.6</ele><time>2026-04-25T14:26:52.456Z</time></trkpt><trkpt lat="40.7827523" lon="15.2062276"><ele>598.2</ele><time>2026-04-25T14:26:53.46Z</time></trkpt><trkpt lat="40.7828195" lon="15.2061312"><ele>593.8</ele><time>2026-04-25T14:26:54.453Z</time></trkpt><trkpt lat="40.7828332" lon="15.2060002"><ele>589.4</ele><time>2026-04-25T14:26:55.451Z</time></trkpt><trkpt lat="40.7828364" lon="15.205847"><ele>585.0</ele><time>2026-04-25T14:26:56.453Z</time></trkpt><trkpt lat="40.7828444" lon="15.2056669"><ele>586.5</ele><time>2026-04-25T14:26:57.455Z</time></trkpt><trkpt lat="40.7828532" lon="15.2054848"><ele>588.0</ele><time>2026-04-25T14:26:58.448Z</time></trkpt><trkpt lat="40.7828562" lon="15.2053067"><ele>589.5</ele><time>2026-04-25T14:26:59.477Z</time></trkpt><trkpt lat="40.7828611" lon="15.2051426"><ele>591.0</ele><time>2026-04-25T14:27:00.449Z</time></trkpt><trkpt lat="40.7828686" lon="15.2049965"><ele>591.0</ele><time>2026-04-25T14:27:01.454Z</time></trkpt><trkpt lat="40.7828737" lon="15.2048612"><ele>591.0</ele><time>2026-04-25T14:27:02.468Z</time></trkpt><trkpt lat="40.7828461" lon="15.2047344"><ele>591.0</ele><time>2026-04-25T14:27:03.471Z</time></trkpt><trkpt lat="40.7828177" lon="15.2046163"><ele>591.0</ele><time>2026-04-25T14:27:04.453Z</time></trkpt><trkpt lat="40.7827736" lon="15.2044954"><ele>591.0</ele><time>2026-04-25T14:27:05.446Z</time></trkpt><trkpt lat="40.7827126" lon="15.2043835"><ele>603.0</ele><time>2026-04-25T14:27:06.457Z</time></trkpt><trkpt lat="40.7826529" lon="15.2042655"><ele>615.0</ele><time>2026-04-25T14:27:07.456Z</time></trkpt><trkpt lat="40.7826054" lon="15.204143"><ele>627.0</ele><time>2026-04-25T14:27:08.455Z</time></trkpt><trkpt lat="40.7825803" lon="15.2040293"><ele>639.0</ele><time>2026-04-25T14:27:09.448Z</time></trkpt><trkpt lat="40.7825853" lon="15.2039213"><ele>651.0</ele><time>2026-04-25T14:27:10.466Z</time></trkpt><trkpt lat="40.7826187" lon="15.2038197"><ele>651.0</ele><time>2026-04-25T14:27:11.463Z</time></trkpt><trkpt lat="40.7826694" lon="15.2037204"><ele>651.0</ele><time>2026-04-25T14:27:12.466Z</time></trkpt><trkpt lat="40.7827195" lon="15.2036133"><ele>651.0</ele><time>2026-04-25T14:27:13.448Z</time></trkpt><trkpt lat="40.7827703" lon="15.2034921"><ele>651.0</ele><time>2026-04-25T14:27:14.457Z</time></trkpt><trkpt lat="40.7828317" lon="15.2033708"><ele>651.0</ele><time>2026-04-25T14:27:15.46Z</time></trkpt><trkpt lat="40.7828951" lon="15.2032556"><ele>641.6666666666666</ele><time>2026-04-25T14:27:16.462Z</time></trkpt><trkpt lat="40.782945" lon="15.2031468"><ele>632.3333333333334</ele><time>2026-04-25T14:27:17.455Z</time></trkpt><trkpt lat="40.782986" lon="15.2030489"><ele>623.0</ele><time>2026-04-25T14:27:18.447Z</time></trkpt><trkpt lat="40.7829998" lon="15.2029532"><ele>613.6666666666667</ele><time>2026-04-25T14:27:19.464Z</time></trkpt><trkpt lat="40.7829656" lon="15.202879"><ele>604.3333333333334</ele><time>2026-04-25T14:27:20.459Z</time></trkpt><trkpt lat="40.7829036" lon="15.2028184"><ele>595.0</ele><time>2026-04-25T14:27:21.452Z</time></trkpt><trkpt lat="40.7828406" lon="15.2027511"><ele>595.0</ele><time>2026-04-25T14:27:22.45Z</time></trkpt><trkpt lat="40.782774" lon="15.2026825"><ele>595.0</ele><time>2026-04-25T14:27:23.461Z</time></trkpt><trkpt lat="40.7827065" lon="15.2025951"><ele>595.0</ele><time>2026-04-25T14:27:24.449Z</time></trkpt><trkpt lat="40.7826464" lon="15.202488"><ele>595.0</ele><time>2026-04-25T14:27:25.457Z</time></trkpt><trkpt lat="40.7825832" lon="15.2023702"><ele>595.0</ele><time>2026-04-25T14:27:26.467Z</time></trkpt><trkpt lat="40.7825131" lon="15.2022426"><ele>601.75</ele><time>2026-04-25T14:27:27.466Z</time></trkpt><trkpt lat="40.7824446" lon="15.202104"><ele>608.5</ele><time>2026-04-25T14:27:28.448Z</time></trkpt><trkpt lat="40.7823685" lon="15.201955"><ele>615.25</ele><time>2026-04-25T14:27:29.453Z</time></trkpt><trkpt lat="40.78231" lon="15.2018031"><ele>622.0</ele><time>2026-04-25T14:27:30.451Z</time></trkpt><trkpt lat="40.7822723" lon="15.201676"><ele>622.0</ele><time>2026-04-25T14:27:31.456Z</time></trkpt><trkpt lat="40.7822337" lon="15.2015516"><ele>622.0</ele><time>2026-04-25T14:27:32.451Z</time></trkpt><trkpt lat="40.7821897" lon="15.2014404"><ele>622.0</ele><time>2026-04-25T14:27:33.452Z</time></trkpt><trkpt lat="40.7821211" lon="15.2013451"><ele>622.0</ele><time>2026-04-25T14:27:34.454Z</time></trkpt><trkpt lat="40.7820497" lon="15.2012535"><ele>622.0</ele><time>2026-04-25T14:27:35.463Z</time></trkpt><trkpt lat="40.7819763" lon="15.201159"><ele>618.0</ele><time>2026-04-25T14:27:36.457Z</time></trkpt><trkpt lat="40.7818941" lon="15.2010659"><ele>614.0</ele><time>2026-04-25T14:27:37.457Z</time></trkpt><trkpt lat="40.7818053" lon="15.2009793"><ele>610.0</ele><time>2026-04-25T14:27:38.449Z</time></trkpt><trkpt lat="40.7817142" lon="15.2009107"><ele>606.0</ele><time>2026-04-25T14:27:39.477Z</time></trkpt><trkpt lat="40.7816295" lon="15.2008533"><ele>602.0</ele><time>2026-04-25T14:27:40.453Z</time></trkpt><trkpt lat="40.7815605" lon="15.200795"><ele>612.6</ele><time>2026-04-25T14:27:41.453Z</time></trkpt><trkpt lat="40.7815008" lon="15.2007418"><ele>623.2</ele><time>2026-04-25T14:27:42.462Z</time></trkpt><trkpt lat="40.7814905" lon="15.2005977"><ele>633.8</ele><time>2026-04-25T14:27:44.454Z</time></trkpt><trkpt lat="40.7815188" lon="15.2004369"><ele>644.4</ele><time>2026-04-25T14:27:46.456Z</time></trkpt><trkpt lat="40.7815465" lon="15.2003381"><ele>655.0</ele><time>2026-04-25T14:27:47.461Z</time></trkpt><trkpt lat="40.7816066" lon="15.2002417"><ele>655.2</ele><time>2026-04-25T14:27:48.456Z</time></trkpt><trkpt lat="40.7816753" lon="15.2001411"><ele>655.4</ele><time>2026-04-25T14:27:49.449Z</time></trkpt><trkpt lat="40.781739" lon="15.2000425"><ele>655.5999999999999</ele><time>2026-04-25T14:27:50.457Z</time></trkpt><trkpt lat="40.7817935" lon="15.1999313"><ele>655.8</ele><time>2026-04-25T14:27:51.455Z</time></trkpt><trkpt lat="40.7818309" lon="15.1998022"><ele>656.0</ele><time>2026-04-25T14:27:52.45Z</time></trkpt><trkpt lat="40.78186" lon="15.199662"><ele>647.5</ele><time>2026-04-25T14:27:53.452Z</time></trkpt><trkpt lat="40.7818937" lon="15.1995167"><ele>639.0</ele><time>2026-04-25T14:27:54.452Z</time></trkpt><trkpt lat="40.781941" lon="15.1993703"><ele>630.5</ele><time>2026-04-25T14:27:55.458Z</time></trkpt><trkpt lat="40.7819933" lon="15.1992295"><ele>622.0</ele><time>2026-04-25T14:27:56.46Z</time></trkpt><trkpt lat="40.7820431" lon="15.1990942"><ele>622.3333333333334</ele><time>2026-04-25T14:27:57.448Z</time></trkpt><trkpt lat="40.7820848" lon="15.1989743"><ele>622.6666666666667</ele><time>2026-04-25T14:27:58.454Z</time></trkpt><trkpt lat="40.7821204" lon="15.1988775"><ele>623.0</ele><time>2026-04-25T14:27:59.459Z</time></trkpt><trkpt lat="40.7821519" lon="15.1987898"><ele>623.3333333333334</ele><time>2026-04-25T14:28:00.452Z</time></trkpt><trkpt lat="40.7821387" lon="15.1986576"><ele>623.6666666666666</ele><time>2026-04-25T14:28:02.461Z</time></trkpt><trkpt lat="40.7820752" lon="15.1986022"><ele>624.0</ele><time>2026-04-25T14:28:03.46Z</time></trkpt><trkpt lat="40.7820184" lon="15.1985554"><ele>624.0</ele><time>2026-04-25T14:28:04.453Z</time></trkpt><trkpt lat="40.7819814" lon="15.1984715"><ele>624.0</ele><time>2026-04-25T14:28:05.455Z</time></trkpt><trkpt lat="40.7819522" lon="15.1983701"><ele>624.0</ele><time>2026-04-25T14:28:06.459Z</time></trkpt><trkpt lat="40.7819221" lon="15.198268"><ele>624.0</ele><time>2026-04-25T14:28:07.448Z</time></trkpt><trkpt lat="40.7818796" lon="15.1981648"><ele>624.0</ele><time>2026-04-25T14:28:08.457Z</time></trkpt><trkpt lat="40.7818266" lon="15.1980528"><ele>624.0</ele><time>2026-04-25T14:28:09.453Z</time></trkpt><trkpt lat="40.7817788" lon="15.1979328"><ele>628.1666666666666</ele><time>2026-04-25T14:28:10.449Z</time></trkpt><trkpt lat="40.7817351" lon="15.1978219"><ele>632.3333333333334</ele><time>2026-04-25T14:28:11.466Z</time></trkpt><trkpt lat="40.7816831" lon="15.1977355"><ele>636.5</ele><time>2026-04-25T14:28:12.461Z</time></trkpt><trkpt lat="40.7816169" lon="15.1976785"><ele>640.6666666666667</ele><time>2026-04-25T14:28:13.449Z</time></trkpt><trkpt lat="40.7815386" lon="15.1976497"><ele>644.8333333333334</ele><time>2026-04-25T14:28:14.45Z</time></trkpt><trkpt lat="40.7814537" lon="15.197644"><ele>649.0</ele><time>2026-04-25T14:28:15.457Z</time></trkpt><trkpt lat="40.7813707" lon="15.1976538"><ele>649.0</ele><time>2026-04-25T14:28:16.45Z</time></trkpt><trkpt lat="40.7812877" lon="15.1976649"><ele>649.0</ele><time>2026-04-25T14:28:17.459Z</time></trkpt><trkpt lat="40.7812139" lon="15.1976624"><ele>649.0</ele><time>2026-04-25T14:28:18.45Z</time></trkpt><trkpt lat="40.7811449" lon="15.1976348"><ele>649.0</ele><time>2026-04-25T14:28:19.451Z</time></trkpt><trkpt lat="40.7810916" lon="15.1975633"><ele>649.0</ele><time>2026-04-25T14:28:20.449Z</time></trkpt><trkpt lat="40.7810334" lon="15.1974872"><ele>649.0</ele><time>2026-04-25T14:28:21.453Z</time></trkpt><trkpt lat="40.7809795" lon="15.1973951"><ele>655.75</ele><time>2026-04-25T14:28:22.449Z</time></trkpt><trkpt lat="40.7809274" lon="15.1972864"><ele>662.5</ele><time>2026-04-25T14:28:23.443Z</time></trkpt><trkpt lat="40.7808588" lon="15.1971499"><ele>669.25</ele><time>2026-04-25T14:28:24.455Z</time></trkpt><trkpt lat="40.7808105" lon="15.1970124"><ele>676.0</ele><time>2026-04-25T14:28:25.454Z</time></trkpt><trkpt lat="40.7807514" lon="15.1968578"><ele>676.0</ele><time>2026-04-25T14:28:26.453Z</time></trkpt><trkpt lat="40.7807067" lon="15.1967255"><ele>676.0</ele><time>2026-04-25T14:28:27.456Z</time></trkpt><trkpt lat="40.7806723" lon="15.1966021"><ele>676.0</ele><time>2026-04-25T14:28:28.455Z</time></trkpt><trkpt lat="40.7806566" lon="15.1964764"><ele>676.0</ele><time>2026-04-25T14:28:29.461Z</time></trkpt><trkpt lat="40.7806597" lon="15.1963442"><ele>676.0</ele><time>2026-04-25T14:28:30.453Z</time></trkpt><trkpt lat="40.7806643" lon="15.1962143"><ele>677.0</ele><time>2026-04-25T14:28:31.445Z</time></trkpt><trkpt lat="40.7806802" lon="15.1960639"><ele>678.0</ele><time>2026-04-25T14:28:32.447Z</time></trkpt><trkpt lat="40.7807099" lon="15.1959148"><ele>679.0</ele><time>2026-04-25T14:28:33.463Z</time></trkpt><trkpt lat="40.7807458" lon="15.1957682"><ele>680.0</ele><time>2026-04-25T14:28:34.452Z</time></trkpt><trkpt lat="40.7808112" lon="15.1956212"><ele>673.5</ele><time>2026-04-25T14:28:35.447Z</time></trkpt><trkpt lat="40.7808761" lon="15.1954696"><ele>667.0</ele><time>2026-04-25T14:28:36.447Z</time></trkpt><trkpt lat="40.78095" lon="15.195323"><ele>660.5</ele><time>2026-04-25T14:28:37.46Z</time></trkpt><trkpt lat="40.7810299" lon="15.1951936"><ele>654.0</ele><time>2026-04-25T14:28:38.46Z</time></trkpt><trkpt lat="40.7811129" lon="15.1950772"><ele>654.0</ele><time>2026-04-25T14:28:39.448Z</time></trkpt><trkpt lat="40.7811919" lon="15.1949751"><ele>654.0</ele><time>2026-04-25T14:28:40.455Z</time></trkpt><trkpt lat="40.7812644" lon="15.1948622"><ele>654.0</ele><time>2026-04-25T14:28:41.463Z</time></trkpt><trkpt lat="40.7813273" lon="15.194743"><ele>654.0</ele><time>2026-04-25T14:28:42.441Z</time></trkpt><trkpt lat="40.7813897" lon="15.1946245"><ele>654.0</ele><time>2026-04-25T14:28:43.459Z</time></trkpt><trkpt lat="40.7814503" lon="15.1945014"><ele>659.25</ele><time>2026-04-25T14:28:44.45Z</time></trkpt><trkpt lat="40.781489" lon="15.1943565"><ele>664.5</ele><time>2026-04-25T14:28:45.453Z</time></trkpt><trkpt lat="40.7815203" lon="15.1942039"><ele>669.75</ele><time>2026-04-25T14:28:46.457Z</time></trkpt><trkpt lat="40.7815469" lon="15.1940472"><ele>675.0</ele><time>2026-04-25T14:28:47.454Z</time></trkpt><trkpt lat="40.7815685" lon="15.1938958"><ele>675.6</ele><time>2026-04-25T14:28:48.461Z</time></trkpt><trkpt lat="40.7815886" lon="15.1937579"><ele>676.2</ele><time>2026-04-25T14:28:49.457Z</time></trkpt><trkpt lat="40.7816005" lon="15.1936433"><ele>676.8</ele><time>2026-04-25T14:28:50.45Z</time></trkpt><trkpt lat="40.7816117" lon="15.1935421"><ele>677.4</ele><time>2026-04-25T14:28:51.453Z</time></trkpt><trkpt lat="40.781557" lon="15.193423"><ele>678.0</ele><time>2026-04-25T14:28:53.459Z</time></trkpt><trkpt lat="40.7814386" lon="15.1933434"><ele>678.0</ele><time>2026-04-25T14:28:55.45Z</time></trkpt><trkpt lat="40.7813399" lon="15.1932895"><ele>678.0</ele><time>2026-04-25T14:28:56.456Z</time></trkpt><trkpt lat="40.7812467" lon="15.1932377"><ele>678.0</ele><time>2026-04-25T14:28:57.456Z</time></trkpt><trkpt lat="40.7811456" lon="15.1931857"><ele>678.0</ele><time>2026-04-25T14:28:58.453Z</time></trkpt><trkpt lat="40.7810438" lon="15.1931388"><ele>678.0</ele><time>2026-04-25T14:28:59.45Z</time></trkpt><trkpt lat="40.7809479" lon="15.1930978"><ele>682.3333333333334</ele><time>2026-04-25T14:29:00.448Z</time></trkpt><trkpt lat="40.7808676" lon="15.1930514"><ele>686.6666666666666</ele><time>2026-04-25T14:29:01.455Z</time></trkpt><trkpt lat="40.7808012" lon="15.1929915"><ele>691.0</ele><time>2026-04-25T14:29:02.465Z</time></trkpt><trkpt lat="40.7807621" lon="15.1929186"><ele>695.3333333333333</ele><time>2026-04-25T14:29:03.445Z</time></trkpt><trkpt lat="40.7807412" lon="15.1928274"><ele>699.6666666666666</ele><time>2026-04-25T14:29:04.459Z</time></trkpt><trkpt lat="40.7807418" lon="15.1927185"><ele>704.0</ele><time>2026-04-25T14:29:05.453Z</time></trkpt><trkpt lat="40.780743" lon="15.1926087"><ele>704.0</ele><time>2026-04-25T14:29:06.444Z</time></trkpt><trkpt lat="40.7807777" lon="15.1924861"><ele>704.0</ele><time>2026-04-25T14:29:07.458Z</time></trkpt><trkpt lat="40.7808115" lon="15.1923671"><ele>704.0</ele><time>2026-04-25T14:29:08.456Z</time></trkpt><trkpt lat="40.780843" lon="15.1922576"><ele>704.0</ele><time>2026-04-25T14:29:09.458Z</time></trkpt><trkpt lat="40.7808703" lon="15.192158"><ele>704.0</ele><time>2026-04-25T14:29:10.447Z</time></trkpt><trkpt lat="40.780875" lon="15.1920747"><ele>704.0</ele><time>2026-04-25T14:29:11.455Z</time></trkpt><trkpt lat="40.7807991" lon="15.1919454"><ele>701.8000000000001</ele><time>2026-04-25T14:29:13.461Z</time></trkpt><trkpt lat="40.7807302" lon="15.1918597"><ele>699.6</ele><time>2026-04-25T14:29:14.449Z</time></trkpt><trkpt lat="40.7806603" lon="15.1917585"><ele>697.4</ele><time>2026-04-25T14:29:15.453Z</time></trkpt><trkpt lat="40.7805976" lon="15.1916372"><ele>695.2</ele><time>2026-04-25T14:29:16.46Z</time></trkpt><trkpt lat="40.7805374" lon="15.1915096"><ele>693.0</ele><time>2026-04-25T14:29:17.461Z</time></trkpt><trkpt lat="40.780479" lon="15.1913652"><ele>698.75</ele><time>2026-04-25T14:29:18.443Z</time></trkpt><trkpt lat="40.7804163" lon="15.1912216"><ele>704.5</ele><time>2026-04-25T14:29:19.454Z</time></trkpt><trkpt lat="40.7803472" lon="15.1910809"><ele>710.25</ele><time>2026-04-25T14:29:20.452Z</time></trkpt><trkpt lat="40.7802608" lon="15.1909532"><ele>716.0</ele><time>2026-04-25T14:29:21.447Z</time></trkpt><trkpt lat="40.7801752" lon="15.1908378"><ele>716.0</ele><time>2026-04-25T14:29:22.462Z</time></trkpt><trkpt lat="40.7800734" lon="15.1907246"><ele>716.0</ele><time>2026-04-25T14:29:23.461Z</time></trkpt><trkpt lat="40.7799598" lon="15.1906376"><ele>716.0</ele><time>2026-04-25T14:29:24.458Z</time></trkpt><trkpt lat="40.779862" lon="15.1905579"><ele>716.0</ele><time>2026-04-25T14:29:25.458Z</time></trkpt><trkpt lat="40.7797963" lon="15.1904793"><ele>712.3333333333333</ele><time>2026-04-25T14:29:26.449Z</time></trkpt><trkpt lat="40.7797556" lon="15.1903962"><ele>708.6666666666666</ele><time>2026-04-25T14:29:27.453Z</time></trkpt><trkpt lat="40.7797197" lon="15.1903168"><ele>705.0</ele><time>2026-04-25T14:29:28.451Z</time></trkpt><trkpt lat="40.7797281" lon="15.1902312"><ele>701.3333333333334</ele><time>2026-04-25T14:29:29.455Z</time></trkpt><trkpt lat="40.77972" lon="15.1901254"><ele>697.6666666666667</ele><time>2026-04-25T14:29:30.45Z</time></trkpt><trkpt lat="40.7796883" lon="15.1900016"><ele>694.0</ele><time>2026-04-25T14:29:31.456Z</time></trkpt><trkpt lat="40.779655" lon="15.1898727"><ele>690.2</ele><time>2026-04-25T14:29:32.454Z</time></trkpt><trkpt lat="40.7795995" lon="15.1897347"><ele>686.4000000000001</ele><time>2026-04-25T14:29:33.452Z</time></trkpt><trkpt lat="40.7795405" lon="15.1896127"><ele>682.6</ele><time>2026-04-25T14:29:34.454Z</time></trkpt><trkpt lat="40.7794841" lon="15.1895081"><ele>678.8</ele><time>2026-04-25T14:29:35.452Z</time></trkpt><trkpt lat="40.7794338" lon="15.1894147"><ele>675.0</ele><time>2026-04-25T14:29:36.462Z</time></trkpt><trkpt lat="40.779381" lon="15.1893483"><ele>683.0</ele><time>2026-04-25T14:29:37.467Z</time></trkpt><trkpt lat="40.7792708" lon="15.1893455"><ele>691.0</ele><time>2026-04-25T14:29:39.458Z</time></trkpt><trkpt lat="40.7792177" lon="15.1894027"><ele>699.0</ele><time>2026-04-25T14:29:40.457Z</time></trkpt><trkpt lat="40.779166" lon="15.1894845"><ele>707.0</ele><time>2026-04-25T14:29:41.457Z</time></trkpt><trkpt lat="40.7791192" lon="15.1895473"><ele>715.0</ele><time>2026-04-25T14:29:42.455Z</time></trkpt><trkpt lat="40.7790597" lon="15.1895768"><ele>723.0</ele><time>2026-04-25T14:29:44.454Z</time></trkpt><trkpt lat="40.7789898" lon="15.1894967"><ele>723.0</ele><time>2026-04-25T14:29:46.454Z</time></trkpt><trkpt lat="40.7789587" lon="15.1894144"><ele>723.0</ele><time>2026-04-25T14:29:47.447Z</time></trkpt><trkpt lat="40.7789586" lon="15.1893036"><ele>723.0</ele><time>2026-04-25T14:29:48.446Z</time></trkpt><trkpt lat="40.7790026" lon="15.1891813"><ele>723.0</ele><time>2026-04-25T14:29:49.449Z</time></trkpt><trkpt lat="40.7790319" lon="15.1890645"><ele>723.0</ele><time>2026-04-25T14:29:50.449Z</time></trkpt><trkpt lat="40.7790766" lon="15.1889403"><ele>721.5</ele><time>2026-04-25T14:29:51.448Z</time></trkpt><trkpt lat="40.7790974" lon="15.1888337"><ele>720.0</ele><time>2026-04-25T14:29:52.453Z</time></trkpt><trkpt lat="40.7791057" lon="15.1887312"><ele>718.5</ele><time>2026-04-25T14:29:53.456Z</time></trkpt><trkpt lat="40.7790888" lon="15.1886388"><ele>717.0</ele><time>2026-04-25T14:29:54.448Z</time></trkpt><trkpt lat="40.7790574" lon="15.188543"><ele>715.5</ele><time>2026-04-25T14:29:55.452Z</time></trkpt><trkpt lat="40.7790109" lon="15.188457"><ele>714.0</ele><time>2026-04-25T14:29:56.454Z</time></trkpt><trkpt lat="40.7789531" lon="15.1883747"><ele>714.0</ele><time>2026-04-25T14:29:57.452Z</time></trkpt><trkpt lat="40.7788924" lon="15.1882961"><ele>714.0</ele><time>2026-04-25T14:29:58.448Z</time></trkpt><trkpt lat="40.7788311" lon="15.1882259"><ele>714.0</ele><time>2026-04-25T14:29:59.452Z</time></trkpt><trkpt lat="40.7787659" lon="15.1881443"><ele>714.0</ele><time>2026-04-25T14:30:00.451Z</time></trkpt><trkpt lat="40.7786971" lon="15.1880549"><ele>714.0</ele><time>2026-04-25T14:30:01.45Z</time></trkpt><trkpt lat="40.7786188" lon="15.1879584"><ele>717.6</ele><time>2026-04-25T14:30:02.451Z</time></trkpt><trkpt lat="40.7785482" lon="15.1878573"><ele>721.2</ele><time>2026-04-25T14:30:03.457Z</time></trkpt><trkpt lat="40.7784902" lon="15.1877461"><ele>724.8000000000001</ele><time>2026-04-25T14:30:04.449Z</time></trkpt><trkpt lat="40.7784447" lon="15.1876202"><ele>728.4000000000001</ele><time>2026-04-25T14:30:05.455Z</time></trkpt><trkpt lat="40.7784013" lon="15.1874718"><ele>732.0</ele><time>2026-04-25T14:30:06.445Z</time></trkpt><trkpt lat="40.7783715" lon="15.1873179"><ele>732.0</ele><time>2026-04-25T14:30:07.454Z</time></trkpt><trkpt lat="40.7783586" lon="15.1871642"><ele>732.0</ele><time>2026-04-25T14:30:08.45Z</time></trkpt><trkpt lat="40.7783364" lon="15.1870124"><ele>732.0</ele><time>2026-04-25T14:30:09.456Z</time></trkpt><trkpt lat="40.778317" lon="15.1868577"><ele>732.0</ele><time>2026-04-25T14:30:10.459Z</time></trkpt><trkpt lat="40.7782815" lon="15.1867223"><ele>732.0</ele><time>2026-04-25T14:30:11.465Z</time></trkpt><trkpt lat="40.7782557" lon="15.1865949"><ele>732.0</ele><time>2026-04-25T14:30:12.451Z</time></trkpt><trkpt lat="40.7781981" lon="15.1865226"><ele>732.0</ele><time>2026-04-25T14:30:13.45Z</time></trkpt><trkpt lat="40.7781413" lon="15.1864513"><ele>732.0</ele><time>2026-04-25T14:30:14.453Z</time></trkpt><trkpt lat="40.7780815" lon="15.1863844"><ele>732.0</ele><time>2026-04-25T14:30:15.46Z</time></trkpt><trkpt lat="40.778021" lon="15.1862901"><ele>732.0</ele><time>2026-04-25T14:30:16.463Z</time></trkpt><trkpt lat="40.777979" lon="15.1861796"><ele>727.4000000000001</ele><time>2026-04-25T14:30:17.447Z</time></trkpt><trkpt lat="40.7779419" lon="15.1860702"><ele>722.8000000000001</ele><time>2026-04-25T14:30:18.463Z</time></trkpt><trkpt lat="40.7779081" lon="15.1859699"><ele>718.2</ele><time>2026-04-25T14:30:19.46Z</time></trkpt><trkpt lat="40.7778636" lon="15.1858605"><ele>713.6</ele><time>2026-04-25T14:30:20.454Z</time></trkpt><trkpt lat="40.7778078" lon="15.1857518"><ele>709.0</ele><time>2026-04-25T14:30:21.449Z</time></trkpt><trkpt lat="40.7777416" lon="15.1856404"><ele>717.0</ele><time>2026-04-25T14:30:22.462Z</time></trkpt><trkpt lat="40.7776675" lon="15.1855321"><ele>725.0</ele><time>2026-04-25T14:30:23.464Z</time></trkpt><trkpt lat="40.777596" lon="15.1854296"><ele>733.0</ele><time>2026-04-25T14:30:24.454Z</time></trkpt><trkpt lat="40.777529" lon="15.1853134"><ele>741.0</ele><time>2026-04-25T14:30:25.448Z</time></trkpt><trkpt lat="40.7774694" lon="15.1852113"><ele>749.0</ele><time>2026-04-25T14:30:26.451Z</time></trkpt><trkpt lat="40.7774197" lon="15.1850926"><ele>749.0</ele><time>2026-04-25T14:30:27.457Z</time></trkpt><trkpt lat="40.7773696" lon="15.1849706"><ele>749.0</ele><time>2026-04-25T14:30:28.462Z</time></trkpt><trkpt lat="40.7773247" lon="15.1848658"><ele>749.0</ele><time>2026-04-25T14:30:29.451Z</time></trkpt><trkpt lat="40.77728" lon="15.1847848"><ele>749.0</ele><time>2026-04-25T14:30:30.463Z</time></trkpt><trkpt lat="40.7772173" lon="15.1847229"><ele>749.0</ele><time>2026-04-25T14:30:31.465Z</time></trkpt><trkpt lat="40.7771406" lon="15.1847034"><ele>749.0</ele><time>2026-04-25T14:30:32.451Z</time></trkpt><trkpt lat="40.7770602" lon="15.1847182"><ele>749.6666666666666</ele><time>2026-04-25T14:30:33.462Z</time></trkpt><trkpt lat="40.776967" lon="15.1847475"><ele>750.3333333333333</ele><time>2026-04-25T14:30:34.456Z</time></trkpt><trkpt lat="40.7768775" lon="15.1847663"><ele>751.0</ele><time>2026-04-25T14:30:35.449Z</time></trkpt><trkpt lat="40.7768008" lon="15.1847698"><ele>751.6666666666666</ele><time>2026-04-25T14:30:36.455Z</time></trkpt><trkpt lat="40.776719" lon="15.184732"><ele>752.3333333333334</ele><time>2026-04-25T14:30:37.46Z</time></trkpt><trkpt lat="40.7766545" lon="15.184664"><ele>753.0</ele><time>2026-04-25T14:30:38.445Z</time></trkpt><trkpt lat="40.7765847" lon="15.1845716"><ele>753.0</ele><time>2026-04-25T14:30:39.46Z</time></trkpt><trkpt lat="40.7765362" lon="15.1844469"><ele>753.0</ele><time>2026-04-25T14:30:40.452Z</time></trkpt><trkpt lat="40.7765089" lon="15.184321"><ele>753.0</ele><time>2026-04-25T14:30:41.458Z</time></trkpt><trkpt lat="40.7764829" lon="15.1842088"><ele>753.0</ele><time>2026-04-25T14:30:42.454Z</time></trkpt><trkpt lat="40.7764494" lon="15.1840998"><ele>753.0</ele><time>2026-04-25T14:30:43.455Z</time></trkpt><trkpt lat="40.7763914" lon="15.1839827"><ele>746.75</ele><time>2026-04-25T14:30:44.457Z</time></trkpt><trkpt lat="40.7763213" lon="15.1838588"><ele>740.5</ele><time>2026-04-25T14:30:45.451Z</time></trkpt><trkpt lat="40.7762503" lon="15.1837408"><ele>734.25</ele><time>2026-04-25T14:30:46.457Z</time></trkpt><trkpt lat="40.7761747" lon="15.183614"><ele>728.0</ele><time>2026-04-25T14:30:47.463Z</time></trkpt><trkpt lat="40.7760984" lon="15.1834966"><ele>735.5</ele><time>2026-04-25T14:30:48.448Z</time></trkpt><trkpt lat="40.7760176" lon="15.1833768"><ele>743.0</ele><time>2026-04-25T14:30:49.46Z</time></trkpt><trkpt lat="40.775939" lon="15.1832561"><ele>750.5</ele><time>2026-04-25T14:30:50.456Z</time></trkpt><trkpt lat="40.7758746" lon="15.1831215"><ele>758.0</ele><time>2026-04-25T14:30:51.448Z</time></trkpt><trkpt lat="40.77581" lon="15.1829826"><ele>758.0</ele><time>2026-04-25T14:30:52.47Z</time></trkpt><trkpt lat="40.7757479" lon="15.1828426"><ele>758.0</ele><time>2026-04-25T14:30:53.452Z</time></trkpt><trkpt lat="40.7756866" lon="15.1827073"><ele>758.0</ele><time>2026-04-25T14:30:54.449Z</time></trkpt><trkpt lat="40.7756156" lon="15.1825732"><ele>758.0</ele><time>2026-04-25T14:30:55.47Z</time></trkpt><trkpt lat="40.7755311" lon="15.1824391"><ele>757.5</ele><time>2026-04-25T14:30:56.452Z</time></trkpt><trkpt lat="40.7754518" lon="15.182301"><ele>757.0</ele><time>2026-04-25T14:30:57.448Z</time></trkpt><trkpt lat="40.7753638" lon="15.1821594"><ele>756.5</ele><time>2026-04-25T14:30:58.453Z</time></trkpt><trkpt lat="40.7752728" lon="15.1820173"><ele>756.0</ele><time>2026-04-25T14:30:59.454Z</time></trkpt><trkpt lat="40.7751791" lon="15.1818731"><ele>762.25</ele><time>2026-04-25T14:31:00.451Z</time></trkpt><trkpt lat="40.7750842" lon="15.1817308"><ele>768.5</ele><time>2026-04-25T14:31:01.455Z</time></trkpt><trkpt lat="40.7749896" lon="15.1815902"><ele>774.75</ele><time>2026-04-25T14:31:02.459Z</time></trkpt><trkpt lat="40.7748937" lon="15.1814578"><ele>781.0</ele><time>2026-04-25T14:31:03.459Z</time></trkpt><trkpt lat="40.7747974" lon="15.1813267"><ele>781.0</ele><time>2026-04-25T14:31:04.452Z</time></trkpt><trkpt lat="40.7747002" lon="15.1812073"><ele>781.0</ele><time>2026-04-25T14:31:05.455Z</time></trkpt><trkpt lat="40.7746026" lon="15.1810855"><ele>781.0</ele><time>2026-04-25T14:31:06.456Z</time></trkpt><trkpt lat="40.7745105" lon="15.1809649"><ele>781.0</ele><time>2026-04-25T14:31:07.445Z</time></trkpt><trkpt lat="40.7744162" lon="15.1808283"><ele>786.0</ele><time>2026-04-25T14:31:08.455Z</time></trkpt><trkpt lat="40.7743321" lon="15.1806852"><ele>791.0</ele><time>2026-04-25T14:31:09.446Z</time></trkpt><trkpt lat="40.7742348" lon="15.1805325"><ele>796.0</ele><time>2026-04-25T14:31:10.457Z</time></trkpt><trkpt lat="40.7741416" lon="15.1803755"><ele>801.0</ele><time>2026-04-25T14:31:11.464Z</time></trkpt><trkpt lat="40.774052" lon="15.1802124"><ele>801.0</ele><time>2026-04-25T14:31:12.445Z</time></trkpt><trkpt lat="40.7739808" lon="15.1800504"><ele>801.0</ele><time>2026-04-25T14:31:13.46Z</time></trkpt><trkpt lat="40.7739255" lon="15.1798892"><ele>801.0</ele><time>2026-04-25T14:31:14.457Z</time></trkpt><trkpt lat="40.7738827" lon="15.1797321"><ele>801.0</ele><time>2026-04-25T14:31:15.45Z</time></trkpt><trkpt lat="40.7738334" lon="15.1795827"><ele>799.75</ele><time>2026-04-25T14:31:16.458Z</time></trkpt><trkpt lat="40.7737789" lon="15.1794374"><ele>798.5</ele><time>2026-04-25T14:31:17.459Z</time></trkpt><trkpt lat="40.7737095" lon="15.1793032"><ele>797.25</ele><time>2026-04-25T14:31:18.447Z</time></trkpt><trkpt lat="40.7736425" lon="15.1791707"><ele>796.0</ele><time>2026-04-25T14:31:19.455Z</time></trkpt><trkpt lat="40.7735756" lon="15.1790383"><ele>799.75</ele><time>2026-04-25T14:31:20.454Z</time></trkpt><trkpt lat="40.7735052" lon="15.1789036"><ele>803.5</ele><time>2026-04-25T14:31:21.46Z</time></trkpt><trkpt lat="40.7734347" lon="15.1787648"><ele>807.25</ele><time>2026-04-25T14:31:22.455Z</time></trkpt><trkpt lat="40.7733619" lon="15.1786226"><ele>811.0</ele><time>2026-04-25T14:31:23.449Z</time></trkpt><trkpt lat="40.7732911" lon="15.1784762"><ele>811.0</ele><time>2026-04-25T14:31:24.454Z</time></trkpt><trkpt lat="40.7732203" lon="15.1783375"><ele>811.0</ele><time>2026-04-25T14:31:25.458Z</time></trkpt><trkpt lat="40.7731539" lon="15.1782056"><ele>811.0</ele><time>2026-04-25T14:31:26.453Z</time></trkpt><trkpt lat="40.7730933" lon="15.1780749"><ele>811.0</ele><time>2026-04-25T14:31:27.461Z</time></trkpt><trkpt lat="40.7730273" lon="15.1779529"><ele>811.0</ele><time>2026-04-25T14:31:28.455Z</time></trkpt><trkpt lat="40.7729572" lon="15.1778332"><ele>811.0</ele><time>2026-04-25T14:31:29.454Z</time></trkpt><trkpt lat="40.7728843" lon="15.1777232"><ele>811.0</ele><time>2026-04-25T14:31:30.446Z</time></trkpt><trkpt lat="40.7728103" lon="15.1776128"><ele>811.0</ele><time>2026-04-25T14:31:31.462Z</time></trkpt><trkpt lat="40.7727378" lon="15.1775041"><ele>811.0</ele><time>2026-04-25T14:31:32.45Z</time></trkpt><trkpt lat="40.7726866" lon="15.1773835"><ele>816.8</ele><time>2026-04-25T14:31:33.474Z</time></trkpt><trkpt lat="40.7726417" lon="15.1772574"><ele>822.5999999999999</ele><time>2026-04-25T14:31:34.452Z</time></trkpt><trkpt lat="40.7725931" lon="15.1771292"><ele>828.4</ele><time>2026-04-25T14:31:35.469Z</time></trkpt><trkpt lat="40.7725435" lon="15.1770064"><ele>834.2</ele><time>2026-04-25T14:31:36.451Z</time></trkpt><trkpt lat="40.7724975" lon="15.1768932"><ele>840.0</ele><time>2026-04-25T14:31:37.461Z</time></trkpt><trkpt lat="40.7724728" lon="15.1767905"><ele>840.0</ele><time>2026-04-25T14:31:38.466Z</time></trkpt><trkpt lat="40.7724546" lon="15.1767001"><ele>840.0</ele><time>2026-04-25T14:31:39.456Z</time></trkpt><trkpt lat="40.7724826" lon="15.1766227"><ele>840.0</ele><time>2026-04-25T14:31:40.457Z</time></trkpt><trkpt lat="40.7725385" lon="15.1765535"><ele>840.0</ele><time>2026-04-25T14:31:41.451Z</time></trkpt><trkpt lat="40.7726227" lon="15.1764888"><ele>840.0</ele><time>2026-04-25T14:31:42.449Z</time></trkpt><trkpt lat="40.7727275" lon="15.1764407"><ele>840.0</ele><time>2026-04-25T14:31:43.466Z</time></trkpt><trkpt lat="40.772835" lon="15.1764007"><ele>841.2</ele><time>2026-04-25T14:31:44.458Z</time></trkpt><trkpt lat="40.7729405" lon="15.1763669"><ele>842.4</ele><time>2026-04-25T14:31:45.465Z</time></trkpt><trkpt lat="40.773043" lon="15.1763193"><ele>843.5999999999999</ele><time>2026-04-25T14:31:46.464Z</time></trkpt><trkpt lat="40.7731334" lon="15.1762681"><ele>844.8</ele><time>2026-04-25T14:31:47.456Z</time></trkpt><trkpt lat="40.7732139" lon="15.1762119"><ele>846.0</ele><time>2026-04-25T14:31:48.459Z</time></trkpt><trkpt lat="40.7732907" lon="15.1761579"><ele>846.0</ele><time>2026-04-25T14:31:49.461Z</time></trkpt><trkpt lat="40.7733532" lon="15.1760855"><ele>846.0</ele><time>2026-04-25T14:31:50.449Z</time></trkpt><trkpt lat="40.7734112" lon="15.176018"><ele>846.0</ele><time>2026-04-25T14:31:51.459Z</time></trkpt><trkpt lat="40.7734357" lon="15.1759168"><ele>846.0</ele><time>2026-04-25T14:31:52.462Z</time></trkpt><trkpt lat="40.773438" lon="15.1757979"><ele>846.0</ele><time>2026-04-25T14:31:53.458Z</time></trkpt><trkpt lat="40.7733995" lon="15.1756737"><ele>846.0</ele><time>2026-04-25T14:31:54.463Z</time></trkpt><trkpt lat="40.7733488" lon="15.1755351"><ele>846.25</ele><time>2026-04-25T14:31:55.471Z</time></trkpt><trkpt lat="40.7732946" lon="15.1753992"><ele>846.5</ele><time>2026-04-25T14:31:56.464Z</time></trkpt><trkpt lat="40.7732314" lon="15.1752612"><ele>846.75</ele><time>2026-04-25T14:31:57.469Z</time></trkpt><trkpt lat="40.7731605" lon="15.1751202"><ele>847.0</ele><time>2026-04-25T14:31:58.461Z</time></trkpt><trkpt lat="40.7730906" lon="15.1749751"><ele>849.75</ele><time>2026-04-25T14:31:59.465Z</time></trkpt><trkpt lat="40.7730312" lon="15.1748196"><ele>852.5</ele><time>2026-04-25T14:32:00.459Z</time></trkpt><trkpt lat="40.7729781" lon="15.1746746"><ele>855.25</ele><time>2026-04-25T14:32:01.466Z</time></trkpt><trkpt lat="40.7729398" lon="15.1745394"><ele>858.0</ele><time>2026-04-25T14:32:02.458Z</time></trkpt><trkpt lat="40.7729223" lon="15.1744152"><ele>858.0</ele><time>2026-04-25T14:32:03.473Z</time></trkpt><trkpt lat="40.7729318" lon="15.1743006"><ele>858.0</ele><time>2026-04-25T14:32:04.46Z</time></trkpt><trkpt lat="40.7729406" lon="15.1741886"><ele>858.0</ele><time>2026-04-25T14:32:05.455Z</time></trkpt><trkpt lat="40.7729876" lon="15.1740959"><ele>858.0</ele><time>2026-04-25T14:32:06.456Z</time></trkpt><trkpt lat="40.7730519" lon="15.1740119"><ele>858.0</ele><time>2026-04-25T14:32:07.457Z</time></trkpt><trkpt lat="40.7731378" lon="15.1739402"><ele>858.0</ele><time>2026-04-25T14:32:08.456Z</time></trkpt><trkpt lat="40.7732426" lon="15.1738723"><ele>856.5</ele><time>2026-04-25T14:32:09.464Z</time></trkpt><trkpt lat="40.7733624" lon="15.1738061"><ele>855.0</ele><time>2026-04-25T14:32:10.458Z</time></trkpt><trkpt lat="40.773469" lon="15.1737336"><ele>853.5</ele><time>2026-04-25T14:32:11.449Z</time></trkpt><trkpt lat="40.773573" lon="15.1736617"><ele>852.0</ele><time>2026-04-25T14:32:12.456Z</time></trkpt><trkpt lat="40.7736596" lon="15.1735608"><ele>852.0</ele><time>2026-04-25T14:32:13.455Z</time></trkpt><trkpt lat="40.7737304" lon="15.173449"><ele>852.0</ele><time>2026-04-25T14:32:14.455Z</time></trkpt><trkpt lat="40.7737779" lon="15.1733306"><ele>852.0</ele><time>2026-04-25T14:32:15.475Z</time></trkpt><trkpt lat="40.7738113" lon="15.1731992"><ele>852.0</ele><time>2026-04-25T14:32:16.456Z</time></trkpt><trkpt lat="40.7738118" lon="15.1730659"><ele>852.0</ele><time>2026-04-25T14:32:17.454Z</time></trkpt><trkpt lat="40.7738107" lon="15.1729395"><ele>852.4000000000001</ele><time>2026-04-25T14:32:18.457Z</time></trkpt><trkpt lat="40.77377" lon="15.1728326"><ele>852.8000000000001</ele><time>2026-04-25T14:32:19.462Z</time></trkpt><trkpt lat="40.7737141" lon="15.1727368"><ele>853.2</ele><time>2026-04-25T14:32:20.454Z</time></trkpt><trkpt lat="40.7736423" lon="15.1726741"><ele>853.6</ele><time>2026-04-25T14:32:21.457Z</time></trkpt><trkpt lat="40.7735537" lon="15.1726193"><ele>854.0</ele><time>2026-04-25T14:32:22.453Z</time></trkpt><trkpt lat="40.7734456" lon="15.1725581"><ele>856.4000000000001</ele><time>2026-04-25T14:32:23.45Z</time></trkpt><trkpt lat="40.7733346" lon="15.17251"><ele>858.8000000000001</ele><time>2026-04-25T14:32:24.451Z</time></trkpt><trkpt lat="40.7732302" lon="15.1724685"><ele>861.1999999999999</ele><time>2026-04-25T14:32:25.455Z</time></trkpt><trkpt lat="40.7731521" lon="15.1724234"><ele>863.5999999999999</ele><time>2026-04-25T14:32:26.457Z</time></trkpt><trkpt lat="40.7730902" lon="15.1723666"><ele>866.0</ele><time>2026-04-25T14:32:27.449Z</time></trkpt><trkpt lat="40.7730451" lon="15.1722781"><ele>866.0</ele><time>2026-04-25T14:32:28.467Z</time></trkpt><trkpt lat="40.7730151" lon="15.1721557"><ele>865.9999999999999</ele><time>2026-04-25T14:32:29.457Z</time></trkpt><trkpt lat="40.7729874" lon="15.1720247"><ele>865.9999999999999</ele><time>2026-04-25T14:32:30.449Z</time></trkpt><trkpt lat="40.772963" lon="15.1718834"><ele>866.0</ele><time>2026-04-25T14:32:31.461Z</time></trkpt><trkpt lat="40.7729185" lon="15.1717269"><ele>866.0</ele><time>2026-04-25T14:32:32.45Z</time></trkpt><trkpt lat="40.7728782" lon="15.1715793"><ele>865.75</ele><time>2026-04-25T14:32:33.457Z</time></trkpt><trkpt lat="40.7728079" lon="15.1714434"><ele>865.5</ele><time>2026-04-25T14:32:34.462Z</time></trkpt><trkpt lat="40.7727236" lon="15.1713109"><ele>865.25</ele><time>2026-04-25T14:32:35.461Z</time></trkpt><trkpt lat="40.7726381" lon="15.1711741"><ele>865.0</ele><time>2026-04-25T14:32:36.455Z</time></trkpt><trkpt lat="40.7725502" lon="15.1710165"><ele>867.75</ele><time>2026-04-25T14:32:37.463Z</time></trkpt><trkpt lat="40.7724662" lon="15.1708608"><ele>870.5</ele><time>2026-04-25T14:32:38.457Z</time></trkpt><trkpt lat="40.7723873" lon="15.1707055"><ele>873.25</ele><time>2026-04-25T14:32:39.451Z</time></trkpt><trkpt lat="40.7723216" lon="15.1705631"><ele>876.0</ele><time>2026-04-25T14:32:40.462Z</time></trkpt><trkpt lat="40.7722345" lon="15.1704674"><ele>876.0</ele><time>2026-04-25T14:32:41.466Z</time></trkpt><trkpt lat="40.772106" lon="15.1703891"><ele>876.0</ele><time>2026-04-25T14:32:42.456Z</time></trkpt><trkpt lat="40.7719707" lon="15.1702981"><ele>876.0</ele><time>2026-04-25T14:32:43.459Z</time></trkpt><trkpt lat="40.7718451" lon="15.170216"><ele>876.0</ele><time>2026-04-25T14:32:44.46Z</time></trkpt><trkpt lat="40.7717191" lon="15.1701348"><ele>879.0</ele><time>2026-04-25T14:32:45.457Z</time></trkpt><trkpt lat="40.771598" lon="15.1700692"><ele>882.0</ele><time>2026-04-25T14:32:46.466Z</time></trkpt><trkpt lat="40.7714831" lon="15.1700004"><ele>885.0</ele><time>2026-04-25T14:32:47.461Z</time></trkpt><trkpt lat="40.7713733" lon="15.1699278"><ele>888.0</ele><time>2026-04-25T14:32:48.455Z</time></trkpt><trkpt lat="40.7712725" lon="15.1698404"><ele>888.0</ele><time>2026-04-25T14:32:49.451Z</time></trkpt><trkpt lat="40.7711853" lon="15.169717"><ele>888.0</ele><time>2026-04-25T14:32:50.452Z</time></trkpt><trkpt lat="40.7711005" lon="15.1696022"><ele>888.0</ele><time>2026-04-25T14:32:51.463Z</time></trkpt><trkpt lat="40.771017" lon="15.1694958"><ele>888.0</ele><time>2026-04-25T14:32:52.455Z</time></trkpt><trkpt lat="40.7709359" lon="15.169401"><ele>892.4</ele><time>2026-04-25T14:32:53.449Z</time></trkpt><trkpt lat="40.770839" lon="15.1693349"><ele>896.8</ele><time>2026-04-25T14:32:54.467Z</time></trkpt><trkpt lat="40.770738" lon="15.1692916"><ele>901.2</ele><time>2026-04-25T14:32:55.454Z</time></trkpt><trkpt lat="40.7706433" lon="15.1692528"><ele>905.6</ele><time>2026-04-25T14:32:56.452Z</time></trkpt><trkpt lat="40.77056" lon="15.1692116"><ele>910.0</ele><time>2026-04-25T14:32:57.465Z</time></trkpt><trkpt lat="40.770483" lon="15.1691685"><ele>909.9999999999999</ele><time>2026-04-25T14:32:58.456Z</time></trkpt><trkpt lat="40.7704295" lon="15.1691147"><ele>910.0</ele><time>2026-04-25T14:32:59.455Z</time></trkpt><trkpt lat="40.7703841" lon="15.1690471"><ele>910.0</ele><time>2026-04-25T14:33:00.463Z</time></trkpt><trkpt lat="40.7703572" lon="15.1689488"><ele>910.0</ele><time>2026-04-25T14:33:01.462Z</time></trkpt><trkpt lat="40.7703235" lon="15.1688331"><ele>909.9999999999999</ele><time>2026-04-25T14:33:02.456Z</time></trkpt><trkpt lat="40.7702997" lon="15.1687061"><ele>910.0</ele><time>2026-04-25T14:33:03.457Z</time></trkpt><trkpt lat="40.7702627" lon="15.1685817"><ele>911.4</ele><time>2026-04-25T14:33:04.457Z</time></trkpt><trkpt lat="40.7702237" lon="15.1684639"><ele>912.8</ele><time>2026-04-25T14:33:05.458Z</time></trkpt><trkpt lat="40.7701689" lon="15.1683372"><ele>914.2</ele><time>2026-04-25T14:33:06.454Z</time></trkpt><trkpt lat="40.7700927" lon="15.1682256"><ele>915.6</ele><time>2026-04-25T14:33:07.461Z</time></trkpt><trkpt lat="40.7700074" lon="15.1681211"><ele>917.0</ele><time>2026-04-25T14:33:08.46Z</time></trkpt><trkpt lat="40.7699207" lon="15.1680378"><ele>912.0</ele><time>2026-04-25T14:33:09.464Z</time></trkpt><trkpt lat="40.7698379" lon="15.1679928"><ele>907.0</ele><time>2026-04-25T14:33:10.465Z</time></trkpt><trkpt lat="40.7697494" lon="15.167985"><ele>902.0</ele><time>2026-04-25T14:33:11.462Z</time></trkpt><trkpt lat="40.7696585" lon="15.1680135"><ele>897.0</ele><time>2026-04-25T14:33:12.502Z</time></trkpt><trkpt lat="40.7695644" lon="15.1680672"><ele>892.0</ele><time>2026-04-25T14:33:13.46Z</time></trkpt><trkpt lat="40.7694734" lon="15.1681194"><ele>892.0</ele><time>2026-04-25T14:33:14.468Z</time></trkpt><trkpt lat="40.7693835" lon="15.1681645"><ele>892.0</ele><time>2026-04-25T14:33:15.477Z</time></trkpt><trkpt lat="40.7692928" lon="15.1682066"><ele>892.0</ele><time>2026-04-25T14:33:16.465Z</time></trkpt><trkpt lat="40.769206" lon="15.168207"><ele>892.0</ele><time>2026-04-25T14:33:17.459Z</time></trkpt><trkpt lat="40.7691168" lon="15.1681678"><ele>892.0</ele><time>2026-04-25T14:33:18.466Z</time></trkpt><trkpt lat="40.7690228" lon="15.1681151"><ele>893.6</ele><time>2026-04-25T14:33:19.454Z</time></trkpt><trkpt lat="40.768927" lon="15.1680563"><ele>895.2</ele><time>2026-04-25T14:33:20.457Z</time></trkpt><trkpt lat="40.7688266" lon="15.1679794"><ele>896.8</ele><time>2026-04-25T14:33:21.45Z</time></trkpt><trkpt lat="40.7687407" lon="15.1678857"><ele>898.4</ele><time>2026-04-25T14:33:22.459Z</time></trkpt><trkpt lat="40.7686632" lon="15.1677834"><ele>900.0</ele><time>2026-04-25T14:33:23.47Z</time></trkpt><trkpt lat="40.7685918" lon="15.1676839"><ele>905.4</ele><time>2026-04-25T14:33:24.45Z</time></trkpt><trkpt lat="40.7684908" lon="15.1675958"><ele>910.8</ele><time>2026-04-25T14:33:25.459Z</time></trkpt><trkpt lat="40.7684075" lon="15.1675384"><ele>916.2</ele><time>2026-04-25T14:33:26.46Z</time></trkpt><trkpt lat="40.7683143" lon="15.167527"><ele>921.6</ele><time>2026-04-25T14:33:27.46Z</time></trkpt><trkpt lat="40.7682378" lon="15.1675402"><ele>927.0</ele><time>2026-04-25T14:33:28.46Z</time></trkpt><trkpt lat="40.7681272" lon="15.1675561"><ele>927.0</ele><time>2026-04-25T14:33:30.449Z</time></trkpt><trkpt lat="40.7680229" lon="15.1674702"><ele>927.0</ele><time>2026-04-25T14:33:32.449Z</time></trkpt><trkpt lat="40.7680136" lon="15.1673824"><ele>927.0</ele><time>2026-04-25T14:33:33.443Z</time></trkpt><trkpt lat="40.7680162" lon="15.1672802"><ele>927.0</ele><time>2026-04-25T14:33:34.456Z</time></trkpt><trkpt lat="40.7680238" lon="15.1671704"><ele>927.0</ele><time>2026-04-25T14:33:35.466Z</time></trkpt><trkpt lat="40.7680685" lon="15.1670487"><ele>924.3333333333334</ele><time>2026-04-25T14:33:36.451Z</time></trkpt><trkpt lat="40.768103" lon="15.1669109"><ele>921.6666666666667</ele><time>2026-04-25T14:33:37.453Z</time></trkpt><trkpt lat="40.7681353" lon="15.1667921"><ele>919.0</ele><time>2026-04-25T14:33:38.453Z</time></trkpt><trkpt lat="40.7681601" lon="15.1666772"><ele>916.3333333333334</ele><time>2026-04-25T14:33:39.453Z</time></trkpt><trkpt lat="40.7681759" lon="15.166584"><ele>913.6666666666667</ele><time>2026-04-25T14:33:40.448Z</time></trkpt><trkpt lat="40.7681813" lon="15.166498"><ele>911.0</ele><time>2026-04-25T14:33:41.459Z</time></trkpt><trkpt lat="40.7681552" lon="15.1664144"><ele>910.0</ele><time>2026-04-25T14:33:42.461Z</time></trkpt><trkpt lat="40.7680833" lon="15.1663704"><ele>908.9999999999999</ele><time>2026-04-25T14:33:43.464Z</time></trkpt><trkpt lat="40.7680039" lon="15.1663202"><ele>907.9999999999999</ele><time>2026-04-25T14:33:44.462Z</time></trkpt><trkpt lat="40.7679079" lon="15.166299"><ele>907.0</ele><time>2026-04-25T14:33:45.455Z</time></trkpt><trkpt lat="40.7677997" lon="15.166293"><ele>906.0</ele><time>2026-04-25T14:33:46.463Z</time></trkpt><trkpt lat="40.7676798" lon="15.1662789"><ele>909.5</ele><time>2026-04-25T14:33:47.464Z</time></trkpt><trkpt lat="40.7675727" lon="15.1662378"><ele>913.0</ele><time>2026-04-25T14:33:48.466Z</time></trkpt><trkpt lat="40.7674631" lon="15.1661641"><ele>916.5</ele><time>2026-04-25T14:33:49.47Z</time></trkpt><trkpt lat="40.7673661" lon="15.1660818"><ele>920.0</ele><time>2026-04-25T14:33:50.465Z</time></trkpt><trkpt lat="40.7672824" lon="15.1659996"><ele>920.0</ele><time>2026-04-25T14:33:51.468Z</time></trkpt><trkpt lat="40.7672112" lon="15.1659069"><ele>920.0</ele><time>2026-04-25T14:33:52.451Z</time></trkpt><trkpt lat="40.7671638" lon="15.1657859"><ele>920.0</ele><time>2026-04-25T14:33:53.461Z</time></trkpt><trkpt lat="40.7671216" lon="15.1656616"><ele>920.0</ele><time>2026-04-25T14:33:54.46Z</time></trkpt><trkpt lat="40.7670677" lon="15.1655354"><ele>920.0</ele><time>2026-04-25T14:33:55.457Z</time></trkpt><trkpt lat="40.7670291" lon="15.1654182"><ele>918.8</ele><time>2026-04-25T14:33:56.457Z</time></trkpt><trkpt lat="40.7669927" lon="15.1652834"><ele>917.6</ele><time>2026-04-25T14:33:57.45Z</time></trkpt><trkpt lat="40.7669688" lon="15.1651422"><ele>916.4000000000001</ele><time>2026-04-25T14:33:58.461Z</time></trkpt><trkpt lat="40.7669519" lon="15.165012"><ele>915.2</ele><time>2026-04-25T14:33:59.463Z</time></trkpt><trkpt lat="40.7669294" lon="15.164895"><ele>914.0</ele><time>2026-04-25T14:34:00.451Z</time></trkpt><trkpt lat="40.7668998" lon="15.164795"><ele>916.0</ele><time>2026-04-25T14:34:01.465Z</time></trkpt><trkpt lat="40.7668617" lon="15.1646882"><ele>918.0000000000001</ele><time>2026-04-25T14:34:02.469Z</time></trkpt><trkpt lat="40.7668077" lon="15.164588"><ele>920.0000000000001</ele><time>2026-04-25T14:34:03.451Z</time></trkpt><trkpt lat="40.7667427" lon="15.1644774"><ele>922.0</ele><time>2026-04-25T14:34:04.462Z</time></trkpt><trkpt lat="40.7666824" lon="15.1643712"><ele>924.0</ele><time>2026-04-25T14:34:05.471Z</time></trkpt><trkpt lat="40.7666015" lon="15.1642604"><ele>924.0</ele><time>2026-04-25T14:34:06.468Z</time></trkpt><trkpt lat="40.766511" lon="15.164157"><ele>924.0</ele><time>2026-04-25T14:34:07.45Z</time></trkpt><trkpt lat="40.7664049" lon="15.1640483"><ele>924.0</ele><time>2026-04-25T14:34:08.464Z</time></trkpt><trkpt lat="40.7663173" lon="15.1639463"><ele>924.0</ele><time>2026-04-25T14:34:09.466Z</time></trkpt><trkpt lat="40.7662282" lon="15.1638466"><ele>924.2</ele><time>2026-04-25T14:34:10.454Z</time></trkpt><trkpt lat="40.7661361" lon="15.1637428"><ele>924.4000000000001</ele><time>2026-04-25T14:34:11.458Z</time></trkpt><trkpt lat="40.7660601" lon="15.1636745"><ele>924.6</ele><time>2026-04-25T14:34:12.455Z</time></trkpt><trkpt lat="40.7659638" lon="15.1636632"><ele>924.8</ele><time>2026-04-25T14:34:13.453Z</time></trkpt><trkpt lat="40.7658573" lon="15.1636873"><ele>925.0</ele><time>2026-04-25T14:34:14.451Z</time></trkpt><trkpt lat="40.7657435" lon="15.163715"><ele>925.6</ele><time>2026-04-25T14:34:15.458Z</time></trkpt><trkpt lat="40.7656394" lon="15.1637262"><ele>926.2</ele><time>2026-04-25T14:34:16.458Z</time></trkpt><trkpt lat="40.7655346" lon="15.1637236"><ele>926.8</ele><time>2026-04-25T14:34:17.47Z</time></trkpt><trkpt lat="40.7654349" lon="15.1637141"><ele>927.4</ele><time>2026-04-25T14:34:18.45Z</time></trkpt><trkpt lat="40.7653403" lon="15.1636775"><ele>928.0</ele><time>2026-04-25T14:34:19.47Z</time></trkpt><trkpt lat="40.7652374" lon="15.1636342"><ele>933.2</ele><time>2026-04-25T14:34:20.46Z</time></trkpt><trkpt lat="40.7651253" lon="15.1635777"><ele>938.4</ele><time>2026-04-25T14:34:21.454Z</time></trkpt><trkpt lat="40.7650263" lon="15.1635432"><ele>943.6000000000001</ele><time>2026-04-25T14:34:22.457Z</time></trkpt><trkpt lat="40.7649408" lon="15.1635131"><ele>948.8000000000001</ele><time>2026-04-25T14:34:23.451Z</time></trkpt><trkpt lat="40.7648361" lon="15.1634456"><ele>954.0</ele><time>2026-04-25T14:34:25.455Z</time></trkpt><trkpt lat="40.764798" lon="15.1633178"><ele>957.2</ele><time>2026-04-25T14:34:27.457Z</time></trkpt><trkpt lat="40.7648572" lon="15.1631703"><ele>960.4000000000001</ele><time>2026-04-25T14:34:29.453Z</time></trkpt><trkpt lat="40.764922" lon="15.1630994"><ele>963.6</ele><time>2026-04-25T14:34:30.46Z</time></trkpt><trkpt lat="40.7649881" lon="15.1630243"><ele>966.8</ele><time>2026-04-25T14:34:31.457Z</time></trkpt><trkpt lat="40.7650528" lon="15.1629318"><ele>970.0</ele><time>2026-04-25T14:34:32.466Z</time></trkpt><trkpt lat="40.7651304" lon="15.1628349"><ele>966.8</ele><time>2026-04-25T14:34:33.46Z</time></trkpt><trkpt lat="40.7652077" lon="15.1627396"><ele>963.6</ele><time>2026-04-25T14:34:34.449Z</time></trkpt><trkpt lat="40.7652935" lon="15.1626417"><ele>960.4000000000001</ele><time>2026-04-25T14:34:35.455Z</time></trkpt><trkpt lat="40.7653625" lon="15.1625476"><ele>957.2</ele><time>2026-04-25T14:34:36.447Z</time></trkpt><trkpt lat="40.7653907" lon="15.1624549"><ele>954.0</ele><time>2026-04-25T14:34:37.447Z</time></trkpt><trkpt lat="40.7653759" lon="15.1623177"><ele>954.0</ele><time>2026-04-25T14:34:39.454Z</time></trkpt><trkpt lat="40.7652851" lon="15.1622968"><ele>954.0</ele><time>2026-04-25T14:34:42.449Z</time></trkpt><trkpt lat="40.7652184" lon="15.1623922"><ele>954.0</ele><time>2026-04-25T14:34:44.454Z</time></trkpt><trkpt lat="40.765185" lon="15.1623132"><ele>954.0</ele><time>2026-04-25T14:34:47.45Z</time></trkpt><trkpt lat="40.7652177" lon="15.1622197"><ele>954.0</ele><time>2026-04-25T14:34:48.454Z</time></trkpt><trkpt lat="40.7652643" lon="15.1621328"><ele>954.0</ele><time>2026-04-25T14:34:49.442Z</time></trkpt><trkpt lat="40.7653092" lon="15.1620475"><ele>954.0</ele><time>2026-04-25T14:34:50.461Z</time></trkpt><trkpt lat="40.7653623" lon="15.1619525"><ele>954.0000000000001</ele><time>2026-04-25T14:34:51.465Z</time></trkpt><trkpt lat="40.7654167" lon="15.1618541"><ele>954.0000000000001</ele><time>2026-04-25T14:34:52.453Z</time></trkpt><trkpt lat="40.7654628" lon="15.16172"><ele>954.0</ele><time>2026-04-25T14:34:53.45Z</time></trkpt><trkpt lat="40.7655067" lon="15.1615913"><ele>954.0</ele><time>2026-04-25T14:34:54.461Z</time></trkpt><trkpt lat="40.7655476" lon="15.1614612"><ele>956.0</ele><time>2026-04-25T14:34:55.458Z</time></trkpt><trkpt lat="40.7655769" lon="15.1613364"><ele>958.0000000000001</ele><time>2026-04-25T14:34:56.459Z</time></trkpt><trkpt lat="40.7656067" lon="15.1612186"><ele>960.0000000000001</ele><time>2026-04-25T14:34:57.462Z</time></trkpt><trkpt lat="40.7656073" lon="15.1610875"><ele>962.0</ele><time>2026-04-25T14:34:58.452Z</time></trkpt><trkpt lat="40.7655819" lon="15.1609678"><ele>964.0</ele><time>2026-04-25T14:34:59.45Z</time></trkpt><trkpt lat="40.7655433" lon="15.160849"><ele>964.0</ele><time>2026-04-25T14:35:00.459Z</time></trkpt><trkpt lat="40.7654954" lon="15.160733"><ele>964.0000000000001</ele><time>2026-04-25T14:35:01.463Z</time></trkpt><trkpt lat="40.76545" lon="15.1606252"><ele>964.0000000000001</ele><time>2026-04-25T14:35:02.461Z</time></trkpt><trkpt lat="40.7654045" lon="15.1605288"><ele>964.0</ele><time>2026-04-25T14:35:03.453Z</time></trkpt><trkpt lat="40.7653494" lon="15.16045"><ele>964.0</ele><time>2026-04-25T14:35:04.472Z</time></trkpt><trkpt lat="40.7652707" lon="15.1603859"><ele>966.6</ele><time>2026-04-25T14:35:05.462Z</time></trkpt><trkpt lat="40.7651627" lon="15.1603656"><ele>969.2</ele><time>2026-04-25T14:35:06.456Z</time></trkpt><trkpt lat="40.7650593" lon="15.1603583"><ele>971.8000000000001</ele><time>2026-04-25T14:35:07.463Z</time></trkpt><trkpt lat="40.7649573" lon="15.1603655"><ele>974.4000000000001</ele><time>2026-04-25T14:35:08.456Z</time></trkpt><trkpt lat="40.7648665" lon="15.1603592"><ele>977.0</ele><time>2026-04-25T14:35:09.455Z</time></trkpt><trkpt lat="40.7647781" lon="15.1603586"><ele>977.0000000000001</ele><time>2026-04-25T14:35:10.457Z</time></trkpt><trkpt lat="40.7647046" lon="15.1603567"><ele>977.0</ele><time>2026-04-25T14:35:11.457Z</time></trkpt><trkpt lat="40.7646445" lon="15.1603311"><ele>977.0</ele><time>2026-04-25T14:35:12.459Z</time></trkpt><trkpt lat="40.7646002" lon="15.1602605"><ele>977.0</ele><time>2026-04-25T14:35:13.453Z</time></trkpt><trkpt lat="40.7645562" lon="15.1601767"><ele>977.0000000000001</ele><time>2026-04-25T14:35:14.456Z</time></trkpt><trkpt lat="40.7645272" lon="15.160076"><ele>977.0</ele><time>2026-04-25T14:35:15.459Z</time></trkpt><trkpt lat="40.7644885" lon="15.1599655"><ele>977.2</ele><time>2026-04-25T14:35:16.459Z</time></trkpt><trkpt lat="40.7644428" lon="15.1598271"><ele>977.4000000000001</ele><time>2026-04-25T14:35:17.45Z</time></trkpt><trkpt lat="40.7643909" lon="15.1596855"><ele>977.5999999999999</ele><time>2026-04-25T14:35:18.462Z</time></trkpt><trkpt lat="40.7643348" lon="15.1595521"><ele>977.8</ele><time>2026-04-25T14:35:19.463Z</time></trkpt><trkpt lat="40.7642788" lon="15.1594426"><ele>978.0</ele><time>2026-04-25T14:35:20.454Z</time></trkpt><trkpt lat="40.7642194" lon="15.1593629"><ele>979.0</ele><time>2026-04-25T14:35:21.464Z</time></trkpt><trkpt lat="40.7641491" lon="15.1593079"><ele>980.0</ele><time>2026-04-25T14:35:22.454Z</time></trkpt><trkpt lat="40.7640562" lon="15.1592903"><ele>981.0</ele><time>2026-04-25T14:35:23.457Z</time></trkpt><trkpt lat="40.76395" lon="15.1592762"><ele>982.0</ele><time>2026-04-25T14:35:24.457Z</time></trkpt><trkpt lat="40.7638394" lon="15.1592513"><ele>983.0</ele><time>2026-04-25T14:35:25.451Z</time></trkpt><trkpt lat="40.7637275" lon="15.1592073"><ele>983.0</ele><time>2026-04-25T14:35:26.459Z</time></trkpt><trkpt lat="40.7636307" lon="15.1591675"><ele>983.0</ele><time>2026-04-25T14:35:27.502Z</time></trkpt><trkpt lat="40.7635314" lon="15.1591367"><ele>983.0</ele><time>2026-04-25T14:35:28.46Z</time></trkpt><trkpt lat="40.763421" lon="15.1591093"><ele>983.0</ele><time>2026-04-25T14:35:29.445Z</time></trkpt><trkpt lat="40.7633234" lon="15.159099"><ele>983.0</ele><time>2026-04-25T14:35:30.468Z</time></trkpt><trkpt lat="40.76323" lon="15.1590845"><ele>985.0</ele><time>2026-04-25T14:35:31.465Z</time></trkpt><trkpt lat="40.7631393" lon="15.1590582"><ele>987.0</ele><time>2026-04-25T14:35:32.462Z</time></trkpt><trkpt lat="40.7630622" lon="15.1590135"><ele>989.0</ele><time>2026-04-25T14:35:33.451Z</time></trkpt><trkpt lat="40.763004" lon="15.1588957"><ele>991.0</ele><time>2026-04-25T14:35:34.456Z</time></trkpt><trkpt lat="40.7629699" lon="15.1587671"><ele>993.0</ele><time>2026-04-25T14:35:35.465Z</time></trkpt><trkpt lat="40.7629502" lon="15.1586303"><ele>993.0</ele><time>2026-04-25T14:35:36.458Z</time></trkpt><trkpt lat="40.7629392" lon="15.1585023"><ele>993.0</ele><time>2026-04-25T14:35:37.463Z</time></trkpt><trkpt lat="40.7629424" lon="15.1583855"><ele>993.0</ele><time>2026-04-25T14:35:38.454Z</time></trkpt><trkpt lat="40.7629589" lon="15.1582511"><ele>993.0</ele><time>2026-04-25T14:35:39.448Z</time></trkpt><trkpt lat="40.7629824" lon="15.1581156"><ele>993.0</ele><time>2026-04-25T14:35:40.461Z</time></trkpt><trkpt lat="40.7630133" lon="15.1580146"><ele>994.0</ele><time>2026-04-25T14:35:41.473Z</time></trkpt><trkpt lat="40.7630703" lon="15.1579386"><ele>995.0</ele><time>2026-04-25T14:35:42.446Z</time></trkpt><trkpt lat="40.7631605" lon="15.1578804"><ele>996.0</ele><time>2026-04-25T14:35:43.457Z</time></trkpt><trkpt lat="40.7632459" lon="15.1578163"><ele>997.0</ele><time>2026-04-25T14:35:44.456Z</time></trkpt><trkpt lat="40.7633159" lon="15.1577484"><ele>998.0</ele><time>2026-04-25T14:35:45.45Z</time></trkpt><trkpt lat="40.7633759" lon="15.1576861"><ele>999.0</ele><time>2026-04-25T14:35:46.458Z</time></trkpt><trkpt lat="40.7634144" lon="15.1576096"><ele>999.0</ele><time>2026-04-25T14:35:47.453Z</time></trkpt><trkpt lat="40.7634269" lon="15.1575168"><ele>999.0</ele><time>2026-04-25T14:35:48.458Z</time></trkpt><trkpt lat="40.7633889" lon="15.1574292"><ele>999.0</ele><time>2026-04-25T14:35:49.452Z</time></trkpt><trkpt lat="40.7633661" lon="15.1573142"><ele>999.0</ele><time>2026-04-25T14:35:50.455Z</time></trkpt><trkpt lat="40.7633566" lon="15.1571892"><ele>999.0</ele><time>2026-04-25T14:35:51.447Z</time></trkpt><trkpt lat="40.7633699" lon="15.1570624"><ele>999.0</ele><time>2026-04-25T14:35:52.454Z</time></trkpt><trkpt lat="40.7633977" lon="15.1569424"><ele>999.6</ele><time>2026-04-25T14:35:53.463Z</time></trkpt><trkpt lat="40.7634225" lon="15.1568268"><ele>1000.2</ele><time>2026-04-25T14:35:54.459Z</time></trkpt><trkpt lat="40.7634455" lon="15.1567133"><ele>1000.8000000000001</ele><time>2026-04-25T14:35:55.448Z</time></trkpt><trkpt lat="40.7634441" lon="15.1565921"><ele>1001.4000000000001</ele><time>2026-04-25T14:35:56.453Z</time></trkpt><trkpt lat="40.7634239" lon="15.1564698"><ele>1002.0</ele><time>2026-04-25T14:35:57.477Z</time></trkpt><trkpt lat="40.7633599" lon="15.1563476"><ele>1002.0</ele><time>2026-04-25T14:35:58.449Z</time></trkpt><trkpt lat="40.7632676" lon="15.1562548"><ele>1002.0</ele><time>2026-04-25T14:35:59.45Z</time></trkpt><trkpt lat="40.7631807" lon="15.1561691"><ele>1002.0</ele><time>2026-04-25T14:36:00.471Z</time></trkpt><trkpt lat="40.7630741" lon="15.1561215"><ele>1002.0</ele><time>2026-04-25T14:36:01.47Z</time></trkpt><trkpt lat="40.7629591" lon="15.156118"><ele>1002.0</ele><time>2026-04-25T14:36:02.46Z</time></trkpt><trkpt lat="40.762839" lon="15.1561103"><ele>1002.0</ele><time>2026-04-25T14:36:03.461Z</time></trkpt><trkpt lat="40.7627376" lon="15.1560811"><ele>1002.0</ele><time>2026-04-25T14:36:04.463Z</time></trkpt><trkpt lat="40.7626335" lon="15.1560526"><ele>1002.0</ele><time>2026-04-25T14:36:05.453Z</time></trkpt><trkpt lat="40.7625549" lon="15.1559758"><ele>1002.0</ele><time>2026-04-25T14:36:06.477Z</time></trkpt><trkpt lat="40.7624933" lon="15.1558914"><ele>1003.6</ele><time>2026-04-25T14:36:07.461Z</time></trkpt><trkpt lat="40.7624259" lon="15.1557802"><ele>1005.2</ele><time>2026-04-25T14:36:08.481Z</time></trkpt><trkpt lat="40.7623784" lon="15.1556538"><ele>1006.8</ele><time>2026-04-25T14:36:09.478Z</time></trkpt><trkpt lat="40.7623355" lon="15.1555188"><ele>1008.4</ele><time>2026-04-25T14:36:10.482Z</time></trkpt><trkpt lat="40.7622961" lon="15.1553801"><ele>1010.0</ele><time>2026-04-25T14:36:11.468Z</time></trkpt><trkpt lat="40.7622664" lon="15.1552342"><ele>1010.0</ele><time>2026-04-25T14:36:12.464Z</time></trkpt><trkpt lat="40.7622392" lon="15.1550886"><ele>1010.0</ele><time>2026-04-25T14:36:13.457Z</time></trkpt><trkpt lat="40.7622142" lon="15.1549409"><ele>1010.0</ele><time>2026-04-25T14:36:14.447Z</time></trkpt><trkpt lat="40.7621995" lon="15.1547919"><ele>1010.0</ele><time>2026-04-25T14:36:15.456Z</time></trkpt><trkpt lat="40.7622021" lon="15.1546355"><ele>1010.0</ele><time>2026-04-25T14:36:16.457Z</time></trkpt><trkpt lat="40.7622033" lon="15.1544778"><ele>1010.0</ele><time>2026-04-25T14:36:17.447Z</time></trkpt><trkpt lat="40.7622071" lon="15.1543307"><ele>1010.0</ele><time>2026-04-25T14:36:18.459Z</time></trkpt><trkpt lat="40.7622103" lon="15.1541819"><ele>1010.0</ele><time>2026-04-25T14:36:19.462Z</time></trkpt><trkpt lat="40.7622156" lon="15.1540335"><ele>1010.2</ele><time>2026-04-25T14:36:20.445Z</time></trkpt><trkpt lat="40.7622171" lon="15.1538941"><ele>1010.4</ele><time>2026-04-25T14:36:21.47Z</time></trkpt><trkpt lat="40.7622197" lon="15.1537483"><ele>1010.5999999999999</ele><time>2026-04-25T14:36:22.458Z</time></trkpt><trkpt lat="40.7622157" lon="15.1536071"><ele>1010.8</ele><time>2026-04-25T14:36:23.454Z</time></trkpt><trkpt lat="40.7622028" lon="15.153488"><ele>1011.0</ele><time>2026-04-25T14:36:24.45Z</time></trkpt><trkpt lat="40.7621829" lon="15.1533744"><ele>1011.0</ele><time>2026-04-25T14:36:25.461Z</time></trkpt><trkpt lat="40.7621617" lon="15.1532867"><ele>1011.0</ele><time>2026-04-25T14:36:26.488Z</time></trkpt><trkpt lat="40.7621202" lon="15.1532072"><ele>1011.0</ele><time>2026-04-25T14:36:27.47Z</time></trkpt><trkpt lat="40.7620494" lon="15.1531523"><ele>1011.0</ele><time>2026-04-25T14:36:28.444Z</time></trkpt><trkpt lat="40.7619699" lon="15.1531149"><ele>1011.0</ele><time>2026-04-25T14:36:29.452Z</time></trkpt><trkpt lat="40.7618988" lon="15.1530438"><ele>1011.0</ele><time>2026-04-25T14:36:30.457Z</time></trkpt><trkpt lat="40.7618346" lon="15.1529537"><ele>1012.25</ele><time>2026-04-25T14:36:31.447Z</time></trkpt><trkpt lat="40.7617798" lon="15.1528474"><ele>1013.5</ele><time>2026-04-25T14:36:32.455Z</time></trkpt><trkpt lat="40.7617322" lon="15.1527228"><ele>1014.75</ele><time>2026-04-25T14:36:33.461Z</time></trkpt><trkpt lat="40.7616744" lon="15.1525838"><ele>1016.0</ele><time>2026-04-25T14:36:34.451Z</time></trkpt><trkpt lat="40.7616213" lon="15.1524319"><ele>1017.0</ele><time>2026-04-25T14:36:35.452Z</time></trkpt><trkpt lat="40.7615523" lon="15.152261"><ele>1018.0</ele><time>2026-04-25T14:36:36.452Z</time></trkpt><trkpt lat="40.7614954" lon="15.1521086"><ele>1019.0</ele><time>2026-04-25T14:36:37.449Z</time></trkpt><trkpt lat="40.7614536" lon="15.1519624"><ele>1020.0</ele><time>2026-04-25T14:36:38.454Z</time></trkpt><trkpt lat="40.7614159" lon="15.1518279"><ele>1020.0</ele><time>2026-04-25T14:36:39.458Z</time></trkpt><trkpt lat="40.7613644" lon="15.1516972"><ele>1020.0</ele><time>2026-04-25T14:36:40.449Z</time></trkpt><trkpt lat="40.7613126" lon="15.1515716"><ele>1020.0</ele><time>2026-04-25T14:36:41.453Z</time></trkpt><trkpt lat="40.7612376" lon="15.1514351"><ele>1020.0</ele><time>2026-04-25T14:36:42.444Z</time></trkpt><trkpt lat="40.7611341" lon="15.1513019"><ele>1022.75</ele><time>2026-04-25T14:36:43.461Z</time></trkpt><trkpt lat="40.761045" lon="15.1511697"><ele>1025.5</ele><time>2026-04-25T14:36:44.451Z</time></trkpt><trkpt lat="40.7609563" lon="15.1510444"><ele>1028.25</ele><time>2026-04-25T14:36:45.46Z</time></trkpt><trkpt lat="40.7608642" lon="15.1509105"><ele>1031.0</ele><time>2026-04-25T14:36:46.462Z</time></trkpt><trkpt lat="40.7608003" lon="15.1508191"><ele>1031.0</ele><time>2026-04-25T14:36:47.453Z</time></trkpt><trkpt lat="40.760735" lon="15.1507251"><ele>1031.0</ele><time>2026-04-25T14:36:48.452Z</time></trkpt><trkpt lat="40.7606651" lon="15.1506479"><ele>1031.0</ele><time>2026-04-25T14:36:49.466Z</time></trkpt><trkpt lat="40.7605837" lon="15.1505659"><ele>1031.0</ele><time>2026-04-25T14:36:50.458Z</time></trkpt><trkpt lat="40.7604897" lon="15.1504667"><ele>1031.0</ele><time>2026-04-25T14:36:51.457Z</time></trkpt><trkpt lat="40.7603872" lon="15.1503636"><ele>1032.25</ele><time>2026-04-25T14:36:52.451Z</time></trkpt><trkpt lat="40.7602654" lon="15.1502481"><ele>1033.5</ele><time>2026-04-25T14:36:53.455Z</time></trkpt><trkpt lat="40.7601482" lon="15.1501343"><ele>1034.75</ele><time>2026-04-25T14:36:54.455Z</time></trkpt><trkpt lat="40.7600455" lon="15.1500162"><ele>1036.0</ele><time>2026-04-25T14:36:55.457Z</time></trkpt><trkpt lat="40.7599441" lon="15.1499054"><ele>1038.5</ele><time>2026-04-25T14:36:56.484Z</time></trkpt><trkpt lat="40.7598525" lon="15.1497882"><ele>1041.0</ele><time>2026-04-25T14:36:57.455Z</time></trkpt><trkpt lat="40.7597693" lon="15.1496633"><ele>1043.5</ele><time>2026-04-25T14:36:58.448Z</time></trkpt><trkpt lat="40.7596881" lon="15.1495471"><ele>1046.0</ele><time>2026-04-25T14:36:59.46Z</time></trkpt><trkpt lat="40.7596326" lon="15.1494246"><ele>1046.0</ele><time>2026-04-25T14:37:00.452Z</time></trkpt><trkpt lat="40.7595947" lon="15.1492792"><ele>1046.0</ele><time>2026-04-25T14:37:01.45Z</time></trkpt><trkpt lat="40.7595592" lon="15.1491309"><ele>1046.0</ele><time>2026-04-25T14:37:02.448Z</time></trkpt><trkpt lat="40.7595225" lon="15.1489832"><ele>1046.0</ele><time>2026-04-25T14:37:03.455Z</time></trkpt><trkpt lat="40.7594825" lon="15.1488422"><ele>1047.0</ele><time>2026-04-25T14:37:04.445Z</time></trkpt><trkpt lat="40.7594295" lon="15.1486873"><ele>1048.0</ele><time>2026-04-25T14:37:05.451Z</time></trkpt><trkpt lat="40.7593767" lon="15.1485414"><ele>1049.0</ele><time>2026-04-25T14:37:06.45Z</time></trkpt><trkpt lat="40.7593228" lon="15.1483711"><ele>1050.0</ele><time>2026-04-25T14:37:07.451Z</time></trkpt><trkpt lat="40.7592493" lon="15.1482173"><ele>1052.5</ele><time>2026-04-25T14:37:08.448Z</time></trkpt><trkpt lat="40.7591742" lon="15.1480558"><ele>1055.0</ele><time>2026-04-25T14:37:09.447Z</time></trkpt><trkpt lat="40.7590994" lon="15.1478928"><ele>1057.5</ele><time>2026-04-25T14:37:10.449Z</time></trkpt><trkpt lat="40.7590257" lon="15.1477202"><ele>1060.0</ele><time>2026-04-25T14:37:11.455Z</time></trkpt><trkpt lat="40.7589368" lon="15.1475412"><ele>1064.0</ele><time>2026-04-25T14:37:12.445Z</time></trkpt><trkpt lat="40.7588533" lon="15.1473585"><ele>1068.0</ele><time>2026-04-25T14:37:13.447Z</time></trkpt><trkpt lat="40.7587733" lon="15.1471832"><ele>1072.0</ele><time>2026-04-25T14:37:14.455Z</time></trkpt><trkpt lat="40.7586762" lon="15.1470062"><ele>1072.0</ele><time>2026-04-25T14:37:15.443Z</time></trkpt><trkpt lat="40.7585933" lon="15.1468303"><ele>1072.0</ele><time>2026-04-25T14:37:16.461Z</time></trkpt><trkpt lat="40.7585096" lon="15.1466524"><ele>1072.0</ele><time>2026-04-25T14:37:17.468Z</time></trkpt><trkpt lat="40.7584173" lon="15.1464813"><ele>1071.25</ele><time>2026-04-25T14:37:18.45Z</time></trkpt><trkpt lat="40.7583257" lon="15.1463203"><ele>1070.5</ele><time>2026-04-25T14:37:19.449Z</time></trkpt><trkpt lat="40.7582606" lon="15.1461603"><ele>1069.75</ele><time>2026-04-25T14:37:20.442Z</time></trkpt><trkpt lat="40.7582156" lon="15.1460158"><ele>1069.0</ele><time>2026-04-25T14:37:21.448Z</time></trkpt><trkpt lat="40.7581924" lon="15.145877"><ele>1069.0</ele><time>2026-04-25T14:37:22.446Z</time></trkpt><trkpt lat="40.7581728" lon="15.1457609"><ele>1069.0</ele><time>2026-04-25T14:37:23.451Z</time></trkpt><trkpt lat="40.7581702" lon="15.1456214"><ele>1069.0</ele><time>2026-04-25T14:37:24.456Z</time></trkpt><trkpt lat="40.7582164" lon="15.1455039"><ele>1069.0</ele><time>2026-04-25T14:37:25.442Z</time></trkpt><trkpt lat="40.7582582" lon="15.1454318"><ele>1069.0</ele><time>2026-04-25T14:37:26.448Z</time></trkpt><trkpt lat="40.7583262" lon="15.1454012"><ele>1069.0</ele><time>2026-04-25T14:37:27.444Z</time></trkpt><trkpt lat="40.7584693" lon="15.1453756"><ele>1072.25</ele><time>2026-04-25T14:37:29.446Z</time></trkpt><trkpt lat="40.7585738" lon="15.1454091"><ele>1075.5</ele><time>2026-04-25T14:37:30.452Z</time></trkpt><trkpt lat="40.7586619" lon="15.1454493"><ele>1078.75</ele><time>2026-04-25T14:37:31.449Z</time></trkpt><trkpt lat="40.758868" lon="15.1454752"><ele>1082.0</ele><time>2026-04-25T14:37:33.454Z</time></trkpt><trkpt lat="40.7589625" lon="15.1455455"><ele>1082.0</ele><time>2026-04-25T14:37:34.46Z</time></trkpt><trkpt lat="40.7590288" lon="15.1455586"><ele>1082.0</ele><time>2026-04-25T14:37:35.446Z</time></trkpt><trkpt lat="40.7591133" lon="15.1454422"><ele>1082.0</ele><time>2026-04-25T14:37:38.451Z</time></trkpt><trkpt lat="40.7590849" lon="15.1453372"><ele>1082.0</ele><time>2026-04-25T14:37:39.445Z</time></trkpt><trkpt lat="40.7590623" lon="15.1452385"><ele>1082.0</ele><time>2026-04-25T14:37:40.45Z</time></trkpt><trkpt lat="40.7590513" lon="15.1451266"><ele>1082.0</ele><time>2026-04-25T14:37:41.445Z</time></trkpt><trkpt lat="40.7590496" lon="15.1449961"><ele>1082.6</ele><time>2026-04-25T14:37:42.452Z</time></trkpt><trkpt lat="40.7590565" lon="15.1448628"><ele>1083.2</ele><time>2026-04-25T14:37:43.446Z</time></trkpt><trkpt lat="40.759069" lon="15.1447364"><ele>1083.8</ele><time>2026-04-25T14:37:44.45Z</time></trkpt><trkpt lat="40.7590762" lon="15.1445973"><ele>1084.4</ele><time>2026-04-25T14:37:45.452Z</time></trkpt><trkpt lat="40.7591042" lon="15.1444577"><ele>1085.0</ele><time>2026-04-25T14:37:46.451Z</time></trkpt><trkpt lat="40.759117" lon="15.1443254"><ele>1085.0</ele><time>2026-04-25T14:37:47.451Z</time></trkpt><trkpt lat="40.7591338" lon="15.1441977"><ele>1085.0</ele><time>2026-04-25T14:37:48.448Z</time></trkpt><trkpt lat="40.7591257" lon="15.1440911"><ele>1085.0</ele><time>2026-04-25T14:37:49.521Z</time></trkpt><trkpt lat="40.7590708" lon="15.1439824"><ele>1085.0</ele><time>2026-04-25T14:37:50.45Z</time></trkpt><trkpt lat="40.7590048" lon="15.1438885"><ele>1085.0</ele><time>2026-04-25T14:37:51.456Z</time></trkpt><trkpt lat="40.7589483" lon="15.1437978"><ele>1084.3333333333335</ele><time>2026-04-25T14:37:52.452Z</time></trkpt><trkpt lat="40.7588854" lon="15.1437097"><ele>1083.6666666666667</ele><time>2026-04-25T14:37:53.449Z</time></trkpt><trkpt lat="40.7588258" lon="15.1436102"><ele>1083.0</ele><time>2026-04-25T14:37:54.451Z</time></trkpt><trkpt lat="40.75876" lon="15.1435243"><ele>1082.3333333333333</ele><time>2026-04-25T14:37:55.457Z</time></trkpt><trkpt lat="40.7587184" lon="15.1434588"><ele>1081.6666666666665</ele><time>2026-04-25T14:37:56.451Z</time></trkpt><trkpt lat="40.7586899" lon="15.1433459"><ele>1081.0</ele><time>2026-04-25T14:38:50.447Z</time></trkpt><trkpt lat="40.758706" lon="15.1432581"><ele>1082.8333333333333</ele><time>2026-04-25T14:38:52.446Z</time></trkpt><trkpt lat="40.758764" lon="15.1431334"><ele>1084.6666666666665</ele><time>2026-04-25T14:38:54.453Z</time></trkpt><trkpt lat="40.7588143" lon="15.143061"><ele>1086.5</ele><time>2026-04-25T14:38:55.455Z</time></trkpt><trkpt lat="40.7588677" lon="15.1429797"><ele>1088.3333333333333</ele><time>2026-04-25T14:38:56.445Z</time></trkpt><trkpt lat="40.7589133" lon="15.142904"><ele>1090.1666666666667</ele><time>2026-04-25T14:38:57.462Z</time></trkpt><trkpt lat="40.7589595" lon="15.1428403"><ele>1092.0</ele><time>2026-04-25T14:38:58.458Z</time></trkpt><trkpt lat="40.7589836" lon="15.1427275"><ele>1092.0</ele><time>2026-04-25T14:38:59.457Z</time></trkpt><trkpt lat="40.7589946" lon="15.142634"><ele>1092.0</ele><time>2026-04-25T14:39:00.446Z</time></trkpt><trkpt lat="40.7589702" lon="15.1425569"><ele>1092.0</ele><time>2026-04-25T14:39:01.448Z</time></trkpt><trkpt lat="40.7589419" lon="15.1424759"><ele>1092.0</ele><time>2026-04-25T14:39:02.445Z</time></trkpt><trkpt lat="40.7588995" lon="15.1423879"><ele>1092.0</ele><time>2026-04-25T14:39:03.45Z</time></trkpt><trkpt lat="40.7588342" lon="15.1423128"><ele>1092.0</ele><time>2026-04-25T14:39:04.456Z</time></trkpt><trkpt lat="40.7587897" lon="15.1422338"><ele>1092.0</ele><time>2026-04-25T14:39:05.446Z</time></trkpt><trkpt lat="40.7587445" lon="15.1421408"><ele>1093.8333333333333</ele><time>2026-04-25T14:39:06.451Z</time></trkpt><trkpt lat="40.7587318" lon="15.1420363"><ele>1095.6666666666667</ele><time>2026-04-25T14:39:07.458Z</time></trkpt><trkpt lat="40.7587324" lon="15.1419295"><ele>1097.5</ele><time>2026-04-25T14:39:08.459Z</time></trkpt><trkpt lat="40.7587002" lon="15.1417553"><ele>1099.3333333333335</ele><time>2026-04-25T14:39:09.448Z</time></trkpt><trkpt lat="40.7586818" lon="15.1416411"><ele>1101.1666666666667</ele><time>2026-04-25T14:39:10.452Z</time></trkpt><trkpt lat="40.7586541" lon="15.1415654"><ele>1103.0</ele><time>2026-04-25T14:39:11.461Z</time></trkpt><trkpt lat="40.7586377" lon="15.1414223"><ele>1105.8333333333335</ele><time>2026-04-25T14:39:13.45Z</time></trkpt><trkpt lat="40.7586735" lon="15.1412952"><ele>1108.6666666666667</ele><time>2026-04-25T14:39:15.509Z</time></trkpt><trkpt lat="40.7587667" lon="15.1412365"><ele>1111.5</ele><time>2026-04-25T14:39:17.448Z</time></trkpt><trkpt lat="40.7588379" lon="15.1412332"><ele>1114.3333333333333</ele><time>2026-04-25T14:39:18.455Z</time></trkpt><trkpt lat="40.7589289" lon="15.1412611"><ele>1117.1666666666665</ele><time>2026-04-25T14:39:19.455Z</time></trkpt><trkpt lat="40.7589875" lon="15.1413123"><ele>1120.0</ele><time>2026-04-25T14:39:20.449Z</time></trkpt><trkpt lat="40.7590614" lon="15.1413814"><ele>1120.0</ele><time>2026-04-25T14:39:21.448Z</time></trkpt><trkpt lat="40.7591478" lon="15.1414459"><ele>1120.0</ele><time>2026-04-25T14:39:22.463Z</time></trkpt><trkpt lat="40.7592465" lon="15.1415052"><ele>1120.0</ele><time>2026-04-25T14:39:23.456Z</time></trkpt><trkpt lat="40.7593428" lon="15.141557"><ele>1120.0</ele><time>2026-04-25T14:39:24.451Z</time></trkpt><trkpt lat="40.7594393" lon="15.1416061"><ele>1120.0</ele><time>2026-04-25T14:39:25.462Z</time></trkpt><trkpt lat="40.7595386" lon="15.1416564"><ele>1120.75</ele><time>2026-04-25T14:39:26.459Z</time></trkpt><trkpt lat="40.7596521" lon="15.1417164"><ele>1121.5</ele><time>2026-04-25T14:39:27.451Z</time></trkpt><trkpt lat="40.7597525" lon="15.1417905"><ele>1122.25</ele><time>2026-04-25T14:39:28.449Z</time></trkpt><trkpt lat="40.7598505" lon="15.1418813"><ele>1123.0</ele><time>2026-04-25T14:39:29.456Z</time></trkpt><trkpt lat="40.7599156" lon="15.1419762"><ele>1123.0</ele><time>2026-04-25T14:39:30.45Z</time></trkpt><trkpt lat="40.7599645" lon="15.1420917"><ele>1123.0</ele><time>2026-04-25T14:39:31.442Z</time></trkpt><trkpt lat="40.7600149" lon="15.1422074"><ele>1123.0</ele><time>2026-04-25T14:39:32.451Z</time></trkpt><trkpt lat="40.7600472" lon="15.142356"><ele>1123.0</ele><time>2026-04-25T14:39:33.456Z</time></trkpt><trkpt lat="40.7600865" lon="15.142484"><ele>1123.0</ele><time>2026-04-25T14:39:34.452Z</time></trkpt><trkpt lat="40.7601135" lon="15.1426"><ele>1123.0</ele><time>2026-04-25T14:39:35.45Z</time></trkpt><trkpt lat="40.7601891" lon="15.1426694"><ele>1123.0</ele><time>2026-04-25T14:39:37.459Z</time></trkpt><trkpt lat="40.7602277" lon="15.142575"><ele>1123.0</ele><time>2026-04-25T14:39:39.469Z</time></trkpt><trkpt lat="40.7602028" lon="15.1423951"><ele>1123.0</ele><time>2026-04-25T14:39:41.461Z</time></trkpt><trkpt lat="40.7601764" lon="15.1422848"><ele>1123.0</ele><time>2026-04-25T14:39:42.455Z</time></trkpt><trkpt lat="40.7601522" lon="15.1421688"><ele>1123.0</ele><time>2026-04-25T14:39:43.448Z</time></trkpt><trkpt lat="40.7601254" lon="15.1420375"><ele>1123.0</ele><time>2026-04-25T14:39:44.453Z</time></trkpt><trkpt lat="40.7601125" lon="15.1418954"><ele>1123.0</ele><time>2026-04-25T14:39:45.459Z</time></trkpt><trkpt lat="40.7600987" lon="15.1417411"><ele>1123.0</ele><time>2026-04-25T14:39:46.457Z</time></trkpt><trkpt lat="40.7600664" lon="15.1415945"><ele>1123.0</ele><time>2026-04-25T14:39:47.452Z</time></trkpt><trkpt lat="40.7600066" lon="15.1414538"><ele>1127.25</ele><time>2026-04-25T14:39:48.462Z</time></trkpt><trkpt lat="40.7599384" lon="15.1413193"><ele>1131.5</ele><time>2026-04-25T14:39:49.453Z</time></trkpt><trkpt lat="40.7598631" lon="15.1411654"><ele>1135.75</ele><time>2026-04-25T14:39:50.449Z</time></trkpt><trkpt lat="40.7598032" lon="15.1410347"><ele>1140.0</ele><time>2026-04-25T14:39:51.45Z</time></trkpt><trkpt lat="40.7597245" lon="15.1409253"><ele>1140.0</ele><time>2026-04-25T14:39:52.452Z</time></trkpt><trkpt lat="40.759626" lon="15.1408209"><ele>1140.0</ele><time>2026-04-25T14:39:53.453Z</time></trkpt><trkpt lat="40.7595312" lon="15.1407155"><ele>1140.0</ele><time>2026-04-25T14:39:54.453Z</time></trkpt><trkpt lat="40.7594458" lon="15.1405926"><ele>1140.0</ele><time>2026-04-25T14:39:55.457Z</time></trkpt><trkpt lat="40.7593658" lon="15.1404804"><ele>1140.75</ele><time>2026-04-25T14:39:56.455Z</time></trkpt><trkpt lat="40.7593011" lon="15.1403268"><ele>1141.5</ele><time>2026-04-25T14:39:57.453Z</time></trkpt><trkpt lat="40.7592447" lon="15.1401892"><ele>1142.25</ele><time>2026-04-25T14:39:58.456Z</time></trkpt><trkpt lat="40.7591976" lon="15.1400676"><ele>1143.0</ele><time>2026-04-25T14:39:59.462Z</time></trkpt><trkpt lat="40.7591372" lon="15.1399697"><ele>1143.0</ele><time>2026-04-25T14:40:00.45Z</time></trkpt><trkpt lat="40.7590391" lon="15.1399301"><ele>1143.0</ele><time>2026-04-25T14:40:01.462Z</time></trkpt><trkpt lat="40.7589447" lon="15.1398928"><ele>1143.0</ele><time>2026-04-25T14:40:02.468Z</time></trkpt><trkpt lat="40.7588497" lon="15.1398524"><ele>1143.0</ele><time>2026-04-25T14:40:03.462Z</time></trkpt><trkpt lat="40.7587675" lon="15.1398163"><ele>1143.0</ele><time>2026-04-25T14:40:04.456Z</time></trkpt><trkpt lat="40.7586994" lon="15.1397689"><ele>1141.2</ele><time>2026-04-25T14:40:05.463Z</time></trkpt><trkpt lat="40.7586522" lon="15.1396818"><ele>1139.4</ele><time>2026-04-25T14:40:06.45Z</time></trkpt><trkpt lat="40.7586156" lon="15.1395628"><ele>1137.6000000000001</ele><time>2026-04-25T14:40:07.46Z</time></trkpt><trkpt lat="40.7585763" lon="15.1394208"><ele>1135.8</ele><time>2026-04-25T14:40:08.446Z</time></trkpt><trkpt lat="40.7585299" lon="15.1392797"><ele>1134.0</ele><time>2026-04-25T14:40:09.457Z</time></trkpt><trkpt lat="40.758489" lon="15.1391315"><ele>1137.6000000000001</ele><time>2026-04-25T14:40:10.449Z</time></trkpt><trkpt lat="40.7584544" lon="15.138963"><ele>1141.2</ele><time>2026-04-25T14:40:11.461Z</time></trkpt><trkpt lat="40.7584249" lon="15.1388289"><ele>1144.8000000000002</ele><time>2026-04-25T14:40:12.458Z</time></trkpt><trkpt lat="40.7583956" lon="15.13871"><ele>1148.4</ele><time>2026-04-25T14:40:13.456Z</time></trkpt><trkpt lat="40.7583751" lon="15.1385937"><ele>1152.0</ele><time>2026-04-25T14:40:14.447Z</time></trkpt><trkpt lat="40.7583261" lon="15.1384936"><ele>1152.0</ele><time>2026-04-25T14:40:15.461Z</time></trkpt><trkpt lat="40.7582608" lon="15.138417"><ele>1152.0</ele><time>2026-04-25T14:40:16.462Z</time></trkpt><trkpt lat="40.7581832" lon="15.138361"><ele>1152.0</ele><time>2026-04-25T14:40:17.459Z</time></trkpt><trkpt lat="40.758096" lon="15.1383264"><ele>1152.0</ele><time>2026-04-25T14:40:18.459Z</time></trkpt><trkpt lat="40.7580203" lon="15.1382684"><ele>1152.0</ele><time>2026-04-25T14:40:19.466Z</time></trkpt><trkpt lat="40.757956" lon="15.1381879"><ele>1152.0</ele><time>2026-04-25T14:40:20.462Z</time></trkpt><trkpt lat="40.7579042" lon="15.1380861"><ele>1155.8</ele><time>2026-04-25T14:40:21.472Z</time></trkpt><trkpt lat="40.7578551" lon="15.1379767"><ele>1159.6</ele><time>2026-04-25T14:40:22.463Z</time></trkpt><trkpt lat="40.7578268" lon="15.1378628"><ele>1163.3999999999999</ele><time>2026-04-25T14:40:23.455Z</time></trkpt><trkpt lat="40.757802" lon="15.137732"><ele>1167.2</ele><time>2026-04-25T14:40:24.458Z</time></trkpt><trkpt lat="40.7577901" lon="15.1375916"><ele>1171.0</ele><time>2026-04-25T14:40:25.459Z</time></trkpt><trkpt lat="40.7577888" lon="15.1374636"><ele>1174.0</ele><time>2026-04-25T14:40:26.451Z</time></trkpt><trkpt lat="40.7577982" lon="15.1373204"><ele>1177.0</ele><time>2026-04-25T14:40:27.449Z</time></trkpt><trkpt lat="40.757816" lon="15.137165"><ele>1180.0</ele><time>2026-04-25T14:40:28.457Z</time></trkpt><trkpt lat="40.7578343" lon="15.1370443"><ele>1183.0</ele><time>2026-04-25T14:40:29.455Z</time></trkpt><trkpt lat="40.7578355" lon="15.136949"><ele>1186.0</ele><time>2026-04-25T14:40:30.458Z</time></trkpt><trkpt lat="40.7578071" lon="15.1368537"><ele>1186.0</ele><time>2026-04-25T14:40:31.462Z</time></trkpt><trkpt lat="40.7577589" lon="15.1367846"><ele>1186.0</ele><time>2026-04-25T14:40:32.456Z</time></trkpt><trkpt lat="40.7576855" lon="15.1367285"><ele>1186.0</ele><time>2026-04-25T14:40:33.463Z</time></trkpt><trkpt lat="40.7576191" lon="15.1366666"><ele>1186.0</ele><time>2026-04-25T14:40:34.468Z</time></trkpt><trkpt lat="40.7575714" lon="15.1365694"><ele>1186.0</ele><time>2026-04-25T14:40:35.473Z</time></trkpt><trkpt lat="40.7575133" lon="15.1364845"><ele>1186.0</ele><time>2026-04-25T14:40:36.45Z</time></trkpt><trkpt lat="40.7574894" lon="15.1363422"><ele>1179.8</ele><time>2026-04-25T14:40:37.498Z</time></trkpt><trkpt lat="40.7574746" lon="15.136198"><ele>1173.6</ele><time>2026-04-25T14:40:38.449Z</time></trkpt><trkpt lat="40.7574672" lon="15.1360578"><ele>1167.4</ele><time>2026-04-25T14:40:39.458Z</time></trkpt><trkpt lat="40.7574677" lon="15.1359114"><ele>1161.2</ele><time>2026-04-25T14:40:40.46Z</time></trkpt><trkpt lat="40.7574717" lon="15.1357702"><ele>1155.0</ele><time>2026-04-25T14:40:41.469Z</time></trkpt><trkpt lat="40.7574976" lon="15.1356289"><ele>1153.0</ele><time>2026-04-25T14:40:42.461Z</time></trkpt><trkpt lat="40.7575229" lon="15.135502"><ele>1151.0</ele><time>2026-04-25T14:40:43.45Z</time></trkpt><trkpt lat="40.757561" lon="15.1354072"><ele>1149.0</ele><time>2026-04-25T14:40:44.466Z</time></trkpt><trkpt lat="40.7576241" lon="15.135329"><ele>1147.0</ele><time>2026-04-25T14:40:45.464Z</time></trkpt><trkpt lat="40.7577029" lon="15.1352611"><ele>1145.0</ele><time>2026-04-25T14:40:46.457Z</time></trkpt><trkpt lat="40.7577975" lon="15.1351882"><ele>1151.5</ele><time>2026-04-25T14:40:47.459Z</time></trkpt><trkpt lat="40.7578993" lon="15.1351158"><ele>1158.0</ele><time>2026-04-25T14:40:48.461Z</time></trkpt><trkpt lat="40.7580035" lon="15.1350459"><ele>1164.5</ele><time>2026-04-25T14:40:49.465Z</time></trkpt><trkpt lat="40.7581213" lon="15.1349724"><ele>1171.0</ele><time>2026-04-25T14:40:50.448Z</time></trkpt><trkpt lat="40.7582427" lon="15.1348933"><ele>1171.0</ele><time>2026-04-25T14:40:51.453Z</time></trkpt><trkpt lat="40.7583654" lon="15.1348151"><ele>1171.0</ele><time>2026-04-25T14:40:52.456Z</time></trkpt><trkpt lat="40.7584897" lon="15.1347381"><ele>1171.0</ele><time>2026-04-25T14:40:53.462Z</time></trkpt><trkpt lat="40.7586069" lon="15.1346724"><ele>1171.0</ele><time>2026-04-25T14:40:54.453Z</time></trkpt><trkpt lat="40.7587167" lon="15.1346228"><ele>1171.0</ele><time>2026-04-25T14:40:55.468Z</time></trkpt><trkpt lat="40.7588171" lon="15.1346035"><ele>1171.0</ele><time>2026-04-25T14:40:56.459Z</time></trkpt><trkpt lat="40.758917" lon="15.134611"><ele>1171.0</ele><time>2026-04-25T14:40:57.446Z</time></trkpt><trkpt lat="40.7590149" lon="15.1346309"><ele>1171.0</ele><time>2026-04-25T14:40:58.455Z</time></trkpt><trkpt lat="40.7591112" lon="15.1346502"><ele>1171.0</ele><time>2026-04-25T14:40:59.458Z</time></trkpt><trkpt lat="40.759203" lon="15.1346706"><ele>1171.0</ele><time>2026-04-25T14:41:00.458Z</time></trkpt><trkpt lat="40.7592961" lon="15.1346685"><ele>1171.0</ele><time>2026-04-25T14:41:01.451Z</time></trkpt><trkpt lat="40.7593859" lon="15.1346312"><ele>1171.0</ele><time>2026-04-25T14:41:02.459Z</time></trkpt><trkpt lat="40.7594735" lon="15.1345748"><ele>1171.0</ele><time>2026-04-25T14:41:03.462Z</time></trkpt><trkpt lat="40.7595555" lon="15.1345037"><ele>1171.0</ele><time>2026-04-25T14:41:04.461Z</time></trkpt><trkpt lat="40.759645" lon="15.1344386"><ele>1173.8</ele><time>2026-04-25T14:41:05.451Z</time></trkpt><trkpt lat="40.7597357" lon="15.1343712"><ele>1176.6</ele><time>2026-04-25T14:41:06.479Z</time></trkpt><trkpt lat="40.7598227" lon="15.1343068"><ele>1179.4</ele><time>2026-04-25T14:41:07.453Z</time></trkpt><trkpt lat="40.7599011" lon="15.1342402"><ele>1182.2</ele><time>2026-04-25T14:41:08.457Z</time></trkpt><trkpt lat="40.7599768" lon="15.1341471"><ele>1185.0</ele><time>2026-04-25T14:41:09.46Z</time></trkpt><trkpt lat="40.7600607" lon="15.1340264"><ele>1185.0</ele><time>2026-04-25T14:41:10.453Z</time></trkpt><trkpt lat="40.7601375" lon="15.1339068"><ele>1185.0</ele><time>2026-04-25T14:41:11.454Z</time></trkpt><trkpt lat="40.7602148" lon="15.1337525"><ele>1185.0</ele><time>2026-04-25T14:41:12.468Z</time></trkpt><trkpt lat="40.7602862" lon="15.133618"><ele>1185.0</ele><time>2026-04-25T14:41:13.457Z</time></trkpt><trkpt lat="40.7603558" lon="15.133485"><ele>1186.25</ele><time>2026-04-25T14:41:14.449Z</time></trkpt><trkpt lat="40.7604298" lon="15.1333592"><ele>1187.5</ele><time>2026-04-25T14:41:15.469Z</time></trkpt><trkpt lat="40.7605178" lon="15.1332599"><ele>1188.75</ele><time>2026-04-25T14:41:16.486Z</time></trkpt><trkpt lat="40.7606096" lon="15.1331726"><ele>1190.0</ele><time>2026-04-25T14:41:17.457Z</time></trkpt><trkpt lat="40.7606992" lon="15.1330875"><ele>1190.0</ele><time>2026-04-25T14:41:18.471Z</time></trkpt><trkpt lat="40.7608058" lon="15.1330177"><ele>1190.0</ele><time>2026-04-25T14:41:19.475Z</time></trkpt><trkpt lat="40.7609175" lon="15.1329653"><ele>1190.0</ele><time>2026-04-25T14:41:20.461Z</time></trkpt><trkpt lat="40.7610369" lon="15.132924"><ele>1190.0</ele><time>2026-04-25T14:41:21.456Z</time></trkpt><trkpt lat="40.761157" lon="15.1328904"><ele>1193.8</ele><time>2026-04-25T14:41:22.461Z</time></trkpt><trkpt lat="40.7612713" lon="15.1328612"><ele>1197.6</ele><time>2026-04-25T14:41:23.47Z</time></trkpt><trkpt lat="40.7613755" lon="15.1328343"><ele>1201.4</ele><time>2026-04-25T14:41:24.453Z</time></trkpt><trkpt lat="40.7614617" lon="15.1328235"><ele>1205.2</ele><time>2026-04-25T14:41:25.466Z</time></trkpt><trkpt lat="40.7615446" lon="15.1328081"><ele>1209.0</ele><time>2026-04-25T14:41:26.476Z</time></trkpt><trkpt lat="40.7616238" lon="15.1328029"><ele>1209.0</ele><time>2026-04-25T14:41:27.484Z</time></trkpt><trkpt lat="40.7617021" lon="15.1328005"><ele>1209.0</ele><time>2026-04-25T14:41:28.465Z</time></trkpt><trkpt lat="40.7617829" lon="15.1327995"><ele>1209.0</ele><time>2026-04-25T14:41:29.45Z</time></trkpt><trkpt lat="40.7618626" lon="15.1327974"><ele>1209.0</ele><time>2026-04-25T14:41:30.462Z</time></trkpt><trkpt lat="40.7619421" lon="15.1328003"><ele>1209.0</ele><time>2026-04-25T14:41:31.472Z</time></trkpt><trkpt lat="40.7620263" lon="15.1328099"><ele>1209.0</ele><time>2026-04-25T14:41:32.467Z</time></trkpt><trkpt lat="40.7621157" lon="15.1328286"><ele>1210.2</ele><time>2026-04-25T14:41:33.454Z</time></trkpt><trkpt lat="40.7622087" lon="15.1328496"><ele>1211.4</ele><time>2026-04-25T14:41:34.47Z</time></trkpt><trkpt lat="40.7623008" lon="15.132876"><ele>1212.6</ele><time>2026-04-25T14:41:35.46Z</time></trkpt><trkpt lat="40.7623898" lon="15.1329111"><ele>1213.8</ele><time>2026-04-25T14:41:36.451Z</time></trkpt><trkpt lat="40.7624737" lon="15.1329538"><ele>1215.0</ele><time>2026-04-25T14:41:37.474Z</time></trkpt><trkpt lat="40.762556" lon="15.1330076"><ele>1215.0</ele><time>2026-04-25T14:41:38.451Z</time></trkpt><trkpt lat="40.7626357" lon="15.133077"><ele>1215.0</ele><time>2026-04-25T14:41:39.459Z</time></trkpt><trkpt lat="40.7627131" lon="15.1331455"><ele>1215.0</ele><time>2026-04-25T14:41:40.464Z</time></trkpt><trkpt lat="40.7627903" lon="15.1332151"><ele>1215.0</ele><time>2026-04-25T14:41:41.459Z</time></trkpt><trkpt lat="40.7628751" lon="15.1332899"><ele>1215.0</ele><time>2026-04-25T14:41:42.446Z</time></trkpt><trkpt lat="40.7629604" lon="15.1333648"><ele>1216.4</ele><time>2026-04-25T14:41:43.46Z</time></trkpt><trkpt lat="40.7630464" lon="15.13345"><ele>1217.8</ele><time>2026-04-25T14:41:44.453Z</time></trkpt><trkpt lat="40.7631245" lon="15.1335319"><ele>1219.2</ele><time>2026-04-25T14:41:45.445Z</time></trkpt><trkpt lat="40.763207" lon="15.133621"><ele>1220.6</ele><time>2026-04-25T14:41:46.464Z</time></trkpt><trkpt lat="40.7632976" lon="15.1337175"><ele>1222.0</ele><time>2026-04-25T14:41:47.466Z</time></trkpt><trkpt lat="40.7633889" lon="15.1338137"><ele>1222.0</ele><time>2026-04-25T14:41:48.451Z</time></trkpt><trkpt lat="40.7634817" lon="15.1339151"><ele>1222.0</ele><time>2026-04-25T14:41:49.459Z</time></trkpt><trkpt lat="40.7635659" lon="15.1340251"><ele>1222.0</ele><time>2026-04-25T14:41:50.461Z</time></trkpt><trkpt lat="40.7636423" lon="15.1341207"><ele>1222.0</ele><time>2026-04-25T14:41:51.451Z</time></trkpt><trkpt lat="40.7636944" lon="15.1342155"><ele>1222.0</ele><time>2026-04-25T14:41:52.461Z</time></trkpt><trkpt lat="40.7637521" lon="15.1343156"><ele>1223.4</ele><time>2026-04-25T14:41:53.474Z</time></trkpt><trkpt lat="40.7638134" lon="15.1344084"><ele>1224.8000000000002</ele><time>2026-04-25T14:41:54.448Z</time></trkpt><trkpt lat="40.7638832" lon="15.1345061"><ele>1226.2</ele><time>2026-04-25T14:41:55.468Z</time></trkpt><trkpt lat="40.7639684" lon="15.1345855"><ele>1227.6000000000001</ele><time>2026-04-25T14:41:56.459Z</time></trkpt><trkpt lat="40.7640688" lon="15.1346496"><ele>1229.0</ele><time>2026-04-25T14:41:57.443Z</time></trkpt><trkpt lat="40.7641759" lon="15.1347094"><ele>1229.0</ele><time>2026-04-25T14:41:58.463Z</time></trkpt><trkpt lat="40.7642837" lon="15.1347826"><ele>1229.0</ele><time>2026-04-25T14:41:59.462Z</time></trkpt><trkpt lat="40.76439" lon="15.1348668"><ele>1229.0</ele><time>2026-04-25T14:42:00.447Z</time></trkpt><trkpt lat="40.7644964" lon="15.13495"><ele>1229.0</ele><time>2026-04-25T14:42:01.453Z</time></trkpt><trkpt lat="40.764597" lon="15.1350394"><ele>1232.0</ele><time>2026-04-25T14:42:02.448Z</time></trkpt><trkpt lat="40.7646953" lon="15.1351234"><ele>1235.0</ele><time>2026-04-25T14:42:03.452Z</time></trkpt><trkpt lat="40.7647953" lon="15.1352215"><ele>1238.0</ele><time>2026-04-25T14:42:04.461Z</time></trkpt><trkpt lat="40.7648761" lon="15.135339"><ele>1241.0</ele><time>2026-04-25T14:42:05.463Z</time></trkpt><trkpt lat="40.7649556" lon="15.1354617"><ele>1241.0</ele><time>2026-04-25T14:42:06.458Z</time></trkpt><trkpt lat="40.7650337" lon="15.1355703"><ele>1241.0</ele><time>2026-04-25T14:42:07.449Z</time></trkpt><trkpt lat="40.7650998" lon="15.1356579"><ele>1241.0</ele><time>2026-04-25T14:42:08.459Z</time></trkpt><trkpt lat="40.7651668" lon="15.1357208"><ele>1241.0</ele><time>2026-04-25T14:42:09.463Z</time></trkpt><trkpt lat="40.7652506" lon="15.1357669"><ele>1241.0</ele><time>2026-04-25T14:42:10.458Z</time></trkpt><trkpt lat="40.7653528" lon="15.1358044"><ele>1243.5</ele><time>2026-04-25T14:42:11.455Z</time></trkpt><trkpt lat="40.7654747" lon="15.1358398"><ele>1246.0</ele><time>2026-04-25T14:42:12.459Z</time></trkpt><trkpt lat="40.7656122" lon="15.1358825"><ele>1248.5</ele><time>2026-04-25T14:42:13.467Z</time></trkpt><trkpt lat="40.7657229" lon="15.1359232"><ele>1251.0</ele><time>2026-04-25T14:42:14.464Z</time></trkpt><trkpt lat="40.7658303" lon="15.1359634"><ele>1251.0</ele><time>2026-04-25T14:42:15.457Z</time></trkpt><trkpt lat="40.7659215" lon="15.1359855"><ele>1251.0</ele><time>2026-04-25T14:42:16.453Z</time></trkpt><trkpt lat="40.7660172" lon="15.136005"><ele>1251.0</ele><time>2026-04-25T14:42:17.448Z</time></trkpt><trkpt lat="40.7661137" lon="15.1360154"><ele>1251.0</ele><time>2026-04-25T14:42:18.455Z</time></trkpt><trkpt lat="40.7662148" lon="15.1360229"><ele>1251.0</ele><time>2026-04-25T14:42:19.45Z</time></trkpt><trkpt lat="40.7663255" lon="15.1360334"><ele>1252.0</ele><time>2026-04-25T14:42:20.453Z</time></trkpt><trkpt lat="40.7664421" lon="15.1360378"><ele>1253.0</ele><time>2026-04-25T14:42:21.462Z</time></trkpt><trkpt lat="40.766562" lon="15.1360331"><ele>1254.0</ele><time>2026-04-25T14:42:22.455Z</time></trkpt><trkpt lat="40.7666709" lon="15.1360189"><ele>1255.0</ele><time>2026-04-25T14:42:23.457Z</time></trkpt><trkpt lat="40.7667819" lon="15.1360105"><ele>1257.2</ele><time>2026-04-25T14:42:24.46Z</time></trkpt><trkpt lat="40.766885" lon="15.1360124"><ele>1259.4</ele><time>2026-04-25T14:42:25.456Z</time></trkpt><trkpt lat="40.7669776" lon="15.1360168"><ele>1261.6</ele><time>2026-04-25T14:42:26.454Z</time></trkpt><trkpt lat="40.7670597" lon="15.1360554"><ele>1263.8</ele><time>2026-04-25T14:42:27.461Z</time></trkpt><trkpt lat="40.7671406" lon="15.1361214"><ele>1266.0</ele><time>2026-04-25T14:42:28.464Z</time></trkpt><trkpt lat="40.767206" lon="15.1362092"><ele>1266.0</ele><time>2026-04-25T14:42:29.457Z</time></trkpt><trkpt lat="40.7672516" lon="15.1363112"><ele>1266.0</ele><time>2026-04-25T14:42:30.459Z</time></trkpt><trkpt lat="40.7672802" lon="15.1364123"><ele>1266.0</ele><time>2026-04-25T14:42:31.453Z</time></trkpt><trkpt lat="40.7672921" lon="15.1365071"><ele>1266.0</ele><time>2026-04-25T14:42:32.457Z</time></trkpt><trkpt lat="40.7673346" lon="15.1366082"><ele>1266.0</ele><time>2026-04-25T14:42:34.466Z</time></trkpt><trkpt lat="40.7674209" lon="15.1366203"><ele>1266.0</ele><time>2026-04-25T14:42:37.454Z</time></trkpt><trkpt lat="40.7674774" lon="15.1365346"><ele>1266.0</ele><time>2026-04-25T14:42:39.472Z</time></trkpt><trkpt lat="40.7675273" lon="15.1363927"><ele>1266.0</ele><time>2026-04-25T14:42:41.46Z</time></trkpt><trkpt lat="40.7675536" lon="15.1362381"><ele>1266.0</ele><time>2026-04-25T14:42:43.467Z</time></trkpt><trkpt lat="40.7675408" lon="15.1360743"><ele>1266.0</ele><time>2026-04-25T14:42:45.464Z</time></trkpt><trkpt lat="40.7675176" lon="15.1359642"><ele>1266.0</ele><time>2026-04-25T14:42:46.459Z</time></trkpt><trkpt lat="40.7674878" lon="15.1358578"><ele>1266.0</ele><time>2026-04-25T14:42:47.455Z</time></trkpt><trkpt lat="40.7674586" lon="15.1357551"><ele>1266.0</ele><time>2026-04-25T14:42:48.452Z</time></trkpt><trkpt lat="40.767422" lon="15.1356365"><ele>1266.0</ele><time>2026-04-25T14:42:49.453Z</time></trkpt><trkpt lat="40.7673857" lon="15.1355248"><ele>1266.0</ele><time>2026-04-25T14:42:50.47Z</time></trkpt><trkpt lat="40.767346" lon="15.135408"><ele>1267.0</ele><time>2026-04-25T14:42:51.474Z</time></trkpt><trkpt lat="40.7672977" lon="15.1352884"><ele>1268.0</ele><time>2026-04-25T14:42:52.456Z</time></trkpt><trkpt lat="40.767249" lon="15.1351648"><ele>1269.0</ele><time>2026-04-25T14:42:53.453Z</time></trkpt><trkpt lat="40.7671952" lon="15.1350219"><ele>1270.0</ele><time>2026-04-25T14:42:54.453Z</time></trkpt><trkpt lat="40.7671235" lon="15.1348691"><ele>1270.25</ele><time>2026-04-25T14:42:55.465Z</time></trkpt><trkpt lat="40.7670356" lon="15.1347295"><ele>1270.5</ele><time>2026-04-25T14:42:56.457Z</time></trkpt><trkpt lat="40.7669397" lon="15.1345839"><ele>1270.75</ele><time>2026-04-25T14:42:57.46Z</time></trkpt><trkpt lat="40.7668472" lon="15.1344394"><ele>1271.0</ele><time>2026-04-25T14:42:58.475Z</time></trkpt><trkpt lat="40.7667414" lon="15.1343167"><ele>1271.0</ele><time>2026-04-25T14:42:59.474Z</time></trkpt><trkpt lat="40.7666428" lon="15.1341822"><ele>1271.0</ele><time>2026-04-25T14:43:00.448Z</time></trkpt><trkpt lat="40.7665391" lon="15.1340394"><ele>1271.0</ele><time>2026-04-25T14:43:01.45Z</time></trkpt><trkpt lat="40.7664307" lon="15.1338855"><ele>1273.0</ele><time>2026-04-25T14:43:02.452Z</time></trkpt><trkpt lat="40.766335" lon="15.1337285"><ele>1275.0</ele><time>2026-04-25T14:43:03.454Z</time></trkpt><trkpt lat="40.7662368" lon="15.133564"><ele>1277.0</ele><time>2026-04-25T14:43:04.452Z</time></trkpt><trkpt lat="40.7661451" lon="15.1334031"><ele>1277.0</ele><time>2026-04-25T14:43:05.462Z</time></trkpt><trkpt lat="40.7660547" lon="15.1332412"><ele>1277.0</ele><time>2026-04-25T14:43:06.455Z</time></trkpt><trkpt lat="40.7659656" lon="15.1330806"><ele>1277.0</ele><time>2026-04-25T14:43:07.452Z</time></trkpt><trkpt lat="40.7658795" lon="15.1329219"><ele>1277.25</ele><time>2026-04-25T14:43:08.457Z</time></trkpt><trkpt lat="40.7657876" lon="15.132762"><ele>1277.5</ele><time>2026-04-25T14:43:09.46Z</time></trkpt><trkpt lat="40.7657007" lon="15.1326053"><ele>1277.75</ele><time>2026-04-25T14:43:10.454Z</time></trkpt><trkpt lat="40.765617" lon="15.1324556"><ele>1278.0</ele><time>2026-04-25T14:43:11.461Z</time></trkpt><trkpt lat="40.7655412" lon="15.1322981"><ele>1278.0</ele><time>2026-04-25T14:43:12.451Z</time></trkpt><trkpt lat="40.7654727" lon="15.132126"><ele>1278.0</ele><time>2026-04-25T14:43:13.47Z</time></trkpt><trkpt lat="40.7654094" lon="15.1319467"><ele>1278.0</ele><time>2026-04-25T14:43:14.455Z</time></trkpt><trkpt lat="40.7653567" lon="15.1317723"><ele>1278.0</ele><time>2026-04-25T14:43:15.454Z</time></trkpt><trkpt lat="40.7653124" lon="15.1315968"><ele>1274.75</ele><time>2026-04-25T14:43:16.461Z</time></trkpt><trkpt lat="40.7652793" lon="15.131415"><ele>1271.5</ele><time>2026-04-25T14:43:17.453Z</time></trkpt><trkpt lat="40.7652492" lon="15.1312463"><ele>1268.25</ele><time>2026-04-25T14:43:18.455Z</time></trkpt><trkpt lat="40.7652047" lon="15.1310785"><ele>1265.0</ele><time>2026-04-25T14:43:19.456Z</time></trkpt><trkpt lat="40.7651409" lon="15.1309389"><ele>1265.0</ele><time>2026-04-25T14:43:20.461Z</time></trkpt><trkpt lat="40.765056" lon="15.130816"><ele>1265.0</ele><time>2026-04-25T14:43:21.454Z</time></trkpt><trkpt lat="40.7649577" lon="15.1307094"><ele>1265.0</ele><time>2026-04-25T14:43:22.454Z</time></trkpt><trkpt lat="40.7648396" lon="15.1306156"><ele>1265.0</ele><time>2026-04-25T14:43:23.449Z</time></trkpt><trkpt lat="40.7647103" lon="15.1305275"><ele>1263.0</ele><time>2026-04-25T14:43:24.46Z</time></trkpt><trkpt lat="40.7645733" lon="15.1304513"><ele>1261.0</ele><time>2026-04-25T14:43:25.46Z</time></trkpt><trkpt lat="40.7644441" lon="15.130367"><ele>1259.0</ele><time>2026-04-25T14:43:26.458Z</time></trkpt><trkpt lat="40.7643184" lon="15.1302837"><ele>1257.0</ele><time>2026-04-25T14:43:27.466Z</time></trkpt><trkpt lat="40.7641966" lon="15.1302093"><ele>1257.0</ele><time>2026-04-25T14:43:28.46Z</time></trkpt><trkpt lat="40.7640911" lon="15.13013"><ele>1257.0</ele><time>2026-04-25T14:43:29.461Z</time></trkpt><trkpt lat="40.7639929" lon="15.1300414"><ele>1257.0</ele><time>2026-04-25T14:43:30.462Z</time></trkpt><trkpt lat="40.7639222" lon="15.1299155"><ele>1257.0</ele><time>2026-04-25T14:43:31.46Z</time></trkpt><trkpt lat="40.7638591" lon="15.1297723"><ele>1260.0</ele><time>2026-04-25T14:43:32.456Z</time></trkpt><trkpt lat="40.7637927" lon="15.1296226"><ele>1263.0</ele><time>2026-04-25T14:43:33.467Z</time></trkpt><trkpt lat="40.7637271" lon="15.129473"><ele>1266.0</ele><time>2026-04-25T14:43:34.459Z</time></trkpt><trkpt lat="40.7636527" lon="15.1293255"><ele>1269.0</ele><time>2026-04-25T14:43:35.46Z</time></trkpt><trkpt lat="40.7635863" lon="15.1291585"><ele>1266.25</ele><time>2026-04-25T14:43:36.455Z</time></trkpt><trkpt lat="40.76352" lon="15.1290038"><ele>1263.5</ele><time>2026-04-25T14:43:37.461Z</time></trkpt><trkpt lat="40.7634488" lon="15.1288661"><ele>1260.75</ele><time>2026-04-25T14:43:38.461Z</time></trkpt><trkpt lat="40.7633664" lon="15.1287651"><ele>1258.0</ele><time>2026-04-25T14:43:39.467Z</time></trkpt><trkpt lat="40.7633013" lon="15.1286865"><ele>1258.0</ele><time>2026-04-25T14:43:40.449Z</time></trkpt><trkpt lat="40.7632064" lon="15.1286586"><ele>1258.0</ele><time>2026-04-25T14:43:41.456Z</time></trkpt><trkpt lat="40.7631233" lon="15.1286814"><ele>1258.0</ele><time>2026-04-25T14:43:42.457Z</time></trkpt><trkpt lat="40.7630297" lon="15.1287243"><ele>1258.0</ele><time>2026-04-25T14:43:43.452Z</time></trkpt><trkpt lat="40.762925" lon="15.128775"><ele>1258.0</ele><time>2026-04-25T14:43:44.462Z</time></trkpt><trkpt lat="40.7628101" lon="15.1288339"><ele>1259.0</ele><time>2026-04-25T14:43:45.474Z</time></trkpt><trkpt lat="40.7626895" lon="15.1288944"><ele>1260.0</ele><time>2026-04-25T14:43:46.459Z</time></trkpt><trkpt lat="40.7625637" lon="15.1289599"><ele>1261.0</ele><time>2026-04-25T14:43:47.447Z</time></trkpt><trkpt lat="40.7624393" lon="15.1290225"><ele>1262.0</ele><time>2026-04-25T14:43:48.457Z</time></trkpt><trkpt lat="40.7623172" lon="15.1290679"><ele>1262.0</ele><time>2026-04-25T14:43:49.461Z</time></trkpt><trkpt lat="40.7621822" lon="15.1290981"><ele>1262.0</ele><time>2026-04-25T14:43:50.456Z</time></trkpt><trkpt lat="40.7620479" lon="15.1291146"><ele>1262.0</ele><time>2026-04-25T14:43:51.462Z</time></trkpt><trkpt lat="40.7619304" lon="15.1290911"><ele>1262.0</ele><time>2026-04-25T14:43:52.457Z</time></trkpt><trkpt lat="40.7618198" lon="15.129037"><ele>1262.0</ele><time>2026-04-25T14:43:53.468Z</time></trkpt><trkpt lat="40.7617132" lon="15.1289899"><ele>1262.0</ele><time>2026-04-25T14:43:54.458Z</time></trkpt><trkpt lat="40.7616019" lon="15.1289266"><ele>1262.0</ele><time>2026-04-25T14:43:55.468Z</time></trkpt><trkpt lat="40.7615091" lon="15.1288742"><ele>1262.0</ele><time>2026-04-25T14:43:56.464Z</time></trkpt><trkpt lat="40.761436" lon="15.1287996"><ele>1262.0</ele><time>2026-04-25T14:43:57.468Z</time></trkpt><trkpt lat="40.7613805" lon="15.1286971"><ele>1262.0</ele><time>2026-04-25T14:43:58.457Z</time></trkpt><trkpt lat="40.7613503" lon="15.1285776"><ele>1262.0</ele><time>2026-04-25T14:43:59.459Z</time></trkpt><trkpt lat="40.7613402" lon="15.1284585"><ele>1262.0</ele><time>2026-04-25T14:44:00.457Z</time></trkpt><trkpt lat="40.7613401" lon="15.1283586"><ele>1262.0</ele><time>2026-04-25T14:44:01.466Z</time></trkpt><trkpt lat="40.7613311" lon="15.1282567"><ele>1262.0</ele><time>2026-04-25T14:44:02.457Z</time></trkpt><trkpt lat="40.761305" lon="15.1281335"><ele>1262.0</ele><time>2026-04-25T14:44:03.463Z</time></trkpt><trkpt lat="40.7612513" lon="15.1280434"><ele>1261.3333333333335</ele><time>2026-04-25T14:44:04.458Z</time></trkpt><trkpt lat="40.7611853" lon="15.1279622"><ele>1260.6666666666667</ele><time>2026-04-25T14:44:05.459Z</time></trkpt><trkpt lat="40.761124" lon="15.1278756"><ele>1260.0</ele><time>2026-04-25T14:44:06.461Z</time></trkpt><trkpt lat="40.761075" lon="15.127781"><ele>1259.3333333333333</ele><time>2026-04-25T14:44:07.473Z</time></trkpt><trkpt lat="40.761035" lon="15.1276814"><ele>1258.6666666666665</ele><time>2026-04-25T14:44:08.452Z</time></trkpt><trkpt lat="40.7610008" lon="15.1275712"><ele>1258.0</ele><time>2026-04-25T14:44:09.463Z</time></trkpt><trkpt lat="40.7609675" lon="15.1274711"><ele>1260.0</ele><time>2026-04-25T14:44:10.454Z</time></trkpt><trkpt lat="40.760927" lon="15.1273409"><ele>1262.0</ele><time>2026-04-25T14:44:11.456Z</time></trkpt><trkpt lat="40.7608928" lon="15.1272108"><ele>1264.0</ele><time>2026-04-25T14:44:12.456Z</time></trkpt><trkpt lat="40.7608508" lon="15.1271057"><ele>1266.0</ele><time>2026-04-25T14:44:13.459Z</time></trkpt><trkpt lat="40.7607793" lon="15.1270107"><ele>1268.0</ele><time>2026-04-25T14:44:14.454Z</time></trkpt><trkpt lat="40.7606966" lon="15.1269246"><ele>1268.0</ele><time>2026-04-25T14:44:15.454Z</time></trkpt><trkpt lat="40.7606528" lon="15.1268247"><ele>1268.0</ele><time>2026-04-25T14:44:16.461Z</time></trkpt><trkpt lat="40.7606288" lon="15.1266959"><ele>1268.0</ele><time>2026-04-25T14:44:17.469Z</time></trkpt><trkpt lat="40.7606444" lon="15.1265907"><ele>1268.0</ele><time>2026-04-25T14:44:18.451Z</time></trkpt><trkpt lat="40.7606554" lon="15.1264743"><ele>1268.0</ele><time>2026-04-25T14:44:19.45Z</time></trkpt><trkpt lat="40.7606844" lon="15.1263582"><ele>1269.25</ele><time>2026-04-25T14:44:20.453Z</time></trkpt><trkpt lat="40.7607075" lon="15.1262177"><ele>1270.5</ele><time>2026-04-25T14:44:21.464Z</time></trkpt><trkpt lat="40.7607335" lon="15.1260635"><ele>1271.75</ele><time>2026-04-25T14:44:22.454Z</time></trkpt><trkpt lat="40.7607547" lon="15.1259022"><ele>1273.0</ele><time>2026-04-25T14:44:23.452Z</time></trkpt><trkpt lat="40.7607624" lon="15.1257317"><ele>1274.0</ele><time>2026-04-25T14:44:24.455Z</time></trkpt><trkpt lat="40.760755" lon="15.1255509"><ele>1275.0</ele><time>2026-04-25T14:44:25.464Z</time></trkpt><trkpt lat="40.7607427" lon="15.1253664"><ele>1276.0</ele><time>2026-04-25T14:44:26.457Z</time></trkpt><trkpt lat="40.7607253" lon="15.1251737"><ele>1277.0</ele><time>2026-04-25T14:44:27.454Z</time></trkpt><trkpt lat="40.7607203" lon="15.1249936"><ele>1277.0</ele><time>2026-04-25T14:44:28.458Z</time></trkpt><trkpt lat="40.7607143" lon="15.1247992"><ele>1277.0</ele><time>2026-04-25T14:44:29.465Z</time></trkpt><trkpt lat="40.7607179" lon="15.1246277"><ele>1277.0</ele><time>2026-04-25T14:44:30.454Z</time></trkpt><trkpt lat="40.7607296" lon="15.1244613"><ele>1277.0</ele><time>2026-04-25T14:44:31.459Z</time></trkpt><trkpt lat="40.7607483" lon="15.1242973"><ele>1277.0</ele><time>2026-04-25T14:44:32.457Z</time></trkpt><trkpt lat="40.7607694" lon="15.1241331"><ele>1277.0</ele><time>2026-04-25T14:44:33.45Z</time></trkpt><trkpt lat="40.7607903" lon="15.123967"><ele>1277.0</ele><time>2026-04-25T14:44:34.45Z</time></trkpt><trkpt lat="40.7608209" lon="15.123786"><ele>1277.0</ele><time>2026-04-25T14:44:35.463Z</time></trkpt><trkpt lat="40.7608683" lon="15.1236394"><ele>1275.75</ele><time>2026-04-25T14:44:36.451Z</time></trkpt><trkpt lat="40.7609123" lon="15.1234861"><ele>1274.5</ele><time>2026-04-25T14:44:37.451Z</time></trkpt><trkpt lat="40.7609669" lon="15.123329"><ele>1273.25</ele><time>2026-04-25T14:44:38.45Z</time></trkpt><trkpt lat="40.761025" lon="15.1231679"><ele>1272.0</ele><time>2026-04-25T14:44:39.458Z</time></trkpt><trkpt lat="40.7610765" lon="15.1230195"><ele>1275.25</ele><time>2026-04-25T14:44:40.449Z</time></trkpt><trkpt lat="40.761138" lon="15.1228671"><ele>1278.5</ele><time>2026-04-25T14:44:41.456Z</time></trkpt><trkpt lat="40.7611993" lon="15.1227287"><ele>1281.75</ele><time>2026-04-25T14:44:42.447Z</time></trkpt><trkpt lat="40.7612775" lon="15.1225917"><ele>1285.0</ele><time>2026-04-25T14:44:43.46Z</time></trkpt><trkpt lat="40.7613715" lon="15.1224376"><ele>1283.0</ele><time>2026-04-25T14:44:44.464Z</time></trkpt><trkpt lat="40.7614831" lon="15.1222944"><ele>1281.0</ele><time>2026-04-25T14:44:45.455Z</time></trkpt><trkpt lat="40.7615916" lon="15.1221621"><ele>1279.0</ele><time>2026-04-25T14:44:46.458Z</time></trkpt><trkpt lat="40.7617015" lon="15.1220504"><ele>1277.0</ele><time>2026-04-25T14:44:47.464Z</time></trkpt><trkpt lat="40.761824" lon="15.1219373"><ele>1280.75</ele><time>2026-04-25T14:44:48.46Z</time></trkpt><trkpt lat="40.7619384" lon="15.121829"><ele>1284.5</ele><time>2026-04-25T14:44:49.474Z</time></trkpt><trkpt lat="40.7620445" lon="15.1217274"><ele>1288.25</ele><time>2026-04-25T14:44:50.463Z</time></trkpt><trkpt lat="40.7621428" lon="15.1216404"><ele>1292.0</ele><time>2026-04-25T14:44:51.454Z</time></trkpt><trkpt lat="40.7622382" lon="15.1215611"><ele>1292.0</ele><time>2026-04-25T14:44:52.451Z</time></trkpt><trkpt lat="40.7623156" lon="15.1214619"><ele>1292.0</ele><time>2026-04-25T14:44:53.463Z</time></trkpt><trkpt lat="40.7623744" lon="15.1213485"><ele>1292.0</ele><time>2026-04-25T14:44:54.46Z</time></trkpt><trkpt lat="40.7624271" lon="15.1212316"><ele>1292.0</ele><time>2026-04-25T14:44:55.473Z</time></trkpt><trkpt lat="40.7624933" lon="15.121098"><ele>1292.0</ele><time>2026-04-25T14:44:56.463Z</time></trkpt><trkpt lat="40.7625612" lon="15.1209666"><ele>1292.0</ele><time>2026-04-25T14:44:57.468Z</time></trkpt><trkpt lat="40.7626248" lon="15.1208372"><ele>1292.0</ele><time>2026-04-25T14:44:58.462Z</time></trkpt><trkpt lat="40.7626936" lon="15.1207043"><ele>1292.0</ele><time>2026-04-25T14:44:59.47Z</time></trkpt><trkpt lat="40.7627581" lon="15.12059"><ele>1292.0</ele><time>2026-04-25T14:45:00.466Z</time></trkpt><trkpt lat="40.7628116" lon="15.1204806"><ele>1292.0</ele><time>2026-04-25T14:45:01.465Z</time></trkpt><trkpt lat="40.7628743" lon="15.1204649"><ele>1291.5</ele><time>2026-04-25T14:45:02.46Z</time></trkpt><trkpt lat="40.7629387" lon="15.1204733"><ele>1291.0</ele><time>2026-04-25T14:45:03.453Z</time></trkpt><trkpt lat="40.763011" lon="15.1204808"><ele>1290.5</ele><time>2026-04-25T14:45:04.461Z</time></trkpt><trkpt lat="40.7630898" lon="15.120495"><ele>1290.0</ele><time>2026-04-25T14:45:05.457Z</time></trkpt><trkpt lat="40.7631706" lon="15.1205083"><ele>1289.5</ele><time>2026-04-25T14:45:06.455Z</time></trkpt><trkpt lat="40.7632631" lon="15.1205102"><ele>1289.0</ele><time>2026-04-25T14:45:07.473Z</time></trkpt><trkpt lat="40.7633408" lon="15.1204602"><ele>1289.0</ele><time>2026-04-25T14:45:08.456Z</time></trkpt><trkpt lat="40.7633998" lon="15.1204023"><ele>1289.0</ele><time>2026-04-25T14:45:09.449Z</time></trkpt><trkpt lat="40.7634468" lon="15.1203352"><ele>1289.0</ele><time>2026-04-25T14:45:10.45Z</time></trkpt><trkpt lat="40.7634854" lon="15.1202511"><ele>1289.0</ele><time>2026-04-25T14:45:11.452Z</time></trkpt><trkpt lat="40.7635067" lon="15.1201515"><ele>1289.0</ele><time>2026-04-25T14:45:12.45Z</time></trkpt><trkpt lat="40.7635317" lon="15.1200319"><ele>1289.0</ele><time>2026-04-25T14:45:13.449Z</time></trkpt><trkpt lat="40.7635422" lon="15.1199093"><ele>1291.6</ele><time>2026-04-25T14:45:14.457Z</time></trkpt><trkpt lat="40.7635485" lon="15.1197925"><ele>1294.2</ele><time>2026-04-25T14:45:15.464Z</time></trkpt><trkpt lat="40.763562" lon="15.1196649"><ele>1296.8</ele><time>2026-04-25T14:45:16.458Z</time></trkpt><trkpt lat="40.7635783" lon="15.1195359"><ele>1299.3999999999999</ele><time>2026-04-25T14:45:17.453Z</time></trkpt><trkpt lat="40.7635945" lon="15.1194005"><ele>1302.0</ele><time>2026-04-25T14:45:18.457Z</time></trkpt><trkpt lat="40.7636061" lon="15.1192715"><ele>1302.0</ele><time>2026-04-25T14:45:19.458Z</time></trkpt><trkpt lat="40.763615" lon="15.1191398"><ele>1302.0</ele><time>2026-04-25T14:45:20.461Z</time></trkpt><trkpt lat="40.7636342" lon="15.1189854"><ele>1302.0</ele><time>2026-04-25T14:45:21.451Z</time></trkpt><trkpt lat="40.7636528" lon="15.1188519"><ele>1302.0</ele><time>2026-04-25T14:45:22.449Z</time></trkpt><trkpt lat="40.7636714" lon="15.1187391"><ele>1302.0</ele><time>2026-04-25T14:45:23.461Z</time></trkpt><trkpt lat="40.7637054" lon="15.1186451"><ele>1300.6666666666667</ele><time>2026-04-25T14:45:24.452Z</time></trkpt><trkpt lat="40.7637452" lon="15.1185617"><ele>1299.3333333333333</ele><time>2026-04-25T14:45:25.453Z</time></trkpt><trkpt lat="40.7637799" lon="15.1184794"><ele>1298.0</ele><time>2026-04-25T14:45:26.456Z</time></trkpt><trkpt lat="40.7638382" lon="15.1183976"><ele>1296.6666666666665</ele><time>2026-04-25T14:45:27.457Z</time></trkpt><trkpt lat="40.7638873" lon="15.1183031"><ele>1295.3333333333333</ele><time>2026-04-25T14:45:28.456Z</time></trkpt><trkpt lat="40.7639223" lon="15.1181956"><ele>1294.0</ele><time>2026-04-25T14:45:29.463Z</time></trkpt><trkpt lat="40.7639442" lon="15.118066"><ele>1292.6</ele><time>2026-04-25T14:45:30.449Z</time></trkpt><trkpt lat="40.7639644" lon="15.1179195"><ele>1291.2</ele><time>2026-04-25T14:45:31.454Z</time></trkpt><trkpt lat="40.7639842" lon="15.1177862"><ele>1289.8</ele><time>2026-04-25T14:45:32.45Z</time></trkpt><trkpt lat="40.7640069" lon="15.1176458"><ele>1288.3999999999999</ele><time>2026-04-25T14:45:33.46Z</time></trkpt><trkpt lat="40.7640308" lon="15.1174967"><ele>1287.0</ele><time>2026-04-25T14:45:34.453Z</time></trkpt><trkpt lat="40.7640543" lon="15.1173207"><ele>1284.0</ele><time>2026-04-25T14:45:35.46Z</time></trkpt><trkpt lat="40.764088" lon="15.1171463"><ele>1281.0</ele><time>2026-04-25T14:45:36.465Z</time></trkpt><trkpt lat="40.7641276" lon="15.1168279"><ele>1278.0</ele><time>2026-04-25T14:45:37.462Z</time></trkpt><trkpt lat="40.7641665" lon="15.116607"><ele>1274.3333333333333</ele><time>2026-04-25T14:45:38.465Z</time></trkpt><trkpt lat="40.7642144" lon="15.1163772"><ele>1270.6666666666665</ele><time>2026-04-25T14:45:39.453Z</time></trkpt><trkpt lat="40.7642681" lon="15.1161674"><ele>1267.0</ele><time>2026-04-25T14:45:40.453Z</time></trkpt><trkpt lat="40.7643174" lon="15.115945"><ele>1267.0</ele><time>2026-04-25T14:45:41.464Z</time></trkpt><trkpt lat="40.7643528" lon="15.1157726"><ele>1267.0</ele><time>2026-04-25T14:45:42.454Z</time></trkpt><trkpt lat="40.7643762" lon="15.115576"><ele>1267.0</ele><time>2026-04-25T14:45:43.45Z</time></trkpt><trkpt lat="40.7644" lon="15.1153726"><ele>1267.0</ele><time>2026-04-25T14:45:44.45Z</time></trkpt><trkpt lat="40.7644305" lon="15.1151997"><ele>1270.75</ele><time>2026-04-25T14:45:45.473Z</time></trkpt><trkpt lat="40.764482" lon="15.1150141"><ele>1274.5</ele><time>2026-04-25T14:45:46.461Z</time></trkpt><trkpt lat="40.7645254" lon="15.1148138"><ele>1278.25</ele><time>2026-04-25T14:45:47.461Z</time></trkpt><trkpt lat="40.7645668" lon="15.1146392"><ele>1282.0</ele><time>2026-04-25T14:45:48.461Z</time></trkpt><trkpt lat="40.7646052" lon="15.1144509"><ele>1282.0</ele><time>2026-04-25T14:45:49.457Z</time></trkpt><trkpt lat="40.7646607" lon="15.1142292"><ele>1282.0</ele><time>2026-04-25T14:45:50.465Z</time></trkpt><trkpt lat="40.7646999" lon="15.1140659"><ele>1282.0</ele><time>2026-04-25T14:45:51.456Z</time></trkpt><trkpt lat="40.7647603" lon="15.1139217"><ele>1282.0</ele><time>2026-04-25T14:45:52.45Z</time></trkpt><trkpt lat="40.7648073" lon="15.1137893"><ele>1281.8333333333333</ele><time>2026-04-25T14:45:53.454Z</time></trkpt><trkpt lat="40.7648434" lon="15.1136777"><ele>1281.6666666666665</ele><time>2026-04-25T14:45:54.465Z</time></trkpt><trkpt lat="40.7648457" lon="15.1135634"><ele>1281.5</ele><time>2026-04-25T14:45:55.457Z</time></trkpt><trkpt lat="40.7648058" lon="15.1134604"><ele>1281.3333333333333</ele><time>2026-04-25T14:45:56.453Z</time></trkpt><trkpt lat="40.764752" lon="15.1133668"><ele>1281.1666666666667</ele><time>2026-04-25T14:45:57.456Z</time></trkpt><trkpt lat="40.7646972" lon="15.1132725"><ele>1281.0</ele><time>2026-04-25T14:45:58.45Z</time></trkpt><trkpt lat="40.7646293" lon="15.1131526"><ele>1284.75</ele><time>2026-04-25T14:45:59.458Z</time></trkpt><trkpt lat="40.7645634" lon="15.1130306"><ele>1288.5</ele><time>2026-04-25T14:46:00.449Z</time></trkpt><trkpt lat="40.7644932" lon="15.1128976"><ele>1292.25</ele><time>2026-04-25T14:46:01.457Z</time></trkpt><trkpt lat="40.7644241" lon="15.1127612"><ele>1296.0</ele><time>2026-04-25T14:46:02.456Z</time></trkpt><trkpt lat="40.7643627" lon="15.1126278"><ele>1285.25</ele><time>2026-04-25T14:46:03.459Z</time></trkpt><trkpt lat="40.7643073" lon="15.112478"><ele>1274.5</ele><time>2026-04-25T14:46:04.456Z</time></trkpt><trkpt lat="40.7642627" lon="15.112338"><ele>1263.75</ele><time>2026-04-25T14:46:05.453Z</time></trkpt><trkpt lat="40.764232" lon="15.1121934"><ele>1253.0</ele><time>2026-04-25T14:46:06.456Z</time></trkpt><trkpt lat="40.7642133" lon="15.112041"><ele>1252.75</ele><time>2026-04-25T14:46:07.461Z</time></trkpt><trkpt lat="40.7642086" lon="15.1118831"><ele>1252.5</ele><time>2026-04-25T14:46:08.452Z</time></trkpt><trkpt lat="40.7642104" lon="15.111721"><ele>1252.25</ele><time>2026-04-25T14:46:09.45Z</time></trkpt><trkpt lat="40.7642196" lon="15.1115549"><ele>1252.0</ele><time>2026-04-25T14:46:10.453Z</time></trkpt><trkpt lat="40.7642317" lon="15.1113912"><ele>1253.8</ele><time>2026-04-25T14:46:11.467Z</time></trkpt><trkpt lat="40.764268" lon="15.1112457"><ele>1255.6</ele><time>2026-04-25T14:46:12.46Z</time></trkpt><trkpt lat="40.7643003" lon="15.111111"><ele>1257.3999999999999</ele><time>2026-04-25T14:46:13.474Z</time></trkpt><trkpt lat="40.7643495" lon="15.1110065"><ele>1259.2</ele><time>2026-04-25T14:46:14.455Z</time></trkpt><trkpt lat="40.7644217" lon="15.1108992"><ele>1261.0</ele><time>2026-04-25T14:46:15.476Z</time></trkpt><trkpt lat="40.7645089" lon="15.1108065"><ele>1252.25</ele><time>2026-04-25T14:46:16.455Z</time></trkpt><trkpt lat="40.7646156" lon="15.1107318"><ele>1243.5</ele><time>2026-04-25T14:46:17.455Z</time></trkpt><trkpt lat="40.7647213" lon="15.1106791"><ele>1234.75</ele><time>2026-04-25T14:46:18.45Z</time></trkpt><trkpt lat="40.7648324" lon="15.1106528"><ele>1226.0</ele><time>2026-04-25T14:46:19.487Z</time></trkpt><trkpt lat="40.7649497" lon="15.11063"><ele>1226.0</ele><time>2026-04-25T14:46:20.483Z</time></trkpt><trkpt lat="40.7650639" lon="15.1106402"><ele>1226.0</ele><time>2026-04-25T14:46:21.475Z</time></trkpt><trkpt lat="40.7651796" lon="15.1106479"><ele>1226.0</ele><time>2026-04-25T14:46:22.473Z</time></trkpt><trkpt lat="40.7652942" lon="15.1106415"><ele>1226.0</ele><time>2026-04-25T14:46:23.485Z</time></trkpt><trkpt lat="40.7654009" lon="15.1105969"><ele>1232.6</ele><time>2026-04-25T14:46:24.452Z</time></trkpt><trkpt lat="40.7654969" lon="15.110519"><ele>1239.1999999999998</ele><time>2026-04-25T14:46:25.457Z</time></trkpt><trkpt lat="40.7655854" lon="15.1104369"><ele>1245.8000000000002</ele><time>2026-04-25T14:46:26.463Z</time></trkpt><trkpt lat="40.7656558" lon="15.1103549"><ele>1252.4</ele><time>2026-04-25T14:46:27.472Z</time></trkpt><trkpt lat="40.7656918" lon="15.1102465"><ele>1259.0</ele><time>2026-04-25T14:46:28.459Z</time></trkpt><trkpt lat="40.7657028" lon="15.1101264"><ele>1259.0</ele><time>2026-04-25T14:46:29.461Z</time></trkpt><trkpt lat="40.7656911" lon="15.1100241"><ele>1259.0</ele><time>2026-04-25T14:46:30.458Z</time></trkpt><trkpt lat="40.7656647" lon="15.1099071"><ele>1259.0</ele><time>2026-04-25T14:46:31.49Z</time></trkpt><trkpt lat="40.7656513" lon="15.1098234"><ele>1259.0</ele><time>2026-04-25T14:46:32.48Z</time></trkpt><trkpt lat="40.7656582" lon="15.1097329"><ele>1259.0</ele><time>2026-04-25T14:46:33.478Z</time></trkpt><trkpt lat="40.7656925" lon="15.1096328"><ele>1259.0</ele><time>2026-04-25T14:46:34.47Z</time></trkpt><trkpt lat="40.7657384" lon="15.1095503"><ele>1254.2</ele><time>2026-04-25T14:46:35.456Z</time></trkpt><trkpt lat="40.7657754" lon="15.1094393"><ele>1249.4</ele><time>2026-04-25T14:46:36.483Z</time></trkpt><trkpt lat="40.7658293" lon="15.1093232"><ele>1244.6</ele><time>2026-04-25T14:46:37.472Z</time></trkpt><trkpt lat="40.7658957" lon="15.1091976"><ele>1239.8</ele><time>2026-04-25T14:46:38.466Z</time></trkpt><trkpt lat="40.7659796" lon="15.1090747"><ele>1235.0</ele><time>2026-04-25T14:46:39.473Z</time></trkpt><trkpt lat="40.7660739" lon="15.1089546"><ele>1232.4</ele><time>2026-04-25T14:46:40.483Z</time></trkpt><trkpt lat="40.7661592" lon="15.1088472"><ele>1229.8</ele><time>2026-04-25T14:46:41.451Z</time></trkpt><trkpt lat="40.7662468" lon="15.1087612"><ele>1227.2</ele><time>2026-04-25T14:46:42.456Z</time></trkpt><trkpt lat="40.7663189" lon="15.1087129"><ele>1224.6</ele><time>2026-04-25T14:46:43.472Z</time></trkpt><trkpt lat="40.7663963" lon="15.1087069"><ele>1222.0</ele><time>2026-04-25T14:46:44.459Z</time></trkpt><trkpt lat="40.7664684" lon="15.1087225"><ele>1222.0</ele><time>2026-04-25T14:46:45.456Z</time></trkpt><trkpt lat="40.7665328" lon="15.1087569"><ele>1222.0</ele><time>2026-04-25T14:46:46.469Z</time></trkpt><trkpt lat="40.7665988" lon="15.1087814"><ele>1222.0</ele><time>2026-04-25T14:46:47.456Z</time></trkpt><trkpt lat="40.7666787" lon="15.1087934"><ele>1222.0</ele><time>2026-04-25T14:46:48.456Z</time></trkpt><trkpt lat="40.7667556" lon="15.1087716"><ele>1222.0</ele><time>2026-04-25T14:46:49.455Z</time></trkpt><trkpt lat="40.7668304" lon="15.1087206"><ele>1222.0</ele><time>2026-04-25T14:46:50.459Z</time></trkpt><trkpt lat="40.7668785" lon="15.1086099"><ele>1226.75</ele><time>2026-04-25T14:46:51.448Z</time></trkpt><trkpt lat="40.7669739" lon="15.1085259"><ele>1231.5</ele><time>2026-04-25T14:46:52.457Z</time></trkpt><trkpt lat="40.7671091" lon="15.1084515"><ele>1236.25</ele><time>2026-04-25T14:46:53.46Z</time></trkpt><trkpt lat="40.767236" lon="15.108359"><ele>1241.0</ele><time>2026-04-25T14:46:54.452Z</time></trkpt><trkpt lat="40.7673716" lon="15.1082564"><ele>1235.6666666666667</ele><time>2026-04-25T14:46:55.463Z</time></trkpt><trkpt lat="40.7674943" lon="15.1081487"><ele>1230.3333333333333</ele><time>2026-04-25T14:46:56.453Z</time></trkpt><trkpt lat="40.7676267" lon="15.1080427"><ele>1225.0</ele><time>2026-04-25T14:46:57.449Z</time></trkpt><trkpt lat="40.7677581" lon="15.1079453"><ele>1225.0</ele><time>2026-04-25T14:46:58.457Z</time></trkpt><trkpt lat="40.7678957" lon="15.1078449"><ele>1225.0</ele><time>2026-04-25T14:46:59.458Z</time></trkpt><trkpt lat="40.7680427" lon="15.1077386"><ele>1225.0</ele><time>2026-04-25T14:47:00.457Z</time></trkpt><trkpt lat="40.7681778" lon="15.1076356"><ele>1225.0</ele><time>2026-04-25T14:47:01.448Z</time></trkpt><trkpt lat="40.7683133" lon="15.1075397"><ele>1225.0</ele><time>2026-04-25T14:47:02.455Z</time></trkpt><trkpt lat="40.7684441" lon="15.1074671"><ele>1225.0</ele><time>2026-04-25T14:47:03.469Z</time></trkpt><trkpt lat="40.7685612" lon="15.1074039"><ele>1225.0</ele><time>2026-04-25T14:47:04.451Z</time></trkpt><trkpt lat="40.7686635" lon="15.1073783"><ele>1217.5</ele><time>2026-04-25T14:47:05.466Z</time></trkpt><trkpt lat="40.7687727" lon="15.1073748"><ele>1210.0</ele><time>2026-04-25T14:47:06.452Z</time></trkpt><trkpt lat="40.768908" lon="15.1073689"><ele>1202.5</ele><time>2026-04-25T14:47:07.453Z</time></trkpt><trkpt lat="40.769059" lon="15.1073862"><ele>1195.0</ele><time>2026-04-25T14:47:08.463Z</time></trkpt><trkpt lat="40.769191" lon="15.1074065"><ele>1200.25</ele><time>2026-04-25T14:47:09.458Z</time></trkpt><trkpt lat="40.7693247" lon="15.1074178"><ele>1205.5</ele><time>2026-04-25T14:47:10.456Z</time></trkpt><trkpt lat="40.7694452" lon="15.1074519"><ele>1210.75</ele><time>2026-04-25T14:47:11.455Z</time></trkpt><trkpt lat="40.7695523" lon="15.1074928"><ele>1216.0</ele><time>2026-04-25T14:47:12.453Z</time></trkpt><trkpt lat="40.769656" lon="15.107574"><ele>1216.0</ele><time>2026-04-25T14:47:13.452Z</time></trkpt><trkpt lat="40.7697496" lon="15.1076747"><ele>1216.0</ele><time>2026-04-25T14:47:14.445Z</time></trkpt><trkpt lat="40.7698313" lon="15.107775"><ele>1216.0</ele><time>2026-04-25T14:47:15.459Z</time></trkpt><trkpt lat="40.769906" lon="15.1078639"><ele>1216.0</ele><time>2026-04-25T14:47:16.459Z</time></trkpt><trkpt lat="40.7699742" lon="15.1079476"><ele>1216.0</ele><time>2026-04-25T14:47:17.457Z</time></trkpt><trkpt lat="40.7700472" lon="15.1080077"><ele>1216.0</ele><time>2026-04-25T14:47:18.457Z</time></trkpt><trkpt lat="40.7701338" lon="15.1080373"><ele>1216.0</ele><time>2026-04-25T14:47:19.456Z</time></trkpt><trkpt lat="40.7702121" lon="15.1080339"><ele>1216.0</ele><time>2026-04-25T14:47:20.453Z</time></trkpt><trkpt lat="40.7702902" lon="15.1080066"><ele>1216.0</ele><time>2026-04-25T14:47:21.456Z</time></trkpt><trkpt lat="40.7703762" lon="15.1079384"><ele>1216.0</ele><time>2026-04-25T14:47:22.452Z</time></trkpt><trkpt lat="40.7704688" lon="15.1078683"><ele>1215.3999999999999</ele><time>2026-04-25T14:47:23.463Z</time></trkpt><trkpt lat="40.7705355" lon="15.1078099"><ele>1214.8</ele><time>2026-04-25T14:47:24.459Z</time></trkpt><trkpt lat="40.7706057" lon="15.1077756"><ele>1214.1999999999998</ele><time>2026-04-25T14:47:25.449Z</time></trkpt><trkpt lat="40.7706971" lon="15.1077996"><ele>1213.6</ele><time>2026-04-25T14:47:26.459Z</time></trkpt><trkpt lat="40.7708071" lon="15.1078162"><ele>1213.0</ele><time>2026-04-25T14:47:27.472Z</time></trkpt><trkpt lat="40.7709036" lon="15.1078475"><ele>1213.0</ele><time>2026-04-25T14:47:28.45Z</time></trkpt><trkpt lat="40.7710115" lon="15.1078544"><ele>1213.0</ele><time>2026-04-25T14:47:29.453Z</time></trkpt><trkpt lat="40.7711147" lon="15.1078808"><ele>1213.0</ele><time>2026-04-25T14:47:30.448Z</time></trkpt><trkpt lat="40.7712205" lon="15.1078997"><ele>1213.0</ele><time>2026-04-25T14:47:31.46Z</time></trkpt><trkpt lat="40.7713234" lon="15.107868"><ele>1213.0</ele><time>2026-04-25T14:47:32.459Z</time></trkpt><trkpt lat="40.7714499" lon="15.1078761"><ele>1212.8</ele><time>2026-04-25T14:47:33.471Z</time></trkpt><trkpt lat="40.7715455" lon="15.1078943"><ele>1212.6</ele><time>2026-04-25T14:47:34.47Z</time></trkpt><trkpt lat="40.7716266" lon="15.1079211"><ele>1212.4</ele><time>2026-04-25T14:47:35.454Z</time></trkpt><trkpt lat="40.7717014" lon="15.1079437"><ele>1212.2</ele><time>2026-04-25T14:47:36.448Z</time></trkpt><trkpt lat="40.7717872" lon="15.1079845"><ele>1212.0</ele><time>2026-04-25T14:47:37.452Z</time></trkpt><trkpt lat="40.7718892" lon="15.1079719"><ele>1212.0</ele><time>2026-04-25T14:47:38.459Z</time></trkpt><trkpt lat="40.7720009" lon="15.1079207"><ele>1212.0</ele><time>2026-04-25T14:47:39.459Z</time></trkpt><trkpt lat="40.7720974" lon="15.107863"><ele>1212.0</ele><time>2026-04-25T14:47:40.454Z</time></trkpt><trkpt lat="40.7722029" lon="15.1078142"><ele>1212.0</ele><time>2026-04-25T14:47:41.456Z</time></trkpt><trkpt lat="40.7723134" lon="15.1077573"><ele>1212.0</ele><time>2026-04-25T14:47:42.457Z</time></trkpt><trkpt lat="40.7724521" lon="15.1077347"><ele>1212.0</ele><time>2026-04-25T14:47:43.452Z</time></trkpt><trkpt lat="40.7725729" lon="15.1077192"><ele>1212.0</ele><time>2026-04-25T14:47:44.465Z</time></trkpt><trkpt lat="40.7727033" lon="15.107727"><ele>1212.0</ele><time>2026-04-25T14:47:45.469Z</time></trkpt><trkpt lat="40.7728291" lon="15.1077596"><ele>1211.25</ele><time>2026-04-25T14:47:46.464Z</time></trkpt><trkpt lat="40.7729586" lon="15.1077961"><ele>1210.5</ele><time>2026-04-25T14:47:47.458Z</time></trkpt><trkpt lat="40.7730924" lon="15.1078558"><ele>1209.75</ele><time>2026-04-25T14:47:48.463Z</time></trkpt><trkpt lat="40.773237" lon="15.1079129"><ele>1209.0</ele><time>2026-04-25T14:47:49.468Z</time></trkpt><trkpt lat="40.7733862" lon="15.1079934"><ele>1207.3333333333333</ele><time>2026-04-25T14:47:50.451Z</time></trkpt><trkpt lat="40.7735302" lon="15.1080618"><ele>1205.6666666666665</ele><time>2026-04-25T14:47:51.464Z</time></trkpt><trkpt lat="40.7736792" lon="15.1081183"><ele>1204.0</ele><time>2026-04-25T14:47:52.46Z</time></trkpt><trkpt lat="40.7738262" lon="15.1081712"><ele>1204.0</ele><time>2026-04-25T14:47:53.47Z</time></trkpt><trkpt lat="40.773966" lon="15.1082343"><ele>1204.0</ele><time>2026-04-25T14:47:54.465Z</time></trkpt><trkpt lat="40.7741136" lon="15.1082732"><ele>1204.0</ele><time>2026-04-25T14:47:55.457Z</time></trkpt><trkpt lat="40.7742488" lon="15.1083258"><ele>1204.0</ele><time>2026-04-25T14:47:56.449Z</time></trkpt><trkpt lat="40.7743936" lon="15.1083863"><ele>1210.25</ele><time>2026-04-25T14:47:57.467Z</time></trkpt><trkpt lat="40.7745275" lon="15.1084182"><ele>1216.5</ele><time>2026-04-25T14:47:58.452Z</time></trkpt><trkpt lat="40.7746598" lon="15.1084527"><ele>1222.75</ele><time>2026-04-25T14:47:59.455Z</time></trkpt><trkpt lat="40.7747996" lon="15.1084529"><ele>1229.0</ele><time>2026-04-25T14:48:00.462Z</time></trkpt><trkpt lat="40.7749197" lon="15.1084491"><ele>1229.0</ele><time>2026-04-25T14:48:01.454Z</time></trkpt><trkpt lat="40.7750401" lon="15.1084422"><ele>1229.0</ele><time>2026-04-25T14:48:02.457Z</time></trkpt><trkpt lat="40.7751462" lon="15.108443"><ele>1229.0</ele><time>2026-04-25T14:48:03.46Z</time></trkpt><trkpt lat="40.7752526" lon="15.1084587"><ele>1229.0</ele><time>2026-04-25T14:48:04.462Z</time></trkpt><trkpt lat="40.7753356" lon="15.1084474"><ele>1229.0</ele><time>2026-04-25T14:48:05.451Z</time></trkpt><trkpt lat="40.775429" lon="15.1083531"><ele>1235.25</ele><time>2026-04-25T14:48:07.456Z</time></trkpt><trkpt lat="40.7754246" lon="15.1081953"><ele>1241.5</ele><time>2026-04-25T14:48:09.469Z</time></trkpt><trkpt lat="40.7753875" lon="15.1080829"><ele>1247.75</ele><time>2026-04-25T14:48:10.453Z</time></trkpt><trkpt lat="40.7753371" lon="15.1079457"><ele>1254.0</ele><time>2026-04-25T14:48:11.452Z</time></trkpt><trkpt lat="40.7752547" lon="15.1078038"><ele>1246.5</ele><time>2026-04-25T14:48:12.473Z</time></trkpt><trkpt lat="40.7751873" lon="15.1076826"><ele>1239.0</ele><time>2026-04-25T14:48:13.469Z</time></trkpt><trkpt lat="40.7750897" lon="15.1075246"><ele>1231.5</ele><time>2026-04-25T14:48:14.46Z</time></trkpt><trkpt lat="40.7749936" lon="15.1073835"><ele>1224.0</ele><time>2026-04-25T14:48:15.466Z</time></trkpt><trkpt lat="40.7748943" lon="15.107241"><ele>1223.6000000000001</ele><time>2026-04-25T14:48:16.458Z</time></trkpt><trkpt lat="40.7748201" lon="15.1071178"><ele>1223.2</ele><time>2026-04-25T14:48:17.456Z</time></trkpt><trkpt lat="40.7747509" lon="15.1070054"><ele>1222.8000000000002</ele><time>2026-04-25T14:48:18.457Z</time></trkpt><trkpt lat="40.7747215" lon="15.1068724"><ele>1222.4</ele><time>2026-04-25T14:48:19.468Z</time></trkpt><trkpt lat="40.7746926" lon="15.1067426"><ele>1222.0</ele><time>2026-04-25T14:48:20.455Z</time></trkpt><trkpt lat="40.7747067" lon="15.1066225"><ele>1219.5</ele><time>2026-04-25T14:48:21.454Z</time></trkpt><trkpt lat="40.7747324" lon="15.1064933"><ele>1217.0</ele><time>2026-04-25T14:48:22.462Z</time></trkpt><trkpt lat="40.7748003" lon="15.106376"><ele>1214.5</ele><time>2026-04-25T14:48:23.458Z</time></trkpt><trkpt lat="40.7748896" lon="15.1062464"><ele>1212.0</ele><time>2026-04-25T14:48:24.462Z</time></trkpt><trkpt lat="40.7749774" lon="15.1060976"><ele>1212.0</ele><time>2026-04-25T14:48:25.452Z</time></trkpt><trkpt lat="40.7750382" lon="15.105957"><ele>1212.0</ele><time>2026-04-25T14:48:26.456Z</time></trkpt><trkpt lat="40.7750927" lon="15.1058224"><ele>1212.0</ele><time>2026-04-25T14:48:27.469Z</time></trkpt><trkpt lat="40.7751682" lon="15.1057428"><ele>1212.0</ele><time>2026-04-25T14:48:28.453Z</time></trkpt><trkpt lat="40.7752214" lon="15.1056889"><ele>1212.0</ele><time>2026-04-25T14:48:29.458Z</time></trkpt><trkpt lat="40.7752979" lon="15.105678"><ele>1213.5</ele><time>2026-04-25T14:48:30.458Z</time></trkpt><trkpt lat="40.7753697" lon="15.1056929"><ele>1215.0</ele><time>2026-04-25T14:48:31.454Z</time></trkpt><trkpt lat="40.775436" lon="15.1057308"><ele>1216.5</ele><time>2026-04-25T14:48:32.455Z</time></trkpt><trkpt lat="40.7755193" lon="15.1057908"><ele>1218.0</ele><time>2026-04-25T14:48:33.453Z</time></trkpt><trkpt lat="40.7756225" lon="15.1058083"><ele>1219.5</ele><time>2026-04-25T14:48:34.454Z</time></trkpt><trkpt lat="40.7757112" lon="15.1057855"><ele>1221.0</ele><time>2026-04-25T14:48:35.462Z</time></trkpt><trkpt lat="40.7757981" lon="15.1057317"><ele>1220.3999999999999</ele><time>2026-04-25T14:48:36.467Z</time></trkpt><trkpt lat="40.7758997" lon="15.1056971"><ele>1219.8</ele><time>2026-04-25T14:48:37.469Z</time></trkpt><trkpt lat="40.7759955" lon="15.1056861"><ele>1219.1999999999998</ele><time>2026-04-25T14:48:38.46Z</time></trkpt><trkpt lat="40.7760952" lon="15.1056905"><ele>1218.6</ele><time>2026-04-25T14:48:39.458Z</time></trkpt><trkpt lat="40.7761793" lon="15.1057049"><ele>1218.0</ele><time>2026-04-25T14:48:40.449Z</time></trkpt><trkpt lat="40.7762604" lon="15.1057654"><ele>1218.0</ele><time>2026-04-25T14:48:41.45Z</time></trkpt><trkpt lat="40.7763229" lon="15.1058419"><ele>1218.0</ele><time>2026-04-25T14:48:42.45Z</time></trkpt><trkpt lat="40.7764199" lon="15.1058702"><ele>1218.0</ele><time>2026-04-25T14:48:43.459Z</time></trkpt><trkpt lat="40.7764857" lon="15.1058649"><ele>1218.0</ele><time>2026-04-25T14:48:44.45Z</time></trkpt><trkpt lat="40.7765645" lon="15.1057726"><ele>1218.0</ele><time>2026-04-25T14:48:46.448Z</time></trkpt><trkpt lat="40.7765977" lon="15.1056948"><ele>1218.0</ele><time>2026-04-25T14:48:47.459Z</time></trkpt><trkpt lat="40.7766205" lon="15.1055779"><ele>1218.0</ele><time>2026-04-25T14:48:48.457Z</time></trkpt><trkpt lat="40.7766672" lon="15.1054156"><ele>1218.0</ele><time>2026-04-25T14:48:49.461Z</time></trkpt><trkpt lat="40.7767239" lon="15.1052527"><ele>1218.0</ele><time>2026-04-25T14:48:50.454Z</time></trkpt><trkpt lat="40.7767946" lon="15.105079"><ele>1218.0</ele><time>2026-04-25T14:48:51.454Z</time></trkpt><trkpt lat="40.7768435" lon="15.1049342"><ele>1217.2</ele><time>2026-04-25T14:48:52.451Z</time></trkpt><trkpt lat="40.7768937" lon="15.1048"><ele>1216.4</ele><time>2026-04-25T14:48:53.457Z</time></trkpt><trkpt lat="40.7769132" lon="15.1046794"><ele>1215.6000000000001</ele><time>2026-04-25T14:48:54.459Z</time></trkpt><trkpt lat="40.7769053" lon="15.1045585"><ele>1214.8</ele><time>2026-04-25T14:48:55.459Z</time></trkpt><trkpt lat="40.7768933" lon="15.1044341"><ele>1214.0</ele><time>2026-04-25T14:48:56.46Z</time></trkpt><trkpt lat="40.7768609" lon="15.1042879"><ele>1214.25</ele><time>2026-04-25T14:48:57.469Z</time></trkpt><trkpt lat="40.7768403" lon="15.1041229"><ele>1214.5</ele><time>2026-04-25T14:48:58.46Z</time></trkpt><trkpt lat="40.7768022" lon="15.1039513"><ele>1214.75</ele><time>2026-04-25T14:48:59.46Z</time></trkpt><trkpt lat="40.7767559" lon="15.1037885"><ele>1215.0</ele><time>2026-04-25T14:49:00.457Z</time></trkpt><trkpt lat="40.776712" lon="15.1036886"><ele>1215.5</ele><time>2026-04-25T14:49:01.47Z</time></trkpt><trkpt lat="40.7766584" lon="15.103519"><ele>1216.0</ele><time>2026-04-25T14:49:02.459Z</time></trkpt><trkpt lat="40.7766326" lon="15.1033799"><ele>1216.5</ele><time>2026-04-25T14:49:03.462Z</time></trkpt><trkpt lat="40.7766278" lon="15.1032418"><ele>1217.0</ele><time>2026-04-25T14:49:04.462Z</time></trkpt><trkpt lat="40.7766522" lon="15.1030978"><ele>1218.5</ele><time>2026-04-25T14:49:05.47Z</time></trkpt><trkpt lat="40.7766947" lon="15.1029503"><ele>1220.0</ele><time>2026-04-25T14:49:06.464Z</time></trkpt><trkpt lat="40.7767583" lon="15.1027958"><ele>1221.5</ele><time>2026-04-25T14:49:07.471Z</time></trkpt><trkpt lat="40.776838" lon="15.1026348"><ele>1223.0</ele><time>2026-04-25T14:49:08.457Z</time></trkpt><trkpt lat="40.7769233" lon="15.1024774"><ele>1222.5</ele><time>2026-04-25T14:49:09.46Z</time></trkpt><trkpt lat="40.7770121" lon="15.1023298"><ele>1222.0</ele><time>2026-04-25T14:49:10.469Z</time></trkpt><trkpt lat="40.7771067" lon="15.1021775"><ele>1221.5</ele><time>2026-04-25T14:49:11.456Z</time></trkpt><trkpt lat="40.777201" lon="15.1020319"><ele>1221.0</ele><time>2026-04-25T14:49:12.452Z</time></trkpt><trkpt lat="40.7772949" lon="15.101886"><ele>1221.0</ele><time>2026-04-25T14:49:13.456Z</time></trkpt><trkpt lat="40.7773775" lon="15.1017429"><ele>1221.0</ele><time>2026-04-25T14:49:14.451Z</time></trkpt><trkpt lat="40.777453" lon="15.101592"><ele>1221.0</ele><time>2026-04-25T14:49:15.454Z</time></trkpt><trkpt lat="40.77751" lon="15.1014323"><ele>1221.0</ele><time>2026-04-25T14:49:16.45Z</time></trkpt><trkpt lat="40.7775585" lon="15.1012788"><ele>1219.0</ele><time>2026-04-25T14:49:17.452Z</time></trkpt><trkpt lat="40.7776015" lon="15.1011312"><ele>1217.0</ele><time>2026-04-25T14:49:18.455Z</time></trkpt><trkpt lat="40.7776387" lon="15.1009897"><ele>1215.0</ele><time>2026-04-25T14:49:19.463Z</time></trkpt><trkpt lat="40.7777055" lon="15.1008924"><ele>1213.0</ele><time>2026-04-25T14:49:20.457Z</time></trkpt><trkpt lat="40.7777672" lon="15.1008048"><ele>1211.0</ele><time>2026-04-25T14:49:21.459Z</time></trkpt><trkpt lat="40.7778338" lon="15.1007728"><ele>1215.0</ele><time>2026-04-25T14:49:22.46Z</time></trkpt><trkpt lat="40.7778993" lon="15.1007858"><ele>1219.0</ele><time>2026-04-25T14:49:23.453Z</time></trkpt><trkpt lat="40.7779548" lon="15.100828"><ele>1223.0</ele><time>2026-04-25T14:49:24.451Z</time></trkpt><trkpt lat="40.7780464" lon="15.1009625"><ele>1227.0</ele><time>2026-04-25T14:49:26.46Z</time></trkpt><trkpt lat="40.7780958" lon="15.1010411"><ele>1231.0</ele><time>2026-04-25T14:49:27.458Z</time></trkpt><trkpt lat="40.7781418" lon="15.1011154"><ele>1235.0</ele><time>2026-04-25T14:49:28.455Z</time></trkpt><trkpt lat="40.7781938" lon="15.1011841"><ele>1234.9999999999998</ele><time>2026-04-25T14:49:29.472Z</time></trkpt><trkpt lat="40.7782448" lon="15.1012445"><ele>1235.0</ele><time>2026-04-25T14:49:30.453Z</time></trkpt><trkpt lat="40.7782995" lon="15.1013011"><ele>1235.0</ele><time>2026-04-25T14:49:31.464Z</time></trkpt><trkpt lat="40.7783577" lon="15.1013552"><ele>1235.0</ele><time>2026-04-25T14:49:32.456Z</time></trkpt><trkpt lat="40.7784189" lon="15.1014079"><ele>1235.0</ele><time>2026-04-25T14:49:33.461Z</time></trkpt><trkpt lat="40.7784806" lon="15.1014584"><ele>1234.9999999999998</ele><time>2026-04-25T14:49:34.459Z</time></trkpt><trkpt lat="40.7785432" lon="15.1015191"><ele>1235.0</ele><time>2026-04-25T14:49:35.458Z</time></trkpt><trkpt lat="40.7786011" lon="15.1016034"><ele>1237.0</ele><time>2026-04-25T14:49:36.461Z</time></trkpt><trkpt lat="40.7786523" lon="15.1017019"><ele>1239.0</ele><time>2026-04-25T14:49:37.459Z</time></trkpt><trkpt lat="40.7786969" lon="15.101817"><ele>1241.0</ele><time>2026-04-25T14:49:38.463Z</time></trkpt><trkpt lat="40.77874" lon="15.1019352"><ele>1243.0</ele><time>2026-04-25T14:49:39.467Z</time></trkpt><trkpt lat="40.7787835" lon="15.1020558"><ele>1245.0</ele><time>2026-04-25T14:49:40.445Z</time></trkpt><trkpt lat="40.778828" lon="15.1021747"><ele>1245.0</ele><time>2026-04-25T14:49:41.457Z</time></trkpt><trkpt lat="40.778887" lon="15.1022933"><ele>1245.0</ele><time>2026-04-25T14:49:42.457Z</time></trkpt><trkpt lat="40.778947" lon="15.1024305"><ele>1245.0</ele><time>2026-04-25T14:49:43.466Z</time></trkpt><trkpt lat="40.7790081" lon="15.1025394"><ele>1245.0</ele><time>2026-04-25T14:49:44.459Z</time></trkpt><trkpt lat="40.7790747" lon="15.1026424"><ele>1245.0</ele><time>2026-04-25T14:49:45.469Z</time></trkpt><trkpt lat="40.7791552" lon="15.1027377"><ele>1244.0</ele><time>2026-04-25T14:49:46.453Z</time></trkpt><trkpt lat="40.7792466" lon="15.1028195"><ele>1243.0</ele><time>2026-04-25T14:49:47.458Z</time></trkpt><trkpt lat="40.7793242" lon="15.10291"><ele>1242.0</ele><time>2026-04-25T14:49:48.459Z</time></trkpt><trkpt lat="40.7794367" lon="15.1030949"><ele>1241.0</ele><time>2026-04-25T14:49:49.47Z</time></trkpt><trkpt lat="40.779493" lon="15.103263"><ele>1236.25</ele><time>2026-04-25T14:49:50.456Z</time></trkpt><trkpt lat="40.7795231" lon="15.1034758"><ele>1231.5</ele><time>2026-04-25T14:49:51.456Z</time></trkpt><trkpt lat="40.7795294" lon="15.1036321"><ele>1226.75</ele><time>2026-04-25T14:49:52.455Z</time></trkpt><trkpt lat="40.7795283" lon="15.103784"><ele>1222.0</ele><time>2026-04-25T14:49:53.474Z</time></trkpt><trkpt lat="40.7795506" lon="15.1039309"><ele>1222.0</ele><time>2026-04-25T14:49:54.456Z</time></trkpt><trkpt lat="40.7795574" lon="15.1040709"><ele>1222.0</ele><time>2026-04-25T14:49:55.469Z</time></trkpt><trkpt lat="40.7795535" lon="15.1041976"><ele>1222.0</ele><time>2026-04-25T14:49:56.455Z</time></trkpt><trkpt lat="40.7795571" lon="15.1043287"><ele>1222.0</ele><time>2026-04-25T14:49:57.462Z</time></trkpt><trkpt lat="40.7795779" lon="15.1044451"><ele>1222.0</ele><time>2026-04-25T14:49:58.475Z</time></trkpt><trkpt lat="40.7796291" lon="15.1045498"><ele>1219.8</ele><time>2026-04-25T14:49:59.454Z</time></trkpt><trkpt lat="40.7796861" lon="15.1046595"><ele>1217.6</ele><time>2026-04-25T14:50:00.455Z</time></trkpt><trkpt lat="40.7797338" lon="15.1047582"><ele>1215.3999999999999</ele><time>2026-04-25T14:50:01.461Z</time></trkpt><trkpt lat="40.7797829" lon="15.1048791"><ele>1213.2</ele><time>2026-04-25T14:50:02.458Z</time></trkpt><trkpt lat="40.7798246" lon="15.1049885"><ele>1211.0</ele><time>2026-04-25T14:50:03.458Z</time></trkpt><trkpt lat="40.779881" lon="15.1050693"><ele>1208.6</ele><time>2026-04-25T14:50:04.46Z</time></trkpt><trkpt lat="40.7799499" lon="15.1051409"><ele>1206.1999999999998</ele><time>2026-04-25T14:50:05.46Z</time></trkpt><trkpt lat="40.780034" lon="15.1052065"><ele>1203.8000000000002</ele><time>2026-04-25T14:50:06.449Z</time></trkpt><trkpt lat="40.7801212" lon="15.1052649"><ele>1201.4</ele><time>2026-04-25T14:50:07.457Z</time></trkpt><trkpt lat="40.780232" lon="15.1053106"><ele>1199.0</ele><time>2026-04-25T14:50:08.461Z</time></trkpt><trkpt lat="40.7803515" lon="15.1053236"><ele>1199.0</ele><time>2026-04-25T14:50:09.462Z</time></trkpt><trkpt lat="40.7804675" lon="15.1053697"><ele>1199.0</ele><time>2026-04-25T14:50:10.457Z</time></trkpt><trkpt lat="40.7805892" lon="15.1054078"><ele>1199.0</ele><time>2026-04-25T14:50:11.459Z</time></trkpt><trkpt lat="40.7807211" lon="15.1054641"><ele>1199.0</ele><time>2026-04-25T14:50:12.466Z</time></trkpt><trkpt lat="40.7808619" lon="15.1055265"><ele>1200.3333333333335</ele><time>2026-04-25T14:50:13.459Z</time></trkpt><trkpt lat="40.7810685" lon="15.1056435"><ele>1201.6666666666667</ele><time>2026-04-25T14:50:14.466Z</time></trkpt><trkpt lat="40.7812285" lon="15.1056989"><ele>1203.0</ele><time>2026-04-25T14:50:15.454Z</time></trkpt><trkpt lat="40.7813979" lon="15.1057853"><ele>1197.6666666666667</ele><time>2026-04-25T14:50:16.458Z</time></trkpt><trkpt lat="40.7815538" lon="15.1058654"><ele>1192.3333333333335</ele><time>2026-04-25T14:50:17.463Z</time></trkpt><trkpt lat="40.7816996" lon="15.1059417"><ele>1187.0</ele><time>2026-04-25T14:50:18.457Z</time></trkpt><trkpt lat="40.7818378" lon="15.1060112"><ele>1189.25</ele><time>2026-04-25T14:50:19.462Z</time></trkpt><trkpt lat="40.7819709" lon="15.106075"><ele>1191.5</ele><time>2026-04-25T14:50:20.465Z</time></trkpt><trkpt lat="40.7821034" lon="15.1061376"><ele>1193.75</ele><time>2026-04-25T14:50:21.457Z</time></trkpt><trkpt lat="40.7822344" lon="15.1061998"><ele>1196.0</ele><time>2026-04-25T14:50:22.46Z</time></trkpt><trkpt lat="40.7823623" lon="15.106261"><ele>1196.0</ele><time>2026-04-25T14:50:23.475Z</time></trkpt><trkpt lat="40.7824943" lon="15.1063216"><ele>1196.0</ele><time>2026-04-25T14:50:24.466Z</time></trkpt><trkpt lat="40.7826309" lon="15.1063831"><ele>1196.0</ele><time>2026-04-25T14:50:25.464Z</time></trkpt><trkpt lat="40.7827727" lon="15.1064464"><ele>1196.0</ele><time>2026-04-25T14:50:26.452Z</time></trkpt><trkpt lat="40.7829212" lon="15.1065102"><ele>1191.6666666666667</ele><time>2026-04-25T14:50:27.46Z</time></trkpt><trkpt lat="40.7830786" lon="15.1065782"><ele>1187.3333333333333</ele><time>2026-04-25T14:50:28.457Z</time></trkpt><trkpt lat="40.7832393" lon="15.1066539"><ele>1183.0</ele><time>2026-04-25T14:50:29.457Z</time></trkpt><trkpt lat="40.7834039" lon="15.1067311"><ele>1187.0</ele><time>2026-04-25T14:50:30.45Z</time></trkpt><trkpt lat="40.7835754" lon="15.1068123"><ele>1191.0</ele><time>2026-04-25T14:50:31.461Z</time></trkpt><trkpt lat="40.7837467" lon="15.1068957"><ele>1195.0</ele><time>2026-04-25T14:50:32.459Z</time></trkpt><trkpt lat="40.7839213" lon="15.1069804"><ele>1195.0</ele><time>2026-04-25T14:50:33.462Z</time></trkpt><trkpt lat="40.7840964" lon="15.1070632"><ele>1195.0</ele><time>2026-04-25T14:50:34.459Z</time></trkpt><trkpt lat="40.7842723" lon="15.1071427"><ele>1195.0</ele><time>2026-04-25T14:50:35.456Z</time></trkpt><trkpt lat="40.7844449" lon="15.1072261"><ele>1197.3333333333333</ele><time>2026-04-25T14:50:36.448Z</time></trkpt><trkpt lat="40.7846123" lon="15.1073126"><ele>1199.6666666666667</ele><time>2026-04-25T14:50:37.453Z</time></trkpt><trkpt lat="40.7847731" lon="15.1073987"><ele>1202.0</ele><time>2026-04-25T14:50:38.457Z</time></trkpt><trkpt lat="40.7849265" lon="15.107487"><ele>1199.5</ele><time>2026-04-25T14:50:39.449Z</time></trkpt><trkpt lat="40.785068" lon="15.1075744"><ele>1197.0</ele><time>2026-04-25T14:50:40.458Z</time></trkpt><trkpt lat="40.7851944" lon="15.1076701"><ele>1194.5</ele><time>2026-04-25T14:50:41.46Z</time></trkpt><trkpt lat="40.7852974" lon="15.107787"><ele>1192.0</ele><time>2026-04-25T14:50:42.457Z</time></trkpt><trkpt lat="40.7853785" lon="15.1079243"><ele>1192.0</ele><time>2026-04-25T14:50:43.453Z</time></trkpt><trkpt lat="40.7854385" lon="15.1080802"><ele>1192.0</ele><time>2026-04-25T14:50:44.49Z</time></trkpt><trkpt lat="40.7854845" lon="15.1082474"><ele>1192.0</ele><time>2026-04-25T14:50:45.465Z</time></trkpt><trkpt lat="40.7855297" lon="15.1084007"><ele>1192.0</ele><time>2026-04-25T14:50:46.451Z</time></trkpt><trkpt lat="40.7855768" lon="15.10857"><ele>1189.75</ele><time>2026-04-25T14:50:47.457Z</time></trkpt><trkpt lat="40.7856274" lon="15.1087298"><ele>1187.5</ele><time>2026-04-25T14:50:48.456Z</time></trkpt><trkpt lat="40.7856802" lon="15.1089006"><ele>1185.25</ele><time>2026-04-25T14:50:49.455Z</time></trkpt><trkpt lat="40.7857429" lon="15.109066"><ele>1183.0</ele><time>2026-04-25T14:50:50.457Z</time></trkpt><trkpt lat="40.7858116" lon="15.1092335"><ele>1181.75</ele><time>2026-04-25T14:50:51.455Z</time></trkpt><trkpt lat="40.7858893" lon="15.1093981"><ele>1180.5</ele><time>2026-04-25T14:50:52.453Z</time></trkpt><trkpt lat="40.7859817" lon="15.1095536"><ele>1179.25</ele><time>2026-04-25T14:50:53.455Z</time></trkpt><trkpt lat="40.7860857" lon="15.1096989"><ele>1178.0</ele><time>2026-04-25T14:50:54.451Z</time></trkpt><trkpt lat="40.7861972" lon="15.109835"><ele>1177.75</ele><time>2026-04-25T14:50:55.459Z</time></trkpt><trkpt lat="40.7863175" lon="15.109953"><ele>1177.5</ele><time>2026-04-25T14:50:56.467Z</time></trkpt><trkpt lat="40.786445" lon="15.1100336"><ele>1177.25</ele><time>2026-04-25T14:50:57.462Z</time></trkpt><trkpt lat="40.7865749" lon="15.1100756"><ele>1177.0</ele><time>2026-04-25T14:50:58.458Z</time></trkpt><trkpt lat="40.7866991" lon="15.1101054"><ele>1177.0</ele><time>2026-04-25T14:50:59.458Z</time></trkpt><trkpt lat="40.7868095" lon="15.1101257"><ele>1177.0</ele><time>2026-04-25T14:51:00.458Z</time></trkpt><trkpt lat="40.7869119" lon="15.1101608"><ele>1177.0</ele><time>2026-04-25T14:51:01.461Z</time></trkpt><trkpt lat="40.7870025" lon="15.1102058"><ele>1177.0</ele><time>2026-04-25T14:51:02.461Z</time></trkpt><trkpt lat="40.787087" lon="15.1102694"><ele>1177.0</ele><time>2026-04-25T14:51:03.455Z</time></trkpt><trkpt lat="40.7871195" lon="15.1103864"><ele>1177.25</ele><time>2026-04-25T14:51:04.462Z</time></trkpt><trkpt lat="40.7871223" lon="15.1105147"><ele>1177.5</ele><time>2026-04-25T14:51:05.467Z</time></trkpt><trkpt lat="40.7871013" lon="15.110654"><ele>1177.75</ele><time>2026-04-25T14:51:06.463Z</time></trkpt><trkpt lat="40.7870614" lon="15.1108072"><ele>1178.0</ele><time>2026-04-25T14:51:07.465Z</time></trkpt><trkpt lat="40.7870067" lon="15.110961"><ele>1178.0</ele><time>2026-04-25T14:51:08.457Z</time></trkpt><trkpt lat="40.7869431" lon="15.1111179"><ele>1178.0</ele><time>2026-04-25T14:51:09.466Z</time></trkpt><trkpt lat="40.7868785" lon="15.111276"><ele>1178.0</ele><time>2026-04-25T14:51:10.47Z</time></trkpt><trkpt lat="40.7868262" lon="15.1114333"><ele>1178.0</ele><time>2026-04-25T14:51:11.464Z</time></trkpt><trkpt lat="40.7867698" lon="15.1116049"><ele>1176.25</ele><time>2026-04-25T14:51:12.455Z</time></trkpt><trkpt lat="40.7867121" lon="15.1117683"><ele>1174.5</ele><time>2026-04-25T14:51:13.469Z</time></trkpt><trkpt lat="40.7866582" lon="15.1119282"><ele>1172.75</ele><time>2026-04-25T14:51:14.455Z</time></trkpt><trkpt lat="40.7865872" lon="15.112073"><ele>1171.0</ele><time>2026-04-25T14:51:15.45Z</time></trkpt><trkpt lat="40.7865077" lon="15.112185"><ele>1171.0</ele><time>2026-04-25T14:51:16.472Z</time></trkpt><trkpt lat="40.7864416" lon="15.1122892"><ele>1171.0</ele><time>2026-04-25T14:51:17.453Z</time></trkpt><trkpt lat="40.7864133" lon="15.1124127"><ele>1171.0</ele><time>2026-04-25T14:51:18.452Z</time></trkpt><trkpt lat="40.7864221" lon="15.1125412"><ele>1171.0</ele><time>2026-04-25T14:51:19.458Z</time></trkpt><trkpt lat="40.786474" lon="15.1126406"><ele>1171.0</ele><time>2026-04-25T14:51:20.458Z</time></trkpt><trkpt lat="40.7865482" lon="15.112727"><ele>1170.8</ele><time>2026-04-25T14:51:21.454Z</time></trkpt><trkpt lat="40.7866279" lon="15.1128061"><ele>1170.6</ele><time>2026-04-25T14:51:22.455Z</time></trkpt><trkpt lat="40.7867283" lon="15.1128499"><ele>1170.4</ele><time>2026-04-25T14:51:23.457Z</time></trkpt><trkpt lat="40.7868403" lon="15.1128964"><ele>1170.2</ele><time>2026-04-25T14:51:24.453Z</time></trkpt><trkpt lat="40.7869537" lon="15.1129573"><ele>1170.0</ele><time>2026-04-25T14:51:25.45Z</time></trkpt><trkpt lat="40.7870895" lon="15.1130262"><ele>1173.0</ele><time>2026-04-25T14:51:26.457Z</time></trkpt><trkpt lat="40.7872252" lon="15.1130839"><ele>1176.0</ele><time>2026-04-25T14:51:27.46Z</time></trkpt><trkpt lat="40.7873663" lon="15.1131393"><ele>1179.0</ele><time>2026-04-25T14:51:28.451Z</time></trkpt><trkpt lat="40.7875162" lon="15.1131695"><ele>1182.0</ele><time>2026-04-25T14:51:29.452Z</time></trkpt><trkpt lat="40.7876291" lon="15.1131911"><ele>1181.25</ele><time>2026-04-25T14:51:30.453Z</time></trkpt><trkpt lat="40.7877527" lon="15.1131987"><ele>1180.5</ele><time>2026-04-25T14:51:31.467Z</time></trkpt><trkpt lat="40.7878544" lon="15.1131513"><ele>1179.75</ele><time>2026-04-25T14:51:32.459Z</time></trkpt><trkpt lat="40.7879516" lon="15.1130628"><ele>1179.0</ele><time>2026-04-25T14:51:33.456Z</time></trkpt><trkpt lat="40.7880567" lon="15.1129902"><ele>1179.0</ele><time>2026-04-25T14:51:34.452Z</time></trkpt><trkpt lat="40.7881832" lon="15.1129709"><ele>1179.0</ele><time>2026-04-25T14:51:35.448Z</time></trkpt><trkpt lat="40.7883082" lon="15.1130044"><ele>1179.0</ele><time>2026-04-25T14:51:36.475Z</time></trkpt><trkpt lat="40.7884468" lon="15.1130833"><ele>1179.0</ele><time>2026-04-25T14:51:37.463Z</time></trkpt><trkpt lat="40.7885833" lon="15.1131923"><ele>1173.3333333333333</ele><time>2026-04-25T14:51:38.452Z</time></trkpt><trkpt lat="40.7887195" lon="15.1133337"><ele>1167.6666666666665</ele><time>2026-04-25T14:51:39.463Z</time></trkpt><trkpt lat="40.7888516" lon="15.1134711"><ele>1162.0</ele><time>2026-04-25T14:51:40.466Z</time></trkpt><trkpt lat="40.7890067" lon="15.1135856"><ele>1162.0</ele><time>2026-04-25T14:51:41.445Z</time></trkpt><trkpt lat="40.7891607" lon="15.11369"><ele>1162.0</ele><time>2026-04-25T14:51:42.459Z</time></trkpt><trkpt lat="40.7893216" lon="15.1137931"><ele>1162.0</ele><time>2026-04-25T14:51:43.466Z</time></trkpt><trkpt lat="40.7894612" lon="15.1139136"><ele>1163.25</ele><time>2026-04-25T14:51:44.461Z</time></trkpt><trkpt lat="40.7895798" lon="15.1140327"><ele>1164.5</ele><time>2026-04-25T14:51:45.479Z</time></trkpt><trkpt lat="40.7896702" lon="15.1141578"><ele>1165.75</ele><time>2026-04-25T14:51:46.464Z</time></trkpt><trkpt lat="40.7897774" lon="15.1142492"><ele>1167.0</ele><time>2026-04-25T14:51:47.452Z</time></trkpt><trkpt lat="40.7898772" lon="15.1143214"><ele>1159.75</ele><time>2026-04-25T14:51:48.458Z</time></trkpt><trkpt lat="40.7899954" lon="15.1143329"><ele>1152.5</ele><time>2026-04-25T14:51:49.475Z</time></trkpt><trkpt lat="40.7901317" lon="15.1142891"><ele>1145.25</ele><time>2026-04-25T14:51:50.451Z</time></trkpt><trkpt lat="40.7902624" lon="15.1142196"><ele>1138.0</ele><time>2026-04-25T14:51:51.475Z</time></trkpt><trkpt lat="40.7903986" lon="15.1141598"><ele>1137.0</ele><time>2026-04-25T14:51:52.45Z</time></trkpt><trkpt lat="40.7905306" lon="15.1141109"><ele>1136.0</ele><time>2026-04-25T14:51:53.459Z</time></trkpt><trkpt lat="40.7906672" lon="15.1140459"><ele>1135.0</ele><time>2026-04-25T14:51:54.452Z</time></trkpt><trkpt lat="40.7908221" lon="15.1139956"><ele>1134.0</ele><time>2026-04-25T14:51:55.466Z</time></trkpt><trkpt lat="40.7909705" lon="15.1139634"><ele>1134.0</ele><time>2026-04-25T14:51:56.466Z</time></trkpt><trkpt lat="40.7911189" lon="15.113967"><ele>1134.0</ele><time>2026-04-25T14:51:57.461Z</time></trkpt><trkpt lat="40.7912692" lon="15.1140173"><ele>1134.0</ele><time>2026-04-25T14:51:58.457Z</time></trkpt><trkpt lat="40.7914313" lon="15.114072"><ele>1134.0</ele><time>2026-04-25T14:51:59.495Z</time></trkpt><trkpt lat="40.7915768" lon="15.1141595"><ele>1134.0</ele><time>2026-04-25T14:52:00.453Z</time></trkpt><trkpt lat="40.7917282" lon="15.1142462"><ele>1134.0</ele><time>2026-04-25T14:52:01.459Z</time></trkpt><trkpt lat="40.7918721" lon="15.1143244"><ele>1132.3333333333333</ele><time>2026-04-25T14:52:02.46Z</time></trkpt><trkpt lat="40.7920262" lon="15.1143553"><ele>1130.6666666666665</ele><time>2026-04-25T14:52:03.456Z</time></trkpt><trkpt lat="40.7921913" lon="15.1143851"><ele>1129.0</ele><time>2026-04-25T14:52:04.46Z</time></trkpt><trkpt lat="40.7923793" lon="15.1144404"><ele>1129.0</ele><time>2026-04-25T14:52:05.454Z</time></trkpt><trkpt lat="40.7925627" lon="15.1144975"><ele>1129.0</ele><time>2026-04-25T14:52:06.472Z</time></trkpt><trkpt lat="40.7927265" lon="15.114558"><ele>1129.0</ele><time>2026-04-25T14:52:07.462Z</time></trkpt><trkpt lat="40.7929097" lon="15.114666"><ele>1133.3333333333333</ele><time>2026-04-25T14:52:08.453Z</time></trkpt><trkpt lat="40.7930831" lon="15.1147603"><ele>1137.6666666666667</ele><time>2026-04-25T14:52:09.466Z</time></trkpt><trkpt lat="40.793247" lon="15.1148399"><ele>1142.0</ele><time>2026-04-25T14:52:10.464Z</time></trkpt><trkpt lat="40.793408" lon="15.1149024"><ele>1134.6666666666667</ele><time>2026-04-25T14:52:11.452Z</time></trkpt><trkpt lat="40.7935799" lon="15.1149816"><ele>1127.3333333333333</ele><time>2026-04-25T14:52:12.453Z</time></trkpt><trkpt lat="40.7937459" lon="15.1150233"><ele>1120.0</ele><time>2026-04-25T14:52:13.464Z</time></trkpt><trkpt lat="40.7939059" lon="15.1150832"><ele>1120.0</ele><time>2026-04-25T14:52:14.448Z</time></trkpt><trkpt lat="40.7940573" lon="15.1151184"><ele>1120.0</ele><time>2026-04-25T14:52:15.464Z</time></trkpt><trkpt lat="40.7942355" lon="15.1151497"><ele>1120.0</ele><time>2026-04-25T14:52:16.45Z</time></trkpt><trkpt lat="40.7944173" lon="15.1151116"><ele>1117.6666666666665</ele><time>2026-04-25T14:52:17.45Z</time></trkpt><trkpt lat="40.7945901" lon="15.115055"><ele>1115.3333333333333</ele><time>2026-04-25T14:52:18.453Z</time></trkpt><trkpt lat="40.7947755" lon="15.1149705"><ele>1113.0</ele><time>2026-04-25T14:52:19.458Z</time></trkpt><trkpt lat="40.7949366" lon="15.1149111"><ele>1118.6666666666667</ele><time>2026-04-25T14:52:20.453Z</time></trkpt><trkpt lat="40.7951138" lon="15.1148643"><ele>1124.3333333333335</ele><time>2026-04-25T14:52:21.457Z</time></trkpt><trkpt lat="40.7952733" lon="15.1148226"><ele>1130.0</ele><time>2026-04-25T14:52:22.452Z</time></trkpt><trkpt lat="40.7954245" lon="15.1147823"><ele>1130.0</ele><time>2026-04-25T14:52:23.466Z</time></trkpt><trkpt lat="40.795574" lon="15.1147356"><ele>1130.0</ele><time>2026-04-25T14:52:24.451Z</time></trkpt><trkpt lat="40.7957112" lon="15.1147024"><ele>1130.0</ele><time>2026-04-25T14:52:25.459Z</time></trkpt><trkpt lat="40.7958378" lon="15.1146685"><ele>1130.0</ele><time>2026-04-25T14:52:26.455Z</time></trkpt><trkpt lat="40.7959543" lon="15.114632"><ele>1125.8</ele><time>2026-04-25T14:52:27.457Z</time></trkpt><trkpt lat="40.7960698" lon="15.1145971"><ele>1121.6</ele><time>2026-04-25T14:52:28.456Z</time></trkpt><trkpt lat="40.7961717" lon="15.114558"><ele>1117.4</ele><time>2026-04-25T14:52:29.455Z</time></trkpt><trkpt lat="40.7962753" lon="15.1145189"><ele>1113.2</ele><time>2026-04-25T14:52:30.453Z</time></trkpt><trkpt lat="40.7963781" lon="15.1144782"><ele>1109.0</ele><time>2026-04-25T14:52:31.455Z</time></trkpt><trkpt lat="40.796477" lon="15.1144389"><ele>1109.0</ele><time>2026-04-25T14:52:32.462Z</time></trkpt><trkpt lat="40.7965661" lon="15.1143998"><ele>1109.0</ele><time>2026-04-25T14:52:33.475Z</time></trkpt><trkpt lat="40.7966608" lon="15.1143345"><ele>1109.0</ele><time>2026-04-25T14:52:34.458Z</time></trkpt><trkpt lat="40.7967768" lon="15.1142426"><ele>1109.0</ele><time>2026-04-25T14:52:35.461Z</time></trkpt><trkpt lat="40.796877" lon="15.1141576"><ele>1107.0</ele><time>2026-04-25T14:52:36.454Z</time></trkpt><trkpt lat="40.7969859" lon="15.1141016"><ele>1105.0</ele><time>2026-04-25T14:52:37.455Z</time></trkpt><trkpt lat="40.7970915" lon="15.1140551"><ele>1103.0</ele><time>2026-04-25T14:52:38.46Z</time></trkpt><trkpt lat="40.7972022" lon="15.1140092"><ele>1101.0</ele><time>2026-04-25T14:52:39.462Z</time></trkpt><trkpt lat="40.7973045" lon="15.113961"><ele>1101.0</ele><time>2026-04-25T14:52:40.454Z</time></trkpt><trkpt lat="40.7974105" lon="15.1139191"><ele>1101.0</ele><time>2026-04-25T14:52:41.458Z</time></trkpt><trkpt lat="40.7975209" lon="15.1138856"><ele>1101.0</ele><time>2026-04-25T14:52:42.454Z</time></trkpt><trkpt lat="40.7976322" lon="15.113849"><ele>1101.0</ele><time>2026-04-25T14:52:43.464Z</time></trkpt><trkpt lat="40.7977469" lon="15.113816"><ele>1097.75</ele><time>2026-04-25T14:52:44.459Z</time></trkpt><trkpt lat="40.7978607" lon="15.1137814"><ele>1094.5</ele><time>2026-04-25T14:52:45.459Z</time></trkpt><trkpt lat="40.7979757" lon="15.1137547"><ele>1091.25</ele><time>2026-04-25T14:52:46.452Z</time></trkpt><trkpt lat="40.7980934" lon="15.1137303"><ele>1088.0</ele><time>2026-04-25T14:52:47.465Z</time></trkpt><trkpt lat="40.7982094" lon="15.1137063"><ele>1088.0</ele><time>2026-04-25T14:52:48.454Z</time></trkpt><trkpt lat="40.7983244" lon="15.1136822"><ele>1088.0</ele><time>2026-04-25T14:52:49.456Z</time></trkpt><trkpt lat="40.7984409" lon="15.1136561"><ele>1088.0</ele><time>2026-04-25T14:52:50.47Z</time></trkpt><trkpt lat="40.798557" lon="15.11363"><ele>1088.0</ele><time>2026-04-25T14:52:51.461Z</time></trkpt><trkpt lat="40.7986708" lon="15.1136046"><ele>1088.2</ele><time>2026-04-25T14:52:52.459Z</time></trkpt><trkpt lat="40.7987813" lon="15.1135793"><ele>1088.4</ele><time>2026-04-25T14:52:53.451Z</time></trkpt><trkpt lat="40.798885" lon="15.1135556"><ele>1088.6000000000001</ele><time>2026-04-25T14:52:54.451Z</time></trkpt><trkpt lat="40.7989828" lon="15.1135358"><ele>1088.8</ele><time>2026-04-25T14:52:55.459Z</time></trkpt><trkpt lat="40.7990673" lon="15.1135205"><ele>1089.0</ele><time>2026-04-25T14:52:56.452Z</time></trkpt><trkpt lat="40.799134" lon="15.1135109"><ele>1089.0</ele><time>2026-04-25T14:52:57.454Z</time></trkpt><trkpt lat="40.7992189" lon="15.1134941"><ele>1089.0</ele><time>2026-04-25T14:52:59.455Z</time></trkpt><trkpt lat="40.7992982" lon="15.1134718"><ele>1089.0</ele><time>2026-04-25T14:53:30.465Z</time></trkpt><trkpt lat="40.7994044" lon="15.1134439"><ele>1089.0</ele><time>2026-04-25T14:53:32.453Z</time></trkpt><trkpt lat="40.7994839" lon="15.1134272"><ele>1089.0</ele><time>2026-04-25T14:53:33.457Z</time></trkpt><trkpt lat="40.7995745" lon="15.1134084"><ele>1089.0</ele><time>2026-04-25T14:53:34.458Z</time></trkpt><trkpt lat="40.7996772" lon="15.1133882"><ele>1088.75</ele><time>2026-04-25T14:53:35.452Z</time></trkpt><trkpt lat="40.799791" lon="15.113368"><ele>1088.5</ele><time>2026-04-25T14:53:36.454Z</time></trkpt><trkpt lat="40.7999134" lon="15.1133481"><ele>1088.25</ele><time>2026-04-25T14:53:37.451Z</time></trkpt><trkpt lat="40.800042" lon="15.1133259"><ele>1088.0</ele><time>2026-04-25T14:53:38.455Z</time></trkpt><trkpt lat="40.8001755" lon="15.1133047"><ele>1088.0</ele><time>2026-04-25T14:53:39.453Z</time></trkpt><trkpt lat="40.8003116" lon="15.1132873"><ele>1088.0</ele><time>2026-04-25T14:53:40.455Z</time></trkpt><trkpt lat="40.8004493" lon="15.1132736"><ele>1088.0</ele><time>2026-04-25T14:53:41.456Z</time></trkpt><trkpt lat="40.8005876" lon="15.1132597"><ele>1088.0</ele><time>2026-04-25T14:53:42.455Z</time></trkpt><trkpt lat="40.8007253" lon="15.1132424"><ele>1093.75</ele><time>2026-04-25T14:53:43.449Z</time></trkpt><trkpt lat="40.8008585" lon="15.113226"><ele>1099.5</ele><time>2026-04-25T14:53:44.449Z</time></trkpt><trkpt lat="40.801002" lon="15.1132068"><ele>1105.25</ele><time>2026-04-25T14:53:45.456Z</time></trkpt><trkpt lat="40.8011416" lon="15.1131976"><ele>1111.0</ele><time>2026-04-25T14:53:46.454Z</time></trkpt><trkpt lat="40.8012833" lon="15.1131959"><ele>1111.0</ele><time>2026-04-25T14:53:47.458Z</time></trkpt><trkpt lat="40.80142" lon="15.1132061"><ele>1111.0</ele><time>2026-04-25T14:53:48.457Z</time></trkpt><trkpt lat="40.8015586" lon="15.113222"><ele>1111.0</ele><time>2026-04-25T14:53:49.45Z</time></trkpt><trkpt lat="40.8016966" lon="15.1132426"><ele>1111.0</ele><time>2026-04-25T14:53:50.449Z</time></trkpt><trkpt lat="40.8018311" lon="15.1132648"><ele>1103.8</ele><time>2026-04-25T14:53:51.452Z</time></trkpt><trkpt lat="40.8019601" lon="15.113287"><ele>1096.6</ele><time>2026-04-25T14:53:52.455Z</time></trkpt><trkpt lat="40.8020753" lon="15.1133078"><ele>1089.4</ele><time>2026-04-25T14:53:53.447Z</time></trkpt><trkpt lat="40.8021764" lon="15.1133291"><ele>1082.2</ele><time>2026-04-25T14:53:54.464Z</time></trkpt><trkpt lat="40.8022662" lon="15.1133478"><ele>1075.0</ele><time>2026-04-25T14:53:55.457Z</time></trkpt><trkpt lat="40.8023447" lon="15.1133664"><ele>1075.0</ele><time>2026-04-25T14:53:56.461Z</time></trkpt><trkpt lat="40.8024137" lon="15.1133854"><ele>1075.0</ele><time>2026-04-25T14:53:57.458Z</time></trkpt><trkpt lat="40.8025257" lon="15.1134262"><ele>1075.0</ele><time>2026-04-25T14:53:59.459Z</time></trkpt><trkpt lat="40.8026298" lon="15.1134575"><ele>1075.0</ele><time>2026-04-25T14:54:01.449Z</time></trkpt><trkpt lat="40.8027305" lon="15.1134859"><ele>1075.0</ele><time>2026-04-25T14:54:03.464Z</time></trkpt><trkpt lat="40.8028303" lon="15.1135142"><ele>1074.6</ele><time>2026-04-25T14:54:05.453Z</time></trkpt><trkpt lat="40.8029396" lon="15.1135388"><ele>1074.2</ele><time>2026-04-25T14:54:07.456Z</time></trkpt><trkpt lat="40.8030676" lon="15.1135898"><ele>1073.8</ele><time>2026-04-25T14:54:09.451Z</time></trkpt><trkpt lat="40.8031458" lon="15.1136165"><ele>1073.4</ele><time>2026-04-25T14:54:10.457Z</time></trkpt><trkpt lat="40.8032273" lon="15.1136423"><ele>1073.0</ele><time>2026-04-25T14:54:11.458Z</time></trkpt><trkpt lat="40.8033156" lon="15.1136714"><ele>1073.0</ele><time>2026-04-25T14:54:12.449Z</time></trkpt><trkpt lat="40.80341" lon="15.1137012"><ele>1073.0</ele><time>2026-04-25T14:54:13.46Z</time></trkpt><trkpt lat="40.8035099" lon="15.1137315"><ele>1073.0</ele><time>2026-04-25T14:54:14.46Z</time></trkpt><trkpt lat="40.8036141" lon="15.1137599"><ele>1073.0</ele><time>2026-04-25T14:54:15.465Z</time></trkpt><trkpt lat="40.803723" lon="15.1137887"><ele>1073.0</ele><time>2026-04-25T14:54:16.454Z</time></trkpt><trkpt lat="40.803831" lon="15.1138174"><ele>1071.4</ele><time>2026-04-25T14:54:17.461Z</time></trkpt><trkpt lat="40.8039352" lon="15.1138465"><ele>1069.8</ele><time>2026-04-25T14:54:18.459Z</time></trkpt><trkpt lat="40.804033" lon="15.1138715"><ele>1068.2</ele><time>2026-04-25T14:54:19.456Z</time></trkpt><trkpt lat="40.804121" lon="15.1138813"><ele>1066.6</ele><time>2026-04-25T14:54:20.459Z</time></trkpt><trkpt lat="40.8041958" lon="15.1138792"><ele>1065.0</ele><time>2026-04-25T14:54:21.455Z</time></trkpt><trkpt lat="40.8042989" lon="15.1138247"><ele>1065.0</ele><time>2026-04-25T14:54:23.461Z</time></trkpt><trkpt lat="40.8043577" lon="15.1137433"><ele>1065.0</ele><time>2026-04-25T14:54:25.465Z</time></trkpt><trkpt lat="40.8043934" lon="15.1136677"><ele>1065.0</ele><time>2026-04-25T14:54:27.459Z</time></trkpt><trkpt lat="40.8043779" lon="15.1135512"><ele>1065.0</ele><time>2026-04-25T14:54:29.458Z</time></trkpt><trkpt lat="40.8043397" lon="15.1134792"><ele>1065.0</ele><time>2026-04-25T14:54:30.459Z</time></trkpt><trkpt lat="40.8042842" lon="15.1133943"><ele>1065.0</ele><time>2026-04-25T14:54:31.461Z</time></trkpt><trkpt lat="40.8042169" lon="15.1132874"><ele>1065.0</ele><time>2026-04-25T14:54:32.462Z</time></trkpt><trkpt lat="40.8041439" lon="15.1131539"><ele>1065.0</ele><time>2026-04-25T14:54:33.458Z</time></trkpt><trkpt lat="40.8040673" lon="15.1129949"><ele>1065.0</ele><time>2026-04-25T14:54:34.456Z</time></trkpt><trkpt lat="40.8039892" lon="15.1128104"><ele>1065.0</ele><time>2026-04-25T14:54:35.47Z</time></trkpt><trkpt lat="40.8039195" lon="15.112597"><ele>1064.6666666666667</ele><time>2026-04-25T14:54:36.457Z</time></trkpt><trkpt lat="40.8038652" lon="15.1123558"><ele>1064.3333333333335</ele><time>2026-04-25T14:54:37.456Z</time></trkpt><trkpt lat="40.8038266" lon="15.1120911"><ele>1064.0</ele><time>2026-04-25T14:54:38.462Z</time></trkpt><trkpt lat="40.8038077" lon="15.1118093"><ele>1064.6666666666667</ele><time>2026-04-25T14:54:39.457Z</time></trkpt><trkpt lat="40.8038127" lon="15.1115231"><ele>1065.3333333333333</ele><time>2026-04-25T14:54:40.451Z</time></trkpt><trkpt lat="40.8038405" lon="15.1112439"><ele>1066.0</ele><time>2026-04-25T14:54:41.458Z</time></trkpt><trkpt lat="40.8038862" lon="15.1109826"><ele>1065.6666666666665</ele><time>2026-04-25T14:54:42.46Z</time></trkpt><trkpt lat="40.8039404" lon="15.110739"><ele>1065.3333333333333</ele><time>2026-04-25T14:54:43.459Z</time></trkpt><trkpt lat="40.8039981" lon="15.1105079"><ele>1065.0</ele><time>2026-04-25T14:54:44.461Z</time></trkpt><trkpt lat="40.8040565" lon="15.1102786"><ele>1065.0</ele><time>2026-04-25T14:54:45.457Z</time></trkpt><trkpt lat="40.8041137" lon="15.1100501"><ele>1065.0</ele><time>2026-04-25T14:54:46.461Z</time></trkpt><trkpt lat="40.804169" lon="15.1098213"><ele>1065.0</ele><time>2026-04-25T14:54:47.462Z</time></trkpt><trkpt lat="40.8042265" lon="15.1095959"><ele>1065.3333333333333</ele><time>2026-04-25T14:54:48.459Z</time></trkpt><trkpt lat="40.8042859" lon="15.1093725"><ele>1065.6666666666665</ele><time>2026-04-25T14:54:49.455Z</time></trkpt><trkpt lat="40.8043438" lon="15.109149"><ele>1066.0</ele><time>2026-04-25T14:54:50.452Z</time></trkpt><trkpt lat="40.804399" lon="15.1089273"><ele>1063.0</ele><time>2026-04-25T14:54:51.462Z</time></trkpt><trkpt lat="40.804453" lon="15.1087081"><ele>1060.0</ele><time>2026-04-25T14:54:52.453Z</time></trkpt><trkpt lat="40.8045053" lon="15.1084934"><ele>1057.0</ele><time>2026-04-25T14:54:53.453Z</time></trkpt><trkpt lat="40.8045547" lon="15.1082823"><ele>1056.3333333333333</ele><time>2026-04-25T14:54:54.461Z</time></trkpt><trkpt lat="40.8045994" lon="15.1080746"><ele>1055.6666666666667</ele><time>2026-04-25T14:54:55.46Z</time></trkpt><trkpt lat="40.8046356" lon="15.1078697"><ele>1055.0</ele><time>2026-04-25T14:54:56.459Z</time></trkpt><trkpt lat="40.8046599" lon="15.1076665"><ele>1055.0</ele><time>2026-04-25T14:54:57.456Z</time></trkpt><trkpt lat="40.8046734" lon="15.1074665"><ele>1055.0</ele><time>2026-04-25T14:54:58.455Z</time></trkpt><trkpt lat="40.8046777" lon="15.1072698"><ele>1055.0</ele><time>2026-04-25T14:54:59.459Z</time></trkpt><trkpt lat="40.8046725" lon="15.1070778"><ele>1055.0</ele><time>2026-04-25T14:55:00.459Z</time></trkpt><trkpt lat="40.8046617" lon="15.1068938"><ele>1054.5</ele><time>2026-04-25T14:55:01.456Z</time></trkpt><trkpt lat="40.8046518" lon="15.1067205"><ele>1054.0</ele><time>2026-04-25T14:55:02.461Z</time></trkpt><trkpt lat="40.8046485" lon="15.1065549"><ele>1053.5</ele><time>2026-04-25T14:55:03.456Z</time></trkpt><trkpt lat="40.8046438" lon="15.1063884"><ele>1053.0</ele><time>2026-04-25T14:55:04.461Z</time></trkpt><trkpt lat="40.8046331" lon="15.1062157"><ele>1052.5</ele><time>2026-04-25T14:55:05.471Z</time></trkpt><trkpt lat="40.8046209" lon="15.1060373"><ele>1052.0</ele><time>2026-04-25T14:55:06.469Z</time></trkpt><trkpt lat="40.804608" lon="15.1058526"><ele>1051.5</ele><time>2026-04-25T14:55:07.458Z</time></trkpt><trkpt lat="40.8045932" lon="15.1056609"><ele>1051.0</ele><time>2026-04-25T14:55:08.457Z</time></trkpt><trkpt lat="40.8045769" lon="15.1054622"><ele>1050.6666666666665</ele><time>2026-04-25T14:55:09.456Z</time></trkpt><trkpt lat="40.8045599" lon="15.105256"><ele>1050.3333333333333</ele><time>2026-04-25T14:55:10.459Z</time></trkpt><trkpt lat="40.8045436" lon="15.1050426"><ele>1050.0</ele><time>2026-04-25T14:55:11.462Z</time></trkpt><trkpt lat="40.804529" lon="15.1048215"><ele>1050.0</ele><time>2026-04-25T14:55:12.467Z</time></trkpt><trkpt lat="40.8045164" lon="15.1045958"><ele>1050.0</ele><time>2026-04-25T14:55:13.464Z</time></trkpt><trkpt lat="40.8045025" lon="15.1043675"><ele>1050.0</ele><time>2026-04-25T14:55:14.468Z</time></trkpt><trkpt lat="40.8044888" lon="15.1041375"><ele>1050.0</ele><time>2026-04-25T14:55:15.466Z</time></trkpt><trkpt lat="40.8044733" lon="15.1039055"><ele>1050.0</ele><time>2026-04-25T14:55:16.456Z</time></trkpt><trkpt lat="40.8044564" lon="15.1036717"><ele>1050.0</ele><time>2026-04-25T14:55:17.457Z</time></trkpt><trkpt lat="40.8044395" lon="15.1034365"><ele>1049.6666666666667</ele><time>2026-04-25T14:55:18.455Z</time></trkpt><trkpt lat="40.8044224" lon="15.1031995"><ele>1049.3333333333335</ele><time>2026-04-25T14:55:19.461Z</time></trkpt><trkpt lat="40.8044045" lon="15.1029611"><ele>1049.0</ele><time>2026-04-25T14:55:20.456Z</time></trkpt><trkpt lat="40.8043853" lon="15.1027215"><ele>1049.0</ele><time>2026-04-25T14:55:21.461Z</time></trkpt><trkpt lat="40.8043656" lon="15.1024817"><ele>1049.0</ele><time>2026-04-25T14:55:22.456Z</time></trkpt><trkpt lat="40.8043434" lon="15.1022434"><ele>1049.0</ele><time>2026-04-25T14:55:23.466Z</time></trkpt><trkpt lat="40.8043202" lon="15.1020092"><ele>1050.0</ele><time>2026-04-25T14:55:24.458Z</time></trkpt><trkpt lat="40.8042994" lon="15.1017788"><ele>1051.0</ele><time>2026-04-25T14:55:25.45Z</time></trkpt><trkpt lat="40.8042815" lon="15.1015518"><ele>1052.0</ele><time>2026-04-25T14:55:26.461Z</time></trkpt><trkpt lat="40.8042662" lon="15.1013286"><ele>1052.0</ele><time>2026-04-25T14:55:27.463Z</time></trkpt><trkpt lat="40.8042525" lon="15.1011082"><ele>1052.0</ele><time>2026-04-25T14:55:28.454Z</time></trkpt><trkpt lat="40.8042399" lon="15.1008906"><ele>1052.0</ele><time>2026-04-25T14:55:29.462Z</time></trkpt><trkpt lat="40.8042277" lon="15.1006741"><ele>1052.0</ele><time>2026-04-25T14:55:30.455Z</time></trkpt><trkpt lat="40.8042161" lon="15.1004573"><ele>1052.0</ele><time>2026-04-25T14:55:31.46Z</time></trkpt><trkpt lat="40.8042034" lon="15.1002399"><ele>1052.0</ele><time>2026-04-25T14:55:32.455Z</time></trkpt><trkpt lat="40.8041883" lon="15.100022"><ele>1052.3333333333335</ele><time>2026-04-25T14:55:33.459Z</time></trkpt><trkpt lat="40.8041726" lon="15.0998041"><ele>1052.6666666666667</ele><time>2026-04-25T14:55:34.46Z</time></trkpt><trkpt lat="40.8041576" lon="15.0995942"><ele>1053.0</ele><time>2026-04-25T14:55:35.462Z</time></trkpt><trkpt lat="40.8041443" lon="15.0993966"><ele>1053.0</ele><time>2026-04-25T14:55:36.455Z</time></trkpt><trkpt lat="40.8041315" lon="15.0992118"><ele>1053.0</ele><time>2026-04-25T14:55:37.463Z</time></trkpt><trkpt lat="40.8041199" lon="15.0990378"><ele>1053.0</ele><time>2026-04-25T14:55:38.459Z</time></trkpt><trkpt lat="40.8041103" lon="15.0988768"><ele>1053.0</ele><time>2026-04-25T14:55:39.459Z</time></trkpt><trkpt lat="40.804104" lon="15.0987263"><ele>1053.0</ele><time>2026-04-25T14:55:40.461Z</time></trkpt><trkpt lat="40.804103" lon="15.0985792"><ele>1053.0</ele><time>2026-04-25T14:55:41.458Z</time></trkpt><trkpt lat="40.8041073" lon="15.0984343"><ele>1053.0</ele><time>2026-04-25T14:55:42.466Z</time></trkpt><trkpt lat="40.8041164" lon="15.0982904"><ele>1053.0</ele><time>2026-04-25T14:55:43.46Z</time></trkpt><trkpt lat="40.8041293" lon="15.0981458"><ele>1053.0</ele><time>2026-04-25T14:55:44.462Z</time></trkpt><trkpt lat="40.804145" lon="15.0980043"><ele>1053.0</ele><time>2026-04-25T14:55:45.459Z</time></trkpt><trkpt lat="40.8041645" lon="15.0978666"><ele>1053.0</ele><time>2026-04-25T14:55:46.452Z</time></trkpt><trkpt lat="40.8041892" lon="15.0977333"><ele>1053.0</ele><time>2026-04-25T14:55:47.457Z</time></trkpt><trkpt lat="40.8042164" lon="15.0976048"><ele>1053.0</ele><time>2026-04-25T14:55:48.455Z</time></trkpt><trkpt lat="40.8042449" lon="15.0974777"><ele>1053.0</ele><time>2026-04-25T14:55:49.457Z</time></trkpt><trkpt lat="40.8042742" lon="15.0973523"><ele>1053.0</ele><time>2026-04-25T14:55:50.458Z</time></trkpt><trkpt lat="40.8043048" lon="15.0972286"><ele>1053.0</ele><time>2026-04-25T14:55:51.458Z</time></trkpt><trkpt lat="40.8043392" lon="15.0971049"><ele>1053.0</ele><time>2026-04-25T14:55:52.455Z</time></trkpt><trkpt lat="40.8043765" lon="15.0969816"><ele>1053.0</ele><time>2026-04-25T14:55:53.457Z</time></trkpt><trkpt lat="40.8044148" lon="15.0968575"><ele>1053.0</ele><time>2026-04-25T14:55:54.469Z</time></trkpt><trkpt lat="40.804452" lon="15.0967312"><ele>1053.0</ele><time>2026-04-25T14:55:55.462Z</time></trkpt><trkpt lat="40.8044882" lon="15.0966039"><ele>1053.0</ele><time>2026-04-25T14:55:56.448Z</time></trkpt><trkpt lat="40.8045224" lon="15.0964769"><ele>1053.0</ele><time>2026-04-25T14:55:57.459Z</time></trkpt><trkpt lat="40.8045564" lon="15.0963505"><ele>1053.0</ele><time>2026-04-25T14:55:58.459Z</time></trkpt><trkpt lat="40.8045921" lon="15.0962254"><ele>1053.0</ele><time>2026-04-25T14:55:59.46Z</time></trkpt><trkpt lat="40.8046295" lon="15.0961006"><ele>1053.0</ele><time>2026-04-25T14:56:00.459Z</time></trkpt><trkpt lat="40.8046673" lon="15.0959755"><ele>1053.0</ele><time>2026-04-25T14:56:01.456Z</time></trkpt><trkpt lat="40.8047038" lon="15.0958484"><ele>1053.0</ele><time>2026-04-25T14:56:02.462Z</time></trkpt><trkpt lat="40.8047435" lon="15.0957217"><ele>1053.0</ele><time>2026-04-25T14:56:03.459Z</time></trkpt><trkpt lat="40.8047891" lon="15.0955965"><ele>1053.0</ele><time>2026-04-25T14:56:04.456Z</time></trkpt><trkpt lat="40.8048414" lon="15.0954711"><ele>1056.25</ele><time>2026-04-25T14:56:05.457Z</time></trkpt><trkpt lat="40.8048987" lon="15.0953447"><ele>1059.5</ele><time>2026-04-25T14:56:06.456Z</time></trkpt><trkpt lat="40.8049594" lon="15.0952147"><ele>1062.75</ele><time>2026-04-25T14:56:07.467Z</time></trkpt><trkpt lat="40.8050231" lon="15.0950831"><ele>1066.0</ele><time>2026-04-25T14:56:08.454Z</time></trkpt><trkpt lat="40.8050903" lon="15.0949547"><ele>1066.5</ele><time>2026-04-25T14:56:09.464Z</time></trkpt><trkpt lat="40.8051589" lon="15.0948289"><ele>1067.0</ele><time>2026-04-25T14:56:10.455Z</time></trkpt><trkpt lat="40.8052307" lon="15.0947072"><ele>1067.5</ele><time>2026-04-25T14:56:11.465Z</time></trkpt><trkpt lat="40.805307" lon="15.0945942"><ele>1068.0</ele><time>2026-04-25T14:56:12.456Z</time></trkpt><trkpt lat="40.8053858" lon="15.0944847"><ele>1068.0</ele><time>2026-04-25T14:56:13.458Z</time></trkpt><trkpt lat="40.805467" lon="15.0943768"><ele>1068.0</ele><time>2026-04-25T14:56:14.456Z</time></trkpt><trkpt lat="40.8055515" lon="15.0942716"><ele>1068.0</ele><time>2026-04-25T14:56:15.467Z</time></trkpt><trkpt lat="40.8056407" lon="15.0941713"><ele>1068.0</ele><time>2026-04-25T14:56:16.461Z</time></trkpt><trkpt lat="40.8057355" lon="15.0940787"><ele>1070.25</ele><time>2026-04-25T14:56:17.453Z</time></trkpt><trkpt lat="40.8058355" lon="15.0939911"><ele>1072.5</ele><time>2026-04-25T14:56:18.455Z</time></trkpt><trkpt lat="40.8059405" lon="15.0939108"><ele>1074.75</ele><time>2026-04-25T14:56:19.461Z</time></trkpt><trkpt lat="40.806036" lon="15.0938385"><ele>1077.0</ele><time>2026-04-25T14:56:20.462Z</time></trkpt><trkpt lat="40.8061486" lon="15.093794"><ele>1071.0</ele><time>2026-04-25T14:56:21.461Z</time></trkpt><trkpt lat="40.8062662" lon="15.0937586"><ele>1065.0</ele><time>2026-04-25T14:56:22.455Z</time></trkpt><trkpt lat="40.8063835" lon="15.0937337"><ele>1059.0</ele><time>2026-04-25T14:56:23.464Z</time></trkpt><trkpt lat="40.806507" lon="15.09372"><ele>1053.0</ele><time>2026-04-25T14:56:24.459Z</time></trkpt><trkpt lat="40.8066323" lon="15.093722"><ele>1053.0</ele><time>2026-04-25T14:56:25.457Z</time></trkpt><trkpt lat="40.8067535" lon="15.0937309"><ele>1053.0</ele><time>2026-04-25T14:56:26.459Z</time></trkpt><trkpt lat="40.8068715" lon="15.0937524"><ele>1053.0</ele><time>2026-04-25T14:56:27.455Z</time></trkpt><trkpt lat="40.8069892" lon="15.093793"><ele>1053.0</ele><time>2026-04-25T14:56:28.455Z</time></trkpt><trkpt lat="40.8071037" lon="15.0938455"><ele>1056.25</ele><time>2026-04-25T14:56:29.459Z</time></trkpt><trkpt lat="40.8072187" lon="15.0939124"><ele>1059.5</ele><time>2026-04-25T14:56:30.467Z</time></trkpt><trkpt lat="40.8073334" lon="15.0939985"><ele>1062.75</ele><time>2026-04-25T14:56:31.458Z</time></trkpt><trkpt lat="40.807448" lon="15.0941105"><ele>1066.0</ele><time>2026-04-25T14:56:32.463Z</time></trkpt><trkpt lat="40.8075604" lon="15.094245"><ele>1078.0</ele><time>2026-04-25T14:56:33.458Z</time></trkpt><trkpt lat="40.8076713" lon="15.0944009"><ele>1090.0</ele><time>2026-04-25T14:56:34.453Z</time></trkpt><trkpt lat="40.807773" lon="15.0945708"><ele>1102.0</ele><time>2026-04-25T14:56:35.463Z</time></trkpt><trkpt lat="40.8078607" lon="15.0947542"><ele>1100.0</ele><time>2026-04-25T14:56:36.456Z</time></trkpt><trkpt lat="40.807931" lon="15.0949571"><ele>1098.0</ele><time>2026-04-25T14:56:37.452Z</time></trkpt><trkpt lat="40.8079864" lon="15.095178"><ele>1096.0</ele><time>2026-04-25T14:56:38.457Z</time></trkpt><trkpt lat="40.8080352" lon="15.0954229"><ele>1096.0</ele><time>2026-04-25T14:56:39.465Z</time></trkpt><trkpt lat="40.8080823" lon="15.0956889"><ele>1096.0</ele><time>2026-04-25T14:56:40.459Z</time></trkpt><trkpt lat="40.8081275" lon="15.0959658"><ele>1096.0</ele><time>2026-04-25T14:56:41.457Z</time></trkpt><trkpt lat="40.8081711" lon="15.0962422"><ele>1090.6666666666665</ele><time>2026-04-25T14:56:42.455Z</time></trkpt><trkpt lat="40.8082148" lon="15.0965103"><ele>1085.3333333333333</ele><time>2026-04-25T14:56:43.458Z</time></trkpt><trkpt lat="40.8082614" lon="15.0967757"><ele>1080.0</ele><time>2026-04-25T14:56:44.456Z</time></trkpt><trkpt lat="40.8083084" lon="15.0970377"><ele>1075.0</ele><time>2026-04-25T14:56:45.46Z</time></trkpt><trkpt lat="40.8083565" lon="15.0972961"><ele>1070.0</ele><time>2026-04-25T14:56:46.455Z</time></trkpt><trkpt lat="40.808414" lon="15.097546"><ele>1065.0</ele><time>2026-04-25T14:56:47.454Z</time></trkpt><trkpt lat="40.8084929" lon="15.0977831"><ele>1064.0</ele><time>2026-04-25T14:56:48.455Z</time></trkpt><trkpt lat="40.8085961" lon="15.0980005"><ele>1063.0</ele><time>2026-04-25T14:56:49.456Z</time></trkpt><trkpt lat="40.8087215" lon="15.0981923"><ele>1062.0</ele><time>2026-04-25T14:56:50.452Z</time></trkpt><trkpt lat="40.8088662" lon="15.0983575"><ele>1062.0</ele><time>2026-04-25T14:56:51.461Z</time></trkpt><trkpt lat="40.8090269" lon="15.0984957"><ele>1062.0</ele><time>2026-04-25T14:56:52.45Z</time></trkpt><trkpt lat="40.8092013" lon="15.0986066"><ele>1062.0</ele><time>2026-04-25T14:56:53.458Z</time></trkpt><trkpt lat="40.809387" lon="15.0986904"><ele>1062.0</ele><time>2026-04-25T14:56:54.455Z</time></trkpt><trkpt lat="40.8095786" lon="15.0987476"><ele>1062.0</ele><time>2026-04-25T14:56:55.452Z</time></trkpt><trkpt lat="40.8097724" lon="15.0987809"><ele>1062.0</ele><time>2026-04-25T14:56:56.453Z</time></trkpt><trkpt lat="40.809968" lon="15.0988"><ele>1065.3333333333333</ele><time>2026-04-25T14:56:57.454Z</time></trkpt><trkpt lat="40.8101632" lon="15.09881"><ele>1068.6666666666665</ele><time>2026-04-25T14:56:58.458Z</time></trkpt><trkpt lat="40.8103582" lon="15.0988163"><ele>1072.0</ele><time>2026-04-25T14:56:59.46Z</time></trkpt><trkpt lat="40.8105523" lon="15.0988276"><ele>1072.0</ele><time>2026-04-25T14:57:00.457Z</time></trkpt><trkpt lat="40.8107445" lon="15.0988483"><ele>1072.0</ele><time>2026-04-25T14:57:01.461Z</time></trkpt><trkpt lat="40.8109347" lon="15.0988791"><ele>1072.0</ele><time>2026-04-25T14:57:02.458Z</time></trkpt><trkpt lat="40.8111232" lon="15.0989195"><ele>1073.6666666666665</ele><time>2026-04-25T14:57:03.455Z</time></trkpt><trkpt lat="40.811311" lon="15.0989663"><ele>1075.3333333333333</ele><time>2026-04-25T14:57:04.456Z</time></trkpt><trkpt lat="40.8114987" lon="15.0990084"><ele>1077.0</ele><time>2026-04-25T14:57:05.467Z</time></trkpt><trkpt lat="40.8116882" lon="15.0990376"><ele>1078.3333333333333</ele><time>2026-04-25T14:57:06.453Z</time></trkpt><trkpt lat="40.8118788" lon="15.0990469"><ele>1079.6666666666665</ele><time>2026-04-25T14:57:07.465Z</time></trkpt><trkpt lat="40.8120689" lon="15.0990312"><ele>1081.0</ele><time>2026-04-25T14:57:08.455Z</time></trkpt><trkpt lat="40.8122571" lon="15.0989916"><ele>1081.0</ele><time>2026-04-25T14:57:09.456Z</time></trkpt><trkpt lat="40.8124454" lon="15.0989423"><ele>1081.0</ele><time>2026-04-25T14:57:10.457Z</time></trkpt><trkpt lat="40.8126373" lon="15.0989048"><ele>1081.0</ele><time>2026-04-25T14:57:11.456Z</time></trkpt><trkpt lat="40.8128343" lon="15.0988862"><ele>1079.3333333333333</ele><time>2026-04-25T14:57:12.46Z</time></trkpt><trkpt lat="40.8130372" lon="15.0988831"><ele>1077.6666666666667</ele><time>2026-04-25T14:57:13.453Z</time></trkpt><trkpt lat="40.8132439" lon="15.098878"><ele>1076.0</ele><time>2026-04-25T14:57:14.457Z</time></trkpt><trkpt lat="40.8134554" lon="15.0988924"><ele>1077.3333333333335</ele><time>2026-04-25T14:57:15.45Z</time></trkpt><trkpt lat="40.8136738" lon="15.0989085"><ele>1078.6666666666667</ele><time>2026-04-25T14:57:16.461Z</time></trkpt><trkpt lat="40.8138878" lon="15.0989478"><ele>1080.0</ele><time>2026-04-25T14:57:17.456Z</time></trkpt><trkpt lat="40.8140986" lon="15.098991"><ele>1080.0</ele><time>2026-04-25T14:57:18.455Z</time></trkpt><trkpt lat="40.8143038" lon="15.0990523"><ele>1080.0</ele><time>2026-04-25T14:57:19.457Z</time></trkpt><trkpt lat="40.8145131" lon="15.0990945"><ele>1080.0</ele><time>2026-04-25T14:57:20.457Z</time></trkpt><trkpt lat="40.8147223" lon="15.099111"><ele>1072.6666666666667</ele><time>2026-04-25T14:57:21.449Z</time></trkpt><trkpt lat="40.8149355" lon="15.0991067"><ele>1065.3333333333335</ele><time>2026-04-25T14:57:22.46Z</time></trkpt><trkpt lat="40.8151442" lon="15.0990892"><ele>1058.0</ele><time>2026-04-25T14:57:23.452Z</time></trkpt><trkpt lat="40.8153423" lon="15.0990493"><ele>1058.0</ele><time>2026-04-25T14:57:24.465Z</time></trkpt><trkpt lat="40.8155218" lon="15.0990032"><ele>1058.0</ele><time>2026-04-25T14:57:25.459Z</time></trkpt><trkpt lat="40.8156721" lon="15.0989527"><ele>1058.0</ele><time>2026-04-25T14:57:26.463Z</time></trkpt><trkpt lat="40.8158029" lon="15.0988995"><ele>1058.0</ele><time>2026-04-25T14:57:27.467Z</time></trkpt><trkpt lat="40.8159298" lon="15.0988427"><ele>1058.0</ele><time>2026-04-25T14:57:28.456Z</time></trkpt><trkpt lat="40.8160569" lon="15.0987852"><ele>1058.0</ele><time>2026-04-25T14:57:29.466Z</time></trkpt><trkpt lat="40.8161884" lon="15.0987275"><ele>1058.0</ele><time>2026-04-25T14:57:30.456Z</time></trkpt><trkpt lat="40.8163259" lon="15.0986684"><ele>1057.75</ele><time>2026-04-25T14:57:31.456Z</time></trkpt><trkpt lat="40.8164656" lon="15.0986083"><ele>1057.5</ele><time>2026-04-25T14:57:32.449Z</time></trkpt><trkpt lat="40.8166062" lon="15.0985458"><ele>1057.25</ele><time>2026-04-25T14:57:33.461Z</time></trkpt><trkpt lat="40.8167373" lon="15.0984856"><ele>1057.0</ele><time>2026-04-25T14:57:34.455Z</time></trkpt><trkpt lat="40.8168583" lon="15.0984372"><ele>1057.75</ele><time>2026-04-25T14:57:35.457Z</time></trkpt><trkpt lat="40.8169776" lon="15.0983806"><ele>1058.5</ele><time>2026-04-25T14:57:36.449Z</time></trkpt><trkpt lat="40.8171006" lon="15.0983378"><ele>1059.25</ele><time>2026-04-25T14:57:37.455Z</time></trkpt><trkpt lat="40.8172266" lon="15.0982911"><ele>1060.0</ele><time>2026-04-25T14:57:38.452Z</time></trkpt><trkpt lat="40.8173688" lon="15.0982324"><ele>1067.0</ele><time>2026-04-25T14:57:39.454Z</time></trkpt><trkpt lat="40.817513" lon="15.0981701"><ele>1074.0</ele><time>2026-04-25T14:57:40.459Z</time></trkpt><trkpt lat="40.8176596" lon="15.0980983"><ele>1081.0</ele><time>2026-04-25T14:57:41.457Z</time></trkpt><trkpt lat="40.8178103" lon="15.0980205"><ele>1081.0</ele><time>2026-04-25T14:57:42.455Z</time></trkpt><trkpt lat="40.8179597" lon="15.0979442"><ele>1081.0</ele><time>2026-04-25T14:57:43.458Z</time></trkpt><trkpt lat="40.8181062" lon="15.0978575"><ele>1081.0</ele><time>2026-04-25T14:57:44.451Z</time></trkpt><trkpt lat="40.8182463" lon="15.0977586"><ele>1081.0</ele><time>2026-04-25T14:57:45.462Z</time></trkpt><trkpt lat="40.81838" lon="15.0976465"><ele>1081.0</ele><time>2026-04-25T14:57:46.458Z</time></trkpt><trkpt lat="40.8185075" lon="15.0975181"><ele>1081.0</ele><time>2026-04-25T14:57:47.463Z</time></trkpt><trkpt lat="40.8186337" lon="15.0973742"><ele>1076.6666666666665</ele><time>2026-04-25T14:57:48.457Z</time></trkpt><trkpt lat="40.8187533" lon="15.0972169"><ele>1072.3333333333333</ele><time>2026-04-25T14:57:49.455Z</time></trkpt><trkpt lat="40.8188629" lon="15.0970575"><ele>1068.0</ele><time>2026-04-25T14:57:50.455Z</time></trkpt><trkpt lat="40.8189605" lon="15.0968939"><ele>1068.0</ele><time>2026-04-25T14:57:51.451Z</time></trkpt><trkpt lat="40.8190291" lon="15.0967168"><ele>1068.0</ele><time>2026-04-25T14:57:52.456Z</time></trkpt><trkpt lat="40.8190573" lon="15.096536"><ele>1068.0</ele><time>2026-04-25T14:57:53.462Z</time></trkpt><trkpt lat="40.8190797" lon="15.096357"><ele>1068.0</ele><time>2026-04-25T14:57:54.459Z</time></trkpt><trkpt lat="40.8190763" lon="15.096175"><ele>1070.0</ele><time>2026-04-25T14:57:55.461Z</time></trkpt><trkpt lat="40.8191114" lon="15.0960135"><ele>1072.0</ele><time>2026-04-25T14:57:56.451Z</time></trkpt><trkpt lat="40.8191748" lon="15.0958822"><ele>1074.0</ele><time>2026-04-25T14:57:57.455Z</time></trkpt><trkpt lat="40.8192579" lon="15.0957964"><ele>1076.0</ele><time>2026-04-25T14:57:58.453Z</time></trkpt><trkpt lat="40.8193453" lon="15.095721"><ele>1076.0</ele><time>2026-04-25T14:57:59.457Z</time></trkpt><trkpt lat="40.8194279" lon="15.0956153"><ele>1076.0</ele><time>2026-04-25T14:58:00.456Z</time></trkpt><trkpt lat="40.8194991" lon="15.095487"><ele>1076.0</ele><time>2026-04-25T14:58:01.455Z</time></trkpt><trkpt lat="40.8195623" lon="15.0953716"><ele>1076.0</ele><time>2026-04-25T14:58:02.457Z</time></trkpt><trkpt lat="40.8195769" lon="15.0952321"><ele>1076.0</ele><time>2026-04-25T14:58:03.456Z</time></trkpt><trkpt lat="40.8195629" lon="15.0950618"><ele>1076.0</ele><time>2026-04-25T14:58:04.453Z</time></trkpt><trkpt lat="40.8195197" lon="15.0948933"><ele>1076.0</ele><time>2026-04-25T14:58:05.45Z</time></trkpt><trkpt lat="40.819474" lon="15.094693"><ele>1076.0</ele><time>2026-04-25T14:58:06.459Z</time></trkpt><trkpt lat="40.8194192" lon="15.094495"><ele>1079.6666666666667</ele><time>2026-04-25T14:58:07.461Z</time></trkpt><trkpt lat="40.8194314" lon="15.0942665"><ele>1083.3333333333333</ele><time>2026-04-25T14:58:08.452Z</time></trkpt><trkpt lat="40.8194401" lon="15.0939786"><ele>1087.0</ele><time>2026-04-25T14:58:09.456Z</time></trkpt><trkpt lat="40.8194667" lon="15.0937399"><ele>1092.0</ele><time>2026-04-25T14:58:10.455Z</time></trkpt><trkpt lat="40.8194852" lon="15.0935214"><ele>1097.0</ele><time>2026-04-25T14:58:11.456Z</time></trkpt><trkpt lat="40.8194887" lon="15.0933147"><ele>1102.0</ele><time>2026-04-25T14:58:12.46Z</time></trkpt><trkpt lat="40.8194677" lon="15.0930916"><ele>1106.3333333333333</ele><time>2026-04-25T14:58:13.457Z</time></trkpt><trkpt lat="40.8194301" lon="15.0928585"><ele>1110.6666666666667</ele><time>2026-04-25T14:58:14.457Z</time></trkpt><trkpt lat="40.81939" lon="15.0926376"><ele>1115.0</ele><time>2026-04-25T14:58:15.461Z</time></trkpt><trkpt lat="40.8193556" lon="15.0924246"><ele>1113.6666666666667</ele><time>2026-04-25T14:58:16.45Z</time></trkpt><trkpt lat="40.8193238" lon="15.0922182"><ele>1112.3333333333333</ele><time>2026-04-25T14:58:17.455Z</time></trkpt><trkpt lat="40.8192863" lon="15.0920227"><ele>1111.0</ele><time>2026-04-25T14:58:18.453Z</time></trkpt><trkpt lat="40.819254" lon="15.0918331"><ele>1111.0</ele><time>2026-04-25T14:58:19.455Z</time></trkpt><trkpt lat="40.8192429" lon="15.091652"><ele>1111.0</ele><time>2026-04-25T14:58:20.457Z</time></trkpt><trkpt lat="40.8192291" lon="15.0914606"><ele>1111.0</ele><time>2026-04-25T14:58:21.458Z</time></trkpt><trkpt lat="40.819233" lon="15.091276"><ele>1111.0</ele><time>2026-04-25T14:58:22.454Z</time></trkpt><trkpt lat="40.8192479" lon="15.0910701"><ele>1109.0</ele><time>2026-04-25T14:58:23.457Z</time></trkpt><trkpt lat="40.819261" lon="15.090831"><ele>1107.0</ele><time>2026-04-25T14:58:24.452Z</time></trkpt><trkpt lat="40.8192682" lon="15.090589"><ele>1105.0</ele><time>2026-04-25T14:58:25.454Z</time></trkpt><trkpt lat="40.8192746" lon="15.0903414"><ele>1100.3333333333333</ele><time>2026-04-25T14:58:26.451Z</time></trkpt><trkpt lat="40.8192828" lon="15.090085"><ele>1095.6666666666667</ele><time>2026-04-25T14:58:27.451Z</time></trkpt><trkpt lat="40.8192771" lon="15.0898348"><ele>1091.0</ele><time>2026-04-25T14:58:28.449Z</time></trkpt><trkpt lat="40.8192782" lon="15.0895927"><ele>1088.6666666666667</ele><time>2026-04-25T14:58:29.463Z</time></trkpt><trkpt lat="40.8192943" lon="15.0893477"><ele>1086.3333333333333</ele><time>2026-04-25T14:58:30.494Z</time></trkpt><trkpt lat="40.8193155" lon="15.0891112"><ele>1084.0</ele><time>2026-04-25T14:58:31.45Z</time></trkpt><trkpt lat="40.8193407" lon="15.0888862"><ele>1084.0</ele><time>2026-04-25T14:58:32.453Z</time></trkpt><trkpt lat="40.8194003" lon="15.0886672"><ele>1084.0</ele><time>2026-04-25T14:58:33.461Z</time></trkpt><trkpt lat="40.8194752" lon="15.088459"><ele>1084.0</ele><time>2026-04-25T14:58:34.454Z</time></trkpt><trkpt lat="40.8195739" lon="15.0882545"><ele>1078.0</ele><time>2026-04-25T14:58:35.457Z</time></trkpt><trkpt lat="40.8196733" lon="15.0880482"><ele>1072.0</ele><time>2026-04-25T14:58:36.453Z</time></trkpt><trkpt lat="40.8198057" lon="15.0878364"><ele>1066.0</ele><time>2026-04-25T14:58:37.457Z</time></trkpt><trkpt lat="40.8199267" lon="15.0876025"><ele>1068.6666666666665</ele><time>2026-04-25T14:58:38.454Z</time></trkpt><trkpt lat="40.8200449" lon="15.0873766"><ele>1071.3333333333333</ele><time>2026-04-25T14:58:39.45Z</time></trkpt><trkpt lat="40.8201601" lon="15.0871419"><ele>1074.0</ele><time>2026-04-25T14:58:40.458Z</time></trkpt><trkpt lat="40.8202751" lon="15.0868878"><ele>1074.0</ele><time>2026-04-25T14:58:41.456Z</time></trkpt><trkpt lat="40.8203892" lon="15.0866427"><ele>1074.0</ele><time>2026-04-25T14:58:42.455Z</time></trkpt><trkpt lat="40.8205191" lon="15.086404"><ele>1074.0</ele><time>2026-04-25T14:58:43.46Z</time></trkpt><trkpt lat="40.8206688" lon="15.0861741"><ele>1064.5</ele><time>2026-04-25T14:58:44.454Z</time></trkpt><trkpt lat="40.8208206" lon="15.0859492"><ele>1055.0</ele><time>2026-04-25T14:58:45.452Z</time></trkpt><trkpt lat="40.8209736" lon="15.0857256"><ele>1055.6666666666667</ele><time>2026-04-25T14:58:46.456Z</time></trkpt><trkpt lat="40.8211244" lon="15.0855044"><ele>1056.3333333333333</ele><time>2026-04-25T14:58:47.457Z</time></trkpt><trkpt lat="40.8212659" lon="15.0852931"><ele>1057.0</ele><time>2026-04-25T14:58:48.457Z</time></trkpt><trkpt lat="40.8214017" lon="15.0850906"><ele>1056.6666666666665</ele><time>2026-04-25T14:58:49.455Z</time></trkpt><trkpt lat="40.8215173" lon="15.0849022"><ele>1056.3333333333333</ele><time>2026-04-25T14:58:50.455Z</time></trkpt><trkpt lat="40.8215987" lon="15.0847157"><ele>1056.0</ele><time>2026-04-25T14:58:51.462Z</time></trkpt><trkpt lat="40.8216455" lon="15.0845502"><ele>1056.0</ele><time>2026-04-25T14:58:52.455Z</time></trkpt><trkpt lat="40.8216555" lon="15.084424"><ele>1056.0</ele><time>2026-04-25T14:58:53.451Z</time></trkpt><trkpt lat="40.8216326" lon="15.0843153"><ele>1056.0</ele><time>2026-04-25T14:58:54.457Z</time></trkpt><trkpt lat="40.8215726" lon="15.0842191"><ele>1056.0</ele><time>2026-04-25T14:58:55.465Z</time></trkpt><trkpt lat="40.8214968" lon="15.0841148"><ele>1056.0</ele><time>2026-04-25T14:58:56.454Z</time></trkpt><trkpt lat="40.8214268" lon="15.0839865"><ele>1057.0</ele><time>2026-04-25T14:58:57.46Z</time></trkpt><trkpt lat="40.8213602" lon="15.0838253"><ele>1058.0</ele><time>2026-04-25T14:58:58.455Z</time></trkpt><trkpt lat="40.8213125" lon="15.0836528"><ele>1059.0</ele><time>2026-04-25T14:58:59.454Z</time></trkpt><trkpt lat="40.8212752" lon="15.0834651"><ele>1060.0</ele><time>2026-04-25T14:59:00.458Z</time></trkpt><trkpt lat="40.8212582" lon="15.0832706"><ele>1057.0</ele><time>2026-04-25T14:59:01.459Z</time></trkpt><trkpt lat="40.8212483" lon="15.0830861"><ele>1054.0</ele><time>2026-04-25T14:59:02.452Z</time></trkpt><trkpt lat="40.8213046" lon="15.0829003"><ele>1051.0</ele><time>2026-04-25T14:59:03.458Z</time></trkpt><trkpt lat="40.8213752" lon="15.08271"><ele>1051.0</ele><time>2026-04-25T14:59:04.455Z</time></trkpt><trkpt lat="40.8214539" lon="15.0825108"><ele>1051.0</ele><time>2026-04-25T14:59:05.454Z</time></trkpt><trkpt lat="40.8215377" lon="15.082312"><ele>1051.0</ele><time>2026-04-25T14:59:06.455Z</time></trkpt><trkpt lat="40.8216224" lon="15.0821149"><ele>1049.5</ele><time>2026-04-25T14:59:07.453Z</time></trkpt><trkpt lat="40.82169" lon="15.0819292"><ele>1048.0</ele><time>2026-04-25T14:59:08.46Z</time></trkpt><trkpt lat="40.8217175" lon="15.0817593"><ele>1046.5</ele><time>2026-04-25T14:59:09.463Z</time></trkpt><trkpt lat="40.821711" lon="15.0816117"><ele>1045.0</ele><time>2026-04-25T14:59:10.465Z</time></trkpt><trkpt lat="40.8216597" lon="15.0814941"><ele>1045.0</ele><time>2026-04-25T14:59:11.45Z</time></trkpt><trkpt lat="40.8215982" lon="15.0813738"><ele>1045.0</ele><time>2026-04-25T14:59:12.457Z</time></trkpt><trkpt lat="40.8214918" lon="15.0813129"><ele>1045.0</ele><time>2026-04-25T14:59:13.452Z</time></trkpt><trkpt lat="40.8213796" lon="15.0812406"><ele>1045.0</ele><time>2026-04-25T14:59:14.454Z</time></trkpt><trkpt lat="40.8212681" lon="15.0811849"><ele>1045.0</ele><time>2026-04-25T14:59:15.453Z</time></trkpt><trkpt lat="40.8211767" lon="15.0810988"><ele>1045.0</ele><time>2026-04-25T14:59:16.463Z</time></trkpt><trkpt lat="40.8211243" lon="15.0809992"><ele>1045.0</ele><time>2026-04-25T14:59:17.454Z</time></trkpt><trkpt lat="40.8210763" lon="15.0808903"><ele>1045.0</ele><time>2026-04-25T14:59:18.454Z</time></trkpt><trkpt lat="40.82107" lon="15.0807465"><ele>1045.0</ele><time>2026-04-25T14:59:19.458Z</time></trkpt><trkpt lat="40.82107" lon="15.0805937"><ele>1043.5</ele><time>2026-04-25T14:59:20.456Z</time></trkpt><trkpt lat="40.8210831" lon="15.0804235"><ele>1042.0</ele><time>2026-04-25T14:59:21.457Z</time></trkpt><trkpt lat="40.8211042" lon="15.0802393"><ele>1040.5</ele><time>2026-04-25T14:59:22.459Z</time></trkpt><trkpt lat="40.8211336" lon="15.0800463"><ele>1039.0</ele><time>2026-04-25T14:59:23.457Z</time></trkpt><trkpt lat="40.82117" lon="15.0798539"><ele>1034.5</ele><time>2026-04-25T14:59:24.46Z</time></trkpt><trkpt lat="40.8212127" lon="15.0796666"><ele>1030.0</ele><time>2026-04-25T14:59:25.465Z</time></trkpt><trkpt lat="40.8212584" lon="15.0794803"><ele>1025.5</ele><time>2026-04-25T14:59:26.457Z</time></trkpt><trkpt lat="40.8212939" lon="15.0792947"><ele>1021.0</ele><time>2026-04-25T14:59:27.455Z</time></trkpt><trkpt lat="40.8213148" lon="15.079114"><ele>1016.1999999999999</ele><time>2026-04-25T14:59:28.464Z</time></trkpt><trkpt lat="40.8213128" lon="15.0789475"><ele>1011.3999999999999</ele><time>2026-04-25T14:59:29.462Z</time></trkpt><trkpt lat="40.8212944" lon="15.0788031"><ele>1006.6</ele><time>2026-04-25T14:59:30.464Z</time></trkpt><trkpt lat="40.8212695" lon="15.078677"><ele>1001.8</ele><time>2026-04-25T14:59:31.471Z</time></trkpt><trkpt lat="40.8212619" lon="15.0785677"><ele>997.0</ele><time>2026-04-25T14:59:32.472Z</time></trkpt><trkpt lat="40.82126" lon="15.0784741"><ele>997.0</ele><time>2026-04-25T14:59:33.472Z</time></trkpt><trkpt lat="40.8213187" lon="15.0784361"><ele>997.0</ele><time>2026-04-25T14:59:34.471Z</time></trkpt><trkpt lat="40.8214632" lon="15.0784628"><ele>997.0</ele><time>2026-04-25T14:59:36.473Z</time></trkpt><trkpt lat="40.8215495" lon="15.0785159"><ele>997.0</ele><time>2026-04-25T14:59:37.54Z</time></trkpt><trkpt lat="40.8216185" lon="15.0786029"><ele>997.0</ele><time>2026-04-25T14:59:38.486Z</time></trkpt><trkpt lat="40.8216715" lon="15.0787031"><ele>997.0</ele><time>2026-04-25T14:59:39.494Z</time></trkpt><trkpt lat="40.8217305" lon="15.0787899"><ele>997.0</ele><time>2026-04-25T14:59:40.474Z</time></trkpt><trkpt lat="40.8218046" lon="15.0788693"><ele>997.0</ele><time>2026-04-25T14:59:41.466Z</time></trkpt><trkpt lat="40.8219005" lon="15.0788914"><ele>997.0</ele><time>2026-04-25T14:59:42.463Z</time></trkpt><trkpt lat="40.8220093" lon="15.0788863"><ele>997.0</ele><time>2026-04-25T14:59:43.47Z</time></trkpt><trkpt lat="40.8221247" lon="15.0788361"><ele>994.25</ele><time>2026-04-25T14:59:44.459Z</time></trkpt><trkpt lat="40.8222459" lon="15.0787928"><ele>991.5</ele><time>2026-04-25T14:59:45.465Z</time></trkpt><trkpt lat="40.8223727" lon="15.0787473"><ele>988.75</ele><time>2026-04-25T14:59:46.459Z</time></trkpt><trkpt lat="40.8224966" lon="15.0787135"><ele>986.0</ele><time>2026-04-25T14:59:47.469Z</time></trkpt><trkpt lat="40.8226259" lon="15.0786798"><ele>984.25</ele><time>2026-04-25T14:59:48.472Z</time></trkpt><trkpt lat="40.8227636" lon="15.0786439"><ele>982.5</ele><time>2026-04-25T14:59:49.464Z</time></trkpt><trkpt lat="40.8229034" lon="15.0786193"><ele>980.75</ele><time>2026-04-25T14:59:50.454Z</time></trkpt><trkpt lat="40.8230457" lon="15.0785938"><ele>979.0</ele><time>2026-04-25T14:59:51.487Z</time></trkpt><trkpt lat="40.8231862" lon="15.0785721"><ele>979.0</ele><time>2026-04-25T14:59:52.469Z</time></trkpt><trkpt lat="40.8233226" lon="15.0785541"><ele>979.0</ele><time>2026-04-25T14:59:53.468Z</time></trkpt><trkpt lat="40.8234572" lon="15.0785412"><ele>979.0</ele><time>2026-04-25T14:59:54.478Z</time></trkpt><trkpt lat="40.8235834" lon="15.0785294"><ele>979.0</ele><time>2026-04-25T14:59:55.476Z</time></trkpt><trkpt lat="40.8237027" lon="15.0785231"><ele>975.2</ele><time>2026-04-25T14:59:56.457Z</time></trkpt><trkpt lat="40.82381" lon="15.0785202"><ele>971.4000000000001</ele><time>2026-04-25T14:59:57.475Z</time></trkpt><trkpt lat="40.8239027" lon="15.0785142"><ele>967.6</ele><time>2026-04-25T14:59:58.475Z</time></trkpt><trkpt lat="40.8239893" lon="15.0785018"><ele>963.8</ele><time>2026-04-25T14:59:59.464Z</time></trkpt><trkpt lat="40.8240478" lon="15.0784155"><ele>960.0</ele><time>2026-04-25T15:00:00.472Z</time></trkpt><trkpt lat="40.8240904" lon="15.0783257"><ele>955.4</ele><time>2026-04-25T15:00:01.478Z</time></trkpt><trkpt lat="40.8240408" lon="15.0781902"><ele>950.8</ele><time>2026-04-25T15:00:03.467Z</time></trkpt><trkpt lat="40.8239796" lon="15.0781638"><ele>946.2</ele><time>2026-04-25T15:00:04.453Z</time></trkpt><trkpt lat="40.8239022" lon="15.0781564"><ele>941.6</ele><time>2026-04-25T15:00:05.456Z</time></trkpt><trkpt lat="40.8238096" lon="15.0781482"><ele>937.0</ele><time>2026-04-25T15:00:06.467Z</time></trkpt><trkpt lat="40.8237059" lon="15.0781315"><ele>937.0</ele><time>2026-04-25T15:00:07.475Z</time></trkpt><trkpt lat="40.8235941" lon="15.0781114"><ele>937.0</ele><time>2026-04-25T15:00:08.458Z</time></trkpt><trkpt lat="40.8234733" lon="15.0780887"><ele>937.0</ele><time>2026-04-25T15:00:09.456Z</time></trkpt><trkpt lat="40.8233435" lon="15.0780652"><ele>937.0</ele><time>2026-04-25T15:00:10.455Z</time></trkpt><trkpt lat="40.8232072" lon="15.0780359"><ele>939.0</ele><time>2026-04-25T15:00:11.464Z</time></trkpt><trkpt lat="40.8230709" lon="15.0779999"><ele>941.0</ele><time>2026-04-25T15:00:12.454Z</time></trkpt><trkpt lat="40.8229395" lon="15.0779658"><ele>943.0</ele><time>2026-04-25T15:00:13.461Z</time></trkpt><trkpt lat="40.8228136" lon="15.0779355"><ele>945.0</ele><time>2026-04-25T15:00:14.456Z</time></trkpt><trkpt lat="40.8226934" lon="15.0779029"><ele>946.75</ele><time>2026-04-25T15:00:15.457Z</time></trkpt><trkpt lat="40.822582" lon="15.0778652"><ele>948.5</ele><time>2026-04-25T15:00:16.455Z</time></trkpt><trkpt lat="40.8224844" lon="15.0778042"><ele>950.25</ele><time>2026-04-25T15:00:17.463Z</time></trkpt><trkpt lat="40.8224013" lon="15.0777005"><ele>952.0</ele><time>2026-04-25T15:00:18.461Z</time></trkpt><trkpt lat="40.8223153" lon="15.0775885"><ele>952.0</ele><time>2026-04-25T15:00:19.451Z</time></trkpt><trkpt lat="40.822221" lon="15.077469"><ele>952.0</ele><time>2026-04-25T15:00:20.46Z</time></trkpt><trkpt lat="40.8221202" lon="15.0773648"><ele>952.0</ele><time>2026-04-25T15:00:21.461Z</time></trkpt><trkpt lat="40.8220185" lon="15.0772647"><ele>952.0</ele><time>2026-04-25T15:00:22.462Z</time></trkpt><trkpt lat="40.8219293" lon="15.0771666"><ele>950.4000000000001</ele><time>2026-04-25T15:00:23.453Z</time></trkpt><trkpt lat="40.8218591" lon="15.0770729"><ele>948.8000000000001</ele><time>2026-04-25T15:00:24.456Z</time></trkpt><trkpt lat="40.8218103" lon="15.0769816"><ele>947.2</ele><time>2026-04-25T15:00:25.472Z</time></trkpt><trkpt lat="40.8217918" lon="15.0768949"><ele>945.6</ele><time>2026-04-25T15:00:26.465Z</time></trkpt><trkpt lat="40.8218231" lon="15.076764"><ele>944.0</ele><time>2026-04-25T15:00:28.452Z</time></trkpt><trkpt lat="40.8219323" lon="15.0768308"><ele>939.8000000000001</ele><time>2026-04-25T15:00:30.459Z</time></trkpt><trkpt lat="40.8220005" lon="15.0769107"><ele>935.6000000000001</ele><time>2026-04-25T15:00:31.459Z</time></trkpt><trkpt lat="40.8220742" lon="15.0770003"><ele>931.4</ele><time>2026-04-25T15:00:32.451Z</time></trkpt><trkpt lat="40.822169" lon="15.0770968"><ele>927.2</ele><time>2026-04-25T15:00:33.467Z</time></trkpt><trkpt lat="40.8222739" lon="15.0771633"><ele>923.0</ele><time>2026-04-25T15:00:34.459Z</time></trkpt><trkpt lat="40.822393" lon="15.0772205"><ele>923.0</ele><time>2026-04-25T15:00:35.456Z</time></trkpt><trkpt lat="40.8225176" lon="15.0772714"><ele>923.0</ele><time>2026-04-25T15:00:36.454Z</time></trkpt><trkpt lat="40.8226444" lon="15.0773074"><ele>923.0</ele><time>2026-04-25T15:00:37.466Z</time></trkpt><trkpt lat="40.8227571" lon="15.0773614"><ele>923.0</ele><time>2026-04-25T15:00:38.463Z</time></trkpt><trkpt lat="40.8228638" lon="15.077406"><ele>919.0</ele><time>2026-04-25T15:00:39.456Z</time></trkpt><trkpt lat="40.8229737" lon="15.0774285"><ele>915.0</ele><time>2026-04-25T15:00:40.459Z</time></trkpt><trkpt lat="40.823092" lon="15.0773809"><ele>911.0</ele><time>2026-04-25T15:00:41.46Z</time></trkpt><trkpt lat="40.8232178" lon="15.0773328"><ele>907.0</ele><time>2026-04-25T15:00:42.458Z</time></trkpt><trkpt lat="40.8233454" lon="15.0772749"><ele>907.0</ele><time>2026-04-25T15:00:43.464Z</time></trkpt><trkpt lat="40.823465" lon="15.0772116"><ele>907.0</ele><time>2026-04-25T15:00:44.458Z</time></trkpt><trkpt lat="40.8235827" lon="15.077147"><ele>907.0</ele><time>2026-04-25T15:00:45.47Z</time></trkpt><trkpt lat="40.8236983" lon="15.0770836"><ele>907.0</ele><time>2026-04-25T15:00:46.453Z</time></trkpt><trkpt lat="40.8238197" lon="15.0770425"><ele>906.0</ele><time>2026-04-25T15:00:47.454Z</time></trkpt><trkpt lat="40.8239402" lon="15.0770295"><ele>905.0</ele><time>2026-04-25T15:00:48.462Z</time></trkpt><trkpt lat="40.8240608" lon="15.0770402"><ele>904.0</ele><time>2026-04-25T15:00:49.458Z</time></trkpt><trkpt lat="40.824179" lon="15.0770751"><ele>903.0</ele><time>2026-04-25T15:00:50.465Z</time></trkpt><trkpt lat="40.8242925" lon="15.0771391"><ele>903.5</ele><time>2026-04-25T15:00:51.465Z</time></trkpt><trkpt lat="40.8243966" lon="15.0772241"><ele>904.0</ele><time>2026-04-25T15:00:52.466Z</time></trkpt><trkpt lat="40.8244887" lon="15.0773208"><ele>904.5</ele><time>2026-04-25T15:00:53.455Z</time></trkpt><trkpt lat="40.8245697" lon="15.0774198"><ele>905.0</ele><time>2026-04-25T15:00:54.462Z</time></trkpt><trkpt lat="40.8246417" lon="15.0775103"><ele>905.0000000000001</ele><time>2026-04-25T15:00:55.463Z</time></trkpt><trkpt lat="40.8247092" lon="15.0775824"><ele>905.0</ele><time>2026-04-25T15:00:56.462Z</time></trkpt><trkpt lat="40.8247819" lon="15.0776282"><ele>905.0</ele><time>2026-04-25T15:00:57.464Z</time></trkpt><trkpt lat="40.8248457" lon="15.0776617"><ele>905.0</ele><time>2026-04-25T15:00:58.469Z</time></trkpt><trkpt lat="40.8249196" lon="15.0776064"><ele>905.0000000000001</ele><time>2026-04-25T15:00:59.454Z</time></trkpt><trkpt lat="40.8249563" lon="15.0775219"><ele>905.0</ele><time>2026-04-25T15:01:00.462Z</time></trkpt><trkpt lat="40.8249506" lon="15.0774377"><ele>900.3333333333334</ele><time>2026-04-25T15:01:01.462Z</time></trkpt><trkpt lat="40.8249072" lon="15.0773754"><ele>895.6666666666667</ele><time>2026-04-25T15:01:02.459Z</time></trkpt><trkpt lat="40.824844" lon="15.0773186"><ele>891.0</ele><time>2026-04-25T15:01:03.456Z</time></trkpt><trkpt lat="40.8247669" lon="15.0772584"><ele>886.3333333333333</ele><time>2026-04-25T15:01:04.462Z</time></trkpt><trkpt lat="40.8246864" lon="15.0771915"><ele>881.6666666666666</ele><time>2026-04-25T15:01:05.464Z</time></trkpt><trkpt lat="40.8246022" lon="15.0771104"><ele>877.0</ele><time>2026-04-25T15:01:06.469Z</time></trkpt><trkpt lat="40.8245148" lon="15.0770165"><ele>877.0</ele><time>2026-04-25T15:01:07.454Z</time></trkpt><trkpt lat="40.8244203" lon="15.0769169"><ele>877.0</ele><time>2026-04-25T15:01:08.462Z</time></trkpt><trkpt lat="40.8243198" lon="15.076813"><ele>877.0</ele><time>2026-04-25T15:01:09.471Z</time></trkpt><trkpt lat="40.8242039" lon="15.0767239"><ele>877.0</ele><time>2026-04-25T15:01:10.461Z</time></trkpt><trkpt lat="40.8240819" lon="15.076643"><ele>873.75</ele><time>2026-04-25T15:01:11.463Z</time></trkpt><trkpt lat="40.8239674" lon="15.0765612"><ele>870.5</ele><time>2026-04-25T15:01:12.467Z</time></trkpt><trkpt lat="40.8238509" lon="15.0765014"><ele>867.25</ele><time>2026-04-25T15:01:13.458Z</time></trkpt><trkpt lat="40.8237255" lon="15.0764597"><ele>864.0</ele><time>2026-04-25T15:01:14.451Z</time></trkpt><trkpt lat="40.8235979" lon="15.0764539"><ele>865.0</ele><time>2026-04-25T15:01:15.462Z</time></trkpt><trkpt lat="40.8234701" lon="15.076468"><ele>866.0</ele><time>2026-04-25T15:01:16.47Z</time></trkpt><trkpt lat="40.8233477" lon="15.0764824"><ele>867.0</ele><time>2026-04-25T15:01:17.457Z</time></trkpt><trkpt lat="40.8232349" lon="15.0764975"><ele>868.0</ele><time>2026-04-25T15:01:18.454Z</time></trkpt><trkpt lat="40.8231265" lon="15.0765008"><ele>868.0</ele><time>2026-04-25T15:01:19.458Z</time></trkpt><trkpt lat="40.8230183" lon="15.076463"><ele>868.0</ele><time>2026-04-25T15:01:20.455Z</time></trkpt><trkpt lat="40.8229191" lon="15.0763777"><ele>868.0</ele><time>2026-04-25T15:01:21.45Z</time></trkpt><trkpt lat="40.8228331" lon="15.0762532"><ele>868.0</ele><time>2026-04-25T15:01:22.458Z</time></trkpt><trkpt lat="40.8227676" lon="15.0761004"><ele>868.0</ele><time>2026-04-25T15:01:23.458Z</time></trkpt><trkpt lat="40.822715" lon="15.075932"><ele>868.0</ele><time>2026-04-25T15:01:24.465Z</time></trkpt><trkpt lat="40.8226687" lon="15.0757589"><ele>868.0</ele><time>2026-04-25T15:01:25.461Z</time></trkpt><trkpt lat="40.8226229" lon="15.0755895"><ele>868.0</ele><time>2026-04-25T15:01:26.464Z</time></trkpt><trkpt lat="40.8225772" lon="15.07544"><ele>868.0</ele><time>2026-04-25T15:01:27.458Z</time></trkpt><trkpt lat="40.822523" lon="15.0753005"><ele>868.0</ele><time>2026-04-25T15:01:28.462Z</time></trkpt><trkpt lat="40.8224458" lon="15.0751709"><ele>868.0</ele><time>2026-04-25T15:01:29.472Z</time></trkpt><trkpt lat="40.8223547" lon="15.0750629"><ele>868.0</ele><time>2026-04-25T15:01:30.465Z</time></trkpt><trkpt lat="40.8222385" lon="15.0749796"><ele>860.75</ele><time>2026-04-25T15:01:31.46Z</time></trkpt><trkpt lat="40.8221123" lon="15.0749206"><ele>853.5</ele><time>2026-04-25T15:01:32.464Z</time></trkpt><trkpt lat="40.8219809" lon="15.0748858"><ele>846.25</ele><time>2026-04-25T15:01:33.466Z</time></trkpt><trkpt lat="40.8218411" lon="15.074872"><ele>839.0</ele><time>2026-04-25T15:01:34.466Z</time></trkpt><trkpt lat="40.8216963" lon="15.0748712"><ele>838.0</ele><time>2026-04-25T15:01:35.463Z</time></trkpt><trkpt lat="40.8215456" lon="15.0748736"><ele>837.0</ele><time>2026-04-25T15:01:36.46Z</time></trkpt><trkpt lat="40.821393" lon="15.0748726"><ele>836.0</ele><time>2026-04-25T15:01:37.467Z</time></trkpt><trkpt lat="40.8212419" lon="15.0748707"><ele>836.0</ele><time>2026-04-25T15:01:38.468Z</time></trkpt><trkpt lat="40.8210967" lon="15.0748714"><ele>836.0</ele><time>2026-04-25T15:01:39.46Z</time></trkpt><trkpt lat="40.8209557" lon="15.0748773"><ele>836.0</ele><time>2026-04-25T15:01:40.467Z</time></trkpt><trkpt lat="40.8208191" lon="15.0748791"><ele>836.0</ele><time>2026-04-25T15:01:41.46Z</time></trkpt><trkpt lat="40.8206866" lon="15.0748795"><ele>834.0</ele><time>2026-04-25T15:01:42.457Z</time></trkpt><trkpt lat="40.8205626" lon="15.0748511"><ele>832.0</ele><time>2026-04-25T15:01:43.46Z</time></trkpt><trkpt lat="40.8204395" lon="15.0748017"><ele>830.0</ele><time>2026-04-25T15:01:44.454Z</time></trkpt><trkpt lat="40.820312" lon="15.074744"><ele>828.0</ele><time>2026-04-25T15:01:45.456Z</time></trkpt><trkpt lat="40.8201911" lon="15.0746845"><ele>827.4</ele><time>2026-04-25T15:01:46.453Z</time></trkpt><trkpt lat="40.8200838" lon="15.0746306"><ele>826.8</ele><time>2026-04-25T15:01:47.467Z</time></trkpt><trkpt lat="40.8199885" lon="15.074575"><ele>826.2</ele><time>2026-04-25T15:01:48.453Z</time></trkpt><trkpt lat="40.8199121" lon="15.0745175"><ele>825.6</ele><time>2026-04-25T15:01:49.451Z</time></trkpt><trkpt lat="40.8198588" lon="15.0744422"><ele>825.0</ele><time>2026-04-25T15:01:50.455Z</time></trkpt><trkpt lat="40.8198396" lon="15.0742923"><ele>825.0</ele><time>2026-04-25T15:01:52.462Z</time></trkpt><trkpt lat="40.8199509" lon="15.0742654"><ele>825.0</ele><time>2026-04-25T15:01:54.463Z</time></trkpt><trkpt lat="40.8200152" lon="15.0743019"><ele>825.0</ele><time>2026-04-25T15:01:55.471Z</time></trkpt><trkpt lat="40.8200862" lon="15.0743657"><ele>825.0</ele><time>2026-04-25T15:01:56.462Z</time></trkpt><trkpt lat="40.8201586" lon="15.0744403"><ele>825.0</ele><time>2026-04-25T15:01:57.46Z</time></trkpt><trkpt lat="40.8202464" lon="15.0745127"><ele>825.75</ele><time>2026-04-25T15:01:58.463Z</time></trkpt><trkpt lat="40.820348" lon="15.0745686"><ele>826.5</ele><time>2026-04-25T15:01:59.463Z</time></trkpt><trkpt lat="40.8204579" lon="15.0745962"><ele>827.25</ele><time>2026-04-25T15:02:00.468Z</time></trkpt><trkpt lat="40.8205774" lon="15.0746223"><ele>828.0</ele><time>2026-04-25T15:02:01.462Z</time></trkpt><trkpt lat="40.8207133" lon="15.0745823"><ele>828.0</ele><time>2026-04-25T15:02:02.461Z</time></trkpt><trkpt lat="40.8208525" lon="15.0745067"><ele>828.0</ele><time>2026-04-25T15:02:03.466Z</time></trkpt><trkpt lat="40.8210024" lon="15.0744318"><ele>828.0</ele><time>2026-04-25T15:02:04.449Z</time></trkpt><trkpt lat="40.8211606" lon="15.0743571"><ele>830.6666666666667</ele><time>2026-04-25T15:02:05.461Z</time></trkpt><trkpt lat="40.8213249" lon="15.0742714"><ele>833.3333333333334</ele><time>2026-04-25T15:02:06.459Z</time></trkpt><trkpt lat="40.8214877" lon="15.074155"><ele>836.0</ele><time>2026-04-25T15:02:07.458Z</time></trkpt><trkpt lat="40.8216505" lon="15.0740166"><ele>827.3333333333334</ele><time>2026-04-25T15:02:08.457Z</time></trkpt><trkpt lat="40.8218188" lon="15.0738795"><ele>818.6666666666667</ele><time>2026-04-25T15:02:09.46Z</time></trkpt><trkpt lat="40.821996" lon="15.073751"><ele>810.0</ele><time>2026-04-25T15:02:10.464Z</time></trkpt><trkpt lat="40.8221714" lon="15.0736303"><ele>810.0</ele><time>2026-04-25T15:02:11.457Z</time></trkpt><trkpt lat="40.8223453" lon="15.0735135"><ele>810.0</ele><time>2026-04-25T15:02:12.458Z</time></trkpt><trkpt lat="40.8225173" lon="15.0734018"><ele>810.0</ele><time>2026-04-25T15:02:13.466Z</time></trkpt><trkpt lat="40.8226866" lon="15.073293"><ele>801.6666666666667</ele><time>2026-04-25T15:02:14.46Z</time></trkpt><trkpt lat="40.8228475" lon="15.0731911"><ele>793.3333333333334</ele><time>2026-04-25T15:02:15.463Z</time></trkpt><trkpt lat="40.8229937" lon="15.0730949"><ele>785.0</ele><time>2026-04-25T15:02:16.457Z</time></trkpt><trkpt lat="40.8231292" lon="15.073013"><ele>785.0</ele><time>2026-04-25T15:02:17.46Z</time></trkpt><trkpt lat="40.8232531" lon="15.0729567"><ele>785.0</ele><time>2026-04-25T15:02:18.46Z</time></trkpt><trkpt lat="40.8233639" lon="15.0729415"><ele>785.0</ele><time>2026-04-25T15:02:19.457Z</time></trkpt><trkpt lat="40.8234532" lon="15.0729733"><ele>785.0</ele><time>2026-04-25T15:02:20.458Z</time></trkpt><trkpt lat="40.8235142" lon="15.0730492"><ele>785.0</ele><time>2026-04-25T15:02:21.453Z</time></trkpt><trkpt lat="40.8235461" lon="15.0731624"><ele>780.75</ele><time>2026-04-25T15:02:22.455Z</time></trkpt><trkpt lat="40.8235553" lon="15.073297"><ele>776.5</ele><time>2026-04-25T15:02:23.458Z</time></trkpt><trkpt lat="40.8235459" lon="15.0734477"><ele>772.25</ele><time>2026-04-25T15:02:24.454Z</time></trkpt><trkpt lat="40.8235382" lon="15.073605"><ele>768.0</ele><time>2026-04-25T15:02:25.462Z</time></trkpt><trkpt lat="40.8235232" lon="15.0737617"><ele>768.0</ele><time>2026-04-25T15:02:26.451Z</time></trkpt><trkpt lat="40.8235141" lon="15.0739063"><ele>768.0</ele><time>2026-04-25T15:02:27.454Z</time></trkpt><trkpt lat="40.8235281" lon="15.0740243"><ele>768.0</ele><time>2026-04-25T15:02:28.453Z</time></trkpt><trkpt lat="40.8235721" lon="15.0741046"><ele>768.0</ele><time>2026-04-25T15:02:29.451Z</time></trkpt><trkpt lat="40.8236413" lon="15.0741439"><ele>768.0</ele><time>2026-04-25T15:02:30.453Z</time></trkpt><trkpt lat="40.8237222" lon="15.0741445"><ele>768.0</ele><time>2026-04-25T15:02:31.454Z</time></trkpt><trkpt lat="40.8238131" lon="15.074127"><ele>768.0</ele><time>2026-04-25T15:02:32.459Z</time></trkpt><trkpt lat="40.8239122" lon="15.074103"><ele>768.0</ele><time>2026-04-25T15:02:33.462Z</time></trkpt><trkpt lat="40.8240191" lon="15.074075"><ele>768.0</ele><time>2026-04-25T15:02:34.46Z</time></trkpt><trkpt lat="40.8241357" lon="15.07405"><ele>768.0</ele><time>2026-04-25T15:02:35.46Z</time></trkpt><trkpt lat="40.824244" lon="15.0740327"><ele>768.0</ele><time>2026-04-25T15:02:36.458Z</time></trkpt><trkpt lat="40.8243532" lon="15.0740528"><ele>768.4</ele><time>2026-04-25T15:02:37.463Z</time></trkpt><trkpt lat="40.8244603" lon="15.074068"><ele>768.8</ele><time>2026-04-25T15:02:38.454Z</time></trkpt><trkpt lat="40.8245595" lon="15.0741395"><ele>769.2</ele><time>2026-04-25T15:02:39.456Z</time></trkpt><trkpt lat="40.8246528" lon="15.0742157"><ele>769.6</ele><time>2026-04-25T15:02:40.456Z</time></trkpt><trkpt lat="40.8247408" lon="15.0742883"><ele>770.0</ele><time>2026-04-25T15:02:41.461Z</time></trkpt><trkpt lat="40.8248264" lon="15.0743419"><ele>770.0000000000001</ele><time>2026-04-25T15:02:42.456Z</time></trkpt><trkpt lat="40.8249097" lon="15.074367"><ele>770.0</ele><time>2026-04-25T15:02:43.465Z</time></trkpt><trkpt lat="40.8249887" lon="15.0743613"><ele>770.0</ele><time>2026-04-25T15:02:44.457Z</time></trkpt><trkpt lat="40.8250645" lon="15.0743462"><ele>770.0</ele><time>2026-04-25T15:02:45.464Z</time></trkpt><trkpt lat="40.825142" lon="15.0743431"><ele>770.0000000000001</ele><time>2026-04-25T15:02:46.458Z</time></trkpt><trkpt lat="40.8252172" lon="15.0743679"><ele>770.0</ele><time>2026-04-25T15:02:47.461Z</time></trkpt><trkpt lat="40.8252859" lon="15.07442"><ele>765.6666666666667</ele><time>2026-04-25T15:02:48.457Z</time></trkpt><trkpt lat="40.8253479" lon="15.0744902"><ele>761.3333333333334</ele><time>2026-04-25T15:02:49.459Z</time></trkpt><trkpt lat="40.8254153" lon="15.0745563"><ele>757.0</ele><time>2026-04-25T15:02:50.462Z</time></trkpt><trkpt lat="40.8254901" lon="15.0746216"><ele>752.6666666666667</ele><time>2026-04-25T15:02:51.46Z</time></trkpt><trkpt lat="40.8255626" lon="15.0746855"><ele>748.3333333333334</ele><time>2026-04-25T15:02:52.467Z</time></trkpt><trkpt lat="40.8256412" lon="15.0747446"><ele>744.0</ele><time>2026-04-25T15:02:53.471Z</time></trkpt><trkpt lat="40.8257048" lon="15.0747938"><ele>744.0</ele><time>2026-04-25T15:02:54.46Z</time></trkpt><trkpt lat="40.8257924" lon="15.0748323"><ele>744.0</ele><time>2026-04-25T15:02:55.466Z</time></trkpt><trkpt lat="40.8258749" lon="15.0748441"><ele>744.0</ele><time>2026-04-25T15:02:56.461Z</time></trkpt><trkpt lat="40.8259683" lon="15.0748245"><ele>744.0</ele><time>2026-04-25T15:02:57.472Z</time></trkpt><trkpt lat="40.8260855" lon="15.0747858"><ele>744.0</ele><time>2026-04-25T15:02:58.469Z</time></trkpt><trkpt lat="40.8262189" lon="15.0747608"><ele>741.0</ele><time>2026-04-25T15:02:59.453Z</time></trkpt><trkpt lat="40.8263481" lon="15.0747288"><ele>738.0</ele><time>2026-04-25T15:03:00.459Z</time></trkpt><trkpt lat="40.8264924" lon="15.0747179"><ele>735.0</ele><time>2026-04-25T15:03:01.469Z</time></trkpt><trkpt lat="40.8266353" lon="15.0747495"><ele>732.0</ele><time>2026-04-25T15:03:02.466Z</time></trkpt><trkpt lat="40.8267774" lon="15.074816"><ele>731.25</ele><time>2026-04-25T15:03:03.459Z</time></trkpt><trkpt lat="40.8269226" lon="15.0748768"><ele>730.5</ele><time>2026-04-25T15:03:04.459Z</time></trkpt><trkpt lat="40.8270638" lon="15.0749298"><ele>729.75</ele><time>2026-04-25T15:03:05.46Z</time></trkpt><trkpt lat="40.8272101" lon="15.0749734"><ele>729.0</ele><time>2026-04-25T15:03:06.455Z</time></trkpt><trkpt lat="40.8273534" lon="15.0750361"><ele>727.3333333333334</ele><time>2026-04-25T15:03:07.454Z</time></trkpt><trkpt lat="40.8275045" lon="15.0751037"><ele>725.6666666666667</ele><time>2026-04-25T15:03:08.457Z</time></trkpt><trkpt lat="40.8276511" lon="15.0751899"><ele>724.0</ele><time>2026-04-25T15:03:09.466Z</time></trkpt><trkpt lat="40.8277982" lon="15.0752793"><ele>724.0</ele><time>2026-04-25T15:03:10.458Z</time></trkpt><trkpt lat="40.8279431" lon="15.0753686"><ele>724.0</ele><time>2026-04-25T15:03:11.455Z</time></trkpt><trkpt lat="40.8280952" lon="15.0754617"><ele>724.0</ele><time>2026-04-25T15:03:12.459Z</time></trkpt><trkpt lat="40.8282346" lon="15.0755425"><ele>724.0</ele><time>2026-04-25T15:03:13.456Z</time></trkpt><trkpt lat="40.8283718" lon="15.0756169"><ele>724.0</ele><time>2026-04-25T15:03:14.454Z</time></trkpt><trkpt lat="40.8284967" lon="15.0756837"><ele>724.0</ele><time>2026-04-25T15:03:15.456Z</time></trkpt><trkpt lat="40.8286088" lon="15.0757175"><ele>724.0</ele><time>2026-04-25T15:03:16.451Z</time></trkpt><trkpt lat="40.8287382" lon="15.0757339"><ele>722.25</ele><time>2026-04-25T15:03:17.461Z</time></trkpt><trkpt lat="40.8288582" lon="15.075714"><ele>720.5</ele><time>2026-04-25T15:03:18.46Z</time></trkpt><trkpt lat="40.8289792" lon="15.0756772"><ele>718.75</ele><time>2026-04-25T15:03:19.459Z</time></trkpt><trkpt lat="40.8291065" lon="15.0756418"><ele>717.0</ele><time>2026-04-25T15:03:20.467Z</time></trkpt><trkpt lat="40.8292277" lon="15.0756124"><ele>716.6</ele><time>2026-04-25T15:03:21.459Z</time></trkpt><trkpt lat="40.8293303" lon="15.0755956"><ele>716.2</ele><time>2026-04-25T15:03:22.455Z</time></trkpt><trkpt lat="40.829409" lon="15.0756091"><ele>715.8</ele><time>2026-04-25T15:03:23.459Z</time></trkpt><trkpt lat="40.8294905" lon="15.0756928"><ele>715.4</ele><time>2026-04-25T15:03:25.455Z</time></trkpt><trkpt lat="40.8294978" lon="15.0758445"><ele>715.0</ele><time>2026-04-25T15:03:27.457Z</time></trkpt><trkpt lat="40.8294799" lon="15.0759348"><ele>715.0</ele><time>2026-04-25T15:03:28.466Z</time></trkpt><trkpt lat="40.8294593" lon="15.0760361"><ele>715.0</ele><time>2026-04-25T15:03:29.459Z</time></trkpt><trkpt lat="40.8294463" lon="15.0761399"><ele>715.0</ele><time>2026-04-25T15:03:30.462Z</time></trkpt><trkpt lat="40.8294541" lon="15.0762419"><ele>715.0</ele><time>2026-04-25T15:03:31.452Z</time></trkpt><trkpt lat="40.8294864" lon="15.0763258"><ele>715.0</ele><time>2026-04-25T15:03:32.484Z</time></trkpt><trkpt lat="40.8295422" lon="15.0763814"><ele>715.0</ele><time>2026-04-25T15:03:33.467Z</time></trkpt><trkpt lat="40.8296125" lon="15.0763978"><ele>715.0</ele><time>2026-04-25T15:03:34.457Z</time></trkpt><trkpt lat="40.8296949" lon="15.0763798"><ele>715.0</ele><time>2026-04-25T15:03:35.473Z</time></trkpt><trkpt lat="40.8297875" lon="15.0763498"><ele>715.0</ele><time>2026-04-25T15:03:36.456Z</time></trkpt><trkpt lat="40.8298858" lon="15.0762919"><ele>715.0</ele><time>2026-04-25T15:03:37.456Z</time></trkpt><trkpt lat="40.8299852" lon="15.0762213"><ele>715.0</ele><time>2026-04-25T15:03:38.457Z</time></trkpt><trkpt lat="40.8300858" lon="15.0761604"><ele>715.0</ele><time>2026-04-25T15:03:39.461Z</time></trkpt><trkpt lat="40.830188" lon="15.0761236"><ele>713.5</ele><time>2026-04-25T15:03:40.463Z</time></trkpt><trkpt lat="40.8302936" lon="15.0761321"><ele>712.0</ele><time>2026-04-25T15:03:41.465Z</time></trkpt><trkpt lat="40.830402" lon="15.0761805"><ele>710.5</ele><time>2026-04-25T15:03:42.466Z</time></trkpt><trkpt lat="40.8305097" lon="15.0762586"><ele>709.0</ele><time>2026-04-25T15:03:43.459Z</time></trkpt><trkpt lat="40.8306223" lon="15.0763429"><ele>709.0</ele><time>2026-04-25T15:03:44.468Z</time></trkpt><trkpt lat="40.8307312" lon="15.0764519"><ele>709.0</ele><time>2026-04-25T15:03:45.463Z</time></trkpt><trkpt lat="40.8308459" lon="15.0765554"><ele>709.0</ele><time>2026-04-25T15:03:46.459Z</time></trkpt><trkpt lat="40.8309588" lon="15.0766526"><ele>709.0</ele><time>2026-04-25T15:03:47.462Z</time></trkpt><trkpt lat="40.8310671" lon="15.0767469"><ele>709.25</ele><time>2026-04-25T15:03:48.459Z</time></trkpt><trkpt lat="40.8311756" lon="15.0768114"><ele>709.5</ele><time>2026-04-25T15:03:49.457Z</time></trkpt><trkpt lat="40.8312874" lon="15.0768412"><ele>709.75</ele><time>2026-04-25T15:03:50.464Z</time></trkpt><trkpt lat="40.831404" lon="15.0768055"><ele>710.0</ele><time>2026-04-25T15:03:51.468Z</time></trkpt><trkpt lat="40.8315155" lon="15.0767397"><ele>710.0</ele><time>2026-04-25T15:03:52.455Z</time></trkpt><trkpt lat="40.8316246" lon="15.0766661"><ele>710.0</ele><time>2026-04-25T15:03:53.457Z</time></trkpt><trkpt lat="40.8317307" lon="15.0765898"><ele>710.0</ele><time>2026-04-25T15:03:54.458Z</time></trkpt><trkpt lat="40.8318306" lon="15.0765048"><ele>710.0</ele><time>2026-04-25T15:03:55.454Z</time></trkpt><trkpt lat="40.831924" lon="15.0764056"><ele>709.0</ele><time>2026-04-25T15:03:56.467Z</time></trkpt><trkpt lat="40.8320042" lon="15.0762907"><ele>708.0</ele><time>2026-04-25T15:03:57.462Z</time></trkpt><trkpt lat="40.8320748" lon="15.0761622"><ele>707.0</ele><time>2026-04-25T15:03:58.461Z</time></trkpt><trkpt lat="40.8321389" lon="15.0760218"><ele>706.0</ele><time>2026-04-25T15:03:59.464Z</time></trkpt><trkpt lat="40.8321994" lon="15.0758764"><ele>704.5</ele><time>2026-04-25T15:04:00.463Z</time></trkpt><trkpt lat="40.8322604" lon="15.0757308"><ele>703.0</ele><time>2026-04-25T15:04:01.46Z</time></trkpt><trkpt lat="40.8323237" lon="15.0755858"><ele>701.5</ele><time>2026-04-25T15:04:02.458Z</time></trkpt><trkpt lat="40.8323847" lon="15.0754433"><ele>700.0</ele><time>2026-04-25T15:04:03.465Z</time></trkpt><trkpt lat="40.8324403" lon="15.0753016"><ele>700.0</ele><time>2026-04-25T15:04:04.459Z</time></trkpt><trkpt lat="40.8324946" lon="15.075167"><ele>700.0</ele><time>2026-04-25T15:04:05.467Z</time></trkpt><trkpt lat="40.8325477" lon="15.0750425"><ele>700.0</ele><time>2026-04-25T15:04:06.463Z</time></trkpt><trkpt lat="40.8326006" lon="15.074932"><ele>700.0</ele><time>2026-04-25T15:04:07.469Z</time></trkpt><trkpt lat="40.8326556" lon="15.0748328"><ele>700.0</ele><time>2026-04-25T15:04:08.454Z</time></trkpt><trkpt lat="40.8327139" lon="15.0747365"><ele>697.4</ele><time>2026-04-25T15:04:09.466Z</time></trkpt><trkpt lat="40.8327825" lon="15.0746514"><ele>694.8</ele><time>2026-04-25T15:04:10.466Z</time></trkpt><trkpt lat="40.832865" lon="15.0745906"><ele>692.2</ele><time>2026-04-25T15:04:11.46Z</time></trkpt><trkpt lat="40.8329574" lon="15.0745584"><ele>689.6</ele><time>2026-04-25T15:04:12.458Z</time></trkpt><trkpt lat="40.8330543" lon="15.0745579"><ele>687.0</ele><time>2026-04-25T15:04:13.454Z</time></trkpt><trkpt lat="40.8331497" lon="15.0745865"><ele>687.0</ele><time>2026-04-25T15:04:14.458Z</time></trkpt><trkpt lat="40.8332433" lon="15.0746301"><ele>687.0</ele><time>2026-04-25T15:04:15.461Z</time></trkpt><trkpt lat="40.8333363" lon="15.0746791"><ele>687.0</ele><time>2026-04-25T15:04:16.455Z</time></trkpt><trkpt lat="40.8334332" lon="15.0747235"><ele>687.0</ele><time>2026-04-25T15:04:17.449Z</time></trkpt><trkpt lat="40.8335286" lon="15.0747678"><ele>687.0</ele><time>2026-04-25T15:04:18.454Z</time></trkpt><trkpt lat="40.8336213" lon="15.07481"><ele>687.5</ele><time>2026-04-25T15:04:19.463Z</time></trkpt><trkpt lat="40.8337019" lon="15.0748465"><ele>688.0</ele><time>2026-04-25T15:04:20.457Z</time></trkpt><trkpt lat="40.8337696" lon="15.074876"><ele>688.5</ele><time>2026-04-25T15:04:21.454Z</time></trkpt><trkpt lat="40.8338613" lon="15.0749152"><ele>689.0</ele><time>2026-04-25T15:04:23.458Z</time></trkpt><trkpt lat="40.8339598" lon="15.0749478"><ele>689.5</ele><time>2026-04-25T15:04:49.462Z</time></trkpt><trkpt lat="40.8340237" lon="15.0749346"><ele>690.0</ele><time>2026-04-25T15:04:50.452Z</time></trkpt><trkpt lat="40.8340907" lon="15.0748862"><ele>688.5</ele><time>2026-04-25T15:04:51.466Z</time></trkpt><trkpt lat="40.8341473" lon="15.0748021"><ele>687.0</ele><time>2026-04-25T15:04:52.459Z</time></trkpt><trkpt lat="40.834189" lon="15.0747015"><ele>685.5</ele><time>2026-04-25T15:04:53.455Z</time></trkpt><trkpt lat="40.8342087" lon="15.0745932"><ele>684.0</ele><time>2026-04-25T15:04:54.457Z</time></trkpt><trkpt lat="40.8342093" lon="15.0744877"><ele>682.5</ele><time>2026-04-25T15:04:55.457Z</time></trkpt><trkpt lat="40.8341898" lon="15.074363"><ele>681.0</ele><time>2026-04-25T15:04:56.462Z</time></trkpt><trkpt lat="40.8341578" lon="15.0742591"><ele>681.0</ele><time>2026-04-25T15:04:57.458Z</time></trkpt><trkpt lat="40.8341171" lon="15.0741498"><ele>681.0</ele><time>2026-04-25T15:04:58.461Z</time></trkpt><trkpt lat="40.8340743" lon="15.074035"><ele>681.0</ele><time>2026-04-25T15:04:59.471Z</time></trkpt><trkpt lat="40.8340243" lon="15.0739162"><ele>681.0</ele><time>2026-04-25T15:05:00.466Z</time></trkpt><trkpt lat="40.8339771" lon="15.0737908"><ele>681.0</ele><time>2026-04-25T15:05:01.452Z</time></trkpt><trkpt lat="40.8339238" lon="15.0736675"><ele>679.25</ele><time>2026-04-25T15:05:02.462Z</time></trkpt><trkpt lat="40.8338555" lon="15.0735541"><ele>677.5</ele><time>2026-04-25T15:05:03.469Z</time></trkpt><trkpt lat="40.8337748" lon="15.0734609"><ele>675.75</ele><time>2026-04-25T15:05:04.461Z</time></trkpt><trkpt lat="40.8336726" lon="15.0733879"><ele>674.0</ele><time>2026-04-25T15:05:05.465Z</time></trkpt><trkpt lat="40.8335597" lon="15.0733324"><ele>674.5</ele><time>2026-04-25T15:05:06.458Z</time></trkpt><trkpt lat="40.8334456" lon="15.0732854"><ele>675.0</ele><time>2026-04-25T15:05:07.508Z</time></trkpt><trkpt lat="40.8333286" lon="15.0732436"><ele>675.5</ele><time>2026-04-25T15:05:08.484Z</time></trkpt><trkpt lat="40.8332096" lon="15.0732059"><ele>676.0</ele><time>2026-04-25T15:05:09.459Z</time></trkpt><trkpt lat="40.8330939" lon="15.07318"><ele>674.0</ele><time>2026-04-25T15:05:10.461Z</time></trkpt><trkpt lat="40.8329828" lon="15.07317"><ele>672.0</ele><time>2026-04-25T15:05:11.466Z</time></trkpt><trkpt lat="40.8328772" lon="15.0731645"><ele>670.0</ele><time>2026-04-25T15:05:12.472Z</time></trkpt><trkpt lat="40.8327826" lon="15.0731826"><ele>668.0</ele><time>2026-04-25T15:05:13.484Z</time></trkpt><trkpt lat="40.8326993" lon="15.0732019"><ele>666.0</ele><time>2026-04-25T15:05:14.461Z</time></trkpt><trkpt lat="40.8326323" lon="15.0732052"><ele>666.0</ele><time>2026-04-25T15:05:15.467Z</time></trkpt><trkpt lat="40.8325438" lon="15.0731491"><ele>666.0</ele><time>2026-04-25T15:05:17.464Z</time></trkpt><trkpt lat="40.832523" lon="15.0730193"><ele>666.0</ele><time>2026-04-25T15:05:19.466Z</time></trkpt><trkpt lat="40.8325492" lon="15.0728965"><ele>666.0</ele><time>2026-04-25T15:05:21.464Z</time></trkpt><trkpt lat="40.8325798" lon="15.0727983"><ele>666.0</ele><time>2026-04-25T15:05:23.473Z</time></trkpt><trkpt lat="40.832643" lon="15.0727803"><ele>662.0</ele><time>2026-04-25T15:07:22.459Z</time></trkpt></trkseg></trk></gpx>